<?xml version="1.0" encoding="UTF-8" standalone="no" ?>
<gpx xmlns="http://www.topografix.com/GPX/1/1" xmlns:xsi="http://www.w3.org/2001/XMLSchema-instance" xsi:schemaLocation="http://www.topografix.com/GPX/1/1 http://www.topografix.com/GPX/1/1/gpx.xsd" version="1.1" creator="VisuGPX - https://www.visugpx.com">
  <metadata>
    <name>O Turini 1</name>
  </metadata>
  <trk>
    <name><![CDATA[300km_1]]></name>
    <trkseg>
      <trkpt lat="43.97978" lon="7.3898">
        <ele>1645</ele>
        <time>2017-09-17T10:05:44Z</time>
      </trkpt>
      <trkpt lat="43.9798" lon="7.38983">
        <ele>1646</ele>
        <time>2017-09-17T10:05:45Z</time>
      </trkpt>
      <trkpt lat="43.9798" lon="7.38987">
        <ele>1646</ele>
        <time>2017-09-17T10:05:46Z</time>
      </trkpt>
      <trkpt lat="43.9798" lon="7.3899">
        <ele>1646</ele>
        <time>2017-09-17T10:05:47Z</time>
      </trkpt>
      <trkpt lat="43.97979" lon="7.38995">
        <ele>1647</ele>
        <time>2017-09-17T10:05:48Z</time>
      </trkpt>
      <trkpt lat="43.97979" lon="7.38999">
        <ele>1647</ele>
        <time>2017-09-17T10:05:49Z</time>
      </trkpt>
      <trkpt lat="43.97978" lon="7.39003">
        <ele>1648</ele>
        <time>2017-09-17T10:05:50Z</time>
      </trkpt>
      <trkpt lat="43.97978" lon="7.39007">
        <ele>1648</ele>
        <time>2017-09-17T10:05:51Z</time>
      </trkpt>
      <trkpt lat="43.97977" lon="7.39011">
        <ele>1648</ele>
        <time>2017-09-17T10:05:52Z</time>
      </trkpt>
      <trkpt lat="43.97977" lon="7.39015">
        <ele>1649</ele>
        <time>2017-09-17T10:05:53Z</time>
      </trkpt>
      <trkpt lat="43.97976" lon="7.39019">
        <ele>1649</ele>
        <time>2017-09-17T10:05:54Z</time>
      </trkpt>
      <trkpt lat="43.97976" lon="7.39023">
        <ele>1649</ele>
        <time>2017-09-17T10:05:55Z</time>
      </trkpt>
      <trkpt lat="43.97976" lon="7.39027">
        <ele>1650</ele>
        <time>2017-09-17T10:05:56Z</time>
      </trkpt>
      <trkpt lat="43.97975" lon="7.39031">
        <ele>1650</ele>
        <time>2017-09-17T10:05:57Z</time>
      </trkpt>
      <trkpt lat="43.97974" lon="7.39035">
        <ele>1650</ele>
        <time>2017-09-17T10:05:58Z</time>
      </trkpt>
      <trkpt lat="43.97973" lon="7.39038">
        <ele>1650</ele>
        <time>2017-09-17T10:05:59Z</time>
      </trkpt>
      <trkpt lat="43.97973" lon="7.39042">
        <ele>1651</ele>
        <time>2017-09-17T10:06:00Z</time>
      </trkpt>
      <trkpt lat="43.97972" lon="7.39045">
        <ele>1651</ele>
        <time>2017-09-17T10:06:01Z</time>
      </trkpt>
      <trkpt lat="43.9797" lon="7.39049">
        <ele>1651</ele>
        <time>2017-09-17T10:06:02Z</time>
      </trkpt>
      <trkpt lat="43.9797" lon="7.39053">
        <ele>1651</ele>
        <time>2017-09-17T10:06:03Z</time>
      </trkpt>
      <trkpt lat="43.97969" lon="7.39056">
        <ele>1651</ele>
        <time>2017-09-17T10:06:04Z</time>
      </trkpt>
      <trkpt lat="43.97968" lon="7.3906">
        <ele>1651</ele>
        <time>2017-09-17T10:06:05Z</time>
      </trkpt>
      <trkpt lat="43.97967" lon="7.39063">
        <ele>1651</ele>
        <time>2017-09-17T10:06:06Z</time>
      </trkpt>
      <trkpt lat="43.97967" lon="7.39066">
        <ele>1651</ele>
        <time>2017-09-17T10:06:07Z</time>
      </trkpt>
      <trkpt lat="43.97966" lon="7.3907">
        <ele>1651</ele>
        <time>2017-09-17T10:06:08Z</time>
      </trkpt>
      <trkpt lat="43.97966" lon="7.39073">
        <ele>1651</ele>
        <time>2017-09-17T10:06:09Z</time>
      </trkpt>
      <trkpt lat="43.97966" lon="7.39077">
        <ele>1651</ele>
        <time>2017-09-17T10:06:10Z</time>
      </trkpt>
      <trkpt lat="43.97966" lon="7.39081">
        <ele>1651</ele>
        <time>2017-09-17T10:06:11Z</time>
      </trkpt>
      <trkpt lat="43.97966" lon="7.39085">
        <ele>1652</ele>
        <time>2017-09-17T10:06:12Z</time>
      </trkpt>
      <trkpt lat="43.97966" lon="7.39088">
        <ele>1652</ele>
        <time>2017-09-17T10:06:13Z</time>
      </trkpt>
      <trkpt lat="43.97966" lon="7.39092">
        <ele>1652</ele>
        <time>2017-09-17T10:06:14Z</time>
      </trkpt>
      <trkpt lat="43.97967" lon="7.39096">
        <ele>1652</ele>
        <time>2017-09-17T10:06:15Z</time>
      </trkpt>
      <trkpt lat="43.97967" lon="7.391">
        <ele>1653</ele>
        <time>2017-09-17T10:06:16Z</time>
      </trkpt>
      <trkpt lat="43.97968" lon="7.39103">
        <ele>1653</ele>
        <time>2017-09-17T10:06:17Z</time>
      </trkpt>
      <trkpt lat="43.97968" lon="7.39107">
        <ele>1653</ele>
        <time>2017-09-17T10:06:18Z</time>
      </trkpt>
      <trkpt lat="43.97969" lon="7.39111">
        <ele>1653</ele>
        <time>2017-09-17T10:06:19Z</time>
      </trkpt>
      <trkpt lat="43.97969" lon="7.39115">
        <ele>1654</ele>
        <time>2017-09-17T10:06:20Z</time>
      </trkpt>
      <trkpt lat="43.9797" lon="7.39118">
        <ele>1654</ele>
        <time>2017-09-17T10:06:21Z</time>
      </trkpt>
      <trkpt lat="43.97971" lon="7.39122">
        <ele>1654</ele>
        <time>2017-09-17T10:06:22Z</time>
      </trkpt>
      <trkpt lat="43.97972" lon="7.39125">
        <ele>1655</ele>
        <time>2017-09-17T10:06:23Z</time>
      </trkpt>
      <trkpt lat="43.97973" lon="7.39129">
        <ele>1655</ele>
        <time>2017-09-17T10:06:24Z</time>
      </trkpt>
      <trkpt lat="43.97973" lon="7.39133">
        <ele>1655</ele>
        <time>2017-09-17T10:06:25Z</time>
      </trkpt>
      <trkpt lat="43.97974" lon="7.39137">
        <ele>1655</ele>
        <time>2017-09-17T10:06:26Z</time>
      </trkpt>
      <trkpt lat="43.97974" lon="7.3914">
        <ele>1656</ele>
        <time>2017-09-17T10:06:27Z</time>
      </trkpt>
      <trkpt lat="43.97975" lon="7.39144">
        <ele>1656</ele>
        <time>2017-09-17T10:06:28Z</time>
      </trkpt>
      <trkpt lat="43.97975" lon="7.39148">
        <ele>1657</ele>
        <time>2017-09-17T10:06:29Z</time>
      </trkpt>
      <trkpt lat="43.97976" lon="7.39152">
        <ele>1657</ele>
        <time>2017-09-17T10:06:30Z</time>
      </trkpt>
      <trkpt lat="43.97976" lon="7.39156">
        <ele>1657</ele>
        <time>2017-09-17T10:06:31Z</time>
      </trkpt>
      <trkpt lat="43.97977" lon="7.3916">
        <ele>1658</ele>
        <time>2017-09-17T10:06:32Z</time>
      </trkpt>
      <trkpt lat="43.97978" lon="7.39164">
        <ele>1658</ele>
        <time>2017-09-17T10:06:33Z</time>
      </trkpt>
      <trkpt lat="43.97979" lon="7.39167">
        <ele>1659</ele>
        <time>2017-09-17T10:06:34Z</time>
      </trkpt>
      <trkpt lat="43.9798" lon="7.39171">
        <ele>1659</ele>
        <time>2017-09-17T10:06:35Z</time>
      </trkpt>
      <trkpt lat="43.97981" lon="7.39175">
        <ele>1660</ele>
        <time>2017-09-17T10:06:36Z</time>
      </trkpt>
      <trkpt lat="43.97982" lon="7.39178">
        <ele>1660</ele>
        <time>2017-09-17T10:06:37Z</time>
      </trkpt>
      <trkpt lat="43.97983" lon="7.3918">
        <ele>1660</ele>
        <time>2017-09-17T10:06:38Z</time>
      </trkpt>
      <trkpt lat="43.97985" lon="7.39183">
        <ele>1661</ele>
        <time>2017-09-17T10:06:39Z</time>
      </trkpt>
      <trkpt lat="43.97987" lon="7.39186">
        <ele>1661</ele>
        <time>2017-09-17T10:06:40Z</time>
      </trkpt>
      <trkpt lat="43.97989" lon="7.39188">
        <ele>1661</ele>
        <time>2017-09-17T10:06:41Z</time>
      </trkpt>
      <trkpt lat="43.97991" lon="7.39191">
        <ele>1662</ele>
        <time>2017-09-17T10:06:42Z</time>
      </trkpt>
      <trkpt lat="43.97993" lon="7.39194">
        <ele>1662</ele>
        <time>2017-09-17T10:06:43Z</time>
      </trkpt>
      <trkpt lat="43.97995" lon="7.39197">
        <ele>1662</ele>
        <time>2017-09-17T10:06:44Z</time>
      </trkpt>
      <trkpt lat="43.97997" lon="7.39199">
        <ele>1663</ele>
        <time>2017-09-17T10:06:45Z</time>
      </trkpt>
      <trkpt lat="43.98" lon="7.39201">
        <ele>1663</ele>
        <time>2017-09-17T10:06:46Z</time>
      </trkpt>
      <trkpt lat="43.98002" lon="7.39203">
        <ele>1663</ele>
        <time>2017-09-17T10:06:47Z</time>
      </trkpt>
      <trkpt lat="43.98004" lon="7.39205">
        <ele>1664</ele>
        <time>2017-09-17T10:06:48Z</time>
      </trkpt>
      <trkpt lat="43.98006" lon="7.39207">
        <ele>1664</ele>
        <time>2017-09-17T10:06:49Z</time>
      </trkpt>
      <trkpt lat="43.98009" lon="7.39209">
        <ele>1664</ele>
        <time>2017-09-17T10:06:50Z</time>
      </trkpt>
      <trkpt lat="43.98011" lon="7.39212">
        <ele>1664</ele>
        <time>2017-09-17T10:06:51Z</time>
      </trkpt>
      <trkpt lat="43.98013" lon="7.39214">
        <ele>1664</ele>
        <time>2017-09-17T10:06:52Z</time>
      </trkpt>
      <trkpt lat="43.98015" lon="7.39217">
        <ele>1665</ele>
        <time>2017-09-17T10:06:53Z</time>
      </trkpt>
      <trkpt lat="43.98016" lon="7.39219">
        <ele>1665</ele>
        <time>2017-09-17T10:06:54Z</time>
      </trkpt>
      <trkpt lat="43.98018" lon="7.39221">
        <ele>1665</ele>
        <time>2017-09-17T10:06:55Z</time>
      </trkpt>
      <trkpt lat="43.9802" lon="7.39224">
        <ele>1665</ele>
        <time>2017-09-17T10:06:56Z</time>
      </trkpt>
      <trkpt lat="43.98022" lon="7.39226">
        <ele>1665</ele>
        <time>2017-09-17T10:06:57Z</time>
      </trkpt>
      <trkpt lat="43.98023" lon="7.39229">
        <ele>1665</ele>
        <time>2017-09-17T10:06:58Z</time>
      </trkpt>
      <trkpt lat="43.98025" lon="7.39233">
        <ele>1666</ele>
        <time>2017-09-17T10:06:59Z</time>
      </trkpt>
      <trkpt lat="43.98026" lon="7.39236">
        <ele>1666</ele>
        <time>2017-09-17T10:07:00Z</time>
      </trkpt>
      <trkpt lat="43.98026" lon="7.3924">
        <ele>1666</ele>
        <time>2017-09-17T10:07:01Z</time>
      </trkpt>
      <trkpt lat="43.98027" lon="7.39244">
        <ele>1666</ele>
        <time>2017-09-17T10:07:02Z</time>
      </trkpt>
      <trkpt lat="43.98028" lon="7.39247">
        <ele>1667</ele>
        <time>2017-09-17T10:07:03Z</time>
      </trkpt>
      <trkpt lat="43.98029" lon="7.39251">
        <ele>1667</ele>
        <time>2017-09-17T10:07:04Z</time>
      </trkpt>
      <trkpt lat="43.9803" lon="7.39254">
        <ele>1667</ele>
        <time>2017-09-17T10:07:05Z</time>
      </trkpt>
      <trkpt lat="43.98032" lon="7.39257">
        <ele>1667</ele>
        <time>2017-09-17T10:07:06Z</time>
      </trkpt>
      <trkpt lat="43.98033" lon="7.3926">
        <ele>1668</ele>
        <time>2017-09-17T10:07:07Z</time>
      </trkpt>
      <trkpt lat="43.98035" lon="7.39264">
        <ele>1668</ele>
        <time>2017-09-17T10:07:08Z</time>
      </trkpt>
      <trkpt lat="43.98036" lon="7.39267">
        <ele>1668</ele>
        <time>2017-09-17T10:07:09Z</time>
      </trkpt>
      <trkpt lat="43.98038" lon="7.3927">
        <ele>1668</ele>
        <time>2017-09-17T10:07:10Z</time>
      </trkpt>
      <trkpt lat="43.98041" lon="7.39274">
        <ele>1668</ele>
        <time>2017-09-17T10:07:11Z</time>
      </trkpt>
      <trkpt lat="43.98043" lon="7.39278">
        <ele>1668</ele>
        <time>2017-09-17T10:07:12Z</time>
      </trkpt>
      <trkpt lat="43.98045" lon="7.39281">
        <ele>1669</ele>
        <time>2017-09-17T10:07:13Z</time>
      </trkpt>
      <trkpt lat="43.98046" lon="7.39285">
        <ele>1669</ele>
        <time>2017-09-17T10:07:14Z</time>
      </trkpt>
      <trkpt lat="43.98048" lon="7.39289">
        <ele>1669</ele>
        <time>2017-09-17T10:07:15Z</time>
      </trkpt>
      <trkpt lat="43.98049" lon="7.39292">
        <ele>1670</ele>
        <time>2017-09-17T10:07:16Z</time>
      </trkpt>
      <trkpt lat="43.9805" lon="7.39296">
        <ele>1670</ele>
        <time>2017-09-17T10:07:17Z</time>
      </trkpt>
      <trkpt lat="43.9805" lon="7.393">
        <ele>1670</ele>
        <time>2017-09-17T10:07:18Z</time>
      </trkpt>
      <trkpt lat="43.9805" lon="7.39304">
        <ele>1671</ele>
        <time>2017-09-17T10:07:19Z</time>
      </trkpt>
      <trkpt lat="43.9805" lon="7.39308">
        <ele>1671</ele>
        <time>2017-09-17T10:07:20Z</time>
      </trkpt>
      <trkpt lat="43.9805" lon="7.39312">
        <ele>1671</ele>
        <time>2017-09-17T10:07:21Z</time>
      </trkpt>
      <trkpt lat="43.98049" lon="7.39316">
        <ele>1671</ele>
        <time>2017-09-17T10:07:22Z</time>
      </trkpt>
      <trkpt lat="43.98048" lon="7.3932">
        <ele>1671</ele>
        <time>2017-09-17T10:07:23Z</time>
      </trkpt>
      <trkpt lat="43.98048" lon="7.39324">
        <ele>1671</ele>
        <time>2017-09-17T10:07:24Z</time>
      </trkpt>
      <trkpt lat="43.98047" lon="7.39328">
        <ele>1671</ele>
        <time>2017-09-17T10:07:25Z</time>
      </trkpt>
      <trkpt lat="43.98046" lon="7.39332">
        <ele>1671</ele>
        <time>2017-09-17T10:07:26Z</time>
      </trkpt>
      <trkpt lat="43.98046" lon="7.39336">
        <ele>1671</ele>
        <time>2017-09-17T10:07:27Z</time>
      </trkpt>
      <trkpt lat="43.98046" lon="7.3934">
        <ele>1671</ele>
        <time>2017-09-17T10:07:28Z</time>
      </trkpt>
      <trkpt lat="43.98046" lon="7.39344">
        <ele>1671</ele>
        <time>2017-09-17T10:07:29Z</time>
      </trkpt>
      <trkpt lat="43.98047" lon="7.39349">
        <ele>1672</ele>
        <time>2017-09-17T10:07:30Z</time>
      </trkpt>
      <trkpt lat="43.98048" lon="7.39353">
        <ele>1672</ele>
        <time>2017-09-17T10:07:31Z</time>
      </trkpt>
      <trkpt lat="43.98049" lon="7.39357">
        <ele>1672</ele>
        <time>2017-09-17T10:07:32Z</time>
      </trkpt>
      <trkpt lat="43.98051" lon="7.3936">
        <ele>1673</ele>
        <time>2017-09-17T10:07:33Z</time>
      </trkpt>
      <trkpt lat="43.98052" lon="7.39363">
        <ele>1673</ele>
        <time>2017-09-17T10:07:34Z</time>
      </trkpt>
      <trkpt lat="43.98054" lon="7.39367">
        <ele>1673</ele>
        <time>2017-09-17T10:07:35Z</time>
      </trkpt>
      <trkpt lat="43.98056" lon="7.3937">
        <ele>1674</ele>
        <time>2017-09-17T10:07:36Z</time>
      </trkpt>
      <trkpt lat="43.98058" lon="7.39373">
        <ele>1674</ele>
        <time>2017-09-17T10:07:37Z</time>
      </trkpt>
      <trkpt lat="43.9806" lon="7.39377">
        <ele>1674</ele>
        <time>2017-09-17T10:07:38Z</time>
      </trkpt>
      <trkpt lat="43.98062" lon="7.3938">
        <ele>1675</ele>
        <time>2017-09-17T10:07:39Z</time>
      </trkpt>
      <trkpt lat="43.98064" lon="7.39384">
        <ele>1675</ele>
        <time>2017-09-17T10:07:40Z</time>
      </trkpt>
      <trkpt lat="43.98066" lon="7.39387">
        <ele>1675</ele>
        <time>2017-09-17T10:07:41Z</time>
      </trkpt>
      <trkpt lat="43.98067" lon="7.39391">
        <ele>1676</ele>
        <time>2017-09-17T10:07:42Z</time>
      </trkpt>
      <trkpt lat="43.98068" lon="7.39395">
        <ele>1676</ele>
        <time>2017-09-17T10:07:43Z</time>
      </trkpt>
      <trkpt lat="43.98069" lon="7.39399">
        <ele>1676</ele>
        <time>2017-09-17T10:07:44Z</time>
      </trkpt>
      <trkpt lat="43.9807" lon="7.39404">
        <ele>1677</ele>
        <time>2017-09-17T10:07:45Z</time>
      </trkpt>
      <trkpt lat="43.98071" lon="7.39408">
        <ele>1677</ele>
        <time>2017-09-17T10:07:46Z</time>
      </trkpt>
      <trkpt lat="43.98072" lon="7.39412">
        <ele>1678</ele>
        <time>2017-09-17T10:07:47Z</time>
      </trkpt>
      <trkpt lat="43.98072" lon="7.39417">
        <ele>1678</ele>
        <time>2017-09-17T10:07:48Z</time>
      </trkpt>
      <trkpt lat="43.98073" lon="7.39421">
        <ele>1678</ele>
        <time>2017-09-17T10:07:49Z</time>
      </trkpt>
      <trkpt lat="43.98073" lon="7.39426">
        <ele>1679</ele>
        <time>2017-09-17T10:07:50Z</time>
      </trkpt>
      <trkpt lat="43.98074" lon="7.3943">
        <ele>1679</ele>
        <time>2017-09-17T10:07:51Z</time>
      </trkpt>
      <trkpt lat="43.98075" lon="7.39435">
        <ele>1679</ele>
        <time>2017-09-17T10:07:52Z</time>
      </trkpt>
      <trkpt lat="43.98077" lon="7.39439">
        <ele>1680</ele>
        <time>2017-09-17T10:07:53Z</time>
      </trkpt>
      <trkpt lat="43.98079" lon="7.39443">
        <ele>1680</ele>
        <time>2017-09-17T10:07:54Z</time>
      </trkpt>
      <trkpt lat="43.98081" lon="7.39447">
        <ele>1680</ele>
        <time>2017-09-17T10:07:55Z</time>
      </trkpt>
      <trkpt lat="43.98083" lon="7.3945">
        <ele>1680</ele>
        <time>2017-09-17T10:07:56Z</time>
      </trkpt>
      <trkpt lat="43.98085" lon="7.39454">
        <ele>1681</ele>
        <time>2017-09-17T10:07:57Z</time>
      </trkpt>
      <trkpt lat="43.98087" lon="7.39458">
        <ele>1681</ele>
        <time>2017-09-17T10:07:58Z</time>
      </trkpt>
      <trkpt lat="43.9809" lon="7.39461">
        <ele>1681</ele>
        <time>2017-09-17T10:07:59Z</time>
      </trkpt>
      <trkpt lat="43.98092" lon="7.39464">
        <ele>1681</ele>
        <time>2017-09-17T10:08:00Z</time>
      </trkpt>
      <trkpt lat="43.98095" lon="7.39467">
        <ele>1682</ele>
        <time>2017-09-17T10:08:01Z</time>
      </trkpt>
      <trkpt lat="43.98098" lon="7.3947">
        <ele>1682</ele>
        <time>2017-09-17T10:08:02Z</time>
      </trkpt>
      <trkpt lat="43.98101" lon="7.39472">
        <ele>1682</ele>
        <time>2017-09-17T10:08:03Z</time>
      </trkpt>
      <trkpt lat="43.98104" lon="7.39475">
        <ele>1683</ele>
        <time>2017-09-17T10:08:04Z</time>
      </trkpt>
      <trkpt lat="43.98107" lon="7.39477">
        <ele>1683</ele>
        <time>2017-09-17T10:08:05Z</time>
      </trkpt>
      <trkpt lat="43.9811" lon="7.39479">
        <ele>1684</ele>
        <time>2017-09-17T10:08:06Z</time>
      </trkpt>
      <trkpt lat="43.98113" lon="7.39481">
        <ele>1684</ele>
        <time>2017-09-17T10:08:07Z</time>
      </trkpt>
      <trkpt lat="43.98116" lon="7.39483">
        <ele>1684</ele>
        <time>2017-09-17T10:08:08Z</time>
      </trkpt>
      <trkpt lat="43.98119" lon="7.39485">
        <ele>1685</ele>
        <time>2017-09-17T10:08:09Z</time>
      </trkpt>
      <trkpt lat="43.98122" lon="7.39486">
        <ele>1685</ele>
        <time>2017-09-17T10:08:10Z</time>
      </trkpt>
      <trkpt lat="43.98126" lon="7.39487">
        <ele>1685</ele>
        <time>2017-09-17T10:08:11Z</time>
      </trkpt>
      <trkpt lat="43.98129" lon="7.39488">
        <ele>1686</ele>
        <time>2017-09-17T10:08:12Z</time>
      </trkpt>
      <trkpt lat="43.98133" lon="7.39489">
        <ele>1686</ele>
        <time>2017-09-17T10:08:13Z</time>
      </trkpt>
      <trkpt lat="43.98136" lon="7.3949">
        <ele>1686</ele>
        <time>2017-09-17T10:08:14Z</time>
      </trkpt>
      <trkpt lat="43.98139" lon="7.39491">
        <ele>1687</ele>
        <time>2017-09-17T10:08:15Z</time>
      </trkpt>
      <trkpt lat="43.98143" lon="7.39492">
        <ele>1687</ele>
        <time>2017-09-17T10:08:16Z</time>
      </trkpt>
      <trkpt lat="43.98147" lon="7.39493">
        <ele>1687</ele>
        <time>2017-09-17T10:08:17Z</time>
      </trkpt>
      <trkpt lat="43.9815" lon="7.39494">
        <ele>1688</ele>
        <time>2017-09-17T10:08:18Z</time>
      </trkpt>
      <trkpt lat="43.98153" lon="7.39495">
        <ele>1688</ele>
        <time>2017-09-17T10:08:19Z</time>
      </trkpt>
      <trkpt lat="43.98157" lon="7.39495">
        <ele>1688</ele>
        <time>2017-09-17T10:08:20Z</time>
      </trkpt>
      <trkpt lat="43.9816" lon="7.39496">
        <ele>1689</ele>
        <time>2017-09-17T10:08:21Z</time>
      </trkpt>
      <trkpt lat="43.98163" lon="7.39497">
        <ele>1689</ele>
        <time>2017-09-17T10:08:22Z</time>
      </trkpt>
      <trkpt lat="43.98167" lon="7.39498">
        <ele>1690</ele>
        <time>2017-09-17T10:08:23Z</time>
      </trkpt>
      <trkpt lat="43.9817" lon="7.39499">
        <ele>1690</ele>
        <time>2017-09-17T10:08:24Z</time>
      </trkpt>
      <trkpt lat="43.98174" lon="7.395">
        <ele>1691</ele>
        <time>2017-09-17T10:08:25Z</time>
      </trkpt>
      <trkpt lat="43.98177" lon="7.39501">
        <ele>1691</ele>
        <time>2017-09-17T10:08:26Z</time>
      </trkpt>
      <trkpt lat="43.98181" lon="7.39502">
        <ele>1692</ele>
        <time>2017-09-17T10:08:27Z</time>
      </trkpt>
      <trkpt lat="43.98184" lon="7.39504">
        <ele>1692</ele>
        <time>2017-09-17T10:08:28Z</time>
      </trkpt>
      <trkpt lat="43.98187" lon="7.39506">
        <ele>1693</ele>
        <time>2017-09-17T10:08:29Z</time>
      </trkpt>
      <trkpt lat="43.98191" lon="7.39507">
        <ele>1693</ele>
        <time>2017-09-17T10:08:30Z</time>
      </trkpt>
      <trkpt lat="43.98194" lon="7.39508">
        <ele>1694</ele>
        <time>2017-09-17T10:08:31Z</time>
      </trkpt>
      <trkpt lat="43.98198" lon="7.3951">
        <ele>1694</ele>
        <time>2017-09-17T10:08:32Z</time>
      </trkpt>
      <trkpt lat="43.98201" lon="7.39512">
        <ele>1695</ele>
        <time>2017-09-17T10:08:33Z</time>
      </trkpt>
      <trkpt lat="43.98205" lon="7.39513">
        <ele>1696</ele>
        <time>2017-09-17T10:08:34Z</time>
      </trkpt>
      <trkpt lat="43.98208" lon="7.39515">
        <ele>1696</ele>
        <time>2017-09-17T10:08:35Z</time>
      </trkpt>
      <trkpt lat="43.98211" lon="7.39516">
        <ele>1696</ele>
        <time>2017-09-17T10:08:36Z</time>
      </trkpt>
      <trkpt lat="43.98215" lon="7.39517">
        <ele>1697</ele>
        <time>2017-09-17T10:08:37Z</time>
      </trkpt>
      <trkpt lat="43.98218" lon="7.39519">
        <ele>1697</ele>
        <time>2017-09-17T10:08:38Z</time>
      </trkpt>
      <trkpt lat="43.98222" lon="7.39521">
        <ele>1698</ele>
        <time>2017-09-17T10:08:39Z</time>
      </trkpt>
      <trkpt lat="43.98225" lon="7.39525">
        <ele>1698</ele>
        <time>2017-09-17T10:08:40Z</time>
      </trkpt>
      <trkpt lat="43.98227" lon="7.39528">
        <ele>1698</ele>
        <time>2017-09-17T10:08:41Z</time>
      </trkpt>
      <trkpt lat="43.98229" lon="7.39532">
        <ele>1699</ele>
        <time>2017-09-17T10:08:42Z</time>
      </trkpt>
      <trkpt lat="43.98231" lon="7.39536">
        <ele>1699</ele>
        <time>2017-09-17T10:08:43Z</time>
      </trkpt>
      <trkpt lat="43.98233" lon="7.3954">
        <ele>1699</ele>
        <time>2017-09-17T10:08:44Z</time>
      </trkpt>
      <trkpt lat="43.98234" lon="7.39544">
        <ele>1699</ele>
        <time>2017-09-17T10:08:45Z</time>
      </trkpt>
      <trkpt lat="43.98236" lon="7.39548">
        <ele>1700</ele>
        <time>2017-09-17T10:08:46Z</time>
      </trkpt>
      <trkpt lat="43.98238" lon="7.39552">
        <ele>1700</ele>
        <time>2017-09-17T10:08:47Z</time>
      </trkpt>
      <trkpt lat="43.98239" lon="7.39556">
        <ele>1700</ele>
        <time>2017-09-17T10:08:48Z</time>
      </trkpt>
      <trkpt lat="43.98241" lon="7.3956">
        <ele>1700</ele>
        <time>2017-09-17T10:08:49Z</time>
      </trkpt>
      <trkpt lat="43.98243" lon="7.39564">
        <ele>1701</ele>
        <time>2017-09-17T10:08:50Z</time>
      </trkpt>
      <trkpt lat="43.98245" lon="7.39567">
        <ele>1701</ele>
        <time>2017-09-17T10:08:51Z</time>
      </trkpt>
      <trkpt lat="43.98247" lon="7.39571">
        <ele>1701</ele>
        <time>2017-09-17T10:08:52Z</time>
      </trkpt>
      <trkpt lat="43.98248" lon="7.39574">
        <ele>1701</ele>
        <time>2017-09-17T10:08:53Z</time>
      </trkpt>
      <trkpt lat="43.9825" lon="7.39578">
        <ele>1701</ele>
        <time>2017-09-17T10:08:54Z</time>
      </trkpt>
      <trkpt lat="43.98251" lon="7.39582">
        <ele>1701</ele>
        <time>2017-09-17T10:08:55Z</time>
      </trkpt>
      <trkpt lat="43.98253" lon="7.39585">
        <ele>1701</ele>
        <time>2017-09-17T10:08:56Z</time>
      </trkpt>
      <trkpt lat="43.98254" lon="7.3959">
        <ele>1701</ele>
        <time>2017-09-17T10:08:57Z</time>
      </trkpt>
      <trkpt lat="43.98255" lon="7.39594">
        <ele>1702</ele>
        <time>2017-09-17T10:08:58Z</time>
      </trkpt>
      <trkpt lat="43.98255" lon="7.39598">
        <ele>1702</ele>
        <time>2017-09-17T10:08:59Z</time>
      </trkpt>
      <trkpt lat="43.98256" lon="7.39602">
        <ele>1702</ele>
        <time>2017-09-17T10:09:00Z</time>
      </trkpt>
      <trkpt lat="43.98257" lon="7.39607">
        <ele>1702</ele>
        <time>2017-09-17T10:09:01Z</time>
      </trkpt>
      <trkpt lat="43.98257" lon="7.39612">
        <ele>1702</ele>
        <time>2017-09-17T10:09:02Z</time>
      </trkpt>
      <trkpt lat="43.98257" lon="7.39617">
        <ele>1703</ele>
        <time>2017-09-17T10:09:03Z</time>
      </trkpt>
      <trkpt lat="43.98257" lon="7.39621">
        <ele>1703</ele>
        <time>2017-09-17T10:09:04Z</time>
      </trkpt>
      <trkpt lat="43.98256" lon="7.39626">
        <ele>1703</ele>
        <time>2017-09-17T10:09:05Z</time>
      </trkpt>
      <trkpt lat="43.98255" lon="7.3963">
        <ele>1703</ele>
        <time>2017-09-17T10:09:06Z</time>
      </trkpt>
      <trkpt lat="43.98255" lon="7.39634">
        <ele>1703</ele>
        <time>2017-09-17T10:09:07Z</time>
      </trkpt>
      <trkpt lat="43.98255" lon="7.39639">
        <ele>1704</ele>
        <time>2017-09-17T10:09:08Z</time>
      </trkpt>
      <trkpt lat="43.98254" lon="7.39644">
        <ele>1704</ele>
        <time>2017-09-17T10:09:09Z</time>
      </trkpt>
      <trkpt lat="43.98254" lon="7.39648">
        <ele>1704</ele>
        <time>2017-09-17T10:09:10Z</time>
      </trkpt>
      <trkpt lat="43.98254" lon="7.39653">
        <ele>1704</ele>
        <time>2017-09-17T10:09:11Z</time>
      </trkpt>
      <trkpt lat="43.98254" lon="7.39657">
        <ele>1704</ele>
        <time>2017-09-17T10:09:12Z</time>
      </trkpt>
      <trkpt lat="43.98254" lon="7.39662">
        <ele>1704</ele>
        <time>2017-09-17T10:09:13Z</time>
      </trkpt>
      <trkpt lat="43.98254" lon="7.39667">
        <ele>1704</ele>
        <time>2017-09-17T10:09:14Z</time>
      </trkpt>
      <trkpt lat="43.98254" lon="7.39671">
        <ele>1705</ele>
        <time>2017-09-17T10:09:15Z</time>
      </trkpt>
      <trkpt lat="43.98255" lon="7.39676">
        <ele>1705</ele>
        <time>2017-09-17T10:09:16Z</time>
      </trkpt>
      <trkpt lat="43.98256" lon="7.39681">
        <ele>1705</ele>
        <time>2017-09-17T10:09:17Z</time>
      </trkpt>
      <trkpt lat="43.98256" lon="7.39685">
        <ele>1705</ele>
        <time>2017-09-17T10:09:18Z</time>
      </trkpt>
      <trkpt lat="43.98257" lon="7.3969">
        <ele>1705</ele>
        <time>2017-09-17T10:09:19Z</time>
      </trkpt>
      <trkpt lat="43.98258" lon="7.39695">
        <ele>1705</ele>
        <time>2017-09-17T10:09:20Z</time>
      </trkpt>
      <trkpt lat="43.9826" lon="7.39699">
        <ele>1705</ele>
        <time>2017-09-17T10:09:21Z</time>
      </trkpt>
      <trkpt lat="43.98261" lon="7.39704">
        <ele>1706</ele>
        <time>2017-09-17T10:09:22Z</time>
      </trkpt>
      <trkpt lat="43.98263" lon="7.39708">
        <ele>1706</ele>
        <time>2017-09-17T10:09:23Z</time>
      </trkpt>
      <trkpt lat="43.98264" lon="7.39712">
        <ele>1706</ele>
        <time>2017-09-17T10:09:24Z</time>
      </trkpt>
      <trkpt lat="43.98266" lon="7.39717">
        <ele>1706</ele>
        <time>2017-09-17T10:09:25Z</time>
      </trkpt>
      <trkpt lat="43.98268" lon="7.39721">
        <ele>1706</ele>
        <time>2017-09-17T10:09:26Z</time>
      </trkpt>
      <trkpt lat="43.98269" lon="7.39725">
        <ele>1707</ele>
        <time>2017-09-17T10:09:27Z</time>
      </trkpt>
      <trkpt lat="43.98271" lon="7.39729">
        <ele>1707</ele>
        <time>2017-09-17T10:09:28Z</time>
      </trkpt>
      <trkpt lat="43.98273" lon="7.39734">
        <ele>1707</ele>
        <time>2017-09-17T10:09:29Z</time>
      </trkpt>
      <trkpt lat="43.98275" lon="7.39738">
        <ele>1707</ele>
        <time>2017-09-17T10:09:30Z</time>
      </trkpt>
      <trkpt lat="43.98277" lon="7.39742">
        <ele>1708</ele>
        <time>2017-09-17T10:09:31Z</time>
      </trkpt>
      <trkpt lat="43.98278" lon="7.39747">
        <ele>1708</ele>
        <time>2017-09-17T10:09:32Z</time>
      </trkpt>
      <trkpt lat="43.9828" lon="7.39751">
        <ele>1708</ele>
        <time>2017-09-17T10:09:33Z</time>
      </trkpt>
      <trkpt lat="43.98283" lon="7.39755">
        <ele>1709</ele>
        <time>2017-09-17T10:09:34Z</time>
      </trkpt>
      <trkpt lat="43.98285" lon="7.39758">
        <ele>1709</ele>
        <time>2017-09-17T10:09:35Z</time>
      </trkpt>
      <trkpt lat="43.98288" lon="7.39762">
        <ele>1710</ele>
        <time>2017-09-17T10:09:36Z</time>
      </trkpt>
      <trkpt lat="43.98291" lon="7.39764">
        <ele>1710</ele>
        <time>2017-09-17T10:09:37Z</time>
      </trkpt>
      <trkpt lat="43.98294" lon="7.39767">
        <ele>1710</ele>
        <time>2017-09-17T10:09:38Z</time>
      </trkpt>
      <trkpt lat="43.98297" lon="7.39769">
        <ele>1711</ele>
        <time>2017-09-17T10:09:39Z</time>
      </trkpt>
      <trkpt lat="43.98301" lon="7.39771">
        <ele>1711</ele>
        <time>2017-09-17T10:09:40Z</time>
      </trkpt>
      <trkpt lat="43.98304" lon="7.39773">
        <ele>1711</ele>
        <time>2017-09-17T10:09:41Z</time>
      </trkpt>
      <trkpt lat="43.98307" lon="7.39775">
        <ele>1712</ele>
        <time>2017-09-17T10:09:42Z</time>
      </trkpt>
      <trkpt lat="43.98311" lon="7.39777">
        <ele>1712</ele>
        <time>2017-09-17T10:09:43Z</time>
      </trkpt>
      <trkpt lat="43.98314" lon="7.39779">
        <ele>1712</ele>
        <time>2017-09-17T10:09:44Z</time>
      </trkpt>
      <trkpt lat="43.98318" lon="7.39781">
        <ele>1713</ele>
        <time>2017-09-17T10:09:45Z</time>
      </trkpt>
      <trkpt lat="43.98321" lon="7.39783">
        <ele>1713</ele>
        <time>2017-09-17T10:09:46Z</time>
      </trkpt>
      <trkpt lat="43.98324" lon="7.39785">
        <ele>1713</ele>
        <time>2017-09-17T10:09:47Z</time>
      </trkpt>
      <trkpt lat="43.98328" lon="7.39788">
        <ele>1714</ele>
        <time>2017-09-17T10:09:48Z</time>
      </trkpt>
      <trkpt lat="43.98331" lon="7.3979">
        <ele>1714</ele>
        <time>2017-09-17T10:09:49Z</time>
      </trkpt>
      <trkpt lat="43.98334" lon="7.39792">
        <ele>1714</ele>
        <time>2017-09-17T10:09:50Z</time>
      </trkpt>
      <trkpt lat="43.98337" lon="7.39796">
        <ele>1714</ele>
        <time>2017-09-17T10:09:51Z</time>
      </trkpt>
      <trkpt lat="43.9834" lon="7.39798">
        <ele>1714</ele>
        <time>2017-09-17T10:09:52Z</time>
      </trkpt>
      <trkpt lat="43.98343" lon="7.398">
        <ele>1715</ele>
        <time>2017-09-17T10:09:53Z</time>
      </trkpt>
      <trkpt lat="43.98346" lon="7.39803">
        <ele>1715</ele>
        <time>2017-09-17T10:09:54Z</time>
      </trkpt>
      <trkpt lat="43.98349" lon="7.39806">
        <ele>1715</ele>
        <time>2017-09-17T10:09:55Z</time>
      </trkpt>
      <trkpt lat="43.98352" lon="7.3981">
        <ele>1715</ele>
        <time>2017-09-17T10:09:56Z</time>
      </trkpt>
      <trkpt lat="43.98355" lon="7.39813">
        <ele>1715</ele>
        <time>2017-09-17T10:09:57Z</time>
      </trkpt>
      <trkpt lat="43.98358" lon="7.39816">
        <ele>1715</ele>
        <time>2017-09-17T10:09:58Z</time>
      </trkpt>
      <trkpt lat="43.98361" lon="7.3982">
        <ele>1715</ele>
        <time>2017-09-17T10:09:59Z</time>
      </trkpt>
      <trkpt lat="43.98364" lon="7.39823">
        <ele>1715</ele>
        <time>2017-09-17T10:10:00Z</time>
      </trkpt>
      <trkpt lat="43.98366" lon="7.39826">
        <ele>1715</ele>
        <time>2017-09-17T10:10:01Z</time>
      </trkpt>
      <trkpt lat="43.98369" lon="7.3983">
        <ele>1716</ele>
        <time>2017-09-17T10:10:02Z</time>
      </trkpt>
      <trkpt lat="43.98372" lon="7.39833">
        <ele>1716</ele>
        <time>2017-09-17T10:10:03Z</time>
      </trkpt>
      <trkpt lat="43.98375" lon="7.39837">
        <ele>1716</ele>
        <time>2017-09-17T10:10:04Z</time>
      </trkpt>
      <trkpt lat="43.98378" lon="7.39839">
        <ele>1716</ele>
        <time>2017-09-17T10:10:05Z</time>
      </trkpt>
      <trkpt lat="43.98381" lon="7.39842">
        <ele>1716</ele>
        <time>2017-09-17T10:10:06Z</time>
      </trkpt>
      <trkpt lat="43.98383" lon="7.39845">
        <ele>1716</ele>
        <time>2017-09-17T10:10:07Z</time>
      </trkpt>
      <trkpt lat="43.98386" lon="7.39848">
        <ele>1716</ele>
        <time>2017-09-17T10:10:08Z</time>
      </trkpt>
      <trkpt lat="43.98389" lon="7.39851">
        <ele>1717</ele>
        <time>2017-09-17T10:10:09Z</time>
      </trkpt>
      <trkpt lat="43.98393" lon="7.39854">
        <ele>1717</ele>
        <time>2017-09-17T10:10:10Z</time>
      </trkpt>
      <trkpt lat="43.98396" lon="7.39856">
        <ele>1717</ele>
        <time>2017-09-17T10:10:11Z</time>
      </trkpt>
      <trkpt lat="43.98399" lon="7.39858">
        <ele>1717</ele>
        <time>2017-09-17T10:10:12Z</time>
      </trkpt>
      <trkpt lat="43.98402" lon="7.39861">
        <ele>1718</ele>
        <time>2017-09-17T10:10:13Z</time>
      </trkpt>
      <trkpt lat="43.98405" lon="7.39863">
        <ele>1718</ele>
        <time>2017-09-17T10:10:14Z</time>
      </trkpt>
      <trkpt lat="43.98409" lon="7.39865">
        <ele>1718</ele>
        <time>2017-09-17T10:10:15Z</time>
      </trkpt>
      <trkpt lat="43.98412" lon="7.39867">
        <ele>1718</ele>
        <time>2017-09-17T10:10:16Z</time>
      </trkpt>
      <trkpt lat="43.98416" lon="7.39869">
        <ele>1718</ele>
        <time>2017-09-17T10:10:17Z</time>
      </trkpt>
      <trkpt lat="43.98419" lon="7.3987">
        <ele>1719</ele>
        <time>2017-09-17T10:10:18Z</time>
      </trkpt>
      <trkpt lat="43.98423" lon="7.39872">
        <ele>1719</ele>
        <time>2017-09-17T10:10:19Z</time>
      </trkpt>
      <trkpt lat="43.98426" lon="7.39872">
        <ele>1719</ele>
        <time>2017-09-17T10:10:20Z</time>
      </trkpt>
      <trkpt lat="43.9843" lon="7.39871">
        <ele>1719</ele>
        <time>2017-09-17T10:10:21Z</time>
      </trkpt>
      <trkpt lat="43.98434" lon="7.39871">
        <ele>1720</ele>
        <time>2017-09-17T10:10:22Z</time>
      </trkpt>
      <trkpt lat="43.98437" lon="7.3987">
        <ele>1720</ele>
        <time>2017-09-17T10:10:23Z</time>
      </trkpt>
      <trkpt lat="43.98441" lon="7.39868">
        <ele>1720</ele>
        <time>2017-09-17T10:10:24Z</time>
      </trkpt>
      <trkpt lat="43.98444" lon="7.39866">
        <ele>1721</ele>
        <time>2017-09-17T10:10:25Z</time>
      </trkpt>
      <trkpt lat="43.98448" lon="7.39863">
        <ele>1721</ele>
        <time>2017-09-17T10:10:26Z</time>
      </trkpt>
      <trkpt lat="43.98451" lon="7.39861">
        <ele>1721</ele>
        <time>2017-09-17T10:10:27Z</time>
      </trkpt>
      <trkpt lat="43.98454" lon="7.39858">
        <ele>1721</ele>
        <time>2017-09-17T10:10:28Z</time>
      </trkpt>
      <trkpt lat="43.98457" lon="7.39856">
        <ele>1722</ele>
        <time>2017-09-17T10:10:29Z</time>
      </trkpt>
      <trkpt lat="43.98461" lon="7.39853">
        <ele>1722</ele>
        <time>2017-09-17T10:10:30Z</time>
      </trkpt>
      <trkpt lat="43.98464" lon="7.39851">
        <ele>1722</ele>
        <time>2017-09-17T10:10:31Z</time>
      </trkpt>
      <trkpt lat="43.98467" lon="7.39849">
        <ele>1722</ele>
        <time>2017-09-17T10:10:32Z</time>
      </trkpt>
      <trkpt lat="43.98471" lon="7.39847">
        <ele>1723</ele>
        <time>2017-09-17T10:10:33Z</time>
      </trkpt>
      <trkpt lat="43.98474" lon="7.39846">
        <ele>1723</ele>
        <time>2017-09-17T10:10:34Z</time>
      </trkpt>
      <trkpt lat="43.98477" lon="7.39845">
        <ele>1723</ele>
        <time>2017-09-17T10:10:35Z</time>
      </trkpt>
      <trkpt lat="43.98481" lon="7.39842">
        <ele>1724</ele>
        <time>2017-09-17T10:10:36Z</time>
      </trkpt>
      <trkpt lat="43.98484" lon="7.3984">
        <ele>1724</ele>
        <time>2017-09-17T10:10:37Z</time>
      </trkpt>
      <trkpt lat="43.98488" lon="7.39838">
        <ele>1725</ele>
        <time>2017-09-17T10:10:38Z</time>
      </trkpt>
      <trkpt lat="43.98491" lon="7.39837">
        <ele>1725</ele>
        <time>2017-09-17T10:10:39Z</time>
      </trkpt>
      <trkpt lat="43.98495" lon="7.39835">
        <ele>1726</ele>
        <time>2017-09-17T10:10:40Z</time>
      </trkpt>
      <trkpt lat="43.98499" lon="7.39834">
        <ele>1726</ele>
        <time>2017-09-17T10:10:41Z</time>
      </trkpt>
      <trkpt lat="43.98502" lon="7.39832">
        <ele>1727</ele>
        <time>2017-09-17T10:10:42Z</time>
      </trkpt>
      <trkpt lat="43.98505" lon="7.39831">
        <ele>1727</ele>
        <time>2017-09-17T10:10:43Z</time>
      </trkpt>
      <trkpt lat="43.98508" lon="7.39831">
        <ele>1727</ele>
        <time>2017-09-17T10:10:44Z</time>
      </trkpt>
      <trkpt lat="43.98512" lon="7.3983">
        <ele>1728</ele>
        <time>2017-09-17T10:10:45Z</time>
      </trkpt>
      <trkpt lat="43.98515" lon="7.39829">
        <ele>1728</ele>
        <time>2017-09-17T10:10:46Z</time>
      </trkpt>
      <trkpt lat="43.98519" lon="7.39828">
        <ele>1729</ele>
        <time>2017-09-17T10:10:47Z</time>
      </trkpt>
      <trkpt lat="43.98522" lon="7.39828">
        <ele>1729</ele>
        <time>2017-09-17T10:10:48Z</time>
      </trkpt>
      <trkpt lat="43.98526" lon="7.39828">
        <ele>1729</ele>
        <time>2017-09-17T10:10:49Z</time>
      </trkpt>
      <trkpt lat="43.9853" lon="7.39828">
        <ele>1729</ele>
        <time>2017-09-17T10:10:50Z</time>
      </trkpt>
      <trkpt lat="43.98533" lon="7.39829">
        <ele>1729</ele>
        <time>2017-09-17T10:10:51Z</time>
      </trkpt>
      <trkpt lat="43.98537" lon="7.39831">
        <ele>1729</ele>
        <time>2017-09-17T10:10:52Z</time>
      </trkpt>
      <trkpt lat="43.9854" lon="7.39832">
        <ele>1730</ele>
        <time>2017-09-17T10:10:53Z</time>
      </trkpt>
      <trkpt lat="43.98544" lon="7.39835">
        <ele>1730</ele>
        <time>2017-09-17T10:10:54Z</time>
      </trkpt>
      <trkpt lat="43.98547" lon="7.39837">
        <ele>1730</ele>
        <time>2017-09-17T10:10:55Z</time>
      </trkpt>
      <trkpt lat="43.9855" lon="7.3984">
        <ele>1730</ele>
        <time>2017-09-17T10:10:56Z</time>
      </trkpt>
      <trkpt lat="43.98553" lon="7.39842">
        <ele>1730</ele>
        <time>2017-09-17T10:10:57Z</time>
      </trkpt>
      <trkpt lat="43.98556" lon="7.39845">
        <ele>1730</ele>
        <time>2017-09-17T10:10:58Z</time>
      </trkpt>
      <trkpt lat="43.98559" lon="7.39847">
        <ele>1730</ele>
        <time>2017-09-17T10:10:59Z</time>
      </trkpt>
      <trkpt lat="43.98563" lon="7.39848">
        <ele>1731</ele>
        <time>2017-09-17T10:11:00Z</time>
      </trkpt>
      <trkpt lat="43.98567" lon="7.39848">
        <ele>1731</ele>
        <time>2017-09-17T10:11:01Z</time>
      </trkpt>
      <trkpt lat="43.98571" lon="7.39849">
        <ele>1731</ele>
        <time>2017-09-17T10:11:02Z</time>
      </trkpt>
      <trkpt lat="43.98575" lon="7.39849">
        <ele>1731</ele>
        <time>2017-09-17T10:11:03Z</time>
      </trkpt>
      <trkpt lat="43.98578" lon="7.39849">
        <ele>1731</ele>
        <time>2017-09-17T10:11:04Z</time>
      </trkpt>
      <trkpt lat="43.98582" lon="7.3985">
        <ele>1731</ele>
        <time>2017-09-17T10:11:05Z</time>
      </trkpt>
      <trkpt lat="43.98587" lon="7.3985">
        <ele>1731</ele>
        <time>2017-09-17T10:11:06Z</time>
      </trkpt>
      <trkpt lat="43.98591" lon="7.3985">
        <ele>1731</ele>
        <time>2017-09-17T10:11:07Z</time>
      </trkpt>
      <trkpt lat="43.98595" lon="7.39851">
        <ele>1732</ele>
        <time>2017-09-17T10:11:08Z</time>
      </trkpt>
      <trkpt lat="43.98599" lon="7.39851">
        <ele>1732</ele>
        <time>2017-09-17T10:11:09Z</time>
      </trkpt>
      <trkpt lat="43.98603" lon="7.39851">
        <ele>1732</ele>
        <time>2017-09-17T10:11:10Z</time>
      </trkpt>
      <trkpt lat="43.98607" lon="7.3985">
        <ele>1733</ele>
        <time>2017-09-17T10:11:11Z</time>
      </trkpt>
      <trkpt lat="43.98611" lon="7.3985">
        <ele>1733</ele>
        <time>2017-09-17T10:11:12Z</time>
      </trkpt>
      <trkpt lat="43.98615" lon="7.39851">
        <ele>1733</ele>
        <time>2017-09-17T10:11:13Z</time>
      </trkpt>
      <trkpt lat="43.98619" lon="7.39851">
        <ele>1734</ele>
        <time>2017-09-17T10:11:14Z</time>
      </trkpt>
      <trkpt lat="43.98624" lon="7.39851">
        <ele>1734</ele>
        <time>2017-09-17T10:11:15Z</time>
      </trkpt>
      <trkpt lat="43.98628" lon="7.39852">
        <ele>1735</ele>
        <time>2017-09-17T10:11:16Z</time>
      </trkpt>
      <trkpt lat="43.98632" lon="7.39852">
        <ele>1735</ele>
        <time>2017-09-17T10:11:17Z</time>
      </trkpt>
      <trkpt lat="43.98636" lon="7.39853">
        <ele>1736</ele>
        <time>2017-09-17T10:11:18Z</time>
      </trkpt>
      <trkpt lat="43.9864" lon="7.39853">
        <ele>1736</ele>
        <time>2017-09-17T10:11:19Z</time>
      </trkpt>
      <trkpt lat="43.98644" lon="7.39854">
        <ele>1737</ele>
        <time>2017-09-17T10:11:20Z</time>
      </trkpt>
      <trkpt lat="43.98648" lon="7.39855">
        <ele>1737</ele>
        <time>2017-09-17T10:11:21Z</time>
      </trkpt>
      <trkpt lat="43.98652" lon="7.39856">
        <ele>1737</ele>
        <time>2017-09-17T10:11:22Z</time>
      </trkpt>
      <trkpt lat="43.98656" lon="7.39858">
        <ele>1738</ele>
        <time>2017-09-17T10:11:23Z</time>
      </trkpt>
      <trkpt lat="43.9866" lon="7.39859">
        <ele>1738</ele>
        <time>2017-09-17T10:11:24Z</time>
      </trkpt>
      <trkpt lat="43.98664" lon="7.39861">
        <ele>1738</ele>
        <time>2017-09-17T10:11:25Z</time>
      </trkpt>
      <trkpt lat="43.98667" lon="7.39863">
        <ele>1739</ele>
        <time>2017-09-17T10:11:26Z</time>
      </trkpt>
      <trkpt lat="43.98671" lon="7.39865">
        <ele>1739</ele>
        <time>2017-09-17T10:11:27Z</time>
      </trkpt>
      <trkpt lat="43.98674" lon="7.39867">
        <ele>1739</ele>
        <time>2017-09-17T10:11:28Z</time>
      </trkpt>
      <trkpt lat="43.98678" lon="7.39869">
        <ele>1739</ele>
        <time>2017-09-17T10:11:29Z</time>
      </trkpt>
      <trkpt lat="43.98681" lon="7.39871">
        <ele>1740</ele>
        <time>2017-09-17T10:11:30Z</time>
      </trkpt>
      <trkpt lat="43.98684" lon="7.39873">
        <ele>1740</ele>
        <time>2017-09-17T10:11:31Z</time>
      </trkpt>
      <trkpt lat="43.98688" lon="7.39876">
        <ele>1740</ele>
        <time>2017-09-17T10:11:32Z</time>
      </trkpt>
      <trkpt lat="43.98692" lon="7.39879">
        <ele>1740</ele>
        <time>2017-09-17T10:11:33Z</time>
      </trkpt>
      <trkpt lat="43.98696" lon="7.39882">
        <ele>1740</ele>
        <time>2017-09-17T10:11:34Z</time>
      </trkpt>
      <trkpt lat="43.98699" lon="7.39885">
        <ele>1740</ele>
        <time>2017-09-17T10:11:35Z</time>
      </trkpt>
      <trkpt lat="43.98703" lon="7.39888">
        <ele>1740</ele>
        <time>2017-09-17T10:11:36Z</time>
      </trkpt>
      <trkpt lat="43.98707" lon="7.39891">
        <ele>1740</ele>
        <time>2017-09-17T10:11:37Z</time>
      </trkpt>
      <trkpt lat="43.9871" lon="7.39894">
        <ele>1740</ele>
        <time>2017-09-17T10:11:38Z</time>
      </trkpt>
      <trkpt lat="43.98714" lon="7.39898">
        <ele>1740</ele>
        <time>2017-09-17T10:11:39Z</time>
      </trkpt>
      <trkpt lat="43.98717" lon="7.39902">
        <ele>1740</ele>
        <time>2017-09-17T10:11:40Z</time>
      </trkpt>
      <trkpt lat="43.98721" lon="7.39906">
        <ele>1740</ele>
        <time>2017-09-17T10:11:41Z</time>
      </trkpt>
      <trkpt lat="43.98725" lon="7.3991">
        <ele>1740</ele>
        <time>2017-09-17T10:11:42Z</time>
      </trkpt>
      <trkpt lat="43.98728" lon="7.39914">
        <ele>1740</ele>
        <time>2017-09-17T10:11:43Z</time>
      </trkpt>
      <trkpt lat="43.98732" lon="7.39919">
        <ele>1740</ele>
        <time>2017-09-17T10:11:44Z</time>
      </trkpt>
      <trkpt lat="43.98736" lon="7.39923">
        <ele>1740</ele>
        <time>2017-09-17T10:11:45Z</time>
      </trkpt>
      <trkpt lat="43.9874" lon="7.39928">
        <ele>1740</ele>
        <time>2017-09-17T10:11:46Z</time>
      </trkpt>
      <trkpt lat="43.98744" lon="7.39932">
        <ele>1740</ele>
        <time>2017-09-17T10:11:47Z</time>
      </trkpt>
      <trkpt lat="43.98748" lon="7.39937">
        <ele>1740</ele>
        <time>2017-09-17T10:11:48Z</time>
      </trkpt>
      <trkpt lat="43.98752" lon="7.39942">
        <ele>1739</ele>
        <time>2017-09-17T10:11:49Z</time>
      </trkpt>
      <trkpt lat="43.98755" lon="7.39947">
        <ele>1739</ele>
        <time>2017-09-17T10:11:50Z</time>
      </trkpt>
      <trkpt lat="43.98759" lon="7.39952">
        <ele>1739</ele>
        <time>2017-09-17T10:11:51Z</time>
      </trkpt>
      <trkpt lat="43.98762" lon="7.39957">
        <ele>1739</ele>
        <time>2017-09-17T10:11:52Z</time>
      </trkpt>
      <trkpt lat="43.98765" lon="7.39963">
        <ele>1739</ele>
        <time>2017-09-17T10:11:53Z</time>
      </trkpt>
      <trkpt lat="43.98769" lon="7.39968">
        <ele>1739</ele>
        <time>2017-09-17T10:11:54Z</time>
      </trkpt>
      <trkpt lat="43.98772" lon="7.39973">
        <ele>1739</ele>
        <time>2017-09-17T10:11:55Z</time>
      </trkpt>
      <trkpt lat="43.98775" lon="7.39979">
        <ele>1739</ele>
        <time>2017-09-17T10:11:56Z</time>
      </trkpt>
      <trkpt lat="43.98778" lon="7.39984">
        <ele>1739</ele>
        <time>2017-09-17T10:11:57Z</time>
      </trkpt>
      <trkpt lat="43.98781" lon="7.3999">
        <ele>1740</ele>
        <time>2017-09-17T10:11:58Z</time>
      </trkpt>
      <trkpt lat="43.98784" lon="7.39995">
        <ele>1740</ele>
        <time>2017-09-17T10:11:59Z</time>
      </trkpt>
      <trkpt lat="43.98787" lon="7.4">
        <ele>1740</ele>
        <time>2017-09-17T10:12:00Z</time>
      </trkpt>
      <trkpt lat="43.98789" lon="7.40005">
        <ele>1740</ele>
        <time>2017-09-17T10:12:01Z</time>
      </trkpt>
      <trkpt lat="43.98792" lon="7.4001">
        <ele>1740</ele>
        <time>2017-09-17T10:12:02Z</time>
      </trkpt>
      <trkpt lat="43.98795" lon="7.40015">
        <ele>1740</ele>
        <time>2017-09-17T10:12:03Z</time>
      </trkpt>
      <trkpt lat="43.98797" lon="7.4002">
        <ele>1740</ele>
        <time>2017-09-17T10:12:04Z</time>
      </trkpt>
      <trkpt lat="43.988" lon="7.40024">
        <ele>1740</ele>
        <time>2017-09-17T10:12:05Z</time>
      </trkpt>
      <trkpt lat="43.98803" lon="7.40029">
        <ele>1740</ele>
        <time>2017-09-17T10:12:06Z</time>
      </trkpt>
      <trkpt lat="43.98806" lon="7.40033">
        <ele>1740</ele>
        <time>2017-09-17T10:12:07Z</time>
      </trkpt>
      <trkpt lat="43.98809" lon="7.40037">
        <ele>1741</ele>
        <time>2017-09-17T10:12:08Z</time>
      </trkpt>
      <trkpt lat="43.98812" lon="7.40041">
        <ele>1741</ele>
        <time>2017-09-17T10:12:09Z</time>
      </trkpt>
      <trkpt lat="43.98816" lon="7.40044">
        <ele>1741</ele>
        <time>2017-09-17T10:12:10Z</time>
      </trkpt>
      <trkpt lat="43.98819" lon="7.40047">
        <ele>1741</ele>
        <time>2017-09-17T10:12:11Z</time>
      </trkpt>
      <trkpt lat="43.98823" lon="7.4005">
        <ele>1741</ele>
        <time>2017-09-17T10:12:12Z</time>
      </trkpt>
      <trkpt lat="43.98827" lon="7.40053">
        <ele>1741</ele>
        <time>2017-09-17T10:12:13Z</time>
      </trkpt>
      <trkpt lat="43.9883" lon="7.40056">
        <ele>1741</ele>
        <time>2017-09-17T10:12:14Z</time>
      </trkpt>
      <trkpt lat="43.98833" lon="7.4006">
        <ele>1741</ele>
        <time>2017-09-17T10:12:15Z</time>
      </trkpt>
      <trkpt lat="43.98836" lon="7.40063">
        <ele>1742</ele>
        <time>2017-09-17T10:12:16Z</time>
      </trkpt>
      <trkpt lat="43.98839" lon="7.40067">
        <ele>1742</ele>
        <time>2017-09-17T10:12:17Z</time>
      </trkpt>
      <trkpt lat="43.98842" lon="7.4007">
        <ele>1742</ele>
        <time>2017-09-17T10:12:18Z</time>
      </trkpt>
      <trkpt lat="43.98845" lon="7.40074">
        <ele>1742</ele>
        <time>2017-09-17T10:12:19Z</time>
      </trkpt>
      <trkpt lat="43.98848" lon="7.40077">
        <ele>1743</ele>
        <time>2017-09-17T10:12:20Z</time>
      </trkpt>
      <trkpt lat="43.9885" lon="7.40081">
        <ele>1743</ele>
        <time>2017-09-17T10:12:21Z</time>
      </trkpt>
      <trkpt lat="43.98853" lon="7.40085">
        <ele>1743</ele>
        <time>2017-09-17T10:12:22Z</time>
      </trkpt>
      <trkpt lat="43.98855" lon="7.40088">
        <ele>1743</ele>
        <time>2017-09-17T10:12:23Z</time>
      </trkpt>
      <trkpt lat="43.98857" lon="7.40091">
        <ele>1744</ele>
        <time>2017-09-17T10:12:24Z</time>
      </trkpt>
      <trkpt lat="43.9886" lon="7.40095">
        <ele>1744</ele>
        <time>2017-09-17T10:12:25Z</time>
      </trkpt>
      <trkpt lat="43.98862" lon="7.40099">
        <ele>1744</ele>
        <time>2017-09-17T10:12:26Z</time>
      </trkpt>
      <trkpt lat="43.98864" lon="7.40103">
        <ele>1745</ele>
        <time>2017-09-17T10:12:27Z</time>
      </trkpt>
      <trkpt lat="43.98866" lon="7.40106">
        <ele>1745</ele>
        <time>2017-09-17T10:12:28Z</time>
      </trkpt>
      <trkpt lat="43.98867" lon="7.4011">
        <ele>1745</ele>
        <time>2017-09-17T10:12:29Z</time>
      </trkpt>
      <trkpt lat="43.98869" lon="7.40114">
        <ele>1746</ele>
        <time>2017-09-17T10:12:30Z</time>
      </trkpt>
      <trkpt lat="43.9887" lon="7.40118">
        <ele>1746</ele>
        <time>2017-09-17T10:12:31Z</time>
      </trkpt>
      <trkpt lat="43.98872" lon="7.40122">
        <ele>1746</ele>
        <time>2017-09-17T10:12:32Z</time>
      </trkpt>
      <trkpt lat="43.98873" lon="7.40125">
        <ele>1747</ele>
        <time>2017-09-17T10:12:33Z</time>
      </trkpt>
      <trkpt lat="43.98874" lon="7.40129">
        <ele>1747</ele>
        <time>2017-09-17T10:12:34Z</time>
      </trkpt>
      <trkpt lat="43.98876" lon="7.40133">
        <ele>1747</ele>
        <time>2017-09-17T10:12:35Z</time>
      </trkpt>
      <trkpt lat="43.98877" lon="7.40136">
        <ele>1748</ele>
        <time>2017-09-17T10:12:36Z</time>
      </trkpt>
      <trkpt lat="43.98878" lon="7.4014">
        <ele>1748</ele>
        <time>2017-09-17T10:12:37Z</time>
      </trkpt>
      <trkpt lat="43.98879" lon="7.40144">
        <ele>1749</ele>
        <time>2017-09-17T10:12:38Z</time>
      </trkpt>
      <trkpt lat="43.9888" lon="7.40148">
        <ele>1749</ele>
        <time>2017-09-17T10:12:39Z</time>
      </trkpt>
      <trkpt lat="43.98881" lon="7.40152">
        <ele>1749</ele>
        <time>2017-09-17T10:12:40Z</time>
      </trkpt>
      <trkpt lat="43.98882" lon="7.40156">
        <ele>1750</ele>
        <time>2017-09-17T10:12:41Z</time>
      </trkpt>
      <trkpt lat="43.98883" lon="7.4016">
        <ele>1750</ele>
        <time>2017-09-17T10:12:42Z</time>
      </trkpt>
      <trkpt lat="43.98883" lon="7.40164">
        <ele>1750</ele>
        <time>2017-09-17T10:12:43Z</time>
      </trkpt>
      <trkpt lat="43.98884" lon="7.40168">
        <ele>1751</ele>
        <time>2017-09-17T10:12:44Z</time>
      </trkpt>
      <trkpt lat="43.98884" lon="7.40172">
        <ele>1751</ele>
        <time>2017-09-17T10:12:45Z</time>
      </trkpt>
      <trkpt lat="43.98885" lon="7.40176">
        <ele>1751</ele>
        <time>2017-09-17T10:12:46Z</time>
      </trkpt>
      <trkpt lat="43.98885" lon="7.4018">
        <ele>1752</ele>
        <time>2017-09-17T10:12:47Z</time>
      </trkpt>
      <trkpt lat="43.98885" lon="7.40184">
        <ele>1752</ele>
        <time>2017-09-17T10:12:48Z</time>
      </trkpt>
      <trkpt lat="43.98886" lon="7.40189">
        <ele>1752</ele>
        <time>2017-09-17T10:12:49Z</time>
      </trkpt>
      <trkpt lat="43.98886" lon="7.40193">
        <ele>1753</ele>
        <time>2017-09-17T10:12:50Z</time>
      </trkpt>
      <trkpt lat="43.98886" lon="7.40197">
        <ele>1753</ele>
        <time>2017-09-17T10:12:51Z</time>
      </trkpt>
      <trkpt lat="43.98887" lon="7.40201">
        <ele>1753</ele>
        <time>2017-09-17T10:12:52Z</time>
      </trkpt>
      <trkpt lat="43.98887" lon="7.40205">
        <ele>1754</ele>
        <time>2017-09-17T10:12:53Z</time>
      </trkpt>
      <trkpt lat="43.98887" lon="7.40209">
        <ele>1754</ele>
        <time>2017-09-17T10:12:54Z</time>
      </trkpt>
      <trkpt lat="43.98888" lon="7.40213">
        <ele>1754</ele>
        <time>2017-09-17T10:12:55Z</time>
      </trkpt>
      <trkpt lat="43.98888" lon="7.40217">
        <ele>1754</ele>
        <time>2017-09-17T10:12:56Z</time>
      </trkpt>
      <trkpt lat="43.98889" lon="7.40222">
        <ele>1755</ele>
        <time>2017-09-17T10:12:57Z</time>
      </trkpt>
      <trkpt lat="43.98889" lon="7.40226">
        <ele>1755</ele>
        <time>2017-09-17T10:12:58Z</time>
      </trkpt>
      <trkpt lat="43.98889" lon="7.4023">
        <ele>1755</ele>
        <time>2017-09-17T10:12:59Z</time>
      </trkpt>
      <trkpt lat="43.98889" lon="7.40234">
        <ele>1756</ele>
        <time>2017-09-17T10:13:00Z</time>
      </trkpt>
      <trkpt lat="43.98888" lon="7.40237">
        <ele>1756</ele>
        <time>2017-09-17T10:13:01Z</time>
      </trkpt>
      <trkpt lat="43.98888" lon="7.40241">
        <ele>1756</ele>
        <time>2017-09-17T10:13:02Z</time>
      </trkpt>
      <trkpt lat="43.98888" lon="7.40245">
        <ele>1756</ele>
        <time>2017-09-17T10:13:03Z</time>
      </trkpt>
      <trkpt lat="43.98887" lon="7.40248">
        <ele>1757</ele>
        <time>2017-09-17T10:13:04Z</time>
      </trkpt>
      <trkpt lat="43.98886" lon="7.40252">
        <ele>1757</ele>
        <time>2017-09-17T10:13:05Z</time>
      </trkpt>
      <trkpt lat="43.98884" lon="7.40255">
        <ele>1757</ele>
        <time>2017-09-17T10:13:06Z</time>
      </trkpt>
      <trkpt lat="43.98883" lon="7.40258">
        <ele>1757</ele>
        <time>2017-09-17T10:13:07Z</time>
      </trkpt>
      <trkpt lat="43.98882" lon="7.40261">
        <ele>1757</ele>
        <time>2017-09-17T10:13:08Z</time>
      </trkpt>
      <trkpt lat="43.98881" lon="7.40265">
        <ele>1757</ele>
        <time>2017-09-17T10:13:09Z</time>
      </trkpt>
      <trkpt lat="43.9888" lon="7.40268">
        <ele>1757</ele>
        <time>2017-09-17T10:13:10Z</time>
      </trkpt>
      <trkpt lat="43.98878" lon="7.40271">
        <ele>1757</ele>
        <time>2017-09-17T10:13:11Z</time>
      </trkpt>
      <trkpt lat="43.98877" lon="7.40274">
        <ele>1758</ele>
        <time>2017-09-17T10:13:12Z</time>
      </trkpt>
      <trkpt lat="43.98876" lon="7.40278">
        <ele>1758</ele>
        <time>2017-09-17T10:13:13Z</time>
      </trkpt>
      <trkpt lat="43.98874" lon="7.40281">
        <ele>1758</ele>
        <time>2017-09-17T10:13:14Z</time>
      </trkpt>
      <trkpt lat="43.98872" lon="7.40283">
        <ele>1758</ele>
        <time>2017-09-17T10:13:15Z</time>
      </trkpt>
      <trkpt lat="43.9887" lon="7.40286">
        <ele>1758</ele>
        <time>2017-09-17T10:13:16Z</time>
      </trkpt>
      <trkpt lat="43.98868" lon="7.40289">
        <ele>1758</ele>
        <time>2017-09-17T10:13:17Z</time>
      </trkpt>
      <trkpt lat="43.98867" lon="7.40291">
        <ele>1758</ele>
        <time>2017-09-17T10:13:18Z</time>
      </trkpt>
      <trkpt lat="43.98865" lon="7.40294">
        <ele>1759</ele>
        <time>2017-09-17T10:13:19Z</time>
      </trkpt>
      <trkpt lat="43.98863" lon="7.40297">
        <ele>1759</ele>
        <time>2017-09-17T10:13:20Z</time>
      </trkpt>
      <trkpt lat="43.98861" lon="7.40299">
        <ele>1759</ele>
        <time>2017-09-17T10:13:21Z</time>
      </trkpt>
      <trkpt lat="43.9886" lon="7.40302">
        <ele>1760</ele>
        <time>2017-09-17T10:13:22Z</time>
      </trkpt>
      <trkpt lat="43.98859" lon="7.40305">
        <ele>1760</ele>
        <time>2017-09-17T10:13:23Z</time>
      </trkpt>
      <trkpt lat="43.98857" lon="7.40309">
        <ele>1760</ele>
        <time>2017-09-17T10:13:24Z</time>
      </trkpt>
      <trkpt lat="43.98856" lon="7.40312">
        <ele>1761</ele>
        <time>2017-09-17T10:13:25Z</time>
      </trkpt>
      <trkpt lat="43.98855" lon="7.40315">
        <ele>1761</ele>
        <time>2017-09-17T10:13:26Z</time>
      </trkpt>
      <trkpt lat="43.98853" lon="7.40318">
        <ele>1762</ele>
        <time>2017-09-17T10:13:27Z</time>
      </trkpt>
      <trkpt lat="43.98852" lon="7.40321">
        <ele>1762</ele>
        <time>2017-09-17T10:13:28Z</time>
      </trkpt>
      <trkpt lat="43.98851" lon="7.40324">
        <ele>1762</ele>
        <time>2017-09-17T10:13:29Z</time>
      </trkpt>
      <trkpt lat="43.98849" lon="7.40327">
        <ele>1763</ele>
        <time>2017-09-17T10:13:30Z</time>
      </trkpt>
      <trkpt lat="43.98848" lon="7.4033">
        <ele>1763</ele>
        <time>2017-09-17T10:13:31Z</time>
      </trkpt>
      <trkpt lat="43.98847" lon="7.40333">
        <ele>1763</ele>
        <time>2017-09-17T10:13:32Z</time>
      </trkpt>
      <trkpt lat="43.98845" lon="7.40336">
        <ele>1764</ele>
        <time>2017-09-17T10:13:33Z</time>
      </trkpt>
      <trkpt lat="43.98844" lon="7.40339">
        <ele>1764</ele>
        <time>2017-09-17T10:13:34Z</time>
      </trkpt>
      <trkpt lat="43.98842" lon="7.40342">
        <ele>1765</ele>
        <time>2017-09-17T10:13:35Z</time>
      </trkpt>
      <trkpt lat="43.98841" lon="7.40345">
        <ele>1766</ele>
        <time>2017-09-17T10:13:36Z</time>
      </trkpt>
      <trkpt lat="43.9884" lon="7.40347">
        <ele>1766</ele>
        <time>2017-09-17T10:13:37Z</time>
      </trkpt>
      <trkpt lat="43.98839" lon="7.4035">
        <ele>1767</ele>
        <time>2017-09-17T10:13:38Z</time>
      </trkpt>
      <trkpt lat="43.98838" lon="7.40353">
        <ele>1767</ele>
        <time>2017-09-17T10:13:39Z</time>
      </trkpt>
      <trkpt lat="43.98836" lon="7.40356">
        <ele>1767</ele>
        <time>2017-09-17T10:13:40Z</time>
      </trkpt>
      <trkpt lat="43.98835" lon="7.40359">
        <ele>1768</ele>
        <time>2017-09-17T10:13:41Z</time>
      </trkpt>
      <trkpt lat="43.98833" lon="7.40362">
        <ele>1768</ele>
        <time>2017-09-17T10:13:42Z</time>
      </trkpt>
      <trkpt lat="43.98832" lon="7.40365">
        <ele>1769</ele>
        <time>2017-09-17T10:13:43Z</time>
      </trkpt>
      <trkpt lat="43.9883" lon="7.40367">
        <ele>1769</ele>
        <time>2017-09-17T10:13:44Z</time>
      </trkpt>
      <trkpt lat="43.98829" lon="7.4037">
        <ele>1769</ele>
        <time>2017-09-17T10:13:45Z</time>
      </trkpt>
      <trkpt lat="43.98828" lon="7.40373">
        <ele>1770</ele>
        <time>2017-09-17T10:13:46Z</time>
      </trkpt>
      <trkpt lat="43.98826" lon="7.40376">
        <ele>1770</ele>
        <time>2017-09-17T10:13:47Z</time>
      </trkpt>
      <trkpt lat="43.98825" lon="7.40379">
        <ele>1770</ele>
        <time>2017-09-17T10:13:48Z</time>
      </trkpt>
      <trkpt lat="43.98824" lon="7.40382">
        <ele>1771</ele>
        <time>2017-09-17T10:13:49Z</time>
      </trkpt>
      <trkpt lat="43.98822" lon="7.40385">
        <ele>1771</ele>
        <time>2017-09-17T10:13:50Z</time>
      </trkpt>
      <trkpt lat="43.98821" lon="7.40388">
        <ele>1771</ele>
        <time>2017-09-17T10:13:51Z</time>
      </trkpt>
      <trkpt lat="43.98819" lon="7.40391">
        <ele>1772</ele>
        <time>2017-09-17T10:13:52Z</time>
      </trkpt>
      <trkpt lat="43.98818" lon="7.40394">
        <ele>1772</ele>
        <time>2017-09-17T10:13:53Z</time>
      </trkpt>
      <trkpt lat="43.98816" lon="7.40397">
        <ele>1772</ele>
        <time>2017-09-17T10:13:54Z</time>
      </trkpt>
      <trkpt lat="43.98815" lon="7.40399">
        <ele>1773</ele>
        <time>2017-09-17T10:13:55Z</time>
      </trkpt>
      <trkpt lat="43.98814" lon="7.40402">
        <ele>1773</ele>
        <time>2017-09-17T10:13:56Z</time>
      </trkpt>
      <trkpt lat="43.98812" lon="7.40405">
        <ele>1773</ele>
        <time>2017-09-17T10:13:57Z</time>
      </trkpt>
      <trkpt lat="43.98811" lon="7.40408">
        <ele>1774</ele>
        <time>2017-09-17T10:13:58Z</time>
      </trkpt>
      <trkpt lat="43.9881" lon="7.40411">
        <ele>1774</ele>
        <time>2017-09-17T10:13:59Z</time>
      </trkpt>
      <trkpt lat="43.98808" lon="7.40414">
        <ele>1775</ele>
        <time>2017-09-17T10:14:00Z</time>
      </trkpt>
      <trkpt lat="43.98807" lon="7.40417">
        <ele>1775</ele>
        <time>2017-09-17T10:14:01Z</time>
      </trkpt>
      <trkpt lat="43.98806" lon="7.4042">
        <ele>1776</ele>
        <time>2017-09-17T10:14:02Z</time>
      </trkpt>
      <trkpt lat="43.98805" lon="7.40423">
        <ele>1776</ele>
        <time>2017-09-17T10:14:03Z</time>
      </trkpt>
      <trkpt lat="43.98803" lon="7.40425">
        <ele>1777</ele>
        <time>2017-09-17T10:14:04Z</time>
      </trkpt>
      <trkpt lat="43.98802" lon="7.40428">
        <ele>1777</ele>
        <time>2017-09-17T10:14:05Z</time>
      </trkpt>
      <trkpt lat="43.98801" lon="7.40432">
        <ele>1777</ele>
        <time>2017-09-17T10:14:06Z</time>
      </trkpt>
      <trkpt lat="43.988" lon="7.40435">
        <ele>1778</ele>
        <time>2017-09-17T10:14:07Z</time>
      </trkpt>
      <trkpt lat="43.98798" lon="7.40438">
        <ele>1778</ele>
        <time>2017-09-17T10:14:08Z</time>
      </trkpt>
      <trkpt lat="43.98797" lon="7.40441">
        <ele>1779</ele>
        <time>2017-09-17T10:14:09Z</time>
      </trkpt>
      <trkpt lat="43.98797" lon="7.40444">
        <ele>1779</ele>
        <time>2017-09-17T10:14:10Z</time>
      </trkpt>
      <trkpt lat="43.98796" lon="7.40447">
        <ele>1779</ele>
        <time>2017-09-17T10:14:11Z</time>
      </trkpt>
      <trkpt lat="43.98795" lon="7.40451">
        <ele>1779</ele>
        <time>2017-09-17T10:14:12Z</time>
      </trkpt>
      <trkpt lat="43.98795" lon="7.40454">
        <ele>1780</ele>
        <time>2017-09-17T10:14:13Z</time>
      </trkpt>
      <trkpt lat="43.98795" lon="7.40457">
        <ele>1780</ele>
        <time>2017-09-17T10:14:14Z</time>
      </trkpt>
      <trkpt lat="43.98795" lon="7.4046">
        <ele>1780</ele>
        <time>2017-09-17T10:14:15Z</time>
      </trkpt>
      <trkpt lat="43.98795" lon="7.40463">
        <ele>1780</ele>
        <time>2017-09-17T10:14:16Z</time>
      </trkpt>
      <trkpt lat="43.98794" lon="7.40467">
        <ele>1780</ele>
        <time>2017-09-17T10:14:17Z</time>
      </trkpt>
      <trkpt lat="43.98794" lon="7.4047">
        <ele>1781</ele>
        <time>2017-09-17T10:14:18Z</time>
      </trkpt>
      <trkpt lat="43.98794" lon="7.40473">
        <ele>1781</ele>
        <time>2017-09-17T10:14:19Z</time>
      </trkpt>
      <trkpt lat="43.98795" lon="7.40476">
        <ele>1781</ele>
        <time>2017-09-17T10:14:20Z</time>
      </trkpt>
      <trkpt lat="43.98795" lon="7.4048">
        <ele>1781</ele>
        <time>2017-09-17T10:14:21Z</time>
      </trkpt>
      <trkpt lat="43.98795" lon="7.40483">
        <ele>1781</ele>
        <time>2017-09-17T10:14:22Z</time>
      </trkpt>
      <trkpt lat="43.98795" lon="7.40486">
        <ele>1781</ele>
        <time>2017-09-17T10:14:23Z</time>
      </trkpt>
      <trkpt lat="43.98795" lon="7.4049">
        <ele>1781</ele>
        <time>2017-09-17T10:14:24Z</time>
      </trkpt>
      <trkpt lat="43.98796" lon="7.40493">
        <ele>1781</ele>
        <time>2017-09-17T10:14:25Z</time>
      </trkpt>
      <trkpt lat="43.98796" lon="7.40496">
        <ele>1781</ele>
        <time>2017-09-17T10:14:26Z</time>
      </trkpt>
      <trkpt lat="43.98796" lon="7.405">
        <ele>1781</ele>
        <time>2017-09-17T10:14:27Z</time>
      </trkpt>
      <trkpt lat="43.98797" lon="7.40503">
        <ele>1781</ele>
        <time>2017-09-17T10:14:28Z</time>
      </trkpt>
      <trkpt lat="43.98797" lon="7.40507">
        <ele>1782</ele>
        <time>2017-09-17T10:14:29Z</time>
      </trkpt>
      <trkpt lat="43.98798" lon="7.4051">
        <ele>1782</ele>
        <time>2017-09-17T10:14:30Z</time>
      </trkpt>
      <trkpt lat="43.98799" lon="7.40513">
        <ele>1782</ele>
        <time>2017-09-17T10:14:31Z</time>
      </trkpt>
      <trkpt lat="43.98799" lon="7.40516">
        <ele>1782</ele>
        <time>2017-09-17T10:14:32Z</time>
      </trkpt>
      <trkpt lat="43.98799" lon="7.4052">
        <ele>1782</ele>
        <time>2017-09-17T10:14:33Z</time>
      </trkpt>
      <trkpt lat="43.988" lon="7.40523">
        <ele>1782</ele>
        <time>2017-09-17T10:14:34Z</time>
      </trkpt>
      <trkpt lat="43.988" lon="7.40526">
        <ele>1782</ele>
        <time>2017-09-17T10:14:35Z</time>
      </trkpt>
      <trkpt lat="43.988" lon="7.4053">
        <ele>1782</ele>
        <time>2017-09-17T10:14:36Z</time>
      </trkpt>
      <trkpt lat="43.988" lon="7.40533">
        <ele>1782</ele>
        <time>2017-09-17T10:14:37Z</time>
      </trkpt>
      <trkpt lat="43.98801" lon="7.40537">
        <ele>1783</ele>
        <time>2017-09-17T10:14:38Z</time>
      </trkpt>
      <trkpt lat="43.98801" lon="7.4054">
        <ele>1783</ele>
        <time>2017-09-17T10:14:39Z</time>
      </trkpt>
      <trkpt lat="43.98801" lon="7.40544">
        <ele>1783</ele>
        <time>2017-09-17T10:14:40Z</time>
      </trkpt>
      <trkpt lat="43.98801" lon="7.40548">
        <ele>1783</ele>
        <time>2017-09-17T10:14:41Z</time>
      </trkpt>
      <trkpt lat="43.988" lon="7.40552">
        <ele>1783</ele>
        <time>2017-09-17T10:14:42Z</time>
      </trkpt>
      <trkpt lat="43.988" lon="7.40555">
        <ele>1783</ele>
        <time>2017-09-17T10:14:43Z</time>
      </trkpt>
      <trkpt lat="43.988" lon="7.40559">
        <ele>1784</ele>
        <time>2017-09-17T10:14:44Z</time>
      </trkpt>
      <trkpt lat="43.988" lon="7.40563">
        <ele>1784</ele>
        <time>2017-09-17T10:14:45Z</time>
      </trkpt>
      <trkpt lat="43.988" lon="7.40567">
        <ele>1784</ele>
        <time>2017-09-17T10:14:46Z</time>
      </trkpt>
      <trkpt lat="43.988" lon="7.4057">
        <ele>1784</ele>
        <time>2017-09-17T10:14:47Z</time>
      </trkpt>
      <trkpt lat="43.988" lon="7.40574">
        <ele>1785</ele>
        <time>2017-09-17T10:14:48Z</time>
      </trkpt>
      <trkpt lat="43.98801" lon="7.40578">
        <ele>1785</ele>
        <time>2017-09-17T10:14:49Z</time>
      </trkpt>
      <trkpt lat="43.98801" lon="7.40581">
        <ele>1785</ele>
        <time>2017-09-17T10:14:50Z</time>
      </trkpt>
      <trkpt lat="43.98802" lon="7.40585">
        <ele>1786</ele>
        <time>2017-09-17T10:14:51Z</time>
      </trkpt>
      <trkpt lat="43.98803" lon="7.40588">
        <ele>1786</ele>
        <time>2017-09-17T10:14:52Z</time>
      </trkpt>
      <trkpt lat="43.98804" lon="7.40592">
        <ele>1786</ele>
        <time>2017-09-17T10:14:53Z</time>
      </trkpt>
      <trkpt lat="43.98806" lon="7.40595">
        <ele>1786</ele>
        <time>2017-09-17T10:14:54Z</time>
      </trkpt>
      <trkpt lat="43.98807" lon="7.40598">
        <ele>1787</ele>
        <time>2017-09-17T10:14:55Z</time>
      </trkpt>
      <trkpt lat="43.98809" lon="7.406">
        <ele>1787</ele>
        <time>2017-09-17T10:14:56Z</time>
      </trkpt>
      <trkpt lat="43.98811" lon="7.40603">
        <ele>1787</ele>
        <time>2017-09-17T10:14:57Z</time>
      </trkpt>
      <trkpt lat="43.98813" lon="7.40605">
        <ele>1788</ele>
        <time>2017-09-17T10:14:58Z</time>
      </trkpt>
      <trkpt lat="43.98815" lon="7.40607">
        <ele>1788</ele>
        <time>2017-09-17T10:14:59Z</time>
      </trkpt>
      <trkpt lat="43.98818" lon="7.4061">
        <ele>1789</ele>
        <time>2017-09-17T10:15:00Z</time>
      </trkpt>
      <trkpt lat="43.9882" lon="7.40612">
        <ele>1789</ele>
        <time>2017-09-17T10:15:01Z</time>
      </trkpt>
      <trkpt lat="43.98823" lon="7.40614">
        <ele>1789</ele>
        <time>2017-09-17T10:15:02Z</time>
      </trkpt>
      <trkpt lat="43.98826" lon="7.40616">
        <ele>1789</ele>
        <time>2017-09-17T10:15:03Z</time>
      </trkpt>
      <trkpt lat="43.98829" lon="7.40619">
        <ele>1789</ele>
        <time>2017-09-17T10:15:04Z</time>
      </trkpt>
      <trkpt lat="43.98833" lon="7.40621">
        <ele>1789</ele>
        <time>2017-09-17T10:15:05Z</time>
      </trkpt>
      <trkpt lat="43.98836" lon="7.40624">
        <ele>1789</ele>
        <time>2017-09-17T10:15:06Z</time>
      </trkpt>
      <trkpt lat="43.9884" lon="7.40627">
        <ele>1789</ele>
        <time>2017-09-17T10:15:07Z</time>
      </trkpt>
      <trkpt lat="43.98843" lon="7.4063">
        <ele>1789</ele>
        <time>2017-09-17T10:15:08Z</time>
      </trkpt>
      <trkpt lat="43.98846" lon="7.40633">
        <ele>1789</ele>
        <time>2017-09-17T10:15:09Z</time>
      </trkpt>
      <trkpt lat="43.9885" lon="7.40637">
        <ele>1789</ele>
        <time>2017-09-17T10:15:10Z</time>
      </trkpt>
      <trkpt lat="43.98853" lon="7.4064">
        <ele>1789</ele>
        <time>2017-09-17T10:15:11Z</time>
      </trkpt>
      <trkpt lat="43.98857" lon="7.40644">
        <ele>1789</ele>
        <time>2017-09-17T10:15:12Z</time>
      </trkpt>
      <trkpt lat="43.9886" lon="7.40649">
        <ele>1789</ele>
        <time>2017-09-17T10:15:13Z</time>
      </trkpt>
      <trkpt lat="43.98864" lon="7.40654">
        <ele>1789</ele>
        <time>2017-09-17T10:15:14Z</time>
      </trkpt>
      <trkpt lat="43.98867" lon="7.40659">
        <ele>1790</ele>
        <time>2017-09-17T10:15:15Z</time>
      </trkpt>
      <trkpt lat="43.9887" lon="7.40664">
        <ele>1790</ele>
        <time>2017-09-17T10:15:16Z</time>
      </trkpt>
      <trkpt lat="43.98873" lon="7.40669">
        <ele>1790</ele>
        <time>2017-09-17T10:15:17Z</time>
      </trkpt>
      <trkpt lat="43.98876" lon="7.40672">
        <ele>1790</ele>
        <time>2017-09-17T10:15:18Z</time>
      </trkpt>
      <trkpt lat="43.9888" lon="7.40673">
        <ele>1790</ele>
        <time>2017-09-17T10:15:19Z</time>
      </trkpt>
      <trkpt lat="43.98884" lon="7.4067">
        <ele>1790</ele>
        <time>2017-09-17T10:15:20Z</time>
      </trkpt>
      <trkpt lat="43.98885" lon="7.40664">
        <ele>1791</ele>
        <time>2017-09-17T10:15:21Z</time>
      </trkpt>
      <trkpt lat="43.98884" lon="7.4066">
        <ele>1791</ele>
        <time>2017-09-17T10:15:22Z</time>
      </trkpt>
      <trkpt lat="43.98881" lon="7.40656">
        <ele>1791</ele>
        <time>2017-09-17T10:15:23Z</time>
      </trkpt>
      <trkpt lat="43.98878" lon="7.40653">
        <ele>1791</ele>
        <time>2017-09-17T10:15:24Z</time>
      </trkpt>
      <trkpt lat="43.98875" lon="7.40649">
        <ele>1791</ele>
        <time>2017-09-17T10:15:25Z</time>
      </trkpt>
      <trkpt lat="43.98872" lon="7.40646">
        <ele>1791</ele>
        <time>2017-09-17T10:15:26Z</time>
      </trkpt>
      <trkpt lat="43.98869" lon="7.40643">
        <ele>1792</ele>
        <time>2017-09-17T10:15:27Z</time>
      </trkpt>
      <trkpt lat="43.98867" lon="7.4064">
        <ele>1792</ele>
        <time>2017-09-17T10:15:28Z</time>
      </trkpt>
      <trkpt lat="43.98864" lon="7.40637">
        <ele>1792</ele>
        <time>2017-09-17T10:15:29Z</time>
      </trkpt>
      <trkpt lat="43.98862" lon="7.40634">
        <ele>1792</ele>
        <time>2017-09-17T10:15:30Z</time>
      </trkpt>
      <trkpt lat="43.98859" lon="7.4063">
        <ele>1793</ele>
        <time>2017-09-17T10:15:31Z</time>
      </trkpt>
      <trkpt lat="43.98857" lon="7.40627">
        <ele>1793</ele>
        <time>2017-09-17T10:15:32Z</time>
      </trkpt>
      <trkpt lat="43.98854" lon="7.40624">
        <ele>1793</ele>
        <time>2017-09-17T10:15:33Z</time>
      </trkpt>
      <trkpt lat="43.98852" lon="7.40621">
        <ele>1793</ele>
        <time>2017-09-17T10:15:34Z</time>
      </trkpt>
      <trkpt lat="43.98849" lon="7.40618">
        <ele>1794</ele>
        <time>2017-09-17T10:15:35Z</time>
      </trkpt>
      <trkpt lat="43.98847" lon="7.40615">
        <ele>1794</ele>
        <time>2017-09-17T10:15:36Z</time>
      </trkpt>
      <trkpt lat="43.98845" lon="7.40612">
        <ele>1794</ele>
        <time>2017-09-17T10:15:37Z</time>
      </trkpt>
      <trkpt lat="43.98842" lon="7.40609">
        <ele>1794</ele>
        <time>2017-09-17T10:15:38Z</time>
      </trkpt>
      <trkpt lat="43.9884" lon="7.40606">
        <ele>1794</ele>
        <time>2017-09-17T10:15:39Z</time>
      </trkpt>
      <trkpt lat="43.98837" lon="7.40603">
        <ele>1794</ele>
        <time>2017-09-17T10:15:40Z</time>
      </trkpt>
      <trkpt lat="43.98835" lon="7.406">
        <ele>1795</ele>
        <time>2017-09-17T10:15:41Z</time>
      </trkpt>
      <trkpt lat="43.98833" lon="7.40597">
        <ele>1795</ele>
        <time>2017-09-17T10:15:42Z</time>
      </trkpt>
      <trkpt lat="43.98831" lon="7.40593">
        <ele>1795</ele>
        <time>2017-09-17T10:15:43Z</time>
      </trkpt>
      <trkpt lat="43.98829" lon="7.40589">
        <ele>1795</ele>
        <time>2017-09-17T10:15:44Z</time>
      </trkpt>
      <trkpt lat="43.98828" lon="7.40585">
        <ele>1795</ele>
        <time>2017-09-17T10:15:45Z</time>
      </trkpt>
      <trkpt lat="43.98826" lon="7.40581">
        <ele>1795</ele>
        <time>2017-09-17T10:15:46Z</time>
      </trkpt>
      <trkpt lat="43.98826" lon="7.40577">
        <ele>1795</ele>
        <time>2017-09-17T10:15:47Z</time>
      </trkpt>
      <trkpt lat="43.98826" lon="7.40573">
        <ele>1796</ele>
        <time>2017-09-17T10:15:48Z</time>
      </trkpt>
      <trkpt lat="43.98826" lon="7.40569">
        <ele>1796</ele>
        <time>2017-09-17T10:15:49Z</time>
      </trkpt>
      <trkpt lat="43.98826" lon="7.40565">
        <ele>1796</ele>
        <time>2017-09-17T10:15:50Z</time>
      </trkpt>
      <trkpt lat="43.98827" lon="7.4056">
        <ele>1796</ele>
        <time>2017-09-17T10:15:51Z</time>
      </trkpt>
      <trkpt lat="43.98828" lon="7.40556">
        <ele>1796</ele>
        <time>2017-09-17T10:15:52Z</time>
      </trkpt>
      <trkpt lat="43.98829" lon="7.40552">
        <ele>1796</ele>
        <time>2017-09-17T10:15:53Z</time>
      </trkpt>
      <trkpt lat="43.9883" lon="7.40548">
        <ele>1796</ele>
        <time>2017-09-17T10:15:54Z</time>
      </trkpt>
      <trkpt lat="43.9883" lon="7.40544">
        <ele>1797</ele>
        <time>2017-09-17T10:15:55Z</time>
      </trkpt>
      <trkpt lat="43.98831" lon="7.40539">
        <ele>1797</ele>
        <time>2017-09-17T10:15:56Z</time>
      </trkpt>
      <trkpt lat="43.98832" lon="7.40535">
        <ele>1797</ele>
        <time>2017-09-17T10:15:57Z</time>
      </trkpt>
      <trkpt lat="43.98833" lon="7.40531">
        <ele>1798</ele>
        <time>2017-09-17T10:15:58Z</time>
      </trkpt>
      <trkpt lat="43.98834" lon="7.40527">
        <ele>1798</ele>
        <time>2017-09-17T10:15:59Z</time>
      </trkpt>
      <trkpt lat="43.98836" lon="7.40524">
        <ele>1798</ele>
        <time>2017-09-17T10:16:00Z</time>
      </trkpt>
      <trkpt lat="43.98839" lon="7.40523">
        <ele>1798</ele>
        <time>2017-09-17T10:16:01Z</time>
      </trkpt>
      <trkpt lat="43.98842" lon="7.40526">
        <ele>1799</ele>
        <time>2017-09-17T10:16:02Z</time>
      </trkpt>
      <trkpt lat="43.98843" lon="7.40529">
        <ele>1799</ele>
        <time>2017-09-17T10:16:03Z</time>
      </trkpt>
      <trkpt lat="43.98842" lon="7.40533">
        <ele>1799</ele>
        <time>2017-09-17T10:16:04Z</time>
      </trkpt>
      <trkpt lat="43.98841" lon="7.40537">
        <ele>1799</ele>
        <time>2017-09-17T10:16:05Z</time>
      </trkpt>
      <trkpt lat="43.9884" lon="7.40541">
        <ele>1800</ele>
        <time>2017-09-17T10:16:06Z</time>
      </trkpt>
      <trkpt lat="43.98839" lon="7.40545">
        <ele>1800</ele>
        <time>2017-09-17T10:16:07Z</time>
      </trkpt>
      <trkpt lat="43.98838" lon="7.40549">
        <ele>1801</ele>
        <time>2017-09-17T10:16:08Z</time>
      </trkpt>
      <trkpt lat="43.98837" lon="7.40553">
        <ele>1801</ele>
        <time>2017-09-17T10:16:09Z</time>
      </trkpt>
      <trkpt lat="43.98836" lon="7.40557">
        <ele>1801</ele>
        <time>2017-09-17T10:16:10Z</time>
      </trkpt>
      <trkpt lat="43.98836" lon="7.40561">
        <ele>1801</ele>
        <time>2017-09-17T10:16:11Z</time>
      </trkpt>
      <trkpt lat="43.98836" lon="7.40565">
        <ele>1802</ele>
        <time>2017-09-17T10:16:12Z</time>
      </trkpt>
      <trkpt lat="43.98836" lon="7.40569">
        <ele>1802</ele>
        <time>2017-09-17T10:16:13Z</time>
      </trkpt>
      <trkpt lat="43.98837" lon="7.40573">
        <ele>1802</ele>
        <time>2017-09-17T10:16:14Z</time>
      </trkpt>
      <trkpt lat="43.98839" lon="7.40576">
        <ele>1803</ele>
        <time>2017-09-17T10:16:15Z</time>
      </trkpt>
      <trkpt lat="43.98841" lon="7.40579">
        <ele>1803</ele>
        <time>2017-09-17T10:16:16Z</time>
      </trkpt>
      <trkpt lat="43.98843" lon="7.40582">
        <ele>1804</ele>
        <time>2017-09-17T10:16:17Z</time>
      </trkpt>
      <trkpt lat="43.98845" lon="7.40584">
        <ele>1804</ele>
        <time>2017-09-17T10:16:18Z</time>
      </trkpt>
      <trkpt lat="43.98847" lon="7.40585">
        <ele>1804</ele>
        <time>2017-09-17T10:16:19Z</time>
      </trkpt>
      <trkpt lat="43.98849" lon="7.40587">
        <ele>1805</ele>
        <time>2017-09-17T10:16:20Z</time>
      </trkpt>
      <trkpt lat="43.98851" lon="7.40588">
        <ele>1805</ele>
        <time>2017-09-17T10:16:21Z</time>
      </trkpt>
      <trkpt lat="43.98854" lon="7.40589">
        <ele>1805</ele>
        <time>2017-09-17T10:16:22Z</time>
      </trkpt>
      <trkpt lat="43.98856" lon="7.4059">
        <ele>1805</ele>
        <time>2017-09-17T10:16:23Z</time>
      </trkpt>
      <trkpt lat="43.98858" lon="7.40592">
        <ele>1806</ele>
        <time>2017-09-17T10:16:24Z</time>
      </trkpt>
      <trkpt lat="43.98861" lon="7.40592">
        <ele>1806</ele>
        <time>2017-09-17T10:16:25Z</time>
      </trkpt>
      <trkpt lat="43.98863" lon="7.40593">
        <ele>1806</ele>
        <time>2017-09-17T10:16:26Z</time>
      </trkpt>
      <trkpt lat="43.98866" lon="7.40594">
        <ele>1806</ele>
        <time>2017-09-17T10:16:27Z</time>
      </trkpt>
      <trkpt lat="43.98868" lon="7.40595">
        <ele>1807</ele>
        <time>2017-09-17T10:16:28Z</time>
      </trkpt>
      <trkpt lat="43.98871" lon="7.40596">
        <ele>1807</ele>
        <time>2017-09-17T10:16:29Z</time>
      </trkpt>
      <trkpt lat="43.98873" lon="7.40596">
        <ele>1807</ele>
        <time>2017-09-17T10:16:30Z</time>
      </trkpt>
      <trkpt lat="43.98876" lon="7.40597">
        <ele>1808</ele>
        <time>2017-09-17T10:16:31Z</time>
      </trkpt>
      <trkpt lat="43.98878" lon="7.40598">
        <ele>1808</ele>
        <time>2017-09-17T10:16:32Z</time>
      </trkpt>
      <trkpt lat="43.98881" lon="7.40599">
        <ele>1808</ele>
        <time>2017-09-17T10:16:33Z</time>
      </trkpt>
      <trkpt lat="43.98883" lon="7.406">
        <ele>1809</ele>
        <time>2017-09-17T10:16:34Z</time>
      </trkpt>
      <trkpt lat="43.98885" lon="7.40601">
        <ele>1809</ele>
        <time>2017-09-17T10:16:35Z</time>
      </trkpt>
      <trkpt lat="43.98888" lon="7.40602">
        <ele>1809</ele>
        <time>2017-09-17T10:16:36Z</time>
      </trkpt>
      <trkpt lat="43.9889" lon="7.40603">
        <ele>1810</ele>
        <time>2017-09-17T10:16:37Z</time>
      </trkpt>
      <trkpt lat="43.98893" lon="7.40605">
        <ele>1810</ele>
        <time>2017-09-17T10:16:38Z</time>
      </trkpt>
      <trkpt lat="43.98895" lon="7.40606">
        <ele>1810</ele>
        <time>2017-09-17T10:16:39Z</time>
      </trkpt>
      <trkpt lat="43.98898" lon="7.40607">
        <ele>1811</ele>
        <time>2017-09-17T10:16:40Z</time>
      </trkpt>
      <trkpt lat="43.989" lon="7.40609">
        <ele>1811</ele>
        <time>2017-09-17T10:16:41Z</time>
      </trkpt>
      <trkpt lat="43.98902" lon="7.4061">
        <ele>1811</ele>
        <time>2017-09-17T10:16:42Z</time>
      </trkpt>
      <trkpt lat="43.98904" lon="7.40612">
        <ele>1812</ele>
        <time>2017-09-17T10:16:43Z</time>
      </trkpt>
      <trkpt lat="43.98906" lon="7.40613">
        <ele>1812</ele>
        <time>2017-09-17T10:16:44Z</time>
      </trkpt>
      <trkpt lat="43.98908" lon="7.40615">
        <ele>1812</ele>
        <time>2017-09-17T10:16:45Z</time>
      </trkpt>
      <trkpt lat="43.98911" lon="7.40617">
        <ele>1812</ele>
        <time>2017-09-17T10:16:46Z</time>
      </trkpt>
      <trkpt lat="43.98913" lon="7.40618">
        <ele>1813</ele>
        <time>2017-09-17T10:16:47Z</time>
      </trkpt>
      <trkpt lat="43.98915" lon="7.4062">
        <ele>1813</ele>
        <time>2017-09-17T10:16:48Z</time>
      </trkpt>
      <trkpt lat="43.98917" lon="7.40622">
        <ele>1813</ele>
        <time>2017-09-17T10:16:49Z</time>
      </trkpt>
      <trkpt lat="43.9892" lon="7.40623">
        <ele>1814</ele>
        <time>2017-09-17T10:16:50Z</time>
      </trkpt>
      <trkpt lat="43.98922" lon="7.40625">
        <ele>1814</ele>
        <time>2017-09-17T10:16:51Z</time>
      </trkpt>
      <trkpt lat="43.98924" lon="7.40626">
        <ele>1814</ele>
        <time>2017-09-17T10:16:52Z</time>
      </trkpt>
      <trkpt lat="43.98926" lon="7.40628">
        <ele>1815</ele>
        <time>2017-09-17T10:16:53Z</time>
      </trkpt>
      <trkpt lat="43.98928" lon="7.4063">
        <ele>1815</ele>
        <time>2017-09-17T10:16:54Z</time>
      </trkpt>
      <trkpt lat="43.98931" lon="7.40632">
        <ele>1815</ele>
        <time>2017-09-17T10:16:55Z</time>
      </trkpt>
      <trkpt lat="43.98933" lon="7.40634">
        <ele>1816</ele>
        <time>2017-09-17T10:16:56Z</time>
      </trkpt>
      <trkpt lat="43.98935" lon="7.40636">
        <ele>1816</ele>
        <time>2017-09-17T10:16:57Z</time>
      </trkpt>
      <trkpt lat="43.98937" lon="7.40638">
        <ele>1816</ele>
        <time>2017-09-17T10:16:58Z</time>
      </trkpt>
      <trkpt lat="43.98939" lon="7.4064">
        <ele>1816</ele>
        <time>2017-09-17T10:16:59Z</time>
      </trkpt>
      <trkpt lat="43.98941" lon="7.40642">
        <ele>1817</ele>
        <time>2017-09-17T10:17:00Z</time>
      </trkpt>
      <trkpt lat="43.98943" lon="7.40644">
        <ele>1817</ele>
        <time>2017-09-17T10:17:01Z</time>
      </trkpt>
      <trkpt lat="43.98944" lon="7.40646">
        <ele>1817</ele>
        <time>2017-09-17T10:17:02Z</time>
      </trkpt>
      <trkpt lat="43.98946" lon="7.40649">
        <ele>1818</ele>
        <time>2017-09-17T10:17:03Z</time>
      </trkpt>
      <trkpt lat="43.98948" lon="7.40651">
        <ele>1818</ele>
        <time>2017-09-17T10:17:04Z</time>
      </trkpt>
      <trkpt lat="43.9895" lon="7.40653">
        <ele>1818</ele>
        <time>2017-09-17T10:17:05Z</time>
      </trkpt>
      <trkpt lat="43.98952" lon="7.40655">
        <ele>1819</ele>
        <time>2017-09-17T10:17:06Z</time>
      </trkpt>
      <trkpt lat="43.98954" lon="7.40657">
        <ele>1819</ele>
        <time>2017-09-17T10:17:07Z</time>
      </trkpt>
      <trkpt lat="43.98955" lon="7.4066">
        <ele>1819</ele>
        <time>2017-09-17T10:17:08Z</time>
      </trkpt>
      <trkpt lat="43.98957" lon="7.40662">
        <ele>1819</ele>
        <time>2017-09-17T10:17:09Z</time>
      </trkpt>
      <trkpt lat="43.98959" lon="7.40664">
        <ele>1820</ele>
        <time>2017-09-17T10:17:10Z</time>
      </trkpt>
      <trkpt lat="43.9896" lon="7.40667">
        <ele>1820</ele>
        <time>2017-09-17T10:17:11Z</time>
      </trkpt>
      <trkpt lat="43.98962" lon="7.40669">
        <ele>1820</ele>
        <time>2017-09-17T10:17:12Z</time>
      </trkpt>
      <trkpt lat="43.98963" lon="7.40672">
        <ele>1821</ele>
        <time>2017-09-17T10:17:13Z</time>
      </trkpt>
      <trkpt lat="43.98964" lon="7.40674">
        <ele>1821</ele>
        <time>2017-09-17T10:17:14Z</time>
      </trkpt>
      <trkpt lat="43.98966" lon="7.40676">
        <ele>1821</ele>
        <time>2017-09-17T10:17:15Z</time>
      </trkpt>
      <trkpt lat="43.98967" lon="7.40678">
        <ele>1821</ele>
        <time>2017-09-17T10:17:16Z</time>
      </trkpt>
      <trkpt lat="43.98969" lon="7.4068">
        <ele>1822</ele>
        <time>2017-09-17T10:17:17Z</time>
      </trkpt>
      <trkpt lat="43.98971" lon="7.40683">
        <ele>1822</ele>
        <time>2017-09-17T10:17:18Z</time>
      </trkpt>
      <trkpt lat="43.98972" lon="7.40685">
        <ele>1822</ele>
        <time>2017-09-17T10:17:19Z</time>
      </trkpt>
      <trkpt lat="43.98974" lon="7.40687">
        <ele>1822</ele>
        <time>2017-09-17T10:17:20Z</time>
      </trkpt>
      <trkpt lat="43.98976" lon="7.4069">
        <ele>1823</ele>
        <time>2017-09-17T10:17:21Z</time>
      </trkpt>
      <trkpt lat="43.98977" lon="7.40692">
        <ele>1823</ele>
        <time>2017-09-17T10:17:22Z</time>
      </trkpt>
      <trkpt lat="43.98979" lon="7.40695">
        <ele>1823</ele>
        <time>2017-09-17T10:17:23Z</time>
      </trkpt>
      <trkpt lat="43.9898" lon="7.40697">
        <ele>1824</ele>
        <time>2017-09-17T10:17:24Z</time>
      </trkpt>
      <trkpt lat="43.98982" lon="7.407">
        <ele>1824</ele>
        <time>2017-09-17T10:17:25Z</time>
      </trkpt>
      <trkpt lat="43.98983" lon="7.40703">
        <ele>1824</ele>
        <time>2017-09-17T10:17:26Z</time>
      </trkpt>
      <trkpt lat="43.98985" lon="7.40705">
        <ele>1825</ele>
        <time>2017-09-17T10:17:27Z</time>
      </trkpt>
      <trkpt lat="43.98987" lon="7.40708">
        <ele>1825</ele>
        <time>2017-09-17T10:17:28Z</time>
      </trkpt>
      <trkpt lat="43.98988" lon="7.4071">
        <ele>1825</ele>
        <time>2017-09-17T10:17:29Z</time>
      </trkpt>
      <trkpt lat="43.9899" lon="7.40713">
        <ele>1826</ele>
        <time>2017-09-17T10:17:30Z</time>
      </trkpt>
      <trkpt lat="43.98991" lon="7.40715">
        <ele>1826</ele>
        <time>2017-09-17T10:17:31Z</time>
      </trkpt>
      <trkpt lat="43.98993" lon="7.40718">
        <ele>1826</ele>
        <time>2017-09-17T10:17:32Z</time>
      </trkpt>
      <trkpt lat="43.98994" lon="7.4072">
        <ele>1827</ele>
        <time>2017-09-17T10:17:33Z</time>
      </trkpt>
      <trkpt lat="43.98996" lon="7.40723">
        <ele>1827</ele>
        <time>2017-09-17T10:17:34Z</time>
      </trkpt>
      <trkpt lat="43.98997" lon="7.40726">
        <ele>1827</ele>
        <time>2017-09-17T10:17:35Z</time>
      </trkpt>
      <trkpt lat="43.98999" lon="7.40729">
        <ele>1828</ele>
        <time>2017-09-17T10:17:36Z</time>
      </trkpt>
      <trkpt lat="43.99" lon="7.40732">
        <ele>1828</ele>
        <time>2017-09-17T10:17:37Z</time>
      </trkpt>
      <trkpt lat="43.99001" lon="7.40735">
        <ele>1828</ele>
        <time>2017-09-17T10:17:38Z</time>
      </trkpt>
      <trkpt lat="43.99002" lon="7.40738">
        <ele>1828</ele>
        <time>2017-09-17T10:17:39Z</time>
      </trkpt>
      <trkpt lat="43.99003" lon="7.40741">
        <ele>1829</ele>
        <time>2017-09-17T10:17:40Z</time>
      </trkpt>
      <trkpt lat="43.99004" lon="7.40743">
        <ele>1829</ele>
        <time>2017-09-17T10:17:41Z</time>
      </trkpt>
      <trkpt lat="43.99005" lon="7.40746">
        <ele>1829</ele>
        <time>2017-09-17T10:17:42Z</time>
      </trkpt>
      <trkpt lat="43.99007" lon="7.40749">
        <ele>1830</ele>
        <time>2017-09-17T10:17:43Z</time>
      </trkpt>
      <trkpt lat="43.99008" lon="7.40752">
        <ele>1830</ele>
        <time>2017-09-17T10:17:44Z</time>
      </trkpt>
      <trkpt lat="43.99009" lon="7.40755">
        <ele>1830</ele>
        <time>2017-09-17T10:17:45Z</time>
      </trkpt>
      <trkpt lat="43.9901" lon="7.40758">
        <ele>1831</ele>
        <time>2017-09-17T10:17:46Z</time>
      </trkpt>
      <trkpt lat="43.99011" lon="7.40762">
        <ele>1831</ele>
        <time>2017-09-17T10:17:47Z</time>
      </trkpt>
      <trkpt lat="43.99012" lon="7.40765">
        <ele>1831</ele>
        <time>2017-09-17T10:17:48Z</time>
      </trkpt>
      <trkpt lat="43.99013" lon="7.40768">
        <ele>1831</ele>
        <time>2017-09-17T10:17:49Z</time>
      </trkpt>
      <trkpt lat="43.99014" lon="7.40771">
        <ele>1832</ele>
        <time>2017-09-17T10:17:50Z</time>
      </trkpt>
      <trkpt lat="43.99015" lon="7.40774">
        <ele>1832</ele>
        <time>2017-09-17T10:17:51Z</time>
      </trkpt>
      <trkpt lat="43.99016" lon="7.40777">
        <ele>1832</ele>
        <time>2017-09-17T10:17:52Z</time>
      </trkpt>
      <trkpt lat="43.99017" lon="7.4078">
        <ele>1832</ele>
        <time>2017-09-17T10:17:53Z</time>
      </trkpt>
      <trkpt lat="43.99018" lon="7.40783">
        <ele>1833</ele>
        <time>2017-09-17T10:17:54Z</time>
      </trkpt>
      <trkpt lat="43.99019" lon="7.40786">
        <ele>1833</ele>
        <time>2017-09-17T10:17:55Z</time>
      </trkpt>
      <trkpt lat="43.99021" lon="7.40789">
        <ele>1833</ele>
        <time>2017-09-17T10:17:56Z</time>
      </trkpt>
      <trkpt lat="43.99023" lon="7.40792">
        <ele>1834</ele>
        <time>2017-09-17T10:17:57Z</time>
      </trkpt>
      <trkpt lat="43.99025" lon="7.40794">
        <ele>1834</ele>
        <time>2017-09-17T10:17:58Z</time>
      </trkpt>
      <trkpt lat="43.99027" lon="7.40796">
        <ele>1834</ele>
        <time>2017-09-17T10:17:59Z</time>
      </trkpt>
      <trkpt lat="43.99029" lon="7.40798">
        <ele>1834</ele>
        <time>2017-09-17T10:18:00Z</time>
      </trkpt>
      <trkpt lat="43.99031" lon="7.40799">
        <ele>1835</ele>
        <time>2017-09-17T10:18:01Z</time>
      </trkpt>
      <trkpt lat="43.99033" lon="7.408">
        <ele>1835</ele>
        <time>2017-09-17T10:18:02Z</time>
      </trkpt>
      <trkpt lat="43.99035" lon="7.40801">
        <ele>1835</ele>
        <time>2017-09-17T10:18:03Z</time>
      </trkpt>
      <trkpt lat="43.99037" lon="7.40802">
        <ele>1835</ele>
        <time>2017-09-17T10:18:04Z</time>
      </trkpt>
      <trkpt lat="43.99039" lon="7.40804">
        <ele>1835</ele>
        <time>2017-09-17T10:18:05Z</time>
      </trkpt>
      <trkpt lat="43.99041" lon="7.40805">
        <ele>1835</ele>
        <time>2017-09-17T10:18:06Z</time>
      </trkpt>
      <trkpt lat="43.99043" lon="7.40806">
        <ele>1835</ele>
        <time>2017-09-17T10:18:07Z</time>
      </trkpt>
      <trkpt lat="43.99045" lon="7.40808">
        <ele>1836</ele>
        <time>2017-09-17T10:18:08Z</time>
      </trkpt>
      <trkpt lat="43.99048" lon="7.40809">
        <ele>1836</ele>
        <time>2017-09-17T10:18:09Z</time>
      </trkpt>
      <trkpt lat="43.9905" lon="7.4081">
        <ele>1836</ele>
        <time>2017-09-17T10:18:10Z</time>
      </trkpt>
      <trkpt lat="43.99052" lon="7.40811">
        <ele>1836</ele>
        <time>2017-09-17T10:18:11Z</time>
      </trkpt>
      <trkpt lat="43.99055" lon="7.40813">
        <ele>1836</ele>
        <time>2017-09-17T10:18:12Z</time>
      </trkpt>
      <trkpt lat="43.99057" lon="7.40814">
        <ele>1836</ele>
        <time>2017-09-17T10:18:13Z</time>
      </trkpt>
      <trkpt lat="43.99059" lon="7.40815">
        <ele>1837</ele>
        <time>2017-09-17T10:18:14Z</time>
      </trkpt>
      <trkpt lat="43.99061" lon="7.40817">
        <ele>1837</ele>
        <time>2017-09-17T10:18:15Z</time>
      </trkpt>
      <trkpt lat="43.99064" lon="7.40818">
        <ele>1837</ele>
        <time>2017-09-17T10:18:16Z</time>
      </trkpt>
      <trkpt lat="43.99066" lon="7.4082">
        <ele>1837</ele>
        <time>2017-09-17T10:18:17Z</time>
      </trkpt>
      <trkpt lat="43.99068" lon="7.40821">
        <ele>1838</ele>
        <time>2017-09-17T10:18:18Z</time>
      </trkpt>
      <trkpt lat="43.99071" lon="7.40823">
        <ele>1838</ele>
        <time>2017-09-17T10:18:19Z</time>
      </trkpt>
      <trkpt lat="43.99073" lon="7.40824">
        <ele>1838</ele>
        <time>2017-09-17T10:18:20Z</time>
      </trkpt>
      <trkpt lat="43.99075" lon="7.40826">
        <ele>1839</ele>
        <time>2017-09-17T10:18:21Z</time>
      </trkpt>
      <trkpt lat="43.99077" lon="7.40828">
        <ele>1839</ele>
        <time>2017-09-17T10:18:22Z</time>
      </trkpt>
      <trkpt lat="43.9908" lon="7.4083">
        <ele>1839</ele>
        <time>2017-09-17T10:18:23Z</time>
      </trkpt>
      <trkpt lat="43.99082" lon="7.40832">
        <ele>1840</ele>
        <time>2017-09-17T10:18:24Z</time>
      </trkpt>
      <trkpt lat="43.99084" lon="7.40833">
        <ele>1840</ele>
        <time>2017-09-17T10:18:25Z</time>
      </trkpt>
      <trkpt lat="43.99086" lon="7.40835">
        <ele>1840</ele>
        <time>2017-09-17T10:18:26Z</time>
      </trkpt>
      <trkpt lat="43.99088" lon="7.40837">
        <ele>1841</ele>
        <time>2017-09-17T10:18:27Z</time>
      </trkpt>
      <trkpt lat="43.9909" lon="7.40839">
        <ele>1841</ele>
        <time>2017-09-17T10:18:28Z</time>
      </trkpt>
      <trkpt lat="43.99093" lon="7.4084">
        <ele>1841</ele>
        <time>2017-09-17T10:18:29Z</time>
      </trkpt>
      <trkpt lat="43.99095" lon="7.40842">
        <ele>1842</ele>
        <time>2017-09-17T10:18:30Z</time>
      </trkpt>
      <trkpt lat="43.99097" lon="7.40844">
        <ele>1842</ele>
        <time>2017-09-17T10:18:31Z</time>
      </trkpt>
      <trkpt lat="43.99099" lon="7.40846">
        <ele>1842</ele>
        <time>2017-09-17T10:18:32Z</time>
      </trkpt>
      <trkpt lat="43.99101" lon="7.40848">
        <ele>1843</ele>
        <time>2017-09-17T10:18:33Z</time>
      </trkpt>
      <trkpt lat="43.99103" lon="7.4085">
        <ele>1843</ele>
        <time>2017-09-17T10:18:34Z</time>
      </trkpt>
      <trkpt lat="43.99105" lon="7.40852">
        <ele>1843</ele>
        <time>2017-09-17T10:18:35Z</time>
      </trkpt>
      <trkpt lat="43.99107" lon="7.40855">
        <ele>1844</ele>
        <time>2017-09-17T10:18:36Z</time>
      </trkpt>
      <trkpt lat="43.9911" lon="7.40857">
        <ele>1844</ele>
        <time>2017-09-17T10:18:37Z</time>
      </trkpt>
      <trkpt lat="43.99112" lon="7.40859">
        <ele>1844</ele>
        <time>2017-09-17T10:18:38Z</time>
      </trkpt>
      <trkpt lat="43.99115" lon="7.40861">
        <ele>1844</ele>
        <time>2017-09-17T10:18:39Z</time>
      </trkpt>
      <trkpt lat="43.99117" lon="7.40863">
        <ele>1845</ele>
        <time>2017-09-17T10:18:40Z</time>
      </trkpt>
      <trkpt lat="43.9912" lon="7.40865">
        <ele>1845</ele>
        <time>2017-09-17T10:18:41Z</time>
      </trkpt>
      <trkpt lat="43.99123" lon="7.40867">
        <ele>1845</ele>
        <time>2017-09-17T10:18:42Z</time>
      </trkpt>
      <trkpt lat="43.99126" lon="7.4087">
        <ele>1846</ele>
        <time>2017-09-17T10:18:43Z</time>
      </trkpt>
      <trkpt lat="43.99128" lon="7.40872">
        <ele>1846</ele>
        <time>2017-09-17T10:18:44Z</time>
      </trkpt>
      <trkpt lat="43.99131" lon="7.40875">
        <ele>1847</ele>
        <time>2017-09-17T10:18:45Z</time>
      </trkpt>
      <trkpt lat="43.99134" lon="7.40877">
        <ele>1847</ele>
        <time>2017-09-17T10:18:46Z</time>
      </trkpt>
      <trkpt lat="43.99137" lon="7.4088">
        <ele>1848</ele>
        <time>2017-09-17T10:18:47Z</time>
      </trkpt>
      <trkpt lat="43.9914" lon="7.40882">
        <ele>1848</ele>
        <time>2017-09-17T10:18:48Z</time>
      </trkpt>
      <trkpt lat="43.99144" lon="7.40884">
        <ele>1848</ele>
        <time>2017-09-17T10:18:49Z</time>
      </trkpt>
      <trkpt lat="43.99147" lon="7.40887">
        <ele>1849</ele>
        <time>2017-09-17T10:18:50Z</time>
      </trkpt>
      <trkpt lat="43.9915" lon="7.4089">
        <ele>1849</ele>
        <time>2017-09-17T10:18:51Z</time>
      </trkpt>
      <trkpt lat="43.99153" lon="7.40893">
        <ele>1849</ele>
        <time>2017-09-17T10:18:52Z</time>
      </trkpt>
      <trkpt lat="43.99156" lon="7.40896">
        <ele>1850</ele>
        <time>2017-09-17T10:18:53Z</time>
      </trkpt>
      <trkpt lat="43.99159" lon="7.40899">
        <ele>1850</ele>
        <time>2017-09-17T10:18:54Z</time>
      </trkpt>
      <trkpt lat="43.99162" lon="7.40902">
        <ele>1851</ele>
        <time>2017-09-17T10:18:55Z</time>
      </trkpt>
      <trkpt lat="43.99165" lon="7.40905">
        <ele>1851</ele>
        <time>2017-09-17T10:18:56Z</time>
      </trkpt>
      <trkpt lat="43.99168" lon="7.40908">
        <ele>1851</ele>
        <time>2017-09-17T10:18:57Z</time>
      </trkpt>
      <trkpt lat="43.99171" lon="7.40911">
        <ele>1851</ele>
        <time>2017-09-17T10:18:58Z</time>
      </trkpt>
      <trkpt lat="43.99174" lon="7.40914">
        <ele>1852</ele>
        <time>2017-09-17T10:18:59Z</time>
      </trkpt>
      <trkpt lat="43.99177" lon="7.40918">
        <ele>1852</ele>
        <time>2017-09-17T10:19:00Z</time>
      </trkpt>
      <trkpt lat="43.9918" lon="7.40921">
        <ele>1852</ele>
        <time>2017-09-17T10:19:01Z</time>
      </trkpt>
      <trkpt lat="43.99183" lon="7.40924">
        <ele>1852</ele>
        <time>2017-09-17T10:19:02Z</time>
      </trkpt>
      <trkpt lat="43.99186" lon="7.40927">
        <ele>1853</ele>
        <time>2017-09-17T10:19:03Z</time>
      </trkpt>
      <trkpt lat="43.99189" lon="7.40931">
        <ele>1853</ele>
        <time>2017-09-17T10:19:04Z</time>
      </trkpt>
      <trkpt lat="43.99192" lon="7.40934">
        <ele>1853</ele>
        <time>2017-09-17T10:19:05Z</time>
      </trkpt>
      <trkpt lat="43.99195" lon="7.40937">
        <ele>1854</ele>
        <time>2017-09-17T10:19:06Z</time>
      </trkpt>
      <trkpt lat="43.99198" lon="7.40941">
        <ele>1854</ele>
        <time>2017-09-17T10:19:07Z</time>
      </trkpt>
      <trkpt lat="43.99201" lon="7.40944">
        <ele>1854</ele>
        <time>2017-09-17T10:19:08Z</time>
      </trkpt>
      <trkpt lat="43.99204" lon="7.40948">
        <ele>1855</ele>
        <time>2017-09-17T10:19:09Z</time>
      </trkpt>
      <trkpt lat="43.99207" lon="7.40952">
        <ele>1855</ele>
        <time>2017-09-17T10:19:10Z</time>
      </trkpt>
      <trkpt lat="43.99209" lon="7.40956">
        <ele>1855</ele>
        <time>2017-09-17T10:19:11Z</time>
      </trkpt>
      <trkpt lat="43.99211" lon="7.4096">
        <ele>1856</ele>
        <time>2017-09-17T10:19:12Z</time>
      </trkpt>
      <trkpt lat="43.99214" lon="7.40964">
        <ele>1856</ele>
        <time>2017-09-17T10:19:13Z</time>
      </trkpt>
      <trkpt lat="43.99216" lon="7.40968">
        <ele>1856</ele>
        <time>2017-09-17T10:19:14Z</time>
      </trkpt>
      <trkpt lat="43.99219" lon="7.40971">
        <ele>1856</ele>
        <time>2017-09-17T10:19:15Z</time>
      </trkpt>
      <trkpt lat="43.99221" lon="7.40975">
        <ele>1857</ele>
        <time>2017-09-17T10:19:16Z</time>
      </trkpt>
      <trkpt lat="43.99223" lon="7.40979">
        <ele>1857</ele>
        <time>2017-09-17T10:19:17Z</time>
      </trkpt>
      <trkpt lat="43.99226" lon="7.40983">
        <ele>1857</ele>
        <time>2017-09-17T10:19:18Z</time>
      </trkpt>
      <trkpt lat="43.99228" lon="7.40987">
        <ele>1857</ele>
        <time>2017-09-17T10:19:19Z</time>
      </trkpt>
      <trkpt lat="43.99231" lon="7.4099">
        <ele>1857</ele>
        <time>2017-09-17T10:19:20Z</time>
      </trkpt>
      <trkpt lat="43.99233" lon="7.40994">
        <ele>1857</ele>
        <time>2017-09-17T10:19:21Z</time>
      </trkpt>
      <trkpt lat="43.99235" lon="7.40998">
        <ele>1858</ele>
        <time>2017-09-17T10:19:22Z</time>
      </trkpt>
      <trkpt lat="43.99238" lon="7.41002">
        <ele>1858</ele>
        <time>2017-09-17T10:19:23Z</time>
      </trkpt>
      <trkpt lat="43.9924" lon="7.41005">
        <ele>1858</ele>
        <time>2017-09-17T10:19:24Z</time>
      </trkpt>
      <trkpt lat="43.99243" lon="7.41009">
        <ele>1858</ele>
        <time>2017-09-17T10:19:25Z</time>
      </trkpt>
      <trkpt lat="43.99245" lon="7.41013">
        <ele>1858</ele>
        <time>2017-09-17T10:19:26Z</time>
      </trkpt>
      <trkpt lat="43.99247" lon="7.41017">
        <ele>1858</ele>
        <time>2017-09-17T10:19:27Z</time>
      </trkpt>
      <trkpt lat="43.99249" lon="7.41021">
        <ele>1858</ele>
        <time>2017-09-17T10:19:28Z</time>
      </trkpt>
      <trkpt lat="43.99252" lon="7.41025">
        <ele>1858</ele>
        <time>2017-09-17T10:19:29Z</time>
      </trkpt>
      <trkpt lat="43.99254" lon="7.41028">
        <ele>1858</ele>
        <time>2017-09-17T10:19:30Z</time>
      </trkpt>
      <trkpt lat="43.99257" lon="7.41032">
        <ele>1858</ele>
        <time>2017-09-17T10:19:31Z</time>
      </trkpt>
      <trkpt lat="43.99259" lon="7.41036">
        <ele>1858</ele>
        <time>2017-09-17T10:19:32Z</time>
      </trkpt>
      <trkpt lat="43.99261" lon="7.41039">
        <ele>1858</ele>
        <time>2017-09-17T10:19:33Z</time>
      </trkpt>
      <trkpt lat="43.99264" lon="7.41043">
        <ele>1858</ele>
        <time>2017-09-17T10:19:34Z</time>
      </trkpt>
      <trkpt lat="43.99266" lon="7.41046">
        <ele>1858</ele>
        <time>2017-09-17T10:19:35Z</time>
      </trkpt>
      <trkpt lat="43.99269" lon="7.41049">
        <ele>1859</ele>
        <time>2017-09-17T10:19:36Z</time>
      </trkpt>
      <trkpt lat="43.99271" lon="7.41052">
        <ele>1859</ele>
        <time>2017-09-17T10:19:37Z</time>
      </trkpt>
      <trkpt lat="43.99274" lon="7.41055">
        <ele>1859</ele>
        <time>2017-09-17T10:19:38Z</time>
      </trkpt>
      <trkpt lat="43.99277" lon="7.41057">
        <ele>1859</ele>
        <time>2017-09-17T10:19:39Z</time>
      </trkpt>
      <trkpt lat="43.9928" lon="7.41059">
        <ele>1859</ele>
        <time>2017-09-17T10:19:40Z</time>
      </trkpt>
      <trkpt lat="43.99283" lon="7.4106">
        <ele>1860</ele>
        <time>2017-09-17T10:19:41Z</time>
      </trkpt>
      <trkpt lat="43.99286" lon="7.41061">
        <ele>1860</ele>
        <time>2017-09-17T10:19:42Z</time>
      </trkpt>
      <trkpt lat="43.99289" lon="7.41062">
        <ele>1860</ele>
        <time>2017-09-17T10:19:43Z</time>
      </trkpt>
      <trkpt lat="43.99292" lon="7.41063">
        <ele>1860</ele>
        <time>2017-09-17T10:19:44Z</time>
      </trkpt>
      <trkpt lat="43.99296" lon="7.41064">
        <ele>1860</ele>
        <time>2017-09-17T10:19:45Z</time>
      </trkpt>
      <trkpt lat="43.99299" lon="7.41065">
        <ele>1861</ele>
        <time>2017-09-17T10:19:46Z</time>
      </trkpt>
      <trkpt lat="43.99303" lon="7.41065">
        <ele>1861</ele>
        <time>2017-09-17T10:19:47Z</time>
      </trkpt>
      <trkpt lat="43.99307" lon="7.41066">
        <ele>1861</ele>
        <time>2017-09-17T10:19:48Z</time>
      </trkpt>
      <trkpt lat="43.9931" lon="7.41066">
        <ele>1861</ele>
        <time>2017-09-17T10:19:49Z</time>
      </trkpt>
      <trkpt lat="43.99314" lon="7.41067">
        <ele>1861</ele>
        <time>2017-09-17T10:19:50Z</time>
      </trkpt>
      <trkpt lat="43.99317" lon="7.41068">
        <ele>1862</ele>
        <time>2017-09-17T10:19:51Z</time>
      </trkpt>
      <trkpt lat="43.99321" lon="7.41068">
        <ele>1862</ele>
        <time>2017-09-17T10:19:52Z</time>
      </trkpt>
      <trkpt lat="43.99324" lon="7.41069">
        <ele>1862</ele>
        <time>2017-09-17T10:19:53Z</time>
      </trkpt>
      <trkpt lat="43.99328" lon="7.4107">
        <ele>1862</ele>
        <time>2017-09-17T10:19:54Z</time>
      </trkpt>
      <trkpt lat="43.99332" lon="7.41071">
        <ele>1862</ele>
        <time>2017-09-17T10:19:55Z</time>
      </trkpt>
      <trkpt lat="43.99335" lon="7.41071">
        <ele>1862</ele>
        <time>2017-09-17T10:19:56Z</time>
      </trkpt>
      <trkpt lat="43.99339" lon="7.41072">
        <ele>1863</ele>
        <time>2017-09-17T10:19:57Z</time>
      </trkpt>
      <trkpt lat="43.99342" lon="7.41072">
        <ele>1863</ele>
        <time>2017-09-17T10:19:58Z</time>
      </trkpt>
      <trkpt lat="43.99346" lon="7.41073">
        <ele>1863</ele>
        <time>2017-09-17T10:19:59Z</time>
      </trkpt>
      <trkpt lat="43.99349" lon="7.41073">
        <ele>1863</ele>
        <time>2017-09-17T10:20:00Z</time>
      </trkpt>
      <trkpt lat="43.99353" lon="7.41073">
        <ele>1863</ele>
        <time>2017-09-17T10:20:01Z</time>
      </trkpt>
      <trkpt lat="43.99356" lon="7.41074">
        <ele>1863</ele>
        <time>2017-09-17T10:20:02Z</time>
      </trkpt>
      <trkpt lat="43.9936" lon="7.41074">
        <ele>1864</ele>
        <time>2017-09-17T10:20:03Z</time>
      </trkpt>
      <trkpt lat="43.99364" lon="7.41075">
        <ele>1864</ele>
        <time>2017-09-17T10:20:04Z</time>
      </trkpt>
      <trkpt lat="43.99367" lon="7.41075">
        <ele>1864</ele>
        <time>2017-09-17T10:20:05Z</time>
      </trkpt>
      <trkpt lat="43.99371" lon="7.41076">
        <ele>1864</ele>
        <time>2017-09-17T10:20:06Z</time>
      </trkpt>
      <trkpt lat="43.99374" lon="7.41076">
        <ele>1864</ele>
        <time>2017-09-17T10:20:07Z</time>
      </trkpt>
      <trkpt lat="43.99378" lon="7.41077">
        <ele>1864</ele>
        <time>2017-09-17T10:20:08Z</time>
      </trkpt>
      <trkpt lat="43.99382" lon="7.41079">
        <ele>1865</ele>
        <time>2017-09-17T10:20:09Z</time>
      </trkpt>
      <trkpt lat="43.99385" lon="7.4108">
        <ele>1865</ele>
        <time>2017-09-17T10:20:10Z</time>
      </trkpt>
      <trkpt lat="43.99389" lon="7.41081">
        <ele>1865</ele>
        <time>2017-09-17T10:20:11Z</time>
      </trkpt>
      <trkpt lat="43.99392" lon="7.41082">
        <ele>1865</ele>
        <time>2017-09-17T10:20:12Z</time>
      </trkpt>
      <trkpt lat="43.99395" lon="7.41084">
        <ele>1865</ele>
        <time>2017-09-17T10:20:13Z</time>
      </trkpt>
      <trkpt lat="43.99399" lon="7.41085">
        <ele>1866</ele>
        <time>2017-09-17T10:20:14Z</time>
      </trkpt>
      <trkpt lat="43.99402" lon="7.41087">
        <ele>1866</ele>
        <time>2017-09-17T10:20:15Z</time>
      </trkpt>
      <trkpt lat="43.99405" lon="7.41088">
        <ele>1866</ele>
        <time>2017-09-17T10:20:16Z</time>
      </trkpt>
      <trkpt lat="43.99409" lon="7.4109">
        <ele>1867</ele>
        <time>2017-09-17T10:20:17Z</time>
      </trkpt>
      <trkpt lat="43.99412" lon="7.41092">
        <ele>1867</ele>
        <time>2017-09-17T10:20:18Z</time>
      </trkpt>
      <trkpt lat="43.99415" lon="7.41094">
        <ele>1867</ele>
        <time>2017-09-17T10:20:19Z</time>
      </trkpt>
      <trkpt lat="43.99419" lon="7.41096">
        <ele>1868</ele>
        <time>2017-09-17T10:20:20Z</time>
      </trkpt>
      <trkpt lat="43.99422" lon="7.41098">
        <ele>1868</ele>
        <time>2017-09-17T10:20:21Z</time>
      </trkpt>
      <trkpt lat="43.99425" lon="7.41099">
        <ele>1868</ele>
        <time>2017-09-17T10:20:22Z</time>
      </trkpt>
      <trkpt lat="43.99428" lon="7.41102">
        <ele>1869</ele>
        <time>2017-09-17T10:20:23Z</time>
      </trkpt>
      <trkpt lat="43.99431" lon="7.41104">
        <ele>1869</ele>
        <time>2017-09-17T10:20:24Z</time>
      </trkpt>
      <trkpt lat="43.99434" lon="7.41106">
        <ele>1869</ele>
        <time>2017-09-17T10:20:25Z</time>
      </trkpt>
      <trkpt lat="43.99437" lon="7.41108">
        <ele>1870</ele>
        <time>2017-09-17T10:20:26Z</time>
      </trkpt>
      <trkpt lat="43.9944" lon="7.4111">
        <ele>1870</ele>
        <time>2017-09-17T10:20:27Z</time>
      </trkpt>
      <trkpt lat="43.99442" lon="7.41111">
        <ele>1871</ele>
        <time>2017-09-17T10:20:28Z</time>
      </trkpt>
      <trkpt lat="43.99445" lon="7.41113">
        <ele>1871</ele>
        <time>2017-09-17T10:20:29Z</time>
      </trkpt>
      <trkpt lat="43.99448" lon="7.41115">
        <ele>1871</ele>
        <time>2017-09-17T10:20:30Z</time>
      </trkpt>
      <trkpt lat="43.99451" lon="7.41116">
        <ele>1871</ele>
        <time>2017-09-17T10:20:31Z</time>
      </trkpt>
      <trkpt lat="43.99453" lon="7.41118">
        <ele>1872</ele>
        <time>2017-09-17T10:20:32Z</time>
      </trkpt>
      <trkpt lat="43.99456" lon="7.4112">
        <ele>1872</ele>
        <time>2017-09-17T10:20:33Z</time>
      </trkpt>
      <trkpt lat="43.99458" lon="7.41123">
        <ele>1872</ele>
        <time>2017-09-17T10:20:34Z</time>
      </trkpt>
      <trkpt lat="43.99461" lon="7.41124">
        <ele>1872</ele>
        <time>2017-09-17T10:20:35Z</time>
      </trkpt>
      <trkpt lat="43.99463" lon="7.41127">
        <ele>1872</ele>
        <time>2017-09-17T10:20:36Z</time>
      </trkpt>
      <trkpt lat="43.99465" lon="7.41129">
        <ele>1872</ele>
        <time>2017-09-17T10:20:37Z</time>
      </trkpt>
      <trkpt lat="43.99467" lon="7.41132">
        <ele>1873</ele>
        <time>2017-09-17T10:20:38Z</time>
      </trkpt>
      <trkpt lat="43.99469" lon="7.41134">
        <ele>1873</ele>
        <time>2017-09-17T10:20:39Z</time>
      </trkpt>
      <trkpt lat="43.99472" lon="7.41137">
        <ele>1873</ele>
        <time>2017-09-17T10:20:40Z</time>
      </trkpt>
      <trkpt lat="43.99474" lon="7.4114">
        <ele>1874</ele>
        <time>2017-09-17T10:20:41Z</time>
      </trkpt>
      <trkpt lat="43.99476" lon="7.41143">
        <ele>1874</ele>
        <time>2017-09-17T10:20:42Z</time>
      </trkpt>
      <trkpt lat="43.99478" lon="7.41146">
        <ele>1874</ele>
        <time>2017-09-17T10:20:43Z</time>
      </trkpt>
      <trkpt lat="43.9948" lon="7.41149">
        <ele>1875</ele>
        <time>2017-09-17T10:20:44Z</time>
      </trkpt>
      <trkpt lat="43.99482" lon="7.41152">
        <ele>1875</ele>
        <time>2017-09-17T10:20:45Z</time>
      </trkpt>
      <trkpt lat="43.99483" lon="7.41155">
        <ele>1876</ele>
        <time>2017-09-17T10:20:46Z</time>
      </trkpt>
      <trkpt lat="43.99485" lon="7.41158">
        <ele>1876</ele>
        <time>2017-09-17T10:20:47Z</time>
      </trkpt>
      <trkpt lat="43.99487" lon="7.41162">
        <ele>1876</ele>
        <time>2017-09-17T10:20:48Z</time>
      </trkpt>
      <trkpt lat="43.99489" lon="7.41165">
        <ele>1877</ele>
        <time>2017-09-17T10:20:49Z</time>
      </trkpt>
      <trkpt lat="43.99491" lon="7.41168">
        <ele>1877</ele>
        <time>2017-09-17T10:20:50Z</time>
      </trkpt>
      <trkpt lat="43.99492" lon="7.41171">
        <ele>1877</ele>
        <time>2017-09-17T10:20:51Z</time>
      </trkpt>
      <trkpt lat="43.99494" lon="7.41175">
        <ele>1878</ele>
        <time>2017-09-17T10:20:52Z</time>
      </trkpt>
      <trkpt lat="43.99496" lon="7.41178">
        <ele>1878</ele>
        <time>2017-09-17T10:20:53Z</time>
      </trkpt>
      <trkpt lat="43.99498" lon="7.41181">
        <ele>1878</ele>
        <time>2017-09-17T10:20:54Z</time>
      </trkpt>
      <trkpt lat="43.99499" lon="7.41185">
        <ele>1879</ele>
        <time>2017-09-17T10:20:55Z</time>
      </trkpt>
      <trkpt lat="43.99501" lon="7.41189">
        <ele>1879</ele>
        <time>2017-09-17T10:20:56Z</time>
      </trkpt>
      <trkpt lat="43.99503" lon="7.41192">
        <ele>1879</ele>
        <time>2017-09-17T10:20:57Z</time>
      </trkpt>
      <trkpt lat="43.99505" lon="7.41196">
        <ele>1879</ele>
        <time>2017-09-17T10:20:58Z</time>
      </trkpt>
      <trkpt lat="43.99506" lon="7.41199">
        <ele>1880</ele>
        <time>2017-09-17T10:20:59Z</time>
      </trkpt>
      <trkpt lat="43.99508" lon="7.41203">
        <ele>1880</ele>
        <time>2017-09-17T10:21:00Z</time>
      </trkpt>
      <trkpt lat="43.9951" lon="7.41206">
        <ele>1880</ele>
        <time>2017-09-17T10:21:01Z</time>
      </trkpt>
      <trkpt lat="43.99512" lon="7.4121">
        <ele>1880</ele>
        <time>2017-09-17T10:21:02Z</time>
      </trkpt>
      <trkpt lat="43.99513" lon="7.41214">
        <ele>1881</ele>
        <time>2017-09-17T10:21:03Z</time>
      </trkpt>
      <trkpt lat="43.99515" lon="7.41218">
        <ele>1881</ele>
        <time>2017-09-17T10:21:04Z</time>
      </trkpt>
      <trkpt lat="43.99516" lon="7.41222">
        <ele>1881</ele>
        <time>2017-09-17T10:21:05Z</time>
      </trkpt>
      <trkpt lat="43.99517" lon="7.41226">
        <ele>1881</ele>
        <time>2017-09-17T10:21:06Z</time>
      </trkpt>
      <trkpt lat="43.99518" lon="7.4123">
        <ele>1882</ele>
        <time>2017-09-17T10:21:07Z</time>
      </trkpt>
      <trkpt lat="43.99519" lon="7.41234">
        <ele>1882</ele>
        <time>2017-09-17T10:21:08Z</time>
      </trkpt>
      <trkpt lat="43.9952" lon="7.41238">
        <ele>1882</ele>
        <time>2017-09-17T10:21:09Z</time>
      </trkpt>
      <trkpt lat="43.99521" lon="7.41242">
        <ele>1883</ele>
        <time>2017-09-17T10:21:10Z</time>
      </trkpt>
      <trkpt lat="43.99522" lon="7.41246">
        <ele>1883</ele>
        <time>2017-09-17T10:21:11Z</time>
      </trkpt>
      <trkpt lat="43.99522" lon="7.4125">
        <ele>1883</ele>
        <time>2017-09-17T10:21:12Z</time>
      </trkpt>
      <trkpt lat="43.99523" lon="7.41254">
        <ele>1884</ele>
        <time>2017-09-17T10:21:13Z</time>
      </trkpt>
      <trkpt lat="43.99524" lon="7.41258">
        <ele>1884</ele>
        <time>2017-09-17T10:21:14Z</time>
      </trkpt>
      <trkpt lat="43.99526" lon="7.41262">
        <ele>1884</ele>
        <time>2017-09-17T10:21:15Z</time>
      </trkpt>
      <trkpt lat="43.99527" lon="7.41265">
        <ele>1884</ele>
        <time>2017-09-17T10:21:16Z</time>
      </trkpt>
      <trkpt lat="43.99528" lon="7.41269">
        <ele>1885</ele>
        <time>2017-09-17T10:21:17Z</time>
      </trkpt>
      <trkpt lat="43.99529" lon="7.41272">
        <ele>1885</ele>
        <time>2017-09-17T10:21:18Z</time>
      </trkpt>
      <trkpt lat="43.99531" lon="7.41276">
        <ele>1885</ele>
        <time>2017-09-17T10:21:19Z</time>
      </trkpt>
      <trkpt lat="43.99532" lon="7.41279">
        <ele>1886</ele>
        <time>2017-09-17T10:21:20Z</time>
      </trkpt>
      <trkpt lat="43.99534" lon="7.41283">
        <ele>1886</ele>
        <time>2017-09-17T10:21:21Z</time>
      </trkpt>
      <trkpt lat="43.99535" lon="7.41286">
        <ele>1886</ele>
        <time>2017-09-17T10:21:22Z</time>
      </trkpt>
      <trkpt lat="43.99537" lon="7.4129">
        <ele>1887</ele>
        <time>2017-09-17T10:21:23Z</time>
      </trkpt>
      <trkpt lat="43.99538" lon="7.41294">
        <ele>1887</ele>
        <time>2017-09-17T10:21:24Z</time>
      </trkpt>
      <trkpt lat="43.99539" lon="7.41298">
        <ele>1887</ele>
        <time>2017-09-17T10:21:25Z</time>
      </trkpt>
      <trkpt lat="43.99541" lon="7.41301">
        <ele>1887</ele>
        <time>2017-09-17T10:21:26Z</time>
      </trkpt>
      <trkpt lat="43.99542" lon="7.41305">
        <ele>1888</ele>
        <time>2017-09-17T10:21:27Z</time>
      </trkpt>
      <trkpt lat="43.99544" lon="7.41309">
        <ele>1888</ele>
        <time>2017-09-17T10:21:28Z</time>
      </trkpt>
      <trkpt lat="43.99545" lon="7.41312">
        <ele>1888</ele>
        <time>2017-09-17T10:21:29Z</time>
      </trkpt>
      <trkpt lat="43.99547" lon="7.41315">
        <ele>1888</ele>
        <time>2017-09-17T10:21:30Z</time>
      </trkpt>
      <trkpt lat="43.99549" lon="7.41318">
        <ele>1889</ele>
        <time>2017-09-17T10:21:31Z</time>
      </trkpt>
      <trkpt lat="43.99551" lon="7.41321">
        <ele>1889</ele>
        <time>2017-09-17T10:21:32Z</time>
      </trkpt>
      <trkpt lat="43.99551" lon="7.41325">
        <ele>1889</ele>
        <time>2017-09-17T10:21:33Z</time>
      </trkpt>
      <trkpt lat="43.99552" lon="7.41328">
        <ele>1890</ele>
        <time>2017-09-17T10:21:34Z</time>
      </trkpt>
      <trkpt lat="43.99552" lon="7.41331">
        <ele>1890</ele>
        <time>2017-09-17T10:21:35Z</time>
      </trkpt>
      <trkpt lat="43.99553" lon="7.41335">
        <ele>1890</ele>
        <time>2017-09-17T10:21:36Z</time>
      </trkpt>
      <trkpt lat="43.99553" lon="7.41338">
        <ele>1890</ele>
        <time>2017-09-17T10:21:37Z</time>
      </trkpt>
      <trkpt lat="43.99553" lon="7.41341">
        <ele>1890</ele>
        <time>2017-09-17T10:21:38Z</time>
      </trkpt>
      <trkpt lat="43.99554" lon="7.41344">
        <ele>1890</ele>
        <time>2017-09-17T10:21:39Z</time>
      </trkpt>
      <trkpt lat="43.99554" lon="7.41347">
        <ele>1891</ele>
        <time>2017-09-17T10:21:40Z</time>
      </trkpt>
      <trkpt lat="43.99554" lon="7.41351">
        <ele>1891</ele>
        <time>2017-09-17T10:21:41Z</time>
      </trkpt>
      <trkpt lat="43.99555" lon="7.41354">
        <ele>1891</ele>
        <time>2017-09-17T10:21:42Z</time>
      </trkpt>
      <trkpt lat="43.99555" lon="7.41357">
        <ele>1891</ele>
        <time>2017-09-17T10:21:43Z</time>
      </trkpt>
      <trkpt lat="43.99556" lon="7.41361">
        <ele>1891</ele>
        <time>2017-09-17T10:21:44Z</time>
      </trkpt>
      <trkpt lat="43.99557" lon="7.41364">
        <ele>1891</ele>
        <time>2017-09-17T10:21:45Z</time>
      </trkpt>
      <trkpt lat="43.99558" lon="7.41368">
        <ele>1891</ele>
        <time>2017-09-17T10:21:46Z</time>
      </trkpt>
      <trkpt lat="43.99558" lon="7.41371">
        <ele>1891</ele>
        <time>2017-09-17T10:21:47Z</time>
      </trkpt>
      <trkpt lat="43.99559" lon="7.41375">
        <ele>1891</ele>
        <time>2017-09-17T10:21:48Z</time>
      </trkpt>
      <trkpt lat="43.9956" lon="7.41379">
        <ele>1891</ele>
        <time>2017-09-17T10:21:49Z</time>
      </trkpt>
      <trkpt lat="43.9956" lon="7.41383">
        <ele>1891</ele>
        <time>2017-09-17T10:21:50Z</time>
      </trkpt>
      <trkpt lat="43.99561" lon="7.41387">
        <ele>1891</ele>
        <time>2017-09-17T10:21:51Z</time>
      </trkpt>
      <trkpt lat="43.99561" lon="7.41391">
        <ele>1891</ele>
        <time>2017-09-17T10:21:52Z</time>
      </trkpt>
      <trkpt lat="43.99562" lon="7.41396">
        <ele>1891</ele>
        <time>2017-09-17T10:21:53Z</time>
      </trkpt>
      <trkpt lat="43.99562" lon="7.414">
        <ele>1890</ele>
        <time>2017-09-17T10:21:54Z</time>
      </trkpt>
      <trkpt lat="43.99563" lon="7.41405">
        <ele>1890</ele>
        <time>2017-09-17T10:21:55Z</time>
      </trkpt>
      <trkpt lat="43.99563" lon="7.4141">
        <ele>1890</ele>
        <time>2017-09-17T10:21:56Z</time>
      </trkpt>
      <trkpt lat="43.99563" lon="7.41416">
        <ele>1890</ele>
        <time>2017-09-17T10:21:57Z</time>
      </trkpt>
      <trkpt lat="43.99563" lon="7.41422">
        <ele>1890</ele>
        <time>2017-09-17T10:21:58Z</time>
      </trkpt>
      <trkpt lat="43.99563" lon="7.41428">
        <ele>1889</ele>
        <time>2017-09-17T10:21:59Z</time>
      </trkpt>
      <trkpt lat="43.99563" lon="7.41434">
        <ele>1889</ele>
        <time>2017-09-17T10:22:00Z</time>
      </trkpt>
      <trkpt lat="43.99563" lon="7.41441">
        <ele>1889</ele>
        <time>2017-09-17T10:22:01Z</time>
      </trkpt>
      <trkpt lat="43.99563" lon="7.41448">
        <ele>1889</ele>
        <time>2017-09-17T10:22:02Z</time>
      </trkpt>
      <trkpt lat="43.99563" lon="7.41455">
        <ele>1889</ele>
        <time>2017-09-17T10:22:03Z</time>
      </trkpt>
      <trkpt lat="43.99562" lon="7.41462">
        <ele>1888</ele>
        <time>2017-09-17T10:22:04Z</time>
      </trkpt>
      <trkpt lat="43.99561" lon="7.41469">
        <ele>1888</ele>
        <time>2017-09-17T10:22:05Z</time>
      </trkpt>
      <trkpt lat="43.9956" lon="7.41477">
        <ele>1888</ele>
        <time>2017-09-17T10:22:06Z</time>
      </trkpt>
      <trkpt lat="43.99558" lon="7.41485">
        <ele>1887</ele>
        <time>2017-09-17T10:22:07Z</time>
      </trkpt>
      <trkpt lat="43.99557" lon="7.41493">
        <ele>1887</ele>
        <time>2017-09-17T10:22:08Z</time>
      </trkpt>
      <trkpt lat="43.99555" lon="7.41501">
        <ele>1887</ele>
        <time>2017-09-17T10:22:09Z</time>
      </trkpt>
      <trkpt lat="43.99553" lon="7.4151">
        <ele>1886</ele>
        <time>2017-09-17T10:22:10Z</time>
      </trkpt>
      <trkpt lat="43.9955" lon="7.41518">
        <ele>1886</ele>
        <time>2017-09-17T10:22:11Z</time>
      </trkpt>
      <trkpt lat="43.99548" lon="7.41527">
        <ele>1886</ele>
        <time>2017-09-17T10:22:12Z</time>
      </trkpt>
      <trkpt lat="43.99546" lon="7.41536">
        <ele>1885</ele>
        <time>2017-09-17T10:22:13Z</time>
      </trkpt>
      <trkpt lat="43.99544" lon="7.41546">
        <ele>1885</ele>
        <time>2017-09-17T10:22:14Z</time>
      </trkpt>
      <trkpt lat="43.99544" lon="7.41557">
        <ele>1885</ele>
        <time>2017-09-17T10:22:15Z</time>
      </trkpt>
      <trkpt lat="43.99544" lon="7.41567">
        <ele>1884</ele>
        <time>2017-09-17T10:22:16Z</time>
      </trkpt>
      <trkpt lat="43.99545" lon="7.41578">
        <ele>1884</ele>
        <time>2017-09-17T10:22:17Z</time>
      </trkpt>
      <trkpt lat="43.99547" lon="7.41588">
        <ele>1884</ele>
        <time>2017-09-17T10:22:18Z</time>
      </trkpt>
      <trkpt lat="43.9955" lon="7.41599">
        <ele>1884</ele>
        <time>2017-09-17T10:22:19Z</time>
      </trkpt>
      <trkpt lat="43.99552" lon="7.4161">
        <ele>1883</ele>
        <time>2017-09-17T10:22:20Z</time>
      </trkpt>
      <trkpt lat="43.99554" lon="7.41622">
        <ele>1883</ele>
        <time>2017-09-17T10:22:21Z</time>
      </trkpt>
      <trkpt lat="43.99557" lon="7.41633">
        <ele>1883</ele>
        <time>2017-09-17T10:22:22Z</time>
      </trkpt>
      <trkpt lat="43.99559" lon="7.41645">
        <ele>1883</ele>
        <time>2017-09-17T10:22:23Z</time>
      </trkpt>
      <trkpt lat="43.99561" lon="7.41656">
        <ele>1883</ele>
        <time>2017-09-17T10:22:24Z</time>
      </trkpt>
      <trkpt lat="43.99562" lon="7.41668">
        <ele>1882</ele>
        <time>2017-09-17T10:22:25Z</time>
      </trkpt>
      <trkpt lat="43.99562" lon="7.41681">
        <ele>1882</ele>
        <time>2017-09-17T10:22:26Z</time>
      </trkpt>
      <trkpt lat="43.99563" lon="7.41693">
        <ele>1882</ele>
        <time>2017-09-17T10:22:27Z</time>
      </trkpt>
      <trkpt lat="43.99563" lon="7.41705">
        <ele>1881</ele>
        <time>2017-09-17T10:22:28Z</time>
      </trkpt>
      <trkpt lat="43.99564" lon="7.41718">
        <ele>1881</ele>
        <time>2017-09-17T10:22:29Z</time>
      </trkpt>
      <trkpt lat="43.99563" lon="7.4173">
        <ele>1881</ele>
        <time>2017-09-17T10:22:30Z</time>
      </trkpt>
      <trkpt lat="43.9956" lon="7.41742">
        <ele>1881</ele>
        <time>2017-09-17T10:22:31Z</time>
      </trkpt>
      <trkpt lat="43.99557" lon="7.41754">
        <ele>1880</ele>
        <time>2017-09-17T10:22:32Z</time>
      </trkpt>
      <trkpt lat="43.99553" lon="7.41765">
        <ele>1880</ele>
        <time>2017-09-17T10:22:33Z</time>
      </trkpt>
      <trkpt lat="43.99551" lon="7.41777">
        <ele>1880</ele>
        <time>2017-09-17T10:22:34Z</time>
      </trkpt>
      <trkpt lat="43.99548" lon="7.41789">
        <ele>1880</ele>
        <time>2017-09-17T10:22:35Z</time>
      </trkpt>
      <trkpt lat="43.99546" lon="7.41801">
        <ele>1880</ele>
        <time>2017-09-17T10:22:36Z</time>
      </trkpt>
      <trkpt lat="43.99543" lon="7.41813">
        <ele>1879</ele>
        <time>2017-09-17T10:22:37Z</time>
      </trkpt>
      <trkpt lat="43.99539" lon="7.41825">
        <ele>1879</ele>
        <time>2017-09-17T10:22:38Z</time>
      </trkpt>
      <trkpt lat="43.99535" lon="7.41835">
        <ele>1879</ele>
        <time>2017-09-17T10:22:39Z</time>
      </trkpt>
      <trkpt lat="43.9953" lon="7.41846">
        <ele>1879</ele>
        <time>2017-09-17T10:22:40Z</time>
      </trkpt>
      <trkpt lat="43.99525" lon="7.41857">
        <ele>1878</ele>
        <time>2017-09-17T10:22:41Z</time>
      </trkpt>
      <trkpt lat="43.99521" lon="7.41867">
        <ele>1878</ele>
        <time>2017-09-17T10:22:42Z</time>
      </trkpt>
      <trkpt lat="43.99516" lon="7.41879">
        <ele>1878</ele>
        <time>2017-09-17T10:22:43Z</time>
      </trkpt>
      <trkpt lat="43.99512" lon="7.4189">
        <ele>1878</ele>
        <time>2017-09-17T10:22:44Z</time>
      </trkpt>
      <trkpt lat="43.99507" lon="7.41901">
        <ele>1877</ele>
        <time>2017-09-17T10:22:45Z</time>
      </trkpt>
      <trkpt lat="43.99503" lon="7.41912">
        <ele>1877</ele>
        <time>2017-09-17T10:22:46Z</time>
      </trkpt>
      <trkpt lat="43.99497" lon="7.41922">
        <ele>1877</ele>
        <time>2017-09-17T10:22:47Z</time>
      </trkpt>
      <trkpt lat="43.99491" lon="7.41932">
        <ele>1876</ele>
        <time>2017-09-17T10:22:48Z</time>
      </trkpt>
      <trkpt lat="43.99485" lon="7.41941">
        <ele>1876</ele>
        <time>2017-09-17T10:22:49Z</time>
      </trkpt>
      <trkpt lat="43.99479" lon="7.41951">
        <ele>1876</ele>
        <time>2017-09-17T10:22:50Z</time>
      </trkpt>
      <trkpt lat="43.99473" lon="7.4196">
        <ele>1875</ele>
        <time>2017-09-17T10:22:51Z</time>
      </trkpt>
      <trkpt lat="43.99468" lon="7.41971">
        <ele>1875</ele>
        <time>2017-09-17T10:22:52Z</time>
      </trkpt>
      <trkpt lat="43.99463" lon="7.41981">
        <ele>1875</ele>
        <time>2017-09-17T10:22:53Z</time>
      </trkpt>
      <trkpt lat="43.99458" lon="7.41991">
        <ele>1874</ele>
        <time>2017-09-17T10:22:54Z</time>
      </trkpt>
      <trkpt lat="43.99452" lon="7.42">
        <ele>1874</ele>
        <time>2017-09-17T10:22:55Z</time>
      </trkpt>
      <trkpt lat="43.99444" lon="7.42006">
        <ele>1874</ele>
        <time>2017-09-17T10:22:56Z</time>
      </trkpt>
      <trkpt lat="43.99436" lon="7.42012">
        <ele>1874</ele>
        <time>2017-09-17T10:22:57Z</time>
      </trkpt>
      <trkpt lat="43.99428" lon="7.42018">
        <ele>1873</ele>
        <time>2017-09-17T10:22:58Z</time>
      </trkpt>
      <trkpt lat="43.9942" lon="7.42023">
        <ele>1873</ele>
        <time>2017-09-17T10:22:59Z</time>
      </trkpt>
      <trkpt lat="43.99412" lon="7.42027">
        <ele>1872</ele>
        <time>2017-09-17T10:23:00Z</time>
      </trkpt>
      <trkpt lat="43.99403" lon="7.4203">
        <ele>1872</ele>
        <time>2017-09-17T10:23:01Z</time>
      </trkpt>
      <trkpt lat="43.99393" lon="7.42033">
        <ele>1871</ele>
        <time>2017-09-17T10:23:02Z</time>
      </trkpt>
      <trkpt lat="43.99384" lon="7.42035">
        <ele>1871</ele>
        <time>2017-09-17T10:23:03Z</time>
      </trkpt>
      <trkpt lat="43.99375" lon="7.42038">
        <ele>1870</ele>
        <time>2017-09-17T10:23:04Z</time>
      </trkpt>
      <trkpt lat="43.99366" lon="7.42043">
        <ele>1870</ele>
        <time>2017-09-17T10:23:05Z</time>
      </trkpt>
      <trkpt lat="43.99358" lon="7.42049">
        <ele>1869</ele>
        <time>2017-09-17T10:23:06Z</time>
      </trkpt>
      <trkpt lat="43.99351" lon="7.42057">
        <ele>1869</ele>
        <time>2017-09-17T10:23:07Z</time>
      </trkpt>
      <trkpt lat="43.99345" lon="7.42067">
        <ele>1868</ele>
        <time>2017-09-17T10:23:08Z</time>
      </trkpt>
      <trkpt lat="43.99339" lon="7.42077">
        <ele>1868</ele>
        <time>2017-09-17T10:23:09Z</time>
      </trkpt>
      <trkpt lat="43.99334" lon="7.42088">
        <ele>1867</ele>
        <time>2017-09-17T10:23:10Z</time>
      </trkpt>
      <trkpt lat="43.9933" lon="7.42099">
        <ele>1867</ele>
        <time>2017-09-17T10:23:11Z</time>
      </trkpt>
      <trkpt lat="43.99326" lon="7.42111">
        <ele>1866</ele>
        <time>2017-09-17T10:23:12Z</time>
      </trkpt>
      <trkpt lat="43.99323" lon="7.42123">
        <ele>1866</ele>
        <time>2017-09-17T10:23:13Z</time>
      </trkpt>
      <trkpt lat="43.9932" lon="7.42135">
        <ele>1865</ele>
        <time>2017-09-17T10:23:14Z</time>
      </trkpt>
      <trkpt lat="43.99318" lon="7.42147">
        <ele>1865</ele>
        <time>2017-09-17T10:23:15Z</time>
      </trkpt>
      <trkpt lat="43.99318" lon="7.4216">
        <ele>1864</ele>
        <time>2017-09-17T10:23:16Z</time>
      </trkpt>
      <trkpt lat="43.99318" lon="7.42173">
        <ele>1864</ele>
        <time>2017-09-17T10:23:17Z</time>
      </trkpt>
      <trkpt lat="43.9932" lon="7.42186">
        <ele>1864</ele>
        <time>2017-09-17T10:23:18Z</time>
      </trkpt>
      <trkpt lat="43.99322" lon="7.42199">
        <ele>1863</ele>
        <time>2017-09-17T10:23:19Z</time>
      </trkpt>
      <trkpt lat="43.99326" lon="7.4221">
        <ele>1863</ele>
        <time>2017-09-17T10:23:20Z</time>
      </trkpt>
      <trkpt lat="43.99332" lon="7.4222">
        <ele>1863</ele>
        <time>2017-09-17T10:23:21Z</time>
      </trkpt>
      <trkpt lat="43.99338" lon="7.4223">
        <ele>1863</ele>
        <time>2017-09-17T10:23:22Z</time>
      </trkpt>
      <trkpt lat="43.99344" lon="7.42239">
        <ele>1863</ele>
        <time>2017-09-17T10:23:23Z</time>
      </trkpt>
      <trkpt lat="43.9935" lon="7.42249">
        <ele>1862</ele>
        <time>2017-09-17T10:23:24Z</time>
      </trkpt>
      <trkpt lat="43.99355" lon="7.42259">
        <ele>1862</ele>
        <time>2017-09-17T10:23:25Z</time>
      </trkpt>
      <trkpt lat="43.9936" lon="7.4227">
        <ele>1862</ele>
        <time>2017-09-17T10:23:26Z</time>
      </trkpt>
      <trkpt lat="43.99364" lon="7.42282">
        <ele>1862</ele>
        <time>2017-09-17T10:23:27Z</time>
      </trkpt>
      <trkpt lat="43.99368" lon="7.42293">
        <ele>1861</ele>
        <time>2017-09-17T10:23:28Z</time>
      </trkpt>
      <trkpt lat="43.99372" lon="7.42305">
        <ele>1861</ele>
        <time>2017-09-17T10:23:29Z</time>
      </trkpt>
      <trkpt lat="43.99376" lon="7.42317">
        <ele>1860</ele>
        <time>2017-09-17T10:23:30Z</time>
      </trkpt>
      <trkpt lat="43.9938" lon="7.42328">
        <ele>1860</ele>
        <time>2017-09-17T10:23:31Z</time>
      </trkpt>
      <trkpt lat="43.99383" lon="7.42339">
        <ele>1860</ele>
        <time>2017-09-17T10:23:32Z</time>
      </trkpt>
      <trkpt lat="43.99388" lon="7.4235">
        <ele>1860</ele>
        <time>2017-09-17T10:23:33Z</time>
      </trkpt>
      <trkpt lat="43.99393" lon="7.4236">
        <ele>1860</ele>
        <time>2017-09-17T10:23:34Z</time>
      </trkpt>
      <trkpt lat="43.99399" lon="7.42369">
        <ele>1859</ele>
        <time>2017-09-17T10:23:35Z</time>
      </trkpt>
      <trkpt lat="43.99403" lon="7.42379">
        <ele>1859</ele>
        <time>2017-09-17T10:23:36Z</time>
      </trkpt>
      <trkpt lat="43.99404" lon="7.42391">
        <ele>1859</ele>
        <time>2017-09-17T10:23:37Z</time>
      </trkpt>
      <trkpt lat="43.99403" lon="7.42403">
        <ele>1859</ele>
        <time>2017-09-17T10:23:38Z</time>
      </trkpt>
      <trkpt lat="43.99404" lon="7.42415">
        <ele>1859</ele>
        <time>2017-09-17T10:23:39Z</time>
      </trkpt>
      <trkpt lat="43.99406" lon="7.42427">
        <ele>1858</ele>
        <time>2017-09-17T10:23:40Z</time>
      </trkpt>
      <trkpt lat="43.99411" lon="7.42437">
        <ele>1858</ele>
        <time>2017-09-17T10:23:41Z</time>
      </trkpt>
      <trkpt lat="43.99415" lon="7.42447">
        <ele>1858</ele>
        <time>2017-09-17T10:23:42Z</time>
      </trkpt>
      <trkpt lat="43.99415" lon="7.42459">
        <ele>1858</ele>
        <time>2017-09-17T10:23:43Z</time>
      </trkpt>
      <trkpt lat="43.99413" lon="7.42471">
        <ele>1858</ele>
        <time>2017-09-17T10:23:44Z</time>
      </trkpt>
      <trkpt lat="43.99411" lon="7.42482">
        <ele>1858</ele>
        <time>2017-09-17T10:23:45Z</time>
      </trkpt>
      <trkpt lat="43.99408" lon="7.42494">
        <ele>1857</ele>
        <time>2017-09-17T10:23:46Z</time>
      </trkpt>
      <trkpt lat="43.99404" lon="7.42505">
        <ele>1857</ele>
        <time>2017-09-17T10:23:47Z</time>
      </trkpt>
      <trkpt lat="43.99398" lon="7.42512">
        <ele>1857</ele>
        <time>2017-09-17T10:23:48Z</time>
      </trkpt>
      <trkpt lat="43.99391" lon="7.42518">
        <ele>1857</ele>
        <time>2017-09-17T10:23:49Z</time>
      </trkpt>
      <trkpt lat="43.99383" lon="7.42523">
        <ele>1857</ele>
        <time>2017-09-17T10:23:50Z</time>
      </trkpt>
      <trkpt lat="43.99376" lon="7.4253">
        <ele>1857</ele>
        <time>2017-09-17T10:23:51Z</time>
      </trkpt>
      <trkpt lat="43.99369" lon="7.42538">
        <ele>1857</ele>
        <time>2017-09-17T10:23:52Z</time>
      </trkpt>
      <trkpt lat="43.99363" lon="7.42546">
        <ele>1857</ele>
        <time>2017-09-17T10:23:53Z</time>
      </trkpt>
      <trkpt lat="43.99357" lon="7.42555">
        <ele>1856</ele>
        <time>2017-09-17T10:23:54Z</time>
      </trkpt>
      <trkpt lat="43.99352" lon="7.42564">
        <ele>1856</ele>
        <time>2017-09-17T10:23:55Z</time>
      </trkpt>
      <trkpt lat="43.99348" lon="7.42575">
        <ele>1856</ele>
        <time>2017-09-17T10:23:56Z</time>
      </trkpt>
      <trkpt lat="43.99344" lon="7.42586">
        <ele>1855</ele>
        <time>2017-09-17T10:23:57Z</time>
      </trkpt>
      <trkpt lat="43.99342" lon="7.42597">
        <ele>1855</ele>
        <time>2017-09-17T10:23:58Z</time>
      </trkpt>
      <trkpt lat="43.99341" lon="7.42609">
        <ele>1854</ele>
        <time>2017-09-17T10:23:59Z</time>
      </trkpt>
      <trkpt lat="43.9934" lon="7.4262">
        <ele>1854</ele>
        <time>2017-09-17T10:24:00Z</time>
      </trkpt>
      <trkpt lat="43.99339" lon="7.42632">
        <ele>1853</ele>
        <time>2017-09-17T10:24:01Z</time>
      </trkpt>
      <trkpt lat="43.99338" lon="7.42643">
        <ele>1853</ele>
        <time>2017-09-17T10:24:02Z</time>
      </trkpt>
      <trkpt lat="43.99335" lon="7.42654">
        <ele>1852</ele>
        <time>2017-09-17T10:24:03Z</time>
      </trkpt>
      <trkpt lat="43.99329" lon="7.42663">
        <ele>1852</ele>
        <time>2017-09-17T10:24:04Z</time>
      </trkpt>
      <trkpt lat="43.99322" lon="7.42667">
        <ele>1851</ele>
        <time>2017-09-17T10:24:05Z</time>
      </trkpt>
      <trkpt lat="43.99313" lon="7.42667">
        <ele>1851</ele>
        <time>2017-09-17T10:24:06Z</time>
      </trkpt>
      <trkpt lat="43.99305" lon="7.42664">
        <ele>1851</ele>
        <time>2017-09-17T10:24:07Z</time>
      </trkpt>
      <trkpt lat="43.99298" lon="7.42659">
        <ele>1850</ele>
        <time>2017-09-17T10:24:08Z</time>
      </trkpt>
      <trkpt lat="43.9929" lon="7.42653">
        <ele>1850</ele>
        <time>2017-09-17T10:24:09Z</time>
      </trkpt>
      <trkpt lat="43.99282" lon="7.42649">
        <ele>1850</ele>
        <time>2017-09-17T10:24:10Z</time>
      </trkpt>
      <trkpt lat="43.99274" lon="7.42646">
        <ele>1849</ele>
        <time>2017-09-17T10:24:11Z</time>
      </trkpt>
      <trkpt lat="43.99265" lon="7.42646">
        <ele>1849</ele>
        <time>2017-09-17T10:24:12Z</time>
      </trkpt>
      <trkpt lat="43.99255" lon="7.42647">
        <ele>1849</ele>
        <time>2017-09-17T10:24:13Z</time>
      </trkpt>
      <trkpt lat="43.99246" lon="7.42649">
        <ele>1849</ele>
        <time>2017-09-17T10:24:14Z</time>
      </trkpt>
      <trkpt lat="43.99237" lon="7.4265">
        <ele>1848</ele>
        <time>2017-09-17T10:24:15Z</time>
      </trkpt>
      <trkpt lat="43.99228" lon="7.42649">
        <ele>1848</ele>
        <time>2017-09-17T10:24:16Z</time>
      </trkpt>
      <trkpt lat="43.99219" lon="7.42648">
        <ele>1848</ele>
        <time>2017-09-17T10:24:17Z</time>
      </trkpt>
      <trkpt lat="43.9921" lon="7.42645">
        <ele>1847</ele>
        <time>2017-09-17T10:24:18Z</time>
      </trkpt>
      <trkpt lat="43.99201" lon="7.42643">
        <ele>1847</ele>
        <time>2017-09-17T10:24:19Z</time>
      </trkpt>
      <trkpt lat="43.99192" lon="7.4264">
        <ele>1846</ele>
        <time>2017-09-17T10:24:20Z</time>
      </trkpt>
      <trkpt lat="43.99184" lon="7.42637">
        <ele>1846</ele>
        <time>2017-09-17T10:24:21Z</time>
      </trkpt>
      <trkpt lat="43.99175" lon="7.42636">
        <ele>1846</ele>
        <time>2017-09-17T10:24:22Z</time>
      </trkpt>
      <trkpt lat="43.99167" lon="7.42636">
        <ele>1846</ele>
        <time>2017-09-17T10:24:23Z</time>
      </trkpt>
      <trkpt lat="43.99159" lon="7.42639">
        <ele>1845</ele>
        <time>2017-09-17T10:24:24Z</time>
      </trkpt>
      <trkpt lat="43.99152" lon="7.42644">
        <ele>1845</ele>
        <time>2017-09-17T10:24:25Z</time>
      </trkpt>
      <trkpt lat="43.99145" lon="7.4265">
        <ele>1845</ele>
        <time>2017-09-17T10:24:26Z</time>
      </trkpt>
      <trkpt lat="43.99138" lon="7.42656">
        <ele>1844</ele>
        <time>2017-09-17T10:24:27Z</time>
      </trkpt>
      <trkpt lat="43.9913" lon="7.42661">
        <ele>1844</ele>
        <time>2017-09-17T10:24:28Z</time>
      </trkpt>
      <trkpt lat="43.99122" lon="7.42667">
        <ele>1843</ele>
        <time>2017-09-17T10:24:29Z</time>
      </trkpt>
      <trkpt lat="43.99114" lon="7.42672">
        <ele>1843</ele>
        <time>2017-09-17T10:24:30Z</time>
      </trkpt>
      <trkpt lat="43.99106" lon="7.42676">
        <ele>1842</ele>
        <time>2017-09-17T10:24:31Z</time>
      </trkpt>
      <trkpt lat="43.99097" lon="7.42679">
        <ele>1841</ele>
        <time>2017-09-17T10:24:32Z</time>
      </trkpt>
      <trkpt lat="43.99088" lon="7.42682">
        <ele>1841</ele>
        <time>2017-09-17T10:24:33Z</time>
      </trkpt>
      <trkpt lat="43.9908" lon="7.42685">
        <ele>1840</ele>
        <time>2017-09-17T10:24:34Z</time>
      </trkpt>
      <trkpt lat="43.9907" lon="7.42687">
        <ele>1840</ele>
        <time>2017-09-17T10:24:35Z</time>
      </trkpt>
      <trkpt lat="43.99061" lon="7.42689">
        <ele>1839</ele>
        <time>2017-09-17T10:24:36Z</time>
      </trkpt>
      <trkpt lat="43.99052" lon="7.42692">
        <ele>1839</ele>
        <time>2017-09-17T10:24:37Z</time>
      </trkpt>
      <trkpt lat="43.99043" lon="7.42696">
        <ele>1838</ele>
        <time>2017-09-17T10:24:38Z</time>
      </trkpt>
      <trkpt lat="43.99034" lon="7.42702">
        <ele>1837</ele>
        <time>2017-09-17T10:24:39Z</time>
      </trkpt>
      <trkpt lat="43.99027" lon="7.4271">
        <ele>1837</ele>
        <time>2017-09-17T10:24:40Z</time>
      </trkpt>
      <trkpt lat="43.9902" lon="7.4272">
        <ele>1836</ele>
        <time>2017-09-17T10:24:41Z</time>
      </trkpt>
      <trkpt lat="43.99015" lon="7.42732">
        <ele>1836</ele>
        <time>2017-09-17T10:24:42Z</time>
      </trkpt>
      <trkpt lat="43.99011" lon="7.42744">
        <ele>1835</ele>
        <time>2017-09-17T10:24:43Z</time>
      </trkpt>
      <trkpt lat="43.99011" lon="7.42758">
        <ele>1835</ele>
        <time>2017-09-17T10:24:44Z</time>
      </trkpt>
      <trkpt lat="43.99014" lon="7.4277">
        <ele>1835</ele>
        <time>2017-09-17T10:24:45Z</time>
      </trkpt>
      <trkpt lat="43.99019" lon="7.42781">
        <ele>1835</ele>
        <time>2017-09-17T10:24:46Z</time>
      </trkpt>
      <trkpt lat="43.99025" lon="7.42791">
        <ele>1835</ele>
        <time>2017-09-17T10:24:47Z</time>
      </trkpt>
      <trkpt lat="43.9903" lon="7.42801">
        <ele>1834</ele>
        <time>2017-09-17T10:24:48Z</time>
      </trkpt>
      <trkpt lat="43.99034" lon="7.4281">
        <ele>1834</ele>
        <time>2017-09-17T10:24:49Z</time>
      </trkpt>
      <trkpt lat="43.99037" lon="7.42818">
        <ele>1834</ele>
        <time>2017-09-17T10:24:50Z</time>
      </trkpt>
      <trkpt lat="43.99041" lon="7.42826">
        <ele>1833</ele>
        <time>2017-09-17T10:24:51Z</time>
      </trkpt>
      <trkpt lat="43.99045" lon="7.42832">
        <ele>1833</ele>
        <time>2017-09-17T10:24:52Z</time>
      </trkpt>
      <trkpt lat="43.99049" lon="7.42838">
        <ele>1833</ele>
        <time>2017-09-17T10:24:53Z</time>
      </trkpt>
      <trkpt lat="43.99053" lon="7.42843">
        <ele>1833</ele>
        <time>2017-09-17T10:24:54Z</time>
      </trkpt>
      <trkpt lat="43.99058" lon="7.42847">
        <ele>1833</ele>
        <time>2017-09-17T10:24:55Z</time>
      </trkpt>
      <trkpt lat="43.99063" lon="7.42851">
        <ele>1832</ele>
        <time>2017-09-17T10:24:56Z</time>
      </trkpt>
      <trkpt lat="43.99068" lon="7.42855">
        <ele>1832</ele>
        <time>2017-09-17T10:24:57Z</time>
      </trkpt>
      <trkpt lat="43.99073" lon="7.42858">
        <ele>1832</ele>
        <time>2017-09-17T10:24:58Z</time>
      </trkpt>
      <trkpt lat="43.99077" lon="7.42861">
        <ele>1832</ele>
        <time>2017-09-17T10:24:59Z</time>
      </trkpt>
      <trkpt lat="43.99081" lon="7.42865">
        <ele>1832</ele>
        <time>2017-09-17T10:25:00Z</time>
      </trkpt>
      <trkpt lat="43.99084" lon="7.4287">
        <ele>1832</ele>
        <time>2017-09-17T10:25:01Z</time>
      </trkpt>
      <trkpt lat="43.99086" lon="7.42875">
        <ele>1832</ele>
        <time>2017-09-17T10:25:02Z</time>
      </trkpt>
      <trkpt lat="43.99087" lon="7.42881">
        <ele>1832</ele>
        <time>2017-09-17T10:25:03Z</time>
      </trkpt>
      <trkpt lat="43.99086" lon="7.42888">
        <ele>1831</ele>
        <time>2017-09-17T10:25:04Z</time>
      </trkpt>
      <trkpt lat="43.99083" lon="7.42894">
        <ele>1831</ele>
        <time>2017-09-17T10:25:05Z</time>
      </trkpt>
      <trkpt lat="43.99078" lon="7.42898">
        <ele>1831</ele>
        <time>2017-09-17T10:25:06Z</time>
      </trkpt>
      <trkpt lat="43.99072" lon="7.42901">
        <ele>1831</ele>
        <time>2017-09-17T10:25:07Z</time>
      </trkpt>
      <trkpt lat="43.99065" lon="7.42903">
        <ele>1831</ele>
        <time>2017-09-17T10:25:08Z</time>
      </trkpt>
      <trkpt lat="43.99059" lon="7.42906">
        <ele>1831</ele>
        <time>2017-09-17T10:25:09Z</time>
      </trkpt>
      <trkpt lat="43.99052" lon="7.4291">
        <ele>1831</ele>
        <time>2017-09-17T10:25:10Z</time>
      </trkpt>
      <trkpt lat="43.99045" lon="7.42914">
        <ele>1831</ele>
        <time>2017-09-17T10:25:11Z</time>
      </trkpt>
      <trkpt lat="43.99038" lon="7.42917">
        <ele>1831</ele>
        <time>2017-09-17T10:25:12Z</time>
      </trkpt>
      <trkpt lat="43.9903" lon="7.42921">
        <ele>1830</ele>
        <time>2017-09-17T10:25:13Z</time>
      </trkpt>
      <trkpt lat="43.99023" lon="7.42926">
        <ele>1830</ele>
        <time>2017-09-17T10:25:14Z</time>
      </trkpt>
      <trkpt lat="43.99016" lon="7.42932">
        <ele>1830</ele>
        <time>2017-09-17T10:25:15Z</time>
      </trkpt>
      <trkpt lat="43.99008" lon="7.42937">
        <ele>1830</ele>
        <time>2017-09-17T10:25:16Z</time>
      </trkpt>
      <trkpt lat="43.99001" lon="7.42943">
        <ele>1830</ele>
        <time>2017-09-17T10:25:17Z</time>
      </trkpt>
      <trkpt lat="43.98994" lon="7.42949">
        <ele>1830</ele>
        <time>2017-09-17T10:25:18Z</time>
      </trkpt>
      <trkpt lat="43.98987" lon="7.42956">
        <ele>1830</ele>
        <time>2017-09-17T10:25:19Z</time>
      </trkpt>
      <trkpt lat="43.9898" lon="7.42962">
        <ele>1830</ele>
        <time>2017-09-17T10:25:20Z</time>
      </trkpt>
      <trkpt lat="43.98973" lon="7.42968">
        <ele>1829</ele>
        <time>2017-09-17T10:25:21Z</time>
      </trkpt>
      <trkpt lat="43.98965" lon="7.42974">
        <ele>1829</ele>
        <time>2017-09-17T10:25:22Z</time>
      </trkpt>
      <trkpt lat="43.98958" lon="7.42981">
        <ele>1829</ele>
        <time>2017-09-17T10:25:23Z</time>
      </trkpt>
      <trkpt lat="43.98952" lon="7.42989">
        <ele>1828</ele>
        <time>2017-09-17T10:25:24Z</time>
      </trkpt>
      <trkpt lat="43.98946" lon="7.42998">
        <ele>1828</ele>
        <time>2017-09-17T10:25:25Z</time>
      </trkpt>
      <trkpt lat="43.9894" lon="7.43008">
        <ele>1827</ele>
        <time>2017-09-17T10:25:26Z</time>
      </trkpt>
      <trkpt lat="43.98934" lon="7.43017">
        <ele>1826</ele>
        <time>2017-09-17T10:25:27Z</time>
      </trkpt>
      <trkpt lat="43.98928" lon="7.43026">
        <ele>1826</ele>
        <time>2017-09-17T10:25:28Z</time>
      </trkpt>
      <trkpt lat="43.9892" lon="7.43032">
        <ele>1825</ele>
        <time>2017-09-17T10:25:29Z</time>
      </trkpt>
      <trkpt lat="43.98911" lon="7.43035">
        <ele>1824</ele>
        <time>2017-09-17T10:25:30Z</time>
      </trkpt>
      <trkpt lat="43.98902" lon="7.43038">
        <ele>1824</ele>
        <time>2017-09-17T10:25:31Z</time>
      </trkpt>
      <trkpt lat="43.98893" lon="7.43039">
        <ele>1823</ele>
        <time>2017-09-17T10:25:32Z</time>
      </trkpt>
      <trkpt lat="43.98884" lon="7.4304">
        <ele>1823</ele>
        <time>2017-09-17T10:25:33Z</time>
      </trkpt>
      <trkpt lat="43.98875" lon="7.43041">
        <ele>1823</ele>
        <time>2017-09-17T10:25:34Z</time>
      </trkpt>
      <trkpt lat="43.98865" lon="7.43041">
        <ele>1822</ele>
        <time>2017-09-17T10:25:35Z</time>
      </trkpt>
      <trkpt lat="43.98856" lon="7.43041">
        <ele>1822</ele>
        <time>2017-09-17T10:25:36Z</time>
      </trkpt>
      <trkpt lat="43.98847" lon="7.43041">
        <ele>1822</ele>
        <time>2017-09-17T10:25:37Z</time>
      </trkpt>
      <trkpt lat="43.98839" lon="7.43041">
        <ele>1822</ele>
        <time>2017-09-17T10:25:38Z</time>
      </trkpt>
      <trkpt lat="43.9883" lon="7.4304">
        <ele>1822</ele>
        <time>2017-09-17T10:25:39Z</time>
      </trkpt>
      <trkpt lat="43.98821" lon="7.43039">
        <ele>1821</ele>
        <time>2017-09-17T10:25:40Z</time>
      </trkpt>
      <trkpt lat="43.98812" lon="7.43038">
        <ele>1821</ele>
        <time>2017-09-17T10:25:41Z</time>
      </trkpt>
      <trkpt lat="43.98803" lon="7.43037">
        <ele>1821</ele>
        <time>2017-09-17T10:25:42Z</time>
      </trkpt>
      <trkpt lat="43.98794" lon="7.43035">
        <ele>1820</ele>
        <time>2017-09-17T10:25:43Z</time>
      </trkpt>
      <trkpt lat="43.98786" lon="7.43035">
        <ele>1820</ele>
        <time>2017-09-17T10:25:44Z</time>
      </trkpt>
      <trkpt lat="43.98778" lon="7.43035">
        <ele>1820</ele>
        <time>2017-09-17T10:25:45Z</time>
      </trkpt>
      <trkpt lat="43.9877" lon="7.43036">
        <ele>1819</ele>
        <time>2017-09-17T10:25:46Z</time>
      </trkpt>
      <trkpt lat="43.98764" lon="7.43039">
        <ele>1819</ele>
        <time>2017-09-17T10:25:47Z</time>
      </trkpt>
      <trkpt lat="43.98759" lon="7.43044">
        <ele>1819</ele>
        <time>2017-09-17T10:25:48Z</time>
      </trkpt>
      <trkpt lat="43.98756" lon="7.43052">
        <ele>1818</ele>
        <time>2017-09-17T10:25:49Z</time>
      </trkpt>
      <trkpt lat="43.98754" lon="7.4306">
        <ele>1818</ele>
        <time>2017-09-17T10:25:50Z</time>
      </trkpt>
      <trkpt lat="43.98752" lon="7.4307">
        <ele>1818</ele>
        <time>2017-09-17T10:25:51Z</time>
      </trkpt>
      <trkpt lat="43.98751" lon="7.43079">
        <ele>1817</ele>
        <time>2017-09-17T10:25:52Z</time>
      </trkpt>
      <trkpt lat="43.98752" lon="7.4309">
        <ele>1817</ele>
        <time>2017-09-17T10:25:53Z</time>
      </trkpt>
      <trkpt lat="43.98753" lon="7.431">
        <ele>1816</ele>
        <time>2017-09-17T10:25:54Z</time>
      </trkpt>
      <trkpt lat="43.98753" lon="7.43111">
        <ele>1816</ele>
        <time>2017-09-17T10:25:55Z</time>
      </trkpt>
      <trkpt lat="43.98753" lon="7.43121">
        <ele>1815</ele>
        <time>2017-09-17T10:25:56Z</time>
      </trkpt>
      <trkpt lat="43.98751" lon="7.43132">
        <ele>1815</ele>
        <time>2017-09-17T10:25:57Z</time>
      </trkpt>
      <trkpt lat="43.9875" lon="7.43144">
        <ele>1814</ele>
        <time>2017-09-17T10:25:58Z</time>
      </trkpt>
      <trkpt lat="43.98749" lon="7.43155">
        <ele>1814</ele>
        <time>2017-09-17T10:25:59Z</time>
      </trkpt>
      <trkpt lat="43.98749" lon="7.43167">
        <ele>1813</ele>
        <time>2017-09-17T10:26:00Z</time>
      </trkpt>
      <trkpt lat="43.98751" lon="7.43178">
        <ele>1813</ele>
        <time>2017-09-17T10:26:01Z</time>
      </trkpt>
      <trkpt lat="43.98753" lon="7.4319">
        <ele>1813</ele>
        <time>2017-09-17T10:26:02Z</time>
      </trkpt>
      <trkpt lat="43.98756" lon="7.43201">
        <ele>1812</ele>
        <time>2017-09-17T10:26:03Z</time>
      </trkpt>
      <trkpt lat="43.98758" lon="7.43212">
        <ele>1812</ele>
        <time>2017-09-17T10:26:04Z</time>
      </trkpt>
      <trkpt lat="43.98761" lon="7.43223">
        <ele>1811</ele>
        <time>2017-09-17T10:26:05Z</time>
      </trkpt>
      <trkpt lat="43.98762" lon="7.43235">
        <ele>1811</ele>
        <time>2017-09-17T10:26:06Z</time>
      </trkpt>
      <trkpt lat="43.98763" lon="7.43247">
        <ele>1810</ele>
        <time>2017-09-17T10:26:07Z</time>
      </trkpt>
      <trkpt lat="43.98763" lon="7.43258">
        <ele>1810</ele>
        <time>2017-09-17T10:26:08Z</time>
      </trkpt>
      <trkpt lat="43.98763" lon="7.4327">
        <ele>1809</ele>
        <time>2017-09-17T10:26:09Z</time>
      </trkpt>
      <trkpt lat="43.98761" lon="7.43282">
        <ele>1808</ele>
        <time>2017-09-17T10:26:10Z</time>
      </trkpt>
      <trkpt lat="43.98758" lon="7.43293">
        <ele>1808</ele>
        <time>2017-09-17T10:26:11Z</time>
      </trkpt>
      <trkpt lat="43.98754" lon="7.43303">
        <ele>1808</ele>
        <time>2017-09-17T10:26:12Z</time>
      </trkpt>
      <trkpt lat="43.9875" lon="7.43313">
        <ele>1808</ele>
        <time>2017-09-17T10:26:13Z</time>
      </trkpt>
      <trkpt lat="43.98745" lon="7.43322">
        <ele>1807</ele>
        <time>2017-09-17T10:26:14Z</time>
      </trkpt>
      <trkpt lat="43.9874" lon="7.4333">
        <ele>1807</ele>
        <time>2017-09-17T10:26:15Z</time>
      </trkpt>
      <trkpt lat="43.98734" lon="7.43338">
        <ele>1806</ele>
        <time>2017-09-17T10:26:16Z</time>
      </trkpt>
      <trkpt lat="43.9873" lon="7.43347">
        <ele>1806</ele>
        <time>2017-09-17T10:26:17Z</time>
      </trkpt>
      <trkpt lat="43.98726" lon="7.43358">
        <ele>1806</ele>
        <time>2017-09-17T10:26:18Z</time>
      </trkpt>
      <trkpt lat="43.98722" lon="7.43368">
        <ele>1805</ele>
        <time>2017-09-17T10:26:19Z</time>
      </trkpt>
      <trkpt lat="43.98718" lon="7.43377">
        <ele>1805</ele>
        <time>2017-09-17T10:26:20Z</time>
      </trkpt>
      <trkpt lat="43.98712" lon="7.43385">
        <ele>1804</ele>
        <time>2017-09-17T10:26:21Z</time>
      </trkpt>
      <trkpt lat="43.98705" lon="7.4339">
        <ele>1804</ele>
        <time>2017-09-17T10:26:22Z</time>
      </trkpt>
      <trkpt lat="43.98697" lon="7.43394">
        <ele>1804</ele>
        <time>2017-09-17T10:26:23Z</time>
      </trkpt>
      <trkpt lat="43.9869" lon="7.43399">
        <ele>1803</ele>
        <time>2017-09-17T10:26:24Z</time>
      </trkpt>
      <trkpt lat="43.98683" lon="7.43405">
        <ele>1803</ele>
        <time>2017-09-17T10:26:25Z</time>
      </trkpt>
      <trkpt lat="43.98676" lon="7.43412">
        <ele>1803</ele>
        <time>2017-09-17T10:26:26Z</time>
      </trkpt>
      <trkpt lat="43.98668" lon="7.43418">
        <ele>1802</ele>
        <time>2017-09-17T10:26:27Z</time>
      </trkpt>
      <trkpt lat="43.98661" lon="7.43424">
        <ele>1802</ele>
        <time>2017-09-17T10:26:28Z</time>
      </trkpt>
      <trkpt lat="43.98654" lon="7.4343">
        <ele>1802</ele>
        <time>2017-09-17T10:26:29Z</time>
      </trkpt>
      <trkpt lat="43.98647" lon="7.43436">
        <ele>1802</ele>
        <time>2017-09-17T10:26:30Z</time>
      </trkpt>
      <trkpt lat="43.9864" lon="7.43442">
        <ele>1802</ele>
        <time>2017-09-17T10:26:31Z</time>
      </trkpt>
      <trkpt lat="43.98632" lon="7.43448">
        <ele>1801</ele>
        <time>2017-09-17T10:26:32Z</time>
      </trkpt>
      <trkpt lat="43.98625" lon="7.43454">
        <ele>1801</ele>
        <time>2017-09-17T10:26:33Z</time>
      </trkpt>
      <trkpt lat="43.98617" lon="7.4346">
        <ele>1801</ele>
        <time>2017-09-17T10:26:34Z</time>
      </trkpt>
      <trkpt lat="43.9861" lon="7.43466">
        <ele>1801</ele>
        <time>2017-09-17T10:26:35Z</time>
      </trkpt>
      <trkpt lat="43.98604" lon="7.43474">
        <ele>1801</ele>
        <time>2017-09-17T10:26:36Z</time>
      </trkpt>
      <trkpt lat="43.98597" lon="7.43482">
        <ele>1801</ele>
        <time>2017-09-17T10:26:37Z</time>
      </trkpt>
      <trkpt lat="43.98591" lon="7.43491">
        <ele>1801</ele>
        <time>2017-09-17T10:26:38Z</time>
      </trkpt>
      <trkpt lat="43.98584" lon="7.43498">
        <ele>1801</ele>
        <time>2017-09-17T10:26:39Z</time>
      </trkpt>
      <trkpt lat="43.98576" lon="7.43504">
        <ele>1800</ele>
        <time>2017-09-17T10:26:40Z</time>
      </trkpt>
      <trkpt lat="43.98568" lon="7.4351">
        <ele>1800</ele>
        <time>2017-09-17T10:26:41Z</time>
      </trkpt>
      <trkpt lat="43.9856" lon="7.43516">
        <ele>1799</ele>
        <time>2017-09-17T10:26:42Z</time>
      </trkpt>
      <trkpt lat="43.98553" lon="7.43524">
        <ele>1799</ele>
        <time>2017-09-17T10:26:43Z</time>
      </trkpt>
      <trkpt lat="43.98545" lon="7.43532">
        <ele>1799</ele>
        <time>2017-09-17T10:26:44Z</time>
      </trkpt>
      <trkpt lat="43.98538" lon="7.4354">
        <ele>1798</ele>
        <time>2017-09-17T10:26:45Z</time>
      </trkpt>
      <trkpt lat="43.98531" lon="7.43548">
        <ele>1798</ele>
        <time>2017-09-17T10:26:46Z</time>
      </trkpt>
      <trkpt lat="43.98524" lon="7.43557">
        <ele>1798</ele>
        <time>2017-09-17T10:26:47Z</time>
      </trkpt>
      <trkpt lat="43.98518" lon="7.43566">
        <ele>1797</ele>
        <time>2017-09-17T10:26:48Z</time>
      </trkpt>
      <trkpt lat="43.98512" lon="7.43574">
        <ele>1797</ele>
        <time>2017-09-17T10:26:49Z</time>
      </trkpt>
      <trkpt lat="43.98504" lon="7.4358">
        <ele>1797</ele>
        <time>2017-09-17T10:26:50Z</time>
      </trkpt>
      <trkpt lat="43.98495" lon="7.43585">
        <ele>1796</ele>
        <time>2017-09-17T10:26:51Z</time>
      </trkpt>
      <trkpt lat="43.98487" lon="7.4359">
        <ele>1796</ele>
        <time>2017-09-17T10:26:52Z</time>
      </trkpt>
      <trkpt lat="43.98479" lon="7.43597">
        <ele>1796</ele>
        <time>2017-09-17T10:26:53Z</time>
      </trkpt>
      <trkpt lat="43.98472" lon="7.43605">
        <ele>1796</ele>
        <time>2017-09-17T10:26:54Z</time>
      </trkpt>
      <trkpt lat="43.98466" lon="7.43615">
        <ele>1795</ele>
        <time>2017-09-17T10:26:55Z</time>
      </trkpt>
      <trkpt lat="43.98461" lon="7.43625">
        <ele>1795</ele>
        <time>2017-09-17T10:26:56Z</time>
      </trkpt>
      <trkpt lat="43.98456" lon="7.43636">
        <ele>1795</ele>
        <time>2017-09-17T10:26:57Z</time>
      </trkpt>
      <trkpt lat="43.98451" lon="7.43646">
        <ele>1794</ele>
        <time>2017-09-17T10:26:58Z</time>
      </trkpt>
      <trkpt lat="43.98443" lon="7.43653">
        <ele>1794</ele>
        <time>2017-09-17T10:26:59Z</time>
      </trkpt>
      <trkpt lat="43.98435" lon="7.43659">
        <ele>1793</ele>
        <time>2017-09-17T10:27:00Z</time>
      </trkpt>
      <trkpt lat="43.98427" lon="7.43665">
        <ele>1793</ele>
        <time>2017-09-17T10:27:01Z</time>
      </trkpt>
      <trkpt lat="43.98419" lon="7.43672">
        <ele>1792</ele>
        <time>2017-09-17T10:27:02Z</time>
      </trkpt>
      <trkpt lat="43.98412" lon="7.43679">
        <ele>1791</ele>
        <time>2017-09-17T10:27:03Z</time>
      </trkpt>
      <trkpt lat="43.98405" lon="7.43689">
        <ele>1791</ele>
        <time>2017-09-17T10:27:04Z</time>
      </trkpt>
      <trkpt lat="43.98399" lon="7.43699">
        <ele>1790</ele>
        <time>2017-09-17T10:27:05Z</time>
      </trkpt>
      <trkpt lat="43.98393" lon="7.4371">
        <ele>1789</ele>
        <time>2017-09-17T10:27:06Z</time>
      </trkpt>
      <trkpt lat="43.98387" lon="7.43721">
        <ele>1788</ele>
        <time>2017-09-17T10:27:07Z</time>
      </trkpt>
      <trkpt lat="43.98381" lon="7.43732">
        <ele>1788</ele>
        <time>2017-09-17T10:27:08Z</time>
      </trkpt>
      <trkpt lat="43.98374" lon="7.43742">
        <ele>1787</ele>
        <time>2017-09-17T10:27:09Z</time>
      </trkpt>
      <trkpt lat="43.98368" lon="7.43752">
        <ele>1786</ele>
        <time>2017-09-17T10:27:10Z</time>
      </trkpt>
      <trkpt lat="43.98363" lon="7.43761">
        <ele>1786</ele>
        <time>2017-09-17T10:27:11Z</time>
      </trkpt>
      <trkpt lat="43.98359" lon="7.4377">
        <ele>1785</ele>
        <time>2017-09-17T10:27:12Z</time>
      </trkpt>
      <trkpt lat="43.98359" lon="7.4378">
        <ele>1785</ele>
        <time>2017-09-17T10:27:13Z</time>
      </trkpt>
      <trkpt lat="43.98361" lon="7.4379">
        <ele>1785</ele>
        <time>2017-09-17T10:27:14Z</time>
      </trkpt>
      <trkpt lat="43.98365" lon="7.43798">
        <ele>1784</ele>
        <time>2017-09-17T10:27:15Z</time>
      </trkpt>
      <trkpt lat="43.9837" lon="7.43804">
        <ele>1784</ele>
        <time>2017-09-17T10:27:16Z</time>
      </trkpt>
      <trkpt lat="43.98375" lon="7.43811">
        <ele>1784</ele>
        <time>2017-09-17T10:27:17Z</time>
      </trkpt>
      <trkpt lat="43.98381" lon="7.43817">
        <ele>1784</ele>
        <time>2017-09-17T10:27:18Z</time>
      </trkpt>
      <trkpt lat="43.98387" lon="7.43823">
        <ele>1784</ele>
        <time>2017-09-17T10:27:19Z</time>
      </trkpt>
      <trkpt lat="43.98392" lon="7.4383">
        <ele>1784</ele>
        <time>2017-09-17T10:27:20Z</time>
      </trkpt>
      <trkpt lat="43.98398" lon="7.43838">
        <ele>1784</ele>
        <time>2017-09-17T10:27:21Z</time>
      </trkpt>
      <trkpt lat="43.98402" lon="7.43847">
        <ele>1784</ele>
        <time>2017-09-17T10:27:22Z</time>
      </trkpt>
      <trkpt lat="43.98406" lon="7.43856">
        <ele>1784</ele>
        <time>2017-09-17T10:27:23Z</time>
      </trkpt>
      <trkpt lat="43.98409" lon="7.43866">
        <ele>1783</ele>
        <time>2017-09-17T10:27:24Z</time>
      </trkpt>
      <trkpt lat="43.98412" lon="7.43875">
        <ele>1783</ele>
        <time>2017-09-17T10:27:25Z</time>
      </trkpt>
      <trkpt lat="43.98418" lon="7.43883">
        <ele>1783</ele>
        <time>2017-09-17T10:27:26Z</time>
      </trkpt>
      <trkpt lat="43.98424" lon="7.43888">
        <ele>1783</ele>
        <time>2017-09-17T10:27:27Z</time>
      </trkpt>
      <trkpt lat="43.98431" lon="7.43891">
        <ele>1783</ele>
        <time>2017-09-17T10:27:28Z</time>
      </trkpt>
      <trkpt lat="43.98438" lon="7.43894">
        <ele>1783</ele>
        <time>2017-09-17T10:27:29Z</time>
      </trkpt>
      <trkpt lat="43.98446" lon="7.43896">
        <ele>1783</ele>
        <time>2017-09-17T10:27:30Z</time>
      </trkpt>
      <trkpt lat="43.98453" lon="7.439">
        <ele>1783</ele>
        <time>2017-09-17T10:27:31Z</time>
      </trkpt>
      <trkpt lat="43.9846" lon="7.43903">
        <ele>1782</ele>
        <time>2017-09-17T10:27:32Z</time>
      </trkpt>
      <trkpt lat="43.98467" lon="7.43907">
        <ele>1782</ele>
        <time>2017-09-17T10:27:33Z</time>
      </trkpt>
      <trkpt lat="43.98475" lon="7.43909">
        <ele>1782</ele>
        <time>2017-09-17T10:27:34Z</time>
      </trkpt>
      <trkpt lat="43.98482" lon="7.43912">
        <ele>1782</ele>
        <time>2017-09-17T10:27:35Z</time>
      </trkpt>
      <trkpt lat="43.98489" lon="7.43914">
        <ele>1782</ele>
        <time>2017-09-17T10:27:36Z</time>
      </trkpt>
      <trkpt lat="43.98497" lon="7.43916">
        <ele>1782</ele>
        <time>2017-09-17T10:27:37Z</time>
      </trkpt>
      <trkpt lat="43.98505" lon="7.4392">
        <ele>1781</ele>
        <time>2017-09-17T10:27:38Z</time>
      </trkpt>
      <trkpt lat="43.98512" lon="7.43924">
        <ele>1781</ele>
        <time>2017-09-17T10:27:39Z</time>
      </trkpt>
      <trkpt lat="43.98519" lon="7.43929">
        <ele>1781</ele>
        <time>2017-09-17T10:27:40Z</time>
      </trkpt>
      <trkpt lat="43.98526" lon="7.43935">
        <ele>1781</ele>
        <time>2017-09-17T10:27:41Z</time>
      </trkpt>
      <trkpt lat="43.98532" lon="7.4394">
        <ele>1781</ele>
        <time>2017-09-17T10:27:42Z</time>
      </trkpt>
      <trkpt lat="43.98539" lon="7.43946">
        <ele>1780</ele>
        <time>2017-09-17T10:27:43Z</time>
      </trkpt>
      <trkpt lat="43.98545" lon="7.43953">
        <ele>1780</ele>
        <time>2017-09-17T10:27:44Z</time>
      </trkpt>
      <trkpt lat="43.9855" lon="7.4396">
        <ele>1780</ele>
        <time>2017-09-17T10:27:45Z</time>
      </trkpt>
      <trkpt lat="43.98556" lon="7.43967">
        <ele>1780</ele>
        <time>2017-09-17T10:27:46Z</time>
      </trkpt>
      <trkpt lat="43.98562" lon="7.43974">
        <ele>1780</ele>
        <time>2017-09-17T10:27:47Z</time>
      </trkpt>
      <trkpt lat="43.98568" lon="7.4398">
        <ele>1780</ele>
        <time>2017-09-17T10:27:48Z</time>
      </trkpt>
      <trkpt lat="43.98575" lon="7.43984">
        <ele>1780</ele>
        <time>2017-09-17T10:27:49Z</time>
      </trkpt>
      <trkpt lat="43.98582" lon="7.43987">
        <ele>1780</ele>
        <time>2017-09-17T10:27:50Z</time>
      </trkpt>
      <trkpt lat="43.98589" lon="7.43988">
        <ele>1780</ele>
        <time>2017-09-17T10:27:51Z</time>
      </trkpt>
      <trkpt lat="43.98597" lon="7.43988">
        <ele>1780</ele>
        <time>2017-09-17T10:27:52Z</time>
      </trkpt>
      <trkpt lat="43.98604" lon="7.43989">
        <ele>1780</ele>
        <time>2017-09-17T10:27:53Z</time>
      </trkpt>
      <trkpt lat="43.98611" lon="7.43992">
        <ele>1780</ele>
        <time>2017-09-17T10:27:54Z</time>
      </trkpt>
      <trkpt lat="43.98617" lon="7.43998">
        <ele>1780</ele>
        <time>2017-09-17T10:27:55Z</time>
      </trkpt>
      <trkpt lat="43.98622" lon="7.44005">
        <ele>1780</ele>
        <time>2017-09-17T10:27:56Z</time>
      </trkpt>
      <trkpt lat="43.98627" lon="7.44014">
        <ele>1780</ele>
        <time>2017-09-17T10:27:57Z</time>
      </trkpt>
      <trkpt lat="43.98631" lon="7.44022">
        <ele>1780</ele>
        <time>2017-09-17T10:27:58Z</time>
      </trkpt>
      <trkpt lat="43.98634" lon="7.44031">
        <ele>1780</ele>
        <time>2017-09-17T10:27:59Z</time>
      </trkpt>
      <trkpt lat="43.98636" lon="7.44041">
        <ele>1780</ele>
        <time>2017-09-17T10:28:00Z</time>
      </trkpt>
      <trkpt lat="43.98638" lon="7.44051">
        <ele>1781</ele>
        <time>2017-09-17T10:28:01Z</time>
      </trkpt>
      <trkpt lat="43.9864" lon="7.4406">
        <ele>1781</ele>
        <time>2017-09-17T10:28:02Z</time>
      </trkpt>
      <trkpt lat="43.98642" lon="7.44069">
        <ele>1781</ele>
        <time>2017-09-17T10:28:03Z</time>
      </trkpt>
      <trkpt lat="43.98645" lon="7.44078">
        <ele>1781</ele>
        <time>2017-09-17T10:28:04Z</time>
      </trkpt>
      <trkpt lat="43.98649" lon="7.44086">
        <ele>1781</ele>
        <time>2017-09-17T10:28:05Z</time>
      </trkpt>
      <trkpt lat="43.98654" lon="7.44092">
        <ele>1781</ele>
        <time>2017-09-17T10:28:06Z</time>
      </trkpt>
      <trkpt lat="43.98659" lon="7.44098">
        <ele>1782</ele>
        <time>2017-09-17T10:28:07Z</time>
      </trkpt>
      <trkpt lat="43.98665" lon="7.44104">
        <ele>1782</ele>
        <time>2017-09-17T10:28:08Z</time>
      </trkpt>
      <trkpt lat="43.9867" lon="7.4411">
        <ele>1782</ele>
        <time>2017-09-17T10:28:09Z</time>
      </trkpt>
      <trkpt lat="43.98675" lon="7.44117">
        <ele>1782</ele>
        <time>2017-09-17T10:28:10Z</time>
      </trkpt>
      <trkpt lat="43.9868" lon="7.44123">
        <ele>1782</ele>
        <time>2017-09-17T10:28:11Z</time>
      </trkpt>
      <trkpt lat="43.98686" lon="7.44129">
        <ele>1782</ele>
        <time>2017-09-17T10:28:12Z</time>
      </trkpt>
      <trkpt lat="43.98691" lon="7.44135">
        <ele>1782</ele>
        <time>2017-09-17T10:28:13Z</time>
      </trkpt>
      <trkpt lat="43.98696" lon="7.44141">
        <ele>1783</ele>
        <time>2017-09-17T10:28:14Z</time>
      </trkpt>
      <trkpt lat="43.98701" lon="7.44148">
        <ele>1783</ele>
        <time>2017-09-17T10:28:15Z</time>
      </trkpt>
      <trkpt lat="43.98706" lon="7.44156">
        <ele>1783</ele>
        <time>2017-09-17T10:28:16Z</time>
      </trkpt>
      <trkpt lat="43.98711" lon="7.44163">
        <ele>1783</ele>
        <time>2017-09-17T10:28:17Z</time>
      </trkpt>
      <trkpt lat="43.98716" lon="7.44171">
        <ele>1783</ele>
        <time>2017-09-17T10:28:18Z</time>
      </trkpt>
      <trkpt lat="43.9872" lon="7.44178">
        <ele>1784</ele>
        <time>2017-09-17T10:28:19Z</time>
      </trkpt>
      <trkpt lat="43.98725" lon="7.44186">
        <ele>1784</ele>
        <time>2017-09-17T10:28:20Z</time>
      </trkpt>
      <trkpt lat="43.98731" lon="7.44193">
        <ele>1784</ele>
        <time>2017-09-17T10:28:21Z</time>
      </trkpt>
      <trkpt lat="43.98736" lon="7.442">
        <ele>1784</ele>
        <time>2017-09-17T10:28:22Z</time>
      </trkpt>
      <trkpt lat="43.98741" lon="7.44207">
        <ele>1784</ele>
        <time>2017-09-17T10:28:23Z</time>
      </trkpt>
      <trkpt lat="43.98746" lon="7.44214">
        <ele>1784</ele>
        <time>2017-09-17T10:28:24Z</time>
      </trkpt>
      <trkpt lat="43.98752" lon="7.44221">
        <ele>1784</ele>
        <time>2017-09-17T10:28:25Z</time>
      </trkpt>
      <trkpt lat="43.98758" lon="7.44228">
        <ele>1784</ele>
        <time>2017-09-17T10:28:26Z</time>
      </trkpt>
      <trkpt lat="43.98764" lon="7.44234">
        <ele>1784</ele>
        <time>2017-09-17T10:28:27Z</time>
      </trkpt>
      <trkpt lat="43.9877" lon="7.4424">
        <ele>1784</ele>
        <time>2017-09-17T10:28:28Z</time>
      </trkpt>
      <trkpt lat="43.98777" lon="7.44245">
        <ele>1784</ele>
        <time>2017-09-17T10:28:29Z</time>
      </trkpt>
      <trkpt lat="43.98784" lon="7.4425">
        <ele>1784</ele>
        <time>2017-09-17T10:28:30Z</time>
      </trkpt>
      <trkpt lat="43.98791" lon="7.44255">
        <ele>1784</ele>
        <time>2017-09-17T10:28:31Z</time>
      </trkpt>
      <trkpt lat="43.98798" lon="7.4426">
        <ele>1784</ele>
        <time>2017-09-17T10:28:32Z</time>
      </trkpt>
      <trkpt lat="43.98805" lon="7.44264">
        <ele>1784</ele>
        <time>2017-09-17T10:28:33Z</time>
      </trkpt>
      <trkpt lat="43.98813" lon="7.44268">
        <ele>1784</ele>
        <time>2017-09-17T10:28:34Z</time>
      </trkpt>
      <trkpt lat="43.98821" lon="7.44271">
        <ele>1783</ele>
        <time>2017-09-17T10:28:35Z</time>
      </trkpt>
      <trkpt lat="43.98829" lon="7.44274">
        <ele>1783</ele>
        <time>2017-09-17T10:28:36Z</time>
      </trkpt>
      <trkpt lat="43.98836" lon="7.44276">
        <ele>1783</ele>
        <time>2017-09-17T10:28:37Z</time>
      </trkpt>
      <trkpt lat="43.98844" lon="7.44277">
        <ele>1782</ele>
        <time>2017-09-17T10:28:38Z</time>
      </trkpt>
      <trkpt lat="43.98852" lon="7.44279">
        <ele>1782</ele>
        <time>2017-09-17T10:28:39Z</time>
      </trkpt>
      <trkpt lat="43.9886" lon="7.4428">
        <ele>1781</ele>
        <time>2017-09-17T10:28:40Z</time>
      </trkpt>
      <trkpt lat="43.98868" lon="7.44281">
        <ele>1781</ele>
        <time>2017-09-17T10:28:41Z</time>
      </trkpt>
      <trkpt lat="43.98876" lon="7.44284">
        <ele>1781</ele>
        <time>2017-09-17T10:28:42Z</time>
      </trkpt>
      <trkpt lat="43.98884" lon="7.44286">
        <ele>1781</ele>
        <time>2017-09-17T10:28:43Z</time>
      </trkpt>
      <trkpt lat="43.98891" lon="7.44289">
        <ele>1780</ele>
        <time>2017-09-17T10:28:44Z</time>
      </trkpt>
      <trkpt lat="43.98899" lon="7.44291">
        <ele>1780</ele>
        <time>2017-09-17T10:28:45Z</time>
      </trkpt>
      <trkpt lat="43.98905" lon="7.44295">
        <ele>1780</ele>
        <time>2017-09-17T10:28:46Z</time>
      </trkpt>
      <trkpt lat="43.98911" lon="7.44301">
        <ele>1780</ele>
        <time>2017-09-17T10:28:47Z</time>
      </trkpt>
      <trkpt lat="43.98913" lon="7.4431">
        <ele>1779</ele>
        <time>2017-09-17T10:28:48Z</time>
      </trkpt>
      <trkpt lat="43.98913" lon="7.44318">
        <ele>1779</ele>
        <time>2017-09-17T10:28:49Z</time>
      </trkpt>
      <trkpt lat="43.9891" lon="7.44325">
        <ele>1779</ele>
        <time>2017-09-17T10:28:50Z</time>
      </trkpt>
      <trkpt lat="43.98906" lon="7.4433">
        <ele>1779</ele>
        <time>2017-09-17T10:28:51Z</time>
      </trkpt>
      <trkpt lat="43.98901" lon="7.44333">
        <ele>1779</ele>
        <time>2017-09-17T10:28:52Z</time>
      </trkpt>
      <trkpt lat="43.98896" lon="7.44336">
        <ele>1779</ele>
        <time>2017-09-17T10:28:53Z</time>
      </trkpt>
      <trkpt lat="43.98891" lon="7.44338">
        <ele>1779</ele>
        <time>2017-09-17T10:28:54Z</time>
      </trkpt>
      <trkpt lat="43.98887" lon="7.4434">
        <ele>1780</ele>
        <time>2017-09-17T10:28:55Z</time>
      </trkpt>
      <trkpt lat="43.98883" lon="7.44342">
        <ele>1780</ele>
        <time>2017-09-17T10:28:56Z</time>
      </trkpt>
      <trkpt lat="43.98878" lon="7.44344">
        <ele>1780</ele>
        <time>2017-09-17T10:28:57Z</time>
      </trkpt>
      <trkpt lat="43.98874" lon="7.44346">
        <ele>1780</ele>
        <time>2017-09-17T10:28:58Z</time>
      </trkpt>
      <trkpt lat="43.98871" lon="7.44348">
        <ele>1780</ele>
        <time>2017-09-17T10:28:59Z</time>
      </trkpt>
      <trkpt lat="43.98867" lon="7.4435">
        <ele>1780</ele>
        <time>2017-09-17T10:29:00Z</time>
      </trkpt>
      <trkpt lat="43.98864" lon="7.44351">
        <ele>1781</ele>
        <time>2017-09-17T10:29:01Z</time>
      </trkpt>
      <trkpt lat="43.98861" lon="7.44352">
        <ele>1781</ele>
        <time>2017-09-17T10:29:02Z</time>
      </trkpt>
      <trkpt lat="43.98857" lon="7.44354">
        <ele>1781</ele>
        <time>2017-09-17T10:29:03Z</time>
      </trkpt>
      <trkpt lat="43.98854" lon="7.44355">
        <ele>1781</ele>
        <time>2017-09-17T10:29:04Z</time>
      </trkpt>
      <trkpt lat="43.98851" lon="7.44356">
        <ele>1782</ele>
        <time>2017-09-17T10:29:05Z</time>
      </trkpt>
      <trkpt lat="43.98848" lon="7.44357">
        <ele>1782</ele>
        <time>2017-09-17T10:29:06Z</time>
      </trkpt>
      <trkpt lat="43.98845" lon="7.44358">
        <ele>1782</ele>
        <time>2017-09-17T10:29:07Z</time>
      </trkpt>
      <trkpt lat="43.98842" lon="7.44359">
        <ele>1783</ele>
        <time>2017-09-17T10:29:08Z</time>
      </trkpt>
      <trkpt lat="43.98839" lon="7.44359">
        <ele>1783</ele>
        <time>2017-09-17T10:29:09Z</time>
      </trkpt>
      <trkpt lat="43.98836" lon="7.4436">
        <ele>1783</ele>
        <time>2017-09-17T10:29:10Z</time>
      </trkpt>
      <trkpt lat="43.98832" lon="7.44361">
        <ele>1784</ele>
        <time>2017-09-17T10:29:11Z</time>
      </trkpt>
      <trkpt lat="43.98829" lon="7.44361">
        <ele>1784</ele>
        <time>2017-09-17T10:29:12Z</time>
      </trkpt>
      <trkpt lat="43.98826" lon="7.44362">
        <ele>1784</ele>
        <time>2017-09-17T10:29:13Z</time>
      </trkpt>
      <trkpt lat="43.98822" lon="7.44362">
        <ele>1785</ele>
        <time>2017-09-17T10:29:14Z</time>
      </trkpt>
      <trkpt lat="43.98819" lon="7.44363">
        <ele>1785</ele>
        <time>2017-09-17T10:29:15Z</time>
      </trkpt>
      <trkpt lat="43.98816" lon="7.44364">
        <ele>1785</ele>
        <time>2017-09-17T10:29:16Z</time>
      </trkpt>
      <trkpt lat="43.98813" lon="7.44365">
        <ele>1786</ele>
        <time>2017-09-17T10:29:17Z</time>
      </trkpt>
      <trkpt lat="43.9881" lon="7.44366">
        <ele>1786</ele>
        <time>2017-09-17T10:29:18Z</time>
      </trkpt>
      <trkpt lat="43.98807" lon="7.44367">
        <ele>1786</ele>
        <time>2017-09-17T10:29:19Z</time>
      </trkpt>
      <trkpt lat="43.98804" lon="7.44367">
        <ele>1786</ele>
        <time>2017-09-17T10:29:20Z</time>
      </trkpt>
      <trkpt lat="43.98801" lon="7.44368">
        <ele>1787</ele>
        <time>2017-09-17T10:29:21Z</time>
      </trkpt>
      <trkpt lat="43.98798" lon="7.44369">
        <ele>1787</ele>
        <time>2017-09-17T10:29:22Z</time>
      </trkpt>
      <trkpt lat="43.98795" lon="7.44369">
        <ele>1787</ele>
        <time>2017-09-17T10:29:23Z</time>
      </trkpt>
      <trkpt lat="43.98792" lon="7.44369">
        <ele>1787</ele>
        <time>2017-09-17T10:29:24Z</time>
      </trkpt>
      <trkpt lat="43.98789" lon="7.44368">
        <ele>1788</ele>
        <time>2017-09-17T10:29:25Z</time>
      </trkpt>
      <trkpt lat="43.98785" lon="7.44368">
        <ele>1788</ele>
        <time>2017-09-17T10:29:26Z</time>
      </trkpt>
      <trkpt lat="43.98782" lon="7.44367">
        <ele>1788</ele>
        <time>2017-09-17T10:29:27Z</time>
      </trkpt>
      <trkpt lat="43.98779" lon="7.44367">
        <ele>1789</ele>
        <time>2017-09-17T10:29:28Z</time>
      </trkpt>
      <trkpt lat="43.98776" lon="7.44367">
        <ele>1789</ele>
        <time>2017-09-17T10:29:29Z</time>
      </trkpt>
      <trkpt lat="43.98773" lon="7.44366">
        <ele>1789</ele>
        <time>2017-09-17T10:29:30Z</time>
      </trkpt>
      <trkpt lat="43.9877" lon="7.44365">
        <ele>1790</ele>
        <time>2017-09-17T10:29:31Z</time>
      </trkpt>
      <trkpt lat="43.98766" lon="7.44365">
        <ele>1790</ele>
        <time>2017-09-17T10:29:32Z</time>
      </trkpt>
      <trkpt lat="43.98763" lon="7.44364">
        <ele>1790</ele>
        <time>2017-09-17T10:29:33Z</time>
      </trkpt>
      <trkpt lat="43.9876" lon="7.44363">
        <ele>1790</ele>
        <time>2017-09-17T10:29:34Z</time>
      </trkpt>
      <trkpt lat="43.98757" lon="7.44362">
        <ele>1791</ele>
        <time>2017-09-17T10:29:35Z</time>
      </trkpt>
      <trkpt lat="43.98754" lon="7.44362">
        <ele>1791</ele>
        <time>2017-09-17T10:29:36Z</time>
      </trkpt>
      <trkpt lat="43.98751" lon="7.44361">
        <ele>1791</ele>
        <time>2017-09-17T10:29:37Z</time>
      </trkpt>
      <trkpt lat="43.98748" lon="7.4436">
        <ele>1791</ele>
        <time>2017-09-17T10:29:38Z</time>
      </trkpt>
      <trkpt lat="43.98746" lon="7.44359">
        <ele>1791</ele>
        <time>2017-09-17T10:29:39Z</time>
      </trkpt>
      <trkpt lat="43.98743" lon="7.44358">
        <ele>1791</ele>
        <time>2017-09-17T10:29:40Z</time>
      </trkpt>
      <trkpt lat="43.9874" lon="7.44357">
        <ele>1792</ele>
        <time>2017-09-17T10:29:41Z</time>
      </trkpt>
      <trkpt lat="43.98737" lon="7.44356">
        <ele>1792</ele>
        <time>2017-09-17T10:29:42Z</time>
      </trkpt>
      <trkpt lat="43.98734" lon="7.44355">
        <ele>1792</ele>
        <time>2017-09-17T10:29:43Z</time>
      </trkpt>
      <trkpt lat="43.98731" lon="7.44354">
        <ele>1792</ele>
        <time>2017-09-17T10:29:44Z</time>
      </trkpt>
      <trkpt lat="43.98728" lon="7.44353">
        <ele>1792</ele>
        <time>2017-09-17T10:29:45Z</time>
      </trkpt>
      <trkpt lat="43.98725" lon="7.44352">
        <ele>1793</ele>
        <time>2017-09-17T10:29:46Z</time>
      </trkpt>
      <trkpt lat="43.98722" lon="7.44351">
        <ele>1793</ele>
        <time>2017-09-17T10:29:47Z</time>
      </trkpt>
      <trkpt lat="43.98719" lon="7.4435">
        <ele>1793</ele>
        <time>2017-09-17T10:29:48Z</time>
      </trkpt>
      <trkpt lat="43.98715" lon="7.44349">
        <ele>1793</ele>
        <time>2017-09-17T10:29:49Z</time>
      </trkpt>
      <trkpt lat="43.98713" lon="7.4435">
        <ele>1793</ele>
        <time>2017-09-17T10:29:50Z</time>
      </trkpt>
      <trkpt lat="43.9871" lon="7.44352">
        <ele>1793</ele>
        <time>2017-09-17T10:29:51Z</time>
      </trkpt>
      <trkpt lat="43.98708" lon="7.44355">
        <ele>1793</ele>
        <time>2017-09-17T10:29:52Z</time>
      </trkpt>
      <trkpt lat="43.98708" lon="7.44358">
        <ele>1794</ele>
        <time>2017-09-17T10:29:53Z</time>
      </trkpt>
      <trkpt lat="43.98708" lon="7.44362">
        <ele>1794</ele>
        <time>2017-09-17T10:29:54Z</time>
      </trkpt>
      <trkpt lat="43.98709" lon="7.44366">
        <ele>1794</ele>
        <time>2017-09-17T10:29:55Z</time>
      </trkpt>
      <trkpt lat="43.9871" lon="7.44369">
        <ele>1794</ele>
        <time>2017-09-17T10:29:56Z</time>
      </trkpt>
      <trkpt lat="43.98712" lon="7.44371">
        <ele>1794</ele>
        <time>2017-09-17T10:29:57Z</time>
      </trkpt>
      <trkpt lat="43.98714" lon="7.44374">
        <ele>1794</ele>
        <time>2017-09-17T10:29:58Z</time>
      </trkpt>
      <trkpt lat="43.98716" lon="7.44376">
        <ele>1794</ele>
        <time>2017-09-17T10:29:59Z</time>
      </trkpt>
      <trkpt lat="43.98718" lon="7.44378">
        <ele>1794</ele>
        <time>2017-09-17T10:30:00Z</time>
      </trkpt>
      <trkpt lat="43.98721" lon="7.44381">
        <ele>1794</ele>
        <time>2017-09-17T10:30:01Z</time>
      </trkpt>
      <trkpt lat="43.98724" lon="7.44385">
        <ele>1795</ele>
        <time>2017-09-17T10:30:02Z</time>
      </trkpt>
      <trkpt lat="43.98728" lon="7.44389">
        <ele>1795</ele>
        <time>2017-09-17T10:30:03Z</time>
      </trkpt>
      <trkpt lat="43.98731" lon="7.44393">
        <ele>1795</ele>
        <time>2017-09-17T10:30:04Z</time>
      </trkpt>
      <trkpt lat="43.98736" lon="7.44397">
        <ele>1795</ele>
        <time>2017-09-17T10:30:05Z</time>
      </trkpt>
      <trkpt lat="43.9874" lon="7.444">
        <ele>1795</ele>
        <time>2017-09-17T10:30:06Z</time>
      </trkpt>
      <trkpt lat="43.98745" lon="7.44404">
        <ele>1795</ele>
        <time>2017-09-17T10:30:07Z</time>
      </trkpt>
      <trkpt lat="43.9875" lon="7.44409">
        <ele>1795</ele>
        <time>2017-09-17T10:30:08Z</time>
      </trkpt>
      <trkpt lat="43.98754" lon="7.44415">
        <ele>1794</ele>
        <time>2017-09-17T10:30:09Z</time>
      </trkpt>
      <trkpt lat="43.98759" lon="7.4442">
        <ele>1794</ele>
        <time>2017-09-17T10:30:10Z</time>
      </trkpt>
      <trkpt lat="43.98763" lon="7.44426">
        <ele>1794</ele>
        <time>2017-09-17T10:30:11Z</time>
      </trkpt>
      <trkpt lat="43.98768" lon="7.44432">
        <ele>1794</ele>
        <time>2017-09-17T10:30:12Z</time>
      </trkpt>
      <trkpt lat="43.98773" lon="7.44436">
        <ele>1794</ele>
        <time>2017-09-17T10:30:13Z</time>
      </trkpt>
      <trkpt lat="43.98779" lon="7.4444">
        <ele>1793</ele>
        <time>2017-09-17T10:30:14Z</time>
      </trkpt>
      <trkpt lat="43.98784" lon="7.44442">
        <ele>1793</ele>
        <time>2017-09-17T10:30:15Z</time>
      </trkpt>
      <trkpt lat="43.98791" lon="7.44443">
        <ele>1793</ele>
        <time>2017-09-17T10:30:16Z</time>
      </trkpt>
      <trkpt lat="43.98797" lon="7.44443">
        <ele>1793</ele>
        <time>2017-09-17T10:30:17Z</time>
      </trkpt>
      <trkpt lat="43.98803" lon="7.44444">
        <ele>1792</ele>
        <time>2017-09-17T10:30:18Z</time>
      </trkpt>
      <trkpt lat="43.98809" lon="7.44448">
        <ele>1792</ele>
        <time>2017-09-17T10:30:19Z</time>
      </trkpt>
      <trkpt lat="43.98814" lon="7.44453">
        <ele>1792</ele>
        <time>2017-09-17T10:30:20Z</time>
      </trkpt>
      <trkpt lat="43.98817" lon="7.4446">
        <ele>1791</ele>
        <time>2017-09-17T10:30:21Z</time>
      </trkpt>
      <trkpt lat="43.9882" lon="7.44468">
        <ele>1791</ele>
        <time>2017-09-17T10:30:22Z</time>
      </trkpt>
      <trkpt lat="43.98824" lon="7.44476">
        <ele>1791</ele>
        <time>2017-09-17T10:30:23Z</time>
      </trkpt>
      <trkpt lat="43.98828" lon="7.44485">
        <ele>1790</ele>
        <time>2017-09-17T10:30:24Z</time>
      </trkpt>
      <trkpt lat="43.98833" lon="7.44493">
        <ele>1790</ele>
        <time>2017-09-17T10:30:25Z</time>
      </trkpt>
      <trkpt lat="43.98838" lon="7.44501">
        <ele>1789</ele>
        <time>2017-09-17T10:30:26Z</time>
      </trkpt>
      <trkpt lat="43.98843" lon="7.4451">
        <ele>1789</ele>
        <time>2017-09-17T10:30:27Z</time>
      </trkpt>
      <trkpt lat="43.98848" lon="7.44519">
        <ele>1788</ele>
        <time>2017-09-17T10:30:28Z</time>
      </trkpt>
      <trkpt lat="43.98852" lon="7.4453">
        <ele>1788</ele>
        <time>2017-09-17T10:30:29Z</time>
      </trkpt>
      <trkpt lat="43.98857" lon="7.44541">
        <ele>1787</ele>
        <time>2017-09-17T10:30:30Z</time>
      </trkpt>
      <trkpt lat="43.9886" lon="7.44553">
        <ele>1787</ele>
        <time>2017-09-17T10:30:31Z</time>
      </trkpt>
      <trkpt lat="43.98864" lon="7.44565">
        <ele>1786</ele>
        <time>2017-09-17T10:30:32Z</time>
      </trkpt>
      <trkpt lat="43.98867" lon="7.44576">
        <ele>1786</ele>
        <time>2017-09-17T10:30:33Z</time>
      </trkpt>
      <trkpt lat="43.98869" lon="7.44589">
        <ele>1785</ele>
        <time>2017-09-17T10:30:34Z</time>
      </trkpt>
      <trkpt lat="43.9887" lon="7.44601">
        <ele>1785</ele>
        <time>2017-09-17T10:30:35Z</time>
      </trkpt>
      <trkpt lat="43.9887" lon="7.44613">
        <ele>1784</ele>
        <time>2017-09-17T10:30:36Z</time>
      </trkpt>
      <trkpt lat="43.9887" lon="7.44625">
        <ele>1783</ele>
        <time>2017-09-17T10:30:37Z</time>
      </trkpt>
      <trkpt lat="43.9887" lon="7.44637">
        <ele>1782</ele>
        <time>2017-09-17T10:30:38Z</time>
      </trkpt>
      <trkpt lat="43.98869" lon="7.44649">
        <ele>1782</ele>
        <time>2017-09-17T10:30:39Z</time>
      </trkpt>
      <trkpt lat="43.98869" lon="7.44661">
        <ele>1781</ele>
        <time>2017-09-17T10:30:40Z</time>
      </trkpt>
      <trkpt lat="43.98869" lon="7.44672">
        <ele>1780</ele>
        <time>2017-09-17T10:30:41Z</time>
      </trkpt>
      <trkpt lat="43.98868" lon="7.44682">
        <ele>1780</ele>
        <time>2017-09-17T10:30:42Z</time>
      </trkpt>
      <trkpt lat="43.98868" lon="7.44692">
        <ele>1779</ele>
        <time>2017-09-17T10:30:43Z</time>
      </trkpt>
      <trkpt lat="43.98868" lon="7.44701">
        <ele>1778</ele>
        <time>2017-09-17T10:30:44Z</time>
      </trkpt>
      <trkpt lat="43.9887" lon="7.44709">
        <ele>1778</ele>
        <time>2017-09-17T10:30:45Z</time>
      </trkpt>
      <trkpt lat="43.98872" lon="7.44718">
        <ele>1778</ele>
        <time>2017-09-17T10:30:46Z</time>
      </trkpt>
      <trkpt lat="43.98874" lon="7.44727">
        <ele>1777</ele>
        <time>2017-09-17T10:30:47Z</time>
      </trkpt>
      <trkpt lat="43.98877" lon="7.44737">
        <ele>1777</ele>
        <time>2017-09-17T10:30:48Z</time>
      </trkpt>
      <trkpt lat="43.9888" lon="7.44746">
        <ele>1776</ele>
        <time>2017-09-17T10:30:49Z</time>
      </trkpt>
      <trkpt lat="43.98884" lon="7.44756">
        <ele>1776</ele>
        <time>2017-09-17T10:30:50Z</time>
      </trkpt>
      <trkpt lat="43.98888" lon="7.44765">
        <ele>1776</ele>
        <time>2017-09-17T10:30:51Z</time>
      </trkpt>
      <trkpt lat="43.98893" lon="7.44774">
        <ele>1775</ele>
        <time>2017-09-17T10:30:52Z</time>
      </trkpt>
      <trkpt lat="43.98899" lon="7.44783">
        <ele>1775</ele>
        <time>2017-09-17T10:30:53Z</time>
      </trkpt>
      <trkpt lat="43.98904" lon="7.44793">
        <ele>1775</ele>
        <time>2017-09-17T10:30:54Z</time>
      </trkpt>
      <trkpt lat="43.98909" lon="7.44804">
        <ele>1774</ele>
        <time>2017-09-17T10:30:55Z</time>
      </trkpt>
      <trkpt lat="43.98913" lon="7.44816">
        <ele>1774</ele>
        <time>2017-09-17T10:30:56Z</time>
      </trkpt>
      <trkpt lat="43.98917" lon="7.44828">
        <ele>1773</ele>
        <time>2017-09-17T10:30:57Z</time>
      </trkpt>
      <trkpt lat="43.98921" lon="7.44839">
        <ele>1773</ele>
        <time>2017-09-17T10:30:58Z</time>
      </trkpt>
      <trkpt lat="43.98925" lon="7.44848">
        <ele>1772</ele>
        <time>2017-09-17T10:30:59Z</time>
      </trkpt>
      <trkpt lat="43.98929" lon="7.44858">
        <ele>1771</ele>
        <time>2017-09-17T10:31:00Z</time>
      </trkpt>
      <trkpt lat="43.98932" lon="7.44868">
        <ele>1771</ele>
        <time>2017-09-17T10:31:01Z</time>
      </trkpt>
      <trkpt lat="43.98935" lon="7.44879">
        <ele>1770</ele>
        <time>2017-09-17T10:31:02Z</time>
      </trkpt>
      <trkpt lat="43.98939" lon="7.44889">
        <ele>1770</ele>
        <time>2017-09-17T10:31:03Z</time>
      </trkpt>
      <trkpt lat="43.98942" lon="7.44899">
        <ele>1769</ele>
        <time>2017-09-17T10:31:04Z</time>
      </trkpt>
      <trkpt lat="43.98946" lon="7.44909">
        <ele>1769</ele>
        <time>2017-09-17T10:31:05Z</time>
      </trkpt>
      <trkpt lat="43.9895" lon="7.44918">
        <ele>1768</ele>
        <time>2017-09-17T10:31:06Z</time>
      </trkpt>
      <trkpt lat="43.98953" lon="7.44927">
        <ele>1768</ele>
        <time>2017-09-17T10:31:07Z</time>
      </trkpt>
      <trkpt lat="43.98958" lon="7.44935">
        <ele>1768</ele>
        <time>2017-09-17T10:31:08Z</time>
      </trkpt>
      <trkpt lat="43.98962" lon="7.44944">
        <ele>1767</ele>
        <time>2017-09-17T10:31:09Z</time>
      </trkpt>
      <trkpt lat="43.98967" lon="7.44952">
        <ele>1767</ele>
        <time>2017-09-17T10:31:10Z</time>
      </trkpt>
      <trkpt lat="43.98973" lon="7.44959">
        <ele>1766</ele>
        <time>2017-09-17T10:31:11Z</time>
      </trkpt>
      <trkpt lat="43.9898" lon="7.44964">
        <ele>1766</ele>
        <time>2017-09-17T10:31:12Z</time>
      </trkpt>
      <trkpt lat="43.98986" lon="7.44967">
        <ele>1765</ele>
        <time>2017-09-17T10:31:13Z</time>
      </trkpt>
      <trkpt lat="43.98993" lon="7.44968">
        <ele>1764</ele>
        <time>2017-09-17T10:31:14Z</time>
      </trkpt>
      <trkpt lat="43.99" lon="7.44968">
        <ele>1763</ele>
        <time>2017-09-17T10:31:15Z</time>
      </trkpt>
      <trkpt lat="43.99007" lon="7.44965">
        <ele>1762</ele>
        <time>2017-09-17T10:31:16Z</time>
      </trkpt>
      <trkpt lat="43.99013" lon="7.44961">
        <ele>1761</ele>
        <time>2017-09-17T10:31:17Z</time>
      </trkpt>
      <trkpt lat="43.99018" lon="7.44956">
        <ele>1761</ele>
        <time>2017-09-17T10:31:18Z</time>
      </trkpt>
      <trkpt lat="43.99024" lon="7.44949">
        <ele>1760</ele>
        <time>2017-09-17T10:31:19Z</time>
      </trkpt>
      <trkpt lat="43.99029" lon="7.44942">
        <ele>1759</ele>
        <time>2017-09-17T10:31:20Z</time>
      </trkpt>
      <trkpt lat="43.99034" lon="7.44933">
        <ele>1759</ele>
        <time>2017-09-17T10:31:21Z</time>
      </trkpt>
      <trkpt lat="43.99039" lon="7.44925">
        <ele>1758</ele>
        <time>2017-09-17T10:31:22Z</time>
      </trkpt>
      <trkpt lat="43.99045" lon="7.44917">
        <ele>1758</ele>
        <time>2017-09-17T10:31:23Z</time>
      </trkpt>
      <trkpt lat="43.99052" lon="7.44909">
        <ele>1757</ele>
        <time>2017-09-17T10:31:24Z</time>
      </trkpt>
      <trkpt lat="43.99058" lon="7.44902">
        <ele>1756</ele>
        <time>2017-09-17T10:31:25Z</time>
      </trkpt>
      <trkpt lat="43.99064" lon="7.44893">
        <ele>1756</ele>
        <time>2017-09-17T10:31:26Z</time>
      </trkpt>
      <trkpt lat="43.9907" lon="7.44885">
        <ele>1755</ele>
        <time>2017-09-17T10:31:27Z</time>
      </trkpt>
      <trkpt lat="43.99076" lon="7.44876">
        <ele>1755</ele>
        <time>2017-09-17T10:31:28Z</time>
      </trkpt>
      <trkpt lat="43.99081" lon="7.44866">
        <ele>1754</ele>
        <time>2017-09-17T10:31:29Z</time>
      </trkpt>
      <trkpt lat="43.99086" lon="7.44856">
        <ele>1754</ele>
        <time>2017-09-17T10:31:30Z</time>
      </trkpt>
      <trkpt lat="43.99091" lon="7.44847">
        <ele>1753</ele>
        <time>2017-09-17T10:31:31Z</time>
      </trkpt>
      <trkpt lat="43.99096" lon="7.44837">
        <ele>1753</ele>
        <time>2017-09-17T10:31:32Z</time>
      </trkpt>
      <trkpt lat="43.99101" lon="7.44829">
        <ele>1752</ele>
        <time>2017-09-17T10:31:33Z</time>
      </trkpt>
      <trkpt lat="43.99108" lon="7.44822">
        <ele>1752</ele>
        <time>2017-09-17T10:31:34Z</time>
      </trkpt>
      <trkpt lat="43.99115" lon="7.44815">
        <ele>1751</ele>
        <time>2017-09-17T10:31:35Z</time>
      </trkpt>
      <trkpt lat="43.99123" lon="7.44811">
        <ele>1750</ele>
        <time>2017-09-17T10:31:36Z</time>
      </trkpt>
      <trkpt lat="43.99131" lon="7.44809">
        <ele>1749</ele>
        <time>2017-09-17T10:31:37Z</time>
      </trkpt>
      <trkpt lat="43.99139" lon="7.4481">
        <ele>1748</ele>
        <time>2017-09-17T10:31:38Z</time>
      </trkpt>
      <trkpt lat="43.99146" lon="7.44813">
        <ele>1748</ele>
        <time>2017-09-17T10:31:39Z</time>
      </trkpt>
      <trkpt lat="43.99152" lon="7.44816">
        <ele>1747</ele>
        <time>2017-09-17T10:31:40Z</time>
      </trkpt>
      <trkpt lat="43.99157" lon="7.44818">
        <ele>1747</ele>
        <time>2017-09-17T10:31:41Z</time>
      </trkpt>
      <trkpt lat="43.99163" lon="7.44818">
        <ele>1746</ele>
        <time>2017-09-17T10:31:42Z</time>
      </trkpt>
      <trkpt lat="43.99167" lon="7.44816">
        <ele>1746</ele>
        <time>2017-09-17T10:31:43Z</time>
      </trkpt>
      <trkpt lat="43.99171" lon="7.44813">
        <ele>1745</ele>
        <time>2017-09-17T10:31:44Z</time>
      </trkpt>
      <trkpt lat="43.99175" lon="7.44808">
        <ele>1745</ele>
        <time>2017-09-17T10:31:45Z</time>
      </trkpt>
      <trkpt lat="43.99177" lon="7.44802">
        <ele>1744</ele>
        <time>2017-09-17T10:31:46Z</time>
      </trkpt>
      <trkpt lat="43.9918" lon="7.44795">
        <ele>1744</ele>
        <time>2017-09-17T10:31:47Z</time>
      </trkpt>
      <trkpt lat="43.99183" lon="7.44789">
        <ele>1743</ele>
        <time>2017-09-17T10:31:48Z</time>
      </trkpt>
      <trkpt lat="43.99187" lon="7.44783">
        <ele>1743</ele>
        <time>2017-09-17T10:31:49Z</time>
      </trkpt>
      <trkpt lat="43.99191" lon="7.44777">
        <ele>1743</ele>
        <time>2017-09-17T10:31:50Z</time>
      </trkpt>
      <trkpt lat="43.99196" lon="7.44772">
        <ele>1742</ele>
        <time>2017-09-17T10:31:51Z</time>
      </trkpt>
      <trkpt lat="43.99202" lon="7.44767">
        <ele>1742</ele>
        <time>2017-09-17T10:31:52Z</time>
      </trkpt>
      <trkpt lat="43.99208" lon="7.44763">
        <ele>1742</ele>
        <time>2017-09-17T10:31:53Z</time>
      </trkpt>
      <trkpt lat="43.99214" lon="7.44759">
        <ele>1741</ele>
        <time>2017-09-17T10:31:54Z</time>
      </trkpt>
      <trkpt lat="43.99221" lon="7.44757">
        <ele>1741</ele>
        <time>2017-09-17T10:31:55Z</time>
      </trkpt>
      <trkpt lat="43.99228" lon="7.44756">
        <ele>1741</ele>
        <time>2017-09-17T10:31:56Z</time>
      </trkpt>
      <trkpt lat="43.99234" lon="7.44757">
        <ele>1740</ele>
        <time>2017-09-17T10:31:57Z</time>
      </trkpt>
      <trkpt lat="43.99239" lon="7.44758">
        <ele>1740</ele>
        <time>2017-09-17T10:31:58Z</time>
      </trkpt>
      <trkpt lat="43.99244" lon="7.44759">
        <ele>1740</ele>
        <time>2017-09-17T10:31:59Z</time>
      </trkpt>
      <trkpt lat="43.99248" lon="7.44758">
        <ele>1739</ele>
        <time>2017-09-17T10:32:00Z</time>
      </trkpt>
      <trkpt lat="43.99252" lon="7.44755">
        <ele>1739</ele>
        <time>2017-09-17T10:32:01Z</time>
      </trkpt>
      <trkpt lat="43.99256" lon="7.4475">
        <ele>1739</ele>
        <time>2017-09-17T10:32:02Z</time>
      </trkpt>
      <trkpt lat="43.9926" lon="7.44745">
        <ele>1738</ele>
        <time>2017-09-17T10:32:03Z</time>
      </trkpt>
      <trkpt lat="43.99264" lon="7.44742">
        <ele>1738</ele>
        <time>2017-09-17T10:32:04Z</time>
      </trkpt>
      <trkpt lat="43.9927" lon="7.44741">
        <ele>1738</ele>
        <time>2017-09-17T10:32:05Z</time>
      </trkpt>
      <trkpt lat="43.99275" lon="7.4474">
        <ele>1737</ele>
        <time>2017-09-17T10:32:06Z</time>
      </trkpt>
      <trkpt lat="43.99281" lon="7.44739">
        <ele>1736</ele>
        <time>2017-09-17T10:32:07Z</time>
      </trkpt>
      <trkpt lat="43.99286" lon="7.44737">
        <ele>1736</ele>
        <time>2017-09-17T10:32:08Z</time>
      </trkpt>
      <trkpt lat="43.99291" lon="7.44735">
        <ele>1735</ele>
        <time>2017-09-17T10:32:09Z</time>
      </trkpt>
      <trkpt lat="43.99296" lon="7.44733">
        <ele>1735</ele>
        <time>2017-09-17T10:32:10Z</time>
      </trkpt>
      <trkpt lat="43.99301" lon="7.4473">
        <ele>1734</ele>
        <time>2017-09-17T10:32:11Z</time>
      </trkpt>
      <trkpt lat="43.99306" lon="7.44726">
        <ele>1734</ele>
        <time>2017-09-17T10:32:12Z</time>
      </trkpt>
      <trkpt lat="43.99311" lon="7.44722">
        <ele>1734</ele>
        <time>2017-09-17T10:32:13Z</time>
      </trkpt>
      <trkpt lat="43.99315" lon="7.44716">
        <ele>1733</ele>
        <time>2017-09-17T10:32:14Z</time>
      </trkpt>
      <trkpt lat="43.9932" lon="7.44713">
        <ele>1733</ele>
        <time>2017-09-17T10:32:15Z</time>
      </trkpt>
      <trkpt lat="43.99325" lon="7.44711">
        <ele>1732</ele>
        <time>2017-09-17T10:32:16Z</time>
      </trkpt>
      <trkpt lat="43.9933" lon="7.44711">
        <ele>1732</ele>
        <time>2017-09-17T10:32:17Z</time>
      </trkpt>
      <trkpt lat="43.99335" lon="7.44714">
        <ele>1731</ele>
        <time>2017-09-17T10:32:18Z</time>
      </trkpt>
      <trkpt lat="43.99339" lon="7.44718">
        <ele>1731</ele>
        <time>2017-09-17T10:32:19Z</time>
      </trkpt>
      <trkpt lat="43.99343" lon="7.44722">
        <ele>1731</ele>
        <time>2017-09-17T10:32:20Z</time>
      </trkpt>
      <trkpt lat="43.99348" lon="7.44725">
        <ele>1730</ele>
        <time>2017-09-17T10:32:21Z</time>
      </trkpt>
      <trkpt lat="43.99353" lon="7.44726">
        <ele>1730</ele>
        <time>2017-09-17T10:32:22Z</time>
      </trkpt>
      <trkpt lat="43.99357" lon="7.44726">
        <ele>1730</ele>
        <time>2017-09-17T10:32:23Z</time>
      </trkpt>
      <trkpt lat="43.99362" lon="7.44726">
        <ele>1730</ele>
        <time>2017-09-17T10:32:24Z</time>
      </trkpt>
      <trkpt lat="43.99367" lon="7.44727">
        <ele>1730</ele>
        <time>2017-09-17T10:32:25Z</time>
      </trkpt>
      <trkpt lat="43.99371" lon="7.44731">
        <ele>1729</ele>
        <time>2017-09-17T10:32:26Z</time>
      </trkpt>
      <trkpt lat="43.99375" lon="7.44736">
        <ele>1729</ele>
        <time>2017-09-17T10:32:27Z</time>
      </trkpt>
      <trkpt lat="43.99377" lon="7.44741">
        <ele>1729</ele>
        <time>2017-09-17T10:32:28Z</time>
      </trkpt>
      <trkpt lat="43.9938" lon="7.44747">
        <ele>1728</ele>
        <time>2017-09-17T10:32:29Z</time>
      </trkpt>
      <trkpt lat="43.99383" lon="7.44753">
        <ele>1728</ele>
        <time>2017-09-17T10:32:30Z</time>
      </trkpt>
      <trkpt lat="43.99387" lon="7.44758">
        <ele>1728</ele>
        <time>2017-09-17T10:32:31Z</time>
      </trkpt>
      <trkpt lat="43.9939" lon="7.44763">
        <ele>1727</ele>
        <time>2017-09-17T10:32:32Z</time>
      </trkpt>
      <trkpt lat="43.99394" lon="7.44768">
        <ele>1727</ele>
        <time>2017-09-17T10:32:33Z</time>
      </trkpt>
      <trkpt lat="43.99398" lon="7.44773">
        <ele>1727</ele>
        <time>2017-09-17T10:32:34Z</time>
      </trkpt>
      <trkpt lat="43.99401" lon="7.44778">
        <ele>1727</ele>
        <time>2017-09-17T10:32:35Z</time>
      </trkpt>
      <trkpt lat="43.99404" lon="7.44784">
        <ele>1726</ele>
        <time>2017-09-17T10:32:36Z</time>
      </trkpt>
      <trkpt lat="43.99408" lon="7.44789">
        <ele>1726</ele>
        <time>2017-09-17T10:32:37Z</time>
      </trkpt>
      <trkpt lat="43.99411" lon="7.44793">
        <ele>1726</ele>
        <time>2017-09-17T10:32:38Z</time>
      </trkpt>
      <trkpt lat="43.99416" lon="7.44795">
        <ele>1726</ele>
        <time>2017-09-17T10:32:39Z</time>
      </trkpt>
      <trkpt lat="43.9942" lon="7.44796">
        <ele>1726</ele>
        <time>2017-09-17T10:32:40Z</time>
      </trkpt>
      <trkpt lat="43.99424" lon="7.44795">
        <ele>1726</ele>
        <time>2017-09-17T10:32:41Z</time>
      </trkpt>
      <trkpt lat="43.99429" lon="7.44793">
        <ele>1726</ele>
        <time>2017-09-17T10:32:42Z</time>
      </trkpt>
      <trkpt lat="43.99433" lon="7.44791">
        <ele>1725</ele>
        <time>2017-09-17T10:32:43Z</time>
      </trkpt>
      <trkpt lat="43.99437" lon="7.44789">
        <ele>1725</ele>
        <time>2017-09-17T10:32:44Z</time>
      </trkpt>
      <trkpt lat="43.99442" lon="7.44787">
        <ele>1725</ele>
        <time>2017-09-17T10:32:45Z</time>
      </trkpt>
      <trkpt lat="43.99447" lon="7.44785">
        <ele>1725</ele>
        <time>2017-09-17T10:32:46Z</time>
      </trkpt>
      <trkpt lat="43.99451" lon="7.44783">
        <ele>1725</ele>
        <time>2017-09-17T10:32:47Z</time>
      </trkpt>
      <trkpt lat="43.99455" lon="7.44781">
        <ele>1725</ele>
        <time>2017-09-17T10:32:48Z</time>
      </trkpt>
      <trkpt lat="43.9946" lon="7.44778">
        <ele>1725</ele>
        <time>2017-09-17T10:32:49Z</time>
      </trkpt>
      <trkpt lat="43.99464" lon="7.44776">
        <ele>1725</ele>
        <time>2017-09-17T10:32:50Z</time>
      </trkpt>
      <trkpt lat="43.99469" lon="7.44774">
        <ele>1725</ele>
        <time>2017-09-17T10:32:51Z</time>
      </trkpt>
      <trkpt lat="43.99474" lon="7.44773">
        <ele>1725</ele>
        <time>2017-09-17T10:32:52Z</time>
      </trkpt>
      <trkpt lat="43.99479" lon="7.44771">
        <ele>1725</ele>
        <time>2017-09-17T10:32:53Z</time>
      </trkpt>
      <trkpt lat="43.99484" lon="7.44769">
        <ele>1725</ele>
        <time>2017-09-17T10:32:54Z</time>
      </trkpt>
      <trkpt lat="43.99489" lon="7.44768">
        <ele>1725</ele>
        <time>2017-09-17T10:32:55Z</time>
      </trkpt>
      <trkpt lat="43.99494" lon="7.44766">
        <ele>1725</ele>
        <time>2017-09-17T10:32:56Z</time>
      </trkpt>
      <trkpt lat="43.99499" lon="7.44764">
        <ele>1724</ele>
        <time>2017-09-17T10:32:57Z</time>
      </trkpt>
      <trkpt lat="43.99504" lon="7.44762">
        <ele>1724</ele>
        <time>2017-09-17T10:32:58Z</time>
      </trkpt>
      <trkpt lat="43.99509" lon="7.44759">
        <ele>1724</ele>
        <time>2017-09-17T10:32:59Z</time>
      </trkpt>
      <trkpt lat="43.99514" lon="7.44756">
        <ele>1724</ele>
        <time>2017-09-17T10:33:00Z</time>
      </trkpt>
      <trkpt lat="43.99519" lon="7.44753">
        <ele>1724</ele>
        <time>2017-09-17T10:33:01Z</time>
      </trkpt>
      <trkpt lat="43.99524" lon="7.4475">
        <ele>1723</ele>
        <time>2017-09-17T10:33:02Z</time>
      </trkpt>
      <trkpt lat="43.99528" lon="7.44746">
        <ele>1723</ele>
        <time>2017-09-17T10:33:03Z</time>
      </trkpt>
      <trkpt lat="43.99532" lon="7.44742">
        <ele>1723</ele>
        <time>2017-09-17T10:33:04Z</time>
      </trkpt>
      <trkpt lat="43.99537" lon="7.44738">
        <ele>1723</ele>
        <time>2017-09-17T10:33:05Z</time>
      </trkpt>
      <trkpt lat="43.99543" lon="7.44735">
        <ele>1722</ele>
        <time>2017-09-17T10:33:06Z</time>
      </trkpt>
      <trkpt lat="43.99548" lon="7.44732">
        <ele>1722</ele>
        <time>2017-09-17T10:33:07Z</time>
      </trkpt>
      <trkpt lat="43.99554" lon="7.44728">
        <ele>1722</ele>
        <time>2017-09-17T10:33:08Z</time>
      </trkpt>
      <trkpt lat="43.9956" lon="7.44725">
        <ele>1721</ele>
        <time>2017-09-17T10:33:09Z</time>
      </trkpt>
      <trkpt lat="43.99566" lon="7.44723">
        <ele>1721</ele>
        <time>2017-09-17T10:33:10Z</time>
      </trkpt>
      <trkpt lat="43.99572" lon="7.44721">
        <ele>1721</ele>
        <time>2017-09-17T10:33:11Z</time>
      </trkpt>
      <trkpt lat="43.99579" lon="7.44719">
        <ele>1721</ele>
        <time>2017-09-17T10:33:12Z</time>
      </trkpt>
      <trkpt lat="43.99585" lon="7.44717">
        <ele>1720</ele>
        <time>2017-09-17T10:33:13Z</time>
      </trkpt>
      <trkpt lat="43.99591" lon="7.44715">
        <ele>1720</ele>
        <time>2017-09-17T10:33:14Z</time>
      </trkpt>
      <trkpt lat="43.99597" lon="7.44713">
        <ele>1720</ele>
        <time>2017-09-17T10:33:15Z</time>
      </trkpt>
      <trkpt lat="43.99604" lon="7.44712">
        <ele>1720</ele>
        <time>2017-09-17T10:33:16Z</time>
      </trkpt>
      <trkpt lat="43.9961" lon="7.4471">
        <ele>1719</ele>
        <time>2017-09-17T10:33:17Z</time>
      </trkpt>
      <trkpt lat="43.99617" lon="7.44708">
        <ele>1719</ele>
        <time>2017-09-17T10:33:18Z</time>
      </trkpt>
      <trkpt lat="43.99623" lon="7.44706">
        <ele>1719</ele>
        <time>2017-09-17T10:33:19Z</time>
      </trkpt>
      <trkpt lat="43.99629" lon="7.44705">
        <ele>1719</ele>
        <time>2017-09-17T10:33:20Z</time>
      </trkpt>
      <trkpt lat="43.99635" lon="7.44706">
        <ele>1718</ele>
        <time>2017-09-17T10:33:21Z</time>
      </trkpt>
      <trkpt lat="43.99641" lon="7.4471">
        <ele>1718</ele>
        <time>2017-09-17T10:33:22Z</time>
      </trkpt>
      <trkpt lat="43.99646" lon="7.44715">
        <ele>1718</ele>
        <time>2017-09-17T10:33:23Z</time>
      </trkpt>
      <trkpt lat="43.9965" lon="7.44722">
        <ele>1718</ele>
        <time>2017-09-17T10:33:24Z</time>
      </trkpt>
      <trkpt lat="43.99653" lon="7.44729">
        <ele>1718</ele>
        <time>2017-09-17T10:33:25Z</time>
      </trkpt>
      <trkpt lat="43.99656" lon="7.44736">
        <ele>1717</ele>
        <time>2017-09-17T10:33:26Z</time>
      </trkpt>
      <trkpt lat="43.9966" lon="7.44743">
        <ele>1717</ele>
        <time>2017-09-17T10:33:27Z</time>
      </trkpt>
      <trkpt lat="43.99665" lon="7.44748">
        <ele>1717</ele>
        <time>2017-09-17T10:33:28Z</time>
      </trkpt>
      <trkpt lat="43.99671" lon="7.44752">
        <ele>1717</ele>
        <time>2017-09-17T10:33:29Z</time>
      </trkpt>
      <trkpt lat="43.99676" lon="7.44757">
        <ele>1716</ele>
        <time>2017-09-17T10:33:30Z</time>
      </trkpt>
      <trkpt lat="43.99682" lon="7.44761">
        <ele>1716</ele>
        <time>2017-09-17T10:33:31Z</time>
      </trkpt>
      <trkpt lat="43.99688" lon="7.44766">
        <ele>1716</ele>
        <time>2017-09-17T10:33:32Z</time>
      </trkpt>
      <trkpt lat="43.99694" lon="7.4477">
        <ele>1716</ele>
        <time>2017-09-17T10:33:33Z</time>
      </trkpt>
      <trkpt lat="43.997" lon="7.44774">
        <ele>1715</ele>
        <time>2017-09-17T10:33:34Z</time>
      </trkpt>
      <trkpt lat="43.99706" lon="7.44778">
        <ele>1715</ele>
        <time>2017-09-17T10:33:35Z</time>
      </trkpt>
      <trkpt lat="43.99711" lon="7.44782">
        <ele>1715</ele>
        <time>2017-09-17T10:33:36Z</time>
      </trkpt>
      <trkpt lat="43.99717" lon="7.44787">
        <ele>1715</ele>
        <time>2017-09-17T10:33:37Z</time>
      </trkpt>
      <trkpt lat="43.99722" lon="7.44792">
        <ele>1715</ele>
        <time>2017-09-17T10:33:38Z</time>
      </trkpt>
      <trkpt lat="43.99727" lon="7.44798">
        <ele>1714</ele>
        <time>2017-09-17T10:33:39Z</time>
      </trkpt>
      <trkpt lat="43.99732" lon="7.44804">
        <ele>1714</ele>
        <time>2017-09-17T10:33:40Z</time>
      </trkpt>
      <trkpt lat="43.99736" lon="7.44811">
        <ele>1714</ele>
        <time>2017-09-17T10:33:41Z</time>
      </trkpt>
      <trkpt lat="43.99741" lon="7.44817">
        <ele>1714</ele>
        <time>2017-09-17T10:33:42Z</time>
      </trkpt>
      <trkpt lat="43.99745" lon="7.44824">
        <ele>1714</ele>
        <time>2017-09-17T10:33:43Z</time>
      </trkpt>
      <trkpt lat="43.99749" lon="7.4483">
        <ele>1714</ele>
        <time>2017-09-17T10:33:44Z</time>
      </trkpt>
      <trkpt lat="43.99754" lon="7.44837">
        <ele>1714</ele>
        <time>2017-09-17T10:33:45Z</time>
      </trkpt>
      <trkpt lat="43.99758" lon="7.44843">
        <ele>1714</ele>
        <time>2017-09-17T10:33:46Z</time>
      </trkpt>
      <trkpt lat="43.99762" lon="7.4485">
        <ele>1713</ele>
        <time>2017-09-17T10:33:47Z</time>
      </trkpt>
      <trkpt lat="43.99765" lon="7.44857">
        <ele>1713</ele>
        <time>2017-09-17T10:33:48Z</time>
      </trkpt>
      <trkpt lat="43.99768" lon="7.44865">
        <ele>1713</ele>
        <time>2017-09-17T10:33:49Z</time>
      </trkpt>
      <trkpt lat="43.9977" lon="7.44872">
        <ele>1713</ele>
        <time>2017-09-17T10:33:50Z</time>
      </trkpt>
      <trkpt lat="43.99773" lon="7.4488">
        <ele>1713</ele>
        <time>2017-09-17T10:33:51Z</time>
      </trkpt>
      <trkpt lat="43.99775" lon="7.44888">
        <ele>1713</ele>
        <time>2017-09-17T10:33:52Z</time>
      </trkpt>
      <trkpt lat="43.99777" lon="7.44896">
        <ele>1713</ele>
        <time>2017-09-17T10:33:53Z</time>
      </trkpt>
      <trkpt lat="43.99779" lon="7.44904">
        <ele>1713</ele>
        <time>2017-09-17T10:33:54Z</time>
      </trkpt>
      <trkpt lat="43.99781" lon="7.44913">
        <ele>1713</ele>
        <time>2017-09-17T10:33:55Z</time>
      </trkpt>
      <trkpt lat="43.99783" lon="7.44921">
        <ele>1713</ele>
        <time>2017-09-17T10:33:56Z</time>
      </trkpt>
      <trkpt lat="43.99785" lon="7.4493">
        <ele>1712</ele>
        <time>2017-09-17T10:33:57Z</time>
      </trkpt>
      <trkpt lat="43.99786" lon="7.44939">
        <ele>1712</ele>
        <time>2017-09-17T10:33:58Z</time>
      </trkpt>
      <trkpt lat="43.99788" lon="7.44948">
        <ele>1712</ele>
        <time>2017-09-17T10:33:59Z</time>
      </trkpt>
      <trkpt lat="43.99789" lon="7.44957">
        <ele>1712</ele>
        <time>2017-09-17T10:34:00Z</time>
      </trkpt>
      <trkpt lat="43.99791" lon="7.44967">
        <ele>1712</ele>
        <time>2017-09-17T10:34:01Z</time>
      </trkpt>
      <trkpt lat="43.99791" lon="7.44976">
        <ele>1712</ele>
        <time>2017-09-17T10:34:02Z</time>
      </trkpt>
      <trkpt lat="43.9979" lon="7.44985">
        <ele>1711</ele>
        <time>2017-09-17T10:34:03Z</time>
      </trkpt>
      <trkpt lat="43.99789" lon="7.44994">
        <ele>1711</ele>
        <time>2017-09-17T10:34:04Z</time>
      </trkpt>
      <trkpt lat="43.99788" lon="7.45004">
        <ele>1711</ele>
        <time>2017-09-17T10:34:05Z</time>
      </trkpt>
      <trkpt lat="43.99787" lon="7.45013">
        <ele>1711</ele>
        <time>2017-09-17T10:34:06Z</time>
      </trkpt>
      <trkpt lat="43.99786" lon="7.45022">
        <ele>1711</ele>
        <time>2017-09-17T10:34:07Z</time>
      </trkpt>
      <trkpt lat="43.99786" lon="7.45032">
        <ele>1711</ele>
        <time>2017-09-17T10:34:08Z</time>
      </trkpt>
      <trkpt lat="43.99785" lon="7.45041">
        <ele>1710</ele>
        <time>2017-09-17T10:34:09Z</time>
      </trkpt>
      <trkpt lat="43.99785" lon="7.4505">
        <ele>1710</ele>
        <time>2017-09-17T10:34:10Z</time>
      </trkpt>
      <trkpt lat="43.99784" lon="7.4506">
        <ele>1710</ele>
        <time>2017-09-17T10:34:11Z</time>
      </trkpt>
      <trkpt lat="43.99784" lon="7.4507">
        <ele>1710</ele>
        <time>2017-09-17T10:34:12Z</time>
      </trkpt>
      <trkpt lat="43.99785" lon="7.45079">
        <ele>1709</ele>
        <time>2017-09-17T10:34:13Z</time>
      </trkpt>
      <trkpt lat="43.99786" lon="7.45088">
        <ele>1709</ele>
        <time>2017-09-17T10:34:14Z</time>
      </trkpt>
      <trkpt lat="43.99787" lon="7.45098">
        <ele>1709</ele>
        <time>2017-09-17T10:34:15Z</time>
      </trkpt>
      <trkpt lat="43.99788" lon="7.45107">
        <ele>1709</ele>
        <time>2017-09-17T10:34:16Z</time>
      </trkpt>
      <trkpt lat="43.9979" lon="7.45116">
        <ele>1709</ele>
        <time>2017-09-17T10:34:17Z</time>
      </trkpt>
      <trkpt lat="43.99791" lon="7.45126">
        <ele>1709</ele>
        <time>2017-09-17T10:34:18Z</time>
      </trkpt>
      <trkpt lat="43.99792" lon="7.45135">
        <ele>1709</ele>
        <time>2017-09-17T10:34:19Z</time>
      </trkpt>
      <trkpt lat="43.99794" lon="7.45144">
        <ele>1709</ele>
        <time>2017-09-17T10:34:20Z</time>
      </trkpt>
      <trkpt lat="43.99795" lon="7.45153">
        <ele>1709</ele>
        <time>2017-09-17T10:34:21Z</time>
      </trkpt>
      <trkpt lat="43.99796" lon="7.45163">
        <ele>1709</ele>
        <time>2017-09-17T10:34:22Z</time>
      </trkpt>
      <trkpt lat="43.99797" lon="7.45171">
        <ele>1708</ele>
        <time>2017-09-17T10:34:23Z</time>
      </trkpt>
      <trkpt lat="43.99797" lon="7.4518">
        <ele>1708</ele>
        <time>2017-09-17T10:34:24Z</time>
      </trkpt>
      <trkpt lat="43.99797" lon="7.45189">
        <ele>1708</ele>
        <time>2017-09-17T10:34:25Z</time>
      </trkpt>
      <trkpt lat="43.99797" lon="7.45197">
        <ele>1708</ele>
        <time>2017-09-17T10:34:26Z</time>
      </trkpt>
      <trkpt lat="43.99797" lon="7.45204">
        <ele>1708</ele>
        <time>2017-09-17T10:34:27Z</time>
      </trkpt>
      <trkpt lat="43.99798" lon="7.4521">
        <ele>1708</ele>
        <time>2017-09-17T10:34:28Z</time>
      </trkpt>
      <trkpt lat="43.998" lon="7.45215">
        <ele>1708</ele>
        <time>2017-09-17T10:34:29Z</time>
      </trkpt>
      <trkpt lat="43.99802" lon="7.45219">
        <ele>1708</ele>
        <time>2017-09-17T10:34:30Z</time>
      </trkpt>
      <trkpt lat="43.99804" lon="7.45223">
        <ele>1708</ele>
        <time>2017-09-17T10:34:31Z</time>
      </trkpt>
      <trkpt lat="43.99807" lon="7.45226">
        <ele>1708</ele>
        <time>2017-09-17T10:34:32Z</time>
      </trkpt>
      <trkpt lat="43.99811" lon="7.45228">
        <ele>1707</ele>
        <time>2017-09-17T10:34:33Z</time>
      </trkpt>
      <trkpt lat="43.99815" lon="7.45229">
        <ele>1707</ele>
        <time>2017-09-17T10:34:34Z</time>
      </trkpt>
      <trkpt lat="43.99819" lon="7.45229">
        <ele>1707</ele>
        <time>2017-09-17T10:34:35Z</time>
      </trkpt>
      <trkpt lat="43.99824" lon="7.45228">
        <ele>1707</ele>
        <time>2017-09-17T10:34:36Z</time>
      </trkpt>
      <trkpt lat="43.99828" lon="7.45226">
        <ele>1706</ele>
        <time>2017-09-17T10:34:37Z</time>
      </trkpt>
      <trkpt lat="43.99833" lon="7.45225">
        <ele>1706</ele>
        <time>2017-09-17T10:34:38Z</time>
      </trkpt>
      <trkpt lat="43.99838" lon="7.45223">
        <ele>1706</ele>
        <time>2017-09-17T10:34:39Z</time>
      </trkpt>
      <trkpt lat="43.99844" lon="7.45221">
        <ele>1705</ele>
        <time>2017-09-17T10:34:40Z</time>
      </trkpt>
      <trkpt lat="43.99849" lon="7.4522">
        <ele>1705</ele>
        <time>2017-09-17T10:34:41Z</time>
      </trkpt>
      <trkpt lat="43.99855" lon="7.45219">
        <ele>1704</ele>
        <time>2017-09-17T10:34:42Z</time>
      </trkpt>
      <trkpt lat="43.99861" lon="7.45218">
        <ele>1704</ele>
        <time>2017-09-17T10:34:43Z</time>
      </trkpt>
      <trkpt lat="43.99866" lon="7.45216">
        <ele>1703</ele>
        <time>2017-09-17T10:34:44Z</time>
      </trkpt>
      <trkpt lat="43.99872" lon="7.45212">
        <ele>1703</ele>
        <time>2017-09-17T10:34:45Z</time>
      </trkpt>
      <trkpt lat="43.99878" lon="7.45209">
        <ele>1703</ele>
        <time>2017-09-17T10:34:46Z</time>
      </trkpt>
      <trkpt lat="43.99883" lon="7.45204">
        <ele>1702</ele>
        <time>2017-09-17T10:34:47Z</time>
      </trkpt>
      <trkpt lat="43.99888" lon="7.45199">
        <ele>1702</ele>
        <time>2017-09-17T10:34:48Z</time>
      </trkpt>
      <trkpt lat="43.99894" lon="7.45194">
        <ele>1701</ele>
        <time>2017-09-17T10:34:49Z</time>
      </trkpt>
      <trkpt lat="43.999" lon="7.45189">
        <ele>1701</ele>
        <time>2017-09-17T10:34:50Z</time>
      </trkpt>
      <trkpt lat="43.99906" lon="7.45184">
        <ele>1701</ele>
        <time>2017-09-17T10:34:51Z</time>
      </trkpt>
      <trkpt lat="43.99913" lon="7.45179">
        <ele>1701</ele>
        <time>2017-09-17T10:34:52Z</time>
      </trkpt>
      <trkpt lat="43.99919" lon="7.45175">
        <ele>1700</ele>
        <time>2017-09-17T10:34:53Z</time>
      </trkpt>
      <trkpt lat="43.99925" lon="7.45173">
        <ele>1700</ele>
        <time>2017-09-17T10:34:54Z</time>
      </trkpt>
      <trkpt lat="43.99932" lon="7.45171">
        <ele>1700</ele>
        <time>2017-09-17T10:34:55Z</time>
      </trkpt>
      <trkpt lat="43.99938" lon="7.45169">
        <ele>1700</ele>
        <time>2017-09-17T10:34:56Z</time>
      </trkpt>
      <trkpt lat="43.99943" lon="7.45166">
        <ele>1700</ele>
        <time>2017-09-17T10:34:57Z</time>
      </trkpt>
      <trkpt lat="43.99949" lon="7.45163">
        <ele>1699</ele>
        <time>2017-09-17T10:34:58Z</time>
      </trkpt>
      <trkpt lat="43.99954" lon="7.45159">
        <ele>1699</ele>
        <time>2017-09-17T10:34:59Z</time>
      </trkpt>
      <trkpt lat="43.9996" lon="7.45153">
        <ele>1699</ele>
        <time>2017-09-17T10:35:00Z</time>
      </trkpt>
      <trkpt lat="43.99966" lon="7.45146">
        <ele>1699</ele>
        <time>2017-09-17T10:35:01Z</time>
      </trkpt>
      <trkpt lat="43.99971" lon="7.45138">
        <ele>1699</ele>
        <time>2017-09-17T10:35:02Z</time>
      </trkpt>
      <trkpt lat="43.99976" lon="7.45131">
        <ele>1699</ele>
        <time>2017-09-17T10:35:03Z</time>
      </trkpt>
      <trkpt lat="43.99982" lon="7.45123">
        <ele>1698</ele>
        <time>2017-09-17T10:35:04Z</time>
      </trkpt>
      <trkpt lat="43.99987" lon="7.45117">
        <ele>1698</ele>
        <time>2017-09-17T10:35:05Z</time>
      </trkpt>
      <trkpt lat="43.99992" lon="7.4511">
        <ele>1698</ele>
        <time>2017-09-17T10:35:06Z</time>
      </trkpt>
      <trkpt lat="43.99997" lon="7.45102">
        <ele>1698</ele>
        <time>2017-09-17T10:35:07Z</time>
      </trkpt>
      <trkpt lat="44.00001" lon="7.45094">
        <ele>1697</ele>
        <time>2017-09-17T10:35:08Z</time>
      </trkpt>
      <trkpt lat="44.00004" lon="7.45085">
        <ele>1697</ele>
        <time>2017-09-17T10:35:09Z</time>
      </trkpt>
      <trkpt lat="44.00006" lon="7.45075">
        <ele>1697</ele>
        <time>2017-09-17T10:35:10Z</time>
      </trkpt>
      <trkpt lat="44.00009" lon="7.45065">
        <ele>1697</ele>
        <time>2017-09-17T10:35:11Z</time>
      </trkpt>
      <trkpt lat="44.0001" lon="7.45055">
        <ele>1697</ele>
        <time>2017-09-17T10:35:12Z</time>
      </trkpt>
      <trkpt lat="44.00012" lon="7.45044">
        <ele>1696</ele>
        <time>2017-09-17T10:35:13Z</time>
      </trkpt>
      <trkpt lat="44.00014" lon="7.45033">
        <ele>1696</ele>
        <time>2017-09-17T10:35:14Z</time>
      </trkpt>
      <trkpt lat="44.00015" lon="7.45023">
        <ele>1696</ele>
        <time>2017-09-17T10:35:15Z</time>
      </trkpt>
      <trkpt lat="44.00015" lon="7.45014">
        <ele>1695</ele>
        <time>2017-09-17T10:35:16Z</time>
      </trkpt>
      <trkpt lat="44.00015" lon="7.45007">
        <ele>1695</ele>
        <time>2017-09-17T10:35:17Z</time>
      </trkpt>
      <trkpt lat="44.00016" lon="7.44999">
        <ele>1695</ele>
        <time>2017-09-17T10:35:18Z</time>
      </trkpt>
      <trkpt lat="44.00017" lon="7.44993">
        <ele>1695</ele>
        <time>2017-09-17T10:35:19Z</time>
      </trkpt>
      <trkpt lat="44.00018" lon="7.44987">
        <ele>1695</ele>
        <time>2017-09-17T10:35:20Z</time>
      </trkpt>
      <trkpt lat="44.00018" lon="7.4498">
        <ele>1694</ele>
        <time>2017-09-17T10:35:21Z</time>
      </trkpt>
      <trkpt lat="44.00018" lon="7.44975">
        <ele>1694</ele>
        <time>2017-09-17T10:35:22Z</time>
      </trkpt>
      <trkpt lat="44.00018" lon="7.44968">
        <ele>1694</ele>
        <time>2017-09-17T10:35:23Z</time>
      </trkpt>
      <trkpt lat="44.00018" lon="7.44961">
        <ele>1694</ele>
        <time>2017-09-17T10:35:24Z</time>
      </trkpt>
      <trkpt lat="44.00017" lon="7.44953">
        <ele>1694</ele>
        <time>2017-09-17T10:35:25Z</time>
      </trkpt>
      <trkpt lat="44.00017" lon="7.44944">
        <ele>1694</ele>
        <time>2017-09-17T10:35:26Z</time>
      </trkpt>
      <trkpt lat="44.00017" lon="7.44936">
        <ele>1694</ele>
        <time>2017-09-17T10:35:27Z</time>
      </trkpt>
      <trkpt lat="44.00017" lon="7.44927">
        <ele>1694</ele>
        <time>2017-09-17T10:35:28Z</time>
      </trkpt>
      <trkpt lat="44.00018" lon="7.44919">
        <ele>1694</ele>
        <time>2017-09-17T10:35:29Z</time>
      </trkpt>
      <trkpt lat="44.00019" lon="7.4491">
        <ele>1694</ele>
        <time>2017-09-17T10:35:30Z</time>
      </trkpt>
      <trkpt lat="44.00021" lon="7.44901">
        <ele>1693</ele>
        <time>2017-09-17T10:35:31Z</time>
      </trkpt>
      <trkpt lat="44.00022" lon="7.44892">
        <ele>1693</ele>
        <time>2017-09-17T10:35:32Z</time>
      </trkpt>
      <trkpt lat="44.00024" lon="7.44883">
        <ele>1693</ele>
        <time>2017-09-17T10:35:33Z</time>
      </trkpt>
      <trkpt lat="44.00026" lon="7.44875">
        <ele>1693</ele>
        <time>2017-09-17T10:35:34Z</time>
      </trkpt>
      <trkpt lat="44.00028" lon="7.44868">
        <ele>1693</ele>
        <time>2017-09-17T10:35:35Z</time>
      </trkpt>
      <trkpt lat="44.0003" lon="7.4486">
        <ele>1693</ele>
        <time>2017-09-17T10:35:36Z</time>
      </trkpt>
      <trkpt lat="44.00032" lon="7.44852">
        <ele>1692</ele>
        <time>2017-09-17T10:35:37Z</time>
      </trkpt>
      <trkpt lat="44.00035" lon="7.44844">
        <ele>1692</ele>
        <time>2017-09-17T10:35:38Z</time>
      </trkpt>
      <trkpt lat="44.00037" lon="7.44836">
        <ele>1692</ele>
        <time>2017-09-17T10:35:39Z</time>
      </trkpt>
      <trkpt lat="44.00039" lon="7.44828">
        <ele>1691</ele>
        <time>2017-09-17T10:35:40Z</time>
      </trkpt>
      <trkpt lat="44.00041" lon="7.44819">
        <ele>1691</ele>
        <time>2017-09-17T10:35:41Z</time>
      </trkpt>
      <trkpt lat="44.00044" lon="7.44811">
        <ele>1691</ele>
        <time>2017-09-17T10:35:42Z</time>
      </trkpt>
      <trkpt lat="44.00047" lon="7.44803">
        <ele>1690</ele>
        <time>2017-09-17T10:35:43Z</time>
      </trkpt>
      <trkpt lat="44.0005" lon="7.44794">
        <ele>1690</ele>
        <time>2017-09-17T10:35:44Z</time>
      </trkpt>
      <trkpt lat="44.00053" lon="7.44785">
        <ele>1690</ele>
        <time>2017-09-17T10:35:45Z</time>
      </trkpt>
      <trkpt lat="44.00057" lon="7.44777">
        <ele>1689</ele>
        <time>2017-09-17T10:35:46Z</time>
      </trkpt>
      <trkpt lat="44.00062" lon="7.4477">
        <ele>1689</ele>
        <time>2017-09-17T10:35:47Z</time>
      </trkpt>
      <trkpt lat="44.00067" lon="7.44763">
        <ele>1688</ele>
        <time>2017-09-17T10:35:48Z</time>
      </trkpt>
      <trkpt lat="44.00073" lon="7.44758">
        <ele>1687</ele>
        <time>2017-09-17T10:35:49Z</time>
      </trkpt>
      <trkpt lat="44.00078" lon="7.4475">
        <ele>1687</ele>
        <time>2017-09-17T10:35:50Z</time>
      </trkpt>
      <trkpt lat="44.00083" lon="7.44743">
        <ele>1686</ele>
        <time>2017-09-17T10:35:51Z</time>
      </trkpt>
      <trkpt lat="44.00088" lon="7.44735">
        <ele>1685</ele>
        <time>2017-09-17T10:35:52Z</time>
      </trkpt>
      <trkpt lat="44.00092" lon="7.44726">
        <ele>1684</ele>
        <time>2017-09-17T10:35:53Z</time>
      </trkpt>
      <trkpt lat="44.00096" lon="7.44718">
        <ele>1684</ele>
        <time>2017-09-17T10:35:54Z</time>
      </trkpt>
      <trkpt lat="44.00099" lon="7.4471">
        <ele>1683</ele>
        <time>2017-09-17T10:35:55Z</time>
      </trkpt>
      <trkpt lat="44.00102" lon="7.44702">
        <ele>1682</ele>
        <time>2017-09-17T10:35:56Z</time>
      </trkpt>
      <trkpt lat="44.00105" lon="7.44693">
        <ele>1682</ele>
        <time>2017-09-17T10:35:57Z</time>
      </trkpt>
      <trkpt lat="44.00108" lon="7.44684">
        <ele>1681</ele>
        <time>2017-09-17T10:35:58Z</time>
      </trkpt>
      <trkpt lat="44.00111" lon="7.44676">
        <ele>1681</ele>
        <time>2017-09-17T10:35:59Z</time>
      </trkpt>
      <trkpt lat="44.00115" lon="7.44668">
        <ele>1680</ele>
        <time>2017-09-17T10:36:00Z</time>
      </trkpt>
      <trkpt lat="44.00119" lon="7.4466">
        <ele>1680</ele>
        <time>2017-09-17T10:36:01Z</time>
      </trkpt>
      <trkpt lat="44.00123" lon="7.44653">
        <ele>1679</ele>
        <time>2017-09-17T10:36:02Z</time>
      </trkpt>
      <trkpt lat="44.00126" lon="7.44645">
        <ele>1679</ele>
        <time>2017-09-17T10:36:03Z</time>
      </trkpt>
      <trkpt lat="44.0013" lon="7.44638">
        <ele>1678</ele>
        <time>2017-09-17T10:36:04Z</time>
      </trkpt>
      <trkpt lat="44.00132" lon="7.4463">
        <ele>1677</ele>
        <time>2017-09-17T10:36:05Z</time>
      </trkpt>
      <trkpt lat="44.00134" lon="7.44621">
        <ele>1677</ele>
        <time>2017-09-17T10:36:06Z</time>
      </trkpt>
      <trkpt lat="44.00135" lon="7.44612">
        <ele>1677</ele>
        <time>2017-09-17T10:36:07Z</time>
      </trkpt>
      <trkpt lat="44.00134" lon="7.44604">
        <ele>1676</ele>
        <time>2017-09-17T10:36:08Z</time>
      </trkpt>
      <trkpt lat="44.00134" lon="7.44596">
        <ele>1676</ele>
        <time>2017-09-17T10:36:09Z</time>
      </trkpt>
      <trkpt lat="44.00134" lon="7.44589">
        <ele>1675</ele>
        <time>2017-09-17T10:36:10Z</time>
      </trkpt>
      <trkpt lat="44.00133" lon="7.44582">
        <ele>1674</ele>
        <time>2017-09-17T10:36:11Z</time>
      </trkpt>
      <trkpt lat="44.0013" lon="7.44575">
        <ele>1674</ele>
        <time>2017-09-17T10:36:12Z</time>
      </trkpt>
      <trkpt lat="44.00127" lon="7.44567">
        <ele>1673</ele>
        <time>2017-09-17T10:36:13Z</time>
      </trkpt>
      <trkpt lat="44.00124" lon="7.44559">
        <ele>1672</ele>
        <time>2017-09-17T10:36:14Z</time>
      </trkpt>
      <trkpt lat="44.00122" lon="7.4455">
        <ele>1672</ele>
        <time>2017-09-17T10:36:15Z</time>
      </trkpt>
      <trkpt lat="44.00121" lon="7.44543">
        <ele>1671</ele>
        <time>2017-09-17T10:36:16Z</time>
      </trkpt>
      <trkpt lat="44.00121" lon="7.44538">
        <ele>1670</ele>
        <time>2017-09-17T10:36:17Z</time>
      </trkpt>
      <trkpt lat="44.00122" lon="7.44534">
        <ele>1669</ele>
        <time>2017-09-17T10:36:18Z</time>
      </trkpt>
      <trkpt lat="44.00124" lon="7.44533">
        <ele>1668</ele>
        <time>2017-09-17T10:36:19Z</time>
      </trkpt>
      <trkpt lat="44.00126" lon="7.44534">
        <ele>1668</ele>
        <time>2017-09-17T10:36:20Z</time>
      </trkpt>
      <trkpt lat="44.00127" lon="7.44536">
        <ele>1667</ele>
        <time>2017-09-17T10:36:21Z</time>
      </trkpt>
      <trkpt lat="44.00127" lon="7.4454">
        <ele>1666</ele>
        <time>2017-09-17T10:36:22Z</time>
      </trkpt>
      <trkpt lat="44.00126" lon="7.44544">
        <ele>1666</ele>
        <time>2017-09-17T10:36:23Z</time>
      </trkpt>
      <trkpt lat="44.00126" lon="7.44549">
        <ele>1665</ele>
        <time>2017-09-17T10:36:24Z</time>
      </trkpt>
      <trkpt lat="44.00126" lon="7.44555">
        <ele>1664</ele>
        <time>2017-09-17T10:36:25Z</time>
      </trkpt>
      <trkpt lat="44.00127" lon="7.44561">
        <ele>1663</ele>
        <time>2017-09-17T10:36:26Z</time>
      </trkpt>
      <trkpt lat="44.00129" lon="7.44566">
        <ele>1663</ele>
        <time>2017-09-17T10:36:27Z</time>
      </trkpt>
      <trkpt lat="44.00132" lon="7.44572">
        <ele>1662</ele>
        <time>2017-09-17T10:36:28Z</time>
      </trkpt>
      <trkpt lat="44.00135" lon="7.44578">
        <ele>1661</ele>
        <time>2017-09-17T10:36:29Z</time>
      </trkpt>
      <trkpt lat="44.00137" lon="7.44586">
        <ele>1660</ele>
        <time>2017-09-17T10:36:30Z</time>
      </trkpt>
      <trkpt lat="44.00139" lon="7.44594">
        <ele>1660</ele>
        <time>2017-09-17T10:36:31Z</time>
      </trkpt>
      <trkpt lat="44.00139" lon="7.44602">
        <ele>1659</ele>
        <time>2017-09-17T10:36:32Z</time>
      </trkpt>
      <trkpt lat="44.00139" lon="7.4461">
        <ele>1659</ele>
        <time>2017-09-17T10:36:33Z</time>
      </trkpt>
      <trkpt lat="44.0014" lon="7.44619">
        <ele>1658</ele>
        <time>2017-09-17T10:36:34Z</time>
      </trkpt>
      <trkpt lat="44.00139" lon="7.44627">
        <ele>1658</ele>
        <time>2017-09-17T10:36:35Z</time>
      </trkpt>
      <trkpt lat="44.00138" lon="7.44634">
        <ele>1657</ele>
        <time>2017-09-17T10:36:36Z</time>
      </trkpt>
      <trkpt lat="44.00136" lon="7.44642">
        <ele>1657</ele>
        <time>2017-09-17T10:36:37Z</time>
      </trkpt>
      <trkpt lat="44.00134" lon="7.44649">
        <ele>1656</ele>
        <time>2017-09-17T10:36:38Z</time>
      </trkpt>
      <trkpt lat="44.00132" lon="7.44657">
        <ele>1656</ele>
        <time>2017-09-17T10:36:39Z</time>
      </trkpt>
      <trkpt lat="44.00129" lon="7.44666">
        <ele>1656</ele>
        <time>2017-09-17T10:36:40Z</time>
      </trkpt>
      <trkpt lat="44.00128" lon="7.44675">
        <ele>1656</ele>
        <time>2017-09-17T10:36:41Z</time>
      </trkpt>
      <trkpt lat="44.00126" lon="7.44684">
        <ele>1655</ele>
        <time>2017-09-17T10:36:42Z</time>
      </trkpt>
      <trkpt lat="44.00126" lon="7.44694">
        <ele>1655</ele>
        <time>2017-09-17T10:36:43Z</time>
      </trkpt>
      <trkpt lat="44.00126" lon="7.44702">
        <ele>1655</ele>
        <time>2017-09-17T10:36:44Z</time>
      </trkpt>
      <trkpt lat="44.00125" lon="7.4471">
        <ele>1654</ele>
        <time>2017-09-17T10:36:45Z</time>
      </trkpt>
      <trkpt lat="44.00123" lon="7.44718">
        <ele>1653</ele>
        <time>2017-09-17T10:36:46Z</time>
      </trkpt>
      <trkpt lat="44.00121" lon="7.44726">
        <ele>1653</ele>
        <time>2017-09-17T10:36:47Z</time>
      </trkpt>
      <trkpt lat="44.00118" lon="7.44733">
        <ele>1652</ele>
        <time>2017-09-17T10:36:48Z</time>
      </trkpt>
      <trkpt lat="44.00115" lon="7.44741">
        <ele>1652</ele>
        <time>2017-09-17T10:36:49Z</time>
      </trkpt>
      <trkpt lat="44.00111" lon="7.44748">
        <ele>1651</ele>
        <time>2017-09-17T10:36:50Z</time>
      </trkpt>
      <trkpt lat="44.00108" lon="7.44756">
        <ele>1651</ele>
        <time>2017-09-17T10:36:51Z</time>
      </trkpt>
      <trkpt lat="44.00104" lon="7.44765">
        <ele>1651</ele>
        <time>2017-09-17T10:36:52Z</time>
      </trkpt>
      <trkpt lat="44.00101" lon="7.44773">
        <ele>1650</ele>
        <time>2017-09-17T10:36:53Z</time>
      </trkpt>
      <trkpt lat="44.00097" lon="7.44782">
        <ele>1650</ele>
        <time>2017-09-17T10:36:54Z</time>
      </trkpt>
      <trkpt lat="44.00094" lon="7.4479">
        <ele>1649</ele>
        <time>2017-09-17T10:36:55Z</time>
      </trkpt>
      <trkpt lat="44.0009" lon="7.44798">
        <ele>1648</ele>
        <time>2017-09-17T10:36:56Z</time>
      </trkpt>
      <trkpt lat="44.00087" lon="7.44806">
        <ele>1648</ele>
        <time>2017-09-17T10:36:57Z</time>
      </trkpt>
      <trkpt lat="44.00085" lon="7.44815">
        <ele>1647</ele>
        <time>2017-09-17T10:36:58Z</time>
      </trkpt>
      <trkpt lat="44.00083" lon="7.44824">
        <ele>1647</ele>
        <time>2017-09-17T10:36:59Z</time>
      </trkpt>
      <trkpt lat="44.00081" lon="7.44834">
        <ele>1646</ele>
        <time>2017-09-17T10:37:00Z</time>
      </trkpt>
      <trkpt lat="44.00079" lon="7.44844">
        <ele>1645</ele>
        <time>2017-09-17T10:37:01Z</time>
      </trkpt>
      <trkpt lat="44.00079" lon="7.44854">
        <ele>1645</ele>
        <time>2017-09-17T10:37:02Z</time>
      </trkpt>
      <trkpt lat="44.00079" lon="7.44864">
        <ele>1644</ele>
        <time>2017-09-17T10:37:03Z</time>
      </trkpt>
      <trkpt lat="44.0008" lon="7.44873">
        <ele>1643</ele>
        <time>2017-09-17T10:37:04Z</time>
      </trkpt>
      <trkpt lat="44.00081" lon="7.44883">
        <ele>1643</ele>
        <time>2017-09-17T10:37:05Z</time>
      </trkpt>
      <trkpt lat="44.00081" lon="7.44892">
        <ele>1642</ele>
        <time>2017-09-17T10:37:06Z</time>
      </trkpt>
      <trkpt lat="44.00082" lon="7.44902">
        <ele>1642</ele>
        <time>2017-09-17T10:37:07Z</time>
      </trkpt>
      <trkpt lat="44.00082" lon="7.44913">
        <ele>1641</ele>
        <time>2017-09-17T10:37:08Z</time>
      </trkpt>
      <trkpt lat="44.00083" lon="7.44924">
        <ele>1640</ele>
        <time>2017-09-17T10:37:09Z</time>
      </trkpt>
      <trkpt lat="44.00085" lon="7.44934">
        <ele>1640</ele>
        <time>2017-09-17T10:37:10Z</time>
      </trkpt>
      <trkpt lat="44.00087" lon="7.44943">
        <ele>1639</ele>
        <time>2017-09-17T10:37:11Z</time>
      </trkpt>
      <trkpt lat="44.0009" lon="7.44952">
        <ele>1639</ele>
        <time>2017-09-17T10:37:12Z</time>
      </trkpt>
      <trkpt lat="44.00093" lon="7.44962">
        <ele>1638</ele>
        <time>2017-09-17T10:37:13Z</time>
      </trkpt>
      <trkpt lat="44.00096" lon="7.44972">
        <ele>1637</ele>
        <time>2017-09-17T10:37:14Z</time>
      </trkpt>
      <trkpt lat="44.00097" lon="7.44983">
        <ele>1637</ele>
        <time>2017-09-17T10:37:15Z</time>
      </trkpt>
      <trkpt lat="44.00098" lon="7.44993">
        <ele>1636</ele>
        <time>2017-09-17T10:37:16Z</time>
      </trkpt>
      <trkpt lat="44.00099" lon="7.45002">
        <ele>1636</ele>
        <time>2017-09-17T10:37:17Z</time>
      </trkpt>
      <trkpt lat="44.00099" lon="7.45011">
        <ele>1635</ele>
        <time>2017-09-17T10:37:18Z</time>
      </trkpt>
      <trkpt lat="44.001" lon="7.45021">
        <ele>1635</ele>
        <time>2017-09-17T10:37:19Z</time>
      </trkpt>
      <trkpt lat="44.001" lon="7.45031">
        <ele>1634</ele>
        <time>2017-09-17T10:37:20Z</time>
      </trkpt>
      <trkpt lat="44.00099" lon="7.4504">
        <ele>1634</ele>
        <time>2017-09-17T10:37:21Z</time>
      </trkpt>
      <trkpt lat="44.00099" lon="7.45049">
        <ele>1633</ele>
        <time>2017-09-17T10:37:22Z</time>
      </trkpt>
      <trkpt lat="44.00098" lon="7.45059">
        <ele>1632</ele>
        <time>2017-09-17T10:37:23Z</time>
      </trkpt>
      <trkpt lat="44.00097" lon="7.45071">
        <ele>1632</ele>
        <time>2017-09-17T10:37:24Z</time>
      </trkpt>
      <trkpt lat="44.00096" lon="7.45082">
        <ele>1631</ele>
        <time>2017-09-17T10:37:25Z</time>
      </trkpt>
      <trkpt lat="44.00096" lon="7.45093">
        <ele>1631</ele>
        <time>2017-09-17T10:37:26Z</time>
      </trkpt>
      <trkpt lat="44.00095" lon="7.45104">
        <ele>1630</ele>
        <time>2017-09-17T10:37:27Z</time>
      </trkpt>
      <trkpt lat="44.00095" lon="7.45114">
        <ele>1630</ele>
        <time>2017-09-17T10:37:28Z</time>
      </trkpt>
      <trkpt lat="44.00096" lon="7.45125">
        <ele>1629</ele>
        <time>2017-09-17T10:37:29Z</time>
      </trkpt>
      <trkpt lat="44.00097" lon="7.45137">
        <ele>1629</ele>
        <time>2017-09-17T10:37:30Z</time>
      </trkpt>
      <trkpt lat="44.00098" lon="7.45149">
        <ele>1628</ele>
        <time>2017-09-17T10:37:31Z</time>
      </trkpt>
      <trkpt lat="44.00099" lon="7.45161">
        <ele>1627</ele>
        <time>2017-09-17T10:37:32Z</time>
      </trkpt>
      <trkpt lat="44.001" lon="7.45174">
        <ele>1627</ele>
        <time>2017-09-17T10:37:33Z</time>
      </trkpt>
      <trkpt lat="44.00102" lon="7.45187">
        <ele>1626</ele>
        <time>2017-09-17T10:37:34Z</time>
      </trkpt>
      <trkpt lat="44.00105" lon="7.452">
        <ele>1626</ele>
        <time>2017-09-17T10:37:35Z</time>
      </trkpt>
      <trkpt lat="44.00108" lon="7.45212">
        <ele>1625</ele>
        <time>2017-09-17T10:37:36Z</time>
      </trkpt>
      <trkpt lat="44.00111" lon="7.45224">
        <ele>1624</ele>
        <time>2017-09-17T10:37:37Z</time>
      </trkpt>
      <trkpt lat="44.00114" lon="7.45236">
        <ele>1623</ele>
        <time>2017-09-17T10:37:38Z</time>
      </trkpt>
      <trkpt lat="44.00116" lon="7.45247">
        <ele>1622</ele>
        <time>2017-09-17T10:37:39Z</time>
      </trkpt>
      <trkpt lat="44.00119" lon="7.45258">
        <ele>1621</ele>
        <time>2017-09-17T10:37:40Z</time>
      </trkpt>
      <trkpt lat="44.0012" lon="7.45268">
        <ele>1620</ele>
        <time>2017-09-17T10:37:41Z</time>
      </trkpt>
      <trkpt lat="44.00122" lon="7.45278">
        <ele>1619</ele>
        <time>2017-09-17T10:37:42Z</time>
      </trkpt>
      <trkpt lat="44.00122" lon="7.45288">
        <ele>1618</ele>
        <time>2017-09-17T10:37:43Z</time>
      </trkpt>
      <trkpt lat="44.0012" lon="7.45296">
        <ele>1617</ele>
        <time>2017-09-17T10:37:44Z</time>
      </trkpt>
      <trkpt lat="44.00118" lon="7.45305">
        <ele>1616</ele>
        <time>2017-09-17T10:37:45Z</time>
      </trkpt>
      <trkpt lat="44.00114" lon="7.45313">
        <ele>1615</ele>
        <time>2017-09-17T10:37:46Z</time>
      </trkpt>
      <trkpt lat="44.0011" lon="7.4532">
        <ele>1614</ele>
        <time>2017-09-17T10:37:47Z</time>
      </trkpt>
      <trkpt lat="44.00104" lon="7.45326">
        <ele>1613</ele>
        <time>2017-09-17T10:37:48Z</time>
      </trkpt>
      <trkpt lat="44.00098" lon="7.45332">
        <ele>1612</ele>
        <time>2017-09-17T10:37:49Z</time>
      </trkpt>
      <trkpt lat="44.00091" lon="7.45339">
        <ele>1611</ele>
        <time>2017-09-17T10:37:50Z</time>
      </trkpt>
      <trkpt lat="44.00085" lon="7.45345">
        <ele>1610</ele>
        <time>2017-09-17T10:37:51Z</time>
      </trkpt>
      <trkpt lat="44.00077" lon="7.45351">
        <ele>1609</ele>
        <time>2017-09-17T10:37:52Z</time>
      </trkpt>
      <trkpt lat="44.0007" lon="7.45357">
        <ele>1608</ele>
        <time>2017-09-17T10:37:53Z</time>
      </trkpt>
      <trkpt lat="44.00063" lon="7.45363">
        <ele>1607</ele>
        <time>2017-09-17T10:37:54Z</time>
      </trkpt>
      <trkpt lat="44.00056" lon="7.45369">
        <ele>1606</ele>
        <time>2017-09-17T10:37:55Z</time>
      </trkpt>
      <trkpt lat="44.00049" lon="7.45375">
        <ele>1605</ele>
        <time>2017-09-17T10:37:56Z</time>
      </trkpt>
      <trkpt lat="44.00043" lon="7.4538">
        <ele>1603</ele>
        <time>2017-09-17T10:37:57Z</time>
      </trkpt>
      <trkpt lat="44.00036" lon="7.45385">
        <ele>1602</ele>
        <time>2017-09-17T10:37:58Z</time>
      </trkpt>
      <trkpt lat="44.00029" lon="7.4539">
        <ele>1602</ele>
        <time>2017-09-17T10:37:59Z</time>
      </trkpt>
      <trkpt lat="44.00023" lon="7.45394">
        <ele>1601</ele>
        <time>2017-09-17T10:38:00Z</time>
      </trkpt>
      <trkpt lat="44.00016" lon="7.45398">
        <ele>1600</ele>
        <time>2017-09-17T10:38:01Z</time>
      </trkpt>
      <trkpt lat="44.00011" lon="7.45402">
        <ele>1599</ele>
        <time>2017-09-17T10:38:02Z</time>
      </trkpt>
      <trkpt lat="44.00006" lon="7.45407">
        <ele>1598</ele>
        <time>2017-09-17T10:38:03Z</time>
      </trkpt>
      <trkpt lat="44.00001" lon="7.45414">
        <ele>1598</ele>
        <time>2017-09-17T10:38:04Z</time>
      </trkpt>
      <trkpt lat="43.99998" lon="7.4542">
        <ele>1597</ele>
        <time>2017-09-17T10:38:05Z</time>
      </trkpt>
      <trkpt lat="43.99996" lon="7.45427">
        <ele>1596</ele>
        <time>2017-09-17T10:38:06Z</time>
      </trkpt>
      <trkpt lat="43.99996" lon="7.45434">
        <ele>1596</ele>
        <time>2017-09-17T10:38:07Z</time>
      </trkpt>
      <trkpt lat="43.99997" lon="7.45443">
        <ele>1595</ele>
        <time>2017-09-17T10:38:08Z</time>
      </trkpt>
      <trkpt lat="43.99998" lon="7.45453">
        <ele>1595</ele>
        <time>2017-09-17T10:38:09Z</time>
      </trkpt>
      <trkpt lat="44" lon="7.45463">
        <ele>1594</ele>
        <time>2017-09-17T10:38:10Z</time>
      </trkpt>
      <trkpt lat="44" lon="7.45472">
        <ele>1593</ele>
        <time>2017-09-17T10:38:11Z</time>
      </trkpt>
      <trkpt lat="44.00001" lon="7.45481">
        <ele>1593</ele>
        <time>2017-09-17T10:38:12Z</time>
      </trkpt>
      <trkpt lat="44" lon="7.45489">
        <ele>1592</ele>
        <time>2017-09-17T10:38:13Z</time>
      </trkpt>
      <trkpt lat="44" lon="7.45498">
        <ele>1592</ele>
        <time>2017-09-17T10:38:14Z</time>
      </trkpt>
      <trkpt lat="43.99999" lon="7.45507">
        <ele>1591</ele>
        <time>2017-09-17T10:38:15Z</time>
      </trkpt>
      <trkpt lat="43.99998" lon="7.45515">
        <ele>1591</ele>
        <time>2017-09-17T10:38:16Z</time>
      </trkpt>
      <trkpt lat="43.99999" lon="7.45522">
        <ele>1590</ele>
        <time>2017-09-17T10:38:17Z</time>
      </trkpt>
      <trkpt lat="44.00001" lon="7.4553">
        <ele>1590</ele>
        <time>2017-09-17T10:38:18Z</time>
      </trkpt>
      <trkpt lat="44.00004" lon="7.45537">
        <ele>1589</ele>
        <time>2017-09-17T10:38:19Z</time>
      </trkpt>
      <trkpt lat="44.00007" lon="7.45545">
        <ele>1589</ele>
        <time>2017-09-17T10:38:20Z</time>
      </trkpt>
      <trkpt lat="44.00011" lon="7.45553">
        <ele>1589</ele>
        <time>2017-09-17T10:38:21Z</time>
      </trkpt>
      <trkpt lat="44.00014" lon="7.45562">
        <ele>1588</ele>
        <time>2017-09-17T10:38:22Z</time>
      </trkpt>
      <trkpt lat="44.00018" lon="7.45571">
        <ele>1588</ele>
        <time>2017-09-17T10:38:23Z</time>
      </trkpt>
      <trkpt lat="44.00022" lon="7.4558">
        <ele>1587</ele>
        <time>2017-09-17T10:38:24Z</time>
      </trkpt>
      <trkpt lat="44.00025" lon="7.4559">
        <ele>1587</ele>
        <time>2017-09-17T10:38:25Z</time>
      </trkpt>
      <trkpt lat="44.00028" lon="7.456">
        <ele>1586</ele>
        <time>2017-09-17T10:38:26Z</time>
      </trkpt>
      <trkpt lat="44.0003" lon="7.4561">
        <ele>1586</ele>
        <time>2017-09-17T10:38:27Z</time>
      </trkpt>
      <trkpt lat="44.00034" lon="7.45618">
        <ele>1585</ele>
        <time>2017-09-17T10:38:28Z</time>
      </trkpt>
      <trkpt lat="44.00037" lon="7.45626">
        <ele>1585</ele>
        <time>2017-09-17T10:38:29Z</time>
      </trkpt>
      <trkpt lat="44.00041" lon="7.45633">
        <ele>1584</ele>
        <time>2017-09-17T10:38:30Z</time>
      </trkpt>
      <trkpt lat="44.00046" lon="7.45638">
        <ele>1584</ele>
        <time>2017-09-17T10:38:31Z</time>
      </trkpt>
      <trkpt lat="44.00052" lon="7.45644">
        <ele>1583</ele>
        <time>2017-09-17T10:38:32Z</time>
      </trkpt>
      <trkpt lat="44.00057" lon="7.4565">
        <ele>1583</ele>
        <time>2017-09-17T10:38:33Z</time>
      </trkpt>
      <trkpt lat="44.00061" lon="7.45657">
        <ele>1582</ele>
        <time>2017-09-17T10:38:34Z</time>
      </trkpt>
      <trkpt lat="44.00065" lon="7.45665">
        <ele>1582</ele>
        <time>2017-09-17T10:38:35Z</time>
      </trkpt>
      <trkpt lat="44.00068" lon="7.45673">
        <ele>1581</ele>
        <time>2017-09-17T10:38:36Z</time>
      </trkpt>
      <trkpt lat="44.00071" lon="7.45683">
        <ele>1580</ele>
        <time>2017-09-17T10:38:37Z</time>
      </trkpt>
      <trkpt lat="44.00073" lon="7.45692">
        <ele>1580</ele>
        <time>2017-09-17T10:38:38Z</time>
      </trkpt>
      <trkpt lat="44.00075" lon="7.45702">
        <ele>1579</ele>
        <time>2017-09-17T10:38:39Z</time>
      </trkpt>
      <trkpt lat="44.00076" lon="7.45713">
        <ele>1578</ele>
        <time>2017-09-17T10:38:40Z</time>
      </trkpt>
      <trkpt lat="44.00077" lon="7.45724">
        <ele>1577</ele>
        <time>2017-09-17T10:38:41Z</time>
      </trkpt>
      <trkpt lat="44.00079" lon="7.45735">
        <ele>1576</ele>
        <time>2017-09-17T10:38:42Z</time>
      </trkpt>
      <trkpt lat="44.0008" lon="7.45746">
        <ele>1576</ele>
        <time>2017-09-17T10:38:43Z</time>
      </trkpt>
      <trkpt lat="44.00081" lon="7.45757">
        <ele>1575</ele>
        <time>2017-09-17T10:38:44Z</time>
      </trkpt>
      <trkpt lat="44.00082" lon="7.45768">
        <ele>1574</ele>
        <time>2017-09-17T10:38:45Z</time>
      </trkpt>
      <trkpt lat="44.00081" lon="7.4578">
        <ele>1573</ele>
        <time>2017-09-17T10:38:46Z</time>
      </trkpt>
      <trkpt lat="44.0008" lon="7.45793">
        <ele>1572</ele>
        <time>2017-09-17T10:38:47Z</time>
      </trkpt>
      <trkpt lat="44.00078" lon="7.45805">
        <ele>1571</ele>
        <time>2017-09-17T10:38:48Z</time>
      </trkpt>
      <trkpt lat="44.00077" lon="7.45817">
        <ele>1570</ele>
        <time>2017-09-17T10:38:49Z</time>
      </trkpt>
      <trkpt lat="44.00076" lon="7.45829">
        <ele>1569</ele>
        <time>2017-09-17T10:38:50Z</time>
      </trkpt>
      <trkpt lat="44.00075" lon="7.45839">
        <ele>1568</ele>
        <time>2017-09-17T10:38:51Z</time>
      </trkpt>
      <trkpt lat="44.00074" lon="7.45849">
        <ele>1567</ele>
        <time>2017-09-17T10:38:52Z</time>
      </trkpt>
      <trkpt lat="44.00074" lon="7.45859">
        <ele>1567</ele>
        <time>2017-09-17T10:38:53Z</time>
      </trkpt>
      <trkpt lat="44.00074" lon="7.4587">
        <ele>1566</ele>
        <time>2017-09-17T10:38:54Z</time>
      </trkpt>
      <trkpt lat="44.00075" lon="7.4588">
        <ele>1565</ele>
        <time>2017-09-17T10:38:55Z</time>
      </trkpt>
      <trkpt lat="44.00076" lon="7.4589">
        <ele>1564</ele>
        <time>2017-09-17T10:38:56Z</time>
      </trkpt>
      <trkpt lat="44.00078" lon="7.45899">
        <ele>1563</ele>
        <time>2017-09-17T10:38:57Z</time>
      </trkpt>
      <trkpt lat="44.00081" lon="7.45908">
        <ele>1562</ele>
        <time>2017-09-17T10:38:58Z</time>
      </trkpt>
      <trkpt lat="44.00085" lon="7.45916">
        <ele>1561</ele>
        <time>2017-09-17T10:38:59Z</time>
      </trkpt>
      <trkpt lat="44.0009" lon="7.45924">
        <ele>1560</ele>
        <time>2017-09-17T10:39:00Z</time>
      </trkpt>
      <trkpt lat="44.00094" lon="7.45928">
        <ele>1559</ele>
        <time>2017-09-17T10:39:01Z</time>
      </trkpt>
      <trkpt lat="44.00097" lon="7.45933">
        <ele>1559</ele>
        <time>2017-09-17T10:39:02Z</time>
      </trkpt>
      <trkpt lat="44.00099" lon="7.45939">
        <ele>1558</ele>
        <time>2017-09-17T10:39:03Z</time>
      </trkpt>
      <trkpt lat="44.00099" lon="7.45945">
        <ele>1557</ele>
        <time>2017-09-17T10:39:04Z</time>
      </trkpt>
      <trkpt lat="44.00099" lon="7.45953">
        <ele>1556</ele>
        <time>2017-09-17T10:39:05Z</time>
      </trkpt>
      <trkpt lat="44.00099" lon="7.4596">
        <ele>1556</ele>
        <time>2017-09-17T10:39:06Z</time>
      </trkpt>
      <trkpt lat="44.00099" lon="7.45968">
        <ele>1555</ele>
        <time>2017-09-17T10:39:07Z</time>
      </trkpt>
      <trkpt lat="44.001" lon="7.45975">
        <ele>1554</ele>
        <time>2017-09-17T10:39:08Z</time>
      </trkpt>
      <trkpt lat="44.00101" lon="7.45981">
        <ele>1554</ele>
        <time>2017-09-17T10:39:09Z</time>
      </trkpt>
      <trkpt lat="44.00101" lon="7.45987">
        <ele>1553</ele>
        <time>2017-09-17T10:39:10Z</time>
      </trkpt>
      <trkpt lat="44.001" lon="7.45993">
        <ele>1553</ele>
        <time>2017-09-17T10:39:11Z</time>
      </trkpt>
      <trkpt lat="44.00098" lon="7.45999">
        <ele>1552</ele>
        <time>2017-09-17T10:39:12Z</time>
      </trkpt>
      <trkpt lat="44.00097" lon="7.46004">
        <ele>1552</ele>
        <time>2017-09-17T10:39:13Z</time>
      </trkpt>
      <trkpt lat="44.00094" lon="7.46008">
        <ele>1551</ele>
        <time>2017-09-17T10:39:14Z</time>
      </trkpt>
      <trkpt lat="44.0009" lon="7.46012">
        <ele>1551</ele>
        <time>2017-09-17T10:39:15Z</time>
      </trkpt>
      <trkpt lat="44.00087" lon="7.46016">
        <ele>1551</ele>
        <time>2017-09-17T10:39:16Z</time>
      </trkpt>
      <trkpt lat="44.00082" lon="7.46019">
        <ele>1550</ele>
        <time>2017-09-17T10:39:17Z</time>
      </trkpt>
      <trkpt lat="44.00078" lon="7.46023">
        <ele>1550</ele>
        <time>2017-09-17T10:39:18Z</time>
      </trkpt>
      <trkpt lat="44.00073" lon="7.46028">
        <ele>1549</ele>
        <time>2017-09-17T10:39:19Z</time>
      </trkpt>
      <trkpt lat="44.00069" lon="7.46033">
        <ele>1549</ele>
        <time>2017-09-17T10:39:20Z</time>
      </trkpt>
      <trkpt lat="44.00065" lon="7.4604">
        <ele>1549</ele>
        <time>2017-09-17T10:39:21Z</time>
      </trkpt>
      <trkpt lat="44.00062" lon="7.46049">
        <ele>1548</ele>
        <time>2017-09-17T10:39:22Z</time>
      </trkpt>
      <trkpt lat="44.0006" lon="7.46057">
        <ele>1548</ele>
        <time>2017-09-17T10:39:23Z</time>
      </trkpt>
      <trkpt lat="44.00058" lon="7.46066">
        <ele>1547</ele>
        <time>2017-09-17T10:39:24Z</time>
      </trkpt>
      <trkpt lat="44.00055" lon="7.46075">
        <ele>1547</ele>
        <time>2017-09-17T10:39:25Z</time>
      </trkpt>
      <trkpt lat="44.00052" lon="7.46083">
        <ele>1546</ele>
        <time>2017-09-17T10:39:26Z</time>
      </trkpt>
      <trkpt lat="44.0005" lon="7.46092">
        <ele>1546</ele>
        <time>2017-09-17T10:39:27Z</time>
      </trkpt>
      <trkpt lat="44.00047" lon="7.46101">
        <ele>1546</ele>
        <time>2017-09-17T10:39:28Z</time>
      </trkpt>
      <trkpt lat="44.00044" lon="7.46111">
        <ele>1545</ele>
        <time>2017-09-17T10:39:29Z</time>
      </trkpt>
      <trkpt lat="44.00042" lon="7.46121">
        <ele>1545</ele>
        <time>2017-09-17T10:39:30Z</time>
      </trkpt>
      <trkpt lat="44.0004" lon="7.46131">
        <ele>1544</ele>
        <time>2017-09-17T10:39:31Z</time>
      </trkpt>
      <trkpt lat="44.00038" lon="7.46141">
        <ele>1544</ele>
        <time>2017-09-17T10:39:32Z</time>
      </trkpt>
      <trkpt lat="44.00036" lon="7.46151">
        <ele>1543</ele>
        <time>2017-09-17T10:39:33Z</time>
      </trkpt>
      <trkpt lat="44.00035" lon="7.46161">
        <ele>1542</ele>
        <time>2017-09-17T10:39:34Z</time>
      </trkpt>
      <trkpt lat="44.00033" lon="7.46172">
        <ele>1542</ele>
        <time>2017-09-17T10:39:35Z</time>
      </trkpt>
      <trkpt lat="44.00032" lon="7.46181">
        <ele>1541</ele>
        <time>2017-09-17T10:39:36Z</time>
      </trkpt>
      <trkpt lat="44.0003" lon="7.4619">
        <ele>1541</ele>
        <time>2017-09-17T10:39:37Z</time>
      </trkpt>
      <trkpt lat="44.00028" lon="7.46199">
        <ele>1540</ele>
        <time>2017-09-17T10:39:38Z</time>
      </trkpt>
      <trkpt lat="44.00025" lon="7.46207">
        <ele>1540</ele>
        <time>2017-09-17T10:39:39Z</time>
      </trkpt>
      <trkpt lat="44.00022" lon="7.46214">
        <ele>1539</ele>
        <time>2017-09-17T10:39:40Z</time>
      </trkpt>
      <trkpt lat="44.00017" lon="7.46221">
        <ele>1539</ele>
        <time>2017-09-17T10:39:41Z</time>
      </trkpt>
      <trkpt lat="44.00013" lon="7.46227">
        <ele>1538</ele>
        <time>2017-09-17T10:39:42Z</time>
      </trkpt>
      <trkpt lat="44.00007" lon="7.46233">
        <ele>1538</ele>
        <time>2017-09-17T10:39:43Z</time>
      </trkpt>
      <trkpt lat="44.00002" lon="7.46239">
        <ele>1537</ele>
        <time>2017-09-17T10:39:44Z</time>
      </trkpt>
      <trkpt lat="43.99997" lon="7.46245">
        <ele>1537</ele>
        <time>2017-09-17T10:39:45Z</time>
      </trkpt>
      <trkpt lat="43.99993" lon="7.46253">
        <ele>1536</ele>
        <time>2017-09-17T10:39:46Z</time>
      </trkpt>
      <trkpt lat="43.99989" lon="7.4626">
        <ele>1535</ele>
        <time>2017-09-17T10:39:47Z</time>
      </trkpt>
      <trkpt lat="43.99986" lon="7.46268">
        <ele>1535</ele>
        <time>2017-09-17T10:39:48Z</time>
      </trkpt>
      <trkpt lat="43.99984" lon="7.46276">
        <ele>1534</ele>
        <time>2017-09-17T10:39:49Z</time>
      </trkpt>
      <trkpt lat="43.99982" lon="7.46284">
        <ele>1533</ele>
        <time>2017-09-17T10:39:50Z</time>
      </trkpt>
      <trkpt lat="43.99979" lon="7.46292">
        <ele>1533</ele>
        <time>2017-09-17T10:39:51Z</time>
      </trkpt>
      <trkpt lat="43.99976" lon="7.463">
        <ele>1532</ele>
        <time>2017-09-17T10:39:52Z</time>
      </trkpt>
      <trkpt lat="43.99973" lon="7.46308">
        <ele>1531</ele>
        <time>2017-09-17T10:39:53Z</time>
      </trkpt>
      <trkpt lat="43.9997" lon="7.46316">
        <ele>1530</ele>
        <time>2017-09-17T10:39:54Z</time>
      </trkpt>
      <trkpt lat="43.99967" lon="7.46323">
        <ele>1530</ele>
        <time>2017-09-17T10:39:55Z</time>
      </trkpt>
      <trkpt lat="43.99963" lon="7.46329">
        <ele>1529</ele>
        <time>2017-09-17T10:39:56Z</time>
      </trkpt>
      <trkpt lat="43.99959" lon="7.46336">
        <ele>1528</ele>
        <time>2017-09-17T10:39:57Z</time>
      </trkpt>
      <trkpt lat="43.99953" lon="7.46341">
        <ele>1527</ele>
        <time>2017-09-17T10:39:58Z</time>
      </trkpt>
      <trkpt lat="43.99948" lon="7.46345">
        <ele>1526</ele>
        <time>2017-09-17T10:39:59Z</time>
      </trkpt>
      <trkpt lat="43.99942" lon="7.46347">
        <ele>1524</ele>
        <time>2017-09-17T10:40:00Z</time>
      </trkpt>
      <trkpt lat="43.99935" lon="7.46348">
        <ele>1523</ele>
        <time>2017-09-17T10:40:01Z</time>
      </trkpt>
      <trkpt lat="43.99928" lon="7.46348">
        <ele>1522</ele>
        <time>2017-09-17T10:40:02Z</time>
      </trkpt>
      <trkpt lat="43.9992" lon="7.46348">
        <ele>1521</ele>
        <time>2017-09-17T10:40:03Z</time>
      </trkpt>
      <trkpt lat="43.99913" lon="7.46349">
        <ele>1520</ele>
        <time>2017-09-17T10:40:04Z</time>
      </trkpt>
      <trkpt lat="43.99905" lon="7.46351">
        <ele>1519</ele>
        <time>2017-09-17T10:40:05Z</time>
      </trkpt>
      <trkpt lat="43.99898" lon="7.46353">
        <ele>1518</ele>
        <time>2017-09-17T10:40:06Z</time>
      </trkpt>
      <trkpt lat="43.99891" lon="7.46356">
        <ele>1517</ele>
        <time>2017-09-17T10:40:07Z</time>
      </trkpt>
      <trkpt lat="43.99884" lon="7.46358">
        <ele>1516</ele>
        <time>2017-09-17T10:40:08Z</time>
      </trkpt>
      <trkpt lat="43.99878" lon="7.46359">
        <ele>1515</ele>
        <time>2017-09-17T10:40:09Z</time>
      </trkpt>
      <trkpt lat="43.9987" lon="7.46359">
        <ele>1514</ele>
        <time>2017-09-17T10:40:10Z</time>
      </trkpt>
      <trkpt lat="43.99863" lon="7.46357">
        <ele>1513</ele>
        <time>2017-09-17T10:40:11Z</time>
      </trkpt>
      <trkpt lat="43.99856" lon="7.46355">
        <ele>1513</ele>
        <time>2017-09-17T10:40:12Z</time>
      </trkpt>
      <trkpt lat="43.99849" lon="7.46354">
        <ele>1512</ele>
        <time>2017-09-17T10:40:13Z</time>
      </trkpt>
      <trkpt lat="43.99842" lon="7.46353">
        <ele>1511</ele>
        <time>2017-09-17T10:40:14Z</time>
      </trkpt>
      <trkpt lat="43.99835" lon="7.46353">
        <ele>1511</ele>
        <time>2017-09-17T10:40:15Z</time>
      </trkpt>
      <trkpt lat="43.99829" lon="7.46356">
        <ele>1510</ele>
        <time>2017-09-17T10:40:16Z</time>
      </trkpt>
      <trkpt lat="43.99823" lon="7.46361">
        <ele>1510</ele>
        <time>2017-09-17T10:40:17Z</time>
      </trkpt>
      <trkpt lat="43.99818" lon="7.46366">
        <ele>1509</ele>
        <time>2017-09-17T10:40:18Z</time>
      </trkpt>
      <trkpt lat="43.99812" lon="7.46371">
        <ele>1508</ele>
        <time>2017-09-17T10:40:19Z</time>
      </trkpt>
      <trkpt lat="43.99807" lon="7.46376">
        <ele>1508</ele>
        <time>2017-09-17T10:40:20Z</time>
      </trkpt>
      <trkpt lat="43.99802" lon="7.46381">
        <ele>1507</ele>
        <time>2017-09-17T10:40:21Z</time>
      </trkpt>
      <trkpt lat="43.99796" lon="7.46384">
        <ele>1507</ele>
        <time>2017-09-17T10:40:22Z</time>
      </trkpt>
      <trkpt lat="43.99788" lon="7.46386">
        <ele>1506</ele>
        <time>2017-09-17T10:40:23Z</time>
      </trkpt>
      <trkpt lat="43.99781" lon="7.46388">
        <ele>1506</ele>
        <time>2017-09-17T10:40:24Z</time>
      </trkpt>
      <trkpt lat="43.99773" lon="7.46391">
        <ele>1505</ele>
        <time>2017-09-17T10:40:25Z</time>
      </trkpt>
      <trkpt lat="43.99766" lon="7.46394">
        <ele>1505</ele>
        <time>2017-09-17T10:40:26Z</time>
      </trkpt>
      <trkpt lat="43.99758" lon="7.46397">
        <ele>1504</ele>
        <time>2017-09-17T10:40:27Z</time>
      </trkpt>
      <trkpt lat="43.99751" lon="7.464">
        <ele>1503</ele>
        <time>2017-09-17T10:40:28Z</time>
      </trkpt>
      <trkpt lat="43.99743" lon="7.46402">
        <ele>1503</ele>
        <time>2017-09-17T10:40:29Z</time>
      </trkpt>
      <trkpt lat="43.99735" lon="7.46402">
        <ele>1502</ele>
        <time>2017-09-17T10:40:30Z</time>
      </trkpt>
      <trkpt lat="43.99727" lon="7.46403">
        <ele>1502</ele>
        <time>2017-09-17T10:40:31Z</time>
      </trkpt>
      <trkpt lat="43.99719" lon="7.46403">
        <ele>1501</ele>
        <time>2017-09-17T10:40:32Z</time>
      </trkpt>
      <trkpt lat="43.99712" lon="7.46403">
        <ele>1501</ele>
        <time>2017-09-17T10:40:33Z</time>
      </trkpt>
      <trkpt lat="43.99705" lon="7.46403">
        <ele>1500</ele>
        <time>2017-09-17T10:40:34Z</time>
      </trkpt>
      <trkpt lat="43.99698" lon="7.46404">
        <ele>1500</ele>
        <time>2017-09-17T10:40:35Z</time>
      </trkpt>
      <trkpt lat="43.99691" lon="7.46405">
        <ele>1499</ele>
        <time>2017-09-17T10:40:36Z</time>
      </trkpt>
      <trkpt lat="43.99685" lon="7.46408">
        <ele>1499</ele>
        <time>2017-09-17T10:40:37Z</time>
      </trkpt>
      <trkpt lat="43.99678" lon="7.46414">
        <ele>1498</ele>
        <time>2017-09-17T10:40:38Z</time>
      </trkpt>
      <trkpt lat="43.99673" lon="7.4642">
        <ele>1498</ele>
        <time>2017-09-17T10:40:39Z</time>
      </trkpt>
      <trkpt lat="43.99668" lon="7.46427">
        <ele>1497</ele>
        <time>2017-09-17T10:40:40Z</time>
      </trkpt>
      <trkpt lat="43.99665" lon="7.46436">
        <ele>1496</ele>
        <time>2017-09-17T10:40:41Z</time>
      </trkpt>
      <trkpt lat="43.99664" lon="7.46445">
        <ele>1496</ele>
        <time>2017-09-17T10:40:42Z</time>
      </trkpt>
      <trkpt lat="43.99663" lon="7.46454">
        <ele>1495</ele>
        <time>2017-09-17T10:40:43Z</time>
      </trkpt>
      <trkpt lat="43.99661" lon="7.46462">
        <ele>1495</ele>
        <time>2017-09-17T10:40:44Z</time>
      </trkpt>
      <trkpt lat="43.9966" lon="7.46469">
        <ele>1495</ele>
        <time>2017-09-17T10:40:45Z</time>
      </trkpt>
      <trkpt lat="43.99657" lon="7.46476">
        <ele>1494</ele>
        <time>2017-09-17T10:40:46Z</time>
      </trkpt>
      <trkpt lat="43.99654" lon="7.46482">
        <ele>1494</ele>
        <time>2017-09-17T10:40:47Z</time>
      </trkpt>
      <trkpt lat="43.9965" lon="7.46487">
        <ele>1494</ele>
        <time>2017-09-17T10:40:48Z</time>
      </trkpt>
      <trkpt lat="43.99645" lon="7.46492">
        <ele>1493</ele>
        <time>2017-09-17T10:40:49Z</time>
      </trkpt>
      <trkpt lat="43.99641" lon="7.46498">
        <ele>1493</ele>
        <time>2017-09-17T10:40:50Z</time>
      </trkpt>
      <trkpt lat="43.99637" lon="7.46505">
        <ele>1493</ele>
        <time>2017-09-17T10:40:51Z</time>
      </trkpt>
      <trkpt lat="43.99633" lon="7.46512">
        <ele>1493</ele>
        <time>2017-09-17T10:40:52Z</time>
      </trkpt>
      <trkpt lat="43.99629" lon="7.4652">
        <ele>1493</ele>
        <time>2017-09-17T10:40:53Z</time>
      </trkpt>
      <trkpt lat="43.99625" lon="7.4653">
        <ele>1492</ele>
        <time>2017-09-17T10:40:54Z</time>
      </trkpt>
      <trkpt lat="43.99621" lon="7.4654">
        <ele>1492</ele>
        <time>2017-09-17T10:40:55Z</time>
      </trkpt>
      <trkpt lat="43.99618" lon="7.46551">
        <ele>1492</ele>
        <time>2017-09-17T10:40:56Z</time>
      </trkpt>
      <trkpt lat="43.99616" lon="7.46562">
        <ele>1491</ele>
        <time>2017-09-17T10:40:57Z</time>
      </trkpt>
      <trkpt lat="43.99613" lon="7.46574">
        <ele>1491</ele>
        <time>2017-09-17T10:40:58Z</time>
      </trkpt>
      <trkpt lat="43.9961" lon="7.46585">
        <ele>1490</ele>
        <time>2017-09-17T10:40:59Z</time>
      </trkpt>
      <trkpt lat="43.99608" lon="7.46596">
        <ele>1489</ele>
        <time>2017-09-17T10:41:00Z</time>
      </trkpt>
      <trkpt lat="43.99606" lon="7.46605">
        <ele>1489</ele>
        <time>2017-09-17T10:41:01Z</time>
      </trkpt>
      <trkpt lat="43.99603" lon="7.46614">
        <ele>1488</ele>
        <time>2017-09-17T10:41:02Z</time>
      </trkpt>
      <trkpt lat="43.99601" lon="7.46622">
        <ele>1488</ele>
        <time>2017-09-17T10:41:03Z</time>
      </trkpt>
      <trkpt lat="43.99597" lon="7.46629">
        <ele>1487</ele>
        <time>2017-09-17T10:41:04Z</time>
      </trkpt>
      <trkpt lat="43.99592" lon="7.46635">
        <ele>1486</ele>
        <time>2017-09-17T10:41:05Z</time>
      </trkpt>
      <trkpt lat="43.99587" lon="7.46642">
        <ele>1486</ele>
        <time>2017-09-17T10:41:06Z</time>
      </trkpt>
      <trkpt lat="43.99583" lon="7.46649">
        <ele>1485</ele>
        <time>2017-09-17T10:41:07Z</time>
      </trkpt>
      <trkpt lat="43.9958" lon="7.46656">
        <ele>1485</ele>
        <time>2017-09-17T10:41:08Z</time>
      </trkpt>
      <trkpt lat="43.99577" lon="7.46664">
        <ele>1484</ele>
        <time>2017-09-17T10:41:09Z</time>
      </trkpt>
      <trkpt lat="43.99575" lon="7.46672">
        <ele>1484</ele>
        <time>2017-09-17T10:41:10Z</time>
      </trkpt>
      <trkpt lat="43.99573" lon="7.46681">
        <ele>1484</ele>
        <time>2017-09-17T10:41:11Z</time>
      </trkpt>
      <trkpt lat="43.99572" lon="7.4669">
        <ele>1483</ele>
        <time>2017-09-17T10:41:12Z</time>
      </trkpt>
      <trkpt lat="43.99572" lon="7.46699">
        <ele>1483</ele>
        <time>2017-09-17T10:41:13Z</time>
      </trkpt>
      <trkpt lat="43.99573" lon="7.46709">
        <ele>1483</ele>
        <time>2017-09-17T10:41:14Z</time>
      </trkpt>
      <trkpt lat="43.99576" lon="7.46718">
        <ele>1482</ele>
        <time>2017-09-17T10:41:15Z</time>
      </trkpt>
      <trkpt lat="43.99579" lon="7.46727">
        <ele>1482</ele>
        <time>2017-09-17T10:41:16Z</time>
      </trkpt>
      <trkpt lat="43.9958" lon="7.46736">
        <ele>1482</ele>
        <time>2017-09-17T10:41:17Z</time>
      </trkpt>
      <trkpt lat="43.9958" lon="7.46746">
        <ele>1482</ele>
        <time>2017-09-17T10:41:18Z</time>
      </trkpt>
      <trkpt lat="43.9958" lon="7.46757">
        <ele>1481</ele>
        <time>2017-09-17T10:41:19Z</time>
      </trkpt>
      <trkpt lat="43.9958" lon="7.46767">
        <ele>1481</ele>
        <time>2017-09-17T10:41:20Z</time>
      </trkpt>
      <trkpt lat="43.99581" lon="7.46776">
        <ele>1481</ele>
        <time>2017-09-17T10:41:21Z</time>
      </trkpt>
      <trkpt lat="43.99581" lon="7.46786">
        <ele>1480</ele>
        <time>2017-09-17T10:41:22Z</time>
      </trkpt>
      <trkpt lat="43.99581" lon="7.46795">
        <ele>1480</ele>
        <time>2017-09-17T10:41:23Z</time>
      </trkpt>
      <trkpt lat="43.99581" lon="7.46804">
        <ele>1479</ele>
        <time>2017-09-17T10:41:24Z</time>
      </trkpt>
      <trkpt lat="43.99579" lon="7.46813">
        <ele>1479</ele>
        <time>2017-09-17T10:41:25Z</time>
      </trkpt>
      <trkpt lat="43.99577" lon="7.46821">
        <ele>1478</ele>
        <time>2017-09-17T10:41:26Z</time>
      </trkpt>
      <trkpt lat="43.99573" lon="7.46828">
        <ele>1478</ele>
        <time>2017-09-17T10:41:27Z</time>
      </trkpt>
      <trkpt lat="43.99569" lon="7.46833">
        <ele>1477</ele>
        <time>2017-09-17T10:41:28Z</time>
      </trkpt>
      <trkpt lat="43.99565" lon="7.46838">
        <ele>1476</ele>
        <time>2017-09-17T10:41:29Z</time>
      </trkpt>
      <trkpt lat="43.99559" lon="7.46844">
        <ele>1475</ele>
        <time>2017-09-17T10:41:30Z</time>
      </trkpt>
      <trkpt lat="43.99555" lon="7.4685">
        <ele>1475</ele>
        <time>2017-09-17T10:41:31Z</time>
      </trkpt>
      <trkpt lat="43.99551" lon="7.46855">
        <ele>1474</ele>
        <time>2017-09-17T10:41:32Z</time>
      </trkpt>
      <trkpt lat="43.99547" lon="7.46861">
        <ele>1473</ele>
        <time>2017-09-17T10:41:33Z</time>
      </trkpt>
      <trkpt lat="43.99544" lon="7.46868">
        <ele>1472</ele>
        <time>2017-09-17T10:41:34Z</time>
      </trkpt>
      <trkpt lat="43.99541" lon="7.46874">
        <ele>1472</ele>
        <time>2017-09-17T10:41:35Z</time>
      </trkpt>
      <trkpt lat="43.99541" lon="7.46882">
        <ele>1471</ele>
        <time>2017-09-17T10:41:36Z</time>
      </trkpt>
      <trkpt lat="43.99541" lon="7.46891">
        <ele>1470</ele>
        <time>2017-09-17T10:41:37Z</time>
      </trkpt>
      <trkpt lat="43.99542" lon="7.46899">
        <ele>1470</ele>
        <time>2017-09-17T10:41:38Z</time>
      </trkpt>
      <trkpt lat="43.99542" lon="7.46908">
        <ele>1469</ele>
        <time>2017-09-17T10:41:39Z</time>
      </trkpt>
      <trkpt lat="43.99541" lon="7.46917">
        <ele>1469</ele>
        <time>2017-09-17T10:41:40Z</time>
      </trkpt>
      <trkpt lat="43.99539" lon="7.46926">
        <ele>1468</ele>
        <time>2017-09-17T10:41:41Z</time>
      </trkpt>
      <trkpt lat="43.99537" lon="7.46935">
        <ele>1468</ele>
        <time>2017-09-17T10:41:42Z</time>
      </trkpt>
      <trkpt lat="43.99535" lon="7.46944">
        <ele>1467</ele>
        <time>2017-09-17T10:41:43Z</time>
      </trkpt>
      <trkpt lat="43.99533" lon="7.46953">
        <ele>1467</ele>
        <time>2017-09-17T10:41:44Z</time>
      </trkpt>
      <trkpt lat="43.99531" lon="7.46962">
        <ele>1466</ele>
        <time>2017-09-17T10:41:45Z</time>
      </trkpt>
      <trkpt lat="43.99531" lon="7.46971">
        <ele>1465</ele>
        <time>2017-09-17T10:41:46Z</time>
      </trkpt>
      <trkpt lat="43.99533" lon="7.46979">
        <ele>1465</ele>
        <time>2017-09-17T10:41:47Z</time>
      </trkpt>
      <trkpt lat="43.99535" lon="7.46986">
        <ele>1464</ele>
        <time>2017-09-17T10:41:48Z</time>
      </trkpt>
      <trkpt lat="43.99538" lon="7.46993">
        <ele>1464</ele>
        <time>2017-09-17T10:41:49Z</time>
      </trkpt>
      <trkpt lat="43.99543" lon="7.46999">
        <ele>1463</ele>
        <time>2017-09-17T10:41:50Z</time>
      </trkpt>
      <trkpt lat="43.99548" lon="7.47003">
        <ele>1462</ele>
        <time>2017-09-17T10:41:51Z</time>
      </trkpt>
      <trkpt lat="43.99553" lon="7.47007">
        <ele>1462</ele>
        <time>2017-09-17T10:41:52Z</time>
      </trkpt>
      <trkpt lat="43.99557" lon="7.47011">
        <ele>1461</ele>
        <time>2017-09-17T10:41:53Z</time>
      </trkpt>
      <trkpt lat="43.9956" lon="7.47016">
        <ele>1460</ele>
        <time>2017-09-17T10:41:54Z</time>
      </trkpt>
      <trkpt lat="43.99563" lon="7.47022">
        <ele>1460</ele>
        <time>2017-09-17T10:41:55Z</time>
      </trkpt>
      <trkpt lat="43.99564" lon="7.47029">
        <ele>1459</ele>
        <time>2017-09-17T10:41:56Z</time>
      </trkpt>
      <trkpt lat="43.99566" lon="7.47036">
        <ele>1458</ele>
        <time>2017-09-17T10:41:57Z</time>
      </trkpt>
      <trkpt lat="43.99567" lon="7.47044">
        <ele>1458</ele>
        <time>2017-09-17T10:41:58Z</time>
      </trkpt>
      <trkpt lat="43.99567" lon="7.47052">
        <ele>1457</ele>
        <time>2017-09-17T10:41:59Z</time>
      </trkpt>
      <trkpt lat="43.99567" lon="7.4706">
        <ele>1457</ele>
        <time>2017-09-17T10:42:00Z</time>
      </trkpt>
      <trkpt lat="43.99566" lon="7.47068">
        <ele>1456</ele>
        <time>2017-09-17T10:42:01Z</time>
      </trkpt>
      <trkpt lat="43.99565" lon="7.47076">
        <ele>1456</ele>
        <time>2017-09-17T10:42:02Z</time>
      </trkpt>
      <trkpt lat="43.99565" lon="7.47085">
        <ele>1455</ele>
        <time>2017-09-17T10:42:03Z</time>
      </trkpt>
      <trkpt lat="43.99564" lon="7.47094">
        <ele>1455</ele>
        <time>2017-09-17T10:42:04Z</time>
      </trkpt>
      <trkpt lat="43.99564" lon="7.47103">
        <ele>1454</ele>
        <time>2017-09-17T10:42:05Z</time>
      </trkpt>
      <trkpt lat="43.99563" lon="7.47112">
        <ele>1454</ele>
        <time>2017-09-17T10:42:06Z</time>
      </trkpt>
      <trkpt lat="43.99562" lon="7.47121">
        <ele>1454</ele>
        <time>2017-09-17T10:42:07Z</time>
      </trkpt>
      <trkpt lat="43.99561" lon="7.47131">
        <ele>1453</ele>
        <time>2017-09-17T10:42:08Z</time>
      </trkpt>
      <trkpt lat="43.99559" lon="7.4714">
        <ele>1453</ele>
        <time>2017-09-17T10:42:09Z</time>
      </trkpt>
      <trkpt lat="43.99557" lon="7.47148">
        <ele>1452</ele>
        <time>2017-09-17T10:42:10Z</time>
      </trkpt>
      <trkpt lat="43.99553" lon="7.47156">
        <ele>1451</ele>
        <time>2017-09-17T10:42:11Z</time>
      </trkpt>
      <trkpt lat="43.99549" lon="7.47164">
        <ele>1451</ele>
        <time>2017-09-17T10:42:12Z</time>
      </trkpt>
      <trkpt lat="43.99544" lon="7.4717">
        <ele>1450</ele>
        <time>2017-09-17T10:42:13Z</time>
      </trkpt>
      <trkpt lat="43.99538" lon="7.47177">
        <ele>1449</ele>
        <time>2017-09-17T10:42:14Z</time>
      </trkpt>
      <trkpt lat="43.99533" lon="7.47184">
        <ele>1448</ele>
        <time>2017-09-17T10:42:15Z</time>
      </trkpt>
      <trkpt lat="43.99527" lon="7.47193">
        <ele>1447</ele>
        <time>2017-09-17T10:42:16Z</time>
      </trkpt>
      <trkpt lat="43.99522" lon="7.472">
        <ele>1447</ele>
        <time>2017-09-17T10:42:17Z</time>
      </trkpt>
      <trkpt lat="43.99517" lon="7.47206">
        <ele>1446</ele>
        <time>2017-09-17T10:42:18Z</time>
      </trkpt>
      <trkpt lat="43.9951" lon="7.47212">
        <ele>1445</ele>
        <time>2017-09-17T10:42:19Z</time>
      </trkpt>
      <trkpt lat="43.99504" lon="7.47218">
        <ele>1444</ele>
        <time>2017-09-17T10:42:20Z</time>
      </trkpt>
      <trkpt lat="43.99498" lon="7.47223">
        <ele>1444</ele>
        <time>2017-09-17T10:42:21Z</time>
      </trkpt>
      <trkpt lat="43.99493" lon="7.47229">
        <ele>1443</ele>
        <time>2017-09-17T10:42:22Z</time>
      </trkpt>
      <trkpt lat="43.99487" lon="7.47235">
        <ele>1442</ele>
        <time>2017-09-17T10:42:23Z</time>
      </trkpt>
      <trkpt lat="43.99482" lon="7.47241">
        <ele>1442</ele>
        <time>2017-09-17T10:42:24Z</time>
      </trkpt>
      <trkpt lat="43.99479" lon="7.47248">
        <ele>1441</ele>
        <time>2017-09-17T10:42:25Z</time>
      </trkpt>
      <trkpt lat="43.99478" lon="7.47256">
        <ele>1440</ele>
        <time>2017-09-17T10:42:26Z</time>
      </trkpt>
      <trkpt lat="43.99479" lon="7.47264">
        <ele>1440</ele>
        <time>2017-09-17T10:42:27Z</time>
      </trkpt>
      <trkpt lat="43.99482" lon="7.47271">
        <ele>1439</ele>
        <time>2017-09-17T10:42:28Z</time>
      </trkpt>
      <trkpt lat="43.99486" lon="7.47279">
        <ele>1439</ele>
        <time>2017-09-17T10:42:29Z</time>
      </trkpt>
      <trkpt lat="43.9949" lon="7.47286">
        <ele>1438</ele>
        <time>2017-09-17T10:42:30Z</time>
      </trkpt>
      <trkpt lat="43.99494" lon="7.47293">
        <ele>1437</ele>
        <time>2017-09-17T10:42:31Z</time>
      </trkpt>
      <trkpt lat="43.99497" lon="7.473">
        <ele>1437</ele>
        <time>2017-09-17T10:42:32Z</time>
      </trkpt>
      <trkpt lat="43.99499" lon="7.47307">
        <ele>1436</ele>
        <time>2017-09-17T10:42:33Z</time>
      </trkpt>
      <trkpt lat="43.99499" lon="7.47314">
        <ele>1436</ele>
        <time>2017-09-17T10:42:34Z</time>
      </trkpt>
      <trkpt lat="43.99498" lon="7.47321">
        <ele>1435</ele>
        <time>2017-09-17T10:42:35Z</time>
      </trkpt>
      <trkpt lat="43.99496" lon="7.47327">
        <ele>1435</ele>
        <time>2017-09-17T10:42:36Z</time>
      </trkpt>
      <trkpt lat="43.99494" lon="7.47331">
        <ele>1434</ele>
        <time>2017-09-17T10:42:37Z</time>
      </trkpt>
      <trkpt lat="43.99492" lon="7.47337">
        <ele>1434</ele>
        <time>2017-09-17T10:42:38Z</time>
      </trkpt>
      <trkpt lat="43.99489" lon="7.47344">
        <ele>1433</ele>
        <time>2017-09-17T10:42:39Z</time>
      </trkpt>
      <trkpt lat="43.99485" lon="7.47351">
        <ele>1433</ele>
        <time>2017-09-17T10:42:40Z</time>
      </trkpt>
      <trkpt lat="43.99482" lon="7.47359">
        <ele>1432</ele>
        <time>2017-09-17T10:42:41Z</time>
      </trkpt>
      <trkpt lat="43.99478" lon="7.47367">
        <ele>1432</ele>
        <time>2017-09-17T10:42:42Z</time>
      </trkpt>
      <trkpt lat="43.99476" lon="7.47376">
        <ele>1431</ele>
        <time>2017-09-17T10:42:43Z</time>
      </trkpt>
      <trkpt lat="43.99473" lon="7.47384">
        <ele>1431</ele>
        <time>2017-09-17T10:42:44Z</time>
      </trkpt>
      <trkpt lat="43.99473" lon="7.47392">
        <ele>1430</ele>
        <time>2017-09-17T10:42:45Z</time>
      </trkpt>
      <trkpt lat="43.99475" lon="7.47402">
        <ele>1430</ele>
        <time>2017-09-17T10:42:46Z</time>
      </trkpt>
      <trkpt lat="43.99476" lon="7.47412">
        <ele>1429</ele>
        <time>2017-09-17T10:42:47Z</time>
      </trkpt>
      <trkpt lat="43.99478" lon="7.47423">
        <ele>1429</ele>
        <time>2017-09-17T10:42:48Z</time>
      </trkpt>
      <trkpt lat="43.99482" lon="7.47433">
        <ele>1429</ele>
        <time>2017-09-17T10:42:49Z</time>
      </trkpt>
      <trkpt lat="43.99486" lon="7.47442">
        <ele>1428</ele>
        <time>2017-09-17T10:42:50Z</time>
      </trkpt>
      <trkpt lat="43.99492" lon="7.4745">
        <ele>1428</ele>
        <time>2017-09-17T10:42:51Z</time>
      </trkpt>
      <trkpt lat="43.99497" lon="7.47457">
        <ele>1427</ele>
        <time>2017-09-17T10:42:52Z</time>
      </trkpt>
      <trkpt lat="43.99502" lon="7.47462">
        <ele>1427</ele>
        <time>2017-09-17T10:42:53Z</time>
      </trkpt>
      <trkpt lat="43.99508" lon="7.47469">
        <ele>1426</ele>
        <time>2017-09-17T10:42:54Z</time>
      </trkpt>
      <trkpt lat="43.99513" lon="7.47476">
        <ele>1426</ele>
        <time>2017-09-17T10:42:55Z</time>
      </trkpt>
      <trkpt lat="43.99519" lon="7.47484">
        <ele>1425</ele>
        <time>2017-09-17T10:42:56Z</time>
      </trkpt>
      <trkpt lat="43.99523" lon="7.47492">
        <ele>1425</ele>
        <time>2017-09-17T10:42:57Z</time>
      </trkpt>
      <trkpt lat="43.99526" lon="7.47502">
        <ele>1424</ele>
        <time>2017-09-17T10:42:58Z</time>
      </trkpt>
      <trkpt lat="43.99527" lon="7.47512">
        <ele>1423</ele>
        <time>2017-09-17T10:42:59Z</time>
      </trkpt>
      <trkpt lat="43.99527" lon="7.47522">
        <ele>1423</ele>
        <time>2017-09-17T10:43:00Z</time>
      </trkpt>
      <trkpt lat="43.99528" lon="7.47533">
        <ele>1422</ele>
        <time>2017-09-17T10:43:01Z</time>
      </trkpt>
      <trkpt lat="43.99528" lon="7.47544">
        <ele>1421</ele>
        <time>2017-09-17T10:43:02Z</time>
      </trkpt>
      <trkpt lat="43.9953" lon="7.47555">
        <ele>1420</ele>
        <time>2017-09-17T10:43:03Z</time>
      </trkpt>
      <trkpt lat="43.99533" lon="7.47565">
        <ele>1419</ele>
        <time>2017-09-17T10:43:04Z</time>
      </trkpt>
      <trkpt lat="43.99537" lon="7.47575">
        <ele>1418</ele>
        <time>2017-09-17T10:43:05Z</time>
      </trkpt>
      <trkpt lat="43.9954" lon="7.47585">
        <ele>1417</ele>
        <time>2017-09-17T10:43:06Z</time>
      </trkpt>
      <trkpt lat="43.99542" lon="7.47596">
        <ele>1417</ele>
        <time>2017-09-17T10:43:07Z</time>
      </trkpt>
      <trkpt lat="43.99545" lon="7.47606">
        <ele>1416</ele>
        <time>2017-09-17T10:43:08Z</time>
      </trkpt>
      <trkpt lat="43.99548" lon="7.47617">
        <ele>1416</ele>
        <time>2017-09-17T10:43:09Z</time>
      </trkpt>
      <trkpt lat="43.99551" lon="7.47626">
        <ele>1415</ele>
        <time>2017-09-17T10:43:10Z</time>
      </trkpt>
      <trkpt lat="43.99554" lon="7.47636">
        <ele>1415</ele>
        <time>2017-09-17T10:43:11Z</time>
      </trkpt>
      <trkpt lat="43.99558" lon="7.47644">
        <ele>1414</ele>
        <time>2017-09-17T10:43:12Z</time>
      </trkpt>
      <trkpt lat="43.99562" lon="7.47652">
        <ele>1414</ele>
        <time>2017-09-17T10:43:13Z</time>
      </trkpt>
      <trkpt lat="43.99566" lon="7.47658">
        <ele>1413</ele>
        <time>2017-09-17T10:43:14Z</time>
      </trkpt>
      <trkpt lat="43.99572" lon="7.47663">
        <ele>1413</ele>
        <time>2017-09-17T10:43:15Z</time>
      </trkpt>
      <trkpt lat="43.99578" lon="7.47666">
        <ele>1412</ele>
        <time>2017-09-17T10:43:16Z</time>
      </trkpt>
      <trkpt lat="43.99585" lon="7.47669">
        <ele>1412</ele>
        <time>2017-09-17T10:43:17Z</time>
      </trkpt>
      <trkpt lat="43.99591" lon="7.47672">
        <ele>1411</ele>
        <time>2017-09-17T10:43:18Z</time>
      </trkpt>
      <trkpt lat="43.99598" lon="7.47677">
        <ele>1411</ele>
        <time>2017-09-17T10:43:19Z</time>
      </trkpt>
      <trkpt lat="43.99605" lon="7.47683">
        <ele>1411</ele>
        <time>2017-09-17T10:43:20Z</time>
      </trkpt>
      <trkpt lat="43.9961" lon="7.4769">
        <ele>1410</ele>
        <time>2017-09-17T10:43:21Z</time>
      </trkpt>
      <trkpt lat="43.99614" lon="7.47699">
        <ele>1410</ele>
        <time>2017-09-17T10:43:22Z</time>
      </trkpt>
      <trkpt lat="43.99617" lon="7.47708">
        <ele>1409</ele>
        <time>2017-09-17T10:43:23Z</time>
      </trkpt>
      <trkpt lat="43.9962" lon="7.47718">
        <ele>1409</ele>
        <time>2017-09-17T10:43:24Z</time>
      </trkpt>
      <trkpt lat="43.99621" lon="7.47729">
        <ele>1408</ele>
        <time>2017-09-17T10:43:25Z</time>
      </trkpt>
      <trkpt lat="43.99621" lon="7.47738">
        <ele>1408</ele>
        <time>2017-09-17T10:43:26Z</time>
      </trkpt>
      <trkpt lat="43.9962" lon="7.47747">
        <ele>1407</ele>
        <time>2017-09-17T10:43:27Z</time>
      </trkpt>
      <trkpt lat="43.99617" lon="7.47755">
        <ele>1407</ele>
        <time>2017-09-17T10:43:28Z</time>
      </trkpt>
      <trkpt lat="43.99613" lon="7.47763">
        <ele>1406</ele>
        <time>2017-09-17T10:43:29Z</time>
      </trkpt>
      <trkpt lat="43.99608" lon="7.47769">
        <ele>1405</ele>
        <time>2017-09-17T10:43:30Z</time>
      </trkpt>
      <trkpt lat="43.99603" lon="7.47774">
        <ele>1404</ele>
        <time>2017-09-17T10:43:31Z</time>
      </trkpt>
      <trkpt lat="43.99597" lon="7.47779">
        <ele>1404</ele>
        <time>2017-09-17T10:43:32Z</time>
      </trkpt>
      <trkpt lat="43.9959" lon="7.47783">
        <ele>1403</ele>
        <time>2017-09-17T10:43:33Z</time>
      </trkpt>
      <trkpt lat="43.99583" lon="7.47786">
        <ele>1402</ele>
        <time>2017-09-17T10:43:34Z</time>
      </trkpt>
      <trkpt lat="43.99576" lon="7.4779">
        <ele>1401</ele>
        <time>2017-09-17T10:43:35Z</time>
      </trkpt>
      <trkpt lat="43.99568" lon="7.47795">
        <ele>1401</ele>
        <time>2017-09-17T10:43:36Z</time>
      </trkpt>
      <trkpt lat="43.9956" lon="7.47799">
        <ele>1400</ele>
        <time>2017-09-17T10:43:37Z</time>
      </trkpt>
      <trkpt lat="43.99553" lon="7.47803">
        <ele>1400</ele>
        <time>2017-09-17T10:43:38Z</time>
      </trkpt>
      <trkpt lat="43.99547" lon="7.47804">
        <ele>1399</ele>
        <time>2017-09-17T10:43:39Z</time>
      </trkpt>
      <trkpt lat="43.9954" lon="7.47805">
        <ele>1399</ele>
        <time>2017-09-17T10:43:40Z</time>
      </trkpt>
      <trkpt lat="43.99534" lon="7.47803">
        <ele>1398</ele>
        <time>2017-09-17T10:43:41Z</time>
      </trkpt>
      <trkpt lat="43.99528" lon="7.47801">
        <ele>1398</ele>
        <time>2017-09-17T10:43:42Z</time>
      </trkpt>
      <trkpt lat="43.99522" lon="7.47797">
        <ele>1397</ele>
        <time>2017-09-17T10:43:43Z</time>
      </trkpt>
      <trkpt lat="43.99516" lon="7.47792">
        <ele>1397</ele>
        <time>2017-09-17T10:43:44Z</time>
      </trkpt>
      <trkpt lat="43.9951" lon="7.47787">
        <ele>1397</ele>
        <time>2017-09-17T10:43:45Z</time>
      </trkpt>
      <trkpt lat="43.99505" lon="7.47782">
        <ele>1397</ele>
        <time>2017-09-17T10:43:46Z</time>
      </trkpt>
      <trkpt lat="43.99499" lon="7.47778">
        <ele>1396</ele>
        <time>2017-09-17T10:43:47Z</time>
      </trkpt>
      <trkpt lat="43.99492" lon="7.47773">
        <ele>1396</ele>
        <time>2017-09-17T10:43:48Z</time>
      </trkpt>
      <trkpt lat="43.99486" lon="7.47768">
        <ele>1396</ele>
        <time>2017-09-17T10:43:49Z</time>
      </trkpt>
      <trkpt lat="43.99481" lon="7.47763">
        <ele>1396</ele>
        <time>2017-09-17T10:43:50Z</time>
      </trkpt>
      <trkpt lat="43.99475" lon="7.47761">
        <ele>1395</ele>
        <time>2017-09-17T10:43:51Z</time>
      </trkpt>
      <trkpt lat="43.99468" lon="7.47763">
        <ele>1395</ele>
        <time>2017-09-17T10:43:52Z</time>
      </trkpt>
      <trkpt lat="43.99462" lon="7.47769">
        <ele>1395</ele>
        <time>2017-09-17T10:43:53Z</time>
      </trkpt>
      <trkpt lat="43.99456" lon="7.47775">
        <ele>1395</ele>
        <time>2017-09-17T10:43:54Z</time>
      </trkpt>
      <trkpt lat="43.9945" lon="7.47781">
        <ele>1394</ele>
        <time>2017-09-17T10:43:55Z</time>
      </trkpt>
      <trkpt lat="43.99444" lon="7.47788">
        <ele>1394</ele>
        <time>2017-09-17T10:43:56Z</time>
      </trkpt>
      <trkpt lat="43.99438" lon="7.47796">
        <ele>1393</ele>
        <time>2017-09-17T10:43:57Z</time>
      </trkpt>
      <trkpt lat="43.99433" lon="7.47803">
        <ele>1393</ele>
        <time>2017-09-17T10:43:58Z</time>
      </trkpt>
      <trkpt lat="43.9943" lon="7.4781">
        <ele>1392</ele>
        <time>2017-09-17T10:43:59Z</time>
      </trkpt>
      <trkpt lat="43.99426" lon="7.47817">
        <ele>1392</ele>
        <time>2017-09-17T10:44:00Z</time>
      </trkpt>
      <trkpt lat="43.99423" lon="7.47824">
        <ele>1392</ele>
        <time>2017-09-17T10:44:01Z</time>
      </trkpt>
      <trkpt lat="43.99419" lon="7.47831">
        <ele>1391</ele>
        <time>2017-09-17T10:44:02Z</time>
      </trkpt>
      <trkpt lat="43.99415" lon="7.47837">
        <ele>1391</ele>
        <time>2017-09-17T10:44:03Z</time>
      </trkpt>
      <trkpt lat="43.99411" lon="7.47844">
        <ele>1390</ele>
        <time>2017-09-17T10:44:04Z</time>
      </trkpt>
      <trkpt lat="43.99406" lon="7.47849">
        <ele>1390</ele>
        <time>2017-09-17T10:44:05Z</time>
      </trkpt>
      <trkpt lat="43.99401" lon="7.47855">
        <ele>1389</ele>
        <time>2017-09-17T10:44:06Z</time>
      </trkpt>
      <trkpt lat="43.99395" lon="7.4786">
        <ele>1389</ele>
        <time>2017-09-17T10:44:07Z</time>
      </trkpt>
      <trkpt lat="43.99389" lon="7.47866">
        <ele>1388</ele>
        <time>2017-09-17T10:44:08Z</time>
      </trkpt>
      <trkpt lat="43.99384" lon="7.47873">
        <ele>1388</ele>
        <time>2017-09-17T10:44:09Z</time>
      </trkpt>
      <trkpt lat="43.99379" lon="7.47881">
        <ele>1387</ele>
        <time>2017-09-17T10:44:10Z</time>
      </trkpt>
      <trkpt lat="43.99374" lon="7.47888">
        <ele>1387</ele>
        <time>2017-09-17T10:44:11Z</time>
      </trkpt>
      <trkpt lat="43.9937" lon="7.47893">
        <ele>1386</ele>
        <time>2017-09-17T10:44:12Z</time>
      </trkpt>
      <trkpt lat="43.99366" lon="7.47897">
        <ele>1386</ele>
        <time>2017-09-17T10:44:13Z</time>
      </trkpt>
      <trkpt lat="43.99361" lon="7.47903">
        <ele>1385</ele>
        <time>2017-09-17T10:44:14Z</time>
      </trkpt>
      <trkpt lat="43.99357" lon="7.47909">
        <ele>1385</ele>
        <time>2017-09-17T10:44:15Z</time>
      </trkpt>
      <trkpt lat="43.99353" lon="7.47917">
        <ele>1384</ele>
        <time>2017-09-17T10:44:16Z</time>
      </trkpt>
      <trkpt lat="43.99351" lon="7.47925">
        <ele>1383</ele>
        <time>2017-09-17T10:44:17Z</time>
      </trkpt>
      <trkpt lat="43.99348" lon="7.47933">
        <ele>1383</ele>
        <time>2017-09-17T10:44:18Z</time>
      </trkpt>
      <trkpt lat="43.99344" lon="7.4794">
        <ele>1382</ele>
        <time>2017-09-17T10:44:19Z</time>
      </trkpt>
      <trkpt lat="43.99339" lon="7.47947">
        <ele>1382</ele>
        <time>2017-09-17T10:44:20Z</time>
      </trkpt>
      <trkpt lat="43.99333" lon="7.47954">
        <ele>1381</ele>
        <time>2017-09-17T10:44:21Z</time>
      </trkpt>
      <trkpt lat="43.99328" lon="7.47962">
        <ele>1381</ele>
        <time>2017-09-17T10:44:22Z</time>
      </trkpt>
      <trkpt lat="43.99324" lon="7.47971">
        <ele>1380</ele>
        <time>2017-09-17T10:44:23Z</time>
      </trkpt>
      <trkpt lat="43.99319" lon="7.4798">
        <ele>1380</ele>
        <time>2017-09-17T10:44:24Z</time>
      </trkpt>
      <trkpt lat="43.99314" lon="7.47989">
        <ele>1380</ele>
        <time>2017-09-17T10:44:25Z</time>
      </trkpt>
      <trkpt lat="43.99309" lon="7.47997">
        <ele>1379</ele>
        <time>2017-09-17T10:44:26Z</time>
      </trkpt>
      <trkpt lat="43.99304" lon="7.48005">
        <ele>1379</ele>
        <time>2017-09-17T10:44:27Z</time>
      </trkpt>
      <trkpt lat="43.99298" lon="7.48011">
        <ele>1378</ele>
        <time>2017-09-17T10:44:28Z</time>
      </trkpt>
      <trkpt lat="43.99292" lon="7.48016">
        <ele>1378</ele>
        <time>2017-09-17T10:44:29Z</time>
      </trkpt>
      <trkpt lat="43.99285" lon="7.48018">
        <ele>1377</ele>
        <time>2017-09-17T10:44:30Z</time>
      </trkpt>
      <trkpt lat="43.99279" lon="7.4802">
        <ele>1377</ele>
        <time>2017-09-17T10:44:31Z</time>
      </trkpt>
      <trkpt lat="43.99273" lon="7.48025">
        <ele>1376</ele>
        <time>2017-09-17T10:44:32Z</time>
      </trkpt>
      <trkpt lat="43.99267" lon="7.48032">
        <ele>1375</ele>
        <time>2017-09-17T10:44:33Z</time>
      </trkpt>
      <trkpt lat="43.99261" lon="7.4804">
        <ele>1374</ele>
        <time>2017-09-17T10:44:34Z</time>
      </trkpt>
      <trkpt lat="43.99257" lon="7.48049">
        <ele>1374</ele>
        <time>2017-09-17T10:44:35Z</time>
      </trkpt>
      <trkpt lat="43.99253" lon="7.48057">
        <ele>1373</ele>
        <time>2017-09-17T10:44:36Z</time>
      </trkpt>
      <trkpt lat="43.99248" lon="7.48065">
        <ele>1372</ele>
        <time>2017-09-17T10:44:37Z</time>
      </trkpt>
      <trkpt lat="43.99245" lon="7.48074">
        <ele>1372</ele>
        <time>2017-09-17T10:44:38Z</time>
      </trkpt>
      <trkpt lat="43.99243" lon="7.48083">
        <ele>1371</ele>
        <time>2017-09-17T10:44:39Z</time>
      </trkpt>
      <trkpt lat="43.99242" lon="7.48093">
        <ele>1371</ele>
        <time>2017-09-17T10:44:40Z</time>
      </trkpt>
      <trkpt lat="43.99244" lon="7.48102">
        <ele>1370</ele>
        <time>2017-09-17T10:44:41Z</time>
      </trkpt>
      <trkpt lat="43.99247" lon="7.48112">
        <ele>1369</ele>
        <time>2017-09-17T10:44:42Z</time>
      </trkpt>
      <trkpt lat="43.99251" lon="7.4812">
        <ele>1369</ele>
        <time>2017-09-17T10:44:43Z</time>
      </trkpt>
      <trkpt lat="43.99257" lon="7.48128">
        <ele>1368</ele>
        <time>2017-09-17T10:44:44Z</time>
      </trkpt>
      <trkpt lat="43.99262" lon="7.48135">
        <ele>1367</ele>
        <time>2017-09-17T10:44:45Z</time>
      </trkpt>
      <trkpt lat="43.99267" lon="7.48142">
        <ele>1367</ele>
        <time>2017-09-17T10:44:46Z</time>
      </trkpt>
      <trkpt lat="43.99271" lon="7.48148">
        <ele>1366</ele>
        <time>2017-09-17T10:44:47Z</time>
      </trkpt>
      <trkpt lat="43.99273" lon="7.48156">
        <ele>1365</ele>
        <time>2017-09-17T10:44:48Z</time>
      </trkpt>
      <trkpt lat="43.99273" lon="7.48163">
        <ele>1365</ele>
        <time>2017-09-17T10:44:49Z</time>
      </trkpt>
      <trkpt lat="43.99272" lon="7.4817">
        <ele>1364</ele>
        <time>2017-09-17T10:44:50Z</time>
      </trkpt>
      <trkpt lat="43.99269" lon="7.48176">
        <ele>1363</ele>
        <time>2017-09-17T10:44:51Z</time>
      </trkpt>
      <trkpt lat="43.99265" lon="7.48182">
        <ele>1363</ele>
        <time>2017-09-17T10:44:52Z</time>
      </trkpt>
      <trkpt lat="43.99261" lon="7.48188">
        <ele>1362</ele>
        <time>2017-09-17T10:44:53Z</time>
      </trkpt>
      <trkpt lat="43.99257" lon="7.48195">
        <ele>1362</ele>
        <time>2017-09-17T10:44:54Z</time>
      </trkpt>
      <trkpt lat="43.99253" lon="7.48203">
        <ele>1361</ele>
        <time>2017-09-17T10:44:55Z</time>
      </trkpt>
      <trkpt lat="43.9925" lon="7.48211">
        <ele>1360</ele>
        <time>2017-09-17T10:44:56Z</time>
      </trkpt>
      <trkpt lat="43.99248" lon="7.48219">
        <ele>1360</ele>
        <time>2017-09-17T10:44:57Z</time>
      </trkpt>
      <trkpt lat="43.99247" lon="7.48227">
        <ele>1360</ele>
        <time>2017-09-17T10:44:58Z</time>
      </trkpt>
      <trkpt lat="43.99249" lon="7.48235">
        <ele>1359</ele>
        <time>2017-09-17T10:44:59Z</time>
      </trkpt>
      <trkpt lat="43.99252" lon="7.48243">
        <ele>1359</ele>
        <time>2017-09-17T10:45:00Z</time>
      </trkpt>
      <trkpt lat="43.99257" lon="7.48252">
        <ele>1359</ele>
        <time>2017-09-17T10:45:01Z</time>
      </trkpt>
      <trkpt lat="43.99262" lon="7.48261">
        <ele>1358</ele>
        <time>2017-09-17T10:45:02Z</time>
      </trkpt>
      <trkpt lat="43.99267" lon="7.48271">
        <ele>1358</ele>
        <time>2017-09-17T10:45:03Z</time>
      </trkpt>
      <trkpt lat="43.99272" lon="7.48281">
        <ele>1357</ele>
        <time>2017-09-17T10:45:04Z</time>
      </trkpt>
      <trkpt lat="43.99276" lon="7.48289">
        <ele>1357</ele>
        <time>2017-09-17T10:45:05Z</time>
      </trkpt>
      <trkpt lat="43.99281" lon="7.48296">
        <ele>1356</ele>
        <time>2017-09-17T10:45:06Z</time>
      </trkpt>
      <trkpt lat="43.99284" lon="7.48303">
        <ele>1355</ele>
        <time>2017-09-17T10:45:07Z</time>
      </trkpt>
      <trkpt lat="43.99286" lon="7.4831">
        <ele>1355</ele>
        <time>2017-09-17T10:45:08Z</time>
      </trkpt>
      <trkpt lat="43.99286" lon="7.48318">
        <ele>1354</ele>
        <time>2017-09-17T10:45:09Z</time>
      </trkpt>
      <trkpt lat="43.99286" lon="7.48325">
        <ele>1354</ele>
        <time>2017-09-17T10:45:10Z</time>
      </trkpt>
      <trkpt lat="43.99285" lon="7.48334">
        <ele>1353</ele>
        <time>2017-09-17T10:45:11Z</time>
      </trkpt>
      <trkpt lat="43.99285" lon="7.48343">
        <ele>1353</ele>
        <time>2017-09-17T10:45:12Z</time>
      </trkpt>
      <trkpt lat="43.99286" lon="7.48352">
        <ele>1352</ele>
        <time>2017-09-17T10:45:13Z</time>
      </trkpt>
      <trkpt lat="43.99287" lon="7.48362">
        <ele>1352</ele>
        <time>2017-09-17T10:45:14Z</time>
      </trkpt>
      <trkpt lat="43.99287" lon="7.48372">
        <ele>1351</ele>
        <time>2017-09-17T10:45:15Z</time>
      </trkpt>
      <trkpt lat="43.99288" lon="7.48382">
        <ele>1351</ele>
        <time>2017-09-17T10:45:16Z</time>
      </trkpt>
      <trkpt lat="43.99289" lon="7.48392">
        <ele>1351</ele>
        <time>2017-09-17T10:45:17Z</time>
      </trkpt>
      <trkpt lat="43.99291" lon="7.48401">
        <ele>1351</ele>
        <time>2017-09-17T10:45:18Z</time>
      </trkpt>
      <trkpt lat="43.99295" lon="7.4841">
        <ele>1350</ele>
        <time>2017-09-17T10:45:19Z</time>
      </trkpt>
      <trkpt lat="43.99299" lon="7.48418">
        <ele>1350</ele>
        <time>2017-09-17T10:45:20Z</time>
      </trkpt>
      <trkpt lat="43.99305" lon="7.48425">
        <ele>1350</ele>
        <time>2017-09-17T10:45:21Z</time>
      </trkpt>
      <trkpt lat="43.9931" lon="7.48432">
        <ele>1349</ele>
        <time>2017-09-17T10:45:22Z</time>
      </trkpt>
      <trkpt lat="43.99315" lon="7.48439">
        <ele>1349</ele>
        <time>2017-09-17T10:45:23Z</time>
      </trkpt>
      <trkpt lat="43.99319" lon="7.48446">
        <ele>1348</ele>
        <time>2017-09-17T10:45:24Z</time>
      </trkpt>
      <trkpt lat="43.99322" lon="7.48455">
        <ele>1348</ele>
        <time>2017-09-17T10:45:25Z</time>
      </trkpt>
      <trkpt lat="43.99325" lon="7.48464">
        <ele>1347</ele>
        <time>2017-09-17T10:45:26Z</time>
      </trkpt>
      <trkpt lat="43.99327" lon="7.48473">
        <ele>1346</ele>
        <time>2017-09-17T10:45:27Z</time>
      </trkpt>
      <trkpt lat="43.99329" lon="7.48483">
        <ele>1346</ele>
        <time>2017-09-17T10:45:28Z</time>
      </trkpt>
      <trkpt lat="43.99332" lon="7.48493">
        <ele>1345</ele>
        <time>2017-09-17T10:45:29Z</time>
      </trkpt>
      <trkpt lat="43.99336" lon="7.48503">
        <ele>1345</ele>
        <time>2017-09-17T10:45:30Z</time>
      </trkpt>
      <trkpt lat="43.99341" lon="7.48512">
        <ele>1344</ele>
        <time>2017-09-17T10:45:31Z</time>
      </trkpt>
      <trkpt lat="43.99345" lon="7.48522">
        <ele>1344</ele>
        <time>2017-09-17T10:45:32Z</time>
      </trkpt>
      <trkpt lat="43.99352" lon="7.48531">
        <ele>1343</ele>
        <time>2017-09-17T10:45:33Z</time>
      </trkpt>
      <trkpt lat="43.99358" lon="7.48539">
        <ele>1343</ele>
        <time>2017-09-17T10:45:34Z</time>
      </trkpt>
      <trkpt lat="43.99364" lon="7.48547">
        <ele>1342</ele>
        <time>2017-09-17T10:45:35Z</time>
      </trkpt>
      <trkpt lat="43.9937" lon="7.48554">
        <ele>1342</ele>
        <time>2017-09-17T10:45:36Z</time>
      </trkpt>
      <trkpt lat="43.99375" lon="7.48562">
        <ele>1341</ele>
        <time>2017-09-17T10:45:37Z</time>
      </trkpt>
      <trkpt lat="43.99378" lon="7.48571">
        <ele>1339</ele>
        <time>2017-09-17T10:45:38Z</time>
      </trkpt>
      <trkpt lat="43.9938" lon="7.4858">
        <ele>1338</ele>
        <time>2017-09-17T10:45:39Z</time>
      </trkpt>
      <trkpt lat="43.99382" lon="7.48591">
        <ele>1337</ele>
        <time>2017-09-17T10:45:40Z</time>
      </trkpt>
      <trkpt lat="43.99384" lon="7.48601">
        <ele>1336</ele>
        <time>2017-09-17T10:45:41Z</time>
      </trkpt>
      <trkpt lat="43.99388" lon="7.48611">
        <ele>1334</ele>
        <time>2017-09-17T10:45:42Z</time>
      </trkpt>
      <trkpt lat="43.99392" lon="7.48621">
        <ele>1333</ele>
        <time>2017-09-17T10:45:43Z</time>
      </trkpt>
      <trkpt lat="43.99395" lon="7.48629">
        <ele>1332</ele>
        <time>2017-09-17T10:45:44Z</time>
      </trkpt>
      <trkpt lat="43.99398" lon="7.48636">
        <ele>1331</ele>
        <time>2017-09-17T10:45:45Z</time>
      </trkpt>
      <trkpt lat="43.99399" lon="7.48642">
        <ele>1330</ele>
        <time>2017-09-17T10:45:46Z</time>
      </trkpt>
      <trkpt lat="43.99398" lon="7.48647">
        <ele>1329</ele>
        <time>2017-09-17T10:45:47Z</time>
      </trkpt>
      <trkpt lat="43.99397" lon="7.48651">
        <ele>1328</ele>
        <time>2017-09-17T10:45:48Z</time>
      </trkpt>
      <trkpt lat="43.99395" lon="7.48654">
        <ele>1327</ele>
        <time>2017-09-17T10:45:49Z</time>
      </trkpt>
      <trkpt lat="43.99392" lon="7.48657">
        <ele>1326</ele>
        <time>2017-09-17T10:45:50Z</time>
      </trkpt>
      <trkpt lat="43.99388" lon="7.48659">
        <ele>1326</ele>
        <time>2017-09-17T10:45:51Z</time>
      </trkpt>
      <trkpt lat="43.99384" lon="7.4866">
        <ele>1325</ele>
        <time>2017-09-17T10:45:52Z</time>
      </trkpt>
      <trkpt lat="43.9938" lon="7.48663">
        <ele>1324</ele>
        <time>2017-09-17T10:45:53Z</time>
      </trkpt>
      <trkpt lat="43.99375" lon="7.48664">
        <ele>1324</ele>
        <time>2017-09-17T10:45:54Z</time>
      </trkpt>
      <trkpt lat="43.99369" lon="7.48665">
        <ele>1323</ele>
        <time>2017-09-17T10:45:55Z</time>
      </trkpt>
      <trkpt lat="43.99363" lon="7.48666">
        <ele>1323</ele>
        <time>2017-09-17T10:45:56Z</time>
      </trkpt>
      <trkpt lat="43.99357" lon="7.48666">
        <ele>1322</ele>
        <time>2017-09-17T10:45:57Z</time>
      </trkpt>
      <trkpt lat="43.9935" lon="7.48666">
        <ele>1321</ele>
        <time>2017-09-17T10:45:58Z</time>
      </trkpt>
      <trkpt lat="43.99343" lon="7.48665">
        <ele>1321</ele>
        <time>2017-09-17T10:45:59Z</time>
      </trkpt>
      <trkpt lat="43.99335" lon="7.48665">
        <ele>1320</ele>
        <time>2017-09-17T10:46:00Z</time>
      </trkpt>
      <trkpt lat="43.99328" lon="7.48665">
        <ele>1319</ele>
        <time>2017-09-17T10:46:01Z</time>
      </trkpt>
      <trkpt lat="43.99322" lon="7.48667">
        <ele>1319</ele>
        <time>2017-09-17T10:46:02Z</time>
      </trkpt>
      <trkpt lat="43.99316" lon="7.4867">
        <ele>1318</ele>
        <time>2017-09-17T10:46:03Z</time>
      </trkpt>
      <trkpt lat="43.9931" lon="7.48673">
        <ele>1318</ele>
        <time>2017-09-17T10:46:04Z</time>
      </trkpt>
      <trkpt lat="43.99304" lon="7.48678">
        <ele>1317</ele>
        <time>2017-09-17T10:46:05Z</time>
      </trkpt>
      <trkpt lat="43.99299" lon="7.48685">
        <ele>1317</ele>
        <time>2017-09-17T10:46:06Z</time>
      </trkpt>
      <trkpt lat="43.99295" lon="7.48692">
        <ele>1316</ele>
        <time>2017-09-17T10:46:07Z</time>
      </trkpt>
      <trkpt lat="43.9929" lon="7.487">
        <ele>1316</ele>
        <time>2017-09-17T10:46:08Z</time>
      </trkpt>
      <trkpt lat="43.99286" lon="7.48708">
        <ele>1315</ele>
        <time>2017-09-17T10:46:09Z</time>
      </trkpt>
      <trkpt lat="43.99281" lon="7.48715">
        <ele>1314</ele>
        <time>2017-09-17T10:46:10Z</time>
      </trkpt>
      <trkpt lat="43.99276" lon="7.48721">
        <ele>1314</ele>
        <time>2017-09-17T10:46:11Z</time>
      </trkpt>
      <trkpt lat="43.9927" lon="7.48725">
        <ele>1313</ele>
        <time>2017-09-17T10:46:12Z</time>
      </trkpt>
      <trkpt lat="43.99263" lon="7.48729">
        <ele>1312</ele>
        <time>2017-09-17T10:46:13Z</time>
      </trkpt>
      <trkpt lat="43.99257" lon="7.48732">
        <ele>1312</ele>
        <time>2017-09-17T10:46:14Z</time>
      </trkpt>
      <trkpt lat="43.9925" lon="7.48734">
        <ele>1311</ele>
        <time>2017-09-17T10:46:15Z</time>
      </trkpt>
      <trkpt lat="43.99243" lon="7.48737">
        <ele>1310</ele>
        <time>2017-09-17T10:46:16Z</time>
      </trkpt>
      <trkpt lat="43.99237" lon="7.48739">
        <ele>1310</ele>
        <time>2017-09-17T10:46:17Z</time>
      </trkpt>
      <trkpt lat="43.99233" lon="7.4874">
        <ele>1309</ele>
        <time>2017-09-17T10:46:18Z</time>
      </trkpt>
      <trkpt lat="43.9923" lon="7.48743">
        <ele>1309</ele>
        <time>2017-09-17T10:46:19Z</time>
      </trkpt>
      <trkpt lat="43.99228" lon="7.48745">
        <ele>1308</ele>
        <time>2017-09-17T10:46:20Z</time>
      </trkpt>
      <trkpt lat="43.99227" lon="7.48747">
        <ele>1308</ele>
        <time>2017-09-17T10:46:21Z</time>
      </trkpt>
      <trkpt lat="43.99227" lon="7.48748">
        <ele>1307</ele>
        <time>2017-09-17T10:46:22Z</time>
      </trkpt>
      <trkpt lat="43.99227" lon="7.48748">
        <ele>1307</ele>
        <time>2017-09-17T10:46:23Z</time>
      </trkpt>
      <trkpt lat="43.99227" lon="7.48748">
        <ele>1307</ele>
        <time>2017-09-17T10:46:24Z</time>
      </trkpt>
      <trkpt lat="43.99227" lon="7.48748">
        <ele>1307</ele>
        <time>2017-09-17T10:46:25Z</time>
      </trkpt>
      <trkpt lat="43.99226" lon="7.48748">
        <ele>1307</ele>
        <time>2017-09-17T10:46:26Z</time>
      </trkpt>
      <trkpt lat="43.99226" lon="7.48748">
        <ele>1307</ele>
        <time>2017-09-17T10:46:27Z</time>
      </trkpt>
      <trkpt lat="43.99226" lon="7.48748">
        <ele>1306</ele>
        <time>2017-09-17T10:46:28Z</time>
      </trkpt>
      <trkpt lat="43.99226" lon="7.48748">
        <ele>1306</ele>
        <time>2017-09-17T10:46:29Z</time>
      </trkpt>
      <trkpt lat="43.99226" lon="7.48748">
        <ele>1306</ele>
        <time>2017-09-17T10:46:30Z</time>
      </trkpt>
      <trkpt lat="43.99226" lon="7.48748">
        <ele>1306</ele>
        <time>2017-09-17T10:46:31Z</time>
      </trkpt>
      <trkpt lat="43.99226" lon="7.48748">
        <ele>1306</ele>
        <time>2017-09-17T10:46:32Z</time>
      </trkpt>
      <trkpt lat="43.99225" lon="7.48748">
        <ele>1306</ele>
        <time>2017-09-17T10:46:33Z</time>
      </trkpt>
      <trkpt lat="43.99225" lon="7.48748">
        <ele>1306</ele>
        <time>2017-09-17T10:46:34Z</time>
      </trkpt>
      <trkpt lat="43.99225" lon="7.48748">
        <ele>1306</ele>
        <time>2017-09-17T10:46:35Z</time>
      </trkpt>
      <trkpt lat="43.99225" lon="7.48748">
        <ele>1306</ele>
        <time>2017-09-17T10:46:36Z</time>
      </trkpt>
      <trkpt lat="43.99225" lon="7.48747">
        <ele>1306</ele>
        <time>2017-09-17T10:46:37Z</time>
      </trkpt>
      <trkpt lat="43.99225" lon="7.48747">
        <ele>1306</ele>
        <time>2017-09-17T10:46:38Z</time>
      </trkpt>
      <trkpt lat="43.99225" lon="7.48747">
        <ele>1306</ele>
        <time>2017-09-17T10:46:39Z</time>
      </trkpt>
      <trkpt lat="43.99225" lon="7.48747">
        <ele>1305</ele>
        <time>2017-09-17T10:46:40Z</time>
      </trkpt>
      <trkpt lat="43.99225" lon="7.48747">
        <ele>1305</ele>
        <time>2017-09-17T10:46:41Z</time>
      </trkpt>
      <trkpt lat="43.99225" lon="7.48747">
        <ele>1305</ele>
        <time>2017-09-17T10:46:42Z</time>
      </trkpt>
      <trkpt lat="43.99225" lon="7.48747">
        <ele>1305</ele>
        <time>2017-09-17T10:46:43Z</time>
      </trkpt>
      <trkpt lat="43.99225" lon="7.48747">
        <ele>1305</ele>
        <time>2017-09-17T10:46:44Z</time>
      </trkpt>
      <trkpt lat="43.99225" lon="7.48747">
        <ele>1305</ele>
        <time>2017-09-17T10:46:45Z</time>
      </trkpt>
      <trkpt lat="43.99224" lon="7.48747">
        <ele>1305</ele>
        <time>2017-09-17T10:46:46Z</time>
      </trkpt>
      <trkpt lat="43.99224" lon="7.48747">
        <ele>1305</ele>
        <time>2017-09-17T10:46:47Z</time>
      </trkpt>
      <trkpt lat="43.99224" lon="7.48747">
        <ele>1305</ele>
        <time>2017-09-17T10:46:48Z</time>
      </trkpt>
      <trkpt lat="43.99224" lon="7.48747">
        <ele>1305</ele>
        <time>2017-09-17T10:46:49Z</time>
      </trkpt>
      <trkpt lat="43.99224" lon="7.48747">
        <ele>1305</ele>
        <time>2017-09-17T10:46:50Z</time>
      </trkpt>
      <trkpt lat="43.99224" lon="7.48747">
        <ele>1305</ele>
        <time>2017-09-17T10:46:51Z</time>
      </trkpt>
      <trkpt lat="43.99224" lon="7.48747">
        <ele>1305</ele>
        <time>2017-09-17T10:46:52Z</time>
      </trkpt>
      <trkpt lat="43.99224" lon="7.48747">
        <ele>1305</ele>
        <time>2017-09-17T10:46:53Z</time>
      </trkpt>
      <trkpt lat="43.99224" lon="7.48747">
        <ele>1305</ele>
        <time>2017-09-17T10:46:54Z</time>
      </trkpt>
      <trkpt lat="43.99224" lon="7.48747">
        <ele>1305</ele>
        <time>2017-09-17T10:46:55Z</time>
      </trkpt>
      <trkpt lat="43.99224" lon="7.48747">
        <ele>1305</ele>
        <time>2017-09-17T10:46:56Z</time>
      </trkpt>
      <trkpt lat="43.99224" lon="7.48747">
        <ele>1304</ele>
        <time>2017-09-17T10:46:57Z</time>
      </trkpt>
      <trkpt lat="43.99224" lon="7.48747">
        <ele>1304</ele>
        <time>2017-09-17T10:46:58Z</time>
      </trkpt>
      <trkpt lat="43.99224" lon="7.48747">
        <ele>1304</ele>
        <time>2017-09-17T10:46:59Z</time>
      </trkpt>
      <trkpt lat="43.99224" lon="7.48747">
        <ele>1304</ele>
        <time>2017-09-17T10:47:00Z</time>
      </trkpt>
      <trkpt lat="43.99224" lon="7.48746">
        <ele>1304</ele>
        <time>2017-09-17T10:47:01Z</time>
      </trkpt>
      <trkpt lat="43.99224" lon="7.48746">
        <ele>1304</ele>
        <time>2017-09-17T10:47:02Z</time>
      </trkpt>
      <trkpt lat="43.99224" lon="7.48746">
        <ele>1304</ele>
        <time>2017-09-17T10:47:03Z</time>
      </trkpt>
      <trkpt lat="43.99224" lon="7.48746">
        <ele>1304</ele>
        <time>2017-09-17T10:47:04Z</time>
      </trkpt>
      <trkpt lat="43.99224" lon="7.48746">
        <ele>1304</ele>
        <time>2017-09-17T10:47:05Z</time>
      </trkpt>
      <trkpt lat="43.99224" lon="7.48746">
        <ele>1304</ele>
        <time>2017-09-17T10:47:06Z</time>
      </trkpt>
      <trkpt lat="43.99224" lon="7.48746">
        <ele>1304</ele>
        <time>2017-09-17T10:47:07Z</time>
      </trkpt>
      <trkpt lat="43.99223" lon="7.48746">
        <ele>1304</ele>
        <time>2017-09-17T10:47:08Z</time>
      </trkpt>
      <trkpt lat="43.99223" lon="7.48746">
        <ele>1304</ele>
        <time>2017-09-17T10:47:09Z</time>
      </trkpt>
      <trkpt lat="43.99223" lon="7.48746">
        <ele>1304</ele>
        <time>2017-09-17T10:47:10Z</time>
      </trkpt>
      <trkpt lat="43.99223" lon="7.48746">
        <ele>1304</ele>
        <time>2017-09-17T10:47:11Z</time>
      </trkpt>
      <trkpt lat="43.99223" lon="7.48746">
        <ele>1304</ele>
        <time>2017-09-17T10:47:12Z</time>
      </trkpt>
      <trkpt lat="43.99223" lon="7.48746">
        <ele>1304</ele>
        <time>2017-09-17T10:47:13Z</time>
      </trkpt>
      <trkpt lat="43.99223" lon="7.48746">
        <ele>1304</ele>
        <time>2017-09-17T10:47:14Z</time>
      </trkpt>
      <trkpt lat="43.99223" lon="7.48746">
        <ele>1304</ele>
        <time>2017-09-17T10:47:15Z</time>
      </trkpt>
      <trkpt lat="43.99223" lon="7.48746">
        <ele>1304</ele>
        <time>2017-09-17T10:47:16Z</time>
      </trkpt>
      <trkpt lat="43.99223" lon="7.48746">
        <ele>1304</ele>
        <time>2017-09-17T10:47:17Z</time>
      </trkpt>
      <trkpt lat="43.99223" lon="7.48746">
        <ele>1304</ele>
        <time>2017-09-17T10:47:18Z</time>
      </trkpt>
      <trkpt lat="43.99223" lon="7.48746">
        <ele>1304</ele>
        <time>2017-09-17T10:47:19Z</time>
      </trkpt>
      <trkpt lat="43.99223" lon="7.48746">
        <ele>1304</ele>
        <time>2017-09-17T10:47:20Z</time>
      </trkpt>
      <trkpt lat="43.99223" lon="7.48746">
        <ele>1304</ele>
        <time>2017-09-17T10:47:21Z</time>
      </trkpt>
      <trkpt lat="43.99223" lon="7.48746">
        <ele>1304</ele>
        <time>2017-09-17T10:47:22Z</time>
      </trkpt>
      <trkpt lat="43.99223" lon="7.48746">
        <ele>1304</ele>
        <time>2017-09-17T10:47:23Z</time>
      </trkpt>
      <trkpt lat="43.99223" lon="7.48746">
        <ele>1304</ele>
        <time>2017-09-17T10:47:24Z</time>
      </trkpt>
      <trkpt lat="43.99223" lon="7.48746">
        <ele>1304</ele>
        <time>2017-09-17T10:47:25Z</time>
      </trkpt>
      <trkpt lat="43.99223" lon="7.48746">
        <ele>1304</ele>
        <time>2017-09-17T10:47:26Z</time>
      </trkpt>
      <trkpt lat="43.99223" lon="7.48746">
        <ele>1304</ele>
        <time>2017-09-17T10:47:27Z</time>
      </trkpt>
      <trkpt lat="43.99223" lon="7.48746">
        <ele>1304</ele>
        <time>2017-09-17T10:47:28Z</time>
      </trkpt>
      <trkpt lat="43.99223" lon="7.48746">
        <ele>1304</ele>
        <time>2017-09-17T10:47:29Z</time>
      </trkpt>
      <trkpt lat="43.99223" lon="7.48746">
        <ele>1304</ele>
        <time>2017-09-17T10:47:30Z</time>
      </trkpt>
      <trkpt lat="43.99223" lon="7.48746">
        <ele>1304</ele>
        <time>2017-09-17T10:47:31Z</time>
      </trkpt>
      <trkpt lat="43.99223" lon="7.48746">
        <ele>1304</ele>
        <time>2017-09-17T10:47:32Z</time>
      </trkpt>
      <trkpt lat="43.99223" lon="7.48746">
        <ele>1304</ele>
        <time>2017-09-17T10:47:33Z</time>
      </trkpt>
      <trkpt lat="43.99223" lon="7.48746">
        <ele>1304</ele>
        <time>2017-09-17T10:47:34Z</time>
      </trkpt>
      <trkpt lat="43.99223" lon="7.48746">
        <ele>1304</ele>
        <time>2017-09-17T10:47:35Z</time>
      </trkpt>
      <trkpt lat="43.99223" lon="7.48746">
        <ele>1304</ele>
        <time>2017-09-17T10:47:36Z</time>
      </trkpt>
      <trkpt lat="43.99223" lon="7.48746">
        <ele>1304</ele>
        <time>2017-09-17T10:47:37Z</time>
      </trkpt>
      <trkpt lat="43.99223" lon="7.48746">
        <ele>1304</ele>
        <time>2017-09-17T10:47:38Z</time>
      </trkpt>
      <trkpt lat="43.99223" lon="7.48746">
        <ele>1304</ele>
        <time>2017-09-17T10:47:39Z</time>
      </trkpt>
      <trkpt lat="43.99223" lon="7.48746">
        <ele>1304</ele>
        <time>2017-09-17T10:47:40Z</time>
      </trkpt>
      <trkpt lat="43.99223" lon="7.48746">
        <ele>1304</ele>
        <time>2017-09-17T10:47:41Z</time>
      </trkpt>
      <trkpt lat="43.99223" lon="7.48746">
        <ele>1304</ele>
        <time>2017-09-17T10:47:42Z</time>
      </trkpt>
      <trkpt lat="43.99223" lon="7.48746">
        <ele>1304</ele>
        <time>2017-09-17T10:47:43Z</time>
      </trkpt>
      <trkpt lat="43.99223" lon="7.48746">
        <ele>1304</ele>
        <time>2017-09-17T10:47:44Z</time>
      </trkpt>
      <trkpt lat="43.99223" lon="7.48746">
        <ele>1304</ele>
        <time>2017-09-17T10:47:45Z</time>
      </trkpt>
      <trkpt lat="43.99224" lon="7.48746">
        <ele>1304</ele>
        <time>2017-09-17T10:47:46Z</time>
      </trkpt>
      <trkpt lat="43.99225" lon="7.48747">
        <ele>1303</ele>
        <time>2017-09-17T10:47:47Z</time>
      </trkpt>
      <trkpt lat="43.99227" lon="7.48748">
        <ele>1303</ele>
        <time>2017-09-17T10:47:48Z</time>
      </trkpt>
      <trkpt lat="43.99229" lon="7.48747">
        <ele>1303</ele>
        <time>2017-09-17T10:47:49Z</time>
      </trkpt>
      <trkpt lat="43.99231" lon="7.48747">
        <ele>1303</ele>
        <time>2017-09-17T10:47:50Z</time>
      </trkpt>
      <trkpt lat="43.99235" lon="7.48746">
        <ele>1303</ele>
        <time>2017-09-17T10:47:51Z</time>
      </trkpt>
      <trkpt lat="43.9924" lon="7.48745">
        <ele>1303</ele>
        <time>2017-09-17T10:47:52Z</time>
      </trkpt>
      <trkpt lat="43.99244" lon="7.48744">
        <ele>1302</ele>
        <time>2017-09-17T10:47:53Z</time>
      </trkpt>
      <trkpt lat="43.99249" lon="7.48743">
        <ele>1302</ele>
        <time>2017-09-17T10:47:54Z</time>
      </trkpt>
      <trkpt lat="43.99254" lon="7.48742">
        <ele>1302</ele>
        <time>2017-09-17T10:47:55Z</time>
      </trkpt>
      <trkpt lat="43.99259" lon="7.4874">
        <ele>1302</ele>
        <time>2017-09-17T10:47:56Z</time>
      </trkpt>
      <trkpt lat="43.99264" lon="7.48738">
        <ele>1302</ele>
        <time>2017-09-17T10:47:57Z</time>
      </trkpt>
      <trkpt lat="43.99269" lon="7.48735">
        <ele>1302</ele>
        <time>2017-09-17T10:47:58Z</time>
      </trkpt>
      <trkpt lat="43.99274" lon="7.48732">
        <ele>1301</ele>
        <time>2017-09-17T10:47:59Z</time>
      </trkpt>
      <trkpt lat="43.99279" lon="7.48728">
        <ele>1301</ele>
        <time>2017-09-17T10:48:00Z</time>
      </trkpt>
      <trkpt lat="43.99284" lon="7.48723">
        <ele>1301</ele>
        <time>2017-09-17T10:48:01Z</time>
      </trkpt>
      <trkpt lat="43.99288" lon="7.48717">
        <ele>1301</ele>
        <time>2017-09-17T10:48:02Z</time>
      </trkpt>
      <trkpt lat="43.99292" lon="7.48712">
        <ele>1300</ele>
        <time>2017-09-17T10:48:03Z</time>
      </trkpt>
      <trkpt lat="43.99297" lon="7.48706">
        <ele>1300</ele>
        <time>2017-09-17T10:48:04Z</time>
      </trkpt>
      <trkpt lat="43.99303" lon="7.48701">
        <ele>1299</ele>
        <time>2017-09-17T10:48:05Z</time>
      </trkpt>
      <trkpt lat="43.99309" lon="7.48697">
        <ele>1299</ele>
        <time>2017-09-17T10:48:06Z</time>
      </trkpt>
      <trkpt lat="43.99316" lon="7.48695">
        <ele>1299</ele>
        <time>2017-09-17T10:48:07Z</time>
      </trkpt>
      <trkpt lat="43.99322" lon="7.48694">
        <ele>1298</ele>
        <time>2017-09-17T10:48:08Z</time>
      </trkpt>
      <trkpt lat="43.99329" lon="7.48694">
        <ele>1298</ele>
        <time>2017-09-17T10:48:09Z</time>
      </trkpt>
      <trkpt lat="43.99336" lon="7.48695">
        <ele>1298</ele>
        <time>2017-09-17T10:48:10Z</time>
      </trkpt>
      <trkpt lat="43.99343" lon="7.48696">
        <ele>1298</ele>
        <time>2017-09-17T10:48:11Z</time>
      </trkpt>
      <trkpt lat="43.99349" lon="7.48698">
        <ele>1297</ele>
        <time>2017-09-17T10:48:12Z</time>
      </trkpt>
      <trkpt lat="43.99356" lon="7.487">
        <ele>1297</ele>
        <time>2017-09-17T10:48:13Z</time>
      </trkpt>
      <trkpt lat="43.99363" lon="7.48702">
        <ele>1297</ele>
        <time>2017-09-17T10:48:14Z</time>
      </trkpt>
      <trkpt lat="43.9937" lon="7.48704">
        <ele>1296</ele>
        <time>2017-09-17T10:48:15Z</time>
      </trkpt>
      <trkpt lat="43.99377" lon="7.48706">
        <ele>1296</ele>
        <time>2017-09-17T10:48:16Z</time>
      </trkpt>
      <trkpt lat="43.99383" lon="7.48708">
        <ele>1295</ele>
        <time>2017-09-17T10:48:17Z</time>
      </trkpt>
      <trkpt lat="43.9939" lon="7.48711">
        <ele>1295</ele>
        <time>2017-09-17T10:48:18Z</time>
      </trkpt>
      <trkpt lat="43.99396" lon="7.48715">
        <ele>1294</ele>
        <time>2017-09-17T10:48:19Z</time>
      </trkpt>
      <trkpt lat="43.99403" lon="7.48721">
        <ele>1294</ele>
        <time>2017-09-17T10:48:20Z</time>
      </trkpt>
      <trkpt lat="43.99409" lon="7.48726">
        <ele>1293</ele>
        <time>2017-09-17T10:48:21Z</time>
      </trkpt>
      <trkpt lat="43.99414" lon="7.4873">
        <ele>1293</ele>
        <time>2017-09-17T10:48:22Z</time>
      </trkpt>
      <trkpt lat="43.99419" lon="7.48732">
        <ele>1292</ele>
        <time>2017-09-17T10:48:23Z</time>
      </trkpt>
      <trkpt lat="43.99423" lon="7.48732">
        <ele>1292</ele>
        <time>2017-09-17T10:48:24Z</time>
      </trkpt>
      <trkpt lat="43.99427" lon="7.48729">
        <ele>1291</ele>
        <time>2017-09-17T10:48:25Z</time>
      </trkpt>
      <trkpt lat="43.99429" lon="7.48724">
        <ele>1291</ele>
        <time>2017-09-17T10:48:26Z</time>
      </trkpt>
      <trkpt lat="43.9943" lon="7.48719">
        <ele>1291</ele>
        <time>2017-09-17T10:48:27Z</time>
      </trkpt>
      <trkpt lat="43.99429" lon="7.48713">
        <ele>1291</ele>
        <time>2017-09-17T10:48:28Z</time>
      </trkpt>
      <trkpt lat="43.99429" lon="7.48706">
        <ele>1290</ele>
        <time>2017-09-17T10:48:29Z</time>
      </trkpt>
      <trkpt lat="43.99428" lon="7.48699">
        <ele>1290</ele>
        <time>2017-09-17T10:48:30Z</time>
      </trkpt>
      <trkpt lat="43.99427" lon="7.48691">
        <ele>1290</ele>
        <time>2017-09-17T10:48:31Z</time>
      </trkpt>
      <trkpt lat="43.99427" lon="7.48683">
        <ele>1290</ele>
        <time>2017-09-17T10:48:32Z</time>
      </trkpt>
      <trkpt lat="43.99427" lon="7.48676">
        <ele>1289</ele>
        <time>2017-09-17T10:48:33Z</time>
      </trkpt>
      <trkpt lat="43.99427" lon="7.48667">
        <ele>1289</ele>
        <time>2017-09-17T10:48:34Z</time>
      </trkpt>
      <trkpt lat="43.99427" lon="7.48658">
        <ele>1289</ele>
        <time>2017-09-17T10:48:35Z</time>
      </trkpt>
      <trkpt lat="43.99427" lon="7.48649">
        <ele>1289</ele>
        <time>2017-09-17T10:48:36Z</time>
      </trkpt>
      <trkpt lat="43.99427" lon="7.48641">
        <ele>1289</ele>
        <time>2017-09-17T10:48:37Z</time>
      </trkpt>
      <trkpt lat="43.99426" lon="7.48632">
        <ele>1289</ele>
        <time>2017-09-17T10:48:38Z</time>
      </trkpt>
      <trkpt lat="43.99426" lon="7.48624">
        <ele>1289</ele>
        <time>2017-09-17T10:48:39Z</time>
      </trkpt>
      <trkpt lat="43.99426" lon="7.48616">
        <ele>1289</ele>
        <time>2017-09-17T10:48:40Z</time>
      </trkpt>
      <trkpt lat="43.99425" lon="7.48607">
        <ele>1288</ele>
        <time>2017-09-17T10:48:41Z</time>
      </trkpt>
      <trkpt lat="43.99424" lon="7.48596">
        <ele>1288</ele>
        <time>2017-09-17T10:48:42Z</time>
      </trkpt>
      <trkpt lat="43.99423" lon="7.48586">
        <ele>1288</ele>
        <time>2017-09-17T10:48:43Z</time>
      </trkpt>
      <trkpt lat="43.99422" lon="7.48576">
        <ele>1288</ele>
        <time>2017-09-17T10:48:44Z</time>
      </trkpt>
      <trkpt lat="43.99421" lon="7.48565">
        <ele>1288</ele>
        <time>2017-09-17T10:48:45Z</time>
      </trkpt>
      <trkpt lat="43.9942" lon="7.48554">
        <ele>1287</ele>
        <time>2017-09-17T10:48:46Z</time>
      </trkpt>
      <trkpt lat="43.99418" lon="7.48544">
        <ele>1287</ele>
        <time>2017-09-17T10:48:47Z</time>
      </trkpt>
      <trkpt lat="43.99416" lon="7.48535">
        <ele>1287</ele>
        <time>2017-09-17T10:48:48Z</time>
      </trkpt>
      <trkpt lat="43.99413" lon="7.48526">
        <ele>1287</ele>
        <time>2017-09-17T10:48:49Z</time>
      </trkpt>
      <trkpt lat="43.99409" lon="7.48518">
        <ele>1287</ele>
        <time>2017-09-17T10:48:50Z</time>
      </trkpt>
      <trkpt lat="43.99404" lon="7.48509">
        <ele>1287</ele>
        <time>2017-09-17T10:48:51Z</time>
      </trkpt>
      <trkpt lat="43.994" lon="7.48501">
        <ele>1287</ele>
        <time>2017-09-17T10:48:52Z</time>
      </trkpt>
      <trkpt lat="43.99396" lon="7.48492">
        <ele>1287</ele>
        <time>2017-09-17T10:48:53Z</time>
      </trkpt>
      <trkpt lat="43.99393" lon="7.48483">
        <ele>1288</ele>
        <time>2017-09-17T10:48:54Z</time>
      </trkpt>
      <trkpt lat="43.9939" lon="7.48473">
        <ele>1288</ele>
        <time>2017-09-17T10:48:55Z</time>
      </trkpt>
      <trkpt lat="43.99388" lon="7.48462">
        <ele>1288</ele>
        <time>2017-09-17T10:48:56Z</time>
      </trkpt>
      <trkpt lat="43.99387" lon="7.48451">
        <ele>1288</ele>
        <time>2017-09-17T10:48:57Z</time>
      </trkpt>
      <trkpt lat="43.99386" lon="7.48441">
        <ele>1288</ele>
        <time>2017-09-17T10:48:58Z</time>
      </trkpt>
      <trkpt lat="43.99385" lon="7.4843">
        <ele>1288</ele>
        <time>2017-09-17T10:48:59Z</time>
      </trkpt>
      <trkpt lat="43.99384" lon="7.4842">
        <ele>1288</ele>
        <time>2017-09-17T10:49:00Z</time>
      </trkpt>
      <trkpt lat="43.99381" lon="7.4841">
        <ele>1288</ele>
        <time>2017-09-17T10:49:01Z</time>
      </trkpt>
      <trkpt lat="43.99378" lon="7.48401">
        <ele>1288</ele>
        <time>2017-09-17T10:49:02Z</time>
      </trkpt>
      <trkpt lat="43.99373" lon="7.48392">
        <ele>1288</ele>
        <time>2017-09-17T10:49:03Z</time>
      </trkpt>
      <trkpt lat="43.99369" lon="7.48384">
        <ele>1288</ele>
        <time>2017-09-17T10:49:04Z</time>
      </trkpt>
      <trkpt lat="43.99367" lon="7.48374">
        <ele>1288</ele>
        <time>2017-09-17T10:49:05Z</time>
      </trkpt>
      <trkpt lat="43.99364" lon="7.48364">
        <ele>1288</ele>
        <time>2017-09-17T10:49:06Z</time>
      </trkpt>
      <trkpt lat="43.99363" lon="7.48353">
        <ele>1288</ele>
        <time>2017-09-17T10:49:07Z</time>
      </trkpt>
      <trkpt lat="43.99364" lon="7.48342">
        <ele>1288</ele>
        <time>2017-09-17T10:49:08Z</time>
      </trkpt>
      <trkpt lat="43.99366" lon="7.48331">
        <ele>1288</ele>
        <time>2017-09-17T10:49:09Z</time>
      </trkpt>
      <trkpt lat="43.99368" lon="7.48321">
        <ele>1288</ele>
        <time>2017-09-17T10:49:10Z</time>
      </trkpt>
      <trkpt lat="43.99369" lon="7.48311">
        <ele>1287</ele>
        <time>2017-09-17T10:49:11Z</time>
      </trkpt>
      <trkpt lat="43.99367" lon="7.483">
        <ele>1287</ele>
        <time>2017-09-17T10:49:12Z</time>
      </trkpt>
      <trkpt lat="43.99365" lon="7.48291">
        <ele>1287</ele>
        <time>2017-09-17T10:49:13Z</time>
      </trkpt>
      <trkpt lat="43.99363" lon="7.48282">
        <ele>1286</ele>
        <time>2017-09-17T10:49:14Z</time>
      </trkpt>
      <trkpt lat="43.9936" lon="7.48273">
        <ele>1286</ele>
        <time>2017-09-17T10:49:15Z</time>
      </trkpt>
      <trkpt lat="43.99357" lon="7.48263">
        <ele>1286</ele>
        <time>2017-09-17T10:49:16Z</time>
      </trkpt>
      <trkpt lat="43.99355" lon="7.48254">
        <ele>1285</ele>
        <time>2017-09-17T10:49:17Z</time>
      </trkpt>
      <trkpt lat="43.99354" lon="7.48243">
        <ele>1285</ele>
        <time>2017-09-17T10:49:18Z</time>
      </trkpt>
      <trkpt lat="43.99355" lon="7.48234">
        <ele>1284</ele>
        <time>2017-09-17T10:49:19Z</time>
      </trkpt>
      <trkpt lat="43.99358" lon="7.48225">
        <ele>1284</ele>
        <time>2017-09-17T10:49:20Z</time>
      </trkpt>
      <trkpt lat="43.99362" lon="7.48218">
        <ele>1283</ele>
        <time>2017-09-17T10:49:21Z</time>
      </trkpt>
      <trkpt lat="43.99368" lon="7.48211">
        <ele>1283</ele>
        <time>2017-09-17T10:49:22Z</time>
      </trkpt>
      <trkpt lat="43.99373" lon="7.48204">
        <ele>1282</ele>
        <time>2017-09-17T10:49:23Z</time>
      </trkpt>
      <trkpt lat="43.99377" lon="7.48196">
        <ele>1282</ele>
        <time>2017-09-17T10:49:24Z</time>
      </trkpt>
      <trkpt lat="43.99379" lon="7.48187">
        <ele>1281</ele>
        <time>2017-09-17T10:49:25Z</time>
      </trkpt>
      <trkpt lat="43.99381" lon="7.48179">
        <ele>1281</ele>
        <time>2017-09-17T10:49:26Z</time>
      </trkpt>
      <trkpt lat="43.99381" lon="7.4817">
        <ele>1280</ele>
        <time>2017-09-17T10:49:27Z</time>
      </trkpt>
      <trkpt lat="43.99379" lon="7.48161">
        <ele>1280</ele>
        <time>2017-09-17T10:49:28Z</time>
      </trkpt>
      <trkpt lat="43.99376" lon="7.48153">
        <ele>1279</ele>
        <time>2017-09-17T10:49:29Z</time>
      </trkpt>
      <trkpt lat="43.99373" lon="7.48145">
        <ele>1279</ele>
        <time>2017-09-17T10:49:30Z</time>
      </trkpt>
      <trkpt lat="43.9937" lon="7.48138">
        <ele>1278</ele>
        <time>2017-09-17T10:49:31Z</time>
      </trkpt>
      <trkpt lat="43.99367" lon="7.48129">
        <ele>1278</ele>
        <time>2017-09-17T10:49:32Z</time>
      </trkpt>
      <trkpt lat="43.99365" lon="7.48119">
        <ele>1278</ele>
        <time>2017-09-17T10:49:33Z</time>
      </trkpt>
      <trkpt lat="43.99365" lon="7.48108">
        <ele>1277</ele>
        <time>2017-09-17T10:49:34Z</time>
      </trkpt>
      <trkpt lat="43.99366" lon="7.48098">
        <ele>1277</ele>
        <time>2017-09-17T10:49:35Z</time>
      </trkpt>
      <trkpt lat="43.99368" lon="7.48089">
        <ele>1276</ele>
        <time>2017-09-17T10:49:36Z</time>
      </trkpt>
      <trkpt lat="43.99371" lon="7.48082">
        <ele>1276</ele>
        <time>2017-09-17T10:49:37Z</time>
      </trkpt>
      <trkpt lat="43.99376" lon="7.48076">
        <ele>1276</ele>
        <time>2017-09-17T10:49:38Z</time>
      </trkpt>
      <trkpt lat="43.99381" lon="7.4807">
        <ele>1275</ele>
        <time>2017-09-17T10:49:39Z</time>
      </trkpt>
      <trkpt lat="43.99386" lon="7.48064">
        <ele>1275</ele>
        <time>2017-09-17T10:49:40Z</time>
      </trkpt>
      <trkpt lat="43.99391" lon="7.4806">
        <ele>1274</ele>
        <time>2017-09-17T10:49:41Z</time>
      </trkpt>
      <trkpt lat="43.99397" lon="7.48055">
        <ele>1274</ele>
        <time>2017-09-17T10:49:42Z</time>
      </trkpt>
      <trkpt lat="43.99402" lon="7.4805">
        <ele>1274</ele>
        <time>2017-09-17T10:49:43Z</time>
      </trkpt>
      <trkpt lat="43.99408" lon="7.48045">
        <ele>1273</ele>
        <time>2017-09-17T10:49:44Z</time>
      </trkpt>
      <trkpt lat="43.99413" lon="7.48039">
        <ele>1272</ele>
        <time>2017-09-17T10:49:45Z</time>
      </trkpt>
      <trkpt lat="43.99418" lon="7.48033">
        <ele>1272</ele>
        <time>2017-09-17T10:49:46Z</time>
      </trkpt>
      <trkpt lat="43.99423" lon="7.48025">
        <ele>1271</ele>
        <time>2017-09-17T10:49:47Z</time>
      </trkpt>
      <trkpt lat="43.99429" lon="7.48018">
        <ele>1271</ele>
        <time>2017-09-17T10:49:48Z</time>
      </trkpt>
      <trkpt lat="43.99435" lon="7.48011">
        <ele>1270</ele>
        <time>2017-09-17T10:49:49Z</time>
      </trkpt>
      <trkpt lat="43.99442" lon="7.48004">
        <ele>1270</ele>
        <time>2017-09-17T10:49:50Z</time>
      </trkpt>
      <trkpt lat="43.99449" lon="7.47998">
        <ele>1269</ele>
        <time>2017-09-17T10:49:51Z</time>
      </trkpt>
      <trkpt lat="43.99457" lon="7.47994">
        <ele>1269</ele>
        <time>2017-09-17T10:49:52Z</time>
      </trkpt>
      <trkpt lat="43.99465" lon="7.47992">
        <ele>1268</ele>
        <time>2017-09-17T10:49:53Z</time>
      </trkpt>
      <trkpt lat="43.99473" lon="7.47992">
        <ele>1268</ele>
        <time>2017-09-17T10:49:54Z</time>
      </trkpt>
      <trkpt lat="43.99481" lon="7.47995">
        <ele>1267</ele>
        <time>2017-09-17T10:49:55Z</time>
      </trkpt>
      <trkpt lat="43.99488" lon="7.47999">
        <ele>1267</ele>
        <time>2017-09-17T10:49:56Z</time>
      </trkpt>
      <trkpt lat="43.99494" lon="7.48006">
        <ele>1266</ele>
        <time>2017-09-17T10:49:57Z</time>
      </trkpt>
      <trkpt lat="43.995" lon="7.48013">
        <ele>1266</ele>
        <time>2017-09-17T10:49:58Z</time>
      </trkpt>
      <trkpt lat="43.99506" lon="7.4802">
        <ele>1266</ele>
        <time>2017-09-17T10:49:59Z</time>
      </trkpt>
      <trkpt lat="43.99511" lon="7.48028">
        <ele>1266</ele>
        <time>2017-09-17T10:50:00Z</time>
      </trkpt>
      <trkpt lat="43.99516" lon="7.48035">
        <ele>1267</ele>
        <time>2017-09-17T10:50:01Z</time>
      </trkpt>
      <trkpt lat="43.99522" lon="7.48042">
        <ele>1267</ele>
        <time>2017-09-17T10:50:02Z</time>
      </trkpt>
      <trkpt lat="43.99529" lon="7.48048">
        <ele>1267</ele>
        <time>2017-09-17T10:50:03Z</time>
      </trkpt>
      <trkpt lat="43.99535" lon="7.48052">
        <ele>1267</ele>
        <time>2017-09-17T10:50:04Z</time>
      </trkpt>
      <trkpt lat="43.99542" lon="7.48055">
        <ele>1267</ele>
        <time>2017-09-17T10:50:05Z</time>
      </trkpt>
      <trkpt lat="43.9955" lon="7.48055">
        <ele>1267</ele>
        <time>2017-09-17T10:50:06Z</time>
      </trkpt>
      <trkpt lat="43.99558" lon="7.48055">
        <ele>1266</ele>
        <time>2017-09-17T10:50:07Z</time>
      </trkpt>
      <trkpt lat="43.99566" lon="7.48055">
        <ele>1266</ele>
        <time>2017-09-17T10:50:08Z</time>
      </trkpt>
      <trkpt lat="43.99575" lon="7.48057">
        <ele>1265</ele>
        <time>2017-09-17T10:50:09Z</time>
      </trkpt>
      <trkpt lat="43.99583" lon="7.4806">
        <ele>1265</ele>
        <time>2017-09-17T10:50:10Z</time>
      </trkpt>
      <trkpt lat="43.99591" lon="7.48063">
        <ele>1264</ele>
        <time>2017-09-17T10:50:11Z</time>
      </trkpt>
      <trkpt lat="43.99599" lon="7.48068">
        <ele>1264</ele>
        <time>2017-09-17T10:50:12Z</time>
      </trkpt>
      <trkpt lat="43.99606" lon="7.48073">
        <ele>1263</ele>
        <time>2017-09-17T10:50:13Z</time>
      </trkpt>
      <trkpt lat="43.99611" lon="7.48079">
        <ele>1263</ele>
        <time>2017-09-17T10:50:14Z</time>
      </trkpt>
      <trkpt lat="43.99617" lon="7.48085">
        <ele>1263</ele>
        <time>2017-09-17T10:50:15Z</time>
      </trkpt>
      <trkpt lat="43.99623" lon="7.4809">
        <ele>1262</ele>
        <time>2017-09-17T10:50:16Z</time>
      </trkpt>
      <trkpt lat="43.99631" lon="7.48094">
        <ele>1262</ele>
        <time>2017-09-17T10:50:17Z</time>
      </trkpt>
      <trkpt lat="43.99639" lon="7.48098">
        <ele>1262</ele>
        <time>2017-09-17T10:50:18Z</time>
      </trkpt>
      <trkpt lat="43.99647" lon="7.48101">
        <ele>1261</ele>
        <time>2017-09-17T10:50:19Z</time>
      </trkpt>
      <trkpt lat="43.99654" lon="7.48105">
        <ele>1261</ele>
        <time>2017-09-17T10:50:20Z</time>
      </trkpt>
      <trkpt lat="43.99662" lon="7.48109">
        <ele>1261</ele>
        <time>2017-09-17T10:50:21Z</time>
      </trkpt>
      <trkpt lat="43.99669" lon="7.48113">
        <ele>1260</ele>
        <time>2017-09-17T10:50:22Z</time>
      </trkpt>
      <trkpt lat="43.99676" lon="7.48117">
        <ele>1260</ele>
        <time>2017-09-17T10:50:23Z</time>
      </trkpt>
      <trkpt lat="43.99684" lon="7.48123">
        <ele>1260</ele>
        <time>2017-09-17T10:50:24Z</time>
      </trkpt>
      <trkpt lat="43.99691" lon="7.4813">
        <ele>1260</ele>
        <time>2017-09-17T10:50:25Z</time>
      </trkpt>
      <trkpt lat="43.99698" lon="7.48137">
        <ele>1259</ele>
        <time>2017-09-17T10:50:26Z</time>
      </trkpt>
      <trkpt lat="43.99703" lon="7.48146">
        <ele>1259</ele>
        <time>2017-09-17T10:50:27Z</time>
      </trkpt>
      <trkpt lat="43.99707" lon="7.48153">
        <ele>1259</ele>
        <time>2017-09-17T10:50:28Z</time>
      </trkpt>
      <trkpt lat="43.99711" lon="7.4816">
        <ele>1259</ele>
        <time>2017-09-17T10:50:29Z</time>
      </trkpt>
      <trkpt lat="43.99716" lon="7.48164">
        <ele>1258</ele>
        <time>2017-09-17T10:50:30Z</time>
      </trkpt>
      <trkpt lat="43.99722" lon="7.48167">
        <ele>1258</ele>
        <time>2017-09-17T10:50:31Z</time>
      </trkpt>
      <trkpt lat="43.99729" lon="7.48168">
        <ele>1257</ele>
        <time>2017-09-17T10:50:32Z</time>
      </trkpt>
      <trkpt lat="43.99736" lon="7.48168">
        <ele>1256</ele>
        <time>2017-09-17T10:50:33Z</time>
      </trkpt>
      <trkpt lat="43.99743" lon="7.48166">
        <ele>1256</ele>
        <time>2017-09-17T10:50:34Z</time>
      </trkpt>
      <trkpt lat="43.9975" lon="7.48164">
        <ele>1255</ele>
        <time>2017-09-17T10:50:35Z</time>
      </trkpt>
      <trkpt lat="43.99756" lon="7.48159">
        <ele>1254</ele>
        <time>2017-09-17T10:50:36Z</time>
      </trkpt>
      <trkpt lat="43.99762" lon="7.48153">
        <ele>1254</ele>
        <time>2017-09-17T10:50:37Z</time>
      </trkpt>
      <trkpt lat="43.99767" lon="7.48145">
        <ele>1253</ele>
        <time>2017-09-17T10:50:38Z</time>
      </trkpt>
      <trkpt lat="43.99772" lon="7.48138">
        <ele>1253</ele>
        <time>2017-09-17T10:50:39Z</time>
      </trkpt>
      <trkpt lat="43.99777" lon="7.4813">
        <ele>1252</ele>
        <time>2017-09-17T10:50:40Z</time>
      </trkpt>
      <trkpt lat="43.99783" lon="7.48124">
        <ele>1251</ele>
        <time>2017-09-17T10:50:41Z</time>
      </trkpt>
      <trkpt lat="43.99791" lon="7.48119">
        <ele>1251</ele>
        <time>2017-09-17T10:50:42Z</time>
      </trkpt>
      <trkpt lat="43.99799" lon="7.48115">
        <ele>1250</ele>
        <time>2017-09-17T10:50:43Z</time>
      </trkpt>
      <trkpt lat="43.99808" lon="7.48112">
        <ele>1249</ele>
        <time>2017-09-17T10:50:44Z</time>
      </trkpt>
      <trkpt lat="43.99817" lon="7.48108">
        <ele>1249</ele>
        <time>2017-09-17T10:50:45Z</time>
      </trkpt>
      <trkpt lat="43.99826" lon="7.48104">
        <ele>1248</ele>
        <time>2017-09-17T10:50:46Z</time>
      </trkpt>
      <trkpt lat="43.99835" lon="7.48099">
        <ele>1247</ele>
        <time>2017-09-17T10:50:47Z</time>
      </trkpt>
      <trkpt lat="43.99843" lon="7.48096">
        <ele>1247</ele>
        <time>2017-09-17T10:50:48Z</time>
      </trkpt>
      <trkpt lat="43.99851" lon="7.48092">
        <ele>1246</ele>
        <time>2017-09-17T10:50:49Z</time>
      </trkpt>
      <trkpt lat="43.99857" lon="7.48089">
        <ele>1246</ele>
        <time>2017-09-17T10:50:50Z</time>
      </trkpt>
      <trkpt lat="43.99861" lon="7.48085">
        <ele>1245</ele>
        <time>2017-09-17T10:50:51Z</time>
      </trkpt>
      <trkpt lat="43.99865" lon="7.48079">
        <ele>1245</ele>
        <time>2017-09-17T10:50:52Z</time>
      </trkpt>
      <trkpt lat="43.99867" lon="7.48072">
        <ele>1244</ele>
        <time>2017-09-17T10:50:53Z</time>
      </trkpt>
      <trkpt lat="43.99868" lon="7.48064">
        <ele>1244</ele>
        <time>2017-09-17T10:50:54Z</time>
      </trkpt>
      <trkpt lat="43.9987" lon="7.48056">
        <ele>1244</ele>
        <time>2017-09-17T10:50:55Z</time>
      </trkpt>
      <trkpt lat="43.99872" lon="7.48046">
        <ele>1243</ele>
        <time>2017-09-17T10:50:56Z</time>
      </trkpt>
      <trkpt lat="43.99874" lon="7.48036">
        <ele>1243</ele>
        <time>2017-09-17T10:50:57Z</time>
      </trkpt>
      <trkpt lat="43.99877" lon="7.48027">
        <ele>1243</ele>
        <time>2017-09-17T10:50:58Z</time>
      </trkpt>
      <trkpt lat="43.99882" lon="7.48018">
        <ele>1243</ele>
        <time>2017-09-17T10:50:59Z</time>
      </trkpt>
      <trkpt lat="43.99887" lon="7.48009">
        <ele>1242</ele>
        <time>2017-09-17T10:51:00Z</time>
      </trkpt>
      <trkpt lat="43.99892" lon="7.48">
        <ele>1242</ele>
        <time>2017-09-17T10:51:01Z</time>
      </trkpt>
      <trkpt lat="43.99896" lon="7.47991">
        <ele>1242</ele>
        <time>2017-09-17T10:51:02Z</time>
      </trkpt>
      <trkpt lat="43.999" lon="7.47982">
        <ele>1241</ele>
        <time>2017-09-17T10:51:03Z</time>
      </trkpt>
      <trkpt lat="43.99903" lon="7.47972">
        <ele>1241</ele>
        <time>2017-09-17T10:51:04Z</time>
      </trkpt>
      <trkpt lat="43.99906" lon="7.47961">
        <ele>1241</ele>
        <time>2017-09-17T10:51:05Z</time>
      </trkpt>
      <trkpt lat="43.99909" lon="7.47951">
        <ele>1240</ele>
        <time>2017-09-17T10:51:06Z</time>
      </trkpt>
      <trkpt lat="43.99912" lon="7.47942">
        <ele>1240</ele>
        <time>2017-09-17T10:51:07Z</time>
      </trkpt>
      <trkpt lat="43.99916" lon="7.47934">
        <ele>1239</ele>
        <time>2017-09-17T10:51:08Z</time>
      </trkpt>
      <trkpt lat="43.99917" lon="7.47926">
        <ele>1238</ele>
        <time>2017-09-17T10:51:09Z</time>
      </trkpt>
      <trkpt lat="43.99917" lon="7.47919">
        <ele>1237</ele>
        <time>2017-09-17T10:51:10Z</time>
      </trkpt>
      <trkpt lat="43.99916" lon="7.47911">
        <ele>1236</ele>
        <time>2017-09-17T10:51:11Z</time>
      </trkpt>
      <trkpt lat="43.99915" lon="7.47904">
        <ele>1236</ele>
        <time>2017-09-17T10:51:12Z</time>
      </trkpt>
      <trkpt lat="43.99913" lon="7.47895">
        <ele>1235</ele>
        <time>2017-09-17T10:51:13Z</time>
      </trkpt>
      <trkpt lat="43.99912" lon="7.47885">
        <ele>1234</ele>
        <time>2017-09-17T10:51:14Z</time>
      </trkpt>
      <trkpt lat="43.99911" lon="7.47874">
        <ele>1233</ele>
        <time>2017-09-17T10:51:15Z</time>
      </trkpt>
      <trkpt lat="43.99912" lon="7.47863">
        <ele>1233</ele>
        <time>2017-09-17T10:51:16Z</time>
      </trkpt>
      <trkpt lat="43.99912" lon="7.47853">
        <ele>1232</ele>
        <time>2017-09-17T10:51:17Z</time>
      </trkpt>
      <trkpt lat="43.99911" lon="7.47843">
        <ele>1231</ele>
        <time>2017-09-17T10:51:18Z</time>
      </trkpt>
      <trkpt lat="43.9991" lon="7.47835">
        <ele>1230</ele>
        <time>2017-09-17T10:51:19Z</time>
      </trkpt>
      <trkpt lat="43.99907" lon="7.47827">
        <ele>1230</ele>
        <time>2017-09-17T10:51:20Z</time>
      </trkpt>
      <trkpt lat="43.99903" lon="7.47821">
        <ele>1229</ele>
        <time>2017-09-17T10:51:21Z</time>
      </trkpt>
      <trkpt lat="43.99898" lon="7.47817">
        <ele>1228</ele>
        <time>2017-09-17T10:51:22Z</time>
      </trkpt>
      <trkpt lat="43.99892" lon="7.47815">
        <ele>1227</ele>
        <time>2017-09-17T10:51:23Z</time>
      </trkpt>
      <trkpt lat="43.99884" lon="7.47814">
        <ele>1227</ele>
        <time>2017-09-17T10:51:24Z</time>
      </trkpt>
      <trkpt lat="43.99877" lon="7.47811">
        <ele>1226</ele>
        <time>2017-09-17T10:51:25Z</time>
      </trkpt>
      <trkpt lat="43.9987" lon="7.47806">
        <ele>1225</ele>
        <time>2017-09-17T10:51:26Z</time>
      </trkpt>
      <trkpt lat="43.99862" lon="7.478">
        <ele>1225</ele>
        <time>2017-09-17T10:51:27Z</time>
      </trkpt>
      <trkpt lat="43.99856" lon="7.47793">
        <ele>1224</ele>
        <time>2017-09-17T10:51:28Z</time>
      </trkpt>
      <trkpt lat="43.9985" lon="7.47786">
        <ele>1224</ele>
        <time>2017-09-17T10:51:29Z</time>
      </trkpt>
      <trkpt lat="43.99846" lon="7.47778">
        <ele>1223</ele>
        <time>2017-09-17T10:51:30Z</time>
      </trkpt>
      <trkpt lat="43.99842" lon="7.47771">
        <ele>1223</ele>
        <time>2017-09-17T10:51:31Z</time>
      </trkpt>
      <trkpt lat="43.99839" lon="7.47761">
        <ele>1223</ele>
        <time>2017-09-17T10:51:32Z</time>
      </trkpt>
      <trkpt lat="43.99837" lon="7.47751">
        <ele>1222</ele>
        <time>2017-09-17T10:51:33Z</time>
      </trkpt>
      <trkpt lat="43.99837" lon="7.4774">
        <ele>1222</ele>
        <time>2017-09-17T10:51:34Z</time>
      </trkpt>
      <trkpt lat="43.99838" lon="7.47729">
        <ele>1222</ele>
        <time>2017-09-17T10:51:35Z</time>
      </trkpt>
      <trkpt lat="43.9984" lon="7.47719">
        <ele>1222</ele>
        <time>2017-09-17T10:51:36Z</time>
      </trkpt>
      <trkpt lat="43.99842" lon="7.47709">
        <ele>1222</ele>
        <time>2017-09-17T10:51:37Z</time>
      </trkpt>
      <trkpt lat="43.99844" lon="7.477">
        <ele>1222</ele>
        <time>2017-09-17T10:51:38Z</time>
      </trkpt>
      <trkpt lat="43.99845" lon="7.4769">
        <ele>1222</ele>
        <time>2017-09-17T10:51:39Z</time>
      </trkpt>
      <trkpt lat="43.99846" lon="7.47681">
        <ele>1222</ele>
        <time>2017-09-17T10:51:40Z</time>
      </trkpt>
      <trkpt lat="43.99845" lon="7.47671">
        <ele>1222</ele>
        <time>2017-09-17T10:51:41Z</time>
      </trkpt>
      <trkpt lat="43.99845" lon="7.47661">
        <ele>1222</ele>
        <time>2017-09-17T10:51:42Z</time>
      </trkpt>
      <trkpt lat="43.99845" lon="7.47651">
        <ele>1222</ele>
        <time>2017-09-17T10:51:43Z</time>
      </trkpt>
      <trkpt lat="43.99847" lon="7.4764">
        <ele>1221</ele>
        <time>2017-09-17T10:51:44Z</time>
      </trkpt>
      <trkpt lat="43.9985" lon="7.47629">
        <ele>1221</ele>
        <time>2017-09-17T10:51:45Z</time>
      </trkpt>
      <trkpt lat="43.99855" lon="7.47619">
        <ele>1221</ele>
        <time>2017-09-17T10:51:46Z</time>
      </trkpt>
      <trkpt lat="43.99861" lon="7.47611">
        <ele>1221</ele>
        <time>2017-09-17T10:51:47Z</time>
      </trkpt>
      <trkpt lat="43.99867" lon="7.47602">
        <ele>1220</ele>
        <time>2017-09-17T10:51:48Z</time>
      </trkpt>
      <trkpt lat="43.99872" lon="7.47593">
        <ele>1219</ele>
        <time>2017-09-17T10:51:49Z</time>
      </trkpt>
      <trkpt lat="43.99877" lon="7.47584">
        <ele>1219</ele>
        <time>2017-09-17T10:51:50Z</time>
      </trkpt>
      <trkpt lat="43.99881" lon="7.47574">
        <ele>1218</ele>
        <time>2017-09-17T10:51:51Z</time>
      </trkpt>
      <trkpt lat="43.99883" lon="7.47564">
        <ele>1217</ele>
        <time>2017-09-17T10:51:52Z</time>
      </trkpt>
      <trkpt lat="43.99886" lon="7.47554">
        <ele>1216</ele>
        <time>2017-09-17T10:51:53Z</time>
      </trkpt>
      <trkpt lat="43.99888" lon="7.47546">
        <ele>1215</ele>
        <time>2017-09-17T10:51:54Z</time>
      </trkpt>
      <trkpt lat="43.9989" lon="7.47537">
        <ele>1214</ele>
        <time>2017-09-17T10:51:55Z</time>
      </trkpt>
      <trkpt lat="43.9989" lon="7.47528">
        <ele>1213</ele>
        <time>2017-09-17T10:51:56Z</time>
      </trkpt>
      <trkpt lat="43.99888" lon="7.4752">
        <ele>1212</ele>
        <time>2017-09-17T10:51:57Z</time>
      </trkpt>
      <trkpt lat="43.99885" lon="7.47512">
        <ele>1211</ele>
        <time>2017-09-17T10:51:58Z</time>
      </trkpt>
      <trkpt lat="43.99881" lon="7.47504">
        <ele>1210</ele>
        <time>2017-09-17T10:51:59Z</time>
      </trkpt>
      <trkpt lat="43.99876" lon="7.47496">
        <ele>1209</ele>
        <time>2017-09-17T10:52:00Z</time>
      </trkpt>
      <trkpt lat="43.99871" lon="7.47487">
        <ele>1208</ele>
        <time>2017-09-17T10:52:01Z</time>
      </trkpt>
      <trkpt lat="43.99868" lon="7.47478">
        <ele>1206</ele>
        <time>2017-09-17T10:52:02Z</time>
      </trkpt>
      <trkpt lat="43.99864" lon="7.47471">
        <ele>1205</ele>
        <time>2017-09-17T10:52:03Z</time>
      </trkpt>
      <trkpt lat="43.99859" lon="7.47465">
        <ele>1204</ele>
        <time>2017-09-17T10:52:04Z</time>
      </trkpt>
      <trkpt lat="43.99853" lon="7.47461">
        <ele>1203</ele>
        <time>2017-09-17T10:52:05Z</time>
      </trkpt>
      <trkpt lat="43.99845" lon="7.4746">
        <ele>1202</ele>
        <time>2017-09-17T10:52:06Z</time>
      </trkpt>
      <trkpt lat="43.99838" lon="7.47459">
        <ele>1201</ele>
        <time>2017-09-17T10:52:07Z</time>
      </trkpt>
      <trkpt lat="43.9983" lon="7.47457">
        <ele>1200</ele>
        <time>2017-09-17T10:52:08Z</time>
      </trkpt>
      <trkpt lat="43.99823" lon="7.47454">
        <ele>1200</ele>
        <time>2017-09-17T10:52:09Z</time>
      </trkpt>
      <trkpt lat="43.99818" lon="7.47449">
        <ele>1199</ele>
        <time>2017-09-17T10:52:10Z</time>
      </trkpt>
      <trkpt lat="43.99813" lon="7.47443">
        <ele>1198</ele>
        <time>2017-09-17T10:52:11Z</time>
      </trkpt>
      <trkpt lat="43.9981" lon="7.47435">
        <ele>1198</ele>
        <time>2017-09-17T10:52:12Z</time>
      </trkpt>
      <trkpt lat="43.99807" lon="7.47426">
        <ele>1197</ele>
        <time>2017-09-17T10:52:13Z</time>
      </trkpt>
      <trkpt lat="43.99807" lon="7.47416">
        <ele>1197</ele>
        <time>2017-09-17T10:52:14Z</time>
      </trkpt>
      <trkpt lat="43.9981" lon="7.47408">
        <ele>1196</ele>
        <time>2017-09-17T10:52:15Z</time>
      </trkpt>
      <trkpt lat="43.99814" lon="7.47401">
        <ele>1195</ele>
        <time>2017-09-17T10:52:16Z</time>
      </trkpt>
      <trkpt lat="43.99818" lon="7.47394">
        <ele>1195</ele>
        <time>2017-09-17T10:52:17Z</time>
      </trkpt>
      <trkpt lat="43.99823" lon="7.47386">
        <ele>1194</ele>
        <time>2017-09-17T10:52:18Z</time>
      </trkpt>
      <trkpt lat="43.99828" lon="7.47378">
        <ele>1194</ele>
        <time>2017-09-17T10:52:19Z</time>
      </trkpt>
      <trkpt lat="43.99833" lon="7.4737">
        <ele>1193</ele>
        <time>2017-09-17T10:52:20Z</time>
      </trkpt>
      <trkpt lat="43.99837" lon="7.47361">
        <ele>1193</ele>
        <time>2017-09-17T10:52:21Z</time>
      </trkpt>
      <trkpt lat="43.99841" lon="7.47352">
        <ele>1193</ele>
        <time>2017-09-17T10:52:22Z</time>
      </trkpt>
      <trkpt lat="43.99845" lon="7.47342">
        <ele>1192</ele>
        <time>2017-09-17T10:52:23Z</time>
      </trkpt>
      <trkpt lat="43.99849" lon="7.47333">
        <ele>1191</ele>
        <time>2017-09-17T10:52:24Z</time>
      </trkpt>
      <trkpt lat="43.99854" lon="7.47325">
        <ele>1191</ele>
        <time>2017-09-17T10:52:25Z</time>
      </trkpt>
      <trkpt lat="43.99859" lon="7.47318">
        <ele>1190</ele>
        <time>2017-09-17T10:52:26Z</time>
      </trkpt>
      <trkpt lat="43.99865" lon="7.47312">
        <ele>1189</ele>
        <time>2017-09-17T10:52:27Z</time>
      </trkpt>
      <trkpt lat="43.99872" lon="7.47307">
        <ele>1188</ele>
        <time>2017-09-17T10:52:28Z</time>
      </trkpt>
      <trkpt lat="43.99879" lon="7.47302">
        <ele>1188</ele>
        <time>2017-09-17T10:52:29Z</time>
      </trkpt>
      <trkpt lat="43.99886" lon="7.47295">
        <ele>1187</ele>
        <time>2017-09-17T10:52:30Z</time>
      </trkpt>
      <trkpt lat="43.99891" lon="7.47288">
        <ele>1186</ele>
        <time>2017-09-17T10:52:31Z</time>
      </trkpt>
      <trkpt lat="43.99896" lon="7.47281">
        <ele>1186</ele>
        <time>2017-09-17T10:52:32Z</time>
      </trkpt>
      <trkpt lat="43.99901" lon="7.47276">
        <ele>1185</ele>
        <time>2017-09-17T10:52:33Z</time>
      </trkpt>
      <trkpt lat="43.99904" lon="7.4727">
        <ele>1185</ele>
        <time>2017-09-17T10:52:34Z</time>
      </trkpt>
      <trkpt lat="43.99905" lon="7.47264">
        <ele>1184</ele>
        <time>2017-09-17T10:52:35Z</time>
      </trkpt>
      <trkpt lat="43.99904" lon="7.47257">
        <ele>1184</ele>
        <time>2017-09-17T10:52:36Z</time>
      </trkpt>
      <trkpt lat="43.99903" lon="7.47251">
        <ele>1184</ele>
        <time>2017-09-17T10:52:37Z</time>
      </trkpt>
      <trkpt lat="43.99902" lon="7.47244">
        <ele>1183</ele>
        <time>2017-09-17T10:52:38Z</time>
      </trkpt>
      <trkpt lat="43.99902" lon="7.47237">
        <ele>1183</ele>
        <time>2017-09-17T10:52:39Z</time>
      </trkpt>
      <trkpt lat="43.99903" lon="7.47229">
        <ele>1182</ele>
        <time>2017-09-17T10:52:40Z</time>
      </trkpt>
      <trkpt lat="43.99903" lon="7.47222">
        <ele>1182</ele>
        <time>2017-09-17T10:52:41Z</time>
      </trkpt>
      <trkpt lat="43.99902" lon="7.47214">
        <ele>1182</ele>
        <time>2017-09-17T10:52:42Z</time>
      </trkpt>
      <trkpt lat="43.99901" lon="7.47206">
        <ele>1181</ele>
        <time>2017-09-17T10:52:43Z</time>
      </trkpt>
      <trkpt lat="43.999" lon="7.47198">
        <ele>1181</ele>
        <time>2017-09-17T10:52:44Z</time>
      </trkpt>
      <trkpt lat="43.99899" lon="7.4719">
        <ele>1181</ele>
        <time>2017-09-17T10:52:45Z</time>
      </trkpt>
      <trkpt lat="43.99899" lon="7.47182">
        <ele>1180</ele>
        <time>2017-09-17T10:52:46Z</time>
      </trkpt>
      <trkpt lat="43.99899" lon="7.47174">
        <ele>1180</ele>
        <time>2017-09-17T10:52:47Z</time>
      </trkpt>
      <trkpt lat="43.999" lon="7.47166">
        <ele>1180</ele>
        <time>2017-09-17T10:52:48Z</time>
      </trkpt>
      <trkpt lat="43.999" lon="7.47158">
        <ele>1180</ele>
        <time>2017-09-17T10:52:49Z</time>
      </trkpt>
      <trkpt lat="43.99902" lon="7.47149">
        <ele>1179</ele>
        <time>2017-09-17T10:52:50Z</time>
      </trkpt>
      <trkpt lat="43.99903" lon="7.47141">
        <ele>1179</ele>
        <time>2017-09-17T10:52:51Z</time>
      </trkpt>
      <trkpt lat="43.99906" lon="7.47132">
        <ele>1179</ele>
        <time>2017-09-17T10:52:52Z</time>
      </trkpt>
      <trkpt lat="43.9991" lon="7.47123">
        <ele>1178</ele>
        <time>2017-09-17T10:52:53Z</time>
      </trkpt>
      <trkpt lat="43.99914" lon="7.47113">
        <ele>1178</ele>
        <time>2017-09-17T10:52:54Z</time>
      </trkpt>
      <trkpt lat="43.99919" lon="7.47104">
        <ele>1178</ele>
        <time>2017-09-17T10:52:55Z</time>
      </trkpt>
      <trkpt lat="43.99922" lon="7.47096">
        <ele>1177</ele>
        <time>2017-09-17T10:52:56Z</time>
      </trkpt>
      <trkpt lat="43.99924" lon="7.47088">
        <ele>1177</ele>
        <time>2017-09-17T10:52:57Z</time>
      </trkpt>
      <trkpt lat="43.99926" lon="7.47081">
        <ele>1177</ele>
        <time>2017-09-17T10:52:58Z</time>
      </trkpt>
      <trkpt lat="43.99929" lon="7.47075">
        <ele>1176</ele>
        <time>2017-09-17T10:52:59Z</time>
      </trkpt>
      <trkpt lat="43.99931" lon="7.47071">
        <ele>1176</ele>
        <time>2017-09-17T10:53:00Z</time>
      </trkpt>
      <trkpt lat="43.99934" lon="7.47069">
        <ele>1175</ele>
        <time>2017-09-17T10:53:01Z</time>
      </trkpt>
      <trkpt lat="43.99937" lon="7.47067">
        <ele>1175</ele>
        <time>2017-09-17T10:53:02Z</time>
      </trkpt>
      <trkpt lat="43.99941" lon="7.47067">
        <ele>1174</ele>
        <time>2017-09-17T10:53:03Z</time>
      </trkpt>
      <trkpt lat="43.99945" lon="7.47069">
        <ele>1174</ele>
        <time>2017-09-17T10:53:04Z</time>
      </trkpt>
      <trkpt lat="43.9995" lon="7.47072">
        <ele>1174</ele>
        <time>2017-09-17T10:53:05Z</time>
      </trkpt>
      <trkpt lat="43.99955" lon="7.47075">
        <ele>1173</ele>
        <time>2017-09-17T10:53:06Z</time>
      </trkpt>
      <trkpt lat="43.9996" lon="7.47077">
        <ele>1173</ele>
        <time>2017-09-17T10:53:07Z</time>
      </trkpt>
      <trkpt lat="43.99966" lon="7.47077">
        <ele>1173</ele>
        <time>2017-09-17T10:53:08Z</time>
      </trkpt>
      <trkpt lat="43.99973" lon="7.47077">
        <ele>1172</ele>
        <time>2017-09-17T10:53:09Z</time>
      </trkpt>
      <trkpt lat="43.9998" lon="7.47077">
        <ele>1171</ele>
        <time>2017-09-17T10:53:10Z</time>
      </trkpt>
      <trkpt lat="43.99986" lon="7.47077">
        <ele>1171</ele>
        <time>2017-09-17T10:53:11Z</time>
      </trkpt>
      <trkpt lat="43.99992" lon="7.47079">
        <ele>1170</ele>
        <time>2017-09-17T10:53:12Z</time>
      </trkpt>
      <trkpt lat="43.99998" lon="7.47083">
        <ele>1169</ele>
        <time>2017-09-17T10:53:13Z</time>
      </trkpt>
      <trkpt lat="44.00004" lon="7.47086">
        <ele>1167</ele>
        <time>2017-09-17T10:53:14Z</time>
      </trkpt>
      <trkpt lat="44.0001" lon="7.47091">
        <ele>1166</ele>
        <time>2017-09-17T10:53:15Z</time>
      </trkpt>
      <trkpt lat="44.00017" lon="7.47095">
        <ele>1165</ele>
        <time>2017-09-17T10:53:16Z</time>
      </trkpt>
      <trkpt lat="44.00024" lon="7.47099">
        <ele>1164</ele>
        <time>2017-09-17T10:53:17Z</time>
      </trkpt>
      <trkpt lat="44.00031" lon="7.47103">
        <ele>1163</ele>
        <time>2017-09-17T10:53:18Z</time>
      </trkpt>
      <trkpt lat="44.00038" lon="7.47108">
        <ele>1161</ele>
        <time>2017-09-17T10:53:19Z</time>
      </trkpt>
      <trkpt lat="44.00046" lon="7.47111">
        <ele>1160</ele>
        <time>2017-09-17T10:53:20Z</time>
      </trkpt>
      <trkpt lat="44.00055" lon="7.47115">
        <ele>1159</ele>
        <time>2017-09-17T10:53:21Z</time>
      </trkpt>
      <trkpt lat="44.00063" lon="7.47121">
        <ele>1158</ele>
        <time>2017-09-17T10:53:22Z</time>
      </trkpt>
      <trkpt lat="44.00072" lon="7.47126">
        <ele>1157</ele>
        <time>2017-09-17T10:53:23Z</time>
      </trkpt>
      <trkpt lat="44.0008" lon="7.47132">
        <ele>1156</ele>
        <time>2017-09-17T10:53:24Z</time>
      </trkpt>
      <trkpt lat="44.00088" lon="7.47138">
        <ele>1154</ele>
        <time>2017-09-17T10:53:25Z</time>
      </trkpt>
      <trkpt lat="44.00096" lon="7.47144">
        <ele>1153</ele>
        <time>2017-09-17T10:53:26Z</time>
      </trkpt>
      <trkpt lat="44.00102" lon="7.4715">
        <ele>1152</ele>
        <time>2017-09-17T10:53:27Z</time>
      </trkpt>
      <trkpt lat="44.00109" lon="7.47156">
        <ele>1151</ele>
        <time>2017-09-17T10:53:28Z</time>
      </trkpt>
      <trkpt lat="44.00115" lon="7.47162">
        <ele>1150</ele>
        <time>2017-09-17T10:53:29Z</time>
      </trkpt>
      <trkpt lat="44.00122" lon="7.47167">
        <ele>1149</ele>
        <time>2017-09-17T10:53:30Z</time>
      </trkpt>
      <trkpt lat="44.00129" lon="7.47172">
        <ele>1148</ele>
        <time>2017-09-17T10:53:31Z</time>
      </trkpt>
      <trkpt lat="44.00137" lon="7.47177">
        <ele>1147</ele>
        <time>2017-09-17T10:53:32Z</time>
      </trkpt>
      <trkpt lat="44.00144" lon="7.4718">
        <ele>1146</ele>
        <time>2017-09-17T10:53:33Z</time>
      </trkpt>
      <trkpt lat="44.00151" lon="7.47184">
        <ele>1145</ele>
        <time>2017-09-17T10:53:34Z</time>
      </trkpt>
      <trkpt lat="44.00159" lon="7.47186">
        <ele>1144</ele>
        <time>2017-09-17T10:53:35Z</time>
      </trkpt>
      <trkpt lat="44.00167" lon="7.47189">
        <ele>1143</ele>
        <time>2017-09-17T10:53:36Z</time>
      </trkpt>
      <trkpt lat="44.00174" lon="7.47193">
        <ele>1142</ele>
        <time>2017-09-17T10:53:37Z</time>
      </trkpt>
      <trkpt lat="44.0018" lon="7.47197">
        <ele>1140</ele>
        <time>2017-09-17T10:53:38Z</time>
      </trkpt>
      <trkpt lat="44.00185" lon="7.47202">
        <ele>1139</ele>
        <time>2017-09-17T10:53:39Z</time>
      </trkpt>
      <trkpt lat="44.00189" lon="7.47206">
        <ele>1138</ele>
        <time>2017-09-17T10:53:40Z</time>
      </trkpt>
      <trkpt lat="44.00194" lon="7.47208">
        <ele>1138</ele>
        <time>2017-09-17T10:53:41Z</time>
      </trkpt>
      <trkpt lat="44.00199" lon="7.47209">
        <ele>1137</ele>
        <time>2017-09-17T10:53:42Z</time>
      </trkpt>
      <trkpt lat="44.00204" lon="7.47208">
        <ele>1136</ele>
        <time>2017-09-17T10:53:43Z</time>
      </trkpt>
      <trkpt lat="44.0021" lon="7.47208">
        <ele>1135</ele>
        <time>2017-09-17T10:53:44Z</time>
      </trkpt>
      <trkpt lat="44.00216" lon="7.47209">
        <ele>1134</ele>
        <time>2017-09-17T10:53:45Z</time>
      </trkpt>
      <trkpt lat="44.00223" lon="7.47211">
        <ele>1133</ele>
        <time>2017-09-17T10:53:46Z</time>
      </trkpt>
      <trkpt lat="44.0023" lon="7.47214">
        <ele>1132</ele>
        <time>2017-09-17T10:53:47Z</time>
      </trkpt>
      <trkpt lat="44.00237" lon="7.47218">
        <ele>1132</ele>
        <time>2017-09-17T10:53:48Z</time>
      </trkpt>
      <trkpt lat="44.00243" lon="7.47223">
        <ele>1131</ele>
        <time>2017-09-17T10:53:49Z</time>
      </trkpt>
      <trkpt lat="44.0025" lon="7.47229">
        <ele>1130</ele>
        <time>2017-09-17T10:53:50Z</time>
      </trkpt>
      <trkpt lat="44.00256" lon="7.47235">
        <ele>1130</ele>
        <time>2017-09-17T10:53:51Z</time>
      </trkpt>
      <trkpt lat="44.00262" lon="7.4724">
        <ele>1129</ele>
        <time>2017-09-17T10:53:52Z</time>
      </trkpt>
      <trkpt lat="44.00268" lon="7.47245">
        <ele>1128</ele>
        <time>2017-09-17T10:53:53Z</time>
      </trkpt>
      <trkpt lat="44.00274" lon="7.47249">
        <ele>1127</ele>
        <time>2017-09-17T10:53:54Z</time>
      </trkpt>
      <trkpt lat="44.0028" lon="7.47251">
        <ele>1126</ele>
        <time>2017-09-17T10:53:55Z</time>
      </trkpt>
      <trkpt lat="44.00285" lon="7.47252">
        <ele>1126</ele>
        <time>2017-09-17T10:53:56Z</time>
      </trkpt>
      <trkpt lat="44.0029" lon="7.47253">
        <ele>1125</ele>
        <time>2017-09-17T10:53:57Z</time>
      </trkpt>
      <trkpt lat="44.00294" lon="7.47255">
        <ele>1124</ele>
        <time>2017-09-17T10:53:58Z</time>
      </trkpt>
      <trkpt lat="44.00296" lon="7.47258">
        <ele>1123</ele>
        <time>2017-09-17T10:53:59Z</time>
      </trkpt>
      <trkpt lat="44.00297" lon="7.47261">
        <ele>1123</ele>
        <time>2017-09-17T10:54:00Z</time>
      </trkpt>
      <trkpt lat="44.00297" lon="7.47265">
        <ele>1122</ele>
        <time>2017-09-17T10:54:01Z</time>
      </trkpt>
      <trkpt lat="44.00294" lon="7.47267">
        <ele>1121</ele>
        <time>2017-09-17T10:54:02Z</time>
      </trkpt>
      <trkpt lat="44.00291" lon="7.47269">
        <ele>1121</ele>
        <time>2017-09-17T10:54:03Z</time>
      </trkpt>
      <trkpt lat="44.00287" lon="7.47268">
        <ele>1120</ele>
        <time>2017-09-17T10:54:04Z</time>
      </trkpt>
      <trkpt lat="44.00283" lon="7.47266">
        <ele>1120</ele>
        <time>2017-09-17T10:54:05Z</time>
      </trkpt>
      <trkpt lat="44.00279" lon="7.47265">
        <ele>1119</ele>
        <time>2017-09-17T10:54:06Z</time>
      </trkpt>
      <trkpt lat="44.00274" lon="7.47263">
        <ele>1118</ele>
        <time>2017-09-17T10:54:07Z</time>
      </trkpt>
      <trkpt lat="44.00269" lon="7.47261">
        <ele>1118</ele>
        <time>2017-09-17T10:54:08Z</time>
      </trkpt>
      <trkpt lat="44.00263" lon="7.47258">
        <ele>1117</ele>
        <time>2017-09-17T10:54:09Z</time>
      </trkpt>
      <trkpt lat="44.00258" lon="7.47255">
        <ele>1117</ele>
        <time>2017-09-17T10:54:10Z</time>
      </trkpt>
      <trkpt lat="44.00252" lon="7.47252">
        <ele>1116</ele>
        <time>2017-09-17T10:54:11Z</time>
      </trkpt>
      <trkpt lat="44.00246" lon="7.47249">
        <ele>1115</ele>
        <time>2017-09-17T10:54:12Z</time>
      </trkpt>
      <trkpt lat="44.0024" lon="7.47245">
        <ele>1115</ele>
        <time>2017-09-17T10:54:13Z</time>
      </trkpt>
      <trkpt lat="44.00235" lon="7.47241">
        <ele>1114</ele>
        <time>2017-09-17T10:54:14Z</time>
      </trkpt>
      <trkpt lat="44.00229" lon="7.47238">
        <ele>1114</ele>
        <time>2017-09-17T10:54:15Z</time>
      </trkpt>
      <trkpt lat="44.00223" lon="7.47236">
        <ele>1113</ele>
        <time>2017-09-17T10:54:16Z</time>
      </trkpt>
      <trkpt lat="44.00216" lon="7.47234">
        <ele>1113</ele>
        <time>2017-09-17T10:54:17Z</time>
      </trkpt>
      <trkpt lat="44.00209" lon="7.47234">
        <ele>1112</ele>
        <time>2017-09-17T10:54:18Z</time>
      </trkpt>
      <trkpt lat="44.00203" lon="7.47235">
        <ele>1111</ele>
        <time>2017-09-17T10:54:19Z</time>
      </trkpt>
      <trkpt lat="44.00196" lon="7.47236">
        <ele>1111</ele>
        <time>2017-09-17T10:54:20Z</time>
      </trkpt>
      <trkpt lat="44.00189" lon="7.47237">
        <ele>1110</ele>
        <time>2017-09-17T10:54:21Z</time>
      </trkpt>
      <trkpt lat="44.00182" lon="7.47236">
        <ele>1110</ele>
        <time>2017-09-17T10:54:22Z</time>
      </trkpt>
      <trkpt lat="44.00176" lon="7.47236">
        <ele>1109</ele>
        <time>2017-09-17T10:54:23Z</time>
      </trkpt>
      <trkpt lat="44.00169" lon="7.47235">
        <ele>1108</ele>
        <time>2017-09-17T10:54:24Z</time>
      </trkpt>
      <trkpt lat="44.00162" lon="7.47234">
        <ele>1107</ele>
        <time>2017-09-17T10:54:25Z</time>
      </trkpt>
      <trkpt lat="44.00155" lon="7.47233">
        <ele>1107</ele>
        <time>2017-09-17T10:54:26Z</time>
      </trkpt>
      <trkpt lat="44.00147" lon="7.47234">
        <ele>1106</ele>
        <time>2017-09-17T10:54:27Z</time>
      </trkpt>
      <trkpt lat="44.00139" lon="7.47234">
        <ele>1105</ele>
        <time>2017-09-17T10:54:28Z</time>
      </trkpt>
      <trkpt lat="44.00131" lon="7.47235">
        <ele>1104</ele>
        <time>2017-09-17T10:54:29Z</time>
      </trkpt>
      <trkpt lat="44.00123" lon="7.47235">
        <ele>1103</ele>
        <time>2017-09-17T10:54:30Z</time>
      </trkpt>
      <trkpt lat="44.00114" lon="7.47235">
        <ele>1102</ele>
        <time>2017-09-17T10:54:31Z</time>
      </trkpt>
      <trkpt lat="44.00105" lon="7.47234">
        <ele>1102</ele>
        <time>2017-09-17T10:54:32Z</time>
      </trkpt>
      <trkpt lat="44.00096" lon="7.47232">
        <ele>1101</ele>
        <time>2017-09-17T10:54:33Z</time>
      </trkpt>
      <trkpt lat="44.00087" lon="7.4723">
        <ele>1099</ele>
        <time>2017-09-17T10:54:34Z</time>
      </trkpt>
      <trkpt lat="44.00077" lon="7.47227">
        <ele>1098</ele>
        <time>2017-09-17T10:54:35Z</time>
      </trkpt>
      <trkpt lat="44.00067" lon="7.47224">
        <ele>1097</ele>
        <time>2017-09-17T10:54:36Z</time>
      </trkpt>
      <trkpt lat="44.00057" lon="7.47221">
        <ele>1096</ele>
        <time>2017-09-17T10:54:37Z</time>
      </trkpt>
      <trkpt lat="44.00046" lon="7.47217">
        <ele>1095</ele>
        <time>2017-09-17T10:54:38Z</time>
      </trkpt>
      <trkpt lat="44.00037" lon="7.47214">
        <ele>1093</ele>
        <time>2017-09-17T10:54:39Z</time>
      </trkpt>
      <trkpt lat="44.00028" lon="7.47212">
        <ele>1092</ele>
        <time>2017-09-17T10:54:40Z</time>
      </trkpt>
      <trkpt lat="44.00019" lon="7.4721">
        <ele>1091</ele>
        <time>2017-09-17T10:54:41Z</time>
      </trkpt>
      <trkpt lat="44.00012" lon="7.4721">
        <ele>1090</ele>
        <time>2017-09-17T10:54:42Z</time>
      </trkpt>
      <trkpt lat="44.00004" lon="7.47211">
        <ele>1089</ele>
        <time>2017-09-17T10:54:43Z</time>
      </trkpt>
      <trkpt lat="43.99998" lon="7.47215">
        <ele>1088</ele>
        <time>2017-09-17T10:54:44Z</time>
      </trkpt>
      <trkpt lat="43.99993" lon="7.4722">
        <ele>1087</ele>
        <time>2017-09-17T10:54:45Z</time>
      </trkpt>
      <trkpt lat="43.9999" lon="7.47228">
        <ele>1086</ele>
        <time>2017-09-17T10:54:46Z</time>
      </trkpt>
      <trkpt lat="43.99989" lon="7.47235">
        <ele>1086</ele>
        <time>2017-09-17T10:54:47Z</time>
      </trkpt>
      <trkpt lat="43.99989" lon="7.47242">
        <ele>1085</ele>
        <time>2017-09-17T10:54:48Z</time>
      </trkpt>
      <trkpt lat="43.99991" lon="7.47247">
        <ele>1085</ele>
        <time>2017-09-17T10:54:49Z</time>
      </trkpt>
      <trkpt lat="43.99994" lon="7.47249">
        <ele>1084</ele>
        <time>2017-09-17T10:54:50Z</time>
      </trkpt>
      <trkpt lat="43.99997" lon="7.47248">
        <ele>1084</ele>
        <time>2017-09-17T10:54:51Z</time>
      </trkpt>
      <trkpt lat="44" lon="7.47245">
        <ele>1084</ele>
        <time>2017-09-17T10:54:52Z</time>
      </trkpt>
      <trkpt lat="44.00003" lon="7.47241">
        <ele>1083</ele>
        <time>2017-09-17T10:54:53Z</time>
      </trkpt>
      <trkpt lat="44.00005" lon="7.47236">
        <ele>1083</ele>
        <time>2017-09-17T10:54:54Z</time>
      </trkpt>
      <trkpt lat="44.00008" lon="7.47231">
        <ele>1083</ele>
        <time>2017-09-17T10:54:55Z</time>
      </trkpt>
      <trkpt lat="44.00011" lon="7.47227">
        <ele>1082</ele>
        <time>2017-09-17T10:54:56Z</time>
      </trkpt>
      <trkpt lat="44.00016" lon="7.47225">
        <ele>1082</ele>
        <time>2017-09-17T10:54:57Z</time>
      </trkpt>
      <trkpt lat="44.0002" lon="7.47225">
        <ele>1082</ele>
        <time>2017-09-17T10:54:58Z</time>
      </trkpt>
      <trkpt lat="44.00026" lon="7.47226">
        <ele>1082</ele>
        <time>2017-09-17T10:54:59Z</time>
      </trkpt>
      <trkpt lat="44.00031" lon="7.47229">
        <ele>1081</ele>
        <time>2017-09-17T10:55:00Z</time>
      </trkpt>
      <trkpt lat="44.00037" lon="7.47231">
        <ele>1081</ele>
        <time>2017-09-17T10:55:01Z</time>
      </trkpt>
      <trkpt lat="44.00043" lon="7.47235">
        <ele>1081</ele>
        <time>2017-09-17T10:55:02Z</time>
      </trkpt>
      <trkpt lat="44.00049" lon="7.47238">
        <ele>1081</ele>
        <time>2017-09-17T10:55:03Z</time>
      </trkpt>
      <trkpt lat="44.00056" lon="7.47242">
        <ele>1081</ele>
        <time>2017-09-17T10:55:04Z</time>
      </trkpt>
      <trkpt lat="44.00063" lon="7.47246">
        <ele>1081</ele>
        <time>2017-09-17T10:55:05Z</time>
      </trkpt>
      <trkpt lat="44.0007" lon="7.47251">
        <ele>1080</ele>
        <time>2017-09-17T10:55:06Z</time>
      </trkpt>
      <trkpt lat="44.00077" lon="7.47255">
        <ele>1080</ele>
        <time>2017-09-17T10:55:07Z</time>
      </trkpt>
      <trkpt lat="44.00085" lon="7.4726">
        <ele>1080</ele>
        <time>2017-09-17T10:55:08Z</time>
      </trkpt>
      <trkpt lat="44.00093" lon="7.47265">
        <ele>1080</ele>
        <time>2017-09-17T10:55:09Z</time>
      </trkpt>
      <trkpt lat="44.00101" lon="7.47269">
        <ele>1080</ele>
        <time>2017-09-17T10:55:10Z</time>
      </trkpt>
      <trkpt lat="44.00109" lon="7.47273">
        <ele>1079</ele>
        <time>2017-09-17T10:55:11Z</time>
      </trkpt>
      <trkpt lat="44.00117" lon="7.47275">
        <ele>1079</ele>
        <time>2017-09-17T10:55:12Z</time>
      </trkpt>
      <trkpt lat="44.00125" lon="7.47277">
        <ele>1079</ele>
        <time>2017-09-17T10:55:13Z</time>
      </trkpt>
      <trkpt lat="44.00134" lon="7.4728">
        <ele>1078</ele>
        <time>2017-09-17T10:55:14Z</time>
      </trkpt>
      <trkpt lat="44.00143" lon="7.47282">
        <ele>1078</ele>
        <time>2017-09-17T10:55:15Z</time>
      </trkpt>
      <trkpt lat="44.00152" lon="7.47284">
        <ele>1078</ele>
        <time>2017-09-17T10:55:16Z</time>
      </trkpt>
      <trkpt lat="44.00161" lon="7.47287">
        <ele>1077</ele>
        <time>2017-09-17T10:55:17Z</time>
      </trkpt>
      <trkpt lat="44.0017" lon="7.47291">
        <ele>1077</ele>
        <time>2017-09-17T10:55:18Z</time>
      </trkpt>
      <trkpt lat="44.00179" lon="7.47294">
        <ele>1076</ele>
        <time>2017-09-17T10:55:19Z</time>
      </trkpt>
      <trkpt lat="44.00189" lon="7.47298">
        <ele>1076</ele>
        <time>2017-09-17T10:55:20Z</time>
      </trkpt>
      <trkpt lat="44.00198" lon="7.47303">
        <ele>1075</ele>
        <time>2017-09-17T10:55:21Z</time>
      </trkpt>
      <trkpt lat="44.00207" lon="7.47307">
        <ele>1074</ele>
        <time>2017-09-17T10:55:22Z</time>
      </trkpt>
      <trkpt lat="44.00215" lon="7.47313">
        <ele>1073</ele>
        <time>2017-09-17T10:55:23Z</time>
      </trkpt>
      <trkpt lat="44.00223" lon="7.47319">
        <ele>1072</ele>
        <time>2017-09-17T10:55:24Z</time>
      </trkpt>
      <trkpt lat="44.00231" lon="7.47326">
        <ele>1071</ele>
        <time>2017-09-17T10:55:25Z</time>
      </trkpt>
      <trkpt lat="44.00238" lon="7.47332">
        <ele>1071</ele>
        <time>2017-09-17T10:55:26Z</time>
      </trkpt>
      <trkpt lat="44.00245" lon="7.47337">
        <ele>1070</ele>
        <time>2017-09-17T10:55:27Z</time>
      </trkpt>
      <trkpt lat="44.00251" lon="7.47343">
        <ele>1069</ele>
        <time>2017-09-17T10:55:28Z</time>
      </trkpt>
      <trkpt lat="44.00257" lon="7.47349">
        <ele>1068</ele>
        <time>2017-09-17T10:55:29Z</time>
      </trkpt>
      <trkpt lat="44.00264" lon="7.47356">
        <ele>1068</ele>
        <time>2017-09-17T10:55:30Z</time>
      </trkpt>
      <trkpt lat="44.00271" lon="7.47362">
        <ele>1067</ele>
        <time>2017-09-17T10:55:31Z</time>
      </trkpt>
      <trkpt lat="44.00278" lon="7.47368">
        <ele>1066</ele>
        <time>2017-09-17T10:55:32Z</time>
      </trkpt>
      <trkpt lat="44.00286" lon="7.47374">
        <ele>1065</ele>
        <time>2017-09-17T10:55:33Z</time>
      </trkpt>
      <trkpt lat="44.00293" lon="7.47381">
        <ele>1064</ele>
        <time>2017-09-17T10:55:34Z</time>
      </trkpt>
      <trkpt lat="44.003" lon="7.47389">
        <ele>1063</ele>
        <time>2017-09-17T10:55:35Z</time>
      </trkpt>
      <trkpt lat="44.00306" lon="7.47396">
        <ele>1062</ele>
        <time>2017-09-17T10:55:36Z</time>
      </trkpt>
      <trkpt lat="44.00312" lon="7.47403">
        <ele>1061</ele>
        <time>2017-09-17T10:55:37Z</time>
      </trkpt>
      <trkpt lat="44.00318" lon="7.4741">
        <ele>1059</ele>
        <time>2017-09-17T10:55:38Z</time>
      </trkpt>
      <trkpt lat="44.00323" lon="7.47417">
        <ele>1058</ele>
        <time>2017-09-17T10:55:39Z</time>
      </trkpt>
      <trkpt lat="44.00326" lon="7.47425">
        <ele>1057</ele>
        <time>2017-09-17T10:55:40Z</time>
      </trkpt>
      <trkpt lat="44.00329" lon="7.47432">
        <ele>1056</ele>
        <time>2017-09-17T10:55:41Z</time>
      </trkpt>
      <trkpt lat="44.0033" lon="7.47439">
        <ele>1055</ele>
        <time>2017-09-17T10:55:42Z</time>
      </trkpt>
      <trkpt lat="44.00331" lon="7.47446">
        <ele>1054</ele>
        <time>2017-09-17T10:55:43Z</time>
      </trkpt>
      <trkpt lat="44.00331" lon="7.47454">
        <ele>1053</ele>
        <time>2017-09-17T10:55:44Z</time>
      </trkpt>
      <trkpt lat="44.00332" lon="7.4746">
        <ele>1052</ele>
        <time>2017-09-17T10:55:45Z</time>
      </trkpt>
      <trkpt lat="44.00334" lon="7.47466">
        <ele>1051</ele>
        <time>2017-09-17T10:55:46Z</time>
      </trkpt>
      <trkpt lat="44.00337" lon="7.4747">
        <ele>1050</ele>
        <time>2017-09-17T10:55:47Z</time>
      </trkpt>
      <trkpt lat="44.0034" lon="7.47472">
        <ele>1049</ele>
        <time>2017-09-17T10:55:48Z</time>
      </trkpt>
      <trkpt lat="44.00344" lon="7.47471">
        <ele>1048</ele>
        <time>2017-09-17T10:55:49Z</time>
      </trkpt>
      <trkpt lat="44.00348" lon="7.47469">
        <ele>1048</ele>
        <time>2017-09-17T10:55:50Z</time>
      </trkpt>
      <trkpt lat="44.00352" lon="7.47465">
        <ele>1047</ele>
        <time>2017-09-17T10:55:51Z</time>
      </trkpt>
      <trkpt lat="44.00356" lon="7.4746">
        <ele>1047</ele>
        <time>2017-09-17T10:55:52Z</time>
      </trkpt>
      <trkpt lat="44.0036" lon="7.47454">
        <ele>1046</ele>
        <time>2017-09-17T10:55:53Z</time>
      </trkpt>
      <trkpt lat="44.00365" lon="7.47449">
        <ele>1045</ele>
        <time>2017-09-17T10:55:54Z</time>
      </trkpt>
      <trkpt lat="44.0037" lon="7.47444">
        <ele>1045</ele>
        <time>2017-09-17T10:55:55Z</time>
      </trkpt>
      <trkpt lat="44.00375" lon="7.47439">
        <ele>1045</ele>
        <time>2017-09-17T10:55:56Z</time>
      </trkpt>
      <trkpt lat="44.0038" lon="7.47435">
        <ele>1044</ele>
        <time>2017-09-17T10:55:57Z</time>
      </trkpt>
      <trkpt lat="44.00385" lon="7.47431">
        <ele>1044</ele>
        <time>2017-09-17T10:55:58Z</time>
      </trkpt>
      <trkpt lat="44.00389" lon="7.47425">
        <ele>1044</ele>
        <time>2017-09-17T10:55:59Z</time>
      </trkpt>
      <trkpt lat="44.00391" lon="7.47418">
        <ele>1043</ele>
        <time>2017-09-17T10:56:00Z</time>
      </trkpt>
      <trkpt lat="44.00393" lon="7.4741">
        <ele>1043</ele>
        <time>2017-09-17T10:56:01Z</time>
      </trkpt>
      <trkpt lat="44.00395" lon="7.47402">
        <ele>1043</ele>
        <time>2017-09-17T10:56:02Z</time>
      </trkpt>
      <trkpt lat="44.00396" lon="7.47393">
        <ele>1042</ele>
        <time>2017-09-17T10:56:03Z</time>
      </trkpt>
      <trkpt lat="44.00398" lon="7.47382">
        <ele>1042</ele>
        <time>2017-09-17T10:56:04Z</time>
      </trkpt>
      <trkpt lat="44.00399" lon="7.47371">
        <ele>1042</ele>
        <time>2017-09-17T10:56:05Z</time>
      </trkpt>
      <trkpt lat="44.00402" lon="7.4736">
        <ele>1041</ele>
        <time>2017-09-17T10:56:06Z</time>
      </trkpt>
      <trkpt lat="44.00404" lon="7.47349">
        <ele>1041</ele>
        <time>2017-09-17T10:56:07Z</time>
      </trkpt>
      <trkpt lat="44.00407" lon="7.47339">
        <ele>1041</ele>
        <time>2017-09-17T10:56:08Z</time>
      </trkpt>
      <trkpt lat="44.0041" lon="7.47328">
        <ele>1040</ele>
        <time>2017-09-17T10:56:09Z</time>
      </trkpt>
      <trkpt lat="44.00413" lon="7.47317">
        <ele>1040</ele>
        <time>2017-09-17T10:56:10Z</time>
      </trkpt>
      <trkpt lat="44.00416" lon="7.47305">
        <ele>1040</ele>
        <time>2017-09-17T10:56:11Z</time>
      </trkpt>
      <trkpt lat="44.00419" lon="7.47292">
        <ele>1039</ele>
        <time>2017-09-17T10:56:12Z</time>
      </trkpt>
      <trkpt lat="44.00422" lon="7.47279">
        <ele>1039</ele>
        <time>2017-09-17T10:56:13Z</time>
      </trkpt>
      <trkpt lat="44.00425" lon="7.47266">
        <ele>1038</ele>
        <time>2017-09-17T10:56:14Z</time>
      </trkpt>
      <trkpt lat="44.00428" lon="7.47253">
        <ele>1038</ele>
        <time>2017-09-17T10:56:15Z</time>
      </trkpt>
      <trkpt lat="44.00431" lon="7.4724">
        <ele>1037</ele>
        <time>2017-09-17T10:56:16Z</time>
      </trkpt>
      <trkpt lat="44.00435" lon="7.47229">
        <ele>1037</ele>
        <time>2017-09-17T10:56:17Z</time>
      </trkpt>
      <trkpt lat="44.00439" lon="7.47217">
        <ele>1037</ele>
        <time>2017-09-17T10:56:18Z</time>
      </trkpt>
      <trkpt lat="44.00443" lon="7.47206">
        <ele>1036</ele>
        <time>2017-09-17T10:56:19Z</time>
      </trkpt>
      <trkpt lat="44.00448" lon="7.47195">
        <ele>1036</ele>
        <time>2017-09-17T10:56:20Z</time>
      </trkpt>
      <trkpt lat="44.00451" lon="7.47184">
        <ele>1035</ele>
        <time>2017-09-17T10:56:21Z</time>
      </trkpt>
      <trkpt lat="44.00455" lon="7.47174">
        <ele>1035</ele>
        <time>2017-09-17T10:56:22Z</time>
      </trkpt>
      <trkpt lat="44.00459" lon="7.47166">
        <ele>1034</ele>
        <time>2017-09-17T10:56:23Z</time>
      </trkpt>
      <trkpt lat="44.00463" lon="7.47157">
        <ele>1033</ele>
        <time>2017-09-17T10:56:24Z</time>
      </trkpt>
      <trkpt lat="44.00467" lon="7.47149">
        <ele>1033</ele>
        <time>2017-09-17T10:56:25Z</time>
      </trkpt>
      <trkpt lat="44.00471" lon="7.47141">
        <ele>1032</ele>
        <time>2017-09-17T10:56:26Z</time>
      </trkpt>
      <trkpt lat="44.00475" lon="7.47133">
        <ele>1031</ele>
        <time>2017-09-17T10:56:27Z</time>
      </trkpt>
      <trkpt lat="44.00479" lon="7.47124">
        <ele>1030</ele>
        <time>2017-09-17T10:56:28Z</time>
      </trkpt>
      <trkpt lat="44.00482" lon="7.47116">
        <ele>1029</ele>
        <time>2017-09-17T10:56:29Z</time>
      </trkpt>
      <trkpt lat="44.00485" lon="7.47109">
        <ele>1029</ele>
        <time>2017-09-17T10:56:30Z</time>
      </trkpt>
      <trkpt lat="44.00489" lon="7.47102">
        <ele>1028</ele>
        <time>2017-09-17T10:56:31Z</time>
      </trkpt>
      <trkpt lat="44.00495" lon="7.47095">
        <ele>1027</ele>
        <time>2017-09-17T10:56:32Z</time>
      </trkpt>
      <trkpt lat="44.005" lon="7.47089">
        <ele>1026</ele>
        <time>2017-09-17T10:56:33Z</time>
      </trkpt>
      <trkpt lat="44.00507" lon="7.47083">
        <ele>1026</ele>
        <time>2017-09-17T10:56:34Z</time>
      </trkpt>
      <trkpt lat="44.00514" lon="7.47078">
        <ele>1025</ele>
        <time>2017-09-17T10:56:35Z</time>
      </trkpt>
      <trkpt lat="44.00521" lon="7.47073">
        <ele>1024</ele>
        <time>2017-09-17T10:56:36Z</time>
      </trkpt>
      <trkpt lat="44.00527" lon="7.47068">
        <ele>1023</ele>
        <time>2017-09-17T10:56:37Z</time>
      </trkpt>
      <trkpt lat="44.00534" lon="7.47063">
        <ele>1023</ele>
        <time>2017-09-17T10:56:38Z</time>
      </trkpt>
      <trkpt lat="44.00541" lon="7.47058">
        <ele>1022</ele>
        <time>2017-09-17T10:56:39Z</time>
      </trkpt>
      <trkpt lat="44.00547" lon="7.47052">
        <ele>1021</ele>
        <time>2017-09-17T10:56:40Z</time>
      </trkpt>
      <trkpt lat="44.00552" lon="7.47045">
        <ele>1020</ele>
        <time>2017-09-17T10:56:41Z</time>
      </trkpt>
      <trkpt lat="44.00558" lon="7.47037">
        <ele>1020</ele>
        <time>2017-09-17T10:56:42Z</time>
      </trkpt>
      <trkpt lat="44.00563" lon="7.47028">
        <ele>1019</ele>
        <time>2017-09-17T10:56:43Z</time>
      </trkpt>
      <trkpt lat="44.00567" lon="7.47019">
        <ele>1018</ele>
        <time>2017-09-17T10:56:44Z</time>
      </trkpt>
      <trkpt lat="44.00571" lon="7.47009">
        <ele>1018</ele>
        <time>2017-09-17T10:56:45Z</time>
      </trkpt>
      <trkpt lat="44.00575" lon="7.47">
        <ele>1017</ele>
        <time>2017-09-17T10:56:46Z</time>
      </trkpt>
      <trkpt lat="44.00577" lon="7.46991">
        <ele>1016</ele>
        <time>2017-09-17T10:56:47Z</time>
      </trkpt>
      <trkpt lat="44.00579" lon="7.4698">
        <ele>1015</ele>
        <time>2017-09-17T10:56:48Z</time>
      </trkpt>
      <trkpt lat="44.0058" lon="7.46969">
        <ele>1013</ele>
        <time>2017-09-17T10:56:49Z</time>
      </trkpt>
      <trkpt lat="44.00581" lon="7.46957">
        <ele>1012</ele>
        <time>2017-09-17T10:56:50Z</time>
      </trkpt>
      <trkpt lat="44.00581" lon="7.46944">
        <ele>1010</ele>
        <time>2017-09-17T10:56:51Z</time>
      </trkpt>
      <trkpt lat="44.00581" lon="7.46931">
        <ele>1008</ele>
        <time>2017-09-17T10:56:52Z</time>
      </trkpt>
      <trkpt lat="44.00583" lon="7.46917">
        <ele>1007</ele>
        <time>2017-09-17T10:56:53Z</time>
      </trkpt>
      <trkpt lat="44.00585" lon="7.46904">
        <ele>1005</ele>
        <time>2017-09-17T10:56:54Z</time>
      </trkpt>
      <trkpt lat="44.00587" lon="7.4689">
        <ele>1003</ele>
        <time>2017-09-17T10:56:55Z</time>
      </trkpt>
      <trkpt lat="44.0059" lon="7.46879">
        <ele>1002</ele>
        <time>2017-09-17T10:56:56Z</time>
      </trkpt>
      <trkpt lat="44.00593" lon="7.46867">
        <ele>1000</ele>
        <time>2017-09-17T10:56:57Z</time>
      </trkpt>
      <trkpt lat="44.00598" lon="7.46856">
        <ele>999</ele>
        <time>2017-09-17T10:56:58Z</time>
      </trkpt>
      <trkpt lat="44.00602" lon="7.46846">
        <ele>998</ele>
        <time>2017-09-17T10:56:59Z</time>
      </trkpt>
      <trkpt lat="44.00607" lon="7.46836">
        <ele>996</ele>
        <time>2017-09-17T10:57:00Z</time>
      </trkpt>
      <trkpt lat="44.00611" lon="7.46827">
        <ele>995</ele>
        <time>2017-09-17T10:57:01Z</time>
      </trkpt>
      <trkpt lat="44.00614" lon="7.46817">
        <ele>994</ele>
        <time>2017-09-17T10:57:02Z</time>
      </trkpt>
      <trkpt lat="44.00618" lon="7.46808">
        <ele>993</ele>
        <time>2017-09-17T10:57:03Z</time>
      </trkpt>
      <trkpt lat="44.00621" lon="7.46797">
        <ele>993</ele>
        <time>2017-09-17T10:57:04Z</time>
      </trkpt>
      <trkpt lat="44.00624" lon="7.46787">
        <ele>992</ele>
        <time>2017-09-17T10:57:05Z</time>
      </trkpt>
      <trkpt lat="44.00626" lon="7.46776">
        <ele>991</ele>
        <time>2017-09-17T10:57:06Z</time>
      </trkpt>
      <trkpt lat="44.00627" lon="7.46766">
        <ele>990</ele>
        <time>2017-09-17T10:57:07Z</time>
      </trkpt>
      <trkpt lat="44.0063" lon="7.46755">
        <ele>989</ele>
        <time>2017-09-17T10:57:08Z</time>
      </trkpt>
      <trkpt lat="44.00633" lon="7.46744">
        <ele>988</ele>
        <time>2017-09-17T10:57:09Z</time>
      </trkpt>
      <trkpt lat="44.00637" lon="7.46734">
        <ele>988</ele>
        <time>2017-09-17T10:57:10Z</time>
      </trkpt>
      <trkpt lat="44.00642" lon="7.46725">
        <ele>987</ele>
        <time>2017-09-17T10:57:11Z</time>
      </trkpt>
      <trkpt lat="44.00647" lon="7.46716">
        <ele>986</ele>
        <time>2017-09-17T10:57:12Z</time>
      </trkpt>
      <trkpt lat="44.00652" lon="7.46709">
        <ele>985</ele>
        <time>2017-09-17T10:57:13Z</time>
      </trkpt>
      <trkpt lat="44.00656" lon="7.46703">
        <ele>985</ele>
        <time>2017-09-17T10:57:14Z</time>
      </trkpt>
      <trkpt lat="44.0066" lon="7.46696">
        <ele>984</ele>
        <time>2017-09-17T10:57:15Z</time>
      </trkpt>
      <trkpt lat="44.00664" lon="7.46689">
        <ele>983</ele>
        <time>2017-09-17T10:57:16Z</time>
      </trkpt>
      <trkpt lat="44.00667" lon="7.46682">
        <ele>983</ele>
        <time>2017-09-17T10:57:17Z</time>
      </trkpt>
      <trkpt lat="44.00669" lon="7.46676">
        <ele>982</ele>
        <time>2017-09-17T10:57:18Z</time>
      </trkpt>
      <trkpt lat="44.0067" lon="7.4667">
        <ele>981</ele>
        <time>2017-09-17T10:57:19Z</time>
      </trkpt>
      <trkpt lat="44.0067" lon="7.46662">
        <ele>980</ele>
        <time>2017-09-17T10:57:20Z</time>
      </trkpt>
      <trkpt lat="44.00669" lon="7.46654">
        <ele>979</ele>
        <time>2017-09-17T10:57:21Z</time>
      </trkpt>
      <trkpt lat="44.00668" lon="7.46646">
        <ele>978</ele>
        <time>2017-09-17T10:57:22Z</time>
      </trkpt>
      <trkpt lat="44.00668" lon="7.46637">
        <ele>977</ele>
        <time>2017-09-17T10:57:23Z</time>
      </trkpt>
      <trkpt lat="44.00669" lon="7.46628">
        <ele>977</ele>
        <time>2017-09-17T10:57:24Z</time>
      </trkpt>
      <trkpt lat="44.00671" lon="7.46618">
        <ele>976</ele>
        <time>2017-09-17T10:57:25Z</time>
      </trkpt>
      <trkpt lat="44.00672" lon="7.46608">
        <ele>975</ele>
        <time>2017-09-17T10:57:26Z</time>
      </trkpt>
      <trkpt lat="44.00673" lon="7.46598">
        <ele>974</ele>
        <time>2017-09-17T10:57:27Z</time>
      </trkpt>
      <trkpt lat="44.00675" lon="7.46587">
        <ele>974</ele>
        <time>2017-09-17T10:57:28Z</time>
      </trkpt>
      <trkpt lat="44.00676" lon="7.46575">
        <ele>973</ele>
        <time>2017-09-17T10:57:29Z</time>
      </trkpt>
      <trkpt lat="44.00678" lon="7.46564">
        <ele>972</ele>
        <time>2017-09-17T10:57:30Z</time>
      </trkpt>
      <trkpt lat="44.0068" lon="7.46552">
        <ele>972</ele>
        <time>2017-09-17T10:57:31Z</time>
      </trkpt>
      <trkpt lat="44.00683" lon="7.46539">
        <ele>971</ele>
        <time>2017-09-17T10:57:32Z</time>
      </trkpt>
      <trkpt lat="44.00687" lon="7.46527">
        <ele>971</ele>
        <time>2017-09-17T10:57:33Z</time>
      </trkpt>
      <trkpt lat="44.00691" lon="7.46515">
        <ele>971</ele>
        <time>2017-09-17T10:57:34Z</time>
      </trkpt>
      <trkpt lat="44.00696" lon="7.46504">
        <ele>970</ele>
        <time>2017-09-17T10:57:35Z</time>
      </trkpt>
      <trkpt lat="44.00701" lon="7.46494">
        <ele>970</ele>
        <time>2017-09-17T10:57:36Z</time>
      </trkpt>
      <trkpt lat="44.00706" lon="7.46484">
        <ele>970</ele>
        <time>2017-09-17T10:57:37Z</time>
      </trkpt>
      <trkpt lat="44.0071" lon="7.46473">
        <ele>969</ele>
        <time>2017-09-17T10:57:38Z</time>
      </trkpt>
      <trkpt lat="44.00713" lon="7.46462">
        <ele>969</ele>
        <time>2017-09-17T10:57:39Z</time>
      </trkpt>
      <trkpt lat="44.00715" lon="7.46451">
        <ele>969</ele>
        <time>2017-09-17T10:57:40Z</time>
      </trkpt>
      <trkpt lat="44.00717" lon="7.46439">
        <ele>968</ele>
        <time>2017-09-17T10:57:41Z</time>
      </trkpt>
      <trkpt lat="44.0072" lon="7.46428">
        <ele>968</ele>
        <time>2017-09-17T10:57:42Z</time>
      </trkpt>
      <trkpt lat="44.00724" lon="7.46417">
        <ele>967</ele>
        <time>2017-09-17T10:57:43Z</time>
      </trkpt>
      <trkpt lat="44.00727" lon="7.46405">
        <ele>967</ele>
        <time>2017-09-17T10:57:44Z</time>
      </trkpt>
      <trkpt lat="44.00731" lon="7.46394">
        <ele>967</ele>
        <time>2017-09-17T10:57:45Z</time>
      </trkpt>
      <trkpt lat="44.00734" lon="7.46383">
        <ele>967</ele>
        <time>2017-09-17T10:57:46Z</time>
      </trkpt>
      <trkpt lat="44.00737" lon="7.46373">
        <ele>966</ele>
        <time>2017-09-17T10:57:47Z</time>
      </trkpt>
      <trkpt lat="44.00741" lon="7.46362">
        <ele>966</ele>
        <time>2017-09-17T10:57:48Z</time>
      </trkpt>
      <trkpt lat="44.00746" lon="7.46353">
        <ele>966</ele>
        <time>2017-09-17T10:57:49Z</time>
      </trkpt>
      <trkpt lat="44.00751" lon="7.46344">
        <ele>966</ele>
        <time>2017-09-17T10:57:50Z</time>
      </trkpt>
      <trkpt lat="44.00757" lon="7.46338">
        <ele>966</ele>
        <time>2017-09-17T10:57:51Z</time>
      </trkpt>
      <trkpt lat="44.00764" lon="7.46334">
        <ele>965</ele>
        <time>2017-09-17T10:57:52Z</time>
      </trkpt>
      <trkpt lat="44.0077" lon="7.46333">
        <ele>965</ele>
        <time>2017-09-17T10:57:53Z</time>
      </trkpt>
      <trkpt lat="44.00775" lon="7.46334">
        <ele>965</ele>
        <time>2017-09-17T10:57:54Z</time>
      </trkpt>
      <trkpt lat="44.00779" lon="7.46338">
        <ele>965</ele>
        <time>2017-09-17T10:57:55Z</time>
      </trkpt>
      <trkpt lat="44.00782" lon="7.46343">
        <ele>965</ele>
        <time>2017-09-17T10:57:56Z</time>
      </trkpt>
      <trkpt lat="44.00783" lon="7.46349">
        <ele>965</ele>
        <time>2017-09-17T10:57:57Z</time>
      </trkpt>
      <trkpt lat="44.00782" lon="7.46355">
        <ele>965</ele>
        <time>2017-09-17T10:57:58Z</time>
      </trkpt>
      <trkpt lat="44.0078" lon="7.46362">
        <ele>965</ele>
        <time>2017-09-17T10:57:59Z</time>
      </trkpt>
      <trkpt lat="44.00779" lon="7.46369">
        <ele>965</ele>
        <time>2017-09-17T10:58:00Z</time>
      </trkpt>
      <trkpt lat="44.00778" lon="7.46376">
        <ele>965</ele>
        <time>2017-09-17T10:58:01Z</time>
      </trkpt>
      <trkpt lat="44.00778" lon="7.46384">
        <ele>965</ele>
        <time>2017-09-17T10:58:02Z</time>
      </trkpt>
      <trkpt lat="44.00777" lon="7.4639">
        <ele>965</ele>
        <time>2017-09-17T10:58:03Z</time>
      </trkpt>
      <trkpt lat="44.00777" lon="7.46397">
        <ele>965</ele>
        <time>2017-09-17T10:58:04Z</time>
      </trkpt>
      <trkpt lat="44.00776" lon="7.46404">
        <ele>964</ele>
        <time>2017-09-17T10:58:05Z</time>
      </trkpt>
      <trkpt lat="44.00775" lon="7.4641">
        <ele>964</ele>
        <time>2017-09-17T10:58:06Z</time>
      </trkpt>
      <trkpt lat="44.00775" lon="7.46415">
        <ele>964</ele>
        <time>2017-09-17T10:58:07Z</time>
      </trkpt>
      <trkpt lat="44.00776" lon="7.4642">
        <ele>963</ele>
        <time>2017-09-17T10:58:08Z</time>
      </trkpt>
      <trkpt lat="44.00776" lon="7.46424">
        <ele>963</ele>
        <time>2017-09-17T10:58:09Z</time>
      </trkpt>
      <trkpt lat="44.00777" lon="7.46428">
        <ele>962</ele>
        <time>2017-09-17T10:58:10Z</time>
      </trkpt>
      <trkpt lat="44.00777" lon="7.46434">
        <ele>962</ele>
        <time>2017-09-17T10:58:11Z</time>
      </trkpt>
      <trkpt lat="44.00778" lon="7.46439">
        <ele>961</ele>
        <time>2017-09-17T10:58:12Z</time>
      </trkpt>
      <trkpt lat="44.00779" lon="7.46446">
        <ele>961</ele>
        <time>2017-09-17T10:58:13Z</time>
      </trkpt>
      <trkpt lat="44.0078" lon="7.46452">
        <ele>960</ele>
        <time>2017-09-17T10:58:14Z</time>
      </trkpt>
      <trkpt lat="44.00781" lon="7.4646">
        <ele>959</ele>
        <time>2017-09-17T10:58:15Z</time>
      </trkpt>
      <trkpt lat="44.00783" lon="7.46467">
        <ele>959</ele>
        <time>2017-09-17T10:58:16Z</time>
      </trkpt>
      <trkpt lat="44.00785" lon="7.46475">
        <ele>958</ele>
        <time>2017-09-17T10:58:17Z</time>
      </trkpt>
      <trkpt lat="44.00787" lon="7.46482">
        <ele>958</ele>
        <time>2017-09-17T10:58:18Z</time>
      </trkpt>
      <trkpt lat="44.0079" lon="7.46489">
        <ele>958</ele>
        <time>2017-09-17T10:58:19Z</time>
      </trkpt>
      <trkpt lat="44.00794" lon="7.46495">
        <ele>957</ele>
        <time>2017-09-17T10:58:20Z</time>
      </trkpt>
      <trkpt lat="44.00798" lon="7.46501">
        <ele>957</ele>
        <time>2017-09-17T10:58:21Z</time>
      </trkpt>
      <trkpt lat="44.00801" lon="7.46507">
        <ele>957</ele>
        <time>2017-09-17T10:58:22Z</time>
      </trkpt>
      <trkpt lat="44.00804" lon="7.46512">
        <ele>956</ele>
        <time>2017-09-17T10:58:23Z</time>
      </trkpt>
      <trkpt lat="44.00808" lon="7.46518">
        <ele>956</ele>
        <time>2017-09-17T10:58:24Z</time>
      </trkpt>
      <trkpt lat="44.00812" lon="7.46523">
        <ele>956</ele>
        <time>2017-09-17T10:58:25Z</time>
      </trkpt>
      <trkpt lat="44.00815" lon="7.46528">
        <ele>956</ele>
        <time>2017-09-17T10:58:26Z</time>
      </trkpt>
      <trkpt lat="44.00818" lon="7.46534">
        <ele>955</ele>
        <time>2017-09-17T10:58:27Z</time>
      </trkpt>
      <trkpt lat="44.0082" lon="7.46541">
        <ele>955</ele>
        <time>2017-09-17T10:58:28Z</time>
      </trkpt>
      <trkpt lat="44.00822" lon="7.46549">
        <ele>955</ele>
        <time>2017-09-17T10:58:29Z</time>
      </trkpt>
      <trkpt lat="44.00822" lon="7.46556">
        <ele>954</ele>
        <time>2017-09-17T10:58:30Z</time>
      </trkpt>
      <trkpt lat="44.00822" lon="7.46564">
        <ele>954</ele>
        <time>2017-09-17T10:58:31Z</time>
      </trkpt>
      <trkpt lat="44.00821" lon="7.46572">
        <ele>954</ele>
        <time>2017-09-17T10:58:32Z</time>
      </trkpt>
      <trkpt lat="44.0082" lon="7.4658">
        <ele>953</ele>
        <time>2017-09-17T10:58:33Z</time>
      </trkpt>
      <trkpt lat="44.00819" lon="7.46589">
        <ele>953</ele>
        <time>2017-09-17T10:58:34Z</time>
      </trkpt>
      <trkpt lat="44.00818" lon="7.46597">
        <ele>953</ele>
        <time>2017-09-17T10:58:35Z</time>
      </trkpt>
      <trkpt lat="44.00818" lon="7.46606">
        <ele>952</ele>
        <time>2017-09-17T10:58:36Z</time>
      </trkpt>
      <trkpt lat="44.00817" lon="7.46615">
        <ele>951</ele>
        <time>2017-09-17T10:58:37Z</time>
      </trkpt>
      <trkpt lat="44.00816" lon="7.46624">
        <ele>951</ele>
        <time>2017-09-17T10:58:38Z</time>
      </trkpt>
      <trkpt lat="44.00815" lon="7.46634">
        <ele>950</ele>
        <time>2017-09-17T10:58:39Z</time>
      </trkpt>
      <trkpt lat="44.00814" lon="7.46645">
        <ele>949</ele>
        <time>2017-09-17T10:58:40Z</time>
      </trkpt>
      <trkpt lat="44.00814" lon="7.46657">
        <ele>948</ele>
        <time>2017-09-17T10:58:41Z</time>
      </trkpt>
      <trkpt lat="44.00813" lon="7.46669">
        <ele>947</ele>
        <time>2017-09-17T10:58:42Z</time>
      </trkpt>
      <trkpt lat="44.00813" lon="7.46682">
        <ele>946</ele>
        <time>2017-09-17T10:58:43Z</time>
      </trkpt>
      <trkpt lat="44.00813" lon="7.46697">
        <ele>945</ele>
        <time>2017-09-17T10:58:44Z</time>
      </trkpt>
      <trkpt lat="44.00812" lon="7.46711">
        <ele>943</ele>
        <time>2017-09-17T10:58:45Z</time>
      </trkpt>
      <trkpt lat="44.00812" lon="7.46725">
        <ele>942</ele>
        <time>2017-09-17T10:58:46Z</time>
      </trkpt>
      <trkpt lat="44.0081" lon="7.46739">
        <ele>941</ele>
        <time>2017-09-17T10:58:47Z</time>
      </trkpt>
      <trkpt lat="44.00809" lon="7.46754">
        <ele>940</ele>
        <time>2017-09-17T10:58:48Z</time>
      </trkpt>
      <trkpt lat="44.00807" lon="7.46768">
        <ele>938</ele>
        <time>2017-09-17T10:58:49Z</time>
      </trkpt>
      <trkpt lat="44.00805" lon="7.46784">
        <ele>937</ele>
        <time>2017-09-17T10:58:50Z</time>
      </trkpt>
      <trkpt lat="44.00803" lon="7.468">
        <ele>935</ele>
        <time>2017-09-17T10:58:51Z</time>
      </trkpt>
      <trkpt lat="44.00802" lon="7.46815">
        <ele>934</ele>
        <time>2017-09-17T10:58:52Z</time>
      </trkpt>
      <trkpt lat="44.00801" lon="7.46829">
        <ele>933</ele>
        <time>2017-09-17T10:58:53Z</time>
      </trkpt>
      <trkpt lat="44.008" lon="7.46842">
        <ele>932</ele>
        <time>2017-09-17T10:58:54Z</time>
      </trkpt>
      <trkpt lat="44.00799" lon="7.46853">
        <ele>930</ele>
        <time>2017-09-17T10:58:55Z</time>
      </trkpt>
      <trkpt lat="44.00798" lon="7.46865">
        <ele>929</ele>
        <time>2017-09-17T10:58:56Z</time>
      </trkpt>
      <trkpt lat="44.00796" lon="7.46876">
        <ele>928</ele>
        <time>2017-09-17T10:58:57Z</time>
      </trkpt>
      <trkpt lat="44.00793" lon="7.46886">
        <ele>926</ele>
        <time>2017-09-17T10:58:58Z</time>
      </trkpt>
      <trkpt lat="44.00789" lon="7.46897">
        <ele>925</ele>
        <time>2017-09-17T10:58:59Z</time>
      </trkpt>
      <trkpt lat="44.00785" lon="7.46907">
        <ele>924</ele>
        <time>2017-09-17T10:59:00Z</time>
      </trkpt>
      <trkpt lat="44.00781" lon="7.46917">
        <ele>922</ele>
        <time>2017-09-17T10:59:01Z</time>
      </trkpt>
      <trkpt lat="44.00777" lon="7.46927">
        <ele>921</ele>
        <time>2017-09-17T10:59:02Z</time>
      </trkpt>
      <trkpt lat="44.00774" lon="7.46937">
        <ele>920</ele>
        <time>2017-09-17T10:59:03Z</time>
      </trkpt>
      <trkpt lat="44.00772" lon="7.46946">
        <ele>919</ele>
        <time>2017-09-17T10:59:04Z</time>
      </trkpt>
      <trkpt lat="44.00771" lon="7.46957">
        <ele>917</ele>
        <time>2017-09-17T10:59:05Z</time>
      </trkpt>
      <trkpt lat="44.0077" lon="7.46968">
        <ele>916</ele>
        <time>2017-09-17T10:59:06Z</time>
      </trkpt>
      <trkpt lat="44.00769" lon="7.4698">
        <ele>915</ele>
        <time>2017-09-17T10:59:07Z</time>
      </trkpt>
      <trkpt lat="44.00767" lon="7.46993">
        <ele>913</ele>
        <time>2017-09-17T10:59:08Z</time>
      </trkpt>
      <trkpt lat="44.00764" lon="7.47006">
        <ele>912</ele>
        <time>2017-09-17T10:59:09Z</time>
      </trkpt>
      <trkpt lat="44.00759" lon="7.47018">
        <ele>911</ele>
        <time>2017-09-17T10:59:10Z</time>
      </trkpt>
      <trkpt lat="44.00754" lon="7.47029">
        <ele>910</ele>
        <time>2017-09-17T10:59:11Z</time>
      </trkpt>
      <trkpt lat="44.00748" lon="7.47039">
        <ele>909</ele>
        <time>2017-09-17T10:59:12Z</time>
      </trkpt>
      <trkpt lat="44.00743" lon="7.47049">
        <ele>908</ele>
        <time>2017-09-17T10:59:13Z</time>
      </trkpt>
      <trkpt lat="44.00739" lon="7.47059">
        <ele>907</ele>
        <time>2017-09-17T10:59:14Z</time>
      </trkpt>
      <trkpt lat="44.00736" lon="7.4707">
        <ele>906</ele>
        <time>2017-09-17T10:59:15Z</time>
      </trkpt>
      <trkpt lat="44.00734" lon="7.47081">
        <ele>905</ele>
        <time>2017-09-17T10:59:16Z</time>
      </trkpt>
      <trkpt lat="44.00734" lon="7.47093">
        <ele>904</ele>
        <time>2017-09-17T10:59:17Z</time>
      </trkpt>
      <trkpt lat="44.00735" lon="7.47106">
        <ele>903</ele>
        <time>2017-09-17T10:59:18Z</time>
      </trkpt>
      <trkpt lat="44.00736" lon="7.4712">
        <ele>902</ele>
        <time>2017-09-17T10:59:19Z</time>
      </trkpt>
      <trkpt lat="44.00736" lon="7.47135">
        <ele>901</ele>
        <time>2017-09-17T10:59:20Z</time>
      </trkpt>
      <trkpt lat="44.00735" lon="7.47149">
        <ele>900</ele>
        <time>2017-09-17T10:59:21Z</time>
      </trkpt>
      <trkpt lat="44.00734" lon="7.47162">
        <ele>898</ele>
        <time>2017-09-17T10:59:22Z</time>
      </trkpt>
      <trkpt lat="44.00732" lon="7.47175">
        <ele>897</ele>
        <time>2017-09-17T10:59:23Z</time>
      </trkpt>
      <trkpt lat="44.00729" lon="7.47186">
        <ele>895</ele>
        <time>2017-09-17T10:59:24Z</time>
      </trkpt>
      <trkpt lat="44.00726" lon="7.47198">
        <ele>893</ele>
        <time>2017-09-17T10:59:25Z</time>
      </trkpt>
      <trkpt lat="44.00723" lon="7.47209">
        <ele>892</ele>
        <time>2017-09-17T10:59:26Z</time>
      </trkpt>
      <trkpt lat="44.00721" lon="7.47222">
        <ele>890</ele>
        <time>2017-09-17T10:59:27Z</time>
      </trkpt>
      <trkpt lat="44.00719" lon="7.47237">
        <ele>888</ele>
        <time>2017-09-17T10:59:28Z</time>
      </trkpt>
      <trkpt lat="44.00717" lon="7.47253">
        <ele>886</ele>
        <time>2017-09-17T10:59:29Z</time>
      </trkpt>
      <trkpt lat="44.00715" lon="7.47269">
        <ele>884</ele>
        <time>2017-09-17T10:59:30Z</time>
      </trkpt>
      <trkpt lat="44.00712" lon="7.47284">
        <ele>882</ele>
        <time>2017-09-17T10:59:31Z</time>
      </trkpt>
      <trkpt lat="44.0071" lon="7.47299">
        <ele>879</ele>
        <time>2017-09-17T10:59:32Z</time>
      </trkpt>
      <trkpt lat="44.00708" lon="7.47314">
        <ele>877</ele>
        <time>2017-09-17T10:59:33Z</time>
      </trkpt>
      <trkpt lat="44.00706" lon="7.4733">
        <ele>874</ele>
        <time>2017-09-17T10:59:34Z</time>
      </trkpt>
      <trkpt lat="44.00704" lon="7.47346">
        <ele>872</ele>
        <time>2017-09-17T10:59:35Z</time>
      </trkpt>
      <trkpt lat="44.00702" lon="7.47361">
        <ele>869</ele>
        <time>2017-09-17T10:59:36Z</time>
      </trkpt>
      <trkpt lat="44.00699" lon="7.47376">
        <ele>867</ele>
        <time>2017-09-17T10:59:37Z</time>
      </trkpt>
      <trkpt lat="44.00694" lon="7.4739">
        <ele>865</ele>
        <time>2017-09-17T10:59:38Z</time>
      </trkpt>
      <trkpt lat="44.00688" lon="7.47401">
        <ele>863</ele>
        <time>2017-09-17T10:59:39Z</time>
      </trkpt>
      <trkpt lat="44.0068" lon="7.47411">
        <ele>861</ele>
        <time>2017-09-17T10:59:40Z</time>
      </trkpt>
      <trkpt lat="44.00671" lon="7.47419">
        <ele>859</ele>
        <time>2017-09-17T10:59:41Z</time>
      </trkpt>
      <trkpt lat="44.00662" lon="7.47425">
        <ele>857</ele>
        <time>2017-09-17T10:59:42Z</time>
      </trkpt>
      <trkpt lat="44.00651" lon="7.47429">
        <ele>856</ele>
        <time>2017-09-17T10:59:43Z</time>
      </trkpt>
      <trkpt lat="44.00641" lon="7.47435">
        <ele>854</ele>
        <time>2017-09-17T10:59:44Z</time>
      </trkpt>
      <trkpt lat="44.00632" lon="7.47442">
        <ele>853</ele>
        <time>2017-09-17T10:59:45Z</time>
      </trkpt>
      <trkpt lat="44.00623" lon="7.4745">
        <ele>852</ele>
        <time>2017-09-17T10:59:46Z</time>
      </trkpt>
      <trkpt lat="44.00615" lon="7.47457">
        <ele>852</ele>
        <time>2017-09-17T10:59:47Z</time>
      </trkpt>
      <trkpt lat="44.00609" lon="7.47467">
        <ele>851</ele>
        <time>2017-09-17T10:59:48Z</time>
      </trkpt>
      <trkpt lat="44.00605" lon="7.47478">
        <ele>851</ele>
        <time>2017-09-17T10:59:49Z</time>
      </trkpt>
      <trkpt lat="44.00602" lon="7.47489">
        <ele>851</ele>
        <time>2017-09-17T10:59:50Z</time>
      </trkpt>
      <trkpt lat="44.00599" lon="7.47501">
        <ele>850</ele>
        <time>2017-09-17T10:59:51Z</time>
      </trkpt>
      <trkpt lat="44.00599" lon="7.47514">
        <ele>850</ele>
        <time>2017-09-17T10:59:52Z</time>
      </trkpt>
      <trkpt lat="44.00601" lon="7.47527">
        <ele>850</ele>
        <time>2017-09-17T10:59:53Z</time>
      </trkpt>
      <trkpt lat="44.00603" lon="7.47541">
        <ele>850</ele>
        <time>2017-09-17T10:59:54Z</time>
      </trkpt>
      <trkpt lat="44.00605" lon="7.47553">
        <ele>849</ele>
        <time>2017-09-17T10:59:55Z</time>
      </trkpt>
      <trkpt lat="44.00606" lon="7.47565">
        <ele>848</ele>
        <time>2017-09-17T10:59:56Z</time>
      </trkpt>
      <trkpt lat="44.00605" lon="7.47577">
        <ele>847</ele>
        <time>2017-09-17T10:59:57Z</time>
      </trkpt>
      <trkpt lat="44.00602" lon="7.47588">
        <ele>846</ele>
        <time>2017-09-17T10:59:58Z</time>
      </trkpt>
      <trkpt lat="44.00598" lon="7.47598">
        <ele>845</ele>
        <time>2017-09-17T10:59:59Z</time>
      </trkpt>
      <trkpt lat="44.00594" lon="7.47607">
        <ele>845</ele>
        <time>2017-09-17T11:00:00Z</time>
      </trkpt>
      <trkpt lat="44.00589" lon="7.47613">
        <ele>844</ele>
        <time>2017-09-17T11:00:01Z</time>
      </trkpt>
      <trkpt lat="44.00582" lon="7.47618">
        <ele>843</ele>
        <time>2017-09-17T11:00:02Z</time>
      </trkpt>
      <trkpt lat="44.00576" lon="7.47624">
        <ele>842</ele>
        <time>2017-09-17T11:00:03Z</time>
      </trkpt>
      <trkpt lat="44.00571" lon="7.47632">
        <ele>842</ele>
        <time>2017-09-17T11:00:04Z</time>
      </trkpt>
      <trkpt lat="44.00567" lon="7.47642">
        <ele>841</ele>
        <time>2017-09-17T11:00:05Z</time>
      </trkpt>
      <trkpt lat="44.00564" lon="7.47652">
        <ele>840</ele>
        <time>2017-09-17T11:00:06Z</time>
      </trkpt>
      <trkpt lat="44.00561" lon="7.47664">
        <ele>839</ele>
        <time>2017-09-17T11:00:07Z</time>
      </trkpt>
      <trkpt lat="44.00559" lon="7.47675">
        <ele>839</ele>
        <time>2017-09-17T11:00:08Z</time>
      </trkpt>
      <trkpt lat="44.00556" lon="7.47687">
        <ele>838</ele>
        <time>2017-09-17T11:00:09Z</time>
      </trkpt>
      <trkpt lat="44.00553" lon="7.47699">
        <ele>837</ele>
        <time>2017-09-17T11:00:10Z</time>
      </trkpt>
      <trkpt lat="44.0055" lon="7.47712">
        <ele>836</ele>
        <time>2017-09-17T11:00:11Z</time>
      </trkpt>
      <trkpt lat="44.00548" lon="7.47724">
        <ele>835</ele>
        <time>2017-09-17T11:00:12Z</time>
      </trkpt>
      <trkpt lat="44.00546" lon="7.47737">
        <ele>834</ele>
        <time>2017-09-17T11:00:13Z</time>
      </trkpt>
      <trkpt lat="44.00544" lon="7.47751">
        <ele>834</ele>
        <time>2017-09-17T11:00:14Z</time>
      </trkpt>
      <trkpt lat="44.00541" lon="7.47764">
        <ele>833</ele>
        <time>2017-09-17T11:00:15Z</time>
      </trkpt>
      <trkpt lat="44.00538" lon="7.47778">
        <ele>832</ele>
        <time>2017-09-17T11:00:16Z</time>
      </trkpt>
      <trkpt lat="44.00535" lon="7.47792">
        <ele>831</ele>
        <time>2017-09-17T11:00:17Z</time>
      </trkpt>
      <trkpt lat="44.00533" lon="7.47805">
        <ele>831</ele>
        <time>2017-09-17T11:00:18Z</time>
      </trkpt>
      <trkpt lat="44.00532" lon="7.47819">
        <ele>830</ele>
        <time>2017-09-17T11:00:19Z</time>
      </trkpt>
      <trkpt lat="44.00532" lon="7.47831">
        <ele>830</ele>
        <time>2017-09-17T11:00:20Z</time>
      </trkpt>
      <trkpt lat="44.00532" lon="7.47844">
        <ele>830</ele>
        <time>2017-09-17T11:00:21Z</time>
      </trkpt>
      <trkpt lat="44.00533" lon="7.47856">
        <ele>829</ele>
        <time>2017-09-17T11:00:22Z</time>
      </trkpt>
      <trkpt lat="44.00533" lon="7.47867">
        <ele>829</ele>
        <time>2017-09-17T11:00:23Z</time>
      </trkpt>
      <trkpt lat="44.00532" lon="7.47878">
        <ele>829</ele>
        <time>2017-09-17T11:00:24Z</time>
      </trkpt>
      <trkpt lat="44.0053" lon="7.47889">
        <ele>828</ele>
        <time>2017-09-17T11:00:25Z</time>
      </trkpt>
      <trkpt lat="44.00528" lon="7.47901">
        <ele>828</ele>
        <time>2017-09-17T11:00:26Z</time>
      </trkpt>
      <trkpt lat="44.00525" lon="7.47912">
        <ele>827</ele>
        <time>2017-09-17T11:00:27Z</time>
      </trkpt>
      <trkpt lat="44.00522" lon="7.47925">
        <ele>826</ele>
        <time>2017-09-17T11:00:28Z</time>
      </trkpt>
      <trkpt lat="44.0052" lon="7.47938">
        <ele>826</ele>
        <time>2017-09-17T11:00:29Z</time>
      </trkpt>
      <trkpt lat="44.00521" lon="7.47951">
        <ele>825</ele>
        <time>2017-09-17T11:00:30Z</time>
      </trkpt>
      <trkpt lat="44.00522" lon="7.47964">
        <ele>824</ele>
        <time>2017-09-17T11:00:31Z</time>
      </trkpt>
      <trkpt lat="44.00523" lon="7.47977">
        <ele>823</ele>
        <time>2017-09-17T11:00:32Z</time>
      </trkpt>
      <trkpt lat="44.00525" lon="7.4799">
        <ele>822</ele>
        <time>2017-09-17T11:00:33Z</time>
      </trkpt>
      <trkpt lat="44.00525" lon="7.48004">
        <ele>821</ele>
        <time>2017-09-17T11:00:34Z</time>
      </trkpt>
      <trkpt lat="44.00525" lon="7.48019">
        <ele>821</ele>
        <time>2017-09-17T11:00:35Z</time>
      </trkpt>
      <trkpt lat="44.00524" lon="7.48033">
        <ele>820</ele>
        <time>2017-09-17T11:00:36Z</time>
      </trkpt>
      <trkpt lat="44.00522" lon="7.48048">
        <ele>819</ele>
        <time>2017-09-17T11:00:37Z</time>
      </trkpt>
      <trkpt lat="44.00521" lon="7.48062">
        <ele>818</ele>
        <time>2017-09-17T11:00:38Z</time>
      </trkpt>
      <trkpt lat="44.00517" lon="7.48075">
        <ele>817</ele>
        <time>2017-09-17T11:00:39Z</time>
      </trkpt>
      <trkpt lat="44.00512" lon="7.48088">
        <ele>817</ele>
        <time>2017-09-17T11:00:40Z</time>
      </trkpt>
      <trkpt lat="44.00507" lon="7.481">
        <ele>816</ele>
        <time>2017-09-17T11:00:41Z</time>
      </trkpt>
      <trkpt lat="44.00502" lon="7.48112">
        <ele>815</ele>
        <time>2017-09-17T11:00:42Z</time>
      </trkpt>
      <trkpt lat="44.00498" lon="7.48123">
        <ele>815</ele>
        <time>2017-09-17T11:00:43Z</time>
      </trkpt>
      <trkpt lat="44.00494" lon="7.48135">
        <ele>814</ele>
        <time>2017-09-17T11:00:44Z</time>
      </trkpt>
      <trkpt lat="44.00491" lon="7.48147">
        <ele>813</ele>
        <time>2017-09-17T11:00:45Z</time>
      </trkpt>
      <trkpt lat="44.00488" lon="7.48159">
        <ele>812</ele>
        <time>2017-09-17T11:00:46Z</time>
      </trkpt>
      <trkpt lat="44.00485" lon="7.48173">
        <ele>811</ele>
        <time>2017-09-17T11:00:47Z</time>
      </trkpt>
      <trkpt lat="44.00484" lon="7.48186">
        <ele>809</ele>
        <time>2017-09-17T11:00:48Z</time>
      </trkpt>
      <trkpt lat="44.00482" lon="7.48199">
        <ele>807</ele>
        <time>2017-09-17T11:00:49Z</time>
      </trkpt>
      <trkpt lat="44.0048" lon="7.48213">
        <ele>806</ele>
        <time>2017-09-17T11:00:50Z</time>
      </trkpt>
      <trkpt lat="44.00478" lon="7.48226">
        <ele>804</ele>
        <time>2017-09-17T11:00:51Z</time>
      </trkpt>
      <trkpt lat="44.00475" lon="7.48239">
        <ele>802</ele>
        <time>2017-09-17T11:00:52Z</time>
      </trkpt>
      <trkpt lat="44.00472" lon="7.48252">
        <ele>800</ele>
        <time>2017-09-17T11:00:53Z</time>
      </trkpt>
      <trkpt lat="44.00469" lon="7.48265">
        <ele>798</ele>
        <time>2017-09-17T11:00:54Z</time>
      </trkpt>
      <trkpt lat="44.00466" lon="7.48278">
        <ele>796</ele>
        <time>2017-09-17T11:00:55Z</time>
      </trkpt>
      <trkpt lat="44.00462" lon="7.48292">
        <ele>794</ele>
        <time>2017-09-17T11:00:56Z</time>
      </trkpt>
      <trkpt lat="44.00458" lon="7.48308">
        <ele>792</ele>
        <time>2017-09-17T11:00:57Z</time>
      </trkpt>
      <trkpt lat="44.00454" lon="7.48324">
        <ele>790</ele>
        <time>2017-09-17T11:00:58Z</time>
      </trkpt>
      <trkpt lat="44.0045" lon="7.4834">
        <ele>788</ele>
        <time>2017-09-17T11:00:59Z</time>
      </trkpt>
      <trkpt lat="44.00445" lon="7.48355">
        <ele>787</ele>
        <time>2017-09-17T11:01:00Z</time>
      </trkpt>
      <trkpt lat="44.00439" lon="7.48369">
        <ele>785</ele>
        <time>2017-09-17T11:01:01Z</time>
      </trkpt>
      <trkpt lat="44.00433" lon="7.48383">
        <ele>784</ele>
        <time>2017-09-17T11:01:02Z</time>
      </trkpt>
      <trkpt lat="44.00428" lon="7.48396">
        <ele>783</ele>
        <time>2017-09-17T11:01:03Z</time>
      </trkpt>
      <trkpt lat="44.00423" lon="7.48409">
        <ele>782</ele>
        <time>2017-09-17T11:01:04Z</time>
      </trkpt>
      <trkpt lat="44.00419" lon="7.4842">
        <ele>781</ele>
        <time>2017-09-17T11:01:05Z</time>
      </trkpt>
      <trkpt lat="44.00413" lon="7.4843">
        <ele>780</ele>
        <time>2017-09-17T11:01:06Z</time>
      </trkpt>
      <trkpt lat="44.00408" lon="7.48441">
        <ele>779</ele>
        <time>2017-09-17T11:01:07Z</time>
      </trkpt>
      <trkpt lat="44.00404" lon="7.48453">
        <ele>778</ele>
        <time>2017-09-17T11:01:08Z</time>
      </trkpt>
      <trkpt lat="44.00399" lon="7.48465">
        <ele>777</ele>
        <time>2017-09-17T11:01:09Z</time>
      </trkpt>
      <trkpt lat="44.00394" lon="7.48478">
        <ele>776</ele>
        <time>2017-09-17T11:01:10Z</time>
      </trkpt>
      <trkpt lat="44.00391" lon="7.48491">
        <ele>775</ele>
        <time>2017-09-17T11:01:11Z</time>
      </trkpt>
      <trkpt lat="44.00388" lon="7.48505">
        <ele>774</ele>
        <time>2017-09-17T11:01:12Z</time>
      </trkpt>
      <trkpt lat="44.00387" lon="7.48519">
        <ele>773</ele>
        <time>2017-09-17T11:01:13Z</time>
      </trkpt>
      <trkpt lat="44.00386" lon="7.48534">
        <ele>772</ele>
        <time>2017-09-17T11:01:14Z</time>
      </trkpt>
      <trkpt lat="44.00384" lon="7.48548">
        <ele>772</ele>
        <time>2017-09-17T11:01:15Z</time>
      </trkpt>
      <trkpt lat="44.0038" lon="7.48563">
        <ele>771</ele>
        <time>2017-09-17T11:01:16Z</time>
      </trkpt>
      <trkpt lat="44.00376" lon="7.48578">
        <ele>770</ele>
        <time>2017-09-17T11:01:17Z</time>
      </trkpt>
      <trkpt lat="44.00372" lon="7.48594">
        <ele>769</ele>
        <time>2017-09-17T11:01:18Z</time>
      </trkpt>
      <trkpt lat="44.00366" lon="7.48611">
        <ele>768</ele>
        <time>2017-09-17T11:01:19Z</time>
      </trkpt>
      <trkpt lat="44.00361" lon="7.48628">
        <ele>767</ele>
        <time>2017-09-17T11:01:20Z</time>
      </trkpt>
      <trkpt lat="44.00355" lon="7.48646">
        <ele>766</ele>
        <time>2017-09-17T11:01:21Z</time>
      </trkpt>
      <trkpt lat="44.00351" lon="7.48665">
        <ele>764</ele>
        <time>2017-09-17T11:01:22Z</time>
      </trkpt>
      <trkpt lat="44.00346" lon="7.48683">
        <ele>763</ele>
        <time>2017-09-17T11:01:23Z</time>
      </trkpt>
      <trkpt lat="44.00342" lon="7.487">
        <ele>761</ele>
        <time>2017-09-17T11:01:24Z</time>
      </trkpt>
      <trkpt lat="44.00338" lon="7.48715">
        <ele>759</ele>
        <time>2017-09-17T11:01:25Z</time>
      </trkpt>
      <trkpt lat="44.00335" lon="7.48729">
        <ele>758</ele>
        <time>2017-09-17T11:01:26Z</time>
      </trkpt>
      <trkpt lat="44.00332" lon="7.48743">
        <ele>757</ele>
        <time>2017-09-17T11:01:27Z</time>
      </trkpt>
      <trkpt lat="44.00328" lon="7.48756">
        <ele>755</ele>
        <time>2017-09-17T11:01:28Z</time>
      </trkpt>
      <trkpt lat="44.00324" lon="7.48767">
        <ele>754</ele>
        <time>2017-09-17T11:01:29Z</time>
      </trkpt>
      <trkpt lat="44.0032" lon="7.48777">
        <ele>753</ele>
        <time>2017-09-17T11:01:30Z</time>
      </trkpt>
      <trkpt lat="44.00318" lon="7.48788">
        <ele>752</ele>
        <time>2017-09-17T11:01:31Z</time>
      </trkpt>
      <trkpt lat="44.00317" lon="7.488">
        <ele>751</ele>
        <time>2017-09-17T11:01:32Z</time>
      </trkpt>
      <trkpt lat="44.00318" lon="7.48813">
        <ele>750</ele>
        <time>2017-09-17T11:01:33Z</time>
      </trkpt>
      <trkpt lat="44.00319" lon="7.48826">
        <ele>749</ele>
        <time>2017-09-17T11:01:34Z</time>
      </trkpt>
      <trkpt lat="44.0032" lon="7.48839">
        <ele>748</ele>
        <time>2017-09-17T11:01:35Z</time>
      </trkpt>
      <trkpt lat="44.0032" lon="7.48852">
        <ele>747</ele>
        <time>2017-09-17T11:01:36Z</time>
      </trkpt>
      <trkpt lat="44.00319" lon="7.48864">
        <ele>746</ele>
        <time>2017-09-17T11:01:37Z</time>
      </trkpt>
      <trkpt lat="44.00318" lon="7.48876">
        <ele>745</ele>
        <time>2017-09-17T11:01:38Z</time>
      </trkpt>
      <trkpt lat="44.00318" lon="7.48888">
        <ele>744</ele>
        <time>2017-09-17T11:01:39Z</time>
      </trkpt>
      <trkpt lat="44.00318" lon="7.489">
        <ele>743</ele>
        <time>2017-09-17T11:01:40Z</time>
      </trkpt>
      <trkpt lat="44.00318" lon="7.48912">
        <ele>742</ele>
        <time>2017-09-17T11:01:41Z</time>
      </trkpt>
      <trkpt lat="44.00318" lon="7.48925">
        <ele>741</ele>
        <time>2017-09-17T11:01:42Z</time>
      </trkpt>
      <trkpt lat="44.00316" lon="7.48938">
        <ele>741</ele>
        <time>2017-09-17T11:01:43Z</time>
      </trkpt>
      <trkpt lat="44.00314" lon="7.48948">
        <ele>740</ele>
        <time>2017-09-17T11:01:44Z</time>
      </trkpt>
      <trkpt lat="44.00311" lon="7.4896">
        <ele>739</ele>
        <time>2017-09-17T11:01:45Z</time>
      </trkpt>
      <trkpt lat="44.0031" lon="7.48973">
        <ele>738</ele>
        <time>2017-09-17T11:01:46Z</time>
      </trkpt>
      <trkpt lat="44.00312" lon="7.48986">
        <ele>737</ele>
        <time>2017-09-17T11:01:47Z</time>
      </trkpt>
      <trkpt lat="44.00315" lon="7.48999">
        <ele>736</ele>
        <time>2017-09-17T11:01:48Z</time>
      </trkpt>
      <trkpt lat="44.00317" lon="7.4901">
        <ele>735</ele>
        <time>2017-09-17T11:01:49Z</time>
      </trkpt>
      <trkpt lat="44.0032" lon="7.4902">
        <ele>734</ele>
        <time>2017-09-17T11:01:50Z</time>
      </trkpt>
      <trkpt lat="44.00321" lon="7.49028">
        <ele>733</ele>
        <time>2017-09-17T11:01:51Z</time>
      </trkpt>
      <trkpt lat="44.0032" lon="7.49037">
        <ele>732</ele>
        <time>2017-09-17T11:01:52Z</time>
      </trkpt>
      <trkpt lat="44.00316" lon="7.49044">
        <ele>731</ele>
        <time>2017-09-17T11:01:53Z</time>
      </trkpt>
      <trkpt lat="44.00309" lon="7.49048">
        <ele>730</ele>
        <time>2017-09-17T11:01:54Z</time>
      </trkpt>
      <trkpt lat="44.00302" lon="7.49052">
        <ele>730</ele>
        <time>2017-09-17T11:01:55Z</time>
      </trkpt>
      <trkpt lat="44.00295" lon="7.49055">
        <ele>729</ele>
        <time>2017-09-17T11:01:56Z</time>
      </trkpt>
      <trkpt lat="44.00288" lon="7.49058">
        <ele>728</ele>
        <time>2017-09-17T11:01:57Z</time>
      </trkpt>
      <trkpt lat="44.00282" lon="7.49064">
        <ele>727</ele>
        <time>2017-09-17T11:01:58Z</time>
      </trkpt>
      <trkpt lat="44.00277" lon="7.49072">
        <ele>726</ele>
        <time>2017-09-17T11:01:59Z</time>
      </trkpt>
      <trkpt lat="44.00275" lon="7.49082">
        <ele>725</ele>
        <time>2017-09-17T11:02:00Z</time>
      </trkpt>
      <trkpt lat="44.00275" lon="7.49094">
        <ele>724</ele>
        <time>2017-09-17T11:02:01Z</time>
      </trkpt>
      <trkpt lat="44.00276" lon="7.49105">
        <ele>724</ele>
        <time>2017-09-17T11:02:02Z</time>
      </trkpt>
      <trkpt lat="44.00276" lon="7.49116">
        <ele>723</ele>
        <time>2017-09-17T11:02:03Z</time>
      </trkpt>
      <trkpt lat="44.00274" lon="7.49126">
        <ele>722</ele>
        <time>2017-09-17T11:02:04Z</time>
      </trkpt>
      <trkpt lat="44.00272" lon="7.49136">
        <ele>722</ele>
        <time>2017-09-17T11:02:05Z</time>
      </trkpt>
      <trkpt lat="44.00269" lon="7.49147">
        <ele>721</ele>
        <time>2017-09-17T11:02:06Z</time>
      </trkpt>
      <trkpt lat="44.00266" lon="7.49157">
        <ele>720</ele>
        <time>2017-09-17T11:02:07Z</time>
      </trkpt>
      <trkpt lat="44.00262" lon="7.49169">
        <ele>719</ele>
        <time>2017-09-17T11:02:08Z</time>
      </trkpt>
      <trkpt lat="44.00258" lon="7.49181">
        <ele>718</ele>
        <time>2017-09-17T11:02:09Z</time>
      </trkpt>
      <trkpt lat="44.00253" lon="7.49193">
        <ele>717</ele>
        <time>2017-09-17T11:02:10Z</time>
      </trkpt>
      <trkpt lat="44.00247" lon="7.49202">
        <ele>716</ele>
        <time>2017-09-17T11:02:11Z</time>
      </trkpt>
      <trkpt lat="44.00241" lon="7.49211">
        <ele>715</ele>
        <time>2017-09-17T11:02:12Z</time>
      </trkpt>
      <trkpt lat="44.00234" lon="7.49221">
        <ele>714</ele>
        <time>2017-09-17T11:02:13Z</time>
      </trkpt>
      <trkpt lat="44.00228" lon="7.49231">
        <ele>712</ele>
        <time>2017-09-17T11:02:14Z</time>
      </trkpt>
      <trkpt lat="44.00221" lon="7.49242">
        <ele>711</ele>
        <time>2017-09-17T11:02:15Z</time>
      </trkpt>
      <trkpt lat="44.00214" lon="7.49252">
        <ele>710</ele>
        <time>2017-09-17T11:02:16Z</time>
      </trkpt>
      <trkpt lat="44.00207" lon="7.49262">
        <ele>709</ele>
        <time>2017-09-17T11:02:17Z</time>
      </trkpt>
      <trkpt lat="44.002" lon="7.49272">
        <ele>709</ele>
        <time>2017-09-17T11:02:18Z</time>
      </trkpt>
      <trkpt lat="44.00192" lon="7.49282">
        <ele>708</ele>
        <time>2017-09-17T11:02:19Z</time>
      </trkpt>
      <trkpt lat="44.00183" lon="7.49291">
        <ele>707</ele>
        <time>2017-09-17T11:02:20Z</time>
      </trkpt>
      <trkpt lat="44.00174" lon="7.493">
        <ele>707</ele>
        <time>2017-09-17T11:02:21Z</time>
      </trkpt>
      <trkpt lat="44.00165" lon="7.49309">
        <ele>706</ele>
        <time>2017-09-17T11:02:22Z</time>
      </trkpt>
      <trkpt lat="44.00157" lon="7.49317">
        <ele>706</ele>
        <time>2017-09-17T11:02:23Z</time>
      </trkpt>
      <trkpt lat="44.00149" lon="7.49326">
        <ele>706</ele>
        <time>2017-09-17T11:02:24Z</time>
      </trkpt>
      <trkpt lat="44.00141" lon="7.49335">
        <ele>705</ele>
        <time>2017-09-17T11:02:25Z</time>
      </trkpt>
      <trkpt lat="44.00133" lon="7.49344">
        <ele>705</ele>
        <time>2017-09-17T11:02:26Z</time>
      </trkpt>
      <trkpt lat="44.00125" lon="7.49354">
        <ele>705</ele>
        <time>2017-09-17T11:02:27Z</time>
      </trkpt>
      <trkpt lat="44.00117" lon="7.49367">
        <ele>705</ele>
        <time>2017-09-17T11:02:28Z</time>
      </trkpt>
      <trkpt lat="44.0011" lon="7.4938">
        <ele>705</ele>
        <time>2017-09-17T11:02:29Z</time>
      </trkpt>
      <trkpt lat="44.00103" lon="7.49395">
        <ele>705</ele>
        <time>2017-09-17T11:02:30Z</time>
      </trkpt>
      <trkpt lat="44.00096" lon="7.49409">
        <ele>705</ele>
        <time>2017-09-17T11:02:31Z</time>
      </trkpt>
      <trkpt lat="44.0009" lon="7.49423">
        <ele>705</ele>
        <time>2017-09-17T11:02:32Z</time>
      </trkpt>
      <trkpt lat="44.00083" lon="7.49436">
        <ele>705</ele>
        <time>2017-09-17T11:02:33Z</time>
      </trkpt>
      <trkpt lat="44.00076" lon="7.49449">
        <ele>705</ele>
        <time>2017-09-17T11:02:34Z</time>
      </trkpt>
      <trkpt lat="44.00068" lon="7.49461">
        <ele>705</ele>
        <time>2017-09-17T11:02:35Z</time>
      </trkpt>
      <trkpt lat="44.00061" lon="7.49471">
        <ele>705</ele>
        <time>2017-09-17T11:02:36Z</time>
      </trkpt>
      <trkpt lat="44.00054" lon="7.49481">
        <ele>705</ele>
        <time>2017-09-17T11:02:37Z</time>
      </trkpt>
      <trkpt lat="44.00047" lon="7.49491">
        <ele>705</ele>
        <time>2017-09-17T11:02:38Z</time>
      </trkpt>
      <trkpt lat="44.00041" lon="7.49502">
        <ele>705</ele>
        <time>2017-09-17T11:02:39Z</time>
      </trkpt>
      <trkpt lat="44.00038" lon="7.49515">
        <ele>705</ele>
        <time>2017-09-17T11:02:40Z</time>
      </trkpt>
      <trkpt lat="44.00035" lon="7.49527">
        <ele>705</ele>
        <time>2017-09-17T11:02:41Z</time>
      </trkpt>
      <trkpt lat="44.00032" lon="7.4954">
        <ele>705</ele>
        <time>2017-09-17T11:02:42Z</time>
      </trkpt>
      <trkpt lat="44.00028" lon="7.49553">
        <ele>705</ele>
        <time>2017-09-17T11:02:43Z</time>
      </trkpt>
      <trkpt lat="44.00025" lon="7.49566">
        <ele>705</ele>
        <time>2017-09-17T11:02:44Z</time>
      </trkpt>
      <trkpt lat="44.00021" lon="7.49579">
        <ele>704</ele>
        <time>2017-09-17T11:02:45Z</time>
      </trkpt>
      <trkpt lat="44.00018" lon="7.49592">
        <ele>704</ele>
        <time>2017-09-17T11:02:46Z</time>
      </trkpt>
      <trkpt lat="44.00014" lon="7.49606">
        <ele>704</ele>
        <time>2017-09-17T11:02:47Z</time>
      </trkpt>
      <trkpt lat="44.0001" lon="7.49619">
        <ele>704</ele>
        <time>2017-09-17T11:02:48Z</time>
      </trkpt>
      <trkpt lat="44.00007" lon="7.49632">
        <ele>704</ele>
        <time>2017-09-17T11:02:49Z</time>
      </trkpt>
      <trkpt lat="44.00003" lon="7.49645">
        <ele>704</ele>
        <time>2017-09-17T11:02:50Z</time>
      </trkpt>
      <trkpt lat="43.99999" lon="7.49658">
        <ele>704</ele>
        <time>2017-09-17T11:02:51Z</time>
      </trkpt>
      <trkpt lat="43.99995" lon="7.4967">
        <ele>703</ele>
        <time>2017-09-17T11:02:52Z</time>
      </trkpt>
      <trkpt lat="43.99992" lon="7.49683">
        <ele>703</ele>
        <time>2017-09-17T11:02:53Z</time>
      </trkpt>
      <trkpt lat="43.99988" lon="7.49695">
        <ele>703</ele>
        <time>2017-09-17T11:02:54Z</time>
      </trkpt>
      <trkpt lat="43.99983" lon="7.49708">
        <ele>703</ele>
        <time>2017-09-17T11:02:55Z</time>
      </trkpt>
      <trkpt lat="43.99979" lon="7.49723">
        <ele>703</ele>
        <time>2017-09-17T11:02:56Z</time>
      </trkpt>
      <trkpt lat="43.99977" lon="7.49739">
        <ele>703</ele>
        <time>2017-09-17T11:02:57Z</time>
      </trkpt>
      <trkpt lat="43.99974" lon="7.49754">
        <ele>702</ele>
        <time>2017-09-17T11:02:58Z</time>
      </trkpt>
      <trkpt lat="43.9997" lon="7.49767">
        <ele>702</ele>
        <time>2017-09-17T11:02:59Z</time>
      </trkpt>
      <trkpt lat="43.99964" lon="7.49778">
        <ele>702</ele>
        <time>2017-09-17T11:03:00Z</time>
      </trkpt>
      <trkpt lat="43.99958" lon="7.49788">
        <ele>702</ele>
        <time>2017-09-17T11:03:01Z</time>
      </trkpt>
      <trkpt lat="43.99949" lon="7.49797">
        <ele>702</ele>
        <time>2017-09-17T11:03:02Z</time>
      </trkpt>
      <trkpt lat="43.99941" lon="7.49805">
        <ele>702</ele>
        <time>2017-09-17T11:03:03Z</time>
      </trkpt>
      <trkpt lat="43.99934" lon="7.49814">
        <ele>702</ele>
        <time>2017-09-17T11:03:04Z</time>
      </trkpt>
      <trkpt lat="43.99926" lon="7.49822">
        <ele>702</ele>
        <time>2017-09-17T11:03:05Z</time>
      </trkpt>
      <trkpt lat="43.99918" lon="7.4983">
        <ele>701</ele>
        <time>2017-09-17T11:03:06Z</time>
      </trkpt>
      <trkpt lat="43.9991" lon="7.49836">
        <ele>701</ele>
        <time>2017-09-17T11:03:07Z</time>
      </trkpt>
      <trkpt lat="43.99902" lon="7.49843">
        <ele>701</ele>
        <time>2017-09-17T11:03:08Z</time>
      </trkpt>
      <trkpt lat="43.99894" lon="7.49851">
        <ele>700</ele>
        <time>2017-09-17T11:03:09Z</time>
      </trkpt>
      <trkpt lat="43.99887" lon="7.49862">
        <ele>700</ele>
        <time>2017-09-17T11:03:10Z</time>
      </trkpt>
      <trkpt lat="43.99881" lon="7.49873">
        <ele>700</ele>
        <time>2017-09-17T11:03:11Z</time>
      </trkpt>
      <trkpt lat="43.99875" lon="7.49883">
        <ele>700</ele>
        <time>2017-09-17T11:03:12Z</time>
      </trkpt>
      <trkpt lat="43.99868" lon="7.49892">
        <ele>699</ele>
        <time>2017-09-17T11:03:13Z</time>
      </trkpt>
      <trkpt lat="43.99861" lon="7.49901">
        <ele>699</ele>
        <time>2017-09-17T11:03:14Z</time>
      </trkpt>
      <trkpt lat="43.99853" lon="7.49909">
        <ele>699</ele>
        <time>2017-09-17T11:03:15Z</time>
      </trkpt>
      <trkpt lat="43.99844" lon="7.49917">
        <ele>699</ele>
        <time>2017-09-17T11:03:16Z</time>
      </trkpt>
      <trkpt lat="43.99835" lon="7.49925">
        <ele>699</ele>
        <time>2017-09-17T11:03:17Z</time>
      </trkpt>
      <trkpt lat="43.99825" lon="7.49932">
        <ele>699</ele>
        <time>2017-09-17T11:03:18Z</time>
      </trkpt>
      <trkpt lat="43.99816" lon="7.49939">
        <ele>699</ele>
        <time>2017-09-17T11:03:19Z</time>
      </trkpt>
      <trkpt lat="43.99807" lon="7.49948">
        <ele>699</ele>
        <time>2017-09-17T11:03:20Z</time>
      </trkpt>
      <trkpt lat="43.99797" lon="7.49959">
        <ele>700</ele>
        <time>2017-09-17T11:03:21Z</time>
      </trkpt>
      <trkpt lat="43.99787" lon="7.49972">
        <ele>700</ele>
        <time>2017-09-17T11:03:22Z</time>
      </trkpt>
      <trkpt lat="43.99778" lon="7.49986">
        <ele>700</ele>
        <time>2017-09-17T11:03:23Z</time>
      </trkpt>
      <trkpt lat="43.99778" lon="7.49986">
        <ele>700</ele>
        <time>2017-09-17T11:03:26Z</time>
      </trkpt>
      <trkpt lat="43.99778" lon="7.49986">
        <ele>700</ele>
        <time>2017-09-17T11:03:27Z</time>
      </trkpt>
      <trkpt lat="43.99738" lon="7.50051">
        <ele>699</ele>
        <time>2017-09-17T11:03:28Z</time>
      </trkpt>
      <trkpt lat="43.99727" lon="7.5006">
        <ele>697</ele>
        <time>2017-09-17T11:03:29Z</time>
      </trkpt>
      <trkpt lat="43.99715" lon="7.50066">
        <ele>695</ele>
        <time>2017-09-17T11:03:30Z</time>
      </trkpt>
      <trkpt lat="43.99702" lon="7.50073">
        <ele>693</ele>
        <time>2017-09-17T11:03:31Z</time>
      </trkpt>
      <trkpt lat="43.99689" lon="7.50079">
        <ele>691</ele>
        <time>2017-09-17T11:03:32Z</time>
      </trkpt>
      <trkpt lat="43.99677" lon="7.50085">
        <ele>689</ele>
        <time>2017-09-17T11:03:33Z</time>
      </trkpt>
      <trkpt lat="43.99666" lon="7.5009">
        <ele>688</ele>
        <time>2017-09-17T11:03:34Z</time>
      </trkpt>
      <trkpt lat="43.99657" lon="7.50094">
        <ele>686</ele>
        <time>2017-09-17T11:03:35Z</time>
      </trkpt>
      <trkpt lat="43.99647" lon="7.50099">
        <ele>685</ele>
        <time>2017-09-17T11:03:36Z</time>
      </trkpt>
      <trkpt lat="43.9964" lon="7.50105">
        <ele>682</ele>
        <time>2017-09-17T11:03:37Z</time>
      </trkpt>
      <trkpt lat="43.99635" lon="7.50114">
        <ele>678</ele>
        <time>2017-09-17T11:03:38Z</time>
      </trkpt>
      <trkpt lat="43.99633" lon="7.50124">
        <ele>674</ele>
        <time>2017-09-17T11:03:39Z</time>
      </trkpt>
      <trkpt lat="43.99632" lon="7.50135">
        <ele>669</ele>
        <time>2017-09-17T11:03:40Z</time>
      </trkpt>
      <trkpt lat="43.99632" lon="7.50135">
        <ele>639</ele>
        <time>2017-09-17T11:03:48Z</time>
      </trkpt>
      <trkpt lat="43.99632" lon="7.50135">
        <ele>639</ele>
        <time>2017-09-17T11:03:49Z</time>
      </trkpt>
      <trkpt lat="43.99623" lon="7.50246">
        <ele>641</ele>
        <time>2017-09-17T11:03:50Z</time>
      </trkpt>
      <trkpt lat="43.99621" lon="7.50256">
        <ele>644</ele>
        <time>2017-09-17T11:03:51Z</time>
      </trkpt>
      <trkpt lat="43.99619" lon="7.50266">
        <ele>647</ele>
        <time>2017-09-17T11:03:52Z</time>
      </trkpt>
      <trkpt lat="43.99617" lon="7.50278">
        <ele>650</ele>
        <time>2017-09-17T11:03:53Z</time>
      </trkpt>
      <trkpt lat="43.99616" lon="7.50291">
        <ele>652</ele>
        <time>2017-09-17T11:03:54Z</time>
      </trkpt>
      <trkpt lat="43.99615" lon="7.50304">
        <ele>654</ele>
        <time>2017-09-17T11:03:55Z</time>
      </trkpt>
      <trkpt lat="43.99615" lon="7.50318">
        <ele>655</ele>
        <time>2017-09-17T11:03:56Z</time>
      </trkpt>
      <trkpt lat="43.99616" lon="7.50332">
        <ele>656</ele>
        <time>2017-09-17T11:03:57Z</time>
      </trkpt>
      <trkpt lat="43.99617" lon="7.50348">
        <ele>658</ele>
        <time>2017-09-17T11:03:58Z</time>
      </trkpt>
      <trkpt lat="43.99618" lon="7.50362">
        <ele>658</ele>
        <time>2017-09-17T11:03:59Z</time>
      </trkpt>
      <trkpt lat="43.99618" lon="7.50376">
        <ele>657</ele>
        <time>2017-09-17T11:04:00Z</time>
      </trkpt>
      <trkpt lat="43.99616" lon="7.50388">
        <ele>654</ele>
        <time>2017-09-17T11:04:01Z</time>
      </trkpt>
      <trkpt lat="43.99613" lon="7.504">
        <ele>651</ele>
        <time>2017-09-17T11:04:02Z</time>
      </trkpt>
      <trkpt lat="43.9961" lon="7.5041">
        <ele>648</ele>
        <time>2017-09-17T11:04:03Z</time>
      </trkpt>
      <trkpt lat="43.99606" lon="7.50422">
        <ele>644</ele>
        <time>2017-09-17T11:04:04Z</time>
      </trkpt>
      <trkpt lat="43.99603" lon="7.50434">
        <ele>641</ele>
        <time>2017-09-17T11:04:05Z</time>
      </trkpt>
      <trkpt lat="43.99599" lon="7.50446">
        <ele>638</ele>
        <time>2017-09-17T11:04:06Z</time>
      </trkpt>
      <trkpt lat="43.99597" lon="7.50459">
        <ele>636</ele>
        <time>2017-09-17T11:04:07Z</time>
      </trkpt>
      <trkpt lat="43.99596" lon="7.50472">
        <ele>633</ele>
        <time>2017-09-17T11:04:08Z</time>
      </trkpt>
      <trkpt lat="43.99596" lon="7.50484">
        <ele>630</ele>
        <time>2017-09-17T11:04:09Z</time>
      </trkpt>
      <trkpt lat="43.99598" lon="7.50496">
        <ele>627</ele>
        <time>2017-09-17T11:04:10Z</time>
      </trkpt>
      <trkpt lat="43.99602" lon="7.50507">
        <ele>625</ele>
        <time>2017-09-17T11:04:11Z</time>
      </trkpt>
      <trkpt lat="43.99604" lon="7.50518">
        <ele>622</ele>
        <time>2017-09-17T11:04:12Z</time>
      </trkpt>
      <trkpt lat="43.99606" lon="7.50529">
        <ele>619</ele>
        <time>2017-09-17T11:04:13Z</time>
      </trkpt>
      <trkpt lat="43.99608" lon="7.50541">
        <ele>617</ele>
        <time>2017-09-17T11:04:14Z</time>
      </trkpt>
      <trkpt lat="43.99612" lon="7.50551">
        <ele>615</ele>
        <time>2017-09-17T11:04:15Z</time>
      </trkpt>
      <trkpt lat="43.99617" lon="7.5056">
        <ele>613</ele>
        <time>2017-09-17T11:04:16Z</time>
      </trkpt>
      <trkpt lat="43.99623" lon="7.50566">
        <ele>611</ele>
        <time>2017-09-17T11:04:17Z</time>
      </trkpt>
      <trkpt lat="43.99631" lon="7.50569">
        <ele>609</ele>
        <time>2017-09-17T11:04:18Z</time>
      </trkpt>
      <trkpt lat="43.9964" lon="7.5057">
        <ele>608</ele>
        <time>2017-09-17T11:04:19Z</time>
      </trkpt>
      <trkpt lat="43.99649" lon="7.50572">
        <ele>606</ele>
        <time>2017-09-17T11:04:20Z</time>
      </trkpt>
      <trkpt lat="43.99658" lon="7.50575">
        <ele>605</ele>
        <time>2017-09-17T11:04:21Z</time>
      </trkpt>
      <trkpt lat="43.99668" lon="7.50579">
        <ele>604</ele>
        <time>2017-09-17T11:04:22Z</time>
      </trkpt>
      <trkpt lat="43.99678" lon="7.50584">
        <ele>603</ele>
        <time>2017-09-17T11:04:23Z</time>
      </trkpt>
      <trkpt lat="43.99686" lon="7.50592">
        <ele>602</ele>
        <time>2017-09-17T11:04:24Z</time>
      </trkpt>
      <trkpt lat="43.99692" lon="7.50602">
        <ele>601</ele>
        <time>2017-09-17T11:04:25Z</time>
      </trkpt>
      <trkpt lat="43.99696" lon="7.50612">
        <ele>601</ele>
        <time>2017-09-17T11:04:26Z</time>
      </trkpt>
      <trkpt lat="43.99699" lon="7.50621">
        <ele>600</ele>
        <time>2017-09-17T11:04:27Z</time>
      </trkpt>
      <trkpt lat="43.99701" lon="7.50629">
        <ele>599</ele>
        <time>2017-09-17T11:04:28Z</time>
      </trkpt>
      <trkpt lat="43.99704" lon="7.50637">
        <ele>599</ele>
        <time>2017-09-17T11:04:29Z</time>
      </trkpt>
      <trkpt lat="43.99707" lon="7.50645">
        <ele>598</ele>
        <time>2017-09-17T11:04:30Z</time>
      </trkpt>
      <trkpt lat="43.99711" lon="7.50653">
        <ele>597</ele>
        <time>2017-09-17T11:04:31Z</time>
      </trkpt>
      <trkpt lat="43.99715" lon="7.50661">
        <ele>596</ele>
        <time>2017-09-17T11:04:32Z</time>
      </trkpt>
      <trkpt lat="43.9972" lon="7.5067">
        <ele>596</ele>
        <time>2017-09-17T11:04:33Z</time>
      </trkpt>
      <trkpt lat="43.99725" lon="7.50679">
        <ele>595</ele>
        <time>2017-09-17T11:04:34Z</time>
      </trkpt>
      <trkpt lat="43.9973" lon="7.50687">
        <ele>594</ele>
        <time>2017-09-17T11:04:35Z</time>
      </trkpt>
      <trkpt lat="43.99737" lon="7.50696">
        <ele>593</ele>
        <time>2017-09-17T11:04:36Z</time>
      </trkpt>
      <trkpt lat="43.99744" lon="7.50706">
        <ele>592</ele>
        <time>2017-09-17T11:04:37Z</time>
      </trkpt>
      <trkpt lat="43.99752" lon="7.50715">
        <ele>591</ele>
        <time>2017-09-17T11:04:38Z</time>
      </trkpt>
      <trkpt lat="43.99759" lon="7.50724">
        <ele>590</ele>
        <time>2017-09-17T11:04:39Z</time>
      </trkpt>
      <trkpt lat="43.99767" lon="7.50734">
        <ele>589</ele>
        <time>2017-09-17T11:04:40Z</time>
      </trkpt>
      <trkpt lat="43.99775" lon="7.50745">
        <ele>588</ele>
        <time>2017-09-17T11:04:41Z</time>
      </trkpt>
      <trkpt lat="43.99782" lon="7.50759">
        <ele>587</ele>
        <time>2017-09-17T11:04:42Z</time>
      </trkpt>
      <trkpt lat="43.99788" lon="7.50772">
        <ele>587</ele>
        <time>2017-09-17T11:04:43Z</time>
      </trkpt>
      <trkpt lat="43.99795" lon="7.50786">
        <ele>586</ele>
        <time>2017-09-17T11:04:44Z</time>
      </trkpt>
      <trkpt lat="43.99802" lon="7.508">
        <ele>585</ele>
        <time>2017-09-17T11:04:45Z</time>
      </trkpt>
      <trkpt lat="43.99808" lon="7.50816">
        <ele>584</ele>
        <time>2017-09-17T11:04:46Z</time>
      </trkpt>
      <trkpt lat="43.99813" lon="7.50832">
        <ele>583</ele>
        <time>2017-09-17T11:04:47Z</time>
      </trkpt>
      <trkpt lat="43.99816" lon="7.50848">
        <ele>582</ele>
        <time>2017-09-17T11:04:48Z</time>
      </trkpt>
      <trkpt lat="43.99817" lon="7.50865">
        <ele>581</ele>
        <time>2017-09-17T11:04:49Z</time>
      </trkpt>
      <trkpt lat="43.99816" lon="7.5088">
        <ele>581</ele>
        <time>2017-09-17T11:04:50Z</time>
      </trkpt>
      <trkpt lat="43.99816" lon="7.50895">
        <ele>580</ele>
        <time>2017-09-17T11:04:51Z</time>
      </trkpt>
      <trkpt lat="43.99816" lon="7.50908">
        <ele>580</ele>
        <time>2017-09-17T11:04:52Z</time>
      </trkpt>
      <trkpt lat="43.99816" lon="7.50921">
        <ele>579</ele>
        <time>2017-09-17T11:04:53Z</time>
      </trkpt>
      <trkpt lat="43.99818" lon="7.50935">
        <ele>579</ele>
        <time>2017-09-17T11:04:54Z</time>
      </trkpt>
      <trkpt lat="43.99821" lon="7.50948">
        <ele>578</ele>
        <time>2017-09-17T11:04:55Z</time>
      </trkpt>
      <trkpt lat="43.99822" lon="7.50961">
        <ele>577</ele>
        <time>2017-09-17T11:04:56Z</time>
      </trkpt>
      <trkpt lat="43.99823" lon="7.50975">
        <ele>577</ele>
        <time>2017-09-17T11:04:57Z</time>
      </trkpt>
      <trkpt lat="43.99823" lon="7.50988">
        <ele>576</ele>
        <time>2017-09-17T11:04:58Z</time>
      </trkpt>
      <trkpt lat="43.99825" lon="7.51">
        <ele>576</ele>
        <time>2017-09-17T11:04:59Z</time>
      </trkpt>
      <trkpt lat="43.99827" lon="7.51013">
        <ele>576</ele>
        <time>2017-09-17T11:05:00Z</time>
      </trkpt>
      <trkpt lat="43.99831" lon="7.51025">
        <ele>575</ele>
        <time>2017-09-17T11:05:01Z</time>
      </trkpt>
      <trkpt lat="43.99835" lon="7.51038">
        <ele>575</ele>
        <time>2017-09-17T11:05:02Z</time>
      </trkpt>
      <trkpt lat="43.99838" lon="7.51052">
        <ele>575</ele>
        <time>2017-09-17T11:05:03Z</time>
      </trkpt>
      <trkpt lat="43.9984" lon="7.51068">
        <ele>575</ele>
        <time>2017-09-17T11:05:04Z</time>
      </trkpt>
      <trkpt lat="43.99841" lon="7.51084">
        <ele>575</ele>
        <time>2017-09-17T11:05:05Z</time>
      </trkpt>
      <trkpt lat="43.99842" lon="7.511">
        <ele>574</ele>
        <time>2017-09-17T11:05:06Z</time>
      </trkpt>
      <trkpt lat="43.99843" lon="7.51116">
        <ele>574</ele>
        <time>2017-09-17T11:05:07Z</time>
      </trkpt>
      <trkpt lat="43.99842" lon="7.51132">
        <ele>574</ele>
        <time>2017-09-17T11:05:08Z</time>
      </trkpt>
      <trkpt lat="43.99841" lon="7.51148">
        <ele>574</ele>
        <time>2017-09-17T11:05:09Z</time>
      </trkpt>
      <trkpt lat="43.9984" lon="7.51164">
        <ele>574</ele>
        <time>2017-09-17T11:05:10Z</time>
      </trkpt>
      <trkpt lat="43.99841" lon="7.5118">
        <ele>574</ele>
        <time>2017-09-17T11:05:11Z</time>
      </trkpt>
      <trkpt lat="43.99842" lon="7.51196">
        <ele>574</ele>
        <time>2017-09-17T11:05:12Z</time>
      </trkpt>
      <trkpt lat="43.99843" lon="7.51212">
        <ele>575</ele>
        <time>2017-09-17T11:05:13Z</time>
      </trkpt>
      <trkpt lat="43.99843" lon="7.51227">
        <ele>575</ele>
        <time>2017-09-17T11:05:14Z</time>
      </trkpt>
      <trkpt lat="43.99843" lon="7.51243">
        <ele>575</ele>
        <time>2017-09-17T11:05:15Z</time>
      </trkpt>
      <trkpt lat="43.99842" lon="7.51259">
        <ele>575</ele>
        <time>2017-09-17T11:05:16Z</time>
      </trkpt>
      <trkpt lat="43.99841" lon="7.51274">
        <ele>575</ele>
        <time>2017-09-17T11:05:17Z</time>
      </trkpt>
      <trkpt lat="43.9984" lon="7.51289">
        <ele>575</ele>
        <time>2017-09-17T11:05:18Z</time>
      </trkpt>
      <trkpt lat="43.99841" lon="7.51304">
        <ele>575</ele>
        <time>2017-09-17T11:05:19Z</time>
      </trkpt>
      <trkpt lat="43.99841" lon="7.51319">
        <ele>575</ele>
        <time>2017-09-17T11:05:20Z</time>
      </trkpt>
      <trkpt lat="43.99843" lon="7.51332">
        <ele>575</ele>
        <time>2017-09-17T11:05:21Z</time>
      </trkpt>
      <trkpt lat="43.99844" lon="7.51346">
        <ele>575</ele>
        <time>2017-09-17T11:05:22Z</time>
      </trkpt>
      <trkpt lat="43.99842" lon="7.5136">
        <ele>575</ele>
        <time>2017-09-17T11:05:23Z</time>
      </trkpt>
      <trkpt lat="43.9984" lon="7.51372">
        <ele>575</ele>
        <time>2017-09-17T11:05:24Z</time>
      </trkpt>
      <trkpt lat="43.99837" lon="7.51384">
        <ele>575</ele>
        <time>2017-09-17T11:05:25Z</time>
      </trkpt>
      <trkpt lat="43.99835" lon="7.51396">
        <ele>575</ele>
        <time>2017-09-17T11:05:26Z</time>
      </trkpt>
      <trkpt lat="43.99834" lon="7.51407">
        <ele>575</ele>
        <time>2017-09-17T11:05:27Z</time>
      </trkpt>
      <trkpt lat="43.99833" lon="7.51417">
        <ele>575</ele>
        <time>2017-09-17T11:05:28Z</time>
      </trkpt>
      <trkpt lat="43.99832" lon="7.51426">
        <ele>574</ele>
        <time>2017-09-17T11:05:29Z</time>
      </trkpt>
      <trkpt lat="43.99833" lon="7.51436">
        <ele>573</ele>
        <time>2017-09-17T11:05:30Z</time>
      </trkpt>
      <trkpt lat="43.99835" lon="7.51446">
        <ele>573</ele>
        <time>2017-09-17T11:05:31Z</time>
      </trkpt>
      <trkpt lat="43.99839" lon="7.51455">
        <ele>572</ele>
        <time>2017-09-17T11:05:32Z</time>
      </trkpt>
      <trkpt lat="43.99845" lon="7.51463">
        <ele>572</ele>
        <time>2017-09-17T11:05:33Z</time>
      </trkpt>
      <trkpt lat="43.99852" lon="7.51469">
        <ele>571</ele>
        <time>2017-09-17T11:05:34Z</time>
      </trkpt>
      <trkpt lat="43.99859" lon="7.51477">
        <ele>570</ele>
        <time>2017-09-17T11:05:35Z</time>
      </trkpt>
      <trkpt lat="43.99866" lon="7.51487">
        <ele>570</ele>
        <time>2017-09-17T11:05:36Z</time>
      </trkpt>
      <trkpt lat="43.99872" lon="7.51499">
        <ele>570</ele>
        <time>2017-09-17T11:05:37Z</time>
      </trkpt>
      <trkpt lat="43.99876" lon="7.51513">
        <ele>569</ele>
        <time>2017-09-17T11:05:38Z</time>
      </trkpt>
      <trkpt lat="43.99879" lon="7.51527">
        <ele>568</ele>
        <time>2017-09-17T11:05:39Z</time>
      </trkpt>
      <trkpt lat="43.9988" lon="7.51542">
        <ele>567</ele>
        <time>2017-09-17T11:05:40Z</time>
      </trkpt>
      <trkpt lat="43.99881" lon="7.51556">
        <ele>565</ele>
        <time>2017-09-17T11:05:41Z</time>
      </trkpt>
      <trkpt lat="43.99881" lon="7.51571">
        <ele>562</ele>
        <time>2017-09-17T11:05:42Z</time>
      </trkpt>
      <trkpt lat="43.9988" lon="7.51586">
        <ele>560</ele>
        <time>2017-09-17T11:05:43Z</time>
      </trkpt>
      <trkpt lat="43.99878" lon="7.51601">
        <ele>558</ele>
        <time>2017-09-17T11:05:44Z</time>
      </trkpt>
      <trkpt lat="43.99876" lon="7.51615">
        <ele>556</ele>
        <time>2017-09-17T11:05:45Z</time>
      </trkpt>
      <trkpt lat="43.99875" lon="7.5163">
        <ele>555</ele>
        <time>2017-09-17T11:05:46Z</time>
      </trkpt>
      <trkpt lat="43.99875" lon="7.51645">
        <ele>553</ele>
        <time>2017-09-17T11:05:47Z</time>
      </trkpt>
      <trkpt lat="43.99877" lon="7.51659">
        <ele>551</ele>
        <time>2017-09-17T11:05:48Z</time>
      </trkpt>
      <trkpt lat="43.99877" lon="7.51674">
        <ele>550</ele>
        <time>2017-09-17T11:05:49Z</time>
      </trkpt>
      <trkpt lat="43.99877" lon="7.51689">
        <ele>548</ele>
        <time>2017-09-17T11:05:50Z</time>
      </trkpt>
      <trkpt lat="43.99877" lon="7.51704">
        <ele>547</ele>
        <time>2017-09-17T11:05:51Z</time>
      </trkpt>
      <trkpt lat="43.99877" lon="7.51719">
        <ele>545</ele>
        <time>2017-09-17T11:05:52Z</time>
      </trkpt>
      <trkpt lat="43.99877" lon="7.51734">
        <ele>544</ele>
        <time>2017-09-17T11:05:53Z</time>
      </trkpt>
      <trkpt lat="43.99876" lon="7.51748">
        <ele>543</ele>
        <time>2017-09-17T11:05:54Z</time>
      </trkpt>
      <trkpt lat="43.99874" lon="7.51763">
        <ele>542</ele>
        <time>2017-09-17T11:05:55Z</time>
      </trkpt>
      <trkpt lat="43.99871" lon="7.51776">
        <ele>541</ele>
        <time>2017-09-17T11:05:56Z</time>
      </trkpt>
      <trkpt lat="43.99867" lon="7.51789">
        <ele>540</ele>
        <time>2017-09-17T11:05:57Z</time>
      </trkpt>
      <trkpt lat="43.99863" lon="7.518">
        <ele>540</ele>
        <time>2017-09-17T11:05:58Z</time>
      </trkpt>
      <trkpt lat="43.99857" lon="7.51809">
        <ele>539</ele>
        <time>2017-09-17T11:05:59Z</time>
      </trkpt>
      <trkpt lat="43.9985" lon="7.51817">
        <ele>538</ele>
        <time>2017-09-17T11:06:00Z</time>
      </trkpt>
      <trkpt lat="43.99843" lon="7.51823">
        <ele>538</ele>
        <time>2017-09-17T11:06:01Z</time>
      </trkpt>
      <trkpt lat="43.99837" lon="7.51829">
        <ele>537</ele>
        <time>2017-09-17T11:06:02Z</time>
      </trkpt>
      <trkpt lat="43.99832" lon="7.51835">
        <ele>537</ele>
        <time>2017-09-17T11:06:03Z</time>
      </trkpt>
      <trkpt lat="43.99827" lon="7.51841">
        <ele>537</ele>
        <time>2017-09-17T11:06:04Z</time>
      </trkpt>
      <trkpt lat="43.99824" lon="7.51848">
        <ele>536</ele>
        <time>2017-09-17T11:06:05Z</time>
      </trkpt>
      <trkpt lat="43.99821" lon="7.51857">
        <ele>536</ele>
        <time>2017-09-17T11:06:06Z</time>
      </trkpt>
      <trkpt lat="43.99818" lon="7.51866">
        <ele>535</ele>
        <time>2017-09-17T11:06:07Z</time>
      </trkpt>
      <trkpt lat="43.99816" lon="7.51876">
        <ele>535</ele>
        <time>2017-09-17T11:06:08Z</time>
      </trkpt>
      <trkpt lat="43.99813" lon="7.51885">
        <ele>535</ele>
        <time>2017-09-17T11:06:09Z</time>
      </trkpt>
      <trkpt lat="43.9981" lon="7.51895">
        <ele>534</ele>
        <time>2017-09-17T11:06:10Z</time>
      </trkpt>
      <trkpt lat="43.99807" lon="7.51905">
        <ele>534</ele>
        <time>2017-09-17T11:06:11Z</time>
      </trkpt>
      <trkpt lat="43.99803" lon="7.51915">
        <ele>533</ele>
        <time>2017-09-17T11:06:12Z</time>
      </trkpt>
      <trkpt lat="43.99799" lon="7.51926">
        <ele>532</ele>
        <time>2017-09-17T11:06:13Z</time>
      </trkpt>
      <trkpt lat="43.99795" lon="7.51938">
        <ele>532</ele>
        <time>2017-09-17T11:06:14Z</time>
      </trkpt>
      <trkpt lat="43.99791" lon="7.51952">
        <ele>531</ele>
        <time>2017-09-17T11:06:15Z</time>
      </trkpt>
      <trkpt lat="43.99787" lon="7.51966">
        <ele>530</ele>
        <time>2017-09-17T11:06:16Z</time>
      </trkpt>
      <trkpt lat="43.99782" lon="7.51981">
        <ele>529</ele>
        <time>2017-09-17T11:06:17Z</time>
      </trkpt>
      <trkpt lat="43.99777" lon="7.51995">
        <ele>528</ele>
        <time>2017-09-17T11:06:18Z</time>
      </trkpt>
      <trkpt lat="43.99772" lon="7.52009">
        <ele>527</ele>
        <time>2017-09-17T11:06:19Z</time>
      </trkpt>
      <trkpt lat="43.99767" lon="7.52022">
        <ele>526</ele>
        <time>2017-09-17T11:06:20Z</time>
      </trkpt>
      <trkpt lat="43.9976" lon="7.52034">
        <ele>525</ele>
        <time>2017-09-17T11:06:21Z</time>
      </trkpt>
      <trkpt lat="43.99754" lon="7.52046">
        <ele>524</ele>
        <time>2017-09-17T11:06:22Z</time>
      </trkpt>
      <trkpt lat="43.99748" lon="7.52058">
        <ele>523</ele>
        <time>2017-09-17T11:06:23Z</time>
      </trkpt>
      <trkpt lat="43.99742" lon="7.52069">
        <ele>522</ele>
        <time>2017-09-17T11:06:24Z</time>
      </trkpt>
      <trkpt lat="43.99736" lon="7.52082">
        <ele>522</ele>
        <time>2017-09-17T11:06:25Z</time>
      </trkpt>
      <trkpt lat="43.99731" lon="7.52094">
        <ele>521</ele>
        <time>2017-09-17T11:06:26Z</time>
      </trkpt>
      <trkpt lat="43.99727" lon="7.52106">
        <ele>520</ele>
        <time>2017-09-17T11:06:27Z</time>
      </trkpt>
      <trkpt lat="43.99722" lon="7.52119">
        <ele>520</ele>
        <time>2017-09-17T11:06:28Z</time>
      </trkpt>
      <trkpt lat="43.99717" lon="7.52131">
        <ele>519</ele>
        <time>2017-09-17T11:06:29Z</time>
      </trkpt>
      <trkpt lat="43.99712" lon="7.52143">
        <ele>519</ele>
        <time>2017-09-17T11:06:30Z</time>
      </trkpt>
      <trkpt lat="43.99708" lon="7.52154">
        <ele>519</ele>
        <time>2017-09-17T11:06:31Z</time>
      </trkpt>
      <trkpt lat="43.99704" lon="7.52166">
        <ele>518</ele>
        <time>2017-09-17T11:06:32Z</time>
      </trkpt>
      <trkpt lat="43.99702" lon="7.52178">
        <ele>518</ele>
        <time>2017-09-17T11:06:33Z</time>
      </trkpt>
      <trkpt lat="43.99701" lon="7.5219">
        <ele>518</ele>
        <time>2017-09-17T11:06:34Z</time>
      </trkpt>
      <trkpt lat="43.99701" lon="7.52202">
        <ele>518</ele>
        <time>2017-09-17T11:06:35Z</time>
      </trkpt>
      <trkpt lat="43.997" lon="7.52214">
        <ele>517</ele>
        <time>2017-09-17T11:06:36Z</time>
      </trkpt>
      <trkpt lat="43.99699" lon="7.52226">
        <ele>517</ele>
        <time>2017-09-17T11:06:37Z</time>
      </trkpt>
      <trkpt lat="43.99697" lon="7.52238">
        <ele>517</ele>
        <time>2017-09-17T11:06:38Z</time>
      </trkpt>
      <trkpt lat="43.99696" lon="7.5225">
        <ele>516</ele>
        <time>2017-09-17T11:06:39Z</time>
      </trkpt>
      <trkpt lat="43.99695" lon="7.52262">
        <ele>516</ele>
        <time>2017-09-17T11:06:40Z</time>
      </trkpt>
      <trkpt lat="43.99696" lon="7.52274">
        <ele>515</ele>
        <time>2017-09-17T11:06:41Z</time>
      </trkpt>
      <trkpt lat="43.99696" lon="7.52286">
        <ele>515</ele>
        <time>2017-09-17T11:06:42Z</time>
      </trkpt>
      <trkpt lat="43.99696" lon="7.523">
        <ele>514</ele>
        <time>2017-09-17T11:06:43Z</time>
      </trkpt>
      <trkpt lat="43.99695" lon="7.52313">
        <ele>513</ele>
        <time>2017-09-17T11:06:44Z</time>
      </trkpt>
      <trkpt lat="43.99693" lon="7.52327">
        <ele>513</ele>
        <time>2017-09-17T11:06:45Z</time>
      </trkpt>
      <trkpt lat="43.99692" lon="7.52341">
        <ele>511</ele>
        <time>2017-09-17T11:06:46Z</time>
      </trkpt>
      <trkpt lat="43.9969" lon="7.52355">
        <ele>510</ele>
        <time>2017-09-17T11:06:47Z</time>
      </trkpt>
      <trkpt lat="43.99687" lon="7.5237">
        <ele>509</ele>
        <time>2017-09-17T11:06:48Z</time>
      </trkpt>
      <trkpt lat="43.99684" lon="7.52385">
        <ele>508</ele>
        <time>2017-09-17T11:06:49Z</time>
      </trkpt>
      <trkpt lat="43.9968" lon="7.52399">
        <ele>507</ele>
        <time>2017-09-17T11:06:50Z</time>
      </trkpt>
      <trkpt lat="43.99676" lon="7.52414">
        <ele>505</ele>
        <time>2017-09-17T11:06:51Z</time>
      </trkpt>
      <trkpt lat="43.99672" lon="7.52428">
        <ele>504</ele>
        <time>2017-09-17T11:06:52Z</time>
      </trkpt>
      <trkpt lat="43.99668" lon="7.52443">
        <ele>503</ele>
        <time>2017-09-17T11:06:53Z</time>
      </trkpt>
      <trkpt lat="43.99663" lon="7.52457">
        <ele>503</ele>
        <time>2017-09-17T11:06:54Z</time>
      </trkpt>
      <trkpt lat="43.99658" lon="7.5247">
        <ele>502</ele>
        <time>2017-09-17T11:06:55Z</time>
      </trkpt>
      <trkpt lat="43.99653" lon="7.52483">
        <ele>501</ele>
        <time>2017-09-17T11:06:56Z</time>
      </trkpt>
      <trkpt lat="43.99648" lon="7.52497">
        <ele>500</ele>
        <time>2017-09-17T11:06:57Z</time>
      </trkpt>
      <trkpt lat="43.99642" lon="7.5251">
        <ele>500</ele>
        <time>2017-09-17T11:06:58Z</time>
      </trkpt>
      <trkpt lat="43.99636" lon="7.52525">
        <ele>499</ele>
        <time>2017-09-17T11:06:59Z</time>
      </trkpt>
      <trkpt lat="43.9963" lon="7.52538">
        <ele>498</ele>
        <time>2017-09-17T11:07:00Z</time>
      </trkpt>
      <trkpt lat="43.99625" lon="7.52551">
        <ele>497</ele>
        <time>2017-09-17T11:07:01Z</time>
      </trkpt>
      <trkpt lat="43.99621" lon="7.52565">
        <ele>497</ele>
        <time>2017-09-17T11:07:02Z</time>
      </trkpt>
      <trkpt lat="43.99618" lon="7.52579">
        <ele>496</ele>
        <time>2017-09-17T11:07:03Z</time>
      </trkpt>
      <trkpt lat="43.99616" lon="7.52594">
        <ele>495</ele>
        <time>2017-09-17T11:07:04Z</time>
      </trkpt>
      <trkpt lat="43.99614" lon="7.52609">
        <ele>495</ele>
        <time>2017-09-17T11:07:05Z</time>
      </trkpt>
      <trkpt lat="43.99612" lon="7.52625">
        <ele>494</ele>
        <time>2017-09-17T11:07:06Z</time>
      </trkpt>
      <trkpt lat="43.9961" lon="7.5264">
        <ele>493</ele>
        <time>2017-09-17T11:07:07Z</time>
      </trkpt>
      <trkpt lat="43.99607" lon="7.52655">
        <ele>493</ele>
        <time>2017-09-17T11:07:08Z</time>
      </trkpt>
      <trkpt lat="43.99603" lon="7.52669">
        <ele>492</ele>
        <time>2017-09-17T11:07:09Z</time>
      </trkpt>
      <trkpt lat="43.996" lon="7.52684">
        <ele>492</ele>
        <time>2017-09-17T11:07:10Z</time>
      </trkpt>
      <trkpt lat="43.99596" lon="7.52697">
        <ele>491</ele>
        <time>2017-09-17T11:07:11Z</time>
      </trkpt>
      <trkpt lat="43.99592" lon="7.52711">
        <ele>491</ele>
        <time>2017-09-17T11:07:12Z</time>
      </trkpt>
      <trkpt lat="43.99588" lon="7.52723">
        <ele>491</ele>
        <time>2017-09-17T11:07:13Z</time>
      </trkpt>
      <trkpt lat="43.99584" lon="7.52735">
        <ele>490</ele>
        <time>2017-09-17T11:07:14Z</time>
      </trkpt>
      <trkpt lat="43.99582" lon="7.52748">
        <ele>490</ele>
        <time>2017-09-17T11:07:15Z</time>
      </trkpt>
      <trkpt lat="43.99581" lon="7.52761">
        <ele>490</ele>
        <time>2017-09-17T11:07:16Z</time>
      </trkpt>
      <trkpt lat="43.99581" lon="7.52773">
        <ele>490</ele>
        <time>2017-09-17T11:07:17Z</time>
      </trkpt>
      <trkpt lat="43.99582" lon="7.52785">
        <ele>490</ele>
        <time>2017-09-17T11:07:18Z</time>
      </trkpt>
      <trkpt lat="43.99583" lon="7.52796">
        <ele>490</ele>
        <time>2017-09-17T11:07:19Z</time>
      </trkpt>
      <trkpt lat="43.99584" lon="7.52807">
        <ele>489</ele>
        <time>2017-09-17T11:07:20Z</time>
      </trkpt>
      <trkpt lat="43.99584" lon="7.52817">
        <ele>489</ele>
        <time>2017-09-17T11:07:21Z</time>
      </trkpt>
      <trkpt lat="43.99585" lon="7.52827">
        <ele>489</ele>
        <time>2017-09-17T11:07:22Z</time>
      </trkpt>
      <trkpt lat="43.99586" lon="7.52837">
        <ele>489</ele>
        <time>2017-09-17T11:07:23Z</time>
      </trkpt>
      <trkpt lat="43.99586" lon="7.52846">
        <ele>489</ele>
        <time>2017-09-17T11:07:24Z</time>
      </trkpt>
      <trkpt lat="43.99585" lon="7.52856">
        <ele>489</ele>
        <time>2017-09-17T11:07:25Z</time>
      </trkpt>
      <trkpt lat="43.99585" lon="7.52865">
        <ele>488</ele>
        <time>2017-09-17T11:07:26Z</time>
      </trkpt>
      <trkpt lat="43.99584" lon="7.52876">
        <ele>488</ele>
        <time>2017-09-17T11:07:27Z</time>
      </trkpt>
      <trkpt lat="43.99582" lon="7.52886">
        <ele>488</ele>
        <time>2017-09-17T11:07:28Z</time>
      </trkpt>
      <trkpt lat="43.99582" lon="7.52897">
        <ele>488</ele>
        <time>2017-09-17T11:07:29Z</time>
      </trkpt>
      <trkpt lat="43.99581" lon="7.52908">
        <ele>488</ele>
        <time>2017-09-17T11:07:30Z</time>
      </trkpt>
      <trkpt lat="43.99582" lon="7.52919">
        <ele>487</ele>
        <time>2017-09-17T11:07:31Z</time>
      </trkpt>
      <trkpt lat="43.99583" lon="7.5293">
        <ele>487</ele>
        <time>2017-09-17T11:07:32Z</time>
      </trkpt>
      <trkpt lat="43.99581" lon="7.52942">
        <ele>487</ele>
        <time>2017-09-17T11:07:33Z</time>
      </trkpt>
      <trkpt lat="43.99578" lon="7.52953">
        <ele>486</ele>
        <time>2017-09-17T11:07:34Z</time>
      </trkpt>
      <trkpt lat="43.99572" lon="7.52963">
        <ele>486</ele>
        <time>2017-09-17T11:07:35Z</time>
      </trkpt>
      <trkpt lat="43.99567" lon="7.52974">
        <ele>486</ele>
        <time>2017-09-17T11:07:36Z</time>
      </trkpt>
      <trkpt lat="43.99563" lon="7.52985">
        <ele>485</ele>
        <time>2017-09-17T11:07:37Z</time>
      </trkpt>
      <trkpt lat="43.99559" lon="7.52997">
        <ele>485</ele>
        <time>2017-09-17T11:07:38Z</time>
      </trkpt>
      <trkpt lat="43.99557" lon="7.53009">
        <ele>484</ele>
        <time>2017-09-17T11:07:39Z</time>
      </trkpt>
      <trkpt lat="43.99556" lon="7.53022">
        <ele>484</ele>
        <time>2017-09-17T11:07:40Z</time>
      </trkpt>
      <trkpt lat="43.99553" lon="7.53035">
        <ele>483</ele>
        <time>2017-09-17T11:07:41Z</time>
      </trkpt>
      <trkpt lat="43.9955" lon="7.53047">
        <ele>483</ele>
        <time>2017-09-17T11:07:42Z</time>
      </trkpt>
      <trkpt lat="43.99546" lon="7.53058">
        <ele>482</ele>
        <time>2017-09-17T11:07:43Z</time>
      </trkpt>
      <trkpt lat="43.99542" lon="7.5307">
        <ele>482</ele>
        <time>2017-09-17T11:07:44Z</time>
      </trkpt>
      <trkpt lat="43.99537" lon="7.53082">
        <ele>481</ele>
        <time>2017-09-17T11:07:45Z</time>
      </trkpt>
      <trkpt lat="43.99533" lon="7.53094">
        <ele>480</ele>
        <time>2017-09-17T11:07:46Z</time>
      </trkpt>
      <trkpt lat="43.99529" lon="7.53106">
        <ele>480</ele>
        <time>2017-09-17T11:07:47Z</time>
      </trkpt>
      <trkpt lat="43.99526" lon="7.53119">
        <ele>479</ele>
        <time>2017-09-17T11:07:48Z</time>
      </trkpt>
      <trkpt lat="43.99524" lon="7.53132">
        <ele>479</ele>
        <time>2017-09-17T11:07:49Z</time>
      </trkpt>
      <trkpt lat="43.99523" lon="7.53144">
        <ele>479</ele>
        <time>2017-09-17T11:07:50Z</time>
      </trkpt>
      <trkpt lat="43.99522" lon="7.53157">
        <ele>479</ele>
        <time>2017-09-17T11:07:51Z</time>
      </trkpt>
      <trkpt lat="43.99521" lon="7.5317">
        <ele>478</ele>
        <time>2017-09-17T11:07:52Z</time>
      </trkpt>
      <trkpt lat="43.9952" lon="7.53182">
        <ele>478</ele>
        <time>2017-09-17T11:07:53Z</time>
      </trkpt>
      <trkpt lat="43.99519" lon="7.53194">
        <ele>478</ele>
        <time>2017-09-17T11:07:54Z</time>
      </trkpt>
      <trkpt lat="43.99517" lon="7.53206">
        <ele>478</ele>
        <time>2017-09-17T11:07:55Z</time>
      </trkpt>
      <trkpt lat="43.99515" lon="7.53218">
        <ele>478</ele>
        <time>2017-09-17T11:07:56Z</time>
      </trkpt>
      <trkpt lat="43.99513" lon="7.5323">
        <ele>477</ele>
        <time>2017-09-17T11:07:57Z</time>
      </trkpt>
      <trkpt lat="43.99511" lon="7.53242">
        <ele>477</ele>
        <time>2017-09-17T11:07:58Z</time>
      </trkpt>
      <trkpt lat="43.99508" lon="7.53253">
        <ele>477</ele>
        <time>2017-09-17T11:07:59Z</time>
      </trkpt>
      <trkpt lat="43.99506" lon="7.53265">
        <ele>477</ele>
        <time>2017-09-17T11:08:00Z</time>
      </trkpt>
      <trkpt lat="43.99505" lon="7.53277">
        <ele>476</ele>
        <time>2017-09-17T11:08:01Z</time>
      </trkpt>
      <trkpt lat="43.99503" lon="7.53288">
        <ele>476</ele>
        <time>2017-09-17T11:08:02Z</time>
      </trkpt>
      <trkpt lat="43.99502" lon="7.53299">
        <ele>476</ele>
        <time>2017-09-17T11:08:03Z</time>
      </trkpt>
      <trkpt lat="43.995" lon="7.5331">
        <ele>476</ele>
        <time>2017-09-17T11:08:04Z</time>
      </trkpt>
      <trkpt lat="43.99498" lon="7.53321">
        <ele>476</ele>
        <time>2017-09-17T11:08:05Z</time>
      </trkpt>
      <trkpt lat="43.99494" lon="7.53333">
        <ele>476</ele>
        <time>2017-09-17T11:08:06Z</time>
      </trkpt>
      <trkpt lat="43.99491" lon="7.53344">
        <ele>476</ele>
        <time>2017-09-17T11:08:07Z</time>
      </trkpt>
      <trkpt lat="43.99486" lon="7.53354">
        <ele>475</ele>
        <time>2017-09-17T11:08:08Z</time>
      </trkpt>
      <trkpt lat="43.99481" lon="7.53364">
        <ele>475</ele>
        <time>2017-09-17T11:08:09Z</time>
      </trkpt>
      <trkpt lat="43.99475" lon="7.53374">
        <ele>474</ele>
        <time>2017-09-17T11:08:10Z</time>
      </trkpt>
      <trkpt lat="43.9947" lon="7.53382">
        <ele>473</ele>
        <time>2017-09-17T11:08:11Z</time>
      </trkpt>
      <trkpt lat="43.99465" lon="7.53392">
        <ele>472</ele>
        <time>2017-09-17T11:08:12Z</time>
      </trkpt>
      <trkpt lat="43.99461" lon="7.53403">
        <ele>472</ele>
        <time>2017-09-17T11:08:13Z</time>
      </trkpt>
      <trkpt lat="43.99459" lon="7.53415">
        <ele>471</ele>
        <time>2017-09-17T11:08:14Z</time>
      </trkpt>
      <trkpt lat="43.99456" lon="7.53429">
        <ele>470</ele>
        <time>2017-09-17T11:08:15Z</time>
      </trkpt>
      <trkpt lat="43.99454" lon="7.53443">
        <ele>469</ele>
        <time>2017-09-17T11:08:16Z</time>
      </trkpt>
      <trkpt lat="43.9945" lon="7.53458">
        <ele>468</ele>
        <time>2017-09-17T11:08:17Z</time>
      </trkpt>
      <trkpt lat="43.99445" lon="7.53471">
        <ele>467</ele>
        <time>2017-09-17T11:08:18Z</time>
      </trkpt>
      <trkpt lat="43.99439" lon="7.53482">
        <ele>465</ele>
        <time>2017-09-17T11:08:19Z</time>
      </trkpt>
      <trkpt lat="43.99432" lon="7.53491">
        <ele>464</ele>
        <time>2017-09-17T11:08:20Z</time>
      </trkpt>
      <trkpt lat="43.99425" lon="7.535">
        <ele>463</ele>
        <time>2017-09-17T11:08:21Z</time>
      </trkpt>
      <trkpt lat="43.9942" lon="7.5351">
        <ele>462</ele>
        <time>2017-09-17T11:08:22Z</time>
      </trkpt>
      <trkpt lat="43.99417" lon="7.53522">
        <ele>461</ele>
        <time>2017-09-17T11:08:23Z</time>
      </trkpt>
      <trkpt lat="43.99416" lon="7.53535">
        <ele>460</ele>
        <time>2017-09-17T11:08:24Z</time>
      </trkpt>
      <trkpt lat="43.99415" lon="7.53549">
        <ele>459</ele>
        <time>2017-09-17T11:08:25Z</time>
      </trkpt>
      <trkpt lat="43.99415" lon="7.53563">
        <ele>458</ele>
        <time>2017-09-17T11:08:26Z</time>
      </trkpt>
      <trkpt lat="43.99414" lon="7.53576">
        <ele>457</ele>
        <time>2017-09-17T11:08:27Z</time>
      </trkpt>
      <trkpt lat="43.99413" lon="7.5359">
        <ele>456</ele>
        <time>2017-09-17T11:08:28Z</time>
      </trkpt>
      <trkpt lat="43.99412" lon="7.53603">
        <ele>455</ele>
        <time>2017-09-17T11:08:29Z</time>
      </trkpt>
      <trkpt lat="43.99412" lon="7.53616">
        <ele>455</ele>
        <time>2017-09-17T11:08:30Z</time>
      </trkpt>
      <trkpt lat="43.99412" lon="7.53628">
        <ele>454</ele>
        <time>2017-09-17T11:08:31Z</time>
      </trkpt>
      <trkpt lat="43.99411" lon="7.53641">
        <ele>454</ele>
        <time>2017-09-17T11:08:32Z</time>
      </trkpt>
      <trkpt lat="43.99411" lon="7.53653">
        <ele>453</ele>
        <time>2017-09-17T11:08:33Z</time>
      </trkpt>
      <trkpt lat="43.9941" lon="7.53665">
        <ele>453</ele>
        <time>2017-09-17T11:08:34Z</time>
      </trkpt>
      <trkpt lat="43.9941" lon="7.53676">
        <ele>453</ele>
        <time>2017-09-17T11:08:35Z</time>
      </trkpt>
      <trkpt lat="43.99409" lon="7.53687">
        <ele>452</ele>
        <time>2017-09-17T11:08:36Z</time>
      </trkpt>
      <trkpt lat="43.99408" lon="7.53698">
        <ele>452</ele>
        <time>2017-09-17T11:08:37Z</time>
      </trkpt>
      <trkpt lat="43.99407" lon="7.53708">
        <ele>452</ele>
        <time>2017-09-17T11:08:38Z</time>
      </trkpt>
      <trkpt lat="43.99405" lon="7.53718">
        <ele>451</ele>
        <time>2017-09-17T11:08:39Z</time>
      </trkpt>
      <trkpt lat="43.99402" lon="7.53728">
        <ele>451</ele>
        <time>2017-09-17T11:08:40Z</time>
      </trkpt>
      <trkpt lat="43.994" lon="7.53737">
        <ele>451</ele>
        <time>2017-09-17T11:08:41Z</time>
      </trkpt>
      <trkpt lat="43.99399" lon="7.53747">
        <ele>450</ele>
        <time>2017-09-17T11:08:42Z</time>
      </trkpt>
      <trkpt lat="43.99397" lon="7.53758">
        <ele>450</ele>
        <time>2017-09-17T11:08:43Z</time>
      </trkpt>
      <trkpt lat="43.99395" lon="7.53769">
        <ele>449</ele>
        <time>2017-09-17T11:08:44Z</time>
      </trkpt>
      <trkpt lat="43.99393" lon="7.53781">
        <ele>448</ele>
        <time>2017-09-17T11:08:45Z</time>
      </trkpt>
      <trkpt lat="43.9939" lon="7.53792">
        <ele>447</ele>
        <time>2017-09-17T11:08:46Z</time>
      </trkpt>
      <trkpt lat="43.99386" lon="7.53802">
        <ele>447</ele>
        <time>2017-09-17T11:08:47Z</time>
      </trkpt>
      <trkpt lat="43.99382" lon="7.53812">
        <ele>446</ele>
        <time>2017-09-17T11:08:48Z</time>
      </trkpt>
      <trkpt lat="43.99378" lon="7.53822">
        <ele>446</ele>
        <time>2017-09-17T11:08:49Z</time>
      </trkpt>
      <trkpt lat="43.99375" lon="7.53833">
        <ele>445</ele>
        <time>2017-09-17T11:08:50Z</time>
      </trkpt>
      <trkpt lat="43.99373" lon="7.53843">
        <ele>445</ele>
        <time>2017-09-17T11:08:51Z</time>
      </trkpt>
      <trkpt lat="43.99372" lon="7.53854">
        <ele>445</ele>
        <time>2017-09-17T11:08:52Z</time>
      </trkpt>
      <trkpt lat="43.99371" lon="7.53865">
        <ele>444</ele>
        <time>2017-09-17T11:08:53Z</time>
      </trkpt>
      <trkpt lat="43.9937" lon="7.53876">
        <ele>444</ele>
        <time>2017-09-17T11:08:54Z</time>
      </trkpt>
      <trkpt lat="43.99369" lon="7.53888">
        <ele>443</ele>
        <time>2017-09-17T11:08:55Z</time>
      </trkpt>
      <trkpt lat="43.99367" lon="7.53901">
        <ele>443</ele>
        <time>2017-09-17T11:08:56Z</time>
      </trkpt>
      <trkpt lat="43.99366" lon="7.53914">
        <ele>442</ele>
        <time>2017-09-17T11:08:57Z</time>
      </trkpt>
      <trkpt lat="43.99363" lon="7.53926">
        <ele>442</ele>
        <time>2017-09-17T11:08:58Z</time>
      </trkpt>
      <trkpt lat="43.9936" lon="7.53939">
        <ele>441</ele>
        <time>2017-09-17T11:08:59Z</time>
      </trkpt>
      <trkpt lat="43.99357" lon="7.53952">
        <ele>441</ele>
        <time>2017-09-17T11:09:00Z</time>
      </trkpt>
      <trkpt lat="43.99354" lon="7.53965">
        <ele>440</ele>
        <time>2017-09-17T11:09:01Z</time>
      </trkpt>
      <trkpt lat="43.99352" lon="7.53978">
        <ele>440</ele>
        <time>2017-09-17T11:09:02Z</time>
      </trkpt>
      <trkpt lat="43.9935" lon="7.53991">
        <ele>439</ele>
        <time>2017-09-17T11:09:03Z</time>
      </trkpt>
      <trkpt lat="43.99349" lon="7.54004">
        <ele>439</ele>
        <time>2017-09-17T11:09:04Z</time>
      </trkpt>
      <trkpt lat="43.99347" lon="7.54018">
        <ele>438</ele>
        <time>2017-09-17T11:09:05Z</time>
      </trkpt>
      <trkpt lat="43.99345" lon="7.54031">
        <ele>438</ele>
        <time>2017-09-17T11:09:06Z</time>
      </trkpt>
      <trkpt lat="43.99341" lon="7.54044">
        <ele>437</ele>
        <time>2017-09-17T11:09:07Z</time>
      </trkpt>
      <trkpt lat="43.99338" lon="7.54057">
        <ele>437</ele>
        <time>2017-09-17T11:09:08Z</time>
      </trkpt>
      <trkpt lat="43.99334" lon="7.54068">
        <ele>436</ele>
        <time>2017-09-17T11:09:09Z</time>
      </trkpt>
      <trkpt lat="43.99331" lon="7.5408">
        <ele>436</ele>
        <time>2017-09-17T11:09:10Z</time>
      </trkpt>
      <trkpt lat="43.99329" lon="7.54091">
        <ele>436</ele>
        <time>2017-09-17T11:09:11Z</time>
      </trkpt>
      <trkpt lat="43.99328" lon="7.54103">
        <ele>436</ele>
        <time>2017-09-17T11:09:12Z</time>
      </trkpt>
      <trkpt lat="43.99327" lon="7.54116">
        <ele>436</ele>
        <time>2017-09-17T11:09:13Z</time>
      </trkpt>
      <trkpt lat="43.99325" lon="7.54129">
        <ele>435</ele>
        <time>2017-09-17T11:09:14Z</time>
      </trkpt>
      <trkpt lat="43.99324" lon="7.54141">
        <ele>435</ele>
        <time>2017-09-17T11:09:15Z</time>
      </trkpt>
      <trkpt lat="43.99322" lon="7.54154">
        <ele>435</ele>
        <time>2017-09-17T11:09:16Z</time>
      </trkpt>
      <trkpt lat="43.9932" lon="7.54167">
        <ele>434</ele>
        <time>2017-09-17T11:09:17Z</time>
      </trkpt>
      <trkpt lat="43.99318" lon="7.5418">
        <ele>434</ele>
        <time>2017-09-17T11:09:18Z</time>
      </trkpt>
      <trkpt lat="43.99316" lon="7.54193">
        <ele>434</ele>
        <time>2017-09-17T11:09:19Z</time>
      </trkpt>
      <trkpt lat="43.99313" lon="7.54206">
        <ele>433</ele>
        <time>2017-09-17T11:09:20Z</time>
      </trkpt>
      <trkpt lat="43.99312" lon="7.5422">
        <ele>433</ele>
        <time>2017-09-17T11:09:21Z</time>
      </trkpt>
      <trkpt lat="43.9931" lon="7.54233">
        <ele>432</ele>
        <time>2017-09-17T11:09:22Z</time>
      </trkpt>
      <trkpt lat="43.99308" lon="7.54247">
        <ele>432</ele>
        <time>2017-09-17T11:09:23Z</time>
      </trkpt>
      <trkpt lat="43.99306" lon="7.54261">
        <ele>431</ele>
        <time>2017-09-17T11:09:24Z</time>
      </trkpt>
      <trkpt lat="43.99303" lon="7.54275">
        <ele>431</ele>
        <time>2017-09-17T11:09:25Z</time>
      </trkpt>
      <trkpt lat="43.993" lon="7.5429">
        <ele>430</ele>
        <time>2017-09-17T11:09:26Z</time>
      </trkpt>
      <trkpt lat="43.99298" lon="7.54305">
        <ele>430</ele>
        <time>2017-09-17T11:09:27Z</time>
      </trkpt>
      <trkpt lat="43.99295" lon="7.5432">
        <ele>429</ele>
        <time>2017-09-17T11:09:28Z</time>
      </trkpt>
      <trkpt lat="43.99292" lon="7.54335">
        <ele>429</ele>
        <time>2017-09-17T11:09:29Z</time>
      </trkpt>
      <trkpt lat="43.99289" lon="7.5435">
        <ele>428</ele>
        <time>2017-09-17T11:09:30Z</time>
      </trkpt>
      <trkpt lat="43.99287" lon="7.54364">
        <ele>428</ele>
        <time>2017-09-17T11:09:31Z</time>
      </trkpt>
      <trkpt lat="43.99286" lon="7.54378">
        <ele>427</ele>
        <time>2017-09-17T11:09:32Z</time>
      </trkpt>
      <trkpt lat="43.99287" lon="7.54392">
        <ele>426</ele>
        <time>2017-09-17T11:09:33Z</time>
      </trkpt>
      <trkpt lat="43.99288" lon="7.54405">
        <ele>426</ele>
        <time>2017-09-17T11:09:34Z</time>
      </trkpt>
      <trkpt lat="43.99288" lon="7.54418">
        <ele>425</ele>
        <time>2017-09-17T11:09:35Z</time>
      </trkpt>
      <trkpt lat="43.99288" lon="7.5443">
        <ele>424</ele>
        <time>2017-09-17T11:09:36Z</time>
      </trkpt>
      <trkpt lat="43.99287" lon="7.54442">
        <ele>423</ele>
        <time>2017-09-17T11:09:37Z</time>
      </trkpt>
      <trkpt lat="43.99286" lon="7.54454">
        <ele>423</ele>
        <time>2017-09-17T11:09:38Z</time>
      </trkpt>
      <trkpt lat="43.99285" lon="7.54465">
        <ele>422</ele>
        <time>2017-09-17T11:09:39Z</time>
      </trkpt>
      <trkpt lat="43.99284" lon="7.54475">
        <ele>422</ele>
        <time>2017-09-17T11:09:40Z</time>
      </trkpt>
      <trkpt lat="43.99283" lon="7.54486">
        <ele>422</ele>
        <time>2017-09-17T11:09:41Z</time>
      </trkpt>
      <trkpt lat="43.99284" lon="7.54496">
        <ele>422</ele>
        <time>2017-09-17T11:09:42Z</time>
      </trkpt>
      <trkpt lat="43.99286" lon="7.54505">
        <ele>421</ele>
        <time>2017-09-17T11:09:43Z</time>
      </trkpt>
      <trkpt lat="43.9929" lon="7.54512">
        <ele>421</ele>
        <time>2017-09-17T11:09:44Z</time>
      </trkpt>
      <trkpt lat="43.99294" lon="7.54519">
        <ele>421</ele>
        <time>2017-09-17T11:09:45Z</time>
      </trkpt>
      <trkpt lat="43.99299" lon="7.54526">
        <ele>421</ele>
        <time>2017-09-17T11:09:46Z</time>
      </trkpt>
      <trkpt lat="43.99304" lon="7.54533">
        <ele>421</ele>
        <time>2017-09-17T11:09:47Z</time>
      </trkpt>
      <trkpt lat="43.99309" lon="7.54541">
        <ele>421</ele>
        <time>2017-09-17T11:09:48Z</time>
      </trkpt>
      <trkpt lat="43.99314" lon="7.54548">
        <ele>421</ele>
        <time>2017-09-17T11:09:49Z</time>
      </trkpt>
      <trkpt lat="43.99318" lon="7.54556">
        <ele>420</ele>
        <time>2017-09-17T11:09:50Z</time>
      </trkpt>
      <trkpt lat="43.99323" lon="7.54564">
        <ele>420</ele>
        <time>2017-09-17T11:09:51Z</time>
      </trkpt>
      <trkpt lat="43.99327" lon="7.54572">
        <ele>420</ele>
        <time>2017-09-17T11:09:52Z</time>
      </trkpt>
      <trkpt lat="43.99331" lon="7.54581">
        <ele>419</ele>
        <time>2017-09-17T11:09:53Z</time>
      </trkpt>
      <trkpt lat="43.99334" lon="7.5459">
        <ele>419</ele>
        <time>2017-09-17T11:09:54Z</time>
      </trkpt>
      <trkpt lat="43.99337" lon="7.546">
        <ele>419</ele>
        <time>2017-09-17T11:09:55Z</time>
      </trkpt>
      <trkpt lat="43.9934" lon="7.5461">
        <ele>419</ele>
        <time>2017-09-17T11:09:56Z</time>
      </trkpt>
      <trkpt lat="43.99343" lon="7.54619">
        <ele>419</ele>
        <time>2017-09-17T11:09:57Z</time>
      </trkpt>
      <trkpt lat="43.99346" lon="7.54629">
        <ele>418</ele>
        <time>2017-09-17T11:09:58Z</time>
      </trkpt>
      <trkpt lat="43.99349" lon="7.54638">
        <ele>418</ele>
        <time>2017-09-17T11:09:59Z</time>
      </trkpt>
      <trkpt lat="43.99353" lon="7.54647">
        <ele>418</ele>
        <time>2017-09-17T11:10:00Z</time>
      </trkpt>
      <trkpt lat="43.99356" lon="7.54657">
        <ele>418</ele>
        <time>2017-09-17T11:10:01Z</time>
      </trkpt>
      <trkpt lat="43.99359" lon="7.54666">
        <ele>418</ele>
        <time>2017-09-17T11:10:02Z</time>
      </trkpt>
      <trkpt lat="43.99362" lon="7.54673">
        <ele>418</ele>
        <time>2017-09-17T11:10:03Z</time>
      </trkpt>
      <trkpt lat="43.99366" lon="7.5468">
        <ele>418</ele>
        <time>2017-09-17T11:10:04Z</time>
      </trkpt>
      <trkpt lat="43.9937" lon="7.54687">
        <ele>418</ele>
        <time>2017-09-17T11:10:05Z</time>
      </trkpt>
      <trkpt lat="43.99374" lon="7.54695">
        <ele>418</ele>
        <time>2017-09-17T11:10:06Z</time>
      </trkpt>
      <trkpt lat="43.99377" lon="7.54702">
        <ele>418</ele>
        <time>2017-09-17T11:10:07Z</time>
      </trkpt>
      <trkpt lat="43.99381" lon="7.5471">
        <ele>418</ele>
        <time>2017-09-17T11:10:08Z</time>
      </trkpt>
      <trkpt lat="43.99384" lon="7.54717">
        <ele>418</ele>
        <time>2017-09-17T11:10:09Z</time>
      </trkpt>
      <trkpt lat="43.99388" lon="7.54724">
        <ele>418</ele>
        <time>2017-09-17T11:10:10Z</time>
      </trkpt>
      <trkpt lat="43.99391" lon="7.54732">
        <ele>418</ele>
        <time>2017-09-17T11:10:11Z</time>
      </trkpt>
      <trkpt lat="43.99395" lon="7.5474">
        <ele>418</ele>
        <time>2017-09-17T11:10:12Z</time>
      </trkpt>
      <trkpt lat="43.99398" lon="7.54748">
        <ele>418</ele>
        <time>2017-09-17T11:10:13Z</time>
      </trkpt>
      <trkpt lat="43.99401" lon="7.54756">
        <ele>417</ele>
        <time>2017-09-17T11:10:14Z</time>
      </trkpt>
      <trkpt lat="43.99404" lon="7.54765">
        <ele>417</ele>
        <time>2017-09-17T11:10:15Z</time>
      </trkpt>
      <trkpt lat="43.99406" lon="7.54775">
        <ele>417</ele>
        <time>2017-09-17T11:10:16Z</time>
      </trkpt>
      <trkpt lat="43.99408" lon="7.54785">
        <ele>417</ele>
        <time>2017-09-17T11:10:17Z</time>
      </trkpt>
      <trkpt lat="43.99409" lon="7.54796">
        <ele>416</ele>
        <time>2017-09-17T11:10:18Z</time>
      </trkpt>
      <trkpt lat="43.99411" lon="7.54806">
        <ele>416</ele>
        <time>2017-09-17T11:10:19Z</time>
      </trkpt>
      <trkpt lat="43.99413" lon="7.54817">
        <ele>416</ele>
        <time>2017-09-17T11:10:20Z</time>
      </trkpt>
      <trkpt lat="43.99415" lon="7.54828">
        <ele>415</ele>
        <time>2017-09-17T11:10:21Z</time>
      </trkpt>
      <trkpt lat="43.99417" lon="7.54839">
        <ele>415</ele>
        <time>2017-09-17T11:10:22Z</time>
      </trkpt>
      <trkpt lat="43.99419" lon="7.54851">
        <ele>414</ele>
        <time>2017-09-17T11:10:23Z</time>
      </trkpt>
      <trkpt lat="43.99422" lon="7.54862">
        <ele>414</ele>
        <time>2017-09-17T11:10:24Z</time>
      </trkpt>
      <trkpt lat="43.99426" lon="7.54872">
        <ele>414</ele>
        <time>2017-09-17T11:10:25Z</time>
      </trkpt>
      <trkpt lat="43.99428" lon="7.54883">
        <ele>414</ele>
        <time>2017-09-17T11:10:26Z</time>
      </trkpt>
      <trkpt lat="43.9943" lon="7.54894">
        <ele>414</ele>
        <time>2017-09-17T11:10:27Z</time>
      </trkpt>
      <trkpt lat="43.99431" lon="7.54904">
        <ele>414</ele>
        <time>2017-09-17T11:10:28Z</time>
      </trkpt>
      <trkpt lat="43.99434" lon="7.54914">
        <ele>414</ele>
        <time>2017-09-17T11:10:29Z</time>
      </trkpt>
      <trkpt lat="43.99438" lon="7.54922">
        <ele>414</ele>
        <time>2017-09-17T11:10:30Z</time>
      </trkpt>
      <trkpt lat="43.99442" lon="7.54928">
        <ele>414</ele>
        <time>2017-09-17T11:10:31Z</time>
      </trkpt>
      <trkpt lat="43.99448" lon="7.54933">
        <ele>414</ele>
        <time>2017-09-17T11:10:32Z</time>
      </trkpt>
      <trkpt lat="43.99454" lon="7.54937">
        <ele>414</ele>
        <time>2017-09-17T11:10:33Z</time>
      </trkpt>
      <trkpt lat="43.99459" lon="7.5494">
        <ele>415</ele>
        <time>2017-09-17T11:10:34Z</time>
      </trkpt>
      <trkpt lat="43.99465" lon="7.54944">
        <ele>415</ele>
        <time>2017-09-17T11:10:35Z</time>
      </trkpt>
      <trkpt lat="43.9947" lon="7.54946">
        <ele>415</ele>
        <time>2017-09-17T11:10:36Z</time>
      </trkpt>
      <trkpt lat="43.99474" lon="7.54948">
        <ele>415</ele>
        <time>2017-09-17T11:10:37Z</time>
      </trkpt>
      <trkpt lat="43.99479" lon="7.5495">
        <ele>416</ele>
        <time>2017-09-17T11:10:38Z</time>
      </trkpt>
      <trkpt lat="43.99484" lon="7.54952">
        <ele>416</ele>
        <time>2017-09-17T11:10:39Z</time>
      </trkpt>
      <trkpt lat="43.99488" lon="7.54953">
        <ele>416</ele>
        <time>2017-09-17T11:10:40Z</time>
      </trkpt>
      <trkpt lat="43.99494" lon="7.54954">
        <ele>416</ele>
        <time>2017-09-17T11:10:41Z</time>
      </trkpt>
      <trkpt lat="43.99501" lon="7.54955">
        <ele>416</ele>
        <time>2017-09-17T11:10:42Z</time>
      </trkpt>
      <trkpt lat="43.99507" lon="7.54956">
        <ele>417</ele>
        <time>2017-09-17T11:10:43Z</time>
      </trkpt>
      <trkpt lat="43.99514" lon="7.54957">
        <ele>417</ele>
        <time>2017-09-17T11:10:44Z</time>
      </trkpt>
      <trkpt lat="43.99521" lon="7.54957">
        <ele>417</ele>
        <time>2017-09-17T11:10:45Z</time>
      </trkpt>
      <trkpt lat="43.99528" lon="7.54958">
        <ele>417</ele>
        <time>2017-09-17T11:10:46Z</time>
      </trkpt>
      <trkpt lat="43.99535" lon="7.54959">
        <ele>417</ele>
        <time>2017-09-17T11:10:47Z</time>
      </trkpt>
      <trkpt lat="43.99542" lon="7.5496">
        <ele>417</ele>
        <time>2017-09-17T11:10:48Z</time>
      </trkpt>
      <trkpt lat="43.99548" lon="7.54961">
        <ele>417</ele>
        <time>2017-09-17T11:10:49Z</time>
      </trkpt>
      <trkpt lat="43.99555" lon="7.54962">
        <ele>417</ele>
        <time>2017-09-17T11:10:50Z</time>
      </trkpt>
      <trkpt lat="43.99562" lon="7.54963">
        <ele>417</ele>
        <time>2017-09-17T11:10:51Z</time>
      </trkpt>
      <trkpt lat="43.99569" lon="7.54964">
        <ele>417</ele>
        <time>2017-09-17T11:10:52Z</time>
      </trkpt>
      <trkpt lat="43.99576" lon="7.54966">
        <ele>417</ele>
        <time>2017-09-17T11:10:53Z</time>
      </trkpt>
      <trkpt lat="43.99583" lon="7.54967">
        <ele>417</ele>
        <time>2017-09-17T11:10:54Z</time>
      </trkpt>
      <trkpt lat="43.9959" lon="7.54968">
        <ele>417</ele>
        <time>2017-09-17T11:10:55Z</time>
      </trkpt>
      <trkpt lat="43.99597" lon="7.54968">
        <ele>417</ele>
        <time>2017-09-17T11:10:56Z</time>
      </trkpt>
      <trkpt lat="43.99604" lon="7.54969">
        <ele>417</ele>
        <time>2017-09-17T11:10:57Z</time>
      </trkpt>
      <trkpt lat="43.99611" lon="7.54969">
        <ele>417</ele>
        <time>2017-09-17T11:10:58Z</time>
      </trkpt>
      <trkpt lat="43.99618" lon="7.54969">
        <ele>417</ele>
        <time>2017-09-17T11:10:59Z</time>
      </trkpt>
      <trkpt lat="43.99625" lon="7.5497">
        <ele>418</ele>
        <time>2017-09-17T11:11:00Z</time>
      </trkpt>
      <trkpt lat="43.99633" lon="7.54971">
        <ele>418</ele>
        <time>2017-09-17T11:11:01Z</time>
      </trkpt>
      <trkpt lat="43.9964" lon="7.54973">
        <ele>418</ele>
        <time>2017-09-17T11:11:02Z</time>
      </trkpt>
      <trkpt lat="43.99647" lon="7.54974">
        <ele>418</ele>
        <time>2017-09-17T11:11:03Z</time>
      </trkpt>
      <trkpt lat="43.99655" lon="7.54976">
        <ele>418</ele>
        <time>2017-09-17T11:11:04Z</time>
      </trkpt>
      <trkpt lat="43.99663" lon="7.54978">
        <ele>418</ele>
        <time>2017-09-17T11:11:05Z</time>
      </trkpt>
      <trkpt lat="43.9967" lon="7.54979">
        <ele>418</ele>
        <time>2017-09-17T11:11:06Z</time>
      </trkpt>
      <trkpt lat="43.99677" lon="7.54981">
        <ele>418</ele>
        <time>2017-09-17T11:11:07Z</time>
      </trkpt>
      <trkpt lat="43.99684" lon="7.54983">
        <ele>418</ele>
        <time>2017-09-17T11:11:08Z</time>
      </trkpt>
      <trkpt lat="43.99691" lon="7.54985">
        <ele>418</ele>
        <time>2017-09-17T11:11:09Z</time>
      </trkpt>
      <trkpt lat="43.99698" lon="7.54988">
        <ele>418</ele>
        <time>2017-09-17T11:11:10Z</time>
      </trkpt>
      <trkpt lat="43.99704" lon="7.5499">
        <ele>418</ele>
        <time>2017-09-17T11:11:11Z</time>
      </trkpt>
      <trkpt lat="43.99711" lon="7.54992">
        <ele>418</ele>
        <time>2017-09-17T11:11:12Z</time>
      </trkpt>
      <trkpt lat="43.99718" lon="7.54995">
        <ele>418</ele>
        <time>2017-09-17T11:11:13Z</time>
      </trkpt>
      <trkpt lat="43.99724" lon="7.54997">
        <ele>418</ele>
        <time>2017-09-17T11:11:14Z</time>
      </trkpt>
      <trkpt lat="43.9973" lon="7.54999">
        <ele>418</ele>
        <time>2017-09-17T11:11:15Z</time>
      </trkpt>
      <trkpt lat="43.99737" lon="7.55">
        <ele>418</ele>
        <time>2017-09-17T11:11:16Z</time>
      </trkpt>
      <trkpt lat="43.99743" lon="7.55002">
        <ele>419</ele>
        <time>2017-09-17T11:11:17Z</time>
      </trkpt>
      <trkpt lat="43.9975" lon="7.55005">
        <ele>419</ele>
        <time>2017-09-17T11:11:18Z</time>
      </trkpt>
      <trkpt lat="43.99756" lon="7.55007">
        <ele>419</ele>
        <time>2017-09-17T11:11:19Z</time>
      </trkpt>
      <trkpt lat="43.99763" lon="7.55009">
        <ele>419</ele>
        <time>2017-09-17T11:11:20Z</time>
      </trkpt>
      <trkpt lat="43.99769" lon="7.55011">
        <ele>419</ele>
        <time>2017-09-17T11:11:21Z</time>
      </trkpt>
      <trkpt lat="43.99775" lon="7.55014">
        <ele>419</ele>
        <time>2017-09-17T11:11:22Z</time>
      </trkpt>
      <trkpt lat="43.9978" lon="7.55018">
        <ele>419</ele>
        <time>2017-09-17T11:11:23Z</time>
      </trkpt>
      <trkpt lat="43.99786" lon="7.55021">
        <ele>420</ele>
        <time>2017-09-17T11:11:24Z</time>
      </trkpt>
      <trkpt lat="43.99791" lon="7.55025">
        <ele>420</ele>
        <time>2017-09-17T11:11:25Z</time>
      </trkpt>
      <trkpt lat="43.99797" lon="7.55028">
        <ele>420</ele>
        <time>2017-09-17T11:11:26Z</time>
      </trkpt>
      <trkpt lat="43.99802" lon="7.55032">
        <ele>420</ele>
        <time>2017-09-17T11:11:27Z</time>
      </trkpt>
      <trkpt lat="43.99808" lon="7.55035">
        <ele>420</ele>
        <time>2017-09-17T11:11:28Z</time>
      </trkpt>
      <trkpt lat="43.99813" lon="7.55038">
        <ele>420</ele>
        <time>2017-09-17T11:11:29Z</time>
      </trkpt>
      <trkpt lat="43.99819" lon="7.55042">
        <ele>420</ele>
        <time>2017-09-17T11:11:30Z</time>
      </trkpt>
      <trkpt lat="43.99824" lon="7.55045">
        <ele>420</ele>
        <time>2017-09-17T11:11:31Z</time>
      </trkpt>
      <trkpt lat="43.99829" lon="7.55049">
        <ele>421</ele>
        <time>2017-09-17T11:11:32Z</time>
      </trkpt>
      <trkpt lat="43.99835" lon="7.55052">
        <ele>421</ele>
        <time>2017-09-17T11:11:33Z</time>
      </trkpt>
      <trkpt lat="43.9984" lon="7.55055">
        <ele>421</ele>
        <time>2017-09-17T11:11:34Z</time>
      </trkpt>
      <trkpt lat="43.99845" lon="7.55057">
        <ele>421</ele>
        <time>2017-09-17T11:11:35Z</time>
      </trkpt>
      <trkpt lat="43.99851" lon="7.55059">
        <ele>421</ele>
        <time>2017-09-17T11:11:36Z</time>
      </trkpt>
      <trkpt lat="43.99857" lon="7.55063">
        <ele>422</ele>
        <time>2017-09-17T11:11:37Z</time>
      </trkpt>
      <trkpt lat="43.99862" lon="7.55066">
        <ele>422</ele>
        <time>2017-09-17T11:11:38Z</time>
      </trkpt>
      <trkpt lat="43.99868" lon="7.55069">
        <ele>422</ele>
        <time>2017-09-17T11:11:39Z</time>
      </trkpt>
      <trkpt lat="43.99873" lon="7.55072">
        <ele>422</ele>
        <time>2017-09-17T11:11:40Z</time>
      </trkpt>
      <trkpt lat="43.99879" lon="7.55076">
        <ele>422</ele>
        <time>2017-09-17T11:11:41Z</time>
      </trkpt>
      <trkpt lat="43.99884" lon="7.5508">
        <ele>422</ele>
        <time>2017-09-17T11:11:42Z</time>
      </trkpt>
      <trkpt lat="43.99889" lon="7.55085">
        <ele>422</ele>
        <time>2017-09-17T11:11:43Z</time>
      </trkpt>
      <trkpt lat="43.99895" lon="7.5509">
        <ele>422</ele>
        <time>2017-09-17T11:11:44Z</time>
      </trkpt>
      <trkpt lat="43.99899" lon="7.55095">
        <ele>422</ele>
        <time>2017-09-17T11:11:45Z</time>
      </trkpt>
      <trkpt lat="43.99904" lon="7.55101">
        <ele>422</ele>
        <time>2017-09-17T11:11:46Z</time>
      </trkpt>
      <trkpt lat="43.99908" lon="7.55107">
        <ele>422</ele>
        <time>2017-09-17T11:11:47Z</time>
      </trkpt>
      <trkpt lat="43.99913" lon="7.55113">
        <ele>422</ele>
        <time>2017-09-17T11:11:48Z</time>
      </trkpt>
      <trkpt lat="43.99917" lon="7.55119">
        <ele>422</ele>
        <time>2017-09-17T11:11:49Z</time>
      </trkpt>
      <trkpt lat="43.99921" lon="7.55125">
        <ele>422</ele>
        <time>2017-09-17T11:11:50Z</time>
      </trkpt>
      <trkpt lat="43.99925" lon="7.55131">
        <ele>422</ele>
        <time>2017-09-17T11:11:51Z</time>
      </trkpt>
      <trkpt lat="43.99929" lon="7.55136">
        <ele>422</ele>
        <time>2017-09-17T11:11:52Z</time>
      </trkpt>
      <trkpt lat="43.99934" lon="7.55142">
        <ele>422</ele>
        <time>2017-09-17T11:11:53Z</time>
      </trkpt>
      <trkpt lat="43.9994" lon="7.55147">
        <ele>422</ele>
        <time>2017-09-17T11:11:54Z</time>
      </trkpt>
      <trkpt lat="43.99945" lon="7.55151">
        <ele>422</ele>
        <time>2017-09-17T11:11:55Z</time>
      </trkpt>
      <trkpt lat="43.9995" lon="7.55156">
        <ele>422</ele>
        <time>2017-09-17T11:11:56Z</time>
      </trkpt>
      <trkpt lat="43.99955" lon="7.55162">
        <ele>423</ele>
        <time>2017-09-17T11:11:57Z</time>
      </trkpt>
      <trkpt lat="43.9996" lon="7.55167">
        <ele>423</ele>
        <time>2017-09-17T11:11:58Z</time>
      </trkpt>
      <trkpt lat="43.99966" lon="7.55172">
        <ele>423</ele>
        <time>2017-09-17T11:11:59Z</time>
      </trkpt>
      <trkpt lat="43.99971" lon="7.55177">
        <ele>423</ele>
        <time>2017-09-17T11:12:00Z</time>
      </trkpt>
      <trkpt lat="43.99977" lon="7.55181">
        <ele>423</ele>
        <time>2017-09-17T11:12:01Z</time>
      </trkpt>
      <trkpt lat="43.99982" lon="7.55186">
        <ele>423</ele>
        <time>2017-09-17T11:12:02Z</time>
      </trkpt>
      <trkpt lat="43.99988" lon="7.55191">
        <ele>423</ele>
        <time>2017-09-17T11:12:03Z</time>
      </trkpt>
      <trkpt lat="43.99993" lon="7.55195">
        <ele>423</ele>
        <time>2017-09-17T11:12:04Z</time>
      </trkpt>
      <trkpt lat="43.99998" lon="7.55199">
        <ele>423</ele>
        <time>2017-09-17T11:12:05Z</time>
      </trkpt>
      <trkpt lat="44.00003" lon="7.55203">
        <ele>424</ele>
        <time>2017-09-17T11:12:06Z</time>
      </trkpt>
      <trkpt lat="44.00008" lon="7.55207">
        <ele>424</ele>
        <time>2017-09-17T11:12:07Z</time>
      </trkpt>
      <trkpt lat="44.00013" lon="7.5521">
        <ele>424</ele>
        <time>2017-09-17T11:12:08Z</time>
      </trkpt>
      <trkpt lat="44.00018" lon="7.55213">
        <ele>424</ele>
        <time>2017-09-17T11:12:09Z</time>
      </trkpt>
      <trkpt lat="44.00023" lon="7.55217">
        <ele>424</ele>
        <time>2017-09-17T11:12:10Z</time>
      </trkpt>
      <trkpt lat="44.00028" lon="7.5522">
        <ele>424</ele>
        <time>2017-09-17T11:12:11Z</time>
      </trkpt>
      <trkpt lat="44.00033" lon="7.55223">
        <ele>424</ele>
        <time>2017-09-17T11:12:12Z</time>
      </trkpt>
      <trkpt lat="44.00038" lon="7.55226">
        <ele>424</ele>
        <time>2017-09-17T11:12:13Z</time>
      </trkpt>
      <trkpt lat="44.00042" lon="7.55229">
        <ele>424</ele>
        <time>2017-09-17T11:12:14Z</time>
      </trkpt>
      <trkpt lat="44.00047" lon="7.55231">
        <ele>424</ele>
        <time>2017-09-17T11:12:15Z</time>
      </trkpt>
      <trkpt lat="44.00051" lon="7.55234">
        <ele>424</ele>
        <time>2017-09-17T11:12:16Z</time>
      </trkpt>
      <trkpt lat="44.00056" lon="7.55237">
        <ele>424</ele>
        <time>2017-09-17T11:12:17Z</time>
      </trkpt>
      <trkpt lat="44.0006" lon="7.5524">
        <ele>424</ele>
        <time>2017-09-17T11:12:18Z</time>
      </trkpt>
      <trkpt lat="44.00065" lon="7.55244">
        <ele>424</ele>
        <time>2017-09-17T11:12:19Z</time>
      </trkpt>
      <trkpt lat="44.00069" lon="7.55247">
        <ele>424</ele>
        <time>2017-09-17T11:12:20Z</time>
      </trkpt>
      <trkpt lat="44.00074" lon="7.55249">
        <ele>425</ele>
        <time>2017-09-17T11:12:21Z</time>
      </trkpt>
      <trkpt lat="44.00079" lon="7.55252">
        <ele>425</ele>
        <time>2017-09-17T11:12:22Z</time>
      </trkpt>
      <trkpt lat="44.00084" lon="7.55255">
        <ele>425</ele>
        <time>2017-09-17T11:12:23Z</time>
      </trkpt>
      <trkpt lat="44.00089" lon="7.55258">
        <ele>425</ele>
        <time>2017-09-17T11:12:24Z</time>
      </trkpt>
      <trkpt lat="44.00094" lon="7.55261">
        <ele>425</ele>
        <time>2017-09-17T11:12:25Z</time>
      </trkpt>
      <trkpt lat="44.001" lon="7.55264">
        <ele>425</ele>
        <time>2017-09-17T11:12:26Z</time>
      </trkpt>
      <trkpt lat="44.00105" lon="7.55266">
        <ele>426</ele>
        <time>2017-09-17T11:12:27Z</time>
      </trkpt>
      <trkpt lat="44.00111" lon="7.55268">
        <ele>426</ele>
        <time>2017-09-17T11:12:28Z</time>
      </trkpt>
      <trkpt lat="44.00116" lon="7.5527">
        <ele>426</ele>
        <time>2017-09-17T11:12:29Z</time>
      </trkpt>
      <trkpt lat="44.00122" lon="7.55273">
        <ele>426</ele>
        <time>2017-09-17T11:12:30Z</time>
      </trkpt>
      <trkpt lat="44.00127" lon="7.55276">
        <ele>426</ele>
        <time>2017-09-17T11:12:31Z</time>
      </trkpt>
      <trkpt lat="44.00133" lon="7.55279">
        <ele>426</ele>
        <time>2017-09-17T11:12:32Z</time>
      </trkpt>
      <trkpt lat="44.00139" lon="7.55281">
        <ele>426</ele>
        <time>2017-09-17T11:12:33Z</time>
      </trkpt>
      <trkpt lat="44.00144" lon="7.55284">
        <ele>426</ele>
        <time>2017-09-17T11:12:34Z</time>
      </trkpt>
      <trkpt lat="44.0015" lon="7.55287">
        <ele>426</ele>
        <time>2017-09-17T11:12:35Z</time>
      </trkpt>
      <trkpt lat="44.00156" lon="7.5529">
        <ele>426</ele>
        <time>2017-09-17T11:12:36Z</time>
      </trkpt>
      <trkpt lat="44.00162" lon="7.55293">
        <ele>426</ele>
        <time>2017-09-17T11:12:37Z</time>
      </trkpt>
      <trkpt lat="44.00168" lon="7.55296">
        <ele>426</ele>
        <time>2017-09-17T11:12:38Z</time>
      </trkpt>
      <trkpt lat="44.00174" lon="7.55299">
        <ele>426</ele>
        <time>2017-09-17T11:12:39Z</time>
      </trkpt>
      <trkpt lat="44.00179" lon="7.55302">
        <ele>426</ele>
        <time>2017-09-17T11:12:40Z</time>
      </trkpt>
      <trkpt lat="44.00185" lon="7.55306">
        <ele>426</ele>
        <time>2017-09-17T11:12:41Z</time>
      </trkpt>
      <trkpt lat="44.0019" lon="7.55309">
        <ele>426</ele>
        <time>2017-09-17T11:12:42Z</time>
      </trkpt>
      <trkpt lat="44.00195" lon="7.55313">
        <ele>426</ele>
        <time>2017-09-17T11:12:43Z</time>
      </trkpt>
      <trkpt lat="44.002" lon="7.55317">
        <ele>426</ele>
        <time>2017-09-17T11:12:44Z</time>
      </trkpt>
      <trkpt lat="44.00205" lon="7.5532">
        <ele>426</ele>
        <time>2017-09-17T11:12:45Z</time>
      </trkpt>
      <trkpt lat="44.0021" lon="7.55323">
        <ele>426</ele>
        <time>2017-09-17T11:12:46Z</time>
      </trkpt>
      <trkpt lat="44.00215" lon="7.55326">
        <ele>427</ele>
        <time>2017-09-17T11:12:47Z</time>
      </trkpt>
      <trkpt lat="44.00221" lon="7.5533">
        <ele>427</ele>
        <time>2017-09-17T11:12:48Z</time>
      </trkpt>
      <trkpt lat="44.00226" lon="7.55333">
        <ele>427</ele>
        <time>2017-09-17T11:12:49Z</time>
      </trkpt>
      <trkpt lat="44.00231" lon="7.55336">
        <ele>427</ele>
        <time>2017-09-17T11:12:50Z</time>
      </trkpt>
      <trkpt lat="44.00235" lon="7.5534">
        <ele>427</ele>
        <time>2017-09-17T11:12:51Z</time>
      </trkpt>
      <trkpt lat="44.0024" lon="7.55343">
        <ele>427</ele>
        <time>2017-09-17T11:12:52Z</time>
      </trkpt>
      <trkpt lat="44.00244" lon="7.55346">
        <ele>426</ele>
        <time>2017-09-17T11:12:53Z</time>
      </trkpt>
      <trkpt lat="44.00247" lon="7.55349">
        <ele>426</ele>
        <time>2017-09-17T11:12:54Z</time>
      </trkpt>
      <trkpt lat="44.0025" lon="7.55352">
        <ele>426</ele>
        <time>2017-09-17T11:12:55Z</time>
      </trkpt>
      <trkpt lat="44.00253" lon="7.55354">
        <ele>426</ele>
        <time>2017-09-17T11:12:56Z</time>
      </trkpt>
      <trkpt lat="44.00255" lon="7.55355">
        <ele>426</ele>
        <time>2017-09-17T11:12:57Z</time>
      </trkpt>
      <trkpt lat="44.00257" lon="7.55356">
        <ele>426</ele>
        <time>2017-09-17T11:12:58Z</time>
      </trkpt>
      <trkpt lat="44.00258" lon="7.55358">
        <ele>426</ele>
        <time>2017-09-17T11:12:59Z</time>
      </trkpt>
      <trkpt lat="44.00259" lon="7.55359">
        <ele>426</ele>
        <time>2017-09-17T11:13:00Z</time>
      </trkpt>
      <trkpt lat="44.00261" lon="7.55361">
        <ele>427</ele>
        <time>2017-09-17T11:13:01Z</time>
      </trkpt>
      <trkpt lat="44.00263" lon="7.55362">
        <ele>427</ele>
        <time>2017-09-17T11:13:02Z</time>
      </trkpt>
      <trkpt lat="44.00265" lon="7.55363">
        <ele>427</ele>
        <time>2017-09-17T11:13:03Z</time>
      </trkpt>
      <trkpt lat="44.00267" lon="7.55366">
        <ele>427</ele>
        <time>2017-09-17T11:13:04Z</time>
      </trkpt>
      <trkpt lat="44.0027" lon="7.55369">
        <ele>427</ele>
        <time>2017-09-17T11:13:05Z</time>
      </trkpt>
      <trkpt lat="44.00274" lon="7.55371">
        <ele>427</ele>
        <time>2017-09-17T11:13:06Z</time>
      </trkpt>
      <trkpt lat="44.00279" lon="7.55373">
        <ele>427</ele>
        <time>2017-09-17T11:13:07Z</time>
      </trkpt>
      <trkpt lat="44.00284" lon="7.55375">
        <ele>427</ele>
        <time>2017-09-17T11:13:08Z</time>
      </trkpt>
      <trkpt lat="44.00289" lon="7.55377">
        <ele>427</ele>
        <time>2017-09-17T11:13:09Z</time>
      </trkpt>
      <trkpt lat="44.00294" lon="7.5538">
        <ele>428</ele>
        <time>2017-09-17T11:13:10Z</time>
      </trkpt>
      <trkpt lat="44.00299" lon="7.55384">
        <ele>428</ele>
        <time>2017-09-17T11:13:11Z</time>
      </trkpt>
      <trkpt lat="44.00304" lon="7.55387">
        <ele>428</ele>
        <time>2017-09-17T11:13:12Z</time>
      </trkpt>
      <trkpt lat="44.0031" lon="7.55391">
        <ele>428</ele>
        <time>2017-09-17T11:13:13Z</time>
      </trkpt>
      <trkpt lat="44.00316" lon="7.55395">
        <ele>428</ele>
        <time>2017-09-17T11:13:14Z</time>
      </trkpt>
      <trkpt lat="44.00323" lon="7.55399">
        <ele>429</ele>
        <time>2017-09-17T11:13:15Z</time>
      </trkpt>
      <trkpt lat="44.0033" lon="7.55403">
        <ele>429</ele>
        <time>2017-09-17T11:13:16Z</time>
      </trkpt>
      <trkpt lat="44.00336" lon="7.55406">
        <ele>429</ele>
        <time>2017-09-17T11:13:17Z</time>
      </trkpt>
      <trkpt lat="44.00343" lon="7.55409">
        <ele>430</ele>
        <time>2017-09-17T11:13:18Z</time>
      </trkpt>
      <trkpt lat="44.00349" lon="7.55411">
        <ele>430</ele>
        <time>2017-09-17T11:13:19Z</time>
      </trkpt>
      <trkpt lat="44.00356" lon="7.55414">
        <ele>430</ele>
        <time>2017-09-17T11:13:20Z</time>
      </trkpt>
      <trkpt lat="44.00363" lon="7.55417">
        <ele>431</ele>
        <time>2017-09-17T11:13:21Z</time>
      </trkpt>
      <trkpt lat="44.00369" lon="7.5542">
        <ele>431</ele>
        <time>2017-09-17T11:13:22Z</time>
      </trkpt>
      <trkpt lat="44.00376" lon="7.55422">
        <ele>432</ele>
        <time>2017-09-17T11:13:23Z</time>
      </trkpt>
      <trkpt lat="44.00383" lon="7.55425">
        <ele>432</ele>
        <time>2017-09-17T11:13:24Z</time>
      </trkpt>
      <trkpt lat="44.0039" lon="7.55428">
        <ele>433</ele>
        <time>2017-09-17T11:13:25Z</time>
      </trkpt>
      <trkpt lat="44.00396" lon="7.55431">
        <ele>433</ele>
        <time>2017-09-17T11:13:26Z</time>
      </trkpt>
      <trkpt lat="44.00403" lon="7.55434">
        <ele>434</ele>
        <time>2017-09-17T11:13:27Z</time>
      </trkpt>
      <trkpt lat="44.00409" lon="7.55437">
        <ele>434</ele>
        <time>2017-09-17T11:13:28Z</time>
      </trkpt>
      <trkpt lat="44.00416" lon="7.55438">
        <ele>435</ele>
        <time>2017-09-17T11:13:29Z</time>
      </trkpt>
      <trkpt lat="44.00422" lon="7.5544">
        <ele>435</ele>
        <time>2017-09-17T11:13:30Z</time>
      </trkpt>
      <trkpt lat="44.00429" lon="7.55441">
        <ele>436</ele>
        <time>2017-09-17T11:13:31Z</time>
      </trkpt>
      <trkpt lat="44.00435" lon="7.55442">
        <ele>436</ele>
        <time>2017-09-17T11:13:32Z</time>
      </trkpt>
      <trkpt lat="44.00441" lon="7.55444">
        <ele>437</ele>
        <time>2017-09-17T11:13:33Z</time>
      </trkpt>
      <trkpt lat="44.00448" lon="7.55445">
        <ele>437</ele>
        <time>2017-09-17T11:13:34Z</time>
      </trkpt>
      <trkpt lat="44.00455" lon="7.55447">
        <ele>437</ele>
        <time>2017-09-17T11:13:35Z</time>
      </trkpt>
      <trkpt lat="44.00461" lon="7.55449">
        <ele>438</ele>
        <time>2017-09-17T11:13:36Z</time>
      </trkpt>
      <trkpt lat="44.00461" lon="7.55449">
        <ele>438</ele>
        <time>2017-09-17T11:13:38Z</time>
      </trkpt>
      <trkpt lat="44.00461" lon="7.55449">
        <ele>438</ele>
        <time>2017-09-17T11:13:39Z</time>
      </trkpt>
      <trkpt lat="44.00487" lon="7.55458">
        <ele>438</ele>
        <time>2017-09-17T11:13:40Z</time>
      </trkpt>
      <trkpt lat="44.00493" lon="7.5546">
        <ele>438</ele>
        <time>2017-09-17T11:13:41Z</time>
      </trkpt>
      <trkpt lat="44.005" lon="7.55463">
        <ele>438</ele>
        <time>2017-09-17T11:13:42Z</time>
      </trkpt>
      <trkpt lat="44.00506" lon="7.55465">
        <ele>438</ele>
        <time>2017-09-17T11:13:43Z</time>
      </trkpt>
      <trkpt lat="44.00512" lon="7.55468">
        <ele>438</ele>
        <time>2017-09-17T11:13:44Z</time>
      </trkpt>
      <trkpt lat="44.00519" lon="7.5547">
        <ele>438</ele>
        <time>2017-09-17T11:13:45Z</time>
      </trkpt>
      <trkpt lat="44.00525" lon="7.55472">
        <ele>438</ele>
        <time>2017-09-17T11:13:46Z</time>
      </trkpt>
      <trkpt lat="44.00531" lon="7.55474">
        <ele>438</ele>
        <time>2017-09-17T11:13:47Z</time>
      </trkpt>
      <trkpt lat="44.00538" lon="7.55476">
        <ele>438</ele>
        <time>2017-09-17T11:13:48Z</time>
      </trkpt>
      <trkpt lat="44.00544" lon="7.55477">
        <ele>438</ele>
        <time>2017-09-17T11:13:49Z</time>
      </trkpt>
      <trkpt lat="44.0055" lon="7.55479">
        <ele>438</ele>
        <time>2017-09-17T11:13:50Z</time>
      </trkpt>
      <trkpt lat="44.00556" lon="7.55481">
        <ele>438</ele>
        <time>2017-09-17T11:13:51Z</time>
      </trkpt>
      <trkpt lat="44.00562" lon="7.55483">
        <ele>438</ele>
        <time>2017-09-17T11:13:52Z</time>
      </trkpt>
      <trkpt lat="44.00568" lon="7.55485">
        <ele>438</ele>
        <time>2017-09-17T11:13:53Z</time>
      </trkpt>
      <trkpt lat="44.00574" lon="7.55487">
        <ele>438</ele>
        <time>2017-09-17T11:13:54Z</time>
      </trkpt>
      <trkpt lat="44.0058" lon="7.55489">
        <ele>439</ele>
        <time>2017-09-17T11:13:55Z</time>
      </trkpt>
      <trkpt lat="44.00586" lon="7.55491">
        <ele>439</ele>
        <time>2017-09-17T11:13:56Z</time>
      </trkpt>
      <trkpt lat="44.00592" lon="7.55493">
        <ele>439</ele>
        <time>2017-09-17T11:13:57Z</time>
      </trkpt>
      <trkpt lat="44.00597" lon="7.55495">
        <ele>439</ele>
        <time>2017-09-17T11:13:58Z</time>
      </trkpt>
      <trkpt lat="44.00603" lon="7.55497">
        <ele>439</ele>
        <time>2017-09-17T11:13:59Z</time>
      </trkpt>
      <trkpt lat="44.00608" lon="7.55499">
        <ele>440</ele>
        <time>2017-09-17T11:14:00Z</time>
      </trkpt>
      <trkpt lat="44.00613" lon="7.55502">
        <ele>440</ele>
        <time>2017-09-17T11:14:01Z</time>
      </trkpt>
      <trkpt lat="44.00616" lon="7.55507">
        <ele>440</ele>
        <time>2017-09-17T11:14:02Z</time>
      </trkpt>
      <trkpt lat="44.00619" lon="7.55511">
        <ele>441</ele>
        <time>2017-09-17T11:14:03Z</time>
      </trkpt>
      <trkpt lat="44.0062" lon="7.55517">
        <ele>441</ele>
        <time>2017-09-17T11:14:04Z</time>
      </trkpt>
      <trkpt lat="44.00622" lon="7.55521">
        <ele>441</ele>
        <time>2017-09-17T11:14:05Z</time>
      </trkpt>
      <trkpt lat="44.00623" lon="7.55523">
        <ele>441</ele>
        <time>2017-09-17T11:14:06Z</time>
      </trkpt>
      <trkpt lat="44.00623" lon="7.55523">
        <ele>441</ele>
        <time>2017-09-17T11:14:07Z</time>
      </trkpt>
      <trkpt lat="44.00623" lon="7.55523">
        <ele>441</ele>
        <time>2017-09-17T11:14:08Z</time>
      </trkpt>
      <trkpt lat="44.00623" lon="7.55523">
        <ele>441</ele>
        <time>2017-09-17T11:14:09Z</time>
      </trkpt>
      <trkpt lat="44.00623" lon="7.55523">
        <ele>441</ele>
        <time>2017-09-17T11:14:10Z</time>
      </trkpt>
      <trkpt lat="44.00623" lon="7.55523">
        <ele>441</ele>
        <time>2017-09-17T11:14:11Z</time>
      </trkpt>
      <trkpt lat="44.00623" lon="7.55523">
        <ele>440</ele>
        <time>2017-09-17T11:14:12Z</time>
      </trkpt>
      <trkpt lat="44.00623" lon="7.55523">
        <ele>440</ele>
        <time>2017-09-17T11:14:13Z</time>
      </trkpt>
      <trkpt lat="44.00623" lon="7.55523">
        <ele>440</ele>
        <time>2017-09-17T11:14:14Z</time>
      </trkpt>
      <trkpt lat="44.00623" lon="7.55523">
        <ele>440</ele>
        <time>2017-09-17T11:14:15Z</time>
      </trkpt>
      <trkpt lat="44.00623" lon="7.55523">
        <ele>440</ele>
        <time>2017-09-17T11:14:16Z</time>
      </trkpt>
      <trkpt lat="44.00623" lon="7.55523">
        <ele>440</ele>
        <time>2017-09-17T11:14:17Z</time>
      </trkpt>
      <trkpt lat="44.00623" lon="7.55523">
        <ele>440</ele>
        <time>2017-09-17T11:14:18Z</time>
      </trkpt>
      <trkpt lat="44.00623" lon="7.55523">
        <ele>440</ele>
        <time>2017-09-17T11:14:19Z</time>
      </trkpt>
      <trkpt lat="44.00623" lon="7.55523">
        <ele>440</ele>
        <time>2017-09-17T11:14:20Z</time>
      </trkpt>
      <trkpt lat="44.00623" lon="7.55523">
        <ele>440</ele>
        <time>2017-09-17T11:14:21Z</time>
      </trkpt>
      <trkpt lat="44.00623" lon="7.55523">
        <ele>440</ele>
        <time>2017-09-17T11:14:22Z</time>
      </trkpt>
      <trkpt lat="44.00623" lon="7.55523">
        <ele>440</ele>
        <time>2017-09-17T11:14:23Z</time>
      </trkpt>
      <trkpt lat="44.00623" lon="7.55524">
        <ele>440</ele>
        <time>2017-09-17T11:14:24Z</time>
      </trkpt>
      <trkpt lat="44.00623" lon="7.55523">
        <ele>440</ele>
        <time>2017-09-17T11:14:25Z</time>
      </trkpt>
      <trkpt lat="44.00623" lon="7.55523">
        <ele>440</ele>
        <time>2017-09-17T11:14:26Z</time>
      </trkpt>
      <trkpt lat="44.00623" lon="7.55523">
        <ele>439</ele>
        <time>2017-09-17T11:14:27Z</time>
      </trkpt>
      <trkpt lat="44.00623" lon="7.55523">
        <ele>439</ele>
        <time>2017-09-17T11:14:28Z</time>
      </trkpt>
      <trkpt lat="44.00623" lon="7.55523">
        <ele>439</ele>
        <time>2017-09-17T11:14:29Z</time>
      </trkpt>
      <trkpt lat="44.00623" lon="7.55523">
        <ele>439</ele>
        <time>2017-09-17T11:14:30Z</time>
      </trkpt>
      <trkpt lat="44.00623" lon="7.55523">
        <ele>439</ele>
        <time>2017-09-17T11:14:31Z</time>
      </trkpt>
      <trkpt lat="44.00623" lon="7.55523">
        <ele>439</ele>
        <time>2017-09-17T11:14:32Z</time>
      </trkpt>
      <trkpt lat="44.00623" lon="7.55523">
        <ele>439</ele>
        <time>2017-09-17T11:14:33Z</time>
      </trkpt>
      <trkpt lat="44.00623" lon="7.55523">
        <ele>439</ele>
        <time>2017-09-17T11:14:34Z</time>
      </trkpt>
      <trkpt lat="44.00623" lon="7.55523">
        <ele>439</ele>
        <time>2017-09-17T11:14:35Z</time>
      </trkpt>
      <trkpt lat="44.00623" lon="7.55523">
        <ele>439</ele>
        <time>2017-09-17T11:14:36Z</time>
      </trkpt>
      <trkpt lat="44.00623" lon="7.55523">
        <ele>439</ele>
        <time>2017-09-17T11:14:37Z</time>
      </trkpt>
      <trkpt lat="44.00623" lon="7.55523">
        <ele>439</ele>
        <time>2017-09-17T11:14:38Z</time>
      </trkpt>
      <trkpt lat="44.00623" lon="7.55523">
        <ele>439</ele>
        <time>2017-09-17T11:14:39Z</time>
      </trkpt>
      <trkpt lat="44.00623" lon="7.55523">
        <ele>439</ele>
        <time>2017-09-17T11:14:40Z</time>
      </trkpt>
      <trkpt lat="44.00623" lon="7.55523">
        <ele>438</ele>
        <time>2017-09-17T11:14:41Z</time>
      </trkpt>
      <trkpt lat="44.00623" lon="7.55523">
        <ele>438</ele>
        <time>2017-09-17T11:14:42Z</time>
      </trkpt>
      <trkpt lat="44.00623" lon="7.55523">
        <ele>438</ele>
        <time>2017-09-17T11:14:43Z</time>
      </trkpt>
      <trkpt lat="44.00623" lon="7.55523">
        <ele>438</ele>
        <time>2017-09-17T11:14:44Z</time>
      </trkpt>
      <trkpt lat="44.00623" lon="7.55523">
        <ele>438</ele>
        <time>2017-09-17T11:14:45Z</time>
      </trkpt>
      <trkpt lat="44.00623" lon="7.55523">
        <ele>438</ele>
        <time>2017-09-17T11:14:46Z</time>
      </trkpt>
      <trkpt lat="44.00623" lon="7.55523">
        <ele>438</ele>
        <time>2017-09-17T11:14:47Z</time>
      </trkpt>
      <trkpt lat="44.00623" lon="7.55523">
        <ele>438</ele>
        <time>2017-09-17T11:14:48Z</time>
      </trkpt>
      <trkpt lat="44.00623" lon="7.55523">
        <ele>438</ele>
        <time>2017-09-17T11:14:49Z</time>
      </trkpt>
      <trkpt lat="44.00623" lon="7.55523">
        <ele>438</ele>
        <time>2017-09-17T11:14:50Z</time>
      </trkpt>
      <trkpt lat="44.00623" lon="7.55523">
        <ele>438</ele>
        <time>2017-09-17T11:14:51Z</time>
      </trkpt>
      <trkpt lat="44.00623" lon="7.55523">
        <ele>438</ele>
        <time>2017-09-17T11:14:52Z</time>
      </trkpt>
      <trkpt lat="44.00623" lon="7.55523">
        <ele>438</ele>
        <time>2017-09-17T11:14:53Z</time>
      </trkpt>
      <trkpt lat="44.00623" lon="7.55523">
        <ele>437</ele>
        <time>2017-09-17T11:14:54Z</time>
      </trkpt>
      <trkpt lat="44.00623" lon="7.55523">
        <ele>437</ele>
        <time>2017-09-17T11:14:55Z</time>
      </trkpt>
      <trkpt lat="44.00623" lon="7.55523">
        <ele>437</ele>
        <time>2017-09-17T11:14:56Z</time>
      </trkpt>
      <trkpt lat="44.00623" lon="7.55523">
        <ele>437</ele>
        <time>2017-09-17T11:14:57Z</time>
      </trkpt>
      <trkpt lat="44.00623" lon="7.55523">
        <ele>437</ele>
        <time>2017-09-17T11:14:58Z</time>
      </trkpt>
      <trkpt lat="44.00623" lon="7.55523">
        <ele>437</ele>
        <time>2017-09-17T11:14:59Z</time>
      </trkpt>
      <trkpt lat="44.00623" lon="7.55523">
        <ele>437</ele>
        <time>2017-09-17T11:15:00Z</time>
      </trkpt>
      <trkpt lat="44.00624" lon="7.55524">
        <ele>437</ele>
        <time>2017-09-17T11:15:01Z</time>
      </trkpt>
      <trkpt lat="44.00623" lon="7.55523">
        <ele>437</ele>
        <time>2017-09-17T11:15:02Z</time>
      </trkpt>
      <trkpt lat="44.00624" lon="7.55523">
        <ele>437</ele>
        <time>2017-09-17T11:15:03Z</time>
      </trkpt>
      <trkpt lat="44.00624" lon="7.55524">
        <ele>437</ele>
        <time>2017-09-17T11:15:04Z</time>
      </trkpt>
      <trkpt lat="44.00624" lon="7.55523">
        <ele>437</ele>
        <time>2017-09-17T11:15:05Z</time>
      </trkpt>
      <trkpt lat="44.00624" lon="7.55523">
        <ele>437</ele>
        <time>2017-09-17T11:15:06Z</time>
      </trkpt>
      <trkpt lat="44.00624" lon="7.55524">
        <ele>437</ele>
        <time>2017-09-17T11:15:07Z</time>
      </trkpt>
      <trkpt lat="44.00624" lon="7.55523">
        <ele>437</ele>
        <time>2017-09-17T11:15:08Z</time>
      </trkpt>
      <trkpt lat="44.00624" lon="7.55523">
        <ele>437</ele>
        <time>2017-09-17T11:15:09Z</time>
      </trkpt>
      <trkpt lat="44.00624" lon="7.55523">
        <ele>437</ele>
        <time>2017-09-17T11:15:10Z</time>
      </trkpt>
      <trkpt lat="44.00624" lon="7.55523">
        <ele>437</ele>
        <time>2017-09-17T11:15:11Z</time>
      </trkpt>
      <trkpt lat="44.00624" lon="7.55523">
        <ele>437</ele>
        <time>2017-09-17T11:15:12Z</time>
      </trkpt>
      <trkpt lat="44.00624" lon="7.55522">
        <ele>437</ele>
        <time>2017-09-17T11:15:13Z</time>
      </trkpt>
      <trkpt lat="44.00624" lon="7.55522">
        <ele>437</ele>
        <time>2017-09-17T11:15:14Z</time>
      </trkpt>
      <trkpt lat="44.00624" lon="7.55522">
        <ele>437</ele>
        <time>2017-09-17T11:15:15Z</time>
      </trkpt>
      <trkpt lat="44.00625" lon="7.55522">
        <ele>437</ele>
        <time>2017-09-17T11:15:16Z</time>
      </trkpt>
      <trkpt lat="44.00625" lon="7.55522">
        <ele>437</ele>
        <time>2017-09-17T11:15:17Z</time>
      </trkpt>
      <trkpt lat="44.00625" lon="7.55522">
        <ele>437</ele>
        <time>2017-09-17T11:15:18Z</time>
      </trkpt>
      <trkpt lat="44.00625" lon="7.55522">
        <ele>437</ele>
        <time>2017-09-17T11:15:19Z</time>
      </trkpt>
      <trkpt lat="44.00625" lon="7.55521">
        <ele>437</ele>
        <time>2017-09-17T11:15:20Z</time>
      </trkpt>
      <trkpt lat="44.00625" lon="7.55521">
        <ele>437</ele>
        <time>2017-09-17T11:15:21Z</time>
      </trkpt>
      <trkpt lat="44.00624" lon="7.5552">
        <ele>438</ele>
        <time>2017-09-17T11:15:22Z</time>
      </trkpt>
      <trkpt lat="44.00623" lon="7.5552">
        <ele>438</ele>
        <time>2017-09-17T11:15:23Z</time>
      </trkpt>
      <trkpt lat="44.00623" lon="7.55519">
        <ele>438</ele>
        <time>2017-09-17T11:15:24Z</time>
      </trkpt>
      <trkpt lat="44.00623" lon="7.55519">
        <ele>438</ele>
        <time>2017-09-17T11:15:25Z</time>
      </trkpt>
      <trkpt lat="44.00624" lon="7.5552">
        <ele>438</ele>
        <time>2017-09-17T11:15:26Z</time>
      </trkpt>
      <trkpt lat="44.00624" lon="7.5552">
        <ele>438</ele>
        <time>2017-09-17T11:15:27Z</time>
      </trkpt>
      <trkpt lat="44.00624" lon="7.5552">
        <ele>438</ele>
        <time>2017-09-17T11:15:28Z</time>
      </trkpt>
      <trkpt lat="44.00624" lon="7.5552">
        <ele>438</ele>
        <time>2017-09-17T11:15:29Z</time>
      </trkpt>
      <trkpt lat="44.00624" lon="7.5552">
        <ele>438</ele>
        <time>2017-09-17T11:15:30Z</time>
      </trkpt>
      <trkpt lat="44.00624" lon="7.5552">
        <ele>438</ele>
        <time>2017-09-17T11:15:31Z</time>
      </trkpt>
      <trkpt lat="44.00624" lon="7.5552">
        <ele>438</ele>
        <time>2017-09-17T11:15:32Z</time>
      </trkpt>
      <trkpt lat="44.00624" lon="7.5552">
        <ele>438</ele>
        <time>2017-09-17T11:15:33Z</time>
      </trkpt>
      <trkpt lat="44.00624" lon="7.5552">
        <ele>438</ele>
        <time>2017-09-17T11:15:34Z</time>
      </trkpt>
      <trkpt lat="44.00624" lon="7.5552">
        <ele>438</ele>
        <time>2017-09-17T11:15:35Z</time>
      </trkpt>
      <trkpt lat="44.00624" lon="7.55519">
        <ele>439</ele>
        <time>2017-09-17T11:15:36Z</time>
      </trkpt>
      <trkpt lat="44.00624" lon="7.55519">
        <ele>439</ele>
        <time>2017-09-17T11:15:37Z</time>
      </trkpt>
      <trkpt lat="44.00624" lon="7.55519">
        <ele>439</ele>
        <time>2017-09-17T11:15:38Z</time>
      </trkpt>
      <trkpt lat="44.00624" lon="7.55519">
        <ele>439</ele>
        <time>2017-09-17T11:15:39Z</time>
      </trkpt>
      <trkpt lat="44.00624" lon="7.5552">
        <ele>439</ele>
        <time>2017-09-17T11:15:40Z</time>
      </trkpt>
      <trkpt lat="44.00624" lon="7.55521">
        <ele>439</ele>
        <time>2017-09-17T11:15:41Z</time>
      </trkpt>
      <trkpt lat="44.00624" lon="7.55522">
        <ele>439</ele>
        <time>2017-09-17T11:15:42Z</time>
      </trkpt>
      <trkpt lat="44.00624" lon="7.55522">
        <ele>439</ele>
        <time>2017-09-17T11:15:43Z</time>
      </trkpt>
      <trkpt lat="44.00624" lon="7.55522">
        <ele>439</ele>
        <time>2017-09-17T11:15:44Z</time>
      </trkpt>
      <trkpt lat="44.00624" lon="7.55522">
        <ele>439</ele>
        <time>2017-09-17T11:15:45Z</time>
      </trkpt>
      <trkpt lat="44.00624" lon="7.55522">
        <ele>440</ele>
        <time>2017-09-17T11:15:46Z</time>
      </trkpt>
      <trkpt lat="44.00624" lon="7.55521">
        <ele>440</ele>
        <time>2017-09-17T11:15:47Z</time>
      </trkpt>
      <trkpt lat="44.00624" lon="7.55521">
        <ele>440</ele>
        <time>2017-09-17T11:15:48Z</time>
      </trkpt>
      <trkpt lat="44.00624" lon="7.55521">
        <ele>440</ele>
        <time>2017-09-17T11:15:49Z</time>
      </trkpt>
      <trkpt lat="44.00624" lon="7.55521">
        <ele>440</ele>
        <time>2017-09-17T11:15:50Z</time>
      </trkpt>
      <trkpt lat="44.00624" lon="7.5552">
        <ele>440</ele>
        <time>2017-09-17T11:15:51Z</time>
      </trkpt>
      <trkpt lat="44.00624" lon="7.5552">
        <ele>440</ele>
        <time>2017-09-17T11:15:52Z</time>
      </trkpt>
      <trkpt lat="44.00624" lon="7.5552">
        <ele>440</ele>
        <time>2017-09-17T11:15:53Z</time>
      </trkpt>
      <trkpt lat="44.00624" lon="7.5552">
        <ele>440</ele>
        <time>2017-09-17T11:15:54Z</time>
      </trkpt>
      <trkpt lat="44.00624" lon="7.5552">
        <ele>440</ele>
        <time>2017-09-17T11:15:55Z</time>
      </trkpt>
      <trkpt lat="44.00624" lon="7.5552">
        <ele>441</ele>
        <time>2017-09-17T11:15:56Z</time>
      </trkpt>
      <trkpt lat="44.00624" lon="7.5552">
        <ele>441</ele>
        <time>2017-09-17T11:15:57Z</time>
      </trkpt>
      <trkpt lat="44.00624" lon="7.5552">
        <ele>441</ele>
        <time>2017-09-17T11:15:58Z</time>
      </trkpt>
      <trkpt lat="44.00624" lon="7.5552">
        <ele>441</ele>
        <time>2017-09-17T11:15:59Z</time>
      </trkpt>
      <trkpt lat="44.00624" lon="7.5552">
        <ele>441</ele>
        <time>2017-09-17T11:16:00Z</time>
      </trkpt>
      <trkpt lat="44.00624" lon="7.55519">
        <ele>442</ele>
        <time>2017-09-17T11:16:01Z</time>
      </trkpt>
      <trkpt lat="44.00624" lon="7.55519">
        <ele>442</ele>
        <time>2017-09-17T11:16:02Z</time>
      </trkpt>
      <trkpt lat="44.00624" lon="7.55519">
        <ele>442</ele>
        <time>2017-09-17T11:16:03Z</time>
      </trkpt>
      <trkpt lat="44.00624" lon="7.55518">
        <ele>442</ele>
        <time>2017-09-17T11:16:04Z</time>
      </trkpt>
      <trkpt lat="44.00624" lon="7.55518">
        <ele>442</ele>
        <time>2017-09-17T11:16:05Z</time>
      </trkpt>
      <trkpt lat="44.00624" lon="7.55518">
        <ele>442</ele>
        <time>2017-09-17T11:16:06Z</time>
      </trkpt>
      <trkpt lat="44.00624" lon="7.55518">
        <ele>442</ele>
        <time>2017-09-17T11:16:07Z</time>
      </trkpt>
      <trkpt lat="44.00624" lon="7.55518">
        <ele>442</ele>
        <time>2017-09-17T11:16:08Z</time>
      </trkpt>
      <trkpt lat="44.00624" lon="7.55518">
        <ele>443</ele>
        <time>2017-09-17T11:16:09Z</time>
      </trkpt>
      <trkpt lat="44.00623" lon="7.55518">
        <ele>443</ele>
        <time>2017-09-17T11:16:10Z</time>
      </trkpt>
      <trkpt lat="44.00623" lon="7.55519">
        <ele>443</ele>
        <time>2017-09-17T11:16:11Z</time>
      </trkpt>
      <trkpt lat="44.00623" lon="7.55518">
        <ele>443</ele>
        <time>2017-09-17T11:16:12Z</time>
      </trkpt>
      <trkpt lat="44.00623" lon="7.55518">
        <ele>443</ele>
        <time>2017-09-17T11:16:13Z</time>
      </trkpt>
      <trkpt lat="44.00623" lon="7.55518">
        <ele>444</ele>
        <time>2017-09-17T11:16:14Z</time>
      </trkpt>
      <trkpt lat="44.00623" lon="7.55518">
        <ele>444</ele>
        <time>2017-09-17T11:16:15Z</time>
      </trkpt>
      <trkpt lat="44.00623" lon="7.55517">
        <ele>444</ele>
        <time>2017-09-17T11:16:16Z</time>
      </trkpt>
      <trkpt lat="44.00623" lon="7.55517">
        <ele>444</ele>
        <time>2017-09-17T11:16:17Z</time>
      </trkpt>
      <trkpt lat="44.00623" lon="7.55517">
        <ele>444</ele>
        <time>2017-09-17T11:16:18Z</time>
      </trkpt>
      <trkpt lat="44.00623" lon="7.55517">
        <ele>444</ele>
        <time>2017-09-17T11:16:19Z</time>
      </trkpt>
      <trkpt lat="44.00623" lon="7.55517">
        <ele>444</ele>
        <time>2017-09-17T11:16:20Z</time>
      </trkpt>
      <trkpt lat="44.00623" lon="7.55517">
        <ele>444</ele>
        <time>2017-09-17T11:16:21Z</time>
      </trkpt>
      <trkpt lat="44.00623" lon="7.55517">
        <ele>444</ele>
        <time>2017-09-17T11:16:22Z</time>
      </trkpt>
      <trkpt lat="44.00623" lon="7.55517">
        <ele>444</ele>
        <time>2017-09-17T11:16:23Z</time>
      </trkpt>
      <trkpt lat="44.00623" lon="7.55517">
        <ele>445</ele>
        <time>2017-09-17T11:16:24Z</time>
      </trkpt>
      <trkpt lat="44.00623" lon="7.55517">
        <ele>445</ele>
        <time>2017-09-17T11:16:25Z</time>
      </trkpt>
      <trkpt lat="44.00623" lon="7.55518">
        <ele>445</ele>
        <time>2017-09-17T11:16:26Z</time>
      </trkpt>
      <trkpt lat="44.00622" lon="7.55518">
        <ele>445</ele>
        <time>2017-09-17T11:16:27Z</time>
      </trkpt>
      <trkpt lat="44.00623" lon="7.55518">
        <ele>444</ele>
        <time>2017-09-17T11:16:28Z</time>
      </trkpt>
      <trkpt lat="44.00623" lon="7.55518">
        <ele>444</ele>
        <time>2017-09-17T11:16:29Z</time>
      </trkpt>
      <trkpt lat="44.00623" lon="7.55518">
        <ele>444</ele>
        <time>2017-09-17T11:16:30Z</time>
      </trkpt>
      <trkpt lat="44.00623" lon="7.55517">
        <ele>444</ele>
        <time>2017-09-17T11:16:31Z</time>
      </trkpt>
      <trkpt lat="44.00624" lon="7.55517">
        <ele>443</ele>
        <time>2017-09-17T11:16:32Z</time>
      </trkpt>
      <trkpt lat="44.00624" lon="7.55517">
        <ele>443</ele>
        <time>2017-09-17T11:16:33Z</time>
      </trkpt>
      <trkpt lat="44.00624" lon="7.55517">
        <ele>443</ele>
        <time>2017-09-17T11:16:34Z</time>
      </trkpt>
      <trkpt lat="44.00623" lon="7.55516">
        <ele>443</ele>
        <time>2017-09-17T11:16:35Z</time>
      </trkpt>
      <trkpt lat="44.00623" lon="7.55516">
        <ele>443</ele>
        <time>2017-09-17T11:16:36Z</time>
      </trkpt>
      <trkpt lat="44.00623" lon="7.55516">
        <ele>443</ele>
        <time>2017-09-17T11:16:37Z</time>
      </trkpt>
      <trkpt lat="44.00623" lon="7.55516">
        <ele>443</ele>
        <time>2017-09-17T11:16:38Z</time>
      </trkpt>
      <trkpt lat="44.00623" lon="7.55517">
        <ele>443</ele>
        <time>2017-09-17T11:16:39Z</time>
      </trkpt>
      <trkpt lat="44.00622" lon="7.55517">
        <ele>443</ele>
        <time>2017-09-17T11:16:40Z</time>
      </trkpt>
      <trkpt lat="44.00622" lon="7.55518">
        <ele>443</ele>
        <time>2017-09-17T11:16:41Z</time>
      </trkpt>
      <trkpt lat="44.00622" lon="7.55519">
        <ele>443</ele>
        <time>2017-09-17T11:16:42Z</time>
      </trkpt>
      <trkpt lat="44.00622" lon="7.55519">
        <ele>443</ele>
        <time>2017-09-17T11:16:43Z</time>
      </trkpt>
      <trkpt lat="44.00622" lon="7.55519">
        <ele>443</ele>
        <time>2017-09-17T11:16:44Z</time>
      </trkpt>
      <trkpt lat="44.00622" lon="7.55519">
        <ele>443</ele>
        <time>2017-09-17T11:16:45Z</time>
      </trkpt>
      <trkpt lat="44.00622" lon="7.55519">
        <ele>443</ele>
        <time>2017-09-17T11:16:46Z</time>
      </trkpt>
      <trkpt lat="44.00622" lon="7.55519">
        <ele>443</ele>
        <time>2017-09-17T11:16:47Z</time>
      </trkpt>
      <trkpt lat="44.00622" lon="7.55519">
        <ele>443</ele>
        <time>2017-09-17T11:16:48Z</time>
      </trkpt>
      <trkpt lat="44.00622" lon="7.55519">
        <ele>443</ele>
        <time>2017-09-17T11:16:49Z</time>
      </trkpt>
      <trkpt lat="44.00622" lon="7.55519">
        <ele>443</ele>
        <time>2017-09-17T11:16:50Z</time>
      </trkpt>
      <trkpt lat="44.00622" lon="7.55519">
        <ele>443</ele>
        <time>2017-09-17T11:16:51Z</time>
      </trkpt>
      <trkpt lat="44.00622" lon="7.5552">
        <ele>443</ele>
        <time>2017-09-17T11:16:52Z</time>
      </trkpt>
      <trkpt lat="44.00622" lon="7.5552">
        <ele>443</ele>
        <time>2017-09-17T11:16:53Z</time>
      </trkpt>
      <trkpt lat="44.00622" lon="7.5552">
        <ele>443</ele>
        <time>2017-09-17T11:16:54Z</time>
      </trkpt>
      <trkpt lat="44.00622" lon="7.5552">
        <ele>443</ele>
        <time>2017-09-17T11:16:55Z</time>
      </trkpt>
      <trkpt lat="44.00622" lon="7.5552">
        <ele>443</ele>
        <time>2017-09-17T11:16:56Z</time>
      </trkpt>
      <trkpt lat="44.00623" lon="7.55521">
        <ele>444</ele>
        <time>2017-09-17T11:16:57Z</time>
      </trkpt>
      <trkpt lat="44.00623" lon="7.55521">
        <ele>444</ele>
        <time>2017-09-17T11:16:58Z</time>
      </trkpt>
      <trkpt lat="44.00623" lon="7.55521">
        <ele>444</ele>
        <time>2017-09-17T11:16:59Z</time>
      </trkpt>
      <trkpt lat="44.00623" lon="7.55521">
        <ele>444</ele>
        <time>2017-09-17T11:17:00Z</time>
      </trkpt>
      <trkpt lat="44.00623" lon="7.55521">
        <ele>444</ele>
        <time>2017-09-17T11:17:01Z</time>
      </trkpt>
      <trkpt lat="44.00623" lon="7.55521">
        <ele>444</ele>
        <time>2017-09-17T11:17:02Z</time>
      </trkpt>
      <trkpt lat="44.00623" lon="7.55521">
        <ele>444</ele>
        <time>2017-09-17T11:17:03Z</time>
      </trkpt>
      <trkpt lat="44.00623" lon="7.55522">
        <ele>444</ele>
        <time>2017-09-17T11:17:04Z</time>
      </trkpt>
      <trkpt lat="44.00623" lon="7.55522">
        <ele>444</ele>
        <time>2017-09-17T11:17:05Z</time>
      </trkpt>
      <trkpt lat="44.00623" lon="7.55522">
        <ele>444</ele>
        <time>2017-09-17T11:17:06Z</time>
      </trkpt>
      <trkpt lat="44.00623" lon="7.55522">
        <ele>444</ele>
        <time>2017-09-17T11:17:07Z</time>
      </trkpt>
      <trkpt lat="44.00623" lon="7.55522">
        <ele>444</ele>
        <time>2017-09-17T11:17:08Z</time>
      </trkpt>
      <trkpt lat="44.00622" lon="7.55522">
        <ele>444</ele>
        <time>2017-09-17T11:17:09Z</time>
      </trkpt>
      <trkpt lat="44.00622" lon="7.55523">
        <ele>444</ele>
        <time>2017-09-17T11:17:10Z</time>
      </trkpt>
      <trkpt lat="44.00622" lon="7.55523">
        <ele>445</ele>
        <time>2017-09-17T11:17:11Z</time>
      </trkpt>
      <trkpt lat="44.00622" lon="7.55524">
        <ele>445</ele>
        <time>2017-09-17T11:17:12Z</time>
      </trkpt>
      <trkpt lat="44.00622" lon="7.55524">
        <ele>445</ele>
        <time>2017-09-17T11:17:13Z</time>
      </trkpt>
      <trkpt lat="44.00622" lon="7.55525">
        <ele>445</ele>
        <time>2017-09-17T11:17:14Z</time>
      </trkpt>
      <trkpt lat="44.00622" lon="7.55525">
        <ele>444</ele>
        <time>2017-09-17T11:17:15Z</time>
      </trkpt>
      <trkpt lat="44.00621" lon="7.55525">
        <ele>444</ele>
        <time>2017-09-17T11:17:16Z</time>
      </trkpt>
      <trkpt lat="44.00621" lon="7.55526">
        <ele>444</ele>
        <time>2017-09-17T11:17:17Z</time>
      </trkpt>
      <trkpt lat="44.00621" lon="7.55526">
        <ele>444</ele>
        <time>2017-09-17T11:17:18Z</time>
      </trkpt>
      <trkpt lat="44.00621" lon="7.55526">
        <ele>444</ele>
        <time>2017-09-17T11:17:19Z</time>
      </trkpt>
      <trkpt lat="44.00621" lon="7.55526">
        <ele>444</ele>
        <time>2017-09-17T11:17:20Z</time>
      </trkpt>
      <trkpt lat="44.00621" lon="7.55527">
        <ele>444</ele>
        <time>2017-09-17T11:17:21Z</time>
      </trkpt>
      <trkpt lat="44.00621" lon="7.55527">
        <ele>444</ele>
        <time>2017-09-17T11:17:22Z</time>
      </trkpt>
      <trkpt lat="44.00621" lon="7.55527">
        <ele>444</ele>
        <time>2017-09-17T11:17:23Z</time>
      </trkpt>
      <trkpt lat="44.00621" lon="7.55527">
        <ele>444</ele>
        <time>2017-09-17T11:17:24Z</time>
      </trkpt>
      <trkpt lat="44.00621" lon="7.55527">
        <ele>444</ele>
        <time>2017-09-17T11:17:25Z</time>
      </trkpt>
      <trkpt lat="44.00621" lon="7.55527">
        <ele>444</ele>
        <time>2017-09-17T11:17:26Z</time>
      </trkpt>
      <trkpt lat="44.00621" lon="7.55528">
        <ele>444</ele>
        <time>2017-09-17T11:17:27Z</time>
      </trkpt>
      <trkpt lat="44.00621" lon="7.55528">
        <ele>444</ele>
        <time>2017-09-17T11:17:28Z</time>
      </trkpt>
      <trkpt lat="44.00621" lon="7.55528">
        <ele>444</ele>
        <time>2017-09-17T11:17:29Z</time>
      </trkpt>
      <trkpt lat="44.00621" lon="7.55528">
        <ele>444</ele>
        <time>2017-09-17T11:17:30Z</time>
      </trkpt>
      <trkpt lat="44.00621" lon="7.55527">
        <ele>443</ele>
        <time>2017-09-17T11:17:31Z</time>
      </trkpt>
      <trkpt lat="44.00621" lon="7.55526">
        <ele>443</ele>
        <time>2017-09-17T11:17:32Z</time>
      </trkpt>
      <trkpt lat="44.00622" lon="7.55525">
        <ele>443</ele>
        <time>2017-09-17T11:17:33Z</time>
      </trkpt>
      <trkpt lat="44.00622" lon="7.55523">
        <ele>443</ele>
        <time>2017-09-17T11:17:34Z</time>
      </trkpt>
      <trkpt lat="44.00622" lon="7.55522">
        <ele>442</ele>
        <time>2017-09-17T11:17:35Z</time>
      </trkpt>
      <trkpt lat="44.00622" lon="7.55521">
        <ele>442</ele>
        <time>2017-09-17T11:17:36Z</time>
      </trkpt>
      <trkpt lat="44.00622" lon="7.5552">
        <ele>442</ele>
        <time>2017-09-17T11:17:37Z</time>
      </trkpt>
      <trkpt lat="44.00622" lon="7.55519">
        <ele>441</ele>
        <time>2017-09-17T11:17:38Z</time>
      </trkpt>
      <trkpt lat="44.00622" lon="7.55519">
        <ele>441</ele>
        <time>2017-09-17T11:17:39Z</time>
      </trkpt>
      <trkpt lat="44.00622" lon="7.55519">
        <ele>441</ele>
        <time>2017-09-17T11:17:40Z</time>
      </trkpt>
      <trkpt lat="44.00622" lon="7.5552">
        <ele>440</ele>
        <time>2017-09-17T11:17:41Z</time>
      </trkpt>
      <trkpt lat="44.00623" lon="7.55521">
        <ele>440</ele>
        <time>2017-09-17T11:17:42Z</time>
      </trkpt>
      <trkpt lat="44.00625" lon="7.55522">
        <ele>440</ele>
        <time>2017-09-17T11:17:43Z</time>
      </trkpt>
      <trkpt lat="44.00627" lon="7.55522">
        <ele>439</ele>
        <time>2017-09-17T11:17:44Z</time>
      </trkpt>
      <trkpt lat="44.00629" lon="7.55522">
        <ele>439</ele>
        <time>2017-09-17T11:17:45Z</time>
      </trkpt>
      <trkpt lat="44.0063" lon="7.5552">
        <ele>438</ele>
        <time>2017-09-17T11:17:46Z</time>
      </trkpt>
      <trkpt lat="44.00631" lon="7.55517">
        <ele>438</ele>
        <time>2017-09-17T11:17:47Z</time>
      </trkpt>
      <trkpt lat="44.00631" lon="7.55516">
        <ele>438</ele>
        <time>2017-09-17T11:17:48Z</time>
      </trkpt>
      <trkpt lat="44.00632" lon="7.55513">
        <ele>438</ele>
        <time>2017-09-17T11:17:49Z</time>
      </trkpt>
      <trkpt lat="44.00634" lon="7.55511">
        <ele>437</ele>
        <time>2017-09-17T11:17:50Z</time>
      </trkpt>
      <trkpt lat="44.00637" lon="7.55508">
        <ele>437</ele>
        <time>2017-09-17T11:17:51Z</time>
      </trkpt>
      <trkpt lat="44.00642" lon="7.55505">
        <ele>437</ele>
        <time>2017-09-17T11:17:52Z</time>
      </trkpt>
      <trkpt lat="44.00647" lon="7.55501">
        <ele>437</ele>
        <time>2017-09-17T11:17:53Z</time>
      </trkpt>
      <trkpt lat="44.00653" lon="7.55497">
        <ele>437</ele>
        <time>2017-09-17T11:17:54Z</time>
      </trkpt>
      <trkpt lat="44.0066" lon="7.55493">
        <ele>437</ele>
        <time>2017-09-17T11:17:55Z</time>
      </trkpt>
      <trkpt lat="44.00668" lon="7.55491">
        <ele>437</ele>
        <time>2017-09-17T11:17:56Z</time>
      </trkpt>
      <trkpt lat="44.00677" lon="7.5549">
        <ele>437</ele>
        <time>2017-09-17T11:17:57Z</time>
      </trkpt>
      <trkpt lat="44.00687" lon="7.5549">
        <ele>437</ele>
        <time>2017-09-17T11:17:58Z</time>
      </trkpt>
      <trkpt lat="44.00697" lon="7.55491">
        <ele>437</ele>
        <time>2017-09-17T11:17:59Z</time>
      </trkpt>
      <trkpt lat="44.00707" lon="7.55493">
        <ele>437</ele>
        <time>2017-09-17T11:18:00Z</time>
      </trkpt>
      <trkpt lat="44.00717" lon="7.55495">
        <ele>438</ele>
        <time>2017-09-17T11:18:01Z</time>
      </trkpt>
      <trkpt lat="44.00728" lon="7.55497">
        <ele>438</ele>
        <time>2017-09-17T11:18:02Z</time>
      </trkpt>
      <trkpt lat="44.0074" lon="7.55499">
        <ele>438</ele>
        <time>2017-09-17T11:18:03Z</time>
      </trkpt>
      <trkpt lat="44.00752" lon="7.55501">
        <ele>438</ele>
        <time>2017-09-17T11:18:04Z</time>
      </trkpt>
      <trkpt lat="44.00765" lon="7.55505">
        <ele>439</ele>
        <time>2017-09-17T11:18:05Z</time>
      </trkpt>
      <trkpt lat="44.00778" lon="7.55508">
        <ele>439</ele>
        <time>2017-09-17T11:18:06Z</time>
      </trkpt>
      <trkpt lat="44.00791" lon="7.55512">
        <ele>440</ele>
        <time>2017-09-17T11:18:07Z</time>
      </trkpt>
      <trkpt lat="44.00803" lon="7.55518">
        <ele>440</ele>
        <time>2017-09-17T11:18:08Z</time>
      </trkpt>
      <trkpt lat="44.00815" lon="7.55525">
        <ele>441</ele>
        <time>2017-09-17T11:18:09Z</time>
      </trkpt>
      <trkpt lat="44.00827" lon="7.55533">
        <ele>441</ele>
        <time>2017-09-17T11:18:10Z</time>
      </trkpt>
      <trkpt lat="44.00839" lon="7.55541">
        <ele>441</ele>
        <time>2017-09-17T11:18:11Z</time>
      </trkpt>
      <trkpt lat="44.00851" lon="7.55548">
        <ele>442</ele>
        <time>2017-09-17T11:18:12Z</time>
      </trkpt>
      <trkpt lat="44.00863" lon="7.55554">
        <ele>442</ele>
        <time>2017-09-17T11:18:13Z</time>
      </trkpt>
      <trkpt lat="44.00874" lon="7.5556">
        <ele>442</ele>
        <time>2017-09-17T11:18:14Z</time>
      </trkpt>
      <trkpt lat="44.00886" lon="7.55565">
        <ele>443</ele>
        <time>2017-09-17T11:18:15Z</time>
      </trkpt>
      <trkpt lat="44.00899" lon="7.5557">
        <ele>443</ele>
        <time>2017-09-17T11:18:16Z</time>
      </trkpt>
      <trkpt lat="44.00911" lon="7.55575">
        <ele>443</ele>
        <time>2017-09-17T11:18:17Z</time>
      </trkpt>
      <trkpt lat="44.00923" lon="7.55581">
        <ele>444</ele>
        <time>2017-09-17T11:18:18Z</time>
      </trkpt>
      <trkpt lat="44.00935" lon="7.55587">
        <ele>444</ele>
        <time>2017-09-17T11:18:19Z</time>
      </trkpt>
      <trkpt lat="44.00946" lon="7.55595">
        <ele>444</ele>
        <time>2017-09-17T11:18:20Z</time>
      </trkpt>
      <trkpt lat="44.00957" lon="7.55604">
        <ele>445</ele>
        <time>2017-09-17T11:18:21Z</time>
      </trkpt>
      <trkpt lat="44.00966" lon="7.55616">
        <ele>445</ele>
        <time>2017-09-17T11:18:22Z</time>
      </trkpt>
      <trkpt lat="44.00974" lon="7.5563">
        <ele>445</ele>
        <time>2017-09-17T11:18:23Z</time>
      </trkpt>
      <trkpt lat="44.00982" lon="7.55645">
        <ele>445</ele>
        <time>2017-09-17T11:18:24Z</time>
      </trkpt>
      <trkpt lat="44.00989" lon="7.55661">
        <ele>445</ele>
        <time>2017-09-17T11:18:25Z</time>
      </trkpt>
      <trkpt lat="44.00996" lon="7.55677">
        <ele>445</ele>
        <time>2017-09-17T11:18:26Z</time>
      </trkpt>
      <trkpt lat="44.01003" lon="7.55693">
        <ele>444</ele>
        <time>2017-09-17T11:18:27Z</time>
      </trkpt>
      <trkpt lat="44.01009" lon="7.55709">
        <ele>444</ele>
        <time>2017-09-17T11:18:28Z</time>
      </trkpt>
      <trkpt lat="44.01015" lon="7.55726">
        <ele>444</ele>
        <time>2017-09-17T11:18:29Z</time>
      </trkpt>
      <trkpt lat="44.01021" lon="7.55742">
        <ele>443</ele>
        <time>2017-09-17T11:18:30Z</time>
      </trkpt>
      <trkpt lat="44.01028" lon="7.55757">
        <ele>443</ele>
        <time>2017-09-17T11:18:31Z</time>
      </trkpt>
      <trkpt lat="44.01036" lon="7.5577">
        <ele>443</ele>
        <time>2017-09-17T11:18:32Z</time>
      </trkpt>
      <trkpt lat="44.01044" lon="7.55781">
        <ele>443</ele>
        <time>2017-09-17T11:18:33Z</time>
      </trkpt>
      <trkpt lat="44.01053" lon="7.5579">
        <ele>443</ele>
        <time>2017-09-17T11:18:34Z</time>
      </trkpt>
      <trkpt lat="44.01063" lon="7.55798">
        <ele>443</ele>
        <time>2017-09-17T11:18:35Z</time>
      </trkpt>
      <trkpt lat="44.01074" lon="7.55803">
        <ele>443</ele>
        <time>2017-09-17T11:18:36Z</time>
      </trkpt>
      <trkpt lat="44.01086" lon="7.55806">
        <ele>443</ele>
        <time>2017-09-17T11:18:37Z</time>
      </trkpt>
      <trkpt lat="44.01097" lon="7.55809">
        <ele>443</ele>
        <time>2017-09-17T11:18:38Z</time>
      </trkpt>
      <trkpt lat="44.01108" lon="7.5581">
        <ele>443</ele>
        <time>2017-09-17T11:18:39Z</time>
      </trkpt>
      <trkpt lat="44.01119" lon="7.5581">
        <ele>443</ele>
        <time>2017-09-17T11:18:40Z</time>
      </trkpt>
      <trkpt lat="44.01129" lon="7.55809">
        <ele>443</ele>
        <time>2017-09-17T11:18:41Z</time>
      </trkpt>
      <trkpt lat="44.01139" lon="7.55811">
        <ele>443</ele>
        <time>2017-09-17T11:18:42Z</time>
      </trkpt>
      <trkpt lat="44.01148" lon="7.55814">
        <ele>443</ele>
        <time>2017-09-17T11:18:43Z</time>
      </trkpt>
      <trkpt lat="44.01158" lon="7.5582">
        <ele>443</ele>
        <time>2017-09-17T11:18:44Z</time>
      </trkpt>
      <trkpt lat="44.01167" lon="7.55827">
        <ele>443</ele>
        <time>2017-09-17T11:18:45Z</time>
      </trkpt>
      <trkpt lat="44.01177" lon="7.55835">
        <ele>443</ele>
        <time>2017-09-17T11:18:46Z</time>
      </trkpt>
      <trkpt lat="44.01187" lon="7.55844">
        <ele>443</ele>
        <time>2017-09-17T11:18:47Z</time>
      </trkpt>
      <trkpt lat="44.01198" lon="7.55852">
        <ele>443</ele>
        <time>2017-09-17T11:18:48Z</time>
      </trkpt>
      <trkpt lat="44.0121" lon="7.5586">
        <ele>443</ele>
        <time>2017-09-17T11:18:49Z</time>
      </trkpt>
      <trkpt lat="44.01221" lon="7.55869">
        <ele>444</ele>
        <time>2017-09-17T11:18:50Z</time>
      </trkpt>
      <trkpt lat="44.01233" lon="7.55879">
        <ele>444</ele>
        <time>2017-09-17T11:18:51Z</time>
      </trkpt>
      <trkpt lat="44.01245" lon="7.55887">
        <ele>444</ele>
        <time>2017-09-17T11:18:52Z</time>
      </trkpt>
      <trkpt lat="44.01257" lon="7.55896">
        <ele>444</ele>
        <time>2017-09-17T11:18:53Z</time>
      </trkpt>
      <trkpt lat="44.01269" lon="7.55906">
        <ele>445</ele>
        <time>2017-09-17T11:18:54Z</time>
      </trkpt>
      <trkpt lat="44.01281" lon="7.55917">
        <ele>445</ele>
        <time>2017-09-17T11:18:55Z</time>
      </trkpt>
      <trkpt lat="44.01291" lon="7.5593">
        <ele>445</ele>
        <time>2017-09-17T11:18:56Z</time>
      </trkpt>
      <trkpt lat="44.01301" lon="7.55944">
        <ele>446</ele>
        <time>2017-09-17T11:18:57Z</time>
      </trkpt>
      <trkpt lat="44.0131" lon="7.55958">
        <ele>446</ele>
        <time>2017-09-17T11:18:58Z</time>
      </trkpt>
      <trkpt lat="44.01318" lon="7.55974">
        <ele>447</ele>
        <time>2017-09-17T11:18:59Z</time>
      </trkpt>
      <trkpt lat="44.01326" lon="7.5599">
        <ele>447</ele>
        <time>2017-09-17T11:19:00Z</time>
      </trkpt>
      <trkpt lat="44.01333" lon="7.56006">
        <ele>448</ele>
        <time>2017-09-17T11:19:01Z</time>
      </trkpt>
      <trkpt lat="44.01341" lon="7.56022">
        <ele>449</ele>
        <time>2017-09-17T11:19:02Z</time>
      </trkpt>
      <trkpt lat="44.01348" lon="7.56038">
        <ele>450</ele>
        <time>2017-09-17T11:19:03Z</time>
      </trkpt>
      <trkpt lat="44.01354" lon="7.56054">
        <ele>450</ele>
        <time>2017-09-17T11:19:04Z</time>
      </trkpt>
      <trkpt lat="44.01361" lon="7.5607">
        <ele>451</ele>
        <time>2017-09-17T11:19:05Z</time>
      </trkpt>
      <trkpt lat="44.01367" lon="7.56086">
        <ele>452</ele>
        <time>2017-09-17T11:19:06Z</time>
      </trkpt>
      <trkpt lat="44.01374" lon="7.56102">
        <ele>453</ele>
        <time>2017-09-17T11:19:07Z</time>
      </trkpt>
      <trkpt lat="44.01381" lon="7.56117">
        <ele>453</ele>
        <time>2017-09-17T11:19:08Z</time>
      </trkpt>
      <trkpt lat="44.0139" lon="7.5613">
        <ele>454</ele>
        <time>2017-09-17T11:19:09Z</time>
      </trkpt>
      <trkpt lat="44.014" lon="7.56142">
        <ele>454</ele>
        <time>2017-09-17T11:19:10Z</time>
      </trkpt>
      <trkpt lat="44.0141" lon="7.56154">
        <ele>454</ele>
        <time>2017-09-17T11:19:11Z</time>
      </trkpt>
      <trkpt lat="44.01421" lon="7.56165">
        <ele>455</ele>
        <time>2017-09-17T11:19:12Z</time>
      </trkpt>
      <trkpt lat="44.01433" lon="7.56176">
        <ele>455</ele>
        <time>2017-09-17T11:19:13Z</time>
      </trkpt>
      <trkpt lat="44.01444" lon="7.56187">
        <ele>455</ele>
        <time>2017-09-17T11:19:14Z</time>
      </trkpt>
      <trkpt lat="44.01457" lon="7.56199">
        <ele>455</ele>
        <time>2017-09-17T11:19:15Z</time>
      </trkpt>
      <trkpt lat="44.01469" lon="7.56211">
        <ele>455</ele>
        <time>2017-09-17T11:19:16Z</time>
      </trkpt>
      <trkpt lat="44.01481" lon="7.56223">
        <ele>455</ele>
        <time>2017-09-17T11:19:17Z</time>
      </trkpt>
      <trkpt lat="44.01493" lon="7.56235">
        <ele>455</ele>
        <time>2017-09-17T11:19:18Z</time>
      </trkpt>
      <trkpt lat="44.01506" lon="7.56247">
        <ele>455</ele>
        <time>2017-09-17T11:19:19Z</time>
      </trkpt>
      <trkpt lat="44.01518" lon="7.56258">
        <ele>456</ele>
        <time>2017-09-17T11:19:20Z</time>
      </trkpt>
      <trkpt lat="44.0153" lon="7.56269">
        <ele>456</ele>
        <time>2017-09-17T11:19:21Z</time>
      </trkpt>
      <trkpt lat="44.01543" lon="7.56281">
        <ele>456</ele>
        <time>2017-09-17T11:19:22Z</time>
      </trkpt>
      <trkpt lat="44.01556" lon="7.56293">
        <ele>456</ele>
        <time>2017-09-17T11:19:23Z</time>
      </trkpt>
      <trkpt lat="44.01568" lon="7.56305">
        <ele>457</ele>
        <time>2017-09-17T11:19:24Z</time>
      </trkpt>
      <trkpt lat="44.01581" lon="7.56317">
        <ele>457</ele>
        <time>2017-09-17T11:19:25Z</time>
      </trkpt>
      <trkpt lat="44.01595" lon="7.56329">
        <ele>457</ele>
        <time>2017-09-17T11:19:26Z</time>
      </trkpt>
      <trkpt lat="44.01608" lon="7.5634">
        <ele>458</ele>
        <time>2017-09-17T11:19:27Z</time>
      </trkpt>
      <trkpt lat="44.0162" lon="7.56352">
        <ele>458</ele>
        <time>2017-09-17T11:19:28Z</time>
      </trkpt>
      <trkpt lat="44.01633" lon="7.56364">
        <ele>459</ele>
        <time>2017-09-17T11:19:29Z</time>
      </trkpt>
      <trkpt lat="44.01646" lon="7.56374">
        <ele>459</ele>
        <time>2017-09-17T11:19:30Z</time>
      </trkpt>
      <trkpt lat="44.01659" lon="7.56383">
        <ele>460</ele>
        <time>2017-09-17T11:19:31Z</time>
      </trkpt>
      <trkpt lat="44.01673" lon="7.56391">
        <ele>460</ele>
        <time>2017-09-17T11:19:32Z</time>
      </trkpt>
      <trkpt lat="44.01688" lon="7.56397">
        <ele>461</ele>
        <time>2017-09-17T11:19:33Z</time>
      </trkpt>
      <trkpt lat="44.01703" lon="7.56403">
        <ele>461</ele>
        <time>2017-09-17T11:19:34Z</time>
      </trkpt>
      <trkpt lat="44.01719" lon="7.56409">
        <ele>462</ele>
        <time>2017-09-17T11:19:35Z</time>
      </trkpt>
      <trkpt lat="44.01735" lon="7.56415">
        <ele>463</ele>
        <time>2017-09-17T11:19:36Z</time>
      </trkpt>
      <trkpt lat="44.01751" lon="7.56421">
        <ele>464</ele>
        <time>2017-09-17T11:19:37Z</time>
      </trkpt>
      <trkpt lat="44.01767" lon="7.56427">
        <ele>465</ele>
        <time>2017-09-17T11:19:38Z</time>
      </trkpt>
      <trkpt lat="44.01783" lon="7.56433">
        <ele>466</ele>
        <time>2017-09-17T11:19:39Z</time>
      </trkpt>
      <trkpt lat="44.01798" lon="7.56439">
        <ele>467</ele>
        <time>2017-09-17T11:19:40Z</time>
      </trkpt>
      <trkpt lat="44.01814" lon="7.56445">
        <ele>468</ele>
        <time>2017-09-17T11:19:41Z</time>
      </trkpt>
      <trkpt lat="44.01831" lon="7.56451">
        <ele>469</ele>
        <time>2017-09-17T11:19:42Z</time>
      </trkpt>
      <trkpt lat="44.01847" lon="7.56455">
        <ele>470</ele>
        <time>2017-09-17T11:19:43Z</time>
      </trkpt>
      <trkpt lat="44.01863" lon="7.56459">
        <ele>471</ele>
        <time>2017-09-17T11:19:44Z</time>
      </trkpt>
      <trkpt lat="44.01879" lon="7.56462">
        <ele>472</ele>
        <time>2017-09-17T11:19:45Z</time>
      </trkpt>
      <trkpt lat="44.01894" lon="7.56467">
        <ele>472</ele>
        <time>2017-09-17T11:19:46Z</time>
      </trkpt>
      <trkpt lat="44.0191" lon="7.56472">
        <ele>473</ele>
        <time>2017-09-17T11:19:47Z</time>
      </trkpt>
      <trkpt lat="44.01925" lon="7.56476">
        <ele>474</ele>
        <time>2017-09-17T11:19:48Z</time>
      </trkpt>
      <trkpt lat="44.01941" lon="7.56479">
        <ele>475</ele>
        <time>2017-09-17T11:19:49Z</time>
      </trkpt>
      <trkpt lat="44.01956" lon="7.56481">
        <ele>476</ele>
        <time>2017-09-17T11:19:50Z</time>
      </trkpt>
      <trkpt lat="44.01971" lon="7.56483">
        <ele>476</ele>
        <time>2017-09-17T11:19:51Z</time>
      </trkpt>
      <trkpt lat="44.01986" lon="7.56485">
        <ele>477</ele>
        <time>2017-09-17T11:19:52Z</time>
      </trkpt>
      <trkpt lat="44.02" lon="7.56487">
        <ele>477</ele>
        <time>2017-09-17T11:19:53Z</time>
      </trkpt>
      <trkpt lat="44.02015" lon="7.56491">
        <ele>478</ele>
        <time>2017-09-17T11:19:54Z</time>
      </trkpt>
      <trkpt lat="44.02029" lon="7.56497">
        <ele>479</ele>
        <time>2017-09-17T11:19:55Z</time>
      </trkpt>
      <trkpt lat="44.02042" lon="7.56504">
        <ele>480</ele>
        <time>2017-09-17T11:19:56Z</time>
      </trkpt>
      <trkpt lat="44.02054" lon="7.56512">
        <ele>480</ele>
        <time>2017-09-17T11:19:57Z</time>
      </trkpt>
      <trkpt lat="44.02064" lon="7.56523">
        <ele>481</ele>
        <time>2017-09-17T11:19:58Z</time>
      </trkpt>
      <trkpt lat="44.02074" lon="7.56536">
        <ele>482</ele>
        <time>2017-09-17T11:19:59Z</time>
      </trkpt>
      <trkpt lat="44.02083" lon="7.5655">
        <ele>482</ele>
        <time>2017-09-17T11:20:00Z</time>
      </trkpt>
      <trkpt lat="44.02091" lon="7.56566">
        <ele>483</ele>
        <time>2017-09-17T11:20:01Z</time>
      </trkpt>
      <trkpt lat="44.02098" lon="7.56582">
        <ele>483</ele>
        <time>2017-09-17T11:20:02Z</time>
      </trkpt>
      <trkpt lat="44.02104" lon="7.56599">
        <ele>484</ele>
        <time>2017-09-17T11:20:03Z</time>
      </trkpt>
      <trkpt lat="44.02107" lon="7.56618">
        <ele>484</ele>
        <time>2017-09-17T11:20:04Z</time>
      </trkpt>
      <trkpt lat="44.0211" lon="7.56637">
        <ele>485</ele>
        <time>2017-09-17T11:20:05Z</time>
      </trkpt>
      <trkpt lat="44.02111" lon="7.56657">
        <ele>485</ele>
        <time>2017-09-17T11:20:06Z</time>
      </trkpt>
      <trkpt lat="44.02111" lon="7.56677">
        <ele>485</ele>
        <time>2017-09-17T11:20:07Z</time>
      </trkpt>
      <trkpt lat="44.0211" lon="7.56698">
        <ele>486</ele>
        <time>2017-09-17T11:20:08Z</time>
      </trkpt>
      <trkpt lat="44.02108" lon="7.56717">
        <ele>486</ele>
        <time>2017-09-17T11:20:09Z</time>
      </trkpt>
      <trkpt lat="44.02106" lon="7.56736">
        <ele>486</ele>
        <time>2017-09-17T11:20:10Z</time>
      </trkpt>
      <trkpt lat="44.02102" lon="7.56754">
        <ele>487</ele>
        <time>2017-09-17T11:20:11Z</time>
      </trkpt>
      <trkpt lat="44.02098" lon="7.56772">
        <ele>487</ele>
        <time>2017-09-17T11:20:12Z</time>
      </trkpt>
      <trkpt lat="44.02094" lon="7.56789">
        <ele>488</ele>
        <time>2017-09-17T11:20:13Z</time>
      </trkpt>
      <trkpt lat="44.02093" lon="7.56807">
        <ele>488</ele>
        <time>2017-09-17T11:20:14Z</time>
      </trkpt>
      <trkpt lat="44.02091" lon="7.56823">
        <ele>489</ele>
        <time>2017-09-17T11:20:15Z</time>
      </trkpt>
      <trkpt lat="44.0209" lon="7.56839">
        <ele>491</ele>
        <time>2017-09-17T11:20:16Z</time>
      </trkpt>
      <trkpt lat="44.0209" lon="7.56854">
        <ele>492</ele>
        <time>2017-09-17T11:20:17Z</time>
      </trkpt>
      <trkpt lat="44.02092" lon="7.56868">
        <ele>494</ele>
        <time>2017-09-17T11:20:18Z</time>
      </trkpt>
      <trkpt lat="44.02096" lon="7.56882">
        <ele>496</ele>
        <time>2017-09-17T11:20:19Z</time>
      </trkpt>
      <trkpt lat="44.02102" lon="7.56895">
        <ele>497</ele>
        <time>2017-09-17T11:20:20Z</time>
      </trkpt>
      <trkpt lat="44.0211" lon="7.56905">
        <ele>498</ele>
        <time>2017-09-17T11:20:21Z</time>
      </trkpt>
      <trkpt lat="44.02121" lon="7.56914">
        <ele>500</ele>
        <time>2017-09-17T11:20:22Z</time>
      </trkpt>
      <trkpt lat="44.02133" lon="7.56923">
        <ele>502</ele>
        <time>2017-09-17T11:20:23Z</time>
      </trkpt>
      <trkpt lat="44.02146" lon="7.56932">
        <ele>504</ele>
        <time>2017-09-17T11:20:24Z</time>
      </trkpt>
      <trkpt lat="44.02158" lon="7.5694">
        <ele>506</ele>
        <time>2017-09-17T11:20:25Z</time>
      </trkpt>
      <trkpt lat="44.02171" lon="7.56949">
        <ele>508</ele>
        <time>2017-09-17T11:20:26Z</time>
      </trkpt>
      <trkpt lat="44.02184" lon="7.56959">
        <ele>511</ele>
        <time>2017-09-17T11:20:27Z</time>
      </trkpt>
      <trkpt lat="44.02196" lon="7.56969">
        <ele>513</ele>
        <time>2017-09-17T11:20:28Z</time>
      </trkpt>
      <trkpt lat="44.02208" lon="7.56981">
        <ele>514</ele>
        <time>2017-09-17T11:20:29Z</time>
      </trkpt>
      <trkpt lat="44.02221" lon="7.56992">
        <ele>515</ele>
        <time>2017-09-17T11:20:30Z</time>
      </trkpt>
      <trkpt lat="44.02233" lon="7.57003">
        <ele>516</ele>
        <time>2017-09-17T11:20:31Z</time>
      </trkpt>
      <trkpt lat="44.02247" lon="7.57013">
        <ele>516</ele>
        <time>2017-09-17T11:20:32Z</time>
      </trkpt>
      <trkpt lat="44.02261" lon="7.57021">
        <ele>517</ele>
        <time>2017-09-17T11:20:33Z</time>
      </trkpt>
      <trkpt lat="44.02275" lon="7.57028">
        <ele>517</ele>
        <time>2017-09-17T11:20:34Z</time>
      </trkpt>
      <trkpt lat="44.02289" lon="7.57035">
        <ele>517</ele>
        <time>2017-09-17T11:20:35Z</time>
      </trkpt>
      <trkpt lat="44.02303" lon="7.57042">
        <ele>517</ele>
        <time>2017-09-17T11:20:36Z</time>
      </trkpt>
      <trkpt lat="44.02317" lon="7.57048">
        <ele>517</ele>
        <time>2017-09-17T11:20:37Z</time>
      </trkpt>
      <trkpt lat="44.0233" lon="7.57053">
        <ele>517</ele>
        <time>2017-09-17T11:20:38Z</time>
      </trkpt>
      <trkpt lat="44.02343" lon="7.57058">
        <ele>517</ele>
        <time>2017-09-17T11:20:39Z</time>
      </trkpt>
      <trkpt lat="44.02357" lon="7.57061">
        <ele>517</ele>
        <time>2017-09-17T11:20:40Z</time>
      </trkpt>
      <trkpt lat="44.0237" lon="7.57065">
        <ele>517</ele>
        <time>2017-09-17T11:20:41Z</time>
      </trkpt>
      <trkpt lat="44.02382" lon="7.57072">
        <ele>517</ele>
        <time>2017-09-17T11:20:42Z</time>
      </trkpt>
      <trkpt lat="44.02393" lon="7.57081">
        <ele>517</ele>
        <time>2017-09-17T11:20:43Z</time>
      </trkpt>
      <trkpt lat="44.02404" lon="7.57092">
        <ele>516</ele>
        <time>2017-09-17T11:20:44Z</time>
      </trkpt>
      <trkpt lat="44.02413" lon="7.57104">
        <ele>516</ele>
        <time>2017-09-17T11:20:45Z</time>
      </trkpt>
      <trkpt lat="44.02422" lon="7.57117">
        <ele>515</ele>
        <time>2017-09-17T11:20:46Z</time>
      </trkpt>
      <trkpt lat="44.02429" lon="7.57132">
        <ele>515</ele>
        <time>2017-09-17T11:20:47Z</time>
      </trkpt>
      <trkpt lat="44.02435" lon="7.57149">
        <ele>514</ele>
        <time>2017-09-17T11:20:48Z</time>
      </trkpt>
      <trkpt lat="44.02439" lon="7.57167">
        <ele>514</ele>
        <time>2017-09-17T11:20:49Z</time>
      </trkpt>
      <trkpt lat="44.02443" lon="7.57183">
        <ele>514</ele>
        <time>2017-09-17T11:20:50Z</time>
      </trkpt>
      <trkpt lat="44.02446" lon="7.572">
        <ele>514</ele>
        <time>2017-09-17T11:20:51Z</time>
      </trkpt>
      <trkpt lat="44.02449" lon="7.57216">
        <ele>514</ele>
        <time>2017-09-17T11:20:52Z</time>
      </trkpt>
      <trkpt lat="44.02452" lon="7.57231">
        <ele>515</ele>
        <time>2017-09-17T11:20:53Z</time>
      </trkpt>
      <trkpt lat="44.02456" lon="7.57247">
        <ele>515</ele>
        <time>2017-09-17T11:20:54Z</time>
      </trkpt>
      <trkpt lat="44.0246" lon="7.57263">
        <ele>515</ele>
        <time>2017-09-17T11:20:55Z</time>
      </trkpt>
      <trkpt lat="44.02466" lon="7.57278">
        <ele>514</ele>
        <time>2017-09-17T11:20:56Z</time>
      </trkpt>
      <trkpt lat="44.02473" lon="7.57291">
        <ele>514</ele>
        <time>2017-09-17T11:20:57Z</time>
      </trkpt>
      <trkpt lat="44.02482" lon="7.57302">
        <ele>514</ele>
        <time>2017-09-17T11:20:58Z</time>
      </trkpt>
      <trkpt lat="44.02492" lon="7.57312">
        <ele>513</ele>
        <time>2017-09-17T11:20:59Z</time>
      </trkpt>
      <trkpt lat="44.02501" lon="7.57322">
        <ele>513</ele>
        <time>2017-09-17T11:21:00Z</time>
      </trkpt>
      <trkpt lat="44.02511" lon="7.57333">
        <ele>513</ele>
        <time>2017-09-17T11:21:01Z</time>
      </trkpt>
      <trkpt lat="44.02521" lon="7.57345">
        <ele>513</ele>
        <time>2017-09-17T11:21:02Z</time>
      </trkpt>
      <trkpt lat="44.02531" lon="7.57357">
        <ele>512</ele>
        <time>2017-09-17T11:21:03Z</time>
      </trkpt>
      <trkpt lat="44.02542" lon="7.57368">
        <ele>512</ele>
        <time>2017-09-17T11:21:04Z</time>
      </trkpt>
      <trkpt lat="44.02553" lon="7.57379">
        <ele>512</ele>
        <time>2017-09-17T11:21:05Z</time>
      </trkpt>
      <trkpt lat="44.02564" lon="7.5739">
        <ele>511</ele>
        <time>2017-09-17T11:21:06Z</time>
      </trkpt>
      <trkpt lat="44.02577" lon="7.57399">
        <ele>511</ele>
        <time>2017-09-17T11:21:07Z</time>
      </trkpt>
      <trkpt lat="44.02591" lon="7.57408">
        <ele>510</ele>
        <time>2017-09-17T11:21:08Z</time>
      </trkpt>
      <trkpt lat="44.02604" lon="7.57418">
        <ele>509</ele>
        <time>2017-09-17T11:21:09Z</time>
      </trkpt>
      <trkpt lat="44.02618" lon="7.57428">
        <ele>509</ele>
        <time>2017-09-17T11:21:10Z</time>
      </trkpt>
      <trkpt lat="44.02632" lon="7.57438">
        <ele>508</ele>
        <time>2017-09-17T11:21:11Z</time>
      </trkpt>
      <trkpt lat="44.02647" lon="7.57449">
        <ele>508</ele>
        <time>2017-09-17T11:21:12Z</time>
      </trkpt>
      <trkpt lat="44.02662" lon="7.5746">
        <ele>508</ele>
        <time>2017-09-17T11:21:13Z</time>
      </trkpt>
      <trkpt lat="44.02677" lon="7.57473">
        <ele>509</ele>
        <time>2017-09-17T11:21:14Z</time>
      </trkpt>
      <trkpt lat="44.02692" lon="7.57487">
        <ele>511</ele>
        <time>2017-09-17T11:21:15Z</time>
      </trkpt>
      <trkpt lat="44.02705" lon="7.57503">
        <ele>512</ele>
        <time>2017-09-17T11:21:16Z</time>
      </trkpt>
      <trkpt lat="44.02717" lon="7.5752">
        <ele>514</ele>
        <time>2017-09-17T11:21:17Z</time>
      </trkpt>
      <trkpt lat="44.02728" lon="7.57537">
        <ele>515</ele>
        <time>2017-09-17T11:21:18Z</time>
      </trkpt>
      <trkpt lat="44.02739" lon="7.57555">
        <ele>517</ele>
        <time>2017-09-17T11:21:19Z</time>
      </trkpt>
      <trkpt lat="44.0275" lon="7.57572">
        <ele>519</ele>
        <time>2017-09-17T11:21:20Z</time>
      </trkpt>
      <trkpt lat="44.02761" lon="7.57589">
        <ele>520</ele>
        <time>2017-09-17T11:21:21Z</time>
      </trkpt>
      <trkpt lat="44.02772" lon="7.57606">
        <ele>522</ele>
        <time>2017-09-17T11:21:22Z</time>
      </trkpt>
      <trkpt lat="44.02783" lon="7.57622">
        <ele>523</ele>
        <time>2017-09-17T11:21:23Z</time>
      </trkpt>
      <trkpt lat="44.02794" lon="7.57638">
        <ele>524</ele>
        <time>2017-09-17T11:21:24Z</time>
      </trkpt>
      <trkpt lat="44.02803" lon="7.57653">
        <ele>526</ele>
        <time>2017-09-17T11:21:25Z</time>
      </trkpt>
      <trkpt lat="44.02812" lon="7.57668">
        <ele>527</ele>
        <time>2017-09-17T11:21:26Z</time>
      </trkpt>
      <trkpt lat="44.02821" lon="7.57682">
        <ele>528</ele>
        <time>2017-09-17T11:21:27Z</time>
      </trkpt>
      <trkpt lat="44.02829" lon="7.57695">
        <ele>529</ele>
        <time>2017-09-17T11:21:28Z</time>
      </trkpt>
      <trkpt lat="44.02837" lon="7.57707">
        <ele>530</ele>
        <time>2017-09-17T11:21:29Z</time>
      </trkpt>
      <trkpt lat="44.02847" lon="7.57717">
        <ele>531</ele>
        <time>2017-09-17T11:21:30Z</time>
      </trkpt>
      <trkpt lat="44.02856" lon="7.57724">
        <ele>531</ele>
        <time>2017-09-17T11:21:31Z</time>
      </trkpt>
      <trkpt lat="44.02865" lon="7.5773">
        <ele>532</ele>
        <time>2017-09-17T11:21:32Z</time>
      </trkpt>
      <trkpt lat="44.02875" lon="7.57732">
        <ele>533</ele>
        <time>2017-09-17T11:21:33Z</time>
      </trkpt>
      <trkpt lat="44.02884" lon="7.57728">
        <ele>534</ele>
        <time>2017-09-17T11:21:34Z</time>
      </trkpt>
      <trkpt lat="44.02895" lon="7.57721">
        <ele>534</ele>
        <time>2017-09-17T11:21:35Z</time>
      </trkpt>
      <trkpt lat="44.02905" lon="7.57714">
        <ele>535</ele>
        <time>2017-09-17T11:21:36Z</time>
      </trkpt>
      <trkpt lat="44.02915" lon="7.57705">
        <ele>535</ele>
        <time>2017-09-17T11:21:37Z</time>
      </trkpt>
      <trkpt lat="44.02926" lon="7.57697">
        <ele>536</ele>
        <time>2017-09-17T11:21:38Z</time>
      </trkpt>
      <trkpt lat="44.02937" lon="7.5769">
        <ele>537</ele>
        <time>2017-09-17T11:21:39Z</time>
      </trkpt>
      <trkpt lat="44.02948" lon="7.57684">
        <ele>537</ele>
        <time>2017-09-17T11:21:40Z</time>
      </trkpt>
      <trkpt lat="44.02959" lon="7.5768">
        <ele>538</ele>
        <time>2017-09-17T11:21:41Z</time>
      </trkpt>
      <trkpt lat="44.02969" lon="7.57678">
        <ele>538</ele>
        <time>2017-09-17T11:21:42Z</time>
      </trkpt>
      <trkpt lat="44.02979" lon="7.5768">
        <ele>538</ele>
        <time>2017-09-17T11:21:43Z</time>
      </trkpt>
      <trkpt lat="44.02988" lon="7.57684">
        <ele>538</ele>
        <time>2017-09-17T11:21:44Z</time>
      </trkpt>
      <trkpt lat="44.02997" lon="7.57691">
        <ele>538</ele>
        <time>2017-09-17T11:21:45Z</time>
      </trkpt>
      <trkpt lat="44.03006" lon="7.577">
        <ele>538</ele>
        <time>2017-09-17T11:21:46Z</time>
      </trkpt>
      <trkpt lat="44.03013" lon="7.5771">
        <ele>539</ele>
        <time>2017-09-17T11:21:47Z</time>
      </trkpt>
      <trkpt lat="44.0302" lon="7.57723">
        <ele>539</ele>
        <time>2017-09-17T11:21:48Z</time>
      </trkpt>
      <trkpt lat="44.03024" lon="7.57736">
        <ele>539</ele>
        <time>2017-09-17T11:21:49Z</time>
      </trkpt>
      <trkpt lat="44.03028" lon="7.57752">
        <ele>539</ele>
        <time>2017-09-17T11:21:50Z</time>
      </trkpt>
      <trkpt lat="44.03028" lon="7.57752">
        <ele>578</ele>
        <time>2017-09-17T11:22:03Z</time>
      </trkpt>
      <trkpt lat="44.03028" lon="7.57752">
        <ele>582</ele>
        <time>2017-09-17T11:22:06Z</time>
      </trkpt>
      <trkpt lat="44.03028" lon="7.57752">
        <ele>577</ele>
        <time>2017-09-17T11:22:07Z</time>
      </trkpt>
      <trkpt lat="44.02963" lon="7.58024">
        <ele>576</ele>
        <time>2017-09-17T11:22:08Z</time>
      </trkpt>
      <trkpt lat="44.02968" lon="7.58039">
        <ele>575</ele>
        <time>2017-09-17T11:22:09Z</time>
      </trkpt>
      <trkpt lat="44.02976" lon="7.58055">
        <ele>573</ele>
        <time>2017-09-17T11:22:10Z</time>
      </trkpt>
      <trkpt lat="44.02985" lon="7.5807">
        <ele>571</ele>
        <time>2017-09-17T11:22:11Z</time>
      </trkpt>
      <trkpt lat="44.02994" lon="7.58085">
        <ele>570</ele>
        <time>2017-09-17T11:22:12Z</time>
      </trkpt>
      <trkpt lat="44.03003" lon="7.581">
        <ele>568</ele>
        <time>2017-09-17T11:22:13Z</time>
      </trkpt>
      <trkpt lat="44.03013" lon="7.58115">
        <ele>567</ele>
        <time>2017-09-17T11:22:14Z</time>
      </trkpt>
      <trkpt lat="44.03022" lon="7.58131">
        <ele>565</ele>
        <time>2017-09-17T11:22:15Z</time>
      </trkpt>
      <trkpt lat="44.0303" lon="7.58145">
        <ele>563</ele>
        <time>2017-09-17T11:22:16Z</time>
      </trkpt>
      <trkpt lat="44.03038" lon="7.58159">
        <ele>562</ele>
        <time>2017-09-17T11:22:17Z</time>
      </trkpt>
      <trkpt lat="44.03047" lon="7.58173">
        <ele>561</ele>
        <time>2017-09-17T11:22:18Z</time>
      </trkpt>
      <trkpt lat="44.03055" lon="7.58184">
        <ele>560</ele>
        <time>2017-09-17T11:22:19Z</time>
      </trkpt>
      <trkpt lat="44.03065" lon="7.58196">
        <ele>559</ele>
        <time>2017-09-17T11:22:20Z</time>
      </trkpt>
      <trkpt lat="44.03074" lon="7.58207">
        <ele>559</ele>
        <time>2017-09-17T11:22:21Z</time>
      </trkpt>
      <trkpt lat="44.03084" lon="7.58217">
        <ele>559</ele>
        <time>2017-09-17T11:22:22Z</time>
      </trkpt>
      <trkpt lat="44.03095" lon="7.58225">
        <ele>559</ele>
        <time>2017-09-17T11:22:23Z</time>
      </trkpt>
      <trkpt lat="44.03107" lon="7.58228">
        <ele>560</ele>
        <time>2017-09-17T11:22:24Z</time>
      </trkpt>
      <trkpt lat="44.03119" lon="7.5823">
        <ele>561</ele>
        <time>2017-09-17T11:22:25Z</time>
      </trkpt>
      <trkpt lat="44.03131" lon="7.58231">
        <ele>562</ele>
        <time>2017-09-17T11:22:26Z</time>
      </trkpt>
      <trkpt lat="44.03144" lon="7.58231">
        <ele>564</ele>
        <time>2017-09-17T11:22:27Z</time>
      </trkpt>
      <trkpt lat="44.03157" lon="7.58231">
        <ele>565</ele>
        <time>2017-09-17T11:22:28Z</time>
      </trkpt>
      <trkpt lat="44.03171" lon="7.5823">
        <ele>567</ele>
        <time>2017-09-17T11:22:29Z</time>
      </trkpt>
      <trkpt lat="44.03183" lon="7.58226">
        <ele>569</ele>
        <time>2017-09-17T11:22:30Z</time>
      </trkpt>
      <trkpt lat="44.03195" lon="7.58221">
        <ele>571</ele>
        <time>2017-09-17T11:22:31Z</time>
      </trkpt>
      <trkpt lat="44.03207" lon="7.58214">
        <ele>574</ele>
        <time>2017-09-17T11:22:32Z</time>
      </trkpt>
      <trkpt lat="44.03219" lon="7.58207">
        <ele>577</ele>
        <time>2017-09-17T11:22:33Z</time>
      </trkpt>
      <trkpt lat="44.03229" lon="7.58199">
        <ele>580</ele>
        <time>2017-09-17T11:22:34Z</time>
      </trkpt>
      <trkpt lat="44.03239" lon="7.58189">
        <ele>583</ele>
        <time>2017-09-17T11:22:35Z</time>
      </trkpt>
      <trkpt lat="44.03247" lon="7.58178">
        <ele>587</ele>
        <time>2017-09-17T11:22:36Z</time>
      </trkpt>
      <trkpt lat="44.03253" lon="7.58162">
        <ele>591</ele>
        <time>2017-09-17T11:22:37Z</time>
      </trkpt>
      <trkpt lat="44.03257" lon="7.58145">
        <ele>595</ele>
        <time>2017-09-17T11:22:38Z</time>
      </trkpt>
      <trkpt lat="44.0326" lon="7.58128">
        <ele>598</ele>
        <time>2017-09-17T11:22:39Z</time>
      </trkpt>
      <trkpt lat="44.03263" lon="7.58111">
        <ele>601</ele>
        <time>2017-09-17T11:22:40Z</time>
      </trkpt>
      <trkpt lat="44.03267" lon="7.58094">
        <ele>604</ele>
        <time>2017-09-17T11:22:41Z</time>
      </trkpt>
      <trkpt lat="44.03271" lon="7.58079">
        <ele>607</ele>
        <time>2017-09-17T11:22:42Z</time>
      </trkpt>
      <trkpt lat="44.03277" lon="7.58064">
        <ele>609</ele>
        <time>2017-09-17T11:22:43Z</time>
      </trkpt>
      <trkpt lat="44.03284" lon="7.58051">
        <ele>612</ele>
        <time>2017-09-17T11:22:44Z</time>
      </trkpt>
      <trkpt lat="44.03294" lon="7.58038">
        <ele>614</ele>
        <time>2017-09-17T11:22:45Z</time>
      </trkpt>
      <trkpt lat="44.03304" lon="7.58028">
        <ele>615</ele>
        <time>2017-09-17T11:22:46Z</time>
      </trkpt>
      <trkpt lat="44.03315" lon="7.58019">
        <ele>615</ele>
        <time>2017-09-17T11:22:47Z</time>
      </trkpt>
      <trkpt lat="44.03326" lon="7.58013">
        <ele>615</ele>
        <time>2017-09-17T11:22:48Z</time>
      </trkpt>
      <trkpt lat="44.03338" lon="7.58009">
        <ele>614</ele>
        <time>2017-09-17T11:22:49Z</time>
      </trkpt>
      <trkpt lat="44.0335" lon="7.58006">
        <ele>613</ele>
        <time>2017-09-17T11:22:50Z</time>
      </trkpt>
      <trkpt lat="44.03362" lon="7.58005">
        <ele>612</ele>
        <time>2017-09-17T11:22:51Z</time>
      </trkpt>
      <trkpt lat="44.03362" lon="7.58005">
        <ele>608</ele>
        <time>2017-09-17T11:22:56Z</time>
      </trkpt>
      <trkpt lat="44.03362" lon="7.58005">
        <ele>608</ele>
        <time>2017-09-17T11:22:57Z</time>
      </trkpt>
      <trkpt lat="44.03447" lon="7.58018">
        <ele>607</ele>
        <time>2017-09-17T11:22:58Z</time>
      </trkpt>
      <trkpt lat="44.03447" lon="7.58018">
        <ele>607</ele>
        <time>2017-09-17T11:23:01Z</time>
      </trkpt>
      <trkpt lat="44.03447" lon="7.58018">
        <ele>606</ele>
        <time>2017-09-17T11:23:02Z</time>
      </trkpt>
      <trkpt lat="44.03508" lon="7.58039">
        <ele>605</ele>
        <time>2017-09-17T11:23:03Z</time>
      </trkpt>
      <trkpt lat="44.03508" lon="7.58039">
        <ele>603</ele>
        <time>2017-09-17T11:23:05Z</time>
      </trkpt>
      <trkpt lat="44.03508" lon="7.58039">
        <ele>602</ele>
        <time>2017-09-17T11:23:06Z</time>
      </trkpt>
      <trkpt lat="44.03552" lon="7.58028">
        <ele>602</ele>
        <time>2017-09-17T11:23:07Z</time>
      </trkpt>
      <trkpt lat="44.03563" lon="7.58023">
        <ele>601</ele>
        <time>2017-09-17T11:23:08Z</time>
      </trkpt>
      <trkpt lat="44.03575" lon="7.5802">
        <ele>601</ele>
        <time>2017-09-17T11:23:09Z</time>
      </trkpt>
      <trkpt lat="44.03587" lon="7.58017">
        <ele>601</ele>
        <time>2017-09-17T11:23:10Z</time>
      </trkpt>
      <trkpt lat="44.036" lon="7.58017">
        <ele>602</ele>
        <time>2017-09-17T11:23:11Z</time>
      </trkpt>
      <trkpt lat="44.03613" lon="7.58019">
        <ele>601</ele>
        <time>2017-09-17T11:23:12Z</time>
      </trkpt>
      <trkpt lat="44.03625" lon="7.58021">
        <ele>601</ele>
        <time>2017-09-17T11:23:13Z</time>
      </trkpt>
      <trkpt lat="44.03637" lon="7.58023">
        <ele>601</ele>
        <time>2017-09-17T11:23:14Z</time>
      </trkpt>
      <trkpt lat="44.03649" lon="7.58027">
        <ele>601</ele>
        <time>2017-09-17T11:23:15Z</time>
      </trkpt>
      <trkpt lat="44.03659" lon="7.58031">
        <ele>600</ele>
        <time>2017-09-17T11:23:16Z</time>
      </trkpt>
      <trkpt lat="44.03669" lon="7.58038">
        <ele>600</ele>
        <time>2017-09-17T11:23:17Z</time>
      </trkpt>
      <trkpt lat="44.03678" lon="7.58046">
        <ele>599</ele>
        <time>2017-09-17T11:23:18Z</time>
      </trkpt>
      <trkpt lat="44.03685" lon="7.58057">
        <ele>598</ele>
        <time>2017-09-17T11:23:19Z</time>
      </trkpt>
      <trkpt lat="44.0369" lon="7.58069">
        <ele>597</ele>
        <time>2017-09-17T11:23:20Z</time>
      </trkpt>
      <trkpt lat="44.03694" lon="7.58081">
        <ele>595</ele>
        <time>2017-09-17T11:23:21Z</time>
      </trkpt>
      <trkpt lat="44.03696" lon="7.58095">
        <ele>594</ele>
        <time>2017-09-17T11:23:22Z</time>
      </trkpt>
      <trkpt lat="44.03699" lon="7.58109">
        <ele>593</ele>
        <time>2017-09-17T11:23:23Z</time>
      </trkpt>
      <trkpt lat="44.03701" lon="7.58123">
        <ele>592</ele>
        <time>2017-09-17T11:23:24Z</time>
      </trkpt>
      <trkpt lat="44.03706" lon="7.58135">
        <ele>591</ele>
        <time>2017-09-17T11:23:25Z</time>
      </trkpt>
      <trkpt lat="44.03712" lon="7.58148">
        <ele>590</ele>
        <time>2017-09-17T11:23:26Z</time>
      </trkpt>
      <trkpt lat="44.03719" lon="7.5816">
        <ele>589</ele>
        <time>2017-09-17T11:23:27Z</time>
      </trkpt>
      <trkpt lat="44.03727" lon="7.58171">
        <ele>588</ele>
        <time>2017-09-17T11:23:28Z</time>
      </trkpt>
      <trkpt lat="44.03735" lon="7.58181">
        <ele>587</ele>
        <time>2017-09-17T11:23:29Z</time>
      </trkpt>
      <trkpt lat="44.03744" lon="7.58191">
        <ele>587</ele>
        <time>2017-09-17T11:23:30Z</time>
      </trkpt>
      <trkpt lat="44.03753" lon="7.58201">
        <ele>586</ele>
        <time>2017-09-17T11:23:31Z</time>
      </trkpt>
      <trkpt lat="44.03753" lon="7.58201">
        <ele>584</ele>
        <time>2017-09-17T11:23:35Z</time>
      </trkpt>
      <trkpt lat="44.03753" lon="7.58201">
        <ele>583</ele>
        <time>2017-09-17T11:23:36Z</time>
      </trkpt>
      <trkpt lat="44.0381" lon="7.58253">
        <ele>583</ele>
        <time>2017-09-17T11:23:37Z</time>
      </trkpt>
      <trkpt lat="44.0382" lon="7.5826">
        <ele>583</ele>
        <time>2017-09-17T11:23:38Z</time>
      </trkpt>
      <trkpt lat="44.03831" lon="7.58269">
        <ele>583</ele>
        <time>2017-09-17T11:23:39Z</time>
      </trkpt>
      <trkpt lat="44.03841" lon="7.58279">
        <ele>584</ele>
        <time>2017-09-17T11:23:40Z</time>
      </trkpt>
      <trkpt lat="44.03851" lon="7.58288">
        <ele>585</ele>
        <time>2017-09-17T11:23:41Z</time>
      </trkpt>
      <trkpt lat="44.03863" lon="7.58298">
        <ele>587</ele>
        <time>2017-09-17T11:23:42Z</time>
      </trkpt>
      <trkpt lat="44.03874" lon="7.58307">
        <ele>588</ele>
        <time>2017-09-17T11:23:43Z</time>
      </trkpt>
      <trkpt lat="44.03887" lon="7.58314">
        <ele>589</ele>
        <time>2017-09-17T11:23:44Z</time>
      </trkpt>
      <trkpt lat="44.039" lon="7.58319">
        <ele>590</ele>
        <time>2017-09-17T11:23:45Z</time>
      </trkpt>
      <trkpt lat="44.03913" lon="7.58323">
        <ele>591</ele>
        <time>2017-09-17T11:23:46Z</time>
      </trkpt>
      <trkpt lat="44.03926" lon="7.58328">
        <ele>593</ele>
        <time>2017-09-17T11:23:47Z</time>
      </trkpt>
      <trkpt lat="44.03939" lon="7.58334">
        <ele>594</ele>
        <time>2017-09-17T11:23:48Z</time>
      </trkpt>
      <trkpt lat="44.03953" lon="7.58339">
        <ele>595</ele>
        <time>2017-09-17T11:23:49Z</time>
      </trkpt>
      <trkpt lat="44.03965" lon="7.58344">
        <ele>596</ele>
        <time>2017-09-17T11:23:50Z</time>
      </trkpt>
      <trkpt lat="44.03978" lon="7.58349">
        <ele>597</ele>
        <time>2017-09-17T11:23:51Z</time>
      </trkpt>
      <trkpt lat="44.0399" lon="7.58354">
        <ele>599</ele>
        <time>2017-09-17T11:23:52Z</time>
      </trkpt>
      <trkpt lat="44.04002" lon="7.5836">
        <ele>600</ele>
        <time>2017-09-17T11:23:53Z</time>
      </trkpt>
      <trkpt lat="44.04013" lon="7.58368">
        <ele>602</ele>
        <time>2017-09-17T11:23:54Z</time>
      </trkpt>
      <trkpt lat="44.04024" lon="7.58376">
        <ele>603</ele>
        <time>2017-09-17T11:23:55Z</time>
      </trkpt>
      <trkpt lat="44.04036" lon="7.58384">
        <ele>604</ele>
        <time>2017-09-17T11:23:56Z</time>
      </trkpt>
      <trkpt lat="44.04036" lon="7.58384">
        <ele>616</ele>
        <time>2017-09-17T11:24:07Z</time>
      </trkpt>
      <trkpt lat="44.04036" lon="7.58384">
        <ele>617</ele>
        <time>2017-09-17T11:24:08Z</time>
      </trkpt>
      <trkpt lat="44.04182" lon="7.58487">
        <ele>618</ele>
        <time>2017-09-17T11:24:09Z</time>
      </trkpt>
      <trkpt lat="44.04194" lon="7.58492">
        <ele>619</ele>
        <time>2017-09-17T11:24:10Z</time>
      </trkpt>
      <trkpt lat="44.04207" lon="7.58497">
        <ele>620</ele>
        <time>2017-09-17T11:24:11Z</time>
      </trkpt>
      <trkpt lat="44.0422" lon="7.58502">
        <ele>621</ele>
        <time>2017-09-17T11:24:12Z</time>
      </trkpt>
      <trkpt lat="44.04233" lon="7.58509">
        <ele>621</ele>
        <time>2017-09-17T11:24:13Z</time>
      </trkpt>
      <trkpt lat="44.04244" lon="7.58518">
        <ele>622</ele>
        <time>2017-09-17T11:24:14Z</time>
      </trkpt>
      <trkpt lat="44.04256" lon="7.58528">
        <ele>623</ele>
        <time>2017-09-17T11:24:15Z</time>
      </trkpt>
      <trkpt lat="44.04267" lon="7.58539">
        <ele>624</ele>
        <time>2017-09-17T11:24:16Z</time>
      </trkpt>
      <trkpt lat="44.04277" lon="7.58551">
        <ele>625</ele>
        <time>2017-09-17T11:24:17Z</time>
      </trkpt>
      <trkpt lat="44.04289" lon="7.58562">
        <ele>626</ele>
        <time>2017-09-17T11:24:18Z</time>
      </trkpt>
      <trkpt lat="44.043" lon="7.58573">
        <ele>627</ele>
        <time>2017-09-17T11:24:19Z</time>
      </trkpt>
      <trkpt lat="44.04312" lon="7.58584">
        <ele>627</ele>
        <time>2017-09-17T11:24:20Z</time>
      </trkpt>
      <trkpt lat="44.04324" lon="7.58595">
        <ele>628</ele>
        <time>2017-09-17T11:24:21Z</time>
      </trkpt>
      <trkpt lat="44.04336" lon="7.58605">
        <ele>629</ele>
        <time>2017-09-17T11:24:22Z</time>
      </trkpt>
      <trkpt lat="44.04348" lon="7.58613">
        <ele>630</ele>
        <time>2017-09-17T11:24:23Z</time>
      </trkpt>
      <trkpt lat="44.04361" lon="7.5862">
        <ele>631</ele>
        <time>2017-09-17T11:24:24Z</time>
      </trkpt>
      <trkpt lat="44.04375" lon="7.58625">
        <ele>632</ele>
        <time>2017-09-17T11:24:25Z</time>
      </trkpt>
      <trkpt lat="44.04388" lon="7.58629">
        <ele>632</ele>
        <time>2017-09-17T11:24:26Z</time>
      </trkpt>
      <trkpt lat="44.04402" lon="7.58632">
        <ele>633</ele>
        <time>2017-09-17T11:24:27Z</time>
      </trkpt>
      <trkpt lat="44.04415" lon="7.58636">
        <ele>634</ele>
        <time>2017-09-17T11:24:28Z</time>
      </trkpt>
      <trkpt lat="44.04428" lon="7.5864">
        <ele>635</ele>
        <time>2017-09-17T11:24:29Z</time>
      </trkpt>
      <trkpt lat="44.04442" lon="7.58643">
        <ele>635</ele>
        <time>2017-09-17T11:24:30Z</time>
      </trkpt>
      <trkpt lat="44.04457" lon="7.58644">
        <ele>636</ele>
        <time>2017-09-17T11:24:31Z</time>
      </trkpt>
      <trkpt lat="44.04472" lon="7.58645">
        <ele>637</ele>
        <time>2017-09-17T11:24:32Z</time>
      </trkpt>
      <trkpt lat="44.04487" lon="7.58645">
        <ele>638</ele>
        <time>2017-09-17T11:24:33Z</time>
      </trkpt>
      <trkpt lat="44.04503" lon="7.58645">
        <ele>639</ele>
        <time>2017-09-17T11:24:34Z</time>
      </trkpt>
      <trkpt lat="44.04518" lon="7.58645">
        <ele>640</ele>
        <time>2017-09-17T11:24:35Z</time>
      </trkpt>
      <trkpt lat="44.04533" lon="7.58644">
        <ele>640</ele>
        <time>2017-09-17T11:24:36Z</time>
      </trkpt>
      <trkpt lat="44.04549" lon="7.58643">
        <ele>641</ele>
        <time>2017-09-17T11:24:37Z</time>
      </trkpt>
      <trkpt lat="44.04564" lon="7.58642">
        <ele>641</ele>
        <time>2017-09-17T11:24:38Z</time>
      </trkpt>
      <trkpt lat="44.04579" lon="7.58642">
        <ele>642</ele>
        <time>2017-09-17T11:24:39Z</time>
      </trkpt>
      <trkpt lat="44.04594" lon="7.58642">
        <ele>643</ele>
        <time>2017-09-17T11:24:40Z</time>
      </trkpt>
      <trkpt lat="44.04608" lon="7.58642">
        <ele>644</ele>
        <time>2017-09-17T11:24:41Z</time>
      </trkpt>
      <trkpt lat="44.04623" lon="7.58643">
        <ele>644</ele>
        <time>2017-09-17T11:24:42Z</time>
      </trkpt>
      <trkpt lat="44.04637" lon="7.58643">
        <ele>645</ele>
        <time>2017-09-17T11:24:43Z</time>
      </trkpt>
      <trkpt lat="44.04651" lon="7.58644">
        <ele>646</ele>
        <time>2017-09-17T11:24:44Z</time>
      </trkpt>
      <trkpt lat="44.04665" lon="7.58645">
        <ele>647</ele>
        <time>2017-09-17T11:24:45Z</time>
      </trkpt>
      <trkpt lat="44.04679" lon="7.58645">
        <ele>647</ele>
        <time>2017-09-17T11:24:46Z</time>
      </trkpt>
      <trkpt lat="44.04694" lon="7.58644">
        <ele>648</ele>
        <time>2017-09-17T11:24:47Z</time>
      </trkpt>
      <trkpt lat="44.04708" lon="7.58643">
        <ele>649</ele>
        <time>2017-09-17T11:24:48Z</time>
      </trkpt>
      <trkpt lat="44.04722" lon="7.58642">
        <ele>650</ele>
        <time>2017-09-17T11:24:49Z</time>
      </trkpt>
      <trkpt lat="44.04735" lon="7.58642">
        <ele>650</ele>
        <time>2017-09-17T11:24:50Z</time>
      </trkpt>
      <trkpt lat="44.04746" lon="7.58645">
        <ele>651</ele>
        <time>2017-09-17T11:24:51Z</time>
      </trkpt>
      <trkpt lat="44.04758" lon="7.5865">
        <ele>652</ele>
        <time>2017-09-17T11:24:52Z</time>
      </trkpt>
      <trkpt lat="44.04768" lon="7.58656">
        <ele>652</ele>
        <time>2017-09-17T11:24:53Z</time>
      </trkpt>
      <trkpt lat="44.04779" lon="7.58662">
        <ele>652</ele>
        <time>2017-09-17T11:24:54Z</time>
      </trkpt>
      <trkpt lat="44.0479" lon="7.5867">
        <ele>652</ele>
        <time>2017-09-17T11:24:55Z</time>
      </trkpt>
      <trkpt lat="44.04801" lon="7.58679">
        <ele>652</ele>
        <time>2017-09-17T11:24:56Z</time>
      </trkpt>
      <trkpt lat="44.04811" lon="7.58688">
        <ele>652</ele>
        <time>2017-09-17T11:24:57Z</time>
      </trkpt>
      <trkpt lat="44.04822" lon="7.58698">
        <ele>652</ele>
        <time>2017-09-17T11:24:58Z</time>
      </trkpt>
      <trkpt lat="44.04833" lon="7.58707">
        <ele>653</ele>
        <time>2017-09-17T11:24:59Z</time>
      </trkpt>
      <trkpt lat="44.04844" lon="7.58716">
        <ele>653</ele>
        <time>2017-09-17T11:25:00Z</time>
      </trkpt>
      <trkpt lat="44.04856" lon="7.58723">
        <ele>653</ele>
        <time>2017-09-17T11:25:01Z</time>
      </trkpt>
      <trkpt lat="44.04868" lon="7.58731">
        <ele>653</ele>
        <time>2017-09-17T11:25:02Z</time>
      </trkpt>
      <trkpt lat="44.0488" lon="7.58739">
        <ele>653</ele>
        <time>2017-09-17T11:25:03Z</time>
      </trkpt>
      <trkpt lat="44.04893" lon="7.58746">
        <ele>653</ele>
        <time>2017-09-17T11:25:04Z</time>
      </trkpt>
      <trkpt lat="44.04905" lon="7.58751">
        <ele>654</ele>
        <time>2017-09-17T11:25:05Z</time>
      </trkpt>
      <trkpt lat="44.04918" lon="7.58756">
        <ele>654</ele>
        <time>2017-09-17T11:25:06Z</time>
      </trkpt>
      <trkpt lat="44.04931" lon="7.5876">
        <ele>655</ele>
        <time>2017-09-17T11:25:07Z</time>
      </trkpt>
      <trkpt lat="44.04944" lon="7.58764">
        <ele>655</ele>
        <time>2017-09-17T11:25:08Z</time>
      </trkpt>
      <trkpt lat="44.04958" lon="7.58767">
        <ele>655</ele>
        <time>2017-09-17T11:25:09Z</time>
      </trkpt>
      <trkpt lat="44.0497" lon="7.58768">
        <ele>655</ele>
        <time>2017-09-17T11:25:10Z</time>
      </trkpt>
      <trkpt lat="44.04983" lon="7.5877">
        <ele>656</ele>
        <time>2017-09-17T11:25:11Z</time>
      </trkpt>
      <trkpt lat="44.04995" lon="7.58773">
        <ele>656</ele>
        <time>2017-09-17T11:25:12Z</time>
      </trkpt>
      <trkpt lat="44.05006" lon="7.58778">
        <ele>656</ele>
        <time>2017-09-17T11:25:13Z</time>
      </trkpt>
      <trkpt lat="44.05016" lon="7.58785">
        <ele>656</ele>
        <time>2017-09-17T11:25:14Z</time>
      </trkpt>
      <trkpt lat="44.05026" lon="7.58793">
        <ele>657</ele>
        <time>2017-09-17T11:25:15Z</time>
      </trkpt>
      <trkpt lat="44.05037" lon="7.58803">
        <ele>657</ele>
        <time>2017-09-17T11:25:16Z</time>
      </trkpt>
      <trkpt lat="44.05046" lon="7.58813">
        <ele>657</ele>
        <time>2017-09-17T11:25:17Z</time>
      </trkpt>
      <trkpt lat="44.05055" lon="7.58823">
        <ele>657</ele>
        <time>2017-09-17T11:25:18Z</time>
      </trkpt>
      <trkpt lat="44.05064" lon="7.58832">
        <ele>657</ele>
        <time>2017-09-17T11:25:19Z</time>
      </trkpt>
      <trkpt lat="44.05073" lon="7.5884">
        <ele>657</ele>
        <time>2017-09-17T11:25:20Z</time>
      </trkpt>
      <trkpt lat="44.05083" lon="7.58847">
        <ele>657</ele>
        <time>2017-09-17T11:25:21Z</time>
      </trkpt>
      <trkpt lat="44.05093" lon="7.58853">
        <ele>657</ele>
        <time>2017-09-17T11:25:22Z</time>
      </trkpt>
      <trkpt lat="44.05103" lon="7.58858">
        <ele>658</ele>
        <time>2017-09-17T11:25:23Z</time>
      </trkpt>
      <trkpt lat="44.05113" lon="7.58862">
        <ele>658</ele>
        <time>2017-09-17T11:25:24Z</time>
      </trkpt>
      <trkpt lat="44.05122" lon="7.58866">
        <ele>658</ele>
        <time>2017-09-17T11:25:25Z</time>
      </trkpt>
      <trkpt lat="44.05131" lon="7.58869">
        <ele>658</ele>
        <time>2017-09-17T11:25:26Z</time>
      </trkpt>
      <trkpt lat="44.05137" lon="7.58872">
        <ele>658</ele>
        <time>2017-09-17T11:25:27Z</time>
      </trkpt>
      <trkpt lat="44.05142" lon="7.58874">
        <ele>658</ele>
        <time>2017-09-17T11:25:28Z</time>
      </trkpt>
      <trkpt lat="44.05146" lon="7.58875">
        <ele>658</ele>
        <time>2017-09-17T11:25:29Z</time>
      </trkpt>
      <trkpt lat="44.0515" lon="7.58877">
        <ele>659</ele>
        <time>2017-09-17T11:25:30Z</time>
      </trkpt>
      <trkpt lat="44.05154" lon="7.58879">
        <ele>659</ele>
        <time>2017-09-17T11:25:31Z</time>
      </trkpt>
      <trkpt lat="44.05159" lon="7.58881">
        <ele>660</ele>
        <time>2017-09-17T11:25:32Z</time>
      </trkpt>
      <trkpt lat="44.05164" lon="7.58882">
        <ele>660</ele>
        <time>2017-09-17T11:25:33Z</time>
      </trkpt>
      <trkpt lat="44.0517" lon="7.58885">
        <ele>661</ele>
        <time>2017-09-17T11:25:34Z</time>
      </trkpt>
      <trkpt lat="44.05177" lon="7.58887">
        <ele>661</ele>
        <time>2017-09-17T11:25:35Z</time>
      </trkpt>
      <trkpt lat="44.05184" lon="7.5889">
        <ele>661</ele>
        <time>2017-09-17T11:25:36Z</time>
      </trkpt>
      <trkpt lat="44.05193" lon="7.58894">
        <ele>662</ele>
        <time>2017-09-17T11:25:37Z</time>
      </trkpt>
      <trkpt lat="44.05203" lon="7.58897">
        <ele>662</ele>
        <time>2017-09-17T11:25:38Z</time>
      </trkpt>
      <trkpt lat="44.05212" lon="7.58899">
        <ele>663</ele>
        <time>2017-09-17T11:25:39Z</time>
      </trkpt>
      <trkpt lat="44.05222" lon="7.589">
        <ele>663</ele>
        <time>2017-09-17T11:25:40Z</time>
      </trkpt>
      <trkpt lat="44.05231" lon="7.58902">
        <ele>664</ele>
        <time>2017-09-17T11:25:41Z</time>
      </trkpt>
      <trkpt lat="44.0524" lon="7.58903">
        <ele>664</ele>
        <time>2017-09-17T11:25:42Z</time>
      </trkpt>
      <trkpt lat="44.05247" lon="7.58903">
        <ele>665</ele>
        <time>2017-09-17T11:25:43Z</time>
      </trkpt>
      <trkpt lat="44.05255" lon="7.58904">
        <ele>665</ele>
        <time>2017-09-17T11:25:44Z</time>
      </trkpt>
      <trkpt lat="44.05261" lon="7.58904">
        <ele>665</ele>
        <time>2017-09-17T11:25:45Z</time>
      </trkpt>
      <trkpt lat="44.05266" lon="7.58904">
        <ele>665</ele>
        <time>2017-09-17T11:25:46Z</time>
      </trkpt>
      <trkpt lat="44.0527" lon="7.58904">
        <ele>666</ele>
        <time>2017-09-17T11:25:47Z</time>
      </trkpt>
      <trkpt lat="44.05274" lon="7.58904">
        <ele>666</ele>
        <time>2017-09-17T11:25:48Z</time>
      </trkpt>
      <trkpt lat="44.05279" lon="7.58905">
        <ele>666</ele>
        <time>2017-09-17T11:25:49Z</time>
      </trkpt>
      <trkpt lat="44.05286" lon="7.58905">
        <ele>667</ele>
        <time>2017-09-17T11:25:50Z</time>
      </trkpt>
      <trkpt lat="44.05293" lon="7.58905">
        <ele>667</ele>
        <time>2017-09-17T11:25:51Z</time>
      </trkpt>
      <trkpt lat="44.05301" lon="7.58905">
        <ele>668</ele>
        <time>2017-09-17T11:25:52Z</time>
      </trkpt>
      <trkpt lat="44.05308" lon="7.58904">
        <ele>669</ele>
        <time>2017-09-17T11:25:53Z</time>
      </trkpt>
      <trkpt lat="44.05316" lon="7.58902">
        <ele>669</ele>
        <time>2017-09-17T11:25:54Z</time>
      </trkpt>
      <trkpt lat="44.05323" lon="7.58901">
        <ele>670</ele>
        <time>2017-09-17T11:25:55Z</time>
      </trkpt>
      <trkpt lat="44.05331" lon="7.58899">
        <ele>670</ele>
        <time>2017-09-17T11:25:56Z</time>
      </trkpt>
      <trkpt lat="44.0534" lon="7.58897">
        <ele>671</ele>
        <time>2017-09-17T11:25:57Z</time>
      </trkpt>
      <trkpt lat="44.05349" lon="7.58895">
        <ele>671</ele>
        <time>2017-09-17T11:25:58Z</time>
      </trkpt>
      <trkpt lat="44.05358" lon="7.58893">
        <ele>671</ele>
        <time>2017-09-17T11:25:59Z</time>
      </trkpt>
      <trkpt lat="44.05367" lon="7.58892">
        <ele>672</ele>
        <time>2017-09-17T11:26:00Z</time>
      </trkpt>
      <trkpt lat="44.05375" lon="7.58891">
        <ele>672</ele>
        <time>2017-09-17T11:26:01Z</time>
      </trkpt>
      <trkpt lat="44.05382" lon="7.5889">
        <ele>672</ele>
        <time>2017-09-17T11:26:02Z</time>
      </trkpt>
      <trkpt lat="44.05389" lon="7.5889">
        <ele>673</ele>
        <time>2017-09-17T11:26:03Z</time>
      </trkpt>
      <trkpt lat="44.05394" lon="7.58889">
        <ele>673</ele>
        <time>2017-09-17T11:26:04Z</time>
      </trkpt>
      <trkpt lat="44.05398" lon="7.58889">
        <ele>674</ele>
        <time>2017-09-17T11:26:05Z</time>
      </trkpt>
      <trkpt lat="44.05403" lon="7.58889">
        <ele>674</ele>
        <time>2017-09-17T11:26:06Z</time>
      </trkpt>
      <trkpt lat="44.05409" lon="7.58889">
        <ele>675</ele>
        <time>2017-09-17T11:26:07Z</time>
      </trkpt>
      <trkpt lat="44.05416" lon="7.58889">
        <ele>675</ele>
        <time>2017-09-17T11:26:08Z</time>
      </trkpt>
      <trkpt lat="44.05423" lon="7.58889">
        <ele>676</ele>
        <time>2017-09-17T11:26:09Z</time>
      </trkpt>
      <trkpt lat="44.0543" lon="7.5889">
        <ele>677</ele>
        <time>2017-09-17T11:26:10Z</time>
      </trkpt>
      <trkpt lat="44.05438" lon="7.5889">
        <ele>677</ele>
        <time>2017-09-17T11:26:11Z</time>
      </trkpt>
      <trkpt lat="44.05446" lon="7.58891">
        <ele>678</ele>
        <time>2017-09-17T11:26:12Z</time>
      </trkpt>
      <trkpt lat="44.05455" lon="7.58891">
        <ele>678</ele>
        <time>2017-09-17T11:26:13Z</time>
      </trkpt>
      <trkpt lat="44.05463" lon="7.58892">
        <ele>678</ele>
        <time>2017-09-17T11:26:14Z</time>
      </trkpt>
      <trkpt lat="44.05471" lon="7.58892">
        <ele>679</ele>
        <time>2017-09-17T11:26:15Z</time>
      </trkpt>
      <trkpt lat="44.05479" lon="7.58891">
        <ele>679</ele>
        <time>2017-09-17T11:26:16Z</time>
      </trkpt>
      <trkpt lat="44.05486" lon="7.5889">
        <ele>679</ele>
        <time>2017-09-17T11:26:17Z</time>
      </trkpt>
      <trkpt lat="44.05492" lon="7.58889">
        <ele>679</ele>
        <time>2017-09-17T11:26:18Z</time>
      </trkpt>
      <trkpt lat="44.05498" lon="7.58888">
        <ele>680</ele>
        <time>2017-09-17T11:26:19Z</time>
      </trkpt>
      <trkpt lat="44.05502" lon="7.58887">
        <ele>680</ele>
        <time>2017-09-17T11:26:20Z</time>
      </trkpt>
      <trkpt lat="44.05507" lon="7.58886">
        <ele>680</ele>
        <time>2017-09-17T11:26:21Z</time>
      </trkpt>
      <trkpt lat="44.05511" lon="7.58884">
        <ele>681</ele>
        <time>2017-09-17T11:26:22Z</time>
      </trkpt>
      <trkpt lat="44.05517" lon="7.58882">
        <ele>681</ele>
        <time>2017-09-17T11:26:23Z</time>
      </trkpt>
      <trkpt lat="44.05523" lon="7.5888">
        <ele>681</ele>
        <time>2017-09-17T11:26:24Z</time>
      </trkpt>
      <trkpt lat="44.0553" lon="7.58878">
        <ele>681</ele>
        <time>2017-09-17T11:26:25Z</time>
      </trkpt>
      <trkpt lat="44.05536" lon="7.58875">
        <ele>682</ele>
        <time>2017-09-17T11:26:26Z</time>
      </trkpt>
      <trkpt lat="44.05543" lon="7.58872">
        <ele>682</ele>
        <time>2017-09-17T11:26:27Z</time>
      </trkpt>
      <trkpt lat="44.0555" lon="7.58867">
        <ele>683</ele>
        <time>2017-09-17T11:26:28Z</time>
      </trkpt>
      <trkpt lat="44.05557" lon="7.58861">
        <ele>683</ele>
        <time>2017-09-17T11:26:29Z</time>
      </trkpt>
      <trkpt lat="44.05563" lon="7.58853">
        <ele>684</ele>
        <time>2017-09-17T11:26:30Z</time>
      </trkpt>
      <trkpt lat="44.0557" lon="7.58844">
        <ele>684</ele>
        <time>2017-09-17T11:26:31Z</time>
      </trkpt>
      <trkpt lat="44.05576" lon="7.58834">
        <ele>685</ele>
        <time>2017-09-17T11:26:32Z</time>
      </trkpt>
      <trkpt lat="44.05582" lon="7.58823">
        <ele>685</ele>
        <time>2017-09-17T11:26:33Z</time>
      </trkpt>
      <trkpt lat="44.05587" lon="7.58812">
        <ele>686</ele>
        <time>2017-09-17T11:26:34Z</time>
      </trkpt>
      <trkpt lat="44.05592" lon="7.58802">
        <ele>686</ele>
        <time>2017-09-17T11:26:35Z</time>
      </trkpt>
      <trkpt lat="44.05596" lon="7.58791">
        <ele>687</ele>
        <time>2017-09-17T11:26:36Z</time>
      </trkpt>
      <trkpt lat="44.056" lon="7.58782">
        <ele>687</ele>
        <time>2017-09-17T11:26:37Z</time>
      </trkpt>
      <trkpt lat="44.05603" lon="7.58773">
        <ele>688</ele>
        <time>2017-09-17T11:26:38Z</time>
      </trkpt>
      <trkpt lat="44.05606" lon="7.58764">
        <ele>688</ele>
        <time>2017-09-17T11:26:39Z</time>
      </trkpt>
      <trkpt lat="44.05609" lon="7.58757">
        <ele>689</ele>
        <time>2017-09-17T11:26:40Z</time>
      </trkpt>
      <trkpt lat="44.05612" lon="7.5875">
        <ele>689</ele>
        <time>2017-09-17T11:26:41Z</time>
      </trkpt>
      <trkpt lat="44.05615" lon="7.58744">
        <ele>690</ele>
        <time>2017-09-17T11:26:42Z</time>
      </trkpt>
      <trkpt lat="44.05618" lon="7.58737">
        <ele>690</ele>
        <time>2017-09-17T11:26:43Z</time>
      </trkpt>
      <trkpt lat="44.05622" lon="7.58728">
        <ele>691</ele>
        <time>2017-09-17T11:26:44Z</time>
      </trkpt>
      <trkpt lat="44.05626" lon="7.58719">
        <ele>691</ele>
        <time>2017-09-17T11:26:45Z</time>
      </trkpt>
      <trkpt lat="44.05631" lon="7.58709">
        <ele>691</ele>
        <time>2017-09-17T11:26:46Z</time>
      </trkpt>
      <trkpt lat="44.05636" lon="7.58699">
        <ele>691</ele>
        <time>2017-09-17T11:26:47Z</time>
      </trkpt>
      <trkpt lat="44.05642" lon="7.5869">
        <ele>692</ele>
        <time>2017-09-17T11:26:48Z</time>
      </trkpt>
      <trkpt lat="44.05648" lon="7.58682">
        <ele>692</ele>
        <time>2017-09-17T11:26:49Z</time>
      </trkpt>
      <trkpt lat="44.05655" lon="7.58673">
        <ele>692</ele>
        <time>2017-09-17T11:26:50Z</time>
      </trkpt>
      <trkpt lat="44.05655" lon="7.58673">
        <ele>693</ele>
        <time>2017-09-17T11:26:56Z</time>
      </trkpt>
      <trkpt lat="44.05655" lon="7.58673">
        <ele>693</ele>
        <time>2017-09-17T11:26:57Z</time>
      </trkpt>
      <trkpt lat="44.05708" lon="7.58614">
        <ele>693</ele>
        <time>2017-09-17T11:26:58Z</time>
      </trkpt>
      <trkpt lat="44.05717" lon="7.58613">
        <ele>694</ele>
        <time>2017-09-17T11:26:59Z</time>
      </trkpt>
      <trkpt lat="44.05725" lon="7.58613">
        <ele>694</ele>
        <time>2017-09-17T11:27:00Z</time>
      </trkpt>
      <trkpt lat="44.05733" lon="7.58615">
        <ele>696</ele>
        <time>2017-09-17T11:27:01Z</time>
      </trkpt>
      <trkpt lat="44.05741" lon="7.58617">
        <ele>697</ele>
        <time>2017-09-17T11:27:02Z</time>
      </trkpt>
      <trkpt lat="44.05748" lon="7.58619">
        <ele>698</ele>
        <time>2017-09-17T11:27:03Z</time>
      </trkpt>
      <trkpt lat="44.05755" lon="7.58622">
        <ele>700</ele>
        <time>2017-09-17T11:27:04Z</time>
      </trkpt>
      <trkpt lat="44.0576" lon="7.58624">
        <ele>702</ele>
        <time>2017-09-17T11:27:05Z</time>
      </trkpt>
      <trkpt lat="44.05765" lon="7.58623">
        <ele>703</ele>
        <time>2017-09-17T11:27:06Z</time>
      </trkpt>
      <trkpt lat="44.05768" lon="7.58619">
        <ele>705</ele>
        <time>2017-09-17T11:27:07Z</time>
      </trkpt>
      <trkpt lat="44.05769" lon="7.58614">
        <ele>705</ele>
        <time>2017-09-17T11:27:08Z</time>
      </trkpt>
      <trkpt lat="44.05768" lon="7.58611">
        <ele>705</ele>
        <time>2017-09-17T11:27:09Z</time>
      </trkpt>
      <trkpt lat="44.05764" lon="7.58609">
        <ele>705</ele>
        <time>2017-09-17T11:27:10Z</time>
      </trkpt>
      <trkpt lat="44.05759" lon="7.58606">
        <ele>705</ele>
        <time>2017-09-17T11:27:11Z</time>
      </trkpt>
      <trkpt lat="44.05754" lon="7.58603">
        <ele>705</ele>
        <time>2017-09-17T11:27:12Z</time>
      </trkpt>
      <trkpt lat="44.05749" lon="7.58598">
        <ele>705</ele>
        <time>2017-09-17T11:27:13Z</time>
      </trkpt>
      <trkpt lat="44.05744" lon="7.58593">
        <ele>705</ele>
        <time>2017-09-17T11:27:14Z</time>
      </trkpt>
      <trkpt lat="44.05739" lon="7.58588">
        <ele>705</ele>
        <time>2017-09-17T11:27:15Z</time>
      </trkpt>
      <trkpt lat="44.05734" lon="7.58582">
        <ele>704</ele>
        <time>2017-09-17T11:27:16Z</time>
      </trkpt>
      <trkpt lat="44.05729" lon="7.58575">
        <ele>704</ele>
        <time>2017-09-17T11:27:17Z</time>
      </trkpt>
      <trkpt lat="44.05725" lon="7.58567">
        <ele>704</ele>
        <time>2017-09-17T11:27:18Z</time>
      </trkpt>
      <trkpt lat="44.0572" lon="7.58559">
        <ele>703</ele>
        <time>2017-09-17T11:27:19Z</time>
      </trkpt>
      <trkpt lat="44.05716" lon="7.58549">
        <ele>703</ele>
        <time>2017-09-17T11:27:20Z</time>
      </trkpt>
      <trkpt lat="44.05712" lon="7.5854">
        <ele>703</ele>
        <time>2017-09-17T11:27:21Z</time>
      </trkpt>
      <trkpt lat="44.05708" lon="7.5853">
        <ele>703</ele>
        <time>2017-09-17T11:27:22Z</time>
      </trkpt>
      <trkpt lat="44.05704" lon="7.5852">
        <ele>703</ele>
        <time>2017-09-17T11:27:23Z</time>
      </trkpt>
      <trkpt lat="44.057" lon="7.5851">
        <ele>703</ele>
        <time>2017-09-17T11:27:24Z</time>
      </trkpt>
      <trkpt lat="44.05695" lon="7.58501">
        <ele>702</ele>
        <time>2017-09-17T11:27:25Z</time>
      </trkpt>
      <trkpt lat="44.0569" lon="7.58492">
        <ele>702</ele>
        <time>2017-09-17T11:27:26Z</time>
      </trkpt>
      <trkpt lat="44.05686" lon="7.58485">
        <ele>702</ele>
        <time>2017-09-17T11:27:27Z</time>
      </trkpt>
      <trkpt lat="44.05682" lon="7.58479">
        <ele>702</ele>
        <time>2017-09-17T11:27:28Z</time>
      </trkpt>
      <trkpt lat="44.05678" lon="7.58474">
        <ele>702</ele>
        <time>2017-09-17T11:27:29Z</time>
      </trkpt>
      <trkpt lat="44.05675" lon="7.58469">
        <ele>702</ele>
        <time>2017-09-17T11:27:30Z</time>
      </trkpt>
      <trkpt lat="44.05673" lon="7.58465">
        <ele>702</ele>
        <time>2017-09-17T11:27:31Z</time>
      </trkpt>
      <trkpt lat="44.0567" lon="7.5846">
        <ele>701</ele>
        <time>2017-09-17T11:27:32Z</time>
      </trkpt>
      <trkpt lat="44.05667" lon="7.58453">
        <ele>701</ele>
        <time>2017-09-17T11:27:33Z</time>
      </trkpt>
      <trkpt lat="44.05663" lon="7.58446">
        <ele>701</ele>
        <time>2017-09-17T11:27:34Z</time>
      </trkpt>
      <trkpt lat="44.05659" lon="7.58437">
        <ele>701</ele>
        <time>2017-09-17T11:27:35Z</time>
      </trkpt>
      <trkpt lat="44.05655" lon="7.58427">
        <ele>701</ele>
        <time>2017-09-17T11:27:36Z</time>
      </trkpt>
      <trkpt lat="44.05652" lon="7.58416">
        <ele>701</ele>
        <time>2017-09-17T11:27:37Z</time>
      </trkpt>
      <trkpt lat="44.05647" lon="7.58405">
        <ele>701</ele>
        <time>2017-09-17T11:27:38Z</time>
      </trkpt>
      <trkpt lat="44.05643" lon="7.58393">
        <ele>702</ele>
        <time>2017-09-17T11:27:39Z</time>
      </trkpt>
      <trkpt lat="44.05639" lon="7.58382">
        <ele>702</ele>
        <time>2017-09-17T11:27:40Z</time>
      </trkpt>
      <trkpt lat="44.05634" lon="7.5837">
        <ele>702</ele>
        <time>2017-09-17T11:27:41Z</time>
      </trkpt>
      <trkpt lat="44.0563" lon="7.58359">
        <ele>702</ele>
        <time>2017-09-17T11:27:42Z</time>
      </trkpt>
      <trkpt lat="44.05626" lon="7.58347">
        <ele>702</ele>
        <time>2017-09-17T11:27:43Z</time>
      </trkpt>
      <trkpt lat="44.05621" lon="7.58336">
        <ele>703</ele>
        <time>2017-09-17T11:27:44Z</time>
      </trkpt>
      <trkpt lat="44.05618" lon="7.58326">
        <ele>703</ele>
        <time>2017-09-17T11:27:45Z</time>
      </trkpt>
      <trkpt lat="44.05614" lon="7.58317">
        <ele>703</ele>
        <time>2017-09-17T11:27:46Z</time>
      </trkpt>
      <trkpt lat="44.05612" lon="7.58309">
        <ele>703</ele>
        <time>2017-09-17T11:27:47Z</time>
      </trkpt>
      <trkpt lat="44.0561" lon="7.58303">
        <ele>704</ele>
        <time>2017-09-17T11:27:48Z</time>
      </trkpt>
      <trkpt lat="44.05608" lon="7.58298">
        <ele>704</ele>
        <time>2017-09-17T11:27:49Z</time>
      </trkpt>
      <trkpt lat="44.05605" lon="7.58292">
        <ele>704</ele>
        <time>2017-09-17T11:27:50Z</time>
      </trkpt>
      <trkpt lat="44.05602" lon="7.58286">
        <ele>704</ele>
        <time>2017-09-17T11:27:51Z</time>
      </trkpt>
      <trkpt lat="44.05598" lon="7.58279">
        <ele>704</ele>
        <time>2017-09-17T11:27:52Z</time>
      </trkpt>
      <trkpt lat="44.05594" lon="7.58272">
        <ele>704</ele>
        <time>2017-09-17T11:27:53Z</time>
      </trkpt>
      <trkpt lat="44.05589" lon="7.58266">
        <ele>705</ele>
        <time>2017-09-17T11:27:54Z</time>
      </trkpt>
      <trkpt lat="44.05583" lon="7.58259">
        <ele>705</ele>
        <time>2017-09-17T11:27:55Z</time>
      </trkpt>
      <trkpt lat="44.05576" lon="7.58252">
        <ele>705</ele>
        <time>2017-09-17T11:27:56Z</time>
      </trkpt>
      <trkpt lat="44.05569" lon="7.58245">
        <ele>705</ele>
        <time>2017-09-17T11:27:57Z</time>
      </trkpt>
      <trkpt lat="44.05562" lon="7.58238">
        <ele>705</ele>
        <time>2017-09-17T11:27:58Z</time>
      </trkpt>
      <trkpt lat="44.05555" lon="7.5823">
        <ele>705</ele>
        <time>2017-09-17T11:27:59Z</time>
      </trkpt>
      <trkpt lat="44.05547" lon="7.58222">
        <ele>706</ele>
        <time>2017-09-17T11:28:00Z</time>
      </trkpt>
      <trkpt lat="44.0554" lon="7.58214">
        <ele>706</ele>
        <time>2017-09-17T11:28:01Z</time>
      </trkpt>
      <trkpt lat="44.05533" lon="7.58207">
        <ele>706</ele>
        <time>2017-09-17T11:28:02Z</time>
      </trkpt>
      <trkpt lat="44.05527" lon="7.58199">
        <ele>706</ele>
        <time>2017-09-17T11:28:03Z</time>
      </trkpt>
      <trkpt lat="44.05521" lon="7.58189">
        <ele>706</ele>
        <time>2017-09-17T11:28:04Z</time>
      </trkpt>
      <trkpt lat="44.05517" lon="7.58179">
        <ele>706</ele>
        <time>2017-09-17T11:28:05Z</time>
      </trkpt>
      <trkpt lat="44.05514" lon="7.58169">
        <ele>706</ele>
        <time>2017-09-17T11:28:06Z</time>
      </trkpt>
      <trkpt lat="44.05513" lon="7.58159">
        <ele>706</ele>
        <time>2017-09-17T11:28:07Z</time>
      </trkpt>
      <trkpt lat="44.05513" lon="7.5815">
        <ele>706</ele>
        <time>2017-09-17T11:28:08Z</time>
      </trkpt>
      <trkpt lat="44.05513" lon="7.5814">
        <ele>706</ele>
        <time>2017-09-17T11:28:09Z</time>
      </trkpt>
      <trkpt lat="44.05512" lon="7.58129">
        <ele>706</ele>
        <time>2017-09-17T11:28:10Z</time>
      </trkpt>
      <trkpt lat="44.0551" lon="7.58118">
        <ele>706</ele>
        <time>2017-09-17T11:28:11Z</time>
      </trkpt>
      <trkpt lat="44.05507" lon="7.58109">
        <ele>706</ele>
        <time>2017-09-17T11:28:12Z</time>
      </trkpt>
      <trkpt lat="44.05502" lon="7.58101">
        <ele>706</ele>
        <time>2017-09-17T11:28:13Z</time>
      </trkpt>
      <trkpt lat="44.05497" lon="7.58093">
        <ele>706</ele>
        <time>2017-09-17T11:28:14Z</time>
      </trkpt>
      <trkpt lat="44.05491" lon="7.58086">
        <ele>706</ele>
        <time>2017-09-17T11:28:15Z</time>
      </trkpt>
      <trkpt lat="44.05486" lon="7.58078">
        <ele>706</ele>
        <time>2017-09-17T11:28:16Z</time>
      </trkpt>
      <trkpt lat="44.05482" lon="7.58069">
        <ele>706</ele>
        <time>2017-09-17T11:28:17Z</time>
      </trkpt>
      <trkpt lat="44.05478" lon="7.58061">
        <ele>706</ele>
        <time>2017-09-17T11:28:18Z</time>
      </trkpt>
      <trkpt lat="44.05473" lon="7.58054">
        <ele>706</ele>
        <time>2017-09-17T11:28:19Z</time>
      </trkpt>
      <trkpt lat="44.05467" lon="7.58048">
        <ele>707</ele>
        <time>2017-09-17T11:28:20Z</time>
      </trkpt>
      <trkpt lat="44.05461" lon="7.58042">
        <ele>707</ele>
        <time>2017-09-17T11:28:21Z</time>
      </trkpt>
      <trkpt lat="44.05455" lon="7.58036">
        <ele>707</ele>
        <time>2017-09-17T11:28:22Z</time>
      </trkpt>
      <trkpt lat="44.05449" lon="7.5803">
        <ele>707</ele>
        <time>2017-09-17T11:28:23Z</time>
      </trkpt>
      <trkpt lat="44.05443" lon="7.58024">
        <ele>708</ele>
        <time>2017-09-17T11:28:24Z</time>
      </trkpt>
      <trkpt lat="44.05438" lon="7.58016">
        <ele>708</ele>
        <time>2017-09-17T11:28:25Z</time>
      </trkpt>
      <trkpt lat="44.05434" lon="7.58007">
        <ele>709</ele>
        <time>2017-09-17T11:28:26Z</time>
      </trkpt>
      <trkpt lat="44.05433" lon="7.57998">
        <ele>709</ele>
        <time>2017-09-17T11:28:27Z</time>
      </trkpt>
      <trkpt lat="44.05434" lon="7.57989">
        <ele>709</ele>
        <time>2017-09-17T11:28:28Z</time>
      </trkpt>
      <trkpt lat="44.05435" lon="7.57978">
        <ele>709</ele>
        <time>2017-09-17T11:28:29Z</time>
      </trkpt>
      <trkpt lat="44.05437" lon="7.57967">
        <ele>710</ele>
        <time>2017-09-17T11:28:30Z</time>
      </trkpt>
      <trkpt lat="44.05438" lon="7.57955">
        <ele>710</ele>
        <time>2017-09-17T11:28:31Z</time>
      </trkpt>
      <trkpt lat="44.05438" lon="7.57942">
        <ele>710</ele>
        <time>2017-09-17T11:28:32Z</time>
      </trkpt>
      <trkpt lat="44.05438" lon="7.5793">
        <ele>710</ele>
        <time>2017-09-17T11:28:33Z</time>
      </trkpt>
      <trkpt lat="44.05437" lon="7.57917">
        <ele>710</ele>
        <time>2017-09-17T11:28:34Z</time>
      </trkpt>
      <trkpt lat="44.05436" lon="7.57905">
        <ele>710</ele>
        <time>2017-09-17T11:28:35Z</time>
      </trkpt>
      <trkpt lat="44.05436" lon="7.57892">
        <ele>711</ele>
        <time>2017-09-17T11:28:36Z</time>
      </trkpt>
      <trkpt lat="44.05437" lon="7.5788">
        <ele>711</ele>
        <time>2017-09-17T11:28:37Z</time>
      </trkpt>
      <trkpt lat="44.05439" lon="7.57868">
        <ele>711</ele>
        <time>2017-09-17T11:28:38Z</time>
      </trkpt>
      <trkpt lat="44.0544" lon="7.57855">
        <ele>712</ele>
        <time>2017-09-17T11:28:39Z</time>
      </trkpt>
      <trkpt lat="44.05442" lon="7.57843">
        <ele>712</ele>
        <time>2017-09-17T11:28:40Z</time>
      </trkpt>
      <trkpt lat="44.05444" lon="7.5783">
        <ele>713</ele>
        <time>2017-09-17T11:28:41Z</time>
      </trkpt>
      <trkpt lat="44.05445" lon="7.57818">
        <ele>713</ele>
        <time>2017-09-17T11:28:42Z</time>
      </trkpt>
      <trkpt lat="44.05445" lon="7.57805">
        <ele>714</ele>
        <time>2017-09-17T11:28:43Z</time>
      </trkpt>
      <trkpt lat="44.05443" lon="7.57792">
        <ele>714</ele>
        <time>2017-09-17T11:28:44Z</time>
      </trkpt>
      <trkpt lat="44.05441" lon="7.57779">
        <ele>715</ele>
        <time>2017-09-17T11:28:45Z</time>
      </trkpt>
      <trkpt lat="44.05439" lon="7.57765">
        <ele>716</ele>
        <time>2017-09-17T11:28:46Z</time>
      </trkpt>
      <trkpt lat="44.05436" lon="7.57751">
        <ele>716</ele>
        <time>2017-09-17T11:28:47Z</time>
      </trkpt>
      <trkpt lat="44.05433" lon="7.57737">
        <ele>717</ele>
        <time>2017-09-17T11:28:48Z</time>
      </trkpt>
      <trkpt lat="44.0543" lon="7.57723">
        <ele>718</ele>
        <time>2017-09-17T11:28:49Z</time>
      </trkpt>
      <trkpt lat="44.05427" lon="7.57709">
        <ele>719</ele>
        <time>2017-09-17T11:28:50Z</time>
      </trkpt>
      <trkpt lat="44.05424" lon="7.57694">
        <ele>720</ele>
        <time>2017-09-17T11:28:51Z</time>
      </trkpt>
      <trkpt lat="44.05422" lon="7.57678">
        <ele>721</ele>
        <time>2017-09-17T11:28:52Z</time>
      </trkpt>
      <trkpt lat="44.0542" lon="7.57662">
        <ele>722</ele>
        <time>2017-09-17T11:28:53Z</time>
      </trkpt>
      <trkpt lat="44.05421" lon="7.57646">
        <ele>723</ele>
        <time>2017-09-17T11:28:54Z</time>
      </trkpt>
      <trkpt lat="44.05422" lon="7.57629">
        <ele>724</ele>
        <time>2017-09-17T11:28:55Z</time>
      </trkpt>
      <trkpt lat="44.05424" lon="7.57611">
        <ele>725</ele>
        <time>2017-09-17T11:28:56Z</time>
      </trkpt>
      <trkpt lat="44.05425" lon="7.57594">
        <ele>726</ele>
        <time>2017-09-17T11:28:57Z</time>
      </trkpt>
      <trkpt lat="44.05425" lon="7.57577">
        <ele>728</ele>
        <time>2017-09-17T11:28:58Z</time>
      </trkpt>
      <trkpt lat="44.05425" lon="7.5756">
        <ele>729</ele>
        <time>2017-09-17T11:28:59Z</time>
      </trkpt>
      <trkpt lat="44.05424" lon="7.57543">
        <ele>730</ele>
        <time>2017-09-17T11:29:00Z</time>
      </trkpt>
      <trkpt lat="44.05424" lon="7.57527">
        <ele>732</ele>
        <time>2017-09-17T11:29:01Z</time>
      </trkpt>
      <trkpt lat="44.05426" lon="7.57512">
        <ele>733</ele>
        <time>2017-09-17T11:29:02Z</time>
      </trkpt>
      <trkpt lat="44.05428" lon="7.57499">
        <ele>734</ele>
        <time>2017-09-17T11:29:03Z</time>
      </trkpt>
      <trkpt lat="44.05431" lon="7.57486">
        <ele>735</ele>
        <time>2017-09-17T11:29:04Z</time>
      </trkpt>
      <trkpt lat="44.05435" lon="7.57476">
        <ele>736</ele>
        <time>2017-09-17T11:29:05Z</time>
      </trkpt>
      <trkpt lat="44.05438" lon="7.57466">
        <ele>737</ele>
        <time>2017-09-17T11:29:06Z</time>
      </trkpt>
      <trkpt lat="44.0544" lon="7.57457">
        <ele>738</ele>
        <time>2017-09-17T11:29:07Z</time>
      </trkpt>
      <trkpt lat="44.0544" lon="7.57449">
        <ele>739</ele>
        <time>2017-09-17T11:29:08Z</time>
      </trkpt>
      <trkpt lat="44.05438" lon="7.57444">
        <ele>739</ele>
        <time>2017-09-17T11:29:09Z</time>
      </trkpt>
      <trkpt lat="44.05434" lon="7.57443">
        <ele>740</ele>
        <time>2017-09-17T11:29:10Z</time>
      </trkpt>
      <trkpt lat="44.0543" lon="7.57446">
        <ele>740</ele>
        <time>2017-09-17T11:29:11Z</time>
      </trkpt>
      <trkpt lat="44.05425" lon="7.57451">
        <ele>741</ele>
        <time>2017-09-17T11:29:12Z</time>
      </trkpt>
      <trkpt lat="44.05422" lon="7.57459">
        <ele>741</ele>
        <time>2017-09-17T11:29:13Z</time>
      </trkpt>
      <trkpt lat="44.0542" lon="7.57468">
        <ele>742</ele>
        <time>2017-09-17T11:29:14Z</time>
      </trkpt>
      <trkpt lat="44.05417" lon="7.57478">
        <ele>742</ele>
        <time>2017-09-17T11:29:15Z</time>
      </trkpt>
      <trkpt lat="44.05414" lon="7.5749">
        <ele>743</ele>
        <time>2017-09-17T11:29:16Z</time>
      </trkpt>
      <trkpt lat="44.05411" lon="7.57502">
        <ele>744</ele>
        <time>2017-09-17T11:29:17Z</time>
      </trkpt>
      <trkpt lat="44.0541" lon="7.57516">
        <ele>744</ele>
        <time>2017-09-17T11:29:18Z</time>
      </trkpt>
      <trkpt lat="44.05408" lon="7.57528">
        <ele>745</ele>
        <time>2017-09-17T11:29:19Z</time>
      </trkpt>
      <trkpt lat="44.05408" lon="7.5754">
        <ele>745</ele>
        <time>2017-09-17T11:29:20Z</time>
      </trkpt>
      <trkpt lat="44.05407" lon="7.57552">
        <ele>746</ele>
        <time>2017-09-17T11:29:21Z</time>
      </trkpt>
      <trkpt lat="44.05405" lon="7.57562">
        <ele>746</ele>
        <time>2017-09-17T11:29:22Z</time>
      </trkpt>
      <trkpt lat="44.05404" lon="7.5757">
        <ele>747</ele>
        <time>2017-09-17T11:29:23Z</time>
      </trkpt>
      <trkpt lat="44.05403" lon="7.57576">
        <ele>747</ele>
        <time>2017-09-17T11:29:24Z</time>
      </trkpt>
      <trkpt lat="44.05401" lon="7.57579">
        <ele>748</ele>
        <time>2017-09-17T11:29:25Z</time>
      </trkpt>
      <trkpt lat="44.05399" lon="7.57578">
        <ele>748</ele>
        <time>2017-09-17T11:29:26Z</time>
      </trkpt>
      <trkpt lat="44.05398" lon="7.57573">
        <ele>749</ele>
        <time>2017-09-17T11:29:27Z</time>
      </trkpt>
      <trkpt lat="44.05398" lon="7.57566">
        <ele>749</ele>
        <time>2017-09-17T11:29:28Z</time>
      </trkpt>
      <trkpt lat="44.05398" lon="7.57557">
        <ele>750</ele>
        <time>2017-09-17T11:29:29Z</time>
      </trkpt>
      <trkpt lat="44.05399" lon="7.57547">
        <ele>750</ele>
        <time>2017-09-17T11:29:30Z</time>
      </trkpt>
      <trkpt lat="44.054" lon="7.57535">
        <ele>751</ele>
        <time>2017-09-17T11:29:31Z</time>
      </trkpt>
      <trkpt lat="44.054" lon="7.57523">
        <ele>752</ele>
        <time>2017-09-17T11:29:32Z</time>
      </trkpt>
      <trkpt lat="44.054" lon="7.5751">
        <ele>752</ele>
        <time>2017-09-17T11:29:33Z</time>
      </trkpt>
      <trkpt lat="44.05401" lon="7.57495">
        <ele>753</ele>
        <time>2017-09-17T11:29:34Z</time>
      </trkpt>
      <trkpt lat="44.05402" lon="7.57481">
        <ele>754</ele>
        <time>2017-09-17T11:29:35Z</time>
      </trkpt>
      <trkpt lat="44.05403" lon="7.57466">
        <ele>754</ele>
        <time>2017-09-17T11:29:36Z</time>
      </trkpt>
      <trkpt lat="44.05404" lon="7.5745">
        <ele>755</ele>
        <time>2017-09-17T11:29:37Z</time>
      </trkpt>
      <trkpt lat="44.05405" lon="7.57434">
        <ele>755</ele>
        <time>2017-09-17T11:29:38Z</time>
      </trkpt>
      <trkpt lat="44.05406" lon="7.57417">
        <ele>756</ele>
        <time>2017-09-17T11:29:39Z</time>
      </trkpt>
      <trkpt lat="44.05407" lon="7.57399">
        <ele>756</ele>
        <time>2017-09-17T11:29:40Z</time>
      </trkpt>
      <trkpt lat="44.05408" lon="7.57381">
        <ele>757</ele>
        <time>2017-09-17T11:29:41Z</time>
      </trkpt>
      <trkpt lat="44.05408" lon="7.57363">
        <ele>758</ele>
        <time>2017-09-17T11:29:42Z</time>
      </trkpt>
      <trkpt lat="44.05409" lon="7.57345">
        <ele>759</ele>
        <time>2017-09-17T11:29:43Z</time>
      </trkpt>
      <trkpt lat="44.05409" lon="7.57326">
        <ele>760</ele>
        <time>2017-09-17T11:29:44Z</time>
      </trkpt>
      <trkpt lat="44.05411" lon="7.57309">
        <ele>760</ele>
        <time>2017-09-17T11:29:45Z</time>
      </trkpt>
      <trkpt lat="44.05413" lon="7.57292">
        <ele>761</ele>
        <time>2017-09-17T11:29:46Z</time>
      </trkpt>
      <trkpt lat="44.05415" lon="7.57277">
        <ele>762</ele>
        <time>2017-09-17T11:29:47Z</time>
      </trkpt>
      <trkpt lat="44.05417" lon="7.57262">
        <ele>762</ele>
        <time>2017-09-17T11:29:48Z</time>
      </trkpt>
      <trkpt lat="44.0542" lon="7.57248">
        <ele>763</ele>
        <time>2017-09-17T11:29:49Z</time>
      </trkpt>
      <trkpt lat="44.05422" lon="7.57234">
        <ele>763</ele>
        <time>2017-09-17T11:29:50Z</time>
      </trkpt>
      <trkpt lat="44.05424" lon="7.57218">
        <ele>764</ele>
        <time>2017-09-17T11:29:51Z</time>
      </trkpt>
      <trkpt lat="44.05425" lon="7.57203">
        <ele>764</ele>
        <time>2017-09-17T11:29:52Z</time>
      </trkpt>
      <trkpt lat="44.05426" lon="7.57187">
        <ele>764</ele>
        <time>2017-09-17T11:29:53Z</time>
      </trkpt>
      <trkpt lat="44.05429" lon="7.57172">
        <ele>764</ele>
        <time>2017-09-17T11:29:54Z</time>
      </trkpt>
      <trkpt lat="44.05433" lon="7.57157">
        <ele>765</ele>
        <time>2017-09-17T11:29:55Z</time>
      </trkpt>
      <trkpt lat="44.05439" lon="7.57142">
        <ele>765</ele>
        <time>2017-09-17T11:29:56Z</time>
      </trkpt>
      <trkpt lat="44.05446" lon="7.57128">
        <ele>765</ele>
        <time>2017-09-17T11:29:57Z</time>
      </trkpt>
      <trkpt lat="44.05455" lon="7.57113">
        <ele>765</ele>
        <time>2017-09-17T11:29:58Z</time>
      </trkpt>
      <trkpt lat="44.05464" lon="7.57099">
        <ele>766</ele>
        <time>2017-09-17T11:29:59Z</time>
      </trkpt>
      <trkpt lat="44.05473" lon="7.57085">
        <ele>767</ele>
        <time>2017-09-17T11:30:00Z</time>
      </trkpt>
      <trkpt lat="44.05483" lon="7.57072">
        <ele>767</ele>
        <time>2017-09-17T11:30:01Z</time>
      </trkpt>
      <trkpt lat="44.05491" lon="7.57058">
        <ele>768</ele>
        <time>2017-09-17T11:30:02Z</time>
      </trkpt>
      <trkpt lat="44.05498" lon="7.57043">
        <ele>769</ele>
        <time>2017-09-17T11:30:03Z</time>
      </trkpt>
      <trkpt lat="44.05504" lon="7.57027">
        <ele>770</ele>
        <time>2017-09-17T11:30:04Z</time>
      </trkpt>
      <trkpt lat="44.05508" lon="7.57011">
        <ele>771</ele>
        <time>2017-09-17T11:30:05Z</time>
      </trkpt>
      <trkpt lat="44.05512" lon="7.56995">
        <ele>771</ele>
        <time>2017-09-17T11:30:06Z</time>
      </trkpt>
      <trkpt lat="44.05516" lon="7.56979">
        <ele>772</ele>
        <time>2017-09-17T11:30:07Z</time>
      </trkpt>
      <trkpt lat="44.0552" lon="7.56962">
        <ele>773</ele>
        <time>2017-09-17T11:30:08Z</time>
      </trkpt>
      <trkpt lat="44.05525" lon="7.56946">
        <ele>773</ele>
        <time>2017-09-17T11:30:09Z</time>
      </trkpt>
      <trkpt lat="44.05531" lon="7.5693">
        <ele>774</ele>
        <time>2017-09-17T11:30:10Z</time>
      </trkpt>
      <trkpt lat="44.05537" lon="7.56915">
        <ele>775</ele>
        <time>2017-09-17T11:30:11Z</time>
      </trkpt>
      <trkpt lat="44.05545" lon="7.56901">
        <ele>775</ele>
        <time>2017-09-17T11:30:12Z</time>
      </trkpt>
      <trkpt lat="44.05553" lon="7.56888">
        <ele>776</ele>
        <time>2017-09-17T11:30:13Z</time>
      </trkpt>
      <trkpt lat="44.05561" lon="7.56876">
        <ele>777</ele>
        <time>2017-09-17T11:30:14Z</time>
      </trkpt>
      <trkpt lat="44.0557" lon="7.56865">
        <ele>778</ele>
        <time>2017-09-17T11:30:15Z</time>
      </trkpt>
      <trkpt lat="44.05579" lon="7.56856">
        <ele>778</ele>
        <time>2017-09-17T11:30:16Z</time>
      </trkpt>
      <trkpt lat="44.05588" lon="7.56847">
        <ele>779</ele>
        <time>2017-09-17T11:30:17Z</time>
      </trkpt>
      <trkpt lat="44.05597" lon="7.56836">
        <ele>780</ele>
        <time>2017-09-17T11:30:18Z</time>
      </trkpt>
      <trkpt lat="44.05605" lon="7.56824">
        <ele>781</ele>
        <time>2017-09-17T11:30:19Z</time>
      </trkpt>
      <trkpt lat="44.05611" lon="7.56811">
        <ele>782</ele>
        <time>2017-09-17T11:30:20Z</time>
      </trkpt>
      <trkpt lat="44.05616" lon="7.56797">
        <ele>783</ele>
        <time>2017-09-17T11:30:21Z</time>
      </trkpt>
      <trkpt lat="44.0562" lon="7.56782">
        <ele>784</ele>
        <time>2017-09-17T11:30:22Z</time>
      </trkpt>
      <trkpt lat="44.05624" lon="7.56768">
        <ele>785</ele>
        <time>2017-09-17T11:30:23Z</time>
      </trkpt>
      <trkpt lat="44.05628" lon="7.56756">
        <ele>786</ele>
        <time>2017-09-17T11:30:24Z</time>
      </trkpt>
      <trkpt lat="44.05633" lon="7.56744">
        <ele>787</ele>
        <time>2017-09-17T11:30:25Z</time>
      </trkpt>
      <trkpt lat="44.05639" lon="7.56734">
        <ele>788</ele>
        <time>2017-09-17T11:30:26Z</time>
      </trkpt>
      <trkpt lat="44.05645" lon="7.56727">
        <ele>789</ele>
        <time>2017-09-17T11:30:27Z</time>
      </trkpt>
      <trkpt lat="44.05652" lon="7.56723">
        <ele>790</ele>
        <time>2017-09-17T11:30:28Z</time>
      </trkpt>
      <trkpt lat="44.05657" lon="7.56718">
        <ele>791</ele>
        <time>2017-09-17T11:30:29Z</time>
      </trkpt>
      <trkpt lat="44.05662" lon="7.56713">
        <ele>792</ele>
        <time>2017-09-17T11:30:30Z</time>
      </trkpt>
      <trkpt lat="44.05666" lon="7.56708">
        <ele>792</ele>
        <time>2017-09-17T11:30:31Z</time>
      </trkpt>
      <trkpt lat="44.05667" lon="7.56705">
        <ele>793</ele>
        <time>2017-09-17T11:30:32Z</time>
      </trkpt>
      <trkpt lat="44.05665" lon="7.56704">
        <ele>793</ele>
        <time>2017-09-17T11:30:33Z</time>
      </trkpt>
      <trkpt lat="44.0566" lon="7.56706">
        <ele>793</ele>
        <time>2017-09-17T11:30:34Z</time>
      </trkpt>
      <trkpt lat="44.05654" lon="7.56709">
        <ele>794</ele>
        <time>2017-09-17T11:30:35Z</time>
      </trkpt>
      <trkpt lat="44.05648" lon="7.5671">
        <ele>794</ele>
        <time>2017-09-17T11:30:36Z</time>
      </trkpt>
      <trkpt lat="44.05642" lon="7.56709">
        <ele>794</ele>
        <time>2017-09-17T11:30:37Z</time>
      </trkpt>
      <trkpt lat="44.05638" lon="7.56708">
        <ele>794</ele>
        <time>2017-09-17T11:30:38Z</time>
      </trkpt>
      <trkpt lat="44.05636" lon="7.56705">
        <ele>795</ele>
        <time>2017-09-17T11:30:39Z</time>
      </trkpt>
      <trkpt lat="44.05637" lon="7.56701">
        <ele>795</ele>
        <time>2017-09-17T11:30:40Z</time>
      </trkpt>
      <trkpt lat="44.05639" lon="7.56697">
        <ele>796</ele>
        <time>2017-09-17T11:30:41Z</time>
      </trkpt>
      <trkpt lat="44.05644" lon="7.56694">
        <ele>796</ele>
        <time>2017-09-17T11:30:42Z</time>
      </trkpt>
      <trkpt lat="44.0565" lon="7.56691">
        <ele>797</ele>
        <time>2017-09-17T11:30:43Z</time>
      </trkpt>
      <trkpt lat="44.05655" lon="7.5669">
        <ele>797</ele>
        <time>2017-09-17T11:30:44Z</time>
      </trkpt>
      <trkpt lat="44.05661" lon="7.56689">
        <ele>797</ele>
        <time>2017-09-17T11:30:45Z</time>
      </trkpt>
      <trkpt lat="44.05667" lon="7.56688">
        <ele>798</ele>
        <time>2017-09-17T11:30:46Z</time>
      </trkpt>
      <trkpt lat="44.05671" lon="7.56684">
        <ele>798</ele>
        <time>2017-09-17T11:30:47Z</time>
      </trkpt>
      <trkpt lat="44.05673" lon="7.56679">
        <ele>799</ele>
        <time>2017-09-17T11:30:48Z</time>
      </trkpt>
      <trkpt lat="44.05673" lon="7.56675">
        <ele>799</ele>
        <time>2017-09-17T11:30:49Z</time>
      </trkpt>
      <trkpt lat="44.0567" lon="7.56674">
        <ele>800</ele>
        <time>2017-09-17T11:30:50Z</time>
      </trkpt>
      <trkpt lat="44.05665" lon="7.56674">
        <ele>800</ele>
        <time>2017-09-17T11:30:51Z</time>
      </trkpt>
      <trkpt lat="44.05661" lon="7.56673">
        <ele>801</ele>
        <time>2017-09-17T11:30:52Z</time>
      </trkpt>
      <trkpt lat="44.05658" lon="7.5667">
        <ele>801</ele>
        <time>2017-09-17T11:30:53Z</time>
      </trkpt>
      <trkpt lat="44.05657" lon="7.56665">
        <ele>801</ele>
        <time>2017-09-17T11:30:54Z</time>
      </trkpt>
      <trkpt lat="44.05656" lon="7.5666">
        <ele>802</ele>
        <time>2017-09-17T11:30:55Z</time>
      </trkpt>
      <trkpt lat="44.05657" lon="7.56656">
        <ele>802</ele>
        <time>2017-09-17T11:30:56Z</time>
      </trkpt>
      <trkpt lat="44.05661" lon="7.56653">
        <ele>803</ele>
        <time>2017-09-17T11:30:57Z</time>
      </trkpt>
      <trkpt lat="44.05666" lon="7.56651">
        <ele>803</ele>
        <time>2017-09-17T11:30:58Z</time>
      </trkpt>
      <trkpt lat="44.05671" lon="7.56646">
        <ele>803</ele>
        <time>2017-09-17T11:30:59Z</time>
      </trkpt>
      <trkpt lat="44.05675" lon="7.56638">
        <ele>804</ele>
        <time>2017-09-17T11:31:00Z</time>
      </trkpt>
      <trkpt lat="44.05679" lon="7.56628">
        <ele>804</ele>
        <time>2017-09-17T11:31:01Z</time>
      </trkpt>
      <trkpt lat="44.05683" lon="7.56618">
        <ele>805</ele>
        <time>2017-09-17T11:31:02Z</time>
      </trkpt>
      <trkpt lat="44.05687" lon="7.56608">
        <ele>805</ele>
        <time>2017-09-17T11:31:03Z</time>
      </trkpt>
      <trkpt lat="44.05689" lon="7.56598">
        <ele>805</ele>
        <time>2017-09-17T11:31:04Z</time>
      </trkpt>
      <trkpt lat="44.05691" lon="7.56589">
        <ele>806</ele>
        <time>2017-09-17T11:31:05Z</time>
      </trkpt>
      <trkpt lat="44.05693" lon="7.56582">
        <ele>806</ele>
        <time>2017-09-17T11:31:06Z</time>
      </trkpt>
      <trkpt lat="44.05693" lon="7.56577">
        <ele>807</ele>
        <time>2017-09-17T11:31:07Z</time>
      </trkpt>
      <trkpt lat="44.05689" lon="7.56578">
        <ele>807</ele>
        <time>2017-09-17T11:31:08Z</time>
      </trkpt>
      <trkpt lat="44.05682" lon="7.56583">
        <ele>808</ele>
        <time>2017-09-17T11:31:09Z</time>
      </trkpt>
      <trkpt lat="44.05676" lon="7.5659">
        <ele>808</ele>
        <time>2017-09-17T11:31:10Z</time>
      </trkpt>
      <trkpt lat="44.05669" lon="7.56598">
        <ele>809</ele>
        <time>2017-09-17T11:31:11Z</time>
      </trkpt>
      <trkpt lat="44.05663" lon="7.56606">
        <ele>810</ele>
        <time>2017-09-17T11:31:12Z</time>
      </trkpt>
      <trkpt lat="44.05656" lon="7.56614">
        <ele>810</ele>
        <time>2017-09-17T11:31:13Z</time>
      </trkpt>
      <trkpt lat="44.05649" lon="7.56622">
        <ele>811</ele>
        <time>2017-09-17T11:31:14Z</time>
      </trkpt>
      <trkpt lat="44.05642" lon="7.5663">
        <ele>811</ele>
        <time>2017-09-17T11:31:15Z</time>
      </trkpt>
      <trkpt lat="44.05636" lon="7.56638">
        <ele>812</ele>
        <time>2017-09-17T11:31:16Z</time>
      </trkpt>
      <trkpt lat="44.05631" lon="7.56646">
        <ele>812</ele>
        <time>2017-09-17T11:31:17Z</time>
      </trkpt>
      <trkpt lat="44.05627" lon="7.56653">
        <ele>813</ele>
        <time>2017-09-17T11:31:18Z</time>
      </trkpt>
      <trkpt lat="44.05623" lon="7.56658">
        <ele>813</ele>
        <time>2017-09-17T11:31:19Z</time>
      </trkpt>
      <trkpt lat="44.0562" lon="7.5666">
        <ele>814</ele>
        <time>2017-09-17T11:31:20Z</time>
      </trkpt>
      <trkpt lat="44.05616" lon="7.56657">
        <ele>814</ele>
        <time>2017-09-17T11:31:21Z</time>
      </trkpt>
      <trkpt lat="44.05614" lon="7.56652">
        <ele>815</ele>
        <time>2017-09-17T11:31:22Z</time>
      </trkpt>
      <trkpt lat="44.05614" lon="7.56645">
        <ele>815</ele>
        <time>2017-09-17T11:31:23Z</time>
      </trkpt>
      <trkpt lat="44.05615" lon="7.56637">
        <ele>815</ele>
        <time>2017-09-17T11:31:24Z</time>
      </trkpt>
      <trkpt lat="44.05618" lon="7.56628">
        <ele>816</ele>
        <time>2017-09-17T11:31:25Z</time>
      </trkpt>
      <trkpt lat="44.05622" lon="7.56618">
        <ele>816</ele>
        <time>2017-09-17T11:31:26Z</time>
      </trkpt>
      <trkpt lat="44.05628" lon="7.56609">
        <ele>817</ele>
        <time>2017-09-17T11:31:27Z</time>
      </trkpt>
      <trkpt lat="44.05635" lon="7.56598">
        <ele>817</ele>
        <time>2017-09-17T11:31:28Z</time>
      </trkpt>
      <trkpt lat="44.0564" lon="7.56586">
        <ele>817</ele>
        <time>2017-09-17T11:31:29Z</time>
      </trkpt>
      <trkpt lat="44.05645" lon="7.56573">
        <ele>818</ele>
        <time>2017-09-17T11:31:30Z</time>
      </trkpt>
      <trkpt lat="44.0565" lon="7.56559">
        <ele>818</ele>
        <time>2017-09-17T11:31:31Z</time>
      </trkpt>
      <trkpt lat="44.05656" lon="7.56544">
        <ele>819</ele>
        <time>2017-09-17T11:31:32Z</time>
      </trkpt>
      <trkpt lat="44.0566" lon="7.56529">
        <ele>820</ele>
        <time>2017-09-17T11:31:33Z</time>
      </trkpt>
      <trkpt lat="44.05665" lon="7.56515">
        <ele>820</ele>
        <time>2017-09-17T11:31:34Z</time>
      </trkpt>
      <trkpt lat="44.0567" lon="7.565">
        <ele>821</ele>
        <time>2017-09-17T11:31:35Z</time>
      </trkpt>
      <trkpt lat="44.05674" lon="7.56485">
        <ele>822</ele>
        <time>2017-09-17T11:31:36Z</time>
      </trkpt>
      <trkpt lat="44.05678" lon="7.5647">
        <ele>823</ele>
        <time>2017-09-17T11:31:37Z</time>
      </trkpt>
      <trkpt lat="44.05681" lon="7.56456">
        <ele>824</ele>
        <time>2017-09-17T11:31:38Z</time>
      </trkpt>
      <trkpt lat="44.05685" lon="7.56442">
        <ele>824</ele>
        <time>2017-09-17T11:31:39Z</time>
      </trkpt>
      <trkpt lat="44.05689" lon="7.56428">
        <ele>825</ele>
        <time>2017-09-17T11:31:40Z</time>
      </trkpt>
      <trkpt lat="44.05694" lon="7.56416">
        <ele>826</ele>
        <time>2017-09-17T11:31:41Z</time>
      </trkpt>
      <trkpt lat="44.057" lon="7.56404">
        <ele>826</ele>
        <time>2017-09-17T11:31:42Z</time>
      </trkpt>
      <trkpt lat="44.05707" lon="7.56394">
        <ele>827</ele>
        <time>2017-09-17T11:31:43Z</time>
      </trkpt>
      <trkpt lat="44.05714" lon="7.56384">
        <ele>828</ele>
        <time>2017-09-17T11:31:44Z</time>
      </trkpt>
      <trkpt lat="44.0572" lon="7.56372">
        <ele>829</ele>
        <time>2017-09-17T11:31:45Z</time>
      </trkpt>
      <trkpt lat="44.05726" lon="7.56359">
        <ele>829</ele>
        <time>2017-09-17T11:31:46Z</time>
      </trkpt>
      <trkpt lat="44.0573" lon="7.56345">
        <ele>830</ele>
        <time>2017-09-17T11:31:47Z</time>
      </trkpt>
      <trkpt lat="44.05733" lon="7.5633">
        <ele>832</ele>
        <time>2017-09-17T11:31:48Z</time>
      </trkpt>
      <trkpt lat="44.05736" lon="7.56314">
        <ele>833</ele>
        <time>2017-09-17T11:31:49Z</time>
      </trkpt>
      <trkpt lat="44.05739" lon="7.56297">
        <ele>834</ele>
        <time>2017-09-17T11:31:50Z</time>
      </trkpt>
      <trkpt lat="44.05744" lon="7.56281">
        <ele>835</ele>
        <time>2017-09-17T11:31:51Z</time>
      </trkpt>
      <trkpt lat="44.05749" lon="7.56266">
        <ele>837</ele>
        <time>2017-09-17T11:31:52Z</time>
      </trkpt>
      <trkpt lat="44.05754" lon="7.5625">
        <ele>838</ele>
        <time>2017-09-17T11:31:53Z</time>
      </trkpt>
      <trkpt lat="44.05759" lon="7.56235">
        <ele>839</ele>
        <time>2017-09-17T11:31:54Z</time>
      </trkpt>
      <trkpt lat="44.05765" lon="7.56221">
        <ele>841</ele>
        <time>2017-09-17T11:31:55Z</time>
      </trkpt>
      <trkpt lat="44.05771" lon="7.56208">
        <ele>842</ele>
        <time>2017-09-17T11:31:56Z</time>
      </trkpt>
      <trkpt lat="44.05778" lon="7.56196">
        <ele>844</ele>
        <time>2017-09-17T11:31:57Z</time>
      </trkpt>
      <trkpt lat="44.05786" lon="7.56186">
        <ele>845</ele>
        <time>2017-09-17T11:31:58Z</time>
      </trkpt>
      <trkpt lat="44.05795" lon="7.56177">
        <ele>847</ele>
        <time>2017-09-17T11:31:59Z</time>
      </trkpt>
      <trkpt lat="44.05805" lon="7.56168">
        <ele>849</ele>
        <time>2017-09-17T11:32:00Z</time>
      </trkpt>
      <trkpt lat="44.05814" lon="7.56159">
        <ele>851</ele>
        <time>2017-09-17T11:32:01Z</time>
      </trkpt>
      <trkpt lat="44.05823" lon="7.56151">
        <ele>853</ele>
        <time>2017-09-17T11:32:02Z</time>
      </trkpt>
      <trkpt lat="44.05831" lon="7.56142">
        <ele>855</ele>
        <time>2017-09-17T11:32:03Z</time>
      </trkpt>
      <trkpt lat="44.05839" lon="7.56133">
        <ele>856</ele>
        <time>2017-09-17T11:32:04Z</time>
      </trkpt>
      <trkpt lat="44.05847" lon="7.56122">
        <ele>858</ele>
        <time>2017-09-17T11:32:05Z</time>
      </trkpt>
      <trkpt lat="44.05854" lon="7.5611">
        <ele>859</ele>
        <time>2017-09-17T11:32:06Z</time>
      </trkpt>
      <trkpt lat="44.05859" lon="7.56097">
        <ele>860</ele>
        <time>2017-09-17T11:32:07Z</time>
      </trkpt>
      <trkpt lat="44.05861" lon="7.56081">
        <ele>862</ele>
        <time>2017-09-17T11:32:08Z</time>
      </trkpt>
      <trkpt lat="44.05863" lon="7.56064">
        <ele>863</ele>
        <time>2017-09-17T11:32:09Z</time>
      </trkpt>
      <trkpt lat="44.05864" lon="7.56048">
        <ele>865</ele>
        <time>2017-09-17T11:32:10Z</time>
      </trkpt>
      <trkpt lat="44.05866" lon="7.56031">
        <ele>866</ele>
        <time>2017-09-17T11:32:11Z</time>
      </trkpt>
      <trkpt lat="44.05868" lon="7.56015">
        <ele>868</ele>
        <time>2017-09-17T11:32:12Z</time>
      </trkpt>
      <trkpt lat="44.05871" lon="7.56">
        <ele>869</ele>
        <time>2017-09-17T11:32:13Z</time>
      </trkpt>
      <trkpt lat="44.05876" lon="7.55985">
        <ele>871</ele>
        <time>2017-09-17T11:32:14Z</time>
      </trkpt>
      <trkpt lat="44.05883" lon="7.55971">
        <ele>872</ele>
        <time>2017-09-17T11:32:15Z</time>
      </trkpt>
      <trkpt lat="44.05891" lon="7.55957">
        <ele>874</ele>
        <time>2017-09-17T11:32:16Z</time>
      </trkpt>
      <trkpt lat="44.059" lon="7.55944">
        <ele>875</ele>
        <time>2017-09-17T11:32:17Z</time>
      </trkpt>
      <trkpt lat="44.05909" lon="7.55932">
        <ele>877</ele>
        <time>2017-09-17T11:32:18Z</time>
      </trkpt>
      <trkpt lat="44.05919" lon="7.55921">
        <ele>878</ele>
        <time>2017-09-17T11:32:19Z</time>
      </trkpt>
      <trkpt lat="44.05929" lon="7.55911">
        <ele>880</ele>
        <time>2017-09-17T11:32:20Z</time>
      </trkpt>
      <trkpt lat="44.0594" lon="7.55903">
        <ele>881</ele>
        <time>2017-09-17T11:32:21Z</time>
      </trkpt>
      <trkpt lat="44.05952" lon="7.55896">
        <ele>883</ele>
        <time>2017-09-17T11:32:22Z</time>
      </trkpt>
      <trkpt lat="44.05964" lon="7.55891">
        <ele>884</ele>
        <time>2017-09-17T11:32:23Z</time>
      </trkpt>
      <trkpt lat="44.05976" lon="7.55887">
        <ele>886</ele>
        <time>2017-09-17T11:32:24Z</time>
      </trkpt>
      <trkpt lat="44.05988" lon="7.55883">
        <ele>888</ele>
        <time>2017-09-17T11:32:25Z</time>
      </trkpt>
      <trkpt lat="44.06001" lon="7.5588">
        <ele>890</ele>
        <time>2017-09-17T11:32:26Z</time>
      </trkpt>
      <trkpt lat="44.06012" lon="7.55877">
        <ele>892</ele>
        <time>2017-09-17T11:32:27Z</time>
      </trkpt>
      <trkpt lat="44.06023" lon="7.55874">
        <ele>893</ele>
        <time>2017-09-17T11:32:28Z</time>
      </trkpt>
      <trkpt lat="44.06032" lon="7.5587">
        <ele>895</ele>
        <time>2017-09-17T11:32:29Z</time>
      </trkpt>
      <trkpt lat="44.06041" lon="7.55866">
        <ele>896</ele>
        <time>2017-09-17T11:32:30Z</time>
      </trkpt>
      <trkpt lat="44.06048" lon="7.55862">
        <ele>898</ele>
        <time>2017-09-17T11:32:31Z</time>
      </trkpt>
      <trkpt lat="44.06054" lon="7.55858">
        <ele>899</ele>
        <time>2017-09-17T11:32:32Z</time>
      </trkpt>
      <trkpt lat="44.0606" lon="7.55851">
        <ele>900</ele>
        <time>2017-09-17T11:32:33Z</time>
      </trkpt>
      <trkpt lat="44.06063" lon="7.55844">
        <ele>901</ele>
        <time>2017-09-17T11:32:34Z</time>
      </trkpt>
      <trkpt lat="44.06065" lon="7.55837">
        <ele>902</ele>
        <time>2017-09-17T11:32:35Z</time>
      </trkpt>
      <trkpt lat="44.06062" lon="7.5583">
        <ele>903</ele>
        <time>2017-09-17T11:32:36Z</time>
      </trkpt>
      <trkpt lat="44.06056" lon="7.55825">
        <ele>903</ele>
        <time>2017-09-17T11:32:37Z</time>
      </trkpt>
      <trkpt lat="44.06048" lon="7.55819">
        <ele>904</ele>
        <time>2017-09-17T11:32:38Z</time>
      </trkpt>
      <trkpt lat="44.06039" lon="7.55813">
        <ele>905</ele>
        <time>2017-09-17T11:32:39Z</time>
      </trkpt>
      <trkpt lat="44.06031" lon="7.55807">
        <ele>905</ele>
        <time>2017-09-17T11:32:40Z</time>
      </trkpt>
      <trkpt lat="44.06025" lon="7.55799">
        <ele>906</ele>
        <time>2017-09-17T11:32:41Z</time>
      </trkpt>
      <trkpt lat="44.0602" lon="7.55792">
        <ele>906</ele>
        <time>2017-09-17T11:32:42Z</time>
      </trkpt>
      <trkpt lat="44.06017" lon="7.55784">
        <ele>907</ele>
        <time>2017-09-17T11:32:43Z</time>
      </trkpt>
      <trkpt lat="44.06015" lon="7.55777">
        <ele>907</ele>
        <time>2017-09-17T11:32:44Z</time>
      </trkpt>
      <trkpt lat="44.06017" lon="7.55772">
        <ele>908</ele>
        <time>2017-09-17T11:32:45Z</time>
      </trkpt>
      <trkpt lat="44.06023" lon="7.55771">
        <ele>908</ele>
        <time>2017-09-17T11:32:46Z</time>
      </trkpt>
      <trkpt lat="44.06031" lon="7.55771">
        <ele>909</ele>
        <time>2017-09-17T11:32:47Z</time>
      </trkpt>
      <trkpt lat="44.0604" lon="7.55771">
        <ele>909</ele>
        <time>2017-09-17T11:32:48Z</time>
      </trkpt>
      <trkpt lat="44.06049" lon="7.55768">
        <ele>909</ele>
        <time>2017-09-17T11:32:49Z</time>
      </trkpt>
      <trkpt lat="44.06059" lon="7.55762">
        <ele>910</ele>
        <time>2017-09-17T11:32:50Z</time>
      </trkpt>
      <trkpt lat="44.06068" lon="7.55755">
        <ele>910</ele>
        <time>2017-09-17T11:32:51Z</time>
      </trkpt>
      <trkpt lat="44.06076" lon="7.55749">
        <ele>911</ele>
        <time>2017-09-17T11:32:52Z</time>
      </trkpt>
      <trkpt lat="44.06084" lon="7.55741">
        <ele>911</ele>
        <time>2017-09-17T11:32:53Z</time>
      </trkpt>
      <trkpt lat="44.06092" lon="7.55734">
        <ele>912</ele>
        <time>2017-09-17T11:32:54Z</time>
      </trkpt>
      <trkpt lat="44.06101" lon="7.55728">
        <ele>913</ele>
        <time>2017-09-17T11:32:55Z</time>
      </trkpt>
      <trkpt lat="44.06111" lon="7.55723">
        <ele>913</ele>
        <time>2017-09-17T11:32:56Z</time>
      </trkpt>
      <trkpt lat="44.06121" lon="7.55719">
        <ele>914</ele>
        <time>2017-09-17T11:32:57Z</time>
      </trkpt>
      <trkpt lat="44.06132" lon="7.55712">
        <ele>915</ele>
        <time>2017-09-17T11:32:58Z</time>
      </trkpt>
      <trkpt lat="44.06142" lon="7.55703">
        <ele>916</ele>
        <time>2017-09-17T11:32:59Z</time>
      </trkpt>
      <trkpt lat="44.06151" lon="7.55692">
        <ele>916</ele>
        <time>2017-09-17T11:33:00Z</time>
      </trkpt>
      <trkpt lat="44.06161" lon="7.55682">
        <ele>917</ele>
        <time>2017-09-17T11:33:01Z</time>
      </trkpt>
      <trkpt lat="44.0617" lon="7.55673">
        <ele>917</ele>
        <time>2017-09-17T11:33:02Z</time>
      </trkpt>
      <trkpt lat="44.06181" lon="7.55664">
        <ele>918</ele>
        <time>2017-09-17T11:33:03Z</time>
      </trkpt>
      <trkpt lat="44.06192" lon="7.55656">
        <ele>919</ele>
        <time>2017-09-17T11:33:04Z</time>
      </trkpt>
      <trkpt lat="44.06203" lon="7.55647">
        <ele>919</ele>
        <time>2017-09-17T11:33:05Z</time>
      </trkpt>
      <trkpt lat="44.06213" lon="7.55637">
        <ele>920</ele>
        <time>2017-09-17T11:33:06Z</time>
      </trkpt>
      <trkpt lat="44.06223" lon="7.55627">
        <ele>920</ele>
        <time>2017-09-17T11:33:07Z</time>
      </trkpt>
      <trkpt lat="44.06233" lon="7.55616">
        <ele>921</ele>
        <time>2017-09-17T11:33:08Z</time>
      </trkpt>
      <trkpt lat="44.06242" lon="7.55604">
        <ele>922</ele>
        <time>2017-09-17T11:33:09Z</time>
      </trkpt>
      <trkpt lat="44.06251" lon="7.55591">
        <ele>923</ele>
        <time>2017-09-17T11:33:10Z</time>
      </trkpt>
      <trkpt lat="44.0626" lon="7.55577">
        <ele>924</ele>
        <time>2017-09-17T11:33:11Z</time>
      </trkpt>
      <trkpt lat="44.06267" lon="7.55562">
        <ele>925</ele>
        <time>2017-09-17T11:33:12Z</time>
      </trkpt>
      <trkpt lat="44.06275" lon="7.55548">
        <ele>925</ele>
        <time>2017-09-17T11:33:13Z</time>
      </trkpt>
      <trkpt lat="44.06283" lon="7.55534">
        <ele>926</ele>
        <time>2017-09-17T11:33:14Z</time>
      </trkpt>
      <trkpt lat="44.06292" lon="7.5552">
        <ele>927</ele>
        <time>2017-09-17T11:33:15Z</time>
      </trkpt>
      <trkpt lat="44.06301" lon="7.55506">
        <ele>927</ele>
        <time>2017-09-17T11:33:16Z</time>
      </trkpt>
      <trkpt lat="44.0631" lon="7.55493">
        <ele>928</ele>
        <time>2017-09-17T11:33:17Z</time>
      </trkpt>
      <trkpt lat="44.06319" lon="7.55481">
        <ele>929</ele>
        <time>2017-09-17T11:33:18Z</time>
      </trkpt>
      <trkpt lat="44.06328" lon="7.55469">
        <ele>931</ele>
        <time>2017-09-17T11:33:19Z</time>
      </trkpt>
      <trkpt lat="44.06337" lon="7.55457">
        <ele>932</ele>
        <time>2017-09-17T11:33:20Z</time>
      </trkpt>
      <trkpt lat="44.06345" lon="7.55444">
        <ele>934</ele>
        <time>2017-09-17T11:33:21Z</time>
      </trkpt>
      <trkpt lat="44.06352" lon="7.55431">
        <ele>936</ele>
        <time>2017-09-17T11:33:22Z</time>
      </trkpt>
      <trkpt lat="44.06359" lon="7.55419">
        <ele>938</ele>
        <time>2017-09-17T11:33:23Z</time>
      </trkpt>
      <trkpt lat="44.06366" lon="7.55408">
        <ele>940</ele>
        <time>2017-09-17T11:33:24Z</time>
      </trkpt>
      <trkpt lat="44.06373" lon="7.55398">
        <ele>941</ele>
        <time>2017-09-17T11:33:25Z</time>
      </trkpt>
      <trkpt lat="44.06378" lon="7.55389">
        <ele>943</ele>
        <time>2017-09-17T11:33:26Z</time>
      </trkpt>
      <trkpt lat="44.06384" lon="7.5538">
        <ele>945</ele>
        <time>2017-09-17T11:33:27Z</time>
      </trkpt>
      <trkpt lat="44.06388" lon="7.55371">
        <ele>946</ele>
        <time>2017-09-17T11:33:28Z</time>
      </trkpt>
      <trkpt lat="44.06391" lon="7.55362">
        <ele>948</ele>
        <time>2017-09-17T11:33:29Z</time>
      </trkpt>
      <trkpt lat="44.06392" lon="7.55351">
        <ele>949</ele>
        <time>2017-09-17T11:33:30Z</time>
      </trkpt>
      <trkpt lat="44.06391" lon="7.55339">
        <ele>951</ele>
        <time>2017-09-17T11:33:31Z</time>
      </trkpt>
      <trkpt lat="44.06392" lon="7.55327">
        <ele>952</ele>
        <time>2017-09-17T11:33:32Z</time>
      </trkpt>
      <trkpt lat="44.06393" lon="7.55315">
        <ele>953</ele>
        <time>2017-09-17T11:33:33Z</time>
      </trkpt>
      <trkpt lat="44.06395" lon="7.55303">
        <ele>955</ele>
        <time>2017-09-17T11:33:34Z</time>
      </trkpt>
      <trkpt lat="44.06398" lon="7.55292">
        <ele>956</ele>
        <time>2017-09-17T11:33:35Z</time>
      </trkpt>
      <trkpt lat="44.06402" lon="7.5528">
        <ele>957</ele>
        <time>2017-09-17T11:33:36Z</time>
      </trkpt>
      <trkpt lat="44.06407" lon="7.5527">
        <ele>958</ele>
        <time>2017-09-17T11:33:37Z</time>
      </trkpt>
      <trkpt lat="44.06413" lon="7.55261">
        <ele>960</ele>
        <time>2017-09-17T11:33:38Z</time>
      </trkpt>
      <trkpt lat="44.06418" lon="7.55254">
        <ele>961</ele>
        <time>2017-09-17T11:33:39Z</time>
      </trkpt>
      <trkpt lat="44.06424" lon="7.55249">
        <ele>962</ele>
        <time>2017-09-17T11:33:40Z</time>
      </trkpt>
      <trkpt lat="44.0643" lon="7.55247">
        <ele>962</ele>
        <time>2017-09-17T11:33:41Z</time>
      </trkpt>
      <trkpt lat="44.06436" lon="7.55244">
        <ele>963</ele>
        <time>2017-09-17T11:33:42Z</time>
      </trkpt>
      <trkpt lat="44.06441" lon="7.5524">
        <ele>964</ele>
        <time>2017-09-17T11:33:43Z</time>
      </trkpt>
      <trkpt lat="44.06445" lon="7.55235">
        <ele>964</ele>
        <time>2017-09-17T11:33:44Z</time>
      </trkpt>
      <trkpt lat="44.06446" lon="7.55229">
        <ele>965</ele>
        <time>2017-09-17T11:33:45Z</time>
      </trkpt>
      <trkpt lat="44.06445" lon="7.55225">
        <ele>965</ele>
        <time>2017-09-17T11:33:46Z</time>
      </trkpt>
      <trkpt lat="44.06441" lon="7.55224">
        <ele>966</ele>
        <time>2017-09-17T11:33:47Z</time>
      </trkpt>
      <trkpt lat="44.06435" lon="7.55225">
        <ele>966</ele>
        <time>2017-09-17T11:33:48Z</time>
      </trkpt>
      <trkpt lat="44.06428" lon="7.55227">
        <ele>966</ele>
        <time>2017-09-17T11:33:49Z</time>
      </trkpt>
      <trkpt lat="44.0642" lon="7.5523">
        <ele>966</ele>
        <time>2017-09-17T11:33:50Z</time>
      </trkpt>
      <trkpt lat="44.06411" lon="7.55232">
        <ele>967</ele>
        <time>2017-09-17T11:33:51Z</time>
      </trkpt>
      <trkpt lat="44.06402" lon="7.55237">
        <ele>967</ele>
        <time>2017-09-17T11:33:52Z</time>
      </trkpt>
      <trkpt lat="44.06393" lon="7.55243">
        <ele>967</ele>
        <time>2017-09-17T11:33:53Z</time>
      </trkpt>
      <trkpt lat="44.06385" lon="7.5525">
        <ele>967</ele>
        <time>2017-09-17T11:33:54Z</time>
      </trkpt>
      <trkpt lat="44.06376" lon="7.55258">
        <ele>968</ele>
        <time>2017-09-17T11:33:55Z</time>
      </trkpt>
      <trkpt lat="44.06367" lon="7.55266">
        <ele>968</ele>
        <time>2017-09-17T11:33:56Z</time>
      </trkpt>
      <trkpt lat="44.06358" lon="7.55273">
        <ele>968</ele>
        <time>2017-09-17T11:33:57Z</time>
      </trkpt>
      <trkpt lat="44.06348" lon="7.55279">
        <ele>969</ele>
        <time>2017-09-17T11:33:58Z</time>
      </trkpt>
      <trkpt lat="44.0634" lon="7.55285">
        <ele>969</ele>
        <time>2017-09-17T11:33:59Z</time>
      </trkpt>
      <trkpt lat="44.06332" lon="7.5529">
        <ele>970</ele>
        <time>2017-09-17T11:34:00Z</time>
      </trkpt>
      <trkpt lat="44.06322" lon="7.55296">
        <ele>970</ele>
        <time>2017-09-17T11:34:01Z</time>
      </trkpt>
      <trkpt lat="44.06313" lon="7.55303">
        <ele>970</ele>
        <time>2017-09-17T11:34:02Z</time>
      </trkpt>
      <trkpt lat="44.06304" lon="7.55309">
        <ele>971</ele>
        <time>2017-09-17T11:34:03Z</time>
      </trkpt>
      <trkpt lat="44.06296" lon="7.55314">
        <ele>971</ele>
        <time>2017-09-17T11:34:04Z</time>
      </trkpt>
      <trkpt lat="44.06289" lon="7.55321">
        <ele>972</ele>
        <time>2017-09-17T11:34:05Z</time>
      </trkpt>
      <trkpt lat="44.06281" lon="7.55327">
        <ele>973</ele>
        <time>2017-09-17T11:34:06Z</time>
      </trkpt>
      <trkpt lat="44.06273" lon="7.55332">
        <ele>973</ele>
        <time>2017-09-17T11:34:07Z</time>
      </trkpt>
      <trkpt lat="44.06267" lon="7.55338">
        <ele>974</ele>
        <time>2017-09-17T11:34:08Z</time>
      </trkpt>
      <trkpt lat="44.06261" lon="7.55342">
        <ele>974</ele>
        <time>2017-09-17T11:34:09Z</time>
      </trkpt>
      <trkpt lat="44.06255" lon="7.55347">
        <ele>975</ele>
        <time>2017-09-17T11:34:10Z</time>
      </trkpt>
      <trkpt lat="44.0625" lon="7.55351">
        <ele>975</ele>
        <time>2017-09-17T11:34:11Z</time>
      </trkpt>
      <trkpt lat="44.06246" lon="7.55353">
        <ele>975</ele>
        <time>2017-09-17T11:34:12Z</time>
      </trkpt>
      <trkpt lat="44.06242" lon="7.55353">
        <ele>976</ele>
        <time>2017-09-17T11:34:13Z</time>
      </trkpt>
      <trkpt lat="44.06239" lon="7.5535">
        <ele>976</ele>
        <time>2017-09-17T11:34:14Z</time>
      </trkpt>
      <trkpt lat="44.06238" lon="7.55347">
        <ele>976</ele>
        <time>2017-09-17T11:34:15Z</time>
      </trkpt>
      <trkpt lat="44.06239" lon="7.55343">
        <ele>976</ele>
        <time>2017-09-17T11:34:16Z</time>
      </trkpt>
      <trkpt lat="44.06243" lon="7.55341">
        <ele>977</ele>
        <time>2017-09-17T11:34:17Z</time>
      </trkpt>
      <trkpt lat="44.06248" lon="7.55337">
        <ele>977</ele>
        <time>2017-09-17T11:34:18Z</time>
      </trkpt>
      <trkpt lat="44.06254" lon="7.55332">
        <ele>977</ele>
        <time>2017-09-17T11:34:19Z</time>
      </trkpt>
      <trkpt lat="44.06262" lon="7.55326">
        <ele>978</ele>
        <time>2017-09-17T11:34:20Z</time>
      </trkpt>
      <trkpt lat="44.0627" lon="7.55318">
        <ele>978</ele>
        <time>2017-09-17T11:34:21Z</time>
      </trkpt>
      <trkpt lat="44.06278" lon="7.5531">
        <ele>979</ele>
        <time>2017-09-17T11:34:22Z</time>
      </trkpt>
      <trkpt lat="44.06286" lon="7.553">
        <ele>979</ele>
        <time>2017-09-17T11:34:23Z</time>
      </trkpt>
      <trkpt lat="44.06293" lon="7.5529">
        <ele>980</ele>
        <time>2017-09-17T11:34:24Z</time>
      </trkpt>
      <trkpt lat="44.063" lon="7.5528">
        <ele>981</ele>
        <time>2017-09-17T11:34:25Z</time>
      </trkpt>
      <trkpt lat="44.06308" lon="7.55269">
        <ele>981</ele>
        <time>2017-09-17T11:34:26Z</time>
      </trkpt>
      <trkpt lat="44.06316" lon="7.55258">
        <ele>982</ele>
        <time>2017-09-17T11:34:27Z</time>
      </trkpt>
      <trkpt lat="44.06324" lon="7.55248">
        <ele>983</ele>
        <time>2017-09-17T11:34:28Z</time>
      </trkpt>
      <trkpt lat="44.06333" lon="7.55238">
        <ele>983</ele>
        <time>2017-09-17T11:34:29Z</time>
      </trkpt>
      <trkpt lat="44.06342" lon="7.55228">
        <ele>984</ele>
        <time>2017-09-17T11:34:30Z</time>
      </trkpt>
      <trkpt lat="44.06351" lon="7.55218">
        <ele>985</ele>
        <time>2017-09-17T11:34:31Z</time>
      </trkpt>
      <trkpt lat="44.0636" lon="7.55208">
        <ele>986</ele>
        <time>2017-09-17T11:34:32Z</time>
      </trkpt>
      <trkpt lat="44.06369" lon="7.55197">
        <ele>986</ele>
        <time>2017-09-17T11:34:33Z</time>
      </trkpt>
      <trkpt lat="44.06376" lon="7.55186">
        <ele>987</ele>
        <time>2017-09-17T11:34:34Z</time>
      </trkpt>
      <trkpt lat="44.06383" lon="7.55173">
        <ele>988</ele>
        <time>2017-09-17T11:34:35Z</time>
      </trkpt>
      <trkpt lat="44.06389" lon="7.5516">
        <ele>989</ele>
        <time>2017-09-17T11:34:36Z</time>
      </trkpt>
      <trkpt lat="44.06394" lon="7.55147">
        <ele>991</ele>
        <time>2017-09-17T11:34:37Z</time>
      </trkpt>
      <trkpt lat="44.064" lon="7.55135">
        <ele>992</ele>
        <time>2017-09-17T11:34:38Z</time>
      </trkpt>
      <trkpt lat="44.06404" lon="7.55124">
        <ele>993</ele>
        <time>2017-09-17T11:34:39Z</time>
      </trkpt>
      <trkpt lat="44.06409" lon="7.55114">
        <ele>995</ele>
        <time>2017-09-17T11:34:40Z</time>
      </trkpt>
      <trkpt lat="44.06414" lon="7.55106">
        <ele>996</ele>
        <time>2017-09-17T11:34:41Z</time>
      </trkpt>
      <trkpt lat="44.06419" lon="7.55099">
        <ele>997</ele>
        <time>2017-09-17T11:34:42Z</time>
      </trkpt>
      <trkpt lat="44.06427" lon="7.55095">
        <ele>998</ele>
        <time>2017-09-17T11:34:43Z</time>
      </trkpt>
      <trkpt lat="44.06435" lon="7.55091">
        <ele>999</ele>
        <time>2017-09-17T11:34:44Z</time>
      </trkpt>
      <trkpt lat="44.06444" lon="7.55087">
        <ele>1000</ele>
        <time>2017-09-17T11:34:45Z</time>
      </trkpt>
      <trkpt lat="44.06452" lon="7.55084">
        <ele>1001</ele>
        <time>2017-09-17T11:34:46Z</time>
      </trkpt>
      <trkpt lat="44.06462" lon="7.55079">
        <ele>1002</ele>
        <time>2017-09-17T11:34:47Z</time>
      </trkpt>
      <trkpt lat="44.0647" lon="7.55074">
        <ele>1003</ele>
        <time>2017-09-17T11:34:48Z</time>
      </trkpt>
      <trkpt lat="44.06478" lon="7.55068">
        <ele>1005</ele>
        <time>2017-09-17T11:34:49Z</time>
      </trkpt>
      <trkpt lat="44.06486" lon="7.55061">
        <ele>1006</ele>
        <time>2017-09-17T11:34:50Z</time>
      </trkpt>
      <trkpt lat="44.06494" lon="7.55056">
        <ele>1007</ele>
        <time>2017-09-17T11:34:51Z</time>
      </trkpt>
      <trkpt lat="44.06503" lon="7.55051">
        <ele>1008</ele>
        <time>2017-09-17T11:34:52Z</time>
      </trkpt>
      <trkpt lat="44.06511" lon="7.55049">
        <ele>1010</ele>
        <time>2017-09-17T11:34:53Z</time>
      </trkpt>
      <trkpt lat="44.0652" lon="7.55049">
        <ele>1011</ele>
        <time>2017-09-17T11:34:54Z</time>
      </trkpt>
      <trkpt lat="44.06528" lon="7.55051">
        <ele>1012</ele>
        <time>2017-09-17T11:34:55Z</time>
      </trkpt>
      <trkpt lat="44.06536" lon="7.55054">
        <ele>1013</ele>
        <time>2017-09-17T11:34:56Z</time>
      </trkpt>
      <trkpt lat="44.06545" lon="7.55057">
        <ele>1014</ele>
        <time>2017-09-17T11:34:57Z</time>
      </trkpt>
      <trkpt lat="44.06553" lon="7.5506">
        <ele>1015</ele>
        <time>2017-09-17T11:34:58Z</time>
      </trkpt>
      <trkpt lat="44.06561" lon="7.55061">
        <ele>1017</ele>
        <time>2017-09-17T11:34:59Z</time>
      </trkpt>
      <trkpt lat="44.06569" lon="7.5506">
        <ele>1018</ele>
        <time>2017-09-17T11:35:00Z</time>
      </trkpt>
      <trkpt lat="44.06573" lon="7.55056">
        <ele>1020</ele>
        <time>2017-09-17T11:35:01Z</time>
      </trkpt>
      <trkpt lat="44.06576" lon="7.55051">
        <ele>1021</ele>
        <time>2017-09-17T11:35:02Z</time>
      </trkpt>
      <trkpt lat="44.06576" lon="7.55046">
        <ele>1022</ele>
        <time>2017-09-17T11:35:03Z</time>
      </trkpt>
      <trkpt lat="44.06573" lon="7.55042">
        <ele>1023</ele>
        <time>2017-09-17T11:35:04Z</time>
      </trkpt>
      <trkpt lat="44.06568" lon="7.55039">
        <ele>1024</ele>
        <time>2017-09-17T11:35:05Z</time>
      </trkpt>
      <trkpt lat="44.06562" lon="7.55036">
        <ele>1025</ele>
        <time>2017-09-17T11:35:06Z</time>
      </trkpt>
      <trkpt lat="44.06556" lon="7.55033">
        <ele>1026</ele>
        <time>2017-09-17T11:35:07Z</time>
      </trkpt>
      <trkpt lat="44.06549" lon="7.55029">
        <ele>1027</ele>
        <time>2017-09-17T11:35:08Z</time>
      </trkpt>
      <trkpt lat="44.0654" lon="7.55024">
        <ele>1028</ele>
        <time>2017-09-17T11:35:09Z</time>
      </trkpt>
      <trkpt lat="44.06531" lon="7.5502">
        <ele>1029</ele>
        <time>2017-09-17T11:35:10Z</time>
      </trkpt>
      <trkpt lat="44.0652" lon="7.55017">
        <ele>1029</ele>
        <time>2017-09-17T11:35:11Z</time>
      </trkpt>
      <trkpt lat="44.06511" lon="7.55015">
        <ele>1030</ele>
        <time>2017-09-17T11:35:12Z</time>
      </trkpt>
      <trkpt lat="44.065" lon="7.55014">
        <ele>1031</ele>
        <time>2017-09-17T11:35:13Z</time>
      </trkpt>
      <trkpt lat="44.06489" lon="7.55015">
        <ele>1032</ele>
        <time>2017-09-17T11:35:14Z</time>
      </trkpt>
      <trkpt lat="44.06479" lon="7.55015">
        <ele>1033</ele>
        <time>2017-09-17T11:35:15Z</time>
      </trkpt>
      <trkpt lat="44.06468" lon="7.55016">
        <ele>1034</ele>
        <time>2017-09-17T11:35:16Z</time>
      </trkpt>
      <trkpt lat="44.06457" lon="7.55017">
        <ele>1035</ele>
        <time>2017-09-17T11:35:17Z</time>
      </trkpt>
      <trkpt lat="44.06447" lon="7.55019">
        <ele>1036</ele>
        <time>2017-09-17T11:35:18Z</time>
      </trkpt>
      <trkpt lat="44.06436" lon="7.55021">
        <ele>1037</ele>
        <time>2017-09-17T11:35:19Z</time>
      </trkpt>
      <trkpt lat="44.06426" lon="7.55023">
        <ele>1037</ele>
        <time>2017-09-17T11:35:20Z</time>
      </trkpt>
      <trkpt lat="44.06416" lon="7.55027">
        <ele>1038</ele>
        <time>2017-09-17T11:35:21Z</time>
      </trkpt>
      <trkpt lat="44.06406" lon="7.55031">
        <ele>1038</ele>
        <time>2017-09-17T11:35:22Z</time>
      </trkpt>
      <trkpt lat="44.06396" lon="7.55036">
        <ele>1039</ele>
        <time>2017-09-17T11:35:23Z</time>
      </trkpt>
      <trkpt lat="44.06386" lon="7.55042">
        <ele>1040</ele>
        <time>2017-09-17T11:35:24Z</time>
      </trkpt>
      <trkpt lat="44.06376" lon="7.5505">
        <ele>1041</ele>
        <time>2017-09-17T11:35:25Z</time>
      </trkpt>
      <trkpt lat="44.06368" lon="7.55058">
        <ele>1042</ele>
        <time>2017-09-17T11:35:26Z</time>
      </trkpt>
      <trkpt lat="44.0636" lon="7.55067">
        <ele>1043</ele>
        <time>2017-09-17T11:35:27Z</time>
      </trkpt>
      <trkpt lat="44.06352" lon="7.55077">
        <ele>1044</ele>
        <time>2017-09-17T11:35:28Z</time>
      </trkpt>
      <trkpt lat="44.06343" lon="7.55085">
        <ele>1046</ele>
        <time>2017-09-17T11:35:29Z</time>
      </trkpt>
      <trkpt lat="44.06335" lon="7.55093">
        <ele>1047</ele>
        <time>2017-09-17T11:35:30Z</time>
      </trkpt>
      <trkpt lat="44.06327" lon="7.551">
        <ele>1049</ele>
        <time>2017-09-17T11:35:31Z</time>
      </trkpt>
      <trkpt lat="44.06318" lon="7.55106">
        <ele>1050</ele>
        <time>2017-09-17T11:35:32Z</time>
      </trkpt>
      <trkpt lat="44.06309" lon="7.55112">
        <ele>1052</ele>
        <time>2017-09-17T11:35:33Z</time>
      </trkpt>
      <trkpt lat="44.06299" lon="7.55119">
        <ele>1053</ele>
        <time>2017-09-17T11:35:34Z</time>
      </trkpt>
      <trkpt lat="44.0629" lon="7.55125">
        <ele>1055</ele>
        <time>2017-09-17T11:35:35Z</time>
      </trkpt>
      <trkpt lat="44.0628" lon="7.55132">
        <ele>1056</ele>
        <time>2017-09-17T11:35:36Z</time>
      </trkpt>
      <trkpt lat="44.06272" lon="7.5514">
        <ele>1058</ele>
        <time>2017-09-17T11:35:37Z</time>
      </trkpt>
      <trkpt lat="44.06264" lon="7.55146">
        <ele>1059</ele>
        <time>2017-09-17T11:35:38Z</time>
      </trkpt>
      <trkpt lat="44.06257" lon="7.55152">
        <ele>1061</ele>
        <time>2017-09-17T11:35:39Z</time>
      </trkpt>
      <trkpt lat="44.0625" lon="7.55156">
        <ele>1062</ele>
        <time>2017-09-17T11:35:40Z</time>
      </trkpt>
      <trkpt lat="44.06241" lon="7.55158">
        <ele>1063</ele>
        <time>2017-09-17T11:35:41Z</time>
      </trkpt>
      <trkpt lat="44.06234" lon="7.55159">
        <ele>1063</ele>
        <time>2017-09-17T11:35:42Z</time>
      </trkpt>
      <trkpt lat="44.06226" lon="7.55162">
        <ele>1064</ele>
        <time>2017-09-17T11:35:43Z</time>
      </trkpt>
      <trkpt lat="44.06218" lon="7.55165">
        <ele>1065</ele>
        <time>2017-09-17T11:35:44Z</time>
      </trkpt>
      <trkpt lat="44.06211" lon="7.5517">
        <ele>1065</ele>
        <time>2017-09-17T11:35:45Z</time>
      </trkpt>
      <trkpt lat="44.06205" lon="7.55175">
        <ele>1066</ele>
        <time>2017-09-17T11:35:46Z</time>
      </trkpt>
      <trkpt lat="44.06204" lon="7.55183">
        <ele>1067</ele>
        <time>2017-09-17T11:35:47Z</time>
      </trkpt>
      <trkpt lat="44.06203" lon="7.5519">
        <ele>1067</ele>
        <time>2017-09-17T11:35:48Z</time>
      </trkpt>
      <trkpt lat="44.06201" lon="7.55197">
        <ele>1068</ele>
        <time>2017-09-17T11:35:49Z</time>
      </trkpt>
      <trkpt lat="44.06199" lon="7.55203">
        <ele>1068</ele>
        <time>2017-09-17T11:35:50Z</time>
      </trkpt>
      <trkpt lat="44.06198" lon="7.55205">
        <ele>1069</ele>
        <time>2017-09-17T11:35:51Z</time>
      </trkpt>
      <trkpt lat="44.06196" lon="7.55203">
        <ele>1069</ele>
        <time>2017-09-17T11:35:52Z</time>
      </trkpt>
      <trkpt lat="44.06195" lon="7.55198">
        <ele>1069</ele>
        <time>2017-09-17T11:35:53Z</time>
      </trkpt>
      <trkpt lat="44.06194" lon="7.55192">
        <ele>1070</ele>
        <time>2017-09-17T11:35:54Z</time>
      </trkpt>
      <trkpt lat="44.06194" lon="7.55185">
        <ele>1070</ele>
        <time>2017-09-17T11:35:55Z</time>
      </trkpt>
      <trkpt lat="44.06194" lon="7.55177">
        <ele>1070</ele>
        <time>2017-09-17T11:35:56Z</time>
      </trkpt>
      <trkpt lat="44.06194" lon="7.55168">
        <ele>1071</ele>
        <time>2017-09-17T11:35:57Z</time>
      </trkpt>
      <trkpt lat="44.06195" lon="7.5516">
        <ele>1071</ele>
        <time>2017-09-17T11:35:58Z</time>
      </trkpt>
      <trkpt lat="44.06197" lon="7.55152">
        <ele>1072</ele>
        <time>2017-09-17T11:35:59Z</time>
      </trkpt>
      <trkpt lat="44.06201" lon="7.55146">
        <ele>1072</ele>
        <time>2017-09-17T11:36:00Z</time>
      </trkpt>
      <trkpt lat="44.06207" lon="7.55141">
        <ele>1073</ele>
        <time>2017-09-17T11:36:01Z</time>
      </trkpt>
      <trkpt lat="44.06214" lon="7.55136">
        <ele>1074</ele>
        <time>2017-09-17T11:36:02Z</time>
      </trkpt>
      <trkpt lat="44.0622" lon="7.5513">
        <ele>1075</ele>
        <time>2017-09-17T11:36:03Z</time>
      </trkpt>
      <trkpt lat="44.06225" lon="7.55124">
        <ele>1076</ele>
        <time>2017-09-17T11:36:04Z</time>
      </trkpt>
      <trkpt lat="44.06229" lon="7.55119">
        <ele>1076</ele>
        <time>2017-09-17T11:36:05Z</time>
      </trkpt>
      <trkpt lat="44.06233" lon="7.55114">
        <ele>1077</ele>
        <time>2017-09-17T11:36:06Z</time>
      </trkpt>
      <trkpt lat="44.06237" lon="7.55109">
        <ele>1078</ele>
        <time>2017-09-17T11:36:07Z</time>
      </trkpt>
      <trkpt lat="44.06241" lon="7.55104">
        <ele>1078</ele>
        <time>2017-09-17T11:36:08Z</time>
      </trkpt>
      <trkpt lat="44.06245" lon="7.551">
        <ele>1079</ele>
        <time>2017-09-17T11:36:09Z</time>
      </trkpt>
      <trkpt lat="44.06248" lon="7.55096">
        <ele>1079</ele>
        <time>2017-09-17T11:36:10Z</time>
      </trkpt>
      <trkpt lat="44.06251" lon="7.55092">
        <ele>1080</ele>
        <time>2017-09-17T11:36:11Z</time>
      </trkpt>
      <trkpt lat="44.06253" lon="7.55089">
        <ele>1080</ele>
        <time>2017-09-17T11:36:12Z</time>
      </trkpt>
      <trkpt lat="44.06255" lon="7.55087">
        <ele>1080</ele>
        <time>2017-09-17T11:36:13Z</time>
      </trkpt>
      <trkpt lat="44.06256" lon="7.55085">
        <ele>1081</ele>
        <time>2017-09-17T11:36:14Z</time>
      </trkpt>
      <trkpt lat="44.06258" lon="7.55084">
        <ele>1081</ele>
        <time>2017-09-17T11:36:15Z</time>
      </trkpt>
      <trkpt lat="44.0626" lon="7.55081">
        <ele>1082</ele>
        <time>2017-09-17T11:36:16Z</time>
      </trkpt>
      <trkpt lat="44.06262" lon="7.55078">
        <ele>1082</ele>
        <time>2017-09-17T11:36:17Z</time>
      </trkpt>
      <trkpt lat="44.06265" lon="7.55074">
        <ele>1082</ele>
        <time>2017-09-17T11:36:18Z</time>
      </trkpt>
      <trkpt lat="44.06267" lon="7.5507">
        <ele>1083</ele>
        <time>2017-09-17T11:36:19Z</time>
      </trkpt>
      <trkpt lat="44.0627" lon="7.55064">
        <ele>1083</ele>
        <time>2017-09-17T11:36:20Z</time>
      </trkpt>
      <trkpt lat="44.06272" lon="7.55058">
        <ele>1084</ele>
        <time>2017-09-17T11:36:21Z</time>
      </trkpt>
      <trkpt lat="44.06275" lon="7.55052">
        <ele>1084</ele>
        <time>2017-09-17T11:36:22Z</time>
      </trkpt>
      <trkpt lat="44.06277" lon="7.55046">
        <ele>1085</ele>
        <time>2017-09-17T11:36:23Z</time>
      </trkpt>
      <trkpt lat="44.0628" lon="7.55039">
        <ele>1085</ele>
        <time>2017-09-17T11:36:24Z</time>
      </trkpt>
      <trkpt lat="44.06284" lon="7.55032">
        <ele>1086</ele>
        <time>2017-09-17T11:36:25Z</time>
      </trkpt>
      <trkpt lat="44.06288" lon="7.55025">
        <ele>1086</ele>
        <time>2017-09-17T11:36:26Z</time>
      </trkpt>
      <trkpt lat="44.06293" lon="7.55018">
        <ele>1087</ele>
        <time>2017-09-17T11:36:27Z</time>
      </trkpt>
      <trkpt lat="44.06298" lon="7.55011">
        <ele>1087</ele>
        <time>2017-09-17T11:36:28Z</time>
      </trkpt>
      <trkpt lat="44.06304" lon="7.55004">
        <ele>1088</ele>
        <time>2017-09-17T11:36:29Z</time>
      </trkpt>
      <trkpt lat="44.06311" lon="7.54996">
        <ele>1088</ele>
        <time>2017-09-17T11:36:30Z</time>
      </trkpt>
      <trkpt lat="44.06317" lon="7.54988">
        <ele>1089</ele>
        <time>2017-09-17T11:36:31Z</time>
      </trkpt>
      <trkpt lat="44.06324" lon="7.54979">
        <ele>1090</ele>
        <time>2017-09-17T11:36:32Z</time>
      </trkpt>
      <trkpt lat="44.0633" lon="7.5497">
        <ele>1091</ele>
        <time>2017-09-17T11:36:33Z</time>
      </trkpt>
      <trkpt lat="44.06337" lon="7.5496">
        <ele>1091</ele>
        <time>2017-09-17T11:36:34Z</time>
      </trkpt>
      <trkpt lat="44.06344" lon="7.54951">
        <ele>1092</ele>
        <time>2017-09-17T11:36:35Z</time>
      </trkpt>
      <trkpt lat="44.06351" lon="7.54941">
        <ele>1093</ele>
        <time>2017-09-17T11:36:36Z</time>
      </trkpt>
      <trkpt lat="44.06358" lon="7.5493">
        <ele>1094</ele>
        <time>2017-09-17T11:36:37Z</time>
      </trkpt>
      <trkpt lat="44.06366" lon="7.5492">
        <ele>1095</ele>
        <time>2017-09-17T11:36:38Z</time>
      </trkpt>
      <trkpt lat="44.06373" lon="7.5491">
        <ele>1096</ele>
        <time>2017-09-17T11:36:39Z</time>
      </trkpt>
      <trkpt lat="44.0638" lon="7.549">
        <ele>1097</ele>
        <time>2017-09-17T11:36:40Z</time>
      </trkpt>
      <trkpt lat="44.06388" lon="7.54891">
        <ele>1098</ele>
        <time>2017-09-17T11:36:41Z</time>
      </trkpt>
      <trkpt lat="44.06394" lon="7.54882">
        <ele>1099</ele>
        <time>2017-09-17T11:36:42Z</time>
      </trkpt>
      <trkpt lat="44.06402" lon="7.54874">
        <ele>1100</ele>
        <time>2017-09-17T11:36:43Z</time>
      </trkpt>
      <trkpt lat="44.0641" lon="7.54865">
        <ele>1101</ele>
        <time>2017-09-17T11:36:44Z</time>
      </trkpt>
      <trkpt lat="44.06418" lon="7.54856">
        <ele>1102</ele>
        <time>2017-09-17T11:36:45Z</time>
      </trkpt>
      <trkpt lat="44.06425" lon="7.54847">
        <ele>1103</ele>
        <time>2017-09-17T11:36:46Z</time>
      </trkpt>
      <trkpt lat="44.06431" lon="7.54839">
        <ele>1104</ele>
        <time>2017-09-17T11:36:47Z</time>
      </trkpt>
      <trkpt lat="44.06437" lon="7.5483">
        <ele>1105</ele>
        <time>2017-09-17T11:36:48Z</time>
      </trkpt>
      <trkpt lat="44.06442" lon="7.54822">
        <ele>1106</ele>
        <time>2017-09-17T11:36:49Z</time>
      </trkpt>
      <trkpt lat="44.06448" lon="7.54814">
        <ele>1107</ele>
        <time>2017-09-17T11:36:50Z</time>
      </trkpt>
      <trkpt lat="44.06454" lon="7.54806">
        <ele>1107</ele>
        <time>2017-09-17T11:36:51Z</time>
      </trkpt>
      <trkpt lat="44.06459" lon="7.54797">
        <ele>1108</ele>
        <time>2017-09-17T11:36:52Z</time>
      </trkpt>
      <trkpt lat="44.06465" lon="7.54788">
        <ele>1109</ele>
        <time>2017-09-17T11:36:53Z</time>
      </trkpt>
      <trkpt lat="44.06471" lon="7.5478">
        <ele>1110</ele>
        <time>2017-09-17T11:36:54Z</time>
      </trkpt>
      <trkpt lat="44.06477" lon="7.54772">
        <ele>1111</ele>
        <time>2017-09-17T11:36:55Z</time>
      </trkpt>
      <trkpt lat="44.06484" lon="7.54765">
        <ele>1112</ele>
        <time>2017-09-17T11:36:56Z</time>
      </trkpt>
      <trkpt lat="44.06491" lon="7.54759">
        <ele>1113</ele>
        <time>2017-09-17T11:36:57Z</time>
      </trkpt>
      <trkpt lat="44.06498" lon="7.54754">
        <ele>1115</ele>
        <time>2017-09-17T11:36:58Z</time>
      </trkpt>
      <trkpt lat="44.06506" lon="7.54748">
        <ele>1116</ele>
        <time>2017-09-17T11:36:59Z</time>
      </trkpt>
      <trkpt lat="44.06515" lon="7.54741">
        <ele>1117</ele>
        <time>2017-09-17T11:37:00Z</time>
      </trkpt>
      <trkpt lat="44.06523" lon="7.54735">
        <ele>1118</ele>
        <time>2017-09-17T11:37:01Z</time>
      </trkpt>
      <trkpt lat="44.06531" lon="7.54729">
        <ele>1120</ele>
        <time>2017-09-17T11:37:02Z</time>
      </trkpt>
      <trkpt lat="44.0654" lon="7.54723">
        <ele>1121</ele>
        <time>2017-09-17T11:37:03Z</time>
      </trkpt>
      <trkpt lat="44.06549" lon="7.54718">
        <ele>1122</ele>
        <time>2017-09-17T11:37:04Z</time>
      </trkpt>
      <trkpt lat="44.06557" lon="7.54715">
        <ele>1123</ele>
        <time>2017-09-17T11:37:05Z</time>
      </trkpt>
      <trkpt lat="44.06566" lon="7.54715">
        <ele>1125</ele>
        <time>2017-09-17T11:37:06Z</time>
      </trkpt>
      <trkpt lat="44.06574" lon="7.54716">
        <ele>1126</ele>
        <time>2017-09-17T11:37:07Z</time>
      </trkpt>
      <trkpt lat="44.06582" lon="7.54718">
        <ele>1127</ele>
        <time>2017-09-17T11:37:08Z</time>
      </trkpt>
      <trkpt lat="44.06591" lon="7.54718">
        <ele>1128</ele>
        <time>2017-09-17T11:37:09Z</time>
      </trkpt>
      <trkpt lat="44.06599" lon="7.54716">
        <ele>1129</ele>
        <time>2017-09-17T11:37:10Z</time>
      </trkpt>
      <trkpt lat="44.06607" lon="7.54712">
        <ele>1130</ele>
        <time>2017-09-17T11:37:11Z</time>
      </trkpt>
      <trkpt lat="44.06614" lon="7.54707">
        <ele>1131</ele>
        <time>2017-09-17T11:37:12Z</time>
      </trkpt>
      <trkpt lat="44.06619" lon="7.54699">
        <ele>1133</ele>
        <time>2017-09-17T11:37:13Z</time>
      </trkpt>
      <trkpt lat="44.06624" lon="7.5469">
        <ele>1134</ele>
        <time>2017-09-17T11:37:14Z</time>
      </trkpt>
      <trkpt lat="44.06628" lon="7.54681">
        <ele>1135</ele>
        <time>2017-09-17T11:37:15Z</time>
      </trkpt>
      <trkpt lat="44.06632" lon="7.5467">
        <ele>1136</ele>
        <time>2017-09-17T11:37:16Z</time>
      </trkpt>
      <trkpt lat="44.06636" lon="7.5466">
        <ele>1137</ele>
        <time>2017-09-17T11:37:17Z</time>
      </trkpt>
      <trkpt lat="44.06639" lon="7.54648">
        <ele>1138</ele>
        <time>2017-09-17T11:37:18Z</time>
      </trkpt>
      <trkpt lat="44.06643" lon="7.54637">
        <ele>1139</ele>
        <time>2017-09-17T11:37:19Z</time>
      </trkpt>
      <trkpt lat="44.06646" lon="7.54625">
        <ele>1141</ele>
        <time>2017-09-17T11:37:20Z</time>
      </trkpt>
      <trkpt lat="44.0665" lon="7.54613">
        <ele>1142</ele>
        <time>2017-09-17T11:37:21Z</time>
      </trkpt>
      <trkpt lat="44.06653" lon="7.546">
        <ele>1144</ele>
        <time>2017-09-17T11:37:22Z</time>
      </trkpt>
      <trkpt lat="44.06657" lon="7.54589">
        <ele>1145</ele>
        <time>2017-09-17T11:37:23Z</time>
      </trkpt>
      <trkpt lat="44.06661" lon="7.54579">
        <ele>1146</ele>
        <time>2017-09-17T11:37:24Z</time>
      </trkpt>
      <trkpt lat="44.06666" lon="7.54571">
        <ele>1147</ele>
        <time>2017-09-17T11:37:25Z</time>
      </trkpt>
      <trkpt lat="44.06672" lon="7.54565">
        <ele>1148</ele>
        <time>2017-09-17T11:37:26Z</time>
      </trkpt>
      <trkpt lat="44.06679" lon="7.54561">
        <ele>1149</ele>
        <time>2017-09-17T11:37:27Z</time>
      </trkpt>
      <trkpt lat="44.06686" lon="7.54558">
        <ele>1150</ele>
        <time>2017-09-17T11:37:28Z</time>
      </trkpt>
      <trkpt lat="44.06693" lon="7.54556">
        <ele>1151</ele>
        <time>2017-09-17T11:37:29Z</time>
      </trkpt>
      <trkpt lat="44.06699" lon="7.54553">
        <ele>1152</ele>
        <time>2017-09-17T11:37:30Z</time>
      </trkpt>
      <trkpt lat="44.06704" lon="7.54552">
        <ele>1152</ele>
        <time>2017-09-17T11:37:31Z</time>
      </trkpt>
      <trkpt lat="44.06707" lon="7.5455">
        <ele>1153</ele>
        <time>2017-09-17T11:37:32Z</time>
      </trkpt>
      <trkpt lat="44.06709" lon="7.5455">
        <ele>1154</ele>
        <time>2017-09-17T11:37:33Z</time>
      </trkpt>
      <trkpt lat="44.06711" lon="7.54548">
        <ele>1154</ele>
        <time>2017-09-17T11:37:34Z</time>
      </trkpt>
      <trkpt lat="44.06712" lon="7.54546">
        <ele>1155</ele>
        <time>2017-09-17T11:37:35Z</time>
      </trkpt>
      <trkpt lat="44.06714" lon="7.54542">
        <ele>1155</ele>
        <time>2017-09-17T11:37:36Z</time>
      </trkpt>
      <trkpt lat="44.06716" lon="7.54537">
        <ele>1156</ele>
        <time>2017-09-17T11:37:37Z</time>
      </trkpt>
      <trkpt lat="44.06717" lon="7.5453">
        <ele>1156</ele>
        <time>2017-09-17T11:37:38Z</time>
      </trkpt>
      <trkpt lat="44.06718" lon="7.54523">
        <ele>1156</ele>
        <time>2017-09-17T11:37:39Z</time>
      </trkpt>
      <trkpt lat="44.06718" lon="7.54514">
        <ele>1157</ele>
        <time>2017-09-17T11:37:40Z</time>
      </trkpt>
      <trkpt lat="44.06719" lon="7.54505">
        <ele>1157</ele>
        <time>2017-09-17T11:37:41Z</time>
      </trkpt>
      <trkpt lat="44.06721" lon="7.54494">
        <ele>1158</ele>
        <time>2017-09-17T11:37:42Z</time>
      </trkpt>
      <trkpt lat="44.06722" lon="7.54484">
        <ele>1158</ele>
        <time>2017-09-17T11:37:43Z</time>
      </trkpt>
      <trkpt lat="44.06724" lon="7.54473">
        <ele>1158</ele>
        <time>2017-09-17T11:37:44Z</time>
      </trkpt>
      <trkpt lat="44.06727" lon="7.54463">
        <ele>1159</ele>
        <time>2017-09-17T11:37:45Z</time>
      </trkpt>
      <trkpt lat="44.0673" lon="7.54452">
        <ele>1159</ele>
        <time>2017-09-17T11:37:46Z</time>
      </trkpt>
      <trkpt lat="44.06733" lon="7.54441">
        <ele>1159</ele>
        <time>2017-09-17T11:37:47Z</time>
      </trkpt>
      <trkpt lat="44.06736" lon="7.54429">
        <ele>1159</ele>
        <time>2017-09-17T11:37:48Z</time>
      </trkpt>
      <trkpt lat="44.06739" lon="7.54419">
        <ele>1160</ele>
        <time>2017-09-17T11:37:49Z</time>
      </trkpt>
      <trkpt lat="44.06743" lon="7.54408">
        <ele>1160</ele>
        <time>2017-09-17T11:37:50Z</time>
      </trkpt>
      <trkpt lat="44.06746" lon="7.54397">
        <ele>1160</ele>
        <time>2017-09-17T11:37:51Z</time>
      </trkpt>
      <trkpt lat="44.0675" lon="7.54385">
        <ele>1160</ele>
        <time>2017-09-17T11:37:52Z</time>
      </trkpt>
      <trkpt lat="44.06755" lon="7.54374">
        <ele>1160</ele>
        <time>2017-09-17T11:37:53Z</time>
      </trkpt>
      <trkpt lat="44.06759" lon="7.54362">
        <ele>1161</ele>
        <time>2017-09-17T11:37:54Z</time>
      </trkpt>
      <trkpt lat="44.06763" lon="7.54351">
        <ele>1161</ele>
        <time>2017-09-17T11:37:55Z</time>
      </trkpt>
      <trkpt lat="44.06766" lon="7.54339">
        <ele>1161</ele>
        <time>2017-09-17T11:37:56Z</time>
      </trkpt>
      <trkpt lat="44.06769" lon="7.54326">
        <ele>1162</ele>
        <time>2017-09-17T11:37:57Z</time>
      </trkpt>
      <trkpt lat="44.06772" lon="7.54314">
        <ele>1162</ele>
        <time>2017-09-17T11:37:58Z</time>
      </trkpt>
      <trkpt lat="44.06774" lon="7.54301">
        <ele>1163</ele>
        <time>2017-09-17T11:37:59Z</time>
      </trkpt>
      <trkpt lat="44.06777" lon="7.54289">
        <ele>1163</ele>
        <time>2017-09-17T11:38:00Z</time>
      </trkpt>
      <trkpt lat="44.06778" lon="7.54276">
        <ele>1164</ele>
        <time>2017-09-17T11:38:01Z</time>
      </trkpt>
      <trkpt lat="44.06779" lon="7.54263">
        <ele>1165</ele>
        <time>2017-09-17T11:38:02Z</time>
      </trkpt>
      <trkpt lat="44.06779" lon="7.54249">
        <ele>1165</ele>
        <time>2017-09-17T11:38:03Z</time>
      </trkpt>
      <trkpt lat="44.06778" lon="7.54236">
        <ele>1166</ele>
        <time>2017-09-17T11:38:04Z</time>
      </trkpt>
      <trkpt lat="44.06778" lon="7.54223">
        <ele>1166</ele>
        <time>2017-09-17T11:38:05Z</time>
      </trkpt>
      <trkpt lat="44.06779" lon="7.5421">
        <ele>1167</ele>
        <time>2017-09-17T11:38:06Z</time>
      </trkpt>
      <trkpt lat="44.06781" lon="7.54197">
        <ele>1168</ele>
        <time>2017-09-17T11:38:07Z</time>
      </trkpt>
      <trkpt lat="44.06784" lon="7.54185">
        <ele>1168</ele>
        <time>2017-09-17T11:38:08Z</time>
      </trkpt>
      <trkpt lat="44.06788" lon="7.54172">
        <ele>1169</ele>
        <time>2017-09-17T11:38:09Z</time>
      </trkpt>
      <trkpt lat="44.06792" lon="7.5416">
        <ele>1169</ele>
        <time>2017-09-17T11:38:10Z</time>
      </trkpt>
      <trkpt lat="44.06797" lon="7.54149">
        <ele>1170</ele>
        <time>2017-09-17T11:38:11Z</time>
      </trkpt>
      <trkpt lat="44.06803" lon="7.54137">
        <ele>1171</ele>
        <time>2017-09-17T11:38:12Z</time>
      </trkpt>
      <trkpt lat="44.06808" lon="7.54126">
        <ele>1171</ele>
        <time>2017-09-17T11:38:13Z</time>
      </trkpt>
      <trkpt lat="44.06812" lon="7.54114">
        <ele>1172</ele>
        <time>2017-09-17T11:38:14Z</time>
      </trkpt>
      <trkpt lat="44.06814" lon="7.54101">
        <ele>1173</ele>
        <time>2017-09-17T11:38:15Z</time>
      </trkpt>
      <trkpt lat="44.06816" lon="7.54089">
        <ele>1174</ele>
        <time>2017-09-17T11:38:16Z</time>
      </trkpt>
      <trkpt lat="44.06818" lon="7.54076">
        <ele>1175</ele>
        <time>2017-09-17T11:38:17Z</time>
      </trkpt>
      <trkpt lat="44.06819" lon="7.54063">
        <ele>1176</ele>
        <time>2017-09-17T11:38:18Z</time>
      </trkpt>
      <trkpt lat="44.06819" lon="7.5405">
        <ele>1176</ele>
        <time>2017-09-17T11:38:19Z</time>
      </trkpt>
      <trkpt lat="44.06818" lon="7.54036">
        <ele>1177</ele>
        <time>2017-09-17T11:38:20Z</time>
      </trkpt>
      <trkpt lat="44.06815" lon="7.54023">
        <ele>1178</ele>
        <time>2017-09-17T11:38:21Z</time>
      </trkpt>
      <trkpt lat="44.06813" lon="7.54009">
        <ele>1179</ele>
        <time>2017-09-17T11:38:22Z</time>
      </trkpt>
      <trkpt lat="44.06811" lon="7.53996">
        <ele>1180</ele>
        <time>2017-09-17T11:38:23Z</time>
      </trkpt>
      <trkpt lat="44.06808" lon="7.53983">
        <ele>1180</ele>
        <time>2017-09-17T11:38:24Z</time>
      </trkpt>
      <trkpt lat="44.06806" lon="7.53971">
        <ele>1181</ele>
        <time>2017-09-17T11:38:25Z</time>
      </trkpt>
      <trkpt lat="44.06804" lon="7.53958">
        <ele>1182</ele>
        <time>2017-09-17T11:38:26Z</time>
      </trkpt>
      <trkpt lat="44.06804" lon="7.53945">
        <ele>1183</ele>
        <time>2017-09-17T11:38:27Z</time>
      </trkpt>
      <trkpt lat="44.06806" lon="7.53931">
        <ele>1184</ele>
        <time>2017-09-17T11:38:28Z</time>
      </trkpt>
      <trkpt lat="44.06811" lon="7.53919">
        <ele>1184</ele>
        <time>2017-09-17T11:38:29Z</time>
      </trkpt>
      <trkpt lat="44.06816" lon="7.53907">
        <ele>1185</ele>
        <time>2017-09-17T11:38:30Z</time>
      </trkpt>
      <trkpt lat="44.06821" lon="7.53896">
        <ele>1186</ele>
        <time>2017-09-17T11:38:31Z</time>
      </trkpt>
      <trkpt lat="44.06824" lon="7.53884">
        <ele>1187</ele>
        <time>2017-09-17T11:38:32Z</time>
      </trkpt>
      <trkpt lat="44.06825" lon="7.53873">
        <ele>1188</ele>
        <time>2017-09-17T11:38:33Z</time>
      </trkpt>
      <trkpt lat="44.06825" lon="7.53862">
        <ele>1189</ele>
        <time>2017-09-17T11:38:34Z</time>
      </trkpt>
      <trkpt lat="44.06824" lon="7.53851">
        <ele>1190</ele>
        <time>2017-09-17T11:38:35Z</time>
      </trkpt>
      <trkpt lat="44.06821" lon="7.53842">
        <ele>1191</ele>
        <time>2017-09-17T11:38:36Z</time>
      </trkpt>
      <trkpt lat="44.06818" lon="7.53837">
        <ele>1192</ele>
        <time>2017-09-17T11:38:37Z</time>
      </trkpt>
      <trkpt lat="44.06813" lon="7.53835">
        <ele>1193</ele>
        <time>2017-09-17T11:38:38Z</time>
      </trkpt>
      <trkpt lat="44.06808" lon="7.53835">
        <ele>1193</ele>
        <time>2017-09-17T11:38:39Z</time>
      </trkpt>
      <trkpt lat="44.06805" lon="7.53838">
        <ele>1194</ele>
        <time>2017-09-17T11:38:40Z</time>
      </trkpt>
      <trkpt lat="44.06806" lon="7.53842">
        <ele>1194</ele>
        <time>2017-09-17T11:38:41Z</time>
      </trkpt>
      <trkpt lat="44.06808" lon="7.5385">
        <ele>1195</ele>
        <time>2017-09-17T11:38:42Z</time>
      </trkpt>
      <trkpt lat="44.0681" lon="7.53858">
        <ele>1195</ele>
        <time>2017-09-17T11:38:43Z</time>
      </trkpt>
      <trkpt lat="44.06812" lon="7.53867">
        <ele>1195</ele>
        <time>2017-09-17T11:38:44Z</time>
      </trkpt>
      <trkpt lat="44.06813" lon="7.53874">
        <ele>1196</ele>
        <time>2017-09-17T11:38:45Z</time>
      </trkpt>
      <trkpt lat="44.06813" lon="7.53881">
        <ele>1196</ele>
        <time>2017-09-17T11:38:46Z</time>
      </trkpt>
      <trkpt lat="44.06812" lon="7.53884">
        <ele>1196</ele>
        <time>2017-09-17T11:38:47Z</time>
      </trkpt>
      <trkpt lat="44.06811" lon="7.53884">
        <ele>1196</ele>
        <time>2017-09-17T11:38:48Z</time>
      </trkpt>
      <trkpt lat="44.0681" lon="7.53879">
        <ele>1197</ele>
        <time>2017-09-17T11:38:49Z</time>
      </trkpt>
      <trkpt lat="44.06809" lon="7.53871">
        <ele>1197</ele>
        <time>2017-09-17T11:38:50Z</time>
      </trkpt>
      <trkpt lat="44.06808" lon="7.53862">
        <ele>1198</ele>
        <time>2017-09-17T11:38:51Z</time>
      </trkpt>
      <trkpt lat="44.06808" lon="7.53852">
        <ele>1199</ele>
        <time>2017-09-17T11:38:52Z</time>
      </trkpt>
      <trkpt lat="44.06807" lon="7.53841">
        <ele>1199</ele>
        <time>2017-09-17T11:38:53Z</time>
      </trkpt>
      <trkpt lat="44.06806" lon="7.53829">
        <ele>1200</ele>
        <time>2017-09-17T11:38:54Z</time>
      </trkpt>
      <trkpt lat="44.06804" lon="7.53817">
        <ele>1200</ele>
        <time>2017-09-17T11:38:55Z</time>
      </trkpt>
      <trkpt lat="44.06801" lon="7.53804">
        <ele>1201</ele>
        <time>2017-09-17T11:38:56Z</time>
      </trkpt>
      <trkpt lat="44.06797" lon="7.53791">
        <ele>1202</ele>
        <time>2017-09-17T11:38:57Z</time>
      </trkpt>
      <trkpt lat="44.06793" lon="7.53778">
        <ele>1203</ele>
        <time>2017-09-17T11:38:58Z</time>
      </trkpt>
      <trkpt lat="44.06789" lon="7.53766">
        <ele>1203</ele>
        <time>2017-09-17T11:38:59Z</time>
      </trkpt>
      <trkpt lat="44.06786" lon="7.53753">
        <ele>1204</ele>
        <time>2017-09-17T11:39:00Z</time>
      </trkpt>
      <trkpt lat="44.06782" lon="7.5374">
        <ele>1206</ele>
        <time>2017-09-17T11:39:01Z</time>
      </trkpt>
      <trkpt lat="44.06779" lon="7.53728">
        <ele>1207</ele>
        <time>2017-09-17T11:39:02Z</time>
      </trkpt>
      <trkpt lat="44.06776" lon="7.53718">
        <ele>1208</ele>
        <time>2017-09-17T11:39:03Z</time>
      </trkpt>
      <trkpt lat="44.06774" lon="7.53708">
        <ele>1209</ele>
        <time>2017-09-17T11:39:04Z</time>
      </trkpt>
      <trkpt lat="44.06771" lon="7.53699">
        <ele>1210</ele>
        <time>2017-09-17T11:39:05Z</time>
      </trkpt>
      <trkpt lat="44.06768" lon="7.53693">
        <ele>1211</ele>
        <time>2017-09-17T11:39:06Z</time>
      </trkpt>
      <trkpt lat="44.06764" lon="7.53691">
        <ele>1211</ele>
        <time>2017-09-17T11:39:07Z</time>
      </trkpt>
      <trkpt lat="44.06758" lon="7.53693">
        <ele>1212</ele>
        <time>2017-09-17T11:39:08Z</time>
      </trkpt>
      <trkpt lat="44.06754" lon="7.53695">
        <ele>1213</ele>
        <time>2017-09-17T11:39:09Z</time>
      </trkpt>
      <trkpt lat="44.06751" lon="7.537">
        <ele>1213</ele>
        <time>2017-09-17T11:39:10Z</time>
      </trkpt>
      <trkpt lat="44.06753" lon="7.53708">
        <ele>1213</ele>
        <time>2017-09-17T11:39:11Z</time>
      </trkpt>
      <trkpt lat="44.06754" lon="7.53718">
        <ele>1214</ele>
        <time>2017-09-17T11:39:12Z</time>
      </trkpt>
      <trkpt lat="44.06756" lon="7.53729">
        <ele>1214</ele>
        <time>2017-09-17T11:39:13Z</time>
      </trkpt>
      <trkpt lat="44.06757" lon="7.5374">
        <ele>1214</ele>
        <time>2017-09-17T11:39:14Z</time>
      </trkpt>
      <trkpt lat="44.06758" lon="7.53753">
        <ele>1214</ele>
        <time>2017-09-17T11:39:15Z</time>
      </trkpt>
      <trkpt lat="44.06759" lon="7.53766">
        <ele>1215</ele>
        <time>2017-09-17T11:39:16Z</time>
      </trkpt>
      <trkpt lat="44.06758" lon="7.53778">
        <ele>1215</ele>
        <time>2017-09-17T11:39:17Z</time>
      </trkpt>
      <trkpt lat="44.06757" lon="7.53792">
        <ele>1216</ele>
        <time>2017-09-17T11:39:18Z</time>
      </trkpt>
      <trkpt lat="44.06755" lon="7.53805">
        <ele>1216</ele>
        <time>2017-09-17T11:39:19Z</time>
      </trkpt>
      <trkpt lat="44.06752" lon="7.53819">
        <ele>1217</ele>
        <time>2017-09-17T11:39:20Z</time>
      </trkpt>
      <trkpt lat="44.0675" lon="7.53832">
        <ele>1217</ele>
        <time>2017-09-17T11:39:21Z</time>
      </trkpt>
      <trkpt lat="44.06748" lon="7.53844">
        <ele>1218</ele>
        <time>2017-09-17T11:39:22Z</time>
      </trkpt>
      <trkpt lat="44.06746" lon="7.53856">
        <ele>1219</ele>
        <time>2017-09-17T11:39:23Z</time>
      </trkpt>
      <trkpt lat="44.06745" lon="7.53867">
        <ele>1220</ele>
        <time>2017-09-17T11:39:24Z</time>
      </trkpt>
      <trkpt lat="44.06744" lon="7.53876">
        <ele>1221</ele>
        <time>2017-09-17T11:39:25Z</time>
      </trkpt>
      <trkpt lat="44.06741" lon="7.53886">
        <ele>1222</ele>
        <time>2017-09-17T11:39:26Z</time>
      </trkpt>
      <trkpt lat="44.06738" lon="7.53894">
        <ele>1222</ele>
        <time>2017-09-17T11:39:27Z</time>
      </trkpt>
      <trkpt lat="44.06733" lon="7.53902">
        <ele>1223</ele>
        <time>2017-09-17T11:39:28Z</time>
      </trkpt>
      <trkpt lat="44.06726" lon="7.5391">
        <ele>1223</ele>
        <time>2017-09-17T11:39:29Z</time>
      </trkpt>
      <trkpt lat="44.06719" lon="7.53918">
        <ele>1224</ele>
        <time>2017-09-17T11:39:30Z</time>
      </trkpt>
      <trkpt lat="44.06713" lon="7.53927">
        <ele>1225</ele>
        <time>2017-09-17T11:39:31Z</time>
      </trkpt>
      <trkpt lat="44.06705" lon="7.53937">
        <ele>1225</ele>
        <time>2017-09-17T11:39:32Z</time>
      </trkpt>
      <trkpt lat="44.06698" lon="7.53947">
        <ele>1226</ele>
        <time>2017-09-17T11:39:33Z</time>
      </trkpt>
      <trkpt lat="44.06692" lon="7.53959">
        <ele>1227</ele>
        <time>2017-09-17T11:39:34Z</time>
      </trkpt>
      <trkpt lat="44.06687" lon="7.53971">
        <ele>1228</ele>
        <time>2017-09-17T11:39:35Z</time>
      </trkpt>
      <trkpt lat="44.06682" lon="7.53982">
        <ele>1228</ele>
        <time>2017-09-17T11:39:36Z</time>
      </trkpt>
      <trkpt lat="44.06678" lon="7.53995">
        <ele>1229</ele>
        <time>2017-09-17T11:39:37Z</time>
      </trkpt>
      <trkpt lat="44.06674" lon="7.54008">
        <ele>1230</ele>
        <time>2017-09-17T11:39:38Z</time>
      </trkpt>
      <trkpt lat="44.06671" lon="7.54021">
        <ele>1231</ele>
        <time>2017-09-17T11:39:39Z</time>
      </trkpt>
      <trkpt lat="44.06669" lon="7.54034">
        <ele>1232</ele>
        <time>2017-09-17T11:39:40Z</time>
      </trkpt>
      <trkpt lat="44.06667" lon="7.54048">
        <ele>1233</ele>
        <time>2017-09-17T11:39:41Z</time>
      </trkpt>
      <trkpt lat="44.06666" lon="7.54062">
        <ele>1234</ele>
        <time>2017-09-17T11:39:42Z</time>
      </trkpt>
      <trkpt lat="44.06665" lon="7.54075">
        <ele>1235</ele>
        <time>2017-09-17T11:39:43Z</time>
      </trkpt>
      <trkpt lat="44.06664" lon="7.5409">
        <ele>1236</ele>
        <time>2017-09-17T11:39:44Z</time>
      </trkpt>
      <trkpt lat="44.06662" lon="7.54105">
        <ele>1236</ele>
        <time>2017-09-17T11:39:45Z</time>
      </trkpt>
      <trkpt lat="44.06661" lon="7.54121">
        <ele>1237</ele>
        <time>2017-09-17T11:39:46Z</time>
      </trkpt>
      <trkpt lat="44.06659" lon="7.54138">
        <ele>1238</ele>
        <time>2017-09-17T11:39:47Z</time>
      </trkpt>
      <trkpt lat="44.06658" lon="7.54156">
        <ele>1239</ele>
        <time>2017-09-17T11:39:48Z</time>
      </trkpt>
      <trkpt lat="44.06657" lon="7.54173">
        <ele>1240</ele>
        <time>2017-09-17T11:39:49Z</time>
      </trkpt>
      <trkpt lat="44.06656" lon="7.54191">
        <ele>1241</ele>
        <time>2017-09-17T11:39:50Z</time>
      </trkpt>
      <trkpt lat="44.06654" lon="7.54209">
        <ele>1241</ele>
        <time>2017-09-17T11:39:51Z</time>
      </trkpt>
      <trkpt lat="44.06652" lon="7.54227">
        <ele>1242</ele>
        <time>2017-09-17T11:39:52Z</time>
      </trkpt>
      <trkpt lat="44.06649" lon="7.54244">
        <ele>1243</ele>
        <time>2017-09-17T11:39:53Z</time>
      </trkpt>
      <trkpt lat="44.06645" lon="7.54261">
        <ele>1244</ele>
        <time>2017-09-17T11:39:54Z</time>
      </trkpt>
      <trkpt lat="44.0664" lon="7.54276">
        <ele>1245</ele>
        <time>2017-09-17T11:39:55Z</time>
      </trkpt>
      <trkpt lat="44.06636" lon="7.5429">
        <ele>1245</ele>
        <time>2017-09-17T11:39:56Z</time>
      </trkpt>
      <trkpt lat="44.0663" lon="7.54304">
        <ele>1246</ele>
        <time>2017-09-17T11:39:57Z</time>
      </trkpt>
      <trkpt lat="44.06624" lon="7.54318">
        <ele>1246</ele>
        <time>2017-09-17T11:39:58Z</time>
      </trkpt>
      <trkpt lat="44.06617" lon="7.54331">
        <ele>1246</ele>
        <time>2017-09-17T11:39:59Z</time>
      </trkpt>
      <trkpt lat="44.0661" lon="7.54344">
        <ele>1247</ele>
        <time>2017-09-17T11:40:00Z</time>
      </trkpt>
      <trkpt lat="44.06604" lon="7.54356">
        <ele>1247</ele>
        <time>2017-09-17T11:40:01Z</time>
      </trkpt>
      <trkpt lat="44.06596" lon="7.54369">
        <ele>1248</ele>
        <time>2017-09-17T11:40:02Z</time>
      </trkpt>
      <trkpt lat="44.06589" lon="7.5438">
        <ele>1248</ele>
        <time>2017-09-17T11:40:03Z</time>
      </trkpt>
      <trkpt lat="44.06583" lon="7.5439">
        <ele>1248</ele>
        <time>2017-09-17T11:40:04Z</time>
      </trkpt>
      <trkpt lat="44.06578" lon="7.54398">
        <ele>1248</ele>
        <time>2017-09-17T11:40:05Z</time>
      </trkpt>
      <trkpt lat="44.06573" lon="7.54403">
        <ele>1249</ele>
        <time>2017-09-17T11:40:06Z</time>
      </trkpt>
      <trkpt lat="44.06569" lon="7.54408">
        <ele>1249</ele>
        <time>2017-09-17T11:40:07Z</time>
      </trkpt>
      <trkpt lat="44.06565" lon="7.54411">
        <ele>1249</ele>
        <time>2017-09-17T11:40:08Z</time>
      </trkpt>
      <trkpt lat="44.06562" lon="7.54412">
        <ele>1250</ele>
        <time>2017-09-17T11:40:09Z</time>
      </trkpt>
      <trkpt lat="44.0656" lon="7.5441">
        <ele>1250</ele>
        <time>2017-09-17T11:40:10Z</time>
      </trkpt>
      <trkpt lat="44.0656" lon="7.54407">
        <ele>1250</ele>
        <time>2017-09-17T11:40:11Z</time>
      </trkpt>
      <trkpt lat="44.0656" lon="7.54405">
        <ele>1250</ele>
        <time>2017-09-17T11:40:12Z</time>
      </trkpt>
      <trkpt lat="44.06561" lon="7.54403">
        <ele>1251</ele>
        <time>2017-09-17T11:40:13Z</time>
      </trkpt>
      <trkpt lat="44.06563" lon="7.54401">
        <ele>1251</ele>
        <time>2017-09-17T11:40:14Z</time>
      </trkpt>
      <trkpt lat="44.06566" lon="7.54397">
        <ele>1251</ele>
        <time>2017-09-17T11:40:15Z</time>
      </trkpt>
      <trkpt lat="44.0657" lon="7.54393">
        <ele>1251</ele>
        <time>2017-09-17T11:40:16Z</time>
      </trkpt>
      <trkpt lat="44.06574" lon="7.54386">
        <ele>1252</ele>
        <time>2017-09-17T11:40:17Z</time>
      </trkpt>
      <trkpt lat="44.06579" lon="7.54378">
        <ele>1252</ele>
        <time>2017-09-17T11:40:18Z</time>
      </trkpt>
      <trkpt lat="44.06584" lon="7.54369">
        <ele>1252</ele>
        <time>2017-09-17T11:40:19Z</time>
      </trkpt>
      <trkpt lat="44.06588" lon="7.5436">
        <ele>1253</ele>
        <time>2017-09-17T11:40:20Z</time>
      </trkpt>
      <trkpt lat="44.06592" lon="7.5435">
        <ele>1253</ele>
        <time>2017-09-17T11:40:21Z</time>
      </trkpt>
      <trkpt lat="44.06596" lon="7.54339">
        <ele>1254</ele>
        <time>2017-09-17T11:40:22Z</time>
      </trkpt>
      <trkpt lat="44.06599" lon="7.54328">
        <ele>1254</ele>
        <time>2017-09-17T11:40:23Z</time>
      </trkpt>
      <trkpt lat="44.06602" lon="7.54316">
        <ele>1254</ele>
        <time>2017-09-17T11:40:24Z</time>
      </trkpt>
      <trkpt lat="44.06605" lon="7.54304">
        <ele>1255</ele>
        <time>2017-09-17T11:40:25Z</time>
      </trkpt>
      <trkpt lat="44.06608" lon="7.54292">
        <ele>1256</ele>
        <time>2017-09-17T11:40:26Z</time>
      </trkpt>
      <trkpt lat="44.0661" lon="7.5428">
        <ele>1256</ele>
        <time>2017-09-17T11:40:27Z</time>
      </trkpt>
      <trkpt lat="44.06612" lon="7.54268">
        <ele>1257</ele>
        <time>2017-09-17T11:40:28Z</time>
      </trkpt>
      <trkpt lat="44.06614" lon="7.54256">
        <ele>1258</ele>
        <time>2017-09-17T11:40:29Z</time>
      </trkpt>
      <trkpt lat="44.06616" lon="7.54243">
        <ele>1258</ele>
        <time>2017-09-17T11:40:30Z</time>
      </trkpt>
      <trkpt lat="44.06617" lon="7.54231">
        <ele>1259</ele>
        <time>2017-09-17T11:40:31Z</time>
      </trkpt>
      <trkpt lat="44.06618" lon="7.54219">
        <ele>1260</ele>
        <time>2017-09-17T11:40:32Z</time>
      </trkpt>
      <trkpt lat="44.06618" lon="7.54206">
        <ele>1261</ele>
        <time>2017-09-17T11:40:33Z</time>
      </trkpt>
      <trkpt lat="44.06618" lon="7.54192">
        <ele>1262</ele>
        <time>2017-09-17T11:40:34Z</time>
      </trkpt>
      <trkpt lat="44.06618" lon="7.54179">
        <ele>1263</ele>
        <time>2017-09-17T11:40:35Z</time>
      </trkpt>
      <trkpt lat="44.06619" lon="7.54165">
        <ele>1264</ele>
        <time>2017-09-17T11:40:36Z</time>
      </trkpt>
      <trkpt lat="44.06618" lon="7.54151">
        <ele>1266</ele>
        <time>2017-09-17T11:40:37Z</time>
      </trkpt>
      <trkpt lat="44.06617" lon="7.54136">
        <ele>1267</ele>
        <time>2017-09-17T11:40:38Z</time>
      </trkpt>
      <trkpt lat="44.06616" lon="7.54122">
        <ele>1269</ele>
        <time>2017-09-17T11:40:39Z</time>
      </trkpt>
      <trkpt lat="44.06614" lon="7.54108">
        <ele>1270</ele>
        <time>2017-09-17T11:40:40Z</time>
      </trkpt>
      <trkpt lat="44.06612" lon="7.54093">
        <ele>1271</ele>
        <time>2017-09-17T11:40:41Z</time>
      </trkpt>
      <trkpt lat="44.0661" lon="7.54077">
        <ele>1272</ele>
        <time>2017-09-17T11:40:42Z</time>
      </trkpt>
      <trkpt lat="44.06608" lon="7.5406">
        <ele>1274</ele>
        <time>2017-09-17T11:40:43Z</time>
      </trkpt>
      <trkpt lat="44.06607" lon="7.54042">
        <ele>1275</ele>
        <time>2017-09-17T11:40:44Z</time>
      </trkpt>
      <trkpt lat="44.06606" lon="7.54024">
        <ele>1277</ele>
        <time>2017-09-17T11:40:45Z</time>
      </trkpt>
      <trkpt lat="44.06605" lon="7.54005">
        <ele>1278</ele>
        <time>2017-09-17T11:40:46Z</time>
      </trkpt>
      <trkpt lat="44.06606" lon="7.53985">
        <ele>1280</ele>
        <time>2017-09-17T11:40:47Z</time>
      </trkpt>
      <trkpt lat="44.06608" lon="7.53966">
        <ele>1281</ele>
        <time>2017-09-17T11:40:48Z</time>
      </trkpt>
      <trkpt lat="44.0661" lon="7.53948">
        <ele>1283</ele>
        <time>2017-09-17T11:40:49Z</time>
      </trkpt>
      <trkpt lat="44.06613" lon="7.53929">
        <ele>1284</ele>
        <time>2017-09-17T11:40:50Z</time>
      </trkpt>
      <trkpt lat="44.06616" lon="7.53911">
        <ele>1286</ele>
        <time>2017-09-17T11:40:51Z</time>
      </trkpt>
      <trkpt lat="44.06617" lon="7.53893">
        <ele>1287</ele>
        <time>2017-09-17T11:40:52Z</time>
      </trkpt>
      <trkpt lat="44.06618" lon="7.53875">
        <ele>1288</ele>
        <time>2017-09-17T11:40:53Z</time>
      </trkpt>
      <trkpt lat="44.06618" lon="7.53856">
        <ele>1290</ele>
        <time>2017-09-17T11:40:54Z</time>
      </trkpt>
      <trkpt lat="44.06618" lon="7.53838">
        <ele>1292</ele>
        <time>2017-09-17T11:40:55Z</time>
      </trkpt>
      <trkpt lat="44.06618" lon="7.5382">
        <ele>1293</ele>
        <time>2017-09-17T11:40:56Z</time>
      </trkpt>
      <trkpt lat="44.06617" lon="7.53802">
        <ele>1295</ele>
        <time>2017-09-17T11:40:57Z</time>
      </trkpt>
      <trkpt lat="44.06616" lon="7.53785">
        <ele>1297</ele>
        <time>2017-09-17T11:40:58Z</time>
      </trkpt>
      <trkpt lat="44.06615" lon="7.53768">
        <ele>1298</ele>
        <time>2017-09-17T11:40:59Z</time>
      </trkpt>
      <trkpt lat="44.06614" lon="7.53753">
        <ele>1300</ele>
        <time>2017-09-17T11:41:00Z</time>
      </trkpt>
      <trkpt lat="44.06613" lon="7.53738">
        <ele>1302</ele>
        <time>2017-09-17T11:41:01Z</time>
      </trkpt>
      <trkpt lat="44.06613" lon="7.53724">
        <ele>1303</ele>
        <time>2017-09-17T11:41:02Z</time>
      </trkpt>
      <trkpt lat="44.06612" lon="7.5371">
        <ele>1305</ele>
        <time>2017-09-17T11:41:03Z</time>
      </trkpt>
      <trkpt lat="44.0661" lon="7.53697">
        <ele>1306</ele>
        <time>2017-09-17T11:41:04Z</time>
      </trkpt>
      <trkpt lat="44.06607" lon="7.53683">
        <ele>1308</ele>
        <time>2017-09-17T11:41:05Z</time>
      </trkpt>
      <trkpt lat="44.06603" lon="7.5367">
        <ele>1309</ele>
        <time>2017-09-17T11:41:06Z</time>
      </trkpt>
      <trkpt lat="44.066" lon="7.53657">
        <ele>1311</ele>
        <time>2017-09-17T11:41:07Z</time>
      </trkpt>
      <trkpt lat="44.06598" lon="7.53642">
        <ele>1312</ele>
        <time>2017-09-17T11:41:08Z</time>
      </trkpt>
      <trkpt lat="44.06597" lon="7.53627">
        <ele>1314</ele>
        <time>2017-09-17T11:41:09Z</time>
      </trkpt>
      <trkpt lat="44.06597" lon="7.53611">
        <ele>1315</ele>
        <time>2017-09-17T11:41:10Z</time>
      </trkpt>
      <trkpt lat="44.06597" lon="7.53594">
        <ele>1317</ele>
        <time>2017-09-17T11:41:11Z</time>
      </trkpt>
      <trkpt lat="44.06597" lon="7.53577">
        <ele>1318</ele>
        <time>2017-09-17T11:41:12Z</time>
      </trkpt>
      <trkpt lat="44.06597" lon="7.5356">
        <ele>1319</ele>
        <time>2017-09-17T11:41:13Z</time>
      </trkpt>
      <trkpt lat="44.06598" lon="7.53543">
        <ele>1321</ele>
        <time>2017-09-17T11:41:14Z</time>
      </trkpt>
      <trkpt lat="44.06601" lon="7.53526">
        <ele>1322</ele>
        <time>2017-09-17T11:41:15Z</time>
      </trkpt>
      <trkpt lat="44.06605" lon="7.53509">
        <ele>1323</ele>
        <time>2017-09-17T11:41:16Z</time>
      </trkpt>
      <trkpt lat="44.0661" lon="7.53492">
        <ele>1324</ele>
        <time>2017-09-17T11:41:17Z</time>
      </trkpt>
      <trkpt lat="44.06615" lon="7.53474">
        <ele>1326</ele>
        <time>2017-09-17T11:41:18Z</time>
      </trkpt>
      <trkpt lat="44.0662" lon="7.53457">
        <ele>1327</ele>
        <time>2017-09-17T11:41:19Z</time>
      </trkpt>
      <trkpt lat="44.06624" lon="7.53439">
        <ele>1328</ele>
        <time>2017-09-17T11:41:20Z</time>
      </trkpt>
      <trkpt lat="44.06628" lon="7.53422">
        <ele>1329</ele>
        <time>2017-09-17T11:41:21Z</time>
      </trkpt>
      <trkpt lat="44.06632" lon="7.53405">
        <ele>1331</ele>
        <time>2017-09-17T11:41:22Z</time>
      </trkpt>
      <trkpt lat="44.06635" lon="7.53389">
        <ele>1332</ele>
        <time>2017-09-17T11:41:23Z</time>
      </trkpt>
      <trkpt lat="44.06639" lon="7.53373">
        <ele>1334</ele>
        <time>2017-09-17T11:41:24Z</time>
      </trkpt>
      <trkpt lat="44.06642" lon="7.53358">
        <ele>1335</ele>
        <time>2017-09-17T11:41:25Z</time>
      </trkpt>
      <trkpt lat="44.06647" lon="7.53345">
        <ele>1336</ele>
        <time>2017-09-17T11:41:26Z</time>
      </trkpt>
      <trkpt lat="44.06653" lon="7.53332">
        <ele>1337</ele>
        <time>2017-09-17T11:41:27Z</time>
      </trkpt>
      <trkpt lat="44.06659" lon="7.5332">
        <ele>1338</ele>
        <time>2017-09-17T11:41:28Z</time>
      </trkpt>
      <trkpt lat="44.06665" lon="7.53307">
        <ele>1339</ele>
        <time>2017-09-17T11:41:29Z</time>
      </trkpt>
      <trkpt lat="44.0667" lon="7.53293">
        <ele>1339</ele>
        <time>2017-09-17T11:41:30Z</time>
      </trkpt>
      <trkpt lat="44.06674" lon="7.53279">
        <ele>1341</ele>
        <time>2017-09-17T11:41:31Z</time>
      </trkpt>
      <trkpt lat="44.06677" lon="7.53263">
        <ele>1342</ele>
        <time>2017-09-17T11:41:32Z</time>
      </trkpt>
      <trkpt lat="44.06679" lon="7.53247">
        <ele>1343</ele>
        <time>2017-09-17T11:41:33Z</time>
      </trkpt>
      <trkpt lat="44.06682" lon="7.53231">
        <ele>1344</ele>
        <time>2017-09-17T11:41:34Z</time>
      </trkpt>
      <trkpt lat="44.06685" lon="7.53214">
        <ele>1345</ele>
        <time>2017-09-17T11:41:35Z</time>
      </trkpt>
      <trkpt lat="44.06688" lon="7.53197">
        <ele>1346</ele>
        <time>2017-09-17T11:41:36Z</time>
      </trkpt>
      <trkpt lat="44.06692" lon="7.5318">
        <ele>1347</ele>
        <time>2017-09-17T11:41:37Z</time>
      </trkpt>
      <trkpt lat="44.06697" lon="7.53163">
        <ele>1348</ele>
        <time>2017-09-17T11:41:38Z</time>
      </trkpt>
      <trkpt lat="44.06701" lon="7.53146">
        <ele>1349</ele>
        <time>2017-09-17T11:41:39Z</time>
      </trkpt>
      <trkpt lat="44.06705" lon="7.53131">
        <ele>1350</ele>
        <time>2017-09-17T11:41:40Z</time>
      </trkpt>
      <trkpt lat="44.0671" lon="7.53116">
        <ele>1351</ele>
        <time>2017-09-17T11:41:41Z</time>
      </trkpt>
      <trkpt lat="44.06714" lon="7.53102">
        <ele>1352</ele>
        <time>2017-09-17T11:41:42Z</time>
      </trkpt>
      <trkpt lat="44.06719" lon="7.53088">
        <ele>1353</ele>
        <time>2017-09-17T11:41:43Z</time>
      </trkpt>
      <trkpt lat="44.06723" lon="7.53075">
        <ele>1354</ele>
        <time>2017-09-17T11:41:44Z</time>
      </trkpt>
      <trkpt lat="44.06726" lon="7.53062">
        <ele>1355</ele>
        <time>2017-09-17T11:41:45Z</time>
      </trkpt>
      <trkpt lat="44.06728" lon="7.53048">
        <ele>1356</ele>
        <time>2017-09-17T11:41:46Z</time>
      </trkpt>
      <trkpt lat="44.06728" lon="7.53034">
        <ele>1357</ele>
        <time>2017-09-17T11:41:47Z</time>
      </trkpt>
      <trkpt lat="44.06726" lon="7.5302">
        <ele>1358</ele>
        <time>2017-09-17T11:41:48Z</time>
      </trkpt>
      <trkpt lat="44.06725" lon="7.53006">
        <ele>1359</ele>
        <time>2017-09-17T11:41:49Z</time>
      </trkpt>
      <trkpt lat="44.06725" lon="7.52991">
        <ele>1360</ele>
        <time>2017-09-17T11:41:50Z</time>
      </trkpt>
      <trkpt lat="44.06727" lon="7.52975">
        <ele>1361</ele>
        <time>2017-09-17T11:41:51Z</time>
      </trkpt>
      <trkpt lat="44.06729" lon="7.52959">
        <ele>1362</ele>
        <time>2017-09-17T11:41:52Z</time>
      </trkpt>
      <trkpt lat="44.06732" lon="7.52942">
        <ele>1362</ele>
        <time>2017-09-17T11:41:53Z</time>
      </trkpt>
      <trkpt lat="44.06736" lon="7.52925">
        <ele>1363</ele>
        <time>2017-09-17T11:41:54Z</time>
      </trkpt>
      <trkpt lat="44.06739" lon="7.52907">
        <ele>1363</ele>
        <time>2017-09-17T11:41:55Z</time>
      </trkpt>
      <trkpt lat="44.06744" lon="7.5289">
        <ele>1364</ele>
        <time>2017-09-17T11:41:56Z</time>
      </trkpt>
      <trkpt lat="44.06749" lon="7.52872">
        <ele>1365</ele>
        <time>2017-09-17T11:41:57Z</time>
      </trkpt>
      <trkpt lat="44.06754" lon="7.52856">
        <ele>1365</ele>
        <time>2017-09-17T11:41:58Z</time>
      </trkpt>
      <trkpt lat="44.06761" lon="7.52842">
        <ele>1366</ele>
        <time>2017-09-17T11:41:59Z</time>
      </trkpt>
      <trkpt lat="44.06769" lon="7.52829">
        <ele>1366</ele>
        <time>2017-09-17T11:42:00Z</time>
      </trkpt>
      <trkpt lat="44.06777" lon="7.52818">
        <ele>1366</ele>
        <time>2017-09-17T11:42:01Z</time>
      </trkpt>
      <trkpt lat="44.06785" lon="7.52807">
        <ele>1367</ele>
        <time>2017-09-17T11:42:02Z</time>
      </trkpt>
      <trkpt lat="44.06793" lon="7.52795">
        <ele>1367</ele>
        <time>2017-09-17T11:42:03Z</time>
      </trkpt>
      <trkpt lat="44.06801" lon="7.52785">
        <ele>1367</ele>
        <time>2017-09-17T11:42:04Z</time>
      </trkpt>
      <trkpt lat="44.06809" lon="7.52774">
        <ele>1368</ele>
        <time>2017-09-17T11:42:05Z</time>
      </trkpt>
      <trkpt lat="44.06817" lon="7.52764">
        <ele>1368</ele>
        <time>2017-09-17T11:42:06Z</time>
      </trkpt>
      <trkpt lat="44.06827" lon="7.52755">
        <ele>1368</ele>
        <time>2017-09-17T11:42:07Z</time>
      </trkpt>
      <trkpt lat="44.06835" lon="7.52748">
        <ele>1369</ele>
        <time>2017-09-17T11:42:08Z</time>
      </trkpt>
      <trkpt lat="44.06844" lon="7.52739">
        <ele>1370</ele>
        <time>2017-09-17T11:42:09Z</time>
      </trkpt>
      <trkpt lat="44.06851" lon="7.52729">
        <ele>1370</ele>
        <time>2017-09-17T11:42:10Z</time>
      </trkpt>
      <trkpt lat="44.06858" lon="7.52716">
        <ele>1371</ele>
        <time>2017-09-17T11:42:11Z</time>
      </trkpt>
      <trkpt lat="44.06864" lon="7.52703">
        <ele>1372</ele>
        <time>2017-09-17T11:42:12Z</time>
      </trkpt>
      <trkpt lat="44.0687" lon="7.52689">
        <ele>1372</ele>
        <time>2017-09-17T11:42:13Z</time>
      </trkpt>
      <trkpt lat="44.06876" lon="7.52675">
        <ele>1373</ele>
        <time>2017-09-17T11:42:14Z</time>
      </trkpt>
      <trkpt lat="44.06882" lon="7.52661">
        <ele>1374</ele>
        <time>2017-09-17T11:42:15Z</time>
      </trkpt>
      <trkpt lat="44.06889" lon="7.52646">
        <ele>1375</ele>
        <time>2017-09-17T11:42:16Z</time>
      </trkpt>
      <trkpt lat="44.06896" lon="7.52631">
        <ele>1375</ele>
        <time>2017-09-17T11:42:17Z</time>
      </trkpt>
      <trkpt lat="44.06902" lon="7.52615">
        <ele>1376</ele>
        <time>2017-09-17T11:42:18Z</time>
      </trkpt>
      <trkpt lat="44.06907" lon="7.52599">
        <ele>1376</ele>
        <time>2017-09-17T11:42:19Z</time>
      </trkpt>
      <trkpt lat="44.0691" lon="7.52583">
        <ele>1377</ele>
        <time>2017-09-17T11:42:20Z</time>
      </trkpt>
      <trkpt lat="44.06913" lon="7.52567">
        <ele>1377</ele>
        <time>2017-09-17T11:42:21Z</time>
      </trkpt>
      <trkpt lat="44.06915" lon="7.5255">
        <ele>1377</ele>
        <time>2017-09-17T11:42:22Z</time>
      </trkpt>
      <trkpt lat="44.06915" lon="7.52534">
        <ele>1377</ele>
        <time>2017-09-17T11:42:23Z</time>
      </trkpt>
      <trkpt lat="44.06915" lon="7.52516">
        <ele>1377</ele>
        <time>2017-09-17T11:42:24Z</time>
      </trkpt>
      <trkpt lat="44.06915" lon="7.52499">
        <ele>1378</ele>
        <time>2017-09-17T11:42:25Z</time>
      </trkpt>
      <trkpt lat="44.06914" lon="7.5248">
        <ele>1378</ele>
        <time>2017-09-17T11:42:26Z</time>
      </trkpt>
      <trkpt lat="44.06913" lon="7.52461">
        <ele>1378</ele>
        <time>2017-09-17T11:42:27Z</time>
      </trkpt>
      <trkpt lat="44.06913" lon="7.52442">
        <ele>1378</ele>
        <time>2017-09-17T11:42:28Z</time>
      </trkpt>
      <trkpt lat="44.06914" lon="7.52424">
        <ele>1378</ele>
        <time>2017-09-17T11:42:29Z</time>
      </trkpt>
      <trkpt lat="44.06915" lon="7.52406">
        <ele>1378</ele>
        <time>2017-09-17T11:42:30Z</time>
      </trkpt>
      <trkpt lat="44.06917" lon="7.52388">
        <ele>1378</ele>
        <time>2017-09-17T11:42:31Z</time>
      </trkpt>
      <trkpt lat="44.06921" lon="7.52372">
        <ele>1378</ele>
        <time>2017-09-17T11:42:32Z</time>
      </trkpt>
      <trkpt lat="44.06925" lon="7.52357">
        <ele>1378</ele>
        <time>2017-09-17T11:42:33Z</time>
      </trkpt>
      <trkpt lat="44.0693" lon="7.52341">
        <ele>1378</ele>
        <time>2017-09-17T11:42:34Z</time>
      </trkpt>
      <trkpt lat="44.06934" lon="7.52325">
        <ele>1378</ele>
        <time>2017-09-17T11:42:35Z</time>
      </trkpt>
      <trkpt lat="44.06938" lon="7.5231">
        <ele>1378</ele>
        <time>2017-09-17T11:42:36Z</time>
      </trkpt>
      <trkpt lat="44.06942" lon="7.52295">
        <ele>1378</ele>
        <time>2017-09-17T11:42:37Z</time>
      </trkpt>
      <trkpt lat="44.06948" lon="7.5228">
        <ele>1378</ele>
        <time>2017-09-17T11:42:38Z</time>
      </trkpt>
      <trkpt lat="44.06954" lon="7.52267">
        <ele>1378</ele>
        <time>2017-09-17T11:42:39Z</time>
      </trkpt>
      <trkpt lat="44.06962" lon="7.52254">
        <ele>1378</ele>
        <time>2017-09-17T11:42:40Z</time>
      </trkpt>
      <trkpt lat="44.06969" lon="7.5224">
        <ele>1378</ele>
        <time>2017-09-17T11:42:41Z</time>
      </trkpt>
      <trkpt lat="44.06976" lon="7.52226">
        <ele>1379</ele>
        <time>2017-09-17T11:42:42Z</time>
      </trkpt>
      <trkpt lat="44.06982" lon="7.52212">
        <ele>1379</ele>
        <time>2017-09-17T11:42:43Z</time>
      </trkpt>
      <trkpt lat="44.06989" lon="7.522">
        <ele>1379</ele>
        <time>2017-09-17T11:42:44Z</time>
      </trkpt>
      <trkpt lat="44.06996" lon="7.52189">
        <ele>1380</ele>
        <time>2017-09-17T11:42:45Z</time>
      </trkpt>
      <trkpt lat="44.07004" lon="7.5218">
        <ele>1380</ele>
        <time>2017-09-17T11:42:46Z</time>
      </trkpt>
      <trkpt lat="44.07013" lon="7.52173">
        <ele>1381</ele>
        <time>2017-09-17T11:42:47Z</time>
      </trkpt>
      <trkpt lat="44.07022" lon="7.52168">
        <ele>1381</ele>
        <time>2017-09-17T11:42:48Z</time>
      </trkpt>
      <trkpt lat="44.07033" lon="7.52165">
        <ele>1381</ele>
        <time>2017-09-17T11:42:49Z</time>
      </trkpt>
      <trkpt lat="44.07044" lon="7.52164">
        <ele>1381</ele>
        <time>2017-09-17T11:42:50Z</time>
      </trkpt>
      <trkpt lat="44.07055" lon="7.52162">
        <ele>1381</ele>
        <time>2017-09-17T11:42:51Z</time>
      </trkpt>
      <trkpt lat="44.07066" lon="7.52161">
        <ele>1382</ele>
        <time>2017-09-17T11:42:52Z</time>
      </trkpt>
      <trkpt lat="44.07076" lon="7.52158">
        <ele>1382</ele>
        <time>2017-09-17T11:42:53Z</time>
      </trkpt>
      <trkpt lat="44.07085" lon="7.52154">
        <ele>1383</ele>
        <time>2017-09-17T11:42:54Z</time>
      </trkpt>
      <trkpt lat="44.07095" lon="7.52149">
        <ele>1383</ele>
        <time>2017-09-17T11:42:55Z</time>
      </trkpt>
      <trkpt lat="44.07103" lon="7.52145">
        <ele>1383</ele>
        <time>2017-09-17T11:42:56Z</time>
      </trkpt>
      <trkpt lat="44.07112" lon="7.52144">
        <ele>1384</ele>
        <time>2017-09-17T11:42:57Z</time>
      </trkpt>
      <trkpt lat="44.07121" lon="7.52144">
        <ele>1384</ele>
        <time>2017-09-17T11:42:58Z</time>
      </trkpt>
      <trkpt lat="44.07132" lon="7.52145">
        <ele>1385</ele>
        <time>2017-09-17T11:42:59Z</time>
      </trkpt>
      <trkpt lat="44.07142" lon="7.52145">
        <ele>1386</ele>
        <time>2017-09-17T11:43:00Z</time>
      </trkpt>
      <trkpt lat="44.07153" lon="7.52144">
        <ele>1386</ele>
        <time>2017-09-17T11:43:01Z</time>
      </trkpt>
      <trkpt lat="44.07164" lon="7.52145">
        <ele>1387</ele>
        <time>2017-09-17T11:43:02Z</time>
      </trkpt>
      <trkpt lat="44.07176" lon="7.52147">
        <ele>1388</ele>
        <time>2017-09-17T11:43:03Z</time>
      </trkpt>
      <trkpt lat="44.07187" lon="7.52149">
        <ele>1389</ele>
        <time>2017-09-17T11:43:04Z</time>
      </trkpt>
      <trkpt lat="44.07197" lon="7.52149">
        <ele>1390</ele>
        <time>2017-09-17T11:43:05Z</time>
      </trkpt>
      <trkpt lat="44.07208" lon="7.52146">
        <ele>1391</ele>
        <time>2017-09-17T11:43:06Z</time>
      </trkpt>
      <trkpt lat="44.07217" lon="7.5214">
        <ele>1392</ele>
        <time>2017-09-17T11:43:07Z</time>
      </trkpt>
      <trkpt lat="44.07225" lon="7.52132">
        <ele>1392</ele>
        <time>2017-09-17T11:43:08Z</time>
      </trkpt>
      <trkpt lat="44.07232" lon="7.52121">
        <ele>1393</ele>
        <time>2017-09-17T11:43:09Z</time>
      </trkpt>
      <trkpt lat="44.07239" lon="7.52111">
        <ele>1394</ele>
        <time>2017-09-17T11:43:10Z</time>
      </trkpt>
      <trkpt lat="44.07246" lon="7.52101">
        <ele>1394</ele>
        <time>2017-09-17T11:43:11Z</time>
      </trkpt>
      <trkpt lat="44.07253" lon="7.52093">
        <ele>1395</ele>
        <time>2017-09-17T11:43:12Z</time>
      </trkpt>
      <trkpt lat="44.0726" lon="7.52087">
        <ele>1395</ele>
        <time>2017-09-17T11:43:13Z</time>
      </trkpt>
      <trkpt lat="44.07266" lon="7.52082">
        <ele>1395</ele>
        <time>2017-09-17T11:43:14Z</time>
      </trkpt>
      <trkpt lat="44.07271" lon="7.52077">
        <ele>1395</ele>
        <time>2017-09-17T11:43:15Z</time>
      </trkpt>
      <trkpt lat="44.07275" lon="7.52073">
        <ele>1395</ele>
        <time>2017-09-17T11:43:16Z</time>
      </trkpt>
      <trkpt lat="44.07277" lon="7.52067">
        <ele>1395</ele>
        <time>2017-09-17T11:43:17Z</time>
      </trkpt>
      <trkpt lat="44.07277" lon="7.52065">
        <ele>1395</ele>
        <time>2017-09-17T11:43:18Z</time>
      </trkpt>
      <trkpt lat="44.07273" lon="7.52067">
        <ele>1395</ele>
        <time>2017-09-17T11:43:19Z</time>
      </trkpt>
      <trkpt lat="44.07266" lon="7.52071">
        <ele>1395</ele>
        <time>2017-09-17T11:43:20Z</time>
      </trkpt>
      <trkpt lat="44.07258" lon="7.52077">
        <ele>1395</ele>
        <time>2017-09-17T11:43:21Z</time>
      </trkpt>
      <trkpt lat="44.0725" lon="7.52083">
        <ele>1396</ele>
        <time>2017-09-17T11:43:22Z</time>
      </trkpt>
      <trkpt lat="44.07243" lon="7.5209">
        <ele>1396</ele>
        <time>2017-09-17T11:43:23Z</time>
      </trkpt>
      <trkpt lat="44.07235" lon="7.52096">
        <ele>1396</ele>
        <time>2017-09-17T11:43:24Z</time>
      </trkpt>
      <trkpt lat="44.07229" lon="7.52101">
        <ele>1396</ele>
        <time>2017-09-17T11:43:25Z</time>
      </trkpt>
      <trkpt lat="44.07222" lon="7.52104">
        <ele>1396</ele>
        <time>2017-09-17T11:43:26Z</time>
      </trkpt>
      <trkpt lat="44.07217" lon="7.52105">
        <ele>1396</ele>
        <time>2017-09-17T11:43:27Z</time>
      </trkpt>
      <trkpt lat="44.07213" lon="7.52102">
        <ele>1397</ele>
        <time>2017-09-17T11:43:28Z</time>
      </trkpt>
      <trkpt lat="44.07211" lon="7.52098">
        <ele>1397</ele>
        <time>2017-09-17T11:43:29Z</time>
      </trkpt>
      <trkpt lat="44.07211" lon="7.52094">
        <ele>1397</ele>
        <time>2017-09-17T11:43:30Z</time>
      </trkpt>
      <trkpt lat="44.07214" lon="7.52089">
        <ele>1397</ele>
        <time>2017-09-17T11:43:31Z</time>
      </trkpt>
      <trkpt lat="44.07219" lon="7.52087">
        <ele>1398</ele>
        <time>2017-09-17T11:43:32Z</time>
      </trkpt>
      <trkpt lat="44.07224" lon="7.52084">
        <ele>1398</ele>
        <time>2017-09-17T11:43:33Z</time>
      </trkpt>
      <trkpt lat="44.07229" lon="7.5208">
        <ele>1398</ele>
        <time>2017-09-17T11:43:34Z</time>
      </trkpt>
      <trkpt lat="44.07232" lon="7.52075">
        <ele>1398</ele>
        <time>2017-09-17T11:43:35Z</time>
      </trkpt>
      <trkpt lat="44.07234" lon="7.52069">
        <ele>1398</ele>
        <time>2017-09-17T11:43:36Z</time>
      </trkpt>
      <trkpt lat="44.07234" lon="7.52064">
        <ele>1398</ele>
        <time>2017-09-17T11:43:37Z</time>
      </trkpt>
      <trkpt lat="44.07232" lon="7.52062">
        <ele>1398</ele>
        <time>2017-09-17T11:43:38Z</time>
      </trkpt>
      <trkpt lat="44.07227" lon="7.52062">
        <ele>1398</ele>
        <time>2017-09-17T11:43:39Z</time>
      </trkpt>
      <trkpt lat="44.07221" lon="7.52064">
        <ele>1398</ele>
        <time>2017-09-17T11:43:40Z</time>
      </trkpt>
      <trkpt lat="44.07214" lon="7.52066">
        <ele>1399</ele>
        <time>2017-09-17T11:43:41Z</time>
      </trkpt>
      <trkpt lat="44.07206" lon="7.52067">
        <ele>1399</ele>
        <time>2017-09-17T11:43:42Z</time>
      </trkpt>
      <trkpt lat="44.07198" lon="7.52067">
        <ele>1399</ele>
        <time>2017-09-17T11:43:43Z</time>
      </trkpt>
      <trkpt lat="44.0719" lon="7.52065">
        <ele>1399</ele>
        <time>2017-09-17T11:43:44Z</time>
      </trkpt>
      <trkpt lat="44.07182" lon="7.52064">
        <ele>1400</ele>
        <time>2017-09-17T11:43:45Z</time>
      </trkpt>
      <trkpt lat="44.07176" lon="7.52062">
        <ele>1400</ele>
        <time>2017-09-17T11:43:46Z</time>
      </trkpt>
      <trkpt lat="44.0717" lon="7.5206">
        <ele>1400</ele>
        <time>2017-09-17T11:43:47Z</time>
      </trkpt>
      <trkpt lat="44.07166" lon="7.52057">
        <ele>1400</ele>
        <time>2017-09-17T11:43:48Z</time>
      </trkpt>
      <trkpt lat="44.07163" lon="7.52053">
        <ele>1400</ele>
        <time>2017-09-17T11:43:49Z</time>
      </trkpt>
      <trkpt lat="44.07162" lon="7.52049">
        <ele>1401</ele>
        <time>2017-09-17T11:43:50Z</time>
      </trkpt>
      <trkpt lat="44.07165" lon="7.52046">
        <ele>1401</ele>
        <time>2017-09-17T11:43:51Z</time>
      </trkpt>
      <trkpt lat="44.07168" lon="7.52046">
        <ele>1401</ele>
        <time>2017-09-17T11:43:52Z</time>
      </trkpt>
      <trkpt lat="44.07173" lon="7.52047">
        <ele>1401</ele>
        <time>2017-09-17T11:43:53Z</time>
      </trkpt>
      <trkpt lat="44.07178" lon="7.52049">
        <ele>1401</ele>
        <time>2017-09-17T11:43:54Z</time>
      </trkpt>
      <trkpt lat="44.07185" lon="7.5205">
        <ele>1401</ele>
        <time>2017-09-17T11:43:55Z</time>
      </trkpt>
      <trkpt lat="44.07192" lon="7.52049">
        <ele>1401</ele>
        <time>2017-09-17T11:43:56Z</time>
      </trkpt>
      <trkpt lat="44.072" lon="7.52046">
        <ele>1402</ele>
        <time>2017-09-17T11:43:57Z</time>
      </trkpt>
      <trkpt lat="44.07208" lon="7.52041">
        <ele>1402</ele>
        <time>2017-09-17T11:43:58Z</time>
      </trkpt>
      <trkpt lat="44.07216" lon="7.52036">
        <ele>1402</ele>
        <time>2017-09-17T11:43:59Z</time>
      </trkpt>
      <trkpt lat="44.07225" lon="7.52031">
        <ele>1403</ele>
        <time>2017-09-17T11:44:00Z</time>
      </trkpt>
      <trkpt lat="44.07235" lon="7.52026">
        <ele>1403</ele>
        <time>2017-09-17T11:44:01Z</time>
      </trkpt>
      <trkpt lat="44.07245" lon="7.52023">
        <ele>1403</ele>
        <time>2017-09-17T11:44:02Z</time>
      </trkpt>
      <trkpt lat="44.07255" lon="7.52019">
        <ele>1403</ele>
        <time>2017-09-17T11:44:03Z</time>
      </trkpt>
      <trkpt lat="44.07266" lon="7.52016">
        <ele>1404</ele>
        <time>2017-09-17T11:44:04Z</time>
      </trkpt>
      <trkpt lat="44.07276" lon="7.52013">
        <ele>1404</ele>
        <time>2017-09-17T11:44:05Z</time>
      </trkpt>
      <trkpt lat="44.07288" lon="7.5201">
        <ele>1404</ele>
        <time>2017-09-17T11:44:06Z</time>
      </trkpt>
      <trkpt lat="44.073" lon="7.52007">
        <ele>1405</ele>
        <time>2017-09-17T11:44:07Z</time>
      </trkpt>
      <trkpt lat="44.07311" lon="7.52004">
        <ele>1405</ele>
        <time>2017-09-17T11:44:08Z</time>
      </trkpt>
      <trkpt lat="44.07323" lon="7.52002">
        <ele>1406</ele>
        <time>2017-09-17T11:44:09Z</time>
      </trkpt>
      <trkpt lat="44.07334" lon="7.52">
        <ele>1406</ele>
        <time>2017-09-17T11:44:10Z</time>
      </trkpt>
      <trkpt lat="44.07345" lon="7.51999">
        <ele>1407</ele>
        <time>2017-09-17T11:44:11Z</time>
      </trkpt>
      <trkpt lat="44.07357" lon="7.52001">
        <ele>1407</ele>
        <time>2017-09-17T11:44:12Z</time>
      </trkpt>
      <trkpt lat="44.07368" lon="7.52003">
        <ele>1408</ele>
        <time>2017-09-17T11:44:13Z</time>
      </trkpt>
      <trkpt lat="44.0738" lon="7.52007">
        <ele>1408</ele>
        <time>2017-09-17T11:44:14Z</time>
      </trkpt>
      <trkpt lat="44.07392" lon="7.5201">
        <ele>1409</ele>
        <time>2017-09-17T11:44:15Z</time>
      </trkpt>
      <trkpt lat="44.07404" lon="7.52012">
        <ele>1410</ele>
        <time>2017-09-17T11:44:16Z</time>
      </trkpt>
      <trkpt lat="44.07416" lon="7.52014">
        <ele>1411</ele>
        <time>2017-09-17T11:44:17Z</time>
      </trkpt>
      <trkpt lat="44.07427" lon="7.52018">
        <ele>1413</ele>
        <time>2017-09-17T11:44:18Z</time>
      </trkpt>
      <trkpt lat="44.07437" lon="7.52024">
        <ele>1414</ele>
        <time>2017-09-17T11:44:19Z</time>
      </trkpt>
      <trkpt lat="44.07445" lon="7.52032">
        <ele>1415</ele>
        <time>2017-09-17T11:44:20Z</time>
      </trkpt>
      <trkpt lat="44.07454" lon="7.5204">
        <ele>1417</ele>
        <time>2017-09-17T11:44:21Z</time>
      </trkpt>
      <trkpt lat="44.07463" lon="7.52047">
        <ele>1418</ele>
        <time>2017-09-17T11:44:22Z</time>
      </trkpt>
      <trkpt lat="44.07473" lon="7.52053">
        <ele>1419</ele>
        <time>2017-09-17T11:44:23Z</time>
      </trkpt>
      <trkpt lat="44.07483" lon="7.52057">
        <ele>1421</ele>
        <time>2017-09-17T11:44:24Z</time>
      </trkpt>
      <trkpt lat="44.07494" lon="7.52059">
        <ele>1422</ele>
        <time>2017-09-17T11:44:25Z</time>
      </trkpt>
      <trkpt lat="44.07505" lon="7.52059">
        <ele>1424</ele>
        <time>2017-09-17T11:44:26Z</time>
      </trkpt>
      <trkpt lat="44.07516" lon="7.52057">
        <ele>1425</ele>
        <time>2017-09-17T11:44:27Z</time>
      </trkpt>
      <trkpt lat="44.07526" lon="7.52055">
        <ele>1426</ele>
        <time>2017-09-17T11:44:28Z</time>
      </trkpt>
      <trkpt lat="44.07536" lon="7.52053">
        <ele>1427</ele>
        <time>2017-09-17T11:44:29Z</time>
      </trkpt>
      <trkpt lat="44.07547" lon="7.52052">
        <ele>1428</ele>
        <time>2017-09-17T11:44:30Z</time>
      </trkpt>
      <trkpt lat="44.07557" lon="7.52053">
        <ele>1429</ele>
        <time>2017-09-17T11:44:31Z</time>
      </trkpt>
      <trkpt lat="44.07568" lon="7.52056">
        <ele>1430</ele>
        <time>2017-09-17T11:44:32Z</time>
      </trkpt>
      <trkpt lat="44.07578" lon="7.5206">
        <ele>1430</ele>
        <time>2017-09-17T11:44:33Z</time>
      </trkpt>
      <trkpt lat="44.07588" lon="7.52066">
        <ele>1431</ele>
        <time>2017-09-17T11:44:34Z</time>
      </trkpt>
      <trkpt lat="44.07598" lon="7.52074">
        <ele>1432</ele>
        <time>2017-09-17T11:44:35Z</time>
      </trkpt>
      <trkpt lat="44.07608" lon="7.52082">
        <ele>1433</ele>
        <time>2017-09-17T11:44:36Z</time>
      </trkpt>
      <trkpt lat="44.07618" lon="7.52089">
        <ele>1435</ele>
        <time>2017-09-17T11:44:37Z</time>
      </trkpt>
      <trkpt lat="44.07627" lon="7.52097">
        <ele>1436</ele>
        <time>2017-09-17T11:44:38Z</time>
      </trkpt>
      <trkpt lat="44.07636" lon="7.52104">
        <ele>1437</ele>
        <time>2017-09-17T11:44:39Z</time>
      </trkpt>
      <trkpt lat="44.07643" lon="7.52113">
        <ele>1438</ele>
        <time>2017-09-17T11:44:40Z</time>
      </trkpt>
      <trkpt lat="44.0765" lon="7.52123">
        <ele>1439</ele>
        <time>2017-09-17T11:44:41Z</time>
      </trkpt>
      <trkpt lat="44.07657" lon="7.52133">
        <ele>1440</ele>
        <time>2017-09-17T11:44:42Z</time>
      </trkpt>
      <trkpt lat="44.07664" lon="7.52142">
        <ele>1441</ele>
        <time>2017-09-17T11:44:43Z</time>
      </trkpt>
      <trkpt lat="44.07672" lon="7.52149">
        <ele>1442</ele>
        <time>2017-09-17T11:44:44Z</time>
      </trkpt>
      <trkpt lat="44.0768" lon="7.52153">
        <ele>1442</ele>
        <time>2017-09-17T11:44:45Z</time>
      </trkpt>
      <trkpt lat="44.0769" lon="7.52155">
        <ele>1443</ele>
        <time>2017-09-17T11:44:46Z</time>
      </trkpt>
      <trkpt lat="44.077" lon="7.52157">
        <ele>1445</ele>
        <time>2017-09-17T11:44:47Z</time>
      </trkpt>
      <trkpt lat="44.07711" lon="7.52157">
        <ele>1446</ele>
        <time>2017-09-17T11:44:48Z</time>
      </trkpt>
      <trkpt lat="44.07722" lon="7.52155">
        <ele>1447</ele>
        <time>2017-09-17T11:44:49Z</time>
      </trkpt>
      <trkpt lat="44.07734" lon="7.52151">
        <ele>1449</ele>
        <time>2017-09-17T11:44:50Z</time>
      </trkpt>
      <trkpt lat="44.07745" lon="7.52148">
        <ele>1450</ele>
        <time>2017-09-17T11:44:51Z</time>
      </trkpt>
      <trkpt lat="44.07756" lon="7.52148">
        <ele>1451</ele>
        <time>2017-09-17T11:44:52Z</time>
      </trkpt>
      <trkpt lat="44.07766" lon="7.52149">
        <ele>1453</ele>
        <time>2017-09-17T11:44:53Z</time>
      </trkpt>
      <trkpt lat="44.07776" lon="7.52148">
        <ele>1454</ele>
        <time>2017-09-17T11:44:54Z</time>
      </trkpt>
      <trkpt lat="44.07785" lon="7.52146">
        <ele>1455</ele>
        <time>2017-09-17T11:44:55Z</time>
      </trkpt>
      <trkpt lat="44.07794" lon="7.5214">
        <ele>1456</ele>
        <time>2017-09-17T11:44:56Z</time>
      </trkpt>
      <trkpt lat="44.07803" lon="7.52132">
        <ele>1457</ele>
        <time>2017-09-17T11:44:57Z</time>
      </trkpt>
      <trkpt lat="44.07812" lon="7.52124">
        <ele>1458</ele>
        <time>2017-09-17T11:44:58Z</time>
      </trkpt>
      <trkpt lat="44.07822" lon="7.52116">
        <ele>1459</ele>
        <time>2017-09-17T11:44:59Z</time>
      </trkpt>
      <trkpt lat="44.07832" lon="7.52108">
        <ele>1460</ele>
        <time>2017-09-17T11:45:00Z</time>
      </trkpt>
      <trkpt lat="44.07844" lon="7.52101">
        <ele>1461</ele>
        <time>2017-09-17T11:45:01Z</time>
      </trkpt>
      <trkpt lat="44.07856" lon="7.52094">
        <ele>1463</ele>
        <time>2017-09-17T11:45:02Z</time>
      </trkpt>
      <trkpt lat="44.07868" lon="7.52087">
        <ele>1464</ele>
        <time>2017-09-17T11:45:03Z</time>
      </trkpt>
      <trkpt lat="44.0788" lon="7.52079">
        <ele>1466</ele>
        <time>2017-09-17T11:45:04Z</time>
      </trkpt>
      <trkpt lat="44.07892" lon="7.5207">
        <ele>1467</ele>
        <time>2017-09-17T11:45:05Z</time>
      </trkpt>
      <trkpt lat="44.07904" lon="7.52061">
        <ele>1469</ele>
        <time>2017-09-17T11:45:06Z</time>
      </trkpt>
      <trkpt lat="44.07917" lon="7.52051">
        <ele>1471</ele>
        <time>2017-09-17T11:45:07Z</time>
      </trkpt>
      <trkpt lat="44.07929" lon="7.52041">
        <ele>1472</ele>
        <time>2017-09-17T11:45:08Z</time>
      </trkpt>
      <trkpt lat="44.07942" lon="7.52031">
        <ele>1474</ele>
        <time>2017-09-17T11:45:09Z</time>
      </trkpt>
      <trkpt lat="44.07954" lon="7.52022">
        <ele>1476</ele>
        <time>2017-09-17T11:45:10Z</time>
      </trkpt>
      <trkpt lat="44.07967" lon="7.52013">
        <ele>1477</ele>
        <time>2017-09-17T11:45:11Z</time>
      </trkpt>
      <trkpt lat="44.0798" lon="7.52006">
        <ele>1479</ele>
        <time>2017-09-17T11:45:12Z</time>
      </trkpt>
      <trkpt lat="44.07993" lon="7.51999">
        <ele>1481</ele>
        <time>2017-09-17T11:45:13Z</time>
      </trkpt>
      <trkpt lat="44.08007" lon="7.51993">
        <ele>1482</ele>
        <time>2017-09-17T11:45:14Z</time>
      </trkpt>
      <trkpt lat="44.0802" lon="7.51987">
        <ele>1483</ele>
        <time>2017-09-17T11:45:15Z</time>
      </trkpt>
      <trkpt lat="44.08034" lon="7.51982">
        <ele>1485</ele>
        <time>2017-09-17T11:45:16Z</time>
      </trkpt>
      <trkpt lat="44.08047" lon="7.51979">
        <ele>1486</ele>
        <time>2017-09-17T11:45:17Z</time>
      </trkpt>
      <trkpt lat="44.0806" lon="7.51976">
        <ele>1487</ele>
        <time>2017-09-17T11:45:18Z</time>
      </trkpt>
      <trkpt lat="44.08072" lon="7.51974">
        <ele>1489</ele>
        <time>2017-09-17T11:45:19Z</time>
      </trkpt>
      <trkpt lat="44.08084" lon="7.51972">
        <ele>1491</ele>
        <time>2017-09-17T11:45:20Z</time>
      </trkpt>
      <trkpt lat="44.08095" lon="7.51971">
        <ele>1492</ele>
        <time>2017-09-17T11:45:21Z</time>
      </trkpt>
      <trkpt lat="44.08106" lon="7.5197">
        <ele>1493</ele>
        <time>2017-09-17T11:45:22Z</time>
      </trkpt>
      <trkpt lat="44.08116" lon="7.5197">
        <ele>1495</ele>
        <time>2017-09-17T11:45:23Z</time>
      </trkpt>
      <trkpt lat="44.08126" lon="7.5197">
        <ele>1496</ele>
        <time>2017-09-17T11:45:24Z</time>
      </trkpt>
      <trkpt lat="44.08135" lon="7.51972">
        <ele>1497</ele>
        <time>2017-09-17T11:45:25Z</time>
      </trkpt>
      <trkpt lat="44.08144" lon="7.51973">
        <ele>1497</ele>
        <time>2017-09-17T11:45:26Z</time>
      </trkpt>
      <trkpt lat="44.08153" lon="7.51973">
        <ele>1498</ele>
        <time>2017-09-17T11:45:27Z</time>
      </trkpt>
      <trkpt lat="44.08163" lon="7.51971">
        <ele>1499</ele>
        <time>2017-09-17T11:45:28Z</time>
      </trkpt>
      <trkpt lat="44.08171" lon="7.51968">
        <ele>1500</ele>
        <time>2017-09-17T11:45:29Z</time>
      </trkpt>
      <trkpt lat="44.0818" lon="7.51962">
        <ele>1501</ele>
        <time>2017-09-17T11:45:30Z</time>
      </trkpt>
      <trkpt lat="44.08188" lon="7.51955">
        <ele>1501</ele>
        <time>2017-09-17T11:45:31Z</time>
      </trkpt>
      <trkpt lat="44.08197" lon="7.51946">
        <ele>1502</ele>
        <time>2017-09-17T11:45:32Z</time>
      </trkpt>
      <trkpt lat="44.08207" lon="7.51937">
        <ele>1503</ele>
        <time>2017-09-17T11:45:33Z</time>
      </trkpt>
      <trkpt lat="44.08216" lon="7.51927">
        <ele>1504</ele>
        <time>2017-09-17T11:45:34Z</time>
      </trkpt>
      <trkpt lat="44.08224" lon="7.51917">
        <ele>1504</ele>
        <time>2017-09-17T11:45:35Z</time>
      </trkpt>
      <trkpt lat="44.08233" lon="7.51908">
        <ele>1505</ele>
        <time>2017-09-17T11:45:36Z</time>
      </trkpt>
      <trkpt lat="44.08243" lon="7.519">
        <ele>1506</ele>
        <time>2017-09-17T11:45:37Z</time>
      </trkpt>
      <trkpt lat="44.08253" lon="7.51893">
        <ele>1506</ele>
        <time>2017-09-17T11:45:38Z</time>
      </trkpt>
      <trkpt lat="44.08263" lon="7.51889">
        <ele>1507</ele>
        <time>2017-09-17T11:45:39Z</time>
      </trkpt>
      <trkpt lat="44.08273" lon="7.51885">
        <ele>1507</ele>
        <time>2017-09-17T11:45:40Z</time>
      </trkpt>
      <trkpt lat="44.08285" lon="7.51881">
        <ele>1508</ele>
        <time>2017-09-17T11:45:41Z</time>
      </trkpt>
      <trkpt lat="44.08296" lon="7.51875">
        <ele>1508</ele>
        <time>2017-09-17T11:45:42Z</time>
      </trkpt>
      <trkpt lat="44.08308" lon="7.51867">
        <ele>1509</ele>
        <time>2017-09-17T11:45:43Z</time>
      </trkpt>
      <trkpt lat="44.08319" lon="7.51859">
        <ele>1509</ele>
        <time>2017-09-17T11:45:44Z</time>
      </trkpt>
      <trkpt lat="44.0833" lon="7.51851">
        <ele>1509</ele>
        <time>2017-09-17T11:45:45Z</time>
      </trkpt>
      <trkpt lat="44.08341" lon="7.51843">
        <ele>1510</ele>
        <time>2017-09-17T11:45:46Z</time>
      </trkpt>
      <trkpt lat="44.08353" lon="7.51836">
        <ele>1510</ele>
        <time>2017-09-17T11:45:47Z</time>
      </trkpt>
      <trkpt lat="44.08365" lon="7.5183">
        <ele>1511</ele>
        <time>2017-09-17T11:45:48Z</time>
      </trkpt>
      <trkpt lat="44.08377" lon="7.51825">
        <ele>1511</ele>
        <time>2017-09-17T11:45:49Z</time>
      </trkpt>
      <trkpt lat="44.08389" lon="7.51823">
        <ele>1511</ele>
        <time>2017-09-17T11:45:50Z</time>
      </trkpt>
      <trkpt lat="44.08401" lon="7.51822">
        <ele>1511</ele>
        <time>2017-09-17T11:45:51Z</time>
      </trkpt>
      <trkpt lat="44.08413" lon="7.51821">
        <ele>1511</ele>
        <time>2017-09-17T11:45:52Z</time>
      </trkpt>
      <trkpt lat="44.08425" lon="7.51818">
        <ele>1512</ele>
        <time>2017-09-17T11:45:53Z</time>
      </trkpt>
      <trkpt lat="44.08436" lon="7.51813">
        <ele>1512</ele>
        <time>2017-09-17T11:45:54Z</time>
      </trkpt>
      <trkpt lat="44.08447" lon="7.51806">
        <ele>1512</ele>
        <time>2017-09-17T11:45:55Z</time>
      </trkpt>
      <trkpt lat="44.08458" lon="7.51798">
        <ele>1513</ele>
        <time>2017-09-17T11:45:56Z</time>
      </trkpt>
      <trkpt lat="44.08469" lon="7.51792">
        <ele>1513</ele>
        <time>2017-09-17T11:45:57Z</time>
      </trkpt>
      <trkpt lat="44.08481" lon="7.51787">
        <ele>1513</ele>
        <time>2017-09-17T11:45:58Z</time>
      </trkpt>
      <trkpt lat="44.08494" lon="7.51784">
        <ele>1514</ele>
        <time>2017-09-17T11:45:59Z</time>
      </trkpt>
      <trkpt lat="44.08505" lon="7.51782">
        <ele>1514</ele>
        <time>2017-09-17T11:46:00Z</time>
      </trkpt>
      <trkpt lat="44.08517" lon="7.51781">
        <ele>1514</ele>
        <time>2017-09-17T11:46:01Z</time>
      </trkpt>
      <trkpt lat="44.08529" lon="7.51778">
        <ele>1514</ele>
        <time>2017-09-17T11:46:02Z</time>
      </trkpt>
      <trkpt lat="44.0854" lon="7.51772">
        <ele>1515</ele>
        <time>2017-09-17T11:46:03Z</time>
      </trkpt>
      <trkpt lat="44.08551" lon="7.51765">
        <ele>1515</ele>
        <time>2017-09-17T11:46:04Z</time>
      </trkpt>
      <trkpt lat="44.08562" lon="7.51756">
        <ele>1515</ele>
        <time>2017-09-17T11:46:05Z</time>
      </trkpt>
      <trkpt lat="44.08572" lon="7.51747">
        <ele>1515</ele>
        <time>2017-09-17T11:46:06Z</time>
      </trkpt>
      <trkpt lat="44.08583" lon="7.51739">
        <ele>1515</ele>
        <time>2017-09-17T11:46:07Z</time>
      </trkpt>
      <trkpt lat="44.08594" lon="7.51733">
        <ele>1515</ele>
        <time>2017-09-17T11:46:08Z</time>
      </trkpt>
      <trkpt lat="44.08607" lon="7.51728">
        <ele>1515</ele>
        <time>2017-09-17T11:46:09Z</time>
      </trkpt>
      <trkpt lat="44.08619" lon="7.51723">
        <ele>1515</ele>
        <time>2017-09-17T11:46:10Z</time>
      </trkpt>
      <trkpt lat="44.08632" lon="7.51718">
        <ele>1515</ele>
        <time>2017-09-17T11:46:11Z</time>
      </trkpt>
      <trkpt lat="44.08646" lon="7.51714">
        <ele>1515</ele>
        <time>2017-09-17T11:46:12Z</time>
      </trkpt>
      <trkpt lat="44.08659" lon="7.5171">
        <ele>1515</ele>
        <time>2017-09-17T11:46:13Z</time>
      </trkpt>
      <trkpt lat="44.08672" lon="7.51706">
        <ele>1515</ele>
        <time>2017-09-17T11:46:14Z</time>
      </trkpt>
      <trkpt lat="44.08684" lon="7.51703">
        <ele>1516</ele>
        <time>2017-09-17T11:46:15Z</time>
      </trkpt>
      <trkpt lat="44.08696" lon="7.51698">
        <ele>1516</ele>
        <time>2017-09-17T11:46:16Z</time>
      </trkpt>
      <trkpt lat="44.08707" lon="7.51691">
        <ele>1516</ele>
        <time>2017-09-17T11:46:17Z</time>
      </trkpt>
      <trkpt lat="44.08717" lon="7.51681">
        <ele>1516</ele>
        <time>2017-09-17T11:46:18Z</time>
      </trkpt>
      <trkpt lat="44.08728" lon="7.51672">
        <ele>1516</ele>
        <time>2017-09-17T11:46:19Z</time>
      </trkpt>
      <trkpt lat="44.0874" lon="7.51665">
        <ele>1517</ele>
        <time>2017-09-17T11:46:20Z</time>
      </trkpt>
      <trkpt lat="44.08752" lon="7.51659">
        <ele>1517</ele>
        <time>2017-09-17T11:46:21Z</time>
      </trkpt>
      <trkpt lat="44.08765" lon="7.51653">
        <ele>1517</ele>
        <time>2017-09-17T11:46:22Z</time>
      </trkpt>
      <trkpt lat="44.08777" lon="7.51646">
        <ele>1517</ele>
        <time>2017-09-17T11:46:23Z</time>
      </trkpt>
      <trkpt lat="44.0879" lon="7.51639">
        <ele>1517</ele>
        <time>2017-09-17T11:46:24Z</time>
      </trkpt>
      <trkpt lat="44.08802" lon="7.5163">
        <ele>1518</ele>
        <time>2017-09-17T11:46:25Z</time>
      </trkpt>
      <trkpt lat="44.08815" lon="7.51622">
        <ele>1518</ele>
        <time>2017-09-17T11:46:26Z</time>
      </trkpt>
      <trkpt lat="44.08827" lon="7.51614">
        <ele>1519</ele>
        <time>2017-09-17T11:46:27Z</time>
      </trkpt>
      <trkpt lat="44.08839" lon="7.51605">
        <ele>1519</ele>
        <time>2017-09-17T11:46:28Z</time>
      </trkpt>
      <trkpt lat="44.0885" lon="7.51596">
        <ele>1520</ele>
        <time>2017-09-17T11:46:29Z</time>
      </trkpt>
      <trkpt lat="44.08861" lon="7.51585">
        <ele>1520</ele>
        <time>2017-09-17T11:46:30Z</time>
      </trkpt>
      <trkpt lat="44.08871" lon="7.51572">
        <ele>1520</ele>
        <time>2017-09-17T11:46:31Z</time>
      </trkpt>
      <trkpt lat="44.08881" lon="7.51559">
        <ele>1520</ele>
        <time>2017-09-17T11:46:32Z</time>
      </trkpt>
      <trkpt lat="44.08891" lon="7.51547">
        <ele>1520</ele>
        <time>2017-09-17T11:46:33Z</time>
      </trkpt>
      <trkpt lat="44.08902" lon="7.51536">
        <ele>1520</ele>
        <time>2017-09-17T11:46:34Z</time>
      </trkpt>
      <trkpt lat="44.08913" lon="7.51528">
        <ele>1520</ele>
        <time>2017-09-17T11:46:35Z</time>
      </trkpt>
      <trkpt lat="44.08925" lon="7.51523">
        <ele>1520</ele>
        <time>2017-09-17T11:46:36Z</time>
      </trkpt>
      <trkpt lat="44.08937" lon="7.5152">
        <ele>1520</ele>
        <time>2017-09-17T11:46:37Z</time>
      </trkpt>
      <trkpt lat="44.08951" lon="7.51519">
        <ele>1520</ele>
        <time>2017-09-17T11:46:38Z</time>
      </trkpt>
      <trkpt lat="44.08965" lon="7.51516">
        <ele>1521</ele>
        <time>2017-09-17T11:46:39Z</time>
      </trkpt>
      <trkpt lat="44.08978" lon="7.51512">
        <ele>1521</ele>
        <time>2017-09-17T11:46:40Z</time>
      </trkpt>
      <trkpt lat="44.08992" lon="7.51505">
        <ele>1521</ele>
        <time>2017-09-17T11:46:41Z</time>
      </trkpt>
      <trkpt lat="44.09005" lon="7.51497">
        <ele>1521</ele>
        <time>2017-09-17T11:46:42Z</time>
      </trkpt>
      <trkpt lat="44.09018" lon="7.51489">
        <ele>1521</ele>
        <time>2017-09-17T11:46:43Z</time>
      </trkpt>
      <trkpt lat="44.09032" lon="7.5148">
        <ele>1521</ele>
        <time>2017-09-17T11:46:44Z</time>
      </trkpt>
      <trkpt lat="44.09045" lon="7.51472">
        <ele>1522</ele>
        <time>2017-09-17T11:46:45Z</time>
      </trkpt>
      <trkpt lat="44.09059" lon="7.51464">
        <ele>1522</ele>
        <time>2017-09-17T11:46:46Z</time>
      </trkpt>
      <trkpt lat="44.09073" lon="7.51456">
        <ele>1522</ele>
        <time>2017-09-17T11:46:47Z</time>
      </trkpt>
      <trkpt lat="44.09087" lon="7.51449">
        <ele>1523</ele>
        <time>2017-09-17T11:46:48Z</time>
      </trkpt>
      <trkpt lat="44.09102" lon="7.51443">
        <ele>1523</ele>
        <time>2017-09-17T11:46:49Z</time>
      </trkpt>
      <trkpt lat="44.09116" lon="7.51436">
        <ele>1523</ele>
        <time>2017-09-17T11:46:50Z</time>
      </trkpt>
      <trkpt lat="44.09129" lon="7.51426">
        <ele>1524</ele>
        <time>2017-09-17T11:46:51Z</time>
      </trkpt>
      <trkpt lat="44.0914" lon="7.51414">
        <ele>1524</ele>
        <time>2017-09-17T11:46:52Z</time>
      </trkpt>
      <trkpt lat="44.0915" lon="7.514">
        <ele>1524</ele>
        <time>2017-09-17T11:46:53Z</time>
      </trkpt>
      <trkpt lat="44.09159" lon="7.51385">
        <ele>1525</ele>
        <time>2017-09-17T11:46:54Z</time>
      </trkpt>
      <trkpt lat="44.09167" lon="7.51369">
        <ele>1525</ele>
        <time>2017-09-17T11:46:55Z</time>
      </trkpt>
      <trkpt lat="44.09176" lon="7.51354">
        <ele>1526</ele>
        <time>2017-09-17T11:46:56Z</time>
      </trkpt>
      <trkpt lat="44.09185" lon="7.5134">
        <ele>1526</ele>
        <time>2017-09-17T11:46:57Z</time>
      </trkpt>
      <trkpt lat="44.09195" lon="7.51328">
        <ele>1527</ele>
        <time>2017-09-17T11:46:58Z</time>
      </trkpt>
      <trkpt lat="44.09206" lon="7.51316">
        <ele>1527</ele>
        <time>2017-09-17T11:46:59Z</time>
      </trkpt>
      <trkpt lat="44.09218" lon="7.51306">
        <ele>1528</ele>
        <time>2017-09-17T11:47:00Z</time>
      </trkpt>
      <trkpt lat="44.0923" lon="7.51297">
        <ele>1528</ele>
        <time>2017-09-17T11:47:01Z</time>
      </trkpt>
      <trkpt lat="44.09242" lon="7.5129">
        <ele>1528</ele>
        <time>2017-09-17T11:47:02Z</time>
      </trkpt>
      <trkpt lat="44.09253" lon="7.51282">
        <ele>1529</ele>
        <time>2017-09-17T11:47:03Z</time>
      </trkpt>
      <trkpt lat="44.09264" lon="7.51274">
        <ele>1529</ele>
        <time>2017-09-17T11:47:04Z</time>
      </trkpt>
      <trkpt lat="44.09275" lon="7.51264">
        <ele>1530</ele>
        <time>2017-09-17T11:47:05Z</time>
      </trkpt>
      <trkpt lat="44.09285" lon="7.51252">
        <ele>1530</ele>
        <time>2017-09-17T11:47:06Z</time>
      </trkpt>
      <trkpt lat="44.09293" lon="7.51239">
        <ele>1530</ele>
        <time>2017-09-17T11:47:07Z</time>
      </trkpt>
      <trkpt lat="44.09301" lon="7.51225">
        <ele>1531</ele>
        <time>2017-09-17T11:47:08Z</time>
      </trkpt>
      <trkpt lat="44.0931" lon="7.51211">
        <ele>1531</ele>
        <time>2017-09-17T11:47:09Z</time>
      </trkpt>
      <trkpt lat="44.09318" lon="7.51197">
        <ele>1532</ele>
        <time>2017-09-17T11:47:10Z</time>
      </trkpt>
      <trkpt lat="44.09326" lon="7.51181">
        <ele>1532</ele>
        <time>2017-09-17T11:47:11Z</time>
      </trkpt>
      <trkpt lat="44.09334" lon="7.51166">
        <ele>1533</ele>
        <time>2017-09-17T11:47:12Z</time>
      </trkpt>
      <trkpt lat="44.09342" lon="7.5115">
        <ele>1534</ele>
        <time>2017-09-17T11:47:13Z</time>
      </trkpt>
      <trkpt lat="44.09351" lon="7.51134">
        <ele>1534</ele>
        <time>2017-09-17T11:47:14Z</time>
      </trkpt>
      <trkpt lat="44.09359" lon="7.51118">
        <ele>1535</ele>
        <time>2017-09-17T11:47:15Z</time>
      </trkpt>
      <trkpt lat="44.09368" lon="7.51101">
        <ele>1535</ele>
        <time>2017-09-17T11:47:16Z</time>
      </trkpt>
      <trkpt lat="44.09376" lon="7.51085">
        <ele>1536</ele>
        <time>2017-09-17T11:47:17Z</time>
      </trkpt>
      <trkpt lat="44.09384" lon="7.51068">
        <ele>1536</ele>
        <time>2017-09-17T11:47:18Z</time>
      </trkpt>
      <trkpt lat="44.09393" lon="7.51052">
        <ele>1537</ele>
        <time>2017-09-17T11:47:19Z</time>
      </trkpt>
      <trkpt lat="44.09401" lon="7.51038">
        <ele>1537</ele>
        <time>2017-09-17T11:47:20Z</time>
      </trkpt>
      <trkpt lat="44.0941" lon="7.51024">
        <ele>1538</ele>
        <time>2017-09-17T11:47:21Z</time>
      </trkpt>
      <trkpt lat="44.0942" lon="7.51011">
        <ele>1538</ele>
        <time>2017-09-17T11:47:22Z</time>
      </trkpt>
      <trkpt lat="44.09431" lon="7.50999">
        <ele>1538</ele>
        <time>2017-09-17T11:47:23Z</time>
      </trkpt>
      <trkpt lat="44.09442" lon="7.50988">
        <ele>1539</ele>
        <time>2017-09-17T11:47:24Z</time>
      </trkpt>
      <trkpt lat="44.09454" lon="7.50977">
        <ele>1539</ele>
        <time>2017-09-17T11:47:25Z</time>
      </trkpt>
      <trkpt lat="44.09465" lon="7.50965">
        <ele>1540</ele>
        <time>2017-09-17T11:47:26Z</time>
      </trkpt>
      <trkpt lat="44.09476" lon="7.50954">
        <ele>1540</ele>
        <time>2017-09-17T11:47:27Z</time>
      </trkpt>
      <trkpt lat="44.09488" lon="7.50944">
        <ele>1540</ele>
        <time>2017-09-17T11:47:28Z</time>
      </trkpt>
      <trkpt lat="44.095" lon="7.50934">
        <ele>1541</ele>
        <time>2017-09-17T11:47:29Z</time>
      </trkpt>
      <trkpt lat="44.09511" lon="7.50927">
        <ele>1542</ele>
        <time>2017-09-17T11:47:30Z</time>
      </trkpt>
      <trkpt lat="44.09523" lon="7.50923">
        <ele>1542</ele>
        <time>2017-09-17T11:47:31Z</time>
      </trkpt>
      <trkpt lat="44.09535" lon="7.50922">
        <ele>1543</ele>
        <time>2017-09-17T11:47:32Z</time>
      </trkpt>
      <trkpt lat="44.09546" lon="7.50921">
        <ele>1544</ele>
        <time>2017-09-17T11:47:33Z</time>
      </trkpt>
      <trkpt lat="44.09558" lon="7.5092">
        <ele>1544</ele>
        <time>2017-09-17T11:47:34Z</time>
      </trkpt>
      <trkpt lat="44.09568" lon="7.50918">
        <ele>1545</ele>
        <time>2017-09-17T11:47:35Z</time>
      </trkpt>
      <trkpt lat="44.09578" lon="7.50916">
        <ele>1545</ele>
        <time>2017-09-17T11:47:36Z</time>
      </trkpt>
      <trkpt lat="44.09587" lon="7.50911">
        <ele>1546</ele>
        <time>2017-09-17T11:47:37Z</time>
      </trkpt>
      <trkpt lat="44.09595" lon="7.50904">
        <ele>1546</ele>
        <time>2017-09-17T11:47:38Z</time>
      </trkpt>
      <trkpt lat="44.09602" lon="7.50894">
        <ele>1546</ele>
        <time>2017-09-17T11:47:39Z</time>
      </trkpt>
      <trkpt lat="44.09608" lon="7.50883">
        <ele>1547</ele>
        <time>2017-09-17T11:47:40Z</time>
      </trkpt>
      <trkpt lat="44.09613" lon="7.5087">
        <ele>1547</ele>
        <time>2017-09-17T11:47:41Z</time>
      </trkpt>
      <trkpt lat="44.09618" lon="7.50857">
        <ele>1547</ele>
        <time>2017-09-17T11:47:42Z</time>
      </trkpt>
      <trkpt lat="44.09622" lon="7.50842">
        <ele>1547</ele>
        <time>2017-09-17T11:47:43Z</time>
      </trkpt>
      <trkpt lat="44.09625" lon="7.50827">
        <ele>1548</ele>
        <time>2017-09-17T11:47:44Z</time>
      </trkpt>
      <trkpt lat="44.09628" lon="7.50812">
        <ele>1548</ele>
        <time>2017-09-17T11:47:45Z</time>
      </trkpt>
      <trkpt lat="44.09631" lon="7.50797">
        <ele>1548</ele>
        <time>2017-09-17T11:47:46Z</time>
      </trkpt>
      <trkpt lat="44.09634" lon="7.50784">
        <ele>1548</ele>
        <time>2017-09-17T11:47:47Z</time>
      </trkpt>
      <trkpt lat="44.09639" lon="7.50772">
        <ele>1548</ele>
        <time>2017-09-17T11:47:48Z</time>
      </trkpt>
      <trkpt lat="44.09645" lon="7.50762">
        <ele>1549</ele>
        <time>2017-09-17T11:47:49Z</time>
      </trkpt>
      <trkpt lat="44.09652" lon="7.50753">
        <ele>1549</ele>
        <time>2017-09-17T11:47:50Z</time>
      </trkpt>
      <trkpt lat="44.0966" lon="7.50745">
        <ele>1549</ele>
        <time>2017-09-17T11:47:51Z</time>
      </trkpt>
      <trkpt lat="44.09669" lon="7.50737">
        <ele>1549</ele>
        <time>2017-09-17T11:47:52Z</time>
      </trkpt>
      <trkpt lat="44.09678" lon="7.5073">
        <ele>1550</ele>
        <time>2017-09-17T11:47:53Z</time>
      </trkpt>
      <trkpt lat="44.09687" lon="7.50722">
        <ele>1550</ele>
        <time>2017-09-17T11:47:54Z</time>
      </trkpt>
      <trkpt lat="44.09696" lon="7.50715">
        <ele>1550</ele>
        <time>2017-09-17T11:47:55Z</time>
      </trkpt>
      <trkpt lat="44.09705" lon="7.50709">
        <ele>1551</ele>
        <time>2017-09-17T11:47:56Z</time>
      </trkpt>
      <trkpt lat="44.09715" lon="7.50703">
        <ele>1551</ele>
        <time>2017-09-17T11:47:57Z</time>
      </trkpt>
      <trkpt lat="44.09725" lon="7.50697">
        <ele>1551</ele>
        <time>2017-09-17T11:47:58Z</time>
      </trkpt>
      <trkpt lat="44.09734" lon="7.5069">
        <ele>1552</ele>
        <time>2017-09-17T11:47:59Z</time>
      </trkpt>
      <trkpt lat="44.09744" lon="7.50683">
        <ele>1552</ele>
        <time>2017-09-17T11:48:00Z</time>
      </trkpt>
      <trkpt lat="44.09753" lon="7.50674">
        <ele>1553</ele>
        <time>2017-09-17T11:48:01Z</time>
      </trkpt>
      <trkpt lat="44.09762" lon="7.50665">
        <ele>1553</ele>
        <time>2017-09-17T11:48:02Z</time>
      </trkpt>
      <trkpt lat="44.0977" lon="7.50655">
        <ele>1553</ele>
        <time>2017-09-17T11:48:03Z</time>
      </trkpt>
      <trkpt lat="44.09778" lon="7.50645">
        <ele>1554</ele>
        <time>2017-09-17T11:48:04Z</time>
      </trkpt>
      <trkpt lat="44.09785" lon="7.50634">
        <ele>1554</ele>
        <time>2017-09-17T11:48:05Z</time>
      </trkpt>
      <trkpt lat="44.09791" lon="7.50624">
        <ele>1555</ele>
        <time>2017-09-17T11:48:06Z</time>
      </trkpt>
      <trkpt lat="44.09797" lon="7.50614">
        <ele>1555</ele>
        <time>2017-09-17T11:48:07Z</time>
      </trkpt>
      <trkpt lat="44.09802" lon="7.50605">
        <ele>1556</ele>
        <time>2017-09-17T11:48:08Z</time>
      </trkpt>
      <trkpt lat="44.09808" lon="7.50599">
        <ele>1556</ele>
        <time>2017-09-17T11:48:09Z</time>
      </trkpt>
      <trkpt lat="44.09813" lon="7.50596">
        <ele>1557</ele>
        <time>2017-09-17T11:48:10Z</time>
      </trkpt>
      <trkpt lat="44.09818" lon="7.50595">
        <ele>1558</ele>
        <time>2017-09-17T11:48:11Z</time>
      </trkpt>
      <trkpt lat="44.09823" lon="7.50595">
        <ele>1558</ele>
        <time>2017-09-17T11:48:12Z</time>
      </trkpt>
      <trkpt lat="44.09828" lon="7.50594">
        <ele>1558</ele>
        <time>2017-09-17T11:48:13Z</time>
      </trkpt>
      <trkpt lat="44.09834" lon="7.50593">
        <ele>1558</ele>
        <time>2017-09-17T11:48:14Z</time>
      </trkpt>
      <trkpt lat="44.0984" lon="7.50589">
        <ele>1559</ele>
        <time>2017-09-17T11:48:15Z</time>
      </trkpt>
      <trkpt lat="44.09846" lon="7.50586">
        <ele>1559</ele>
        <time>2017-09-17T11:48:16Z</time>
      </trkpt>
      <trkpt lat="44.09853" lon="7.50582">
        <ele>1559</ele>
        <time>2017-09-17T11:48:17Z</time>
      </trkpt>
      <trkpt lat="44.0986" lon="7.50579">
        <ele>1559</ele>
        <time>2017-09-17T11:48:18Z</time>
      </trkpt>
      <trkpt lat="44.09868" lon="7.50576">
        <ele>1560</ele>
        <time>2017-09-17T11:48:19Z</time>
      </trkpt>
      <trkpt lat="44.09876" lon="7.50575">
        <ele>1560</ele>
        <time>2017-09-17T11:48:20Z</time>
      </trkpt>
      <trkpt lat="44.09884" lon="7.50574">
        <ele>1561</ele>
        <time>2017-09-17T11:48:21Z</time>
      </trkpt>
      <trkpt lat="44.09892" lon="7.50573">
        <ele>1562</ele>
        <time>2017-09-17T11:48:22Z</time>
      </trkpt>
      <trkpt lat="44.09899" lon="7.50574">
        <ele>1562</ele>
        <time>2017-09-17T11:48:23Z</time>
      </trkpt>
      <trkpt lat="44.09905" lon="7.50574">
        <ele>1563</ele>
        <time>2017-09-17T11:48:24Z</time>
      </trkpt>
      <trkpt lat="44.09912" lon="7.50574">
        <ele>1563</ele>
        <time>2017-09-17T11:48:25Z</time>
      </trkpt>
      <trkpt lat="44.09919" lon="7.50575">
        <ele>1563</ele>
        <time>2017-09-17T11:48:26Z</time>
      </trkpt>
      <trkpt lat="44.09924" lon="7.50577">
        <ele>1564</ele>
        <time>2017-09-17T11:48:27Z</time>
      </trkpt>
      <trkpt lat="44.09929" lon="7.5058">
        <ele>1564</ele>
        <time>2017-09-17T11:48:28Z</time>
      </trkpt>
      <trkpt lat="44.09933" lon="7.50584">
        <ele>1564</ele>
        <time>2017-09-17T11:48:29Z</time>
      </trkpt>
      <trkpt lat="44.09937" lon="7.50587">
        <ele>1564</ele>
        <time>2017-09-17T11:48:30Z</time>
      </trkpt>
      <trkpt lat="44.09942" lon="7.50589">
        <ele>1564</ele>
        <time>2017-09-17T11:48:31Z</time>
      </trkpt>
      <trkpt lat="44.09947" lon="7.50589">
        <ele>1564</ele>
        <time>2017-09-17T11:48:32Z</time>
      </trkpt>
      <trkpt lat="44.09952" lon="7.50589">
        <ele>1565</ele>
        <time>2017-09-17T11:48:33Z</time>
      </trkpt>
      <trkpt lat="44.09956" lon="7.50587">
        <ele>1565</ele>
        <time>2017-09-17T11:48:34Z</time>
      </trkpt>
      <trkpt lat="44.09961" lon="7.50586">
        <ele>1565</ele>
        <time>2017-09-17T11:48:35Z</time>
      </trkpt>
      <trkpt lat="44.09965" lon="7.50583">
        <ele>1565</ele>
        <time>2017-09-17T11:48:36Z</time>
      </trkpt>
      <trkpt lat="44.09968" lon="7.50579">
        <ele>1565</ele>
        <time>2017-09-17T11:48:37Z</time>
      </trkpt>
      <trkpt lat="44.0997" lon="7.50574">
        <ele>1565</ele>
        <time>2017-09-17T11:48:38Z</time>
      </trkpt>
      <trkpt lat="44.09971" lon="7.50568">
        <ele>1565</ele>
        <time>2017-09-17T11:48:39Z</time>
      </trkpt>
      <trkpt lat="44.09971" lon="7.50561">
        <ele>1565</ele>
        <time>2017-09-17T11:48:40Z</time>
      </trkpt>
      <trkpt lat="44.09971" lon="7.50553">
        <ele>1565</ele>
        <time>2017-09-17T11:48:41Z</time>
      </trkpt>
      <trkpt lat="44.09971" lon="7.50546">
        <ele>1565</ele>
        <time>2017-09-17T11:48:42Z</time>
      </trkpt>
      <trkpt lat="44.09972" lon="7.50539">
        <ele>1565</ele>
        <time>2017-09-17T11:48:43Z</time>
      </trkpt>
      <trkpt lat="44.09973" lon="7.50534">
        <ele>1565</ele>
        <time>2017-09-17T11:48:44Z</time>
      </trkpt>
      <trkpt lat="44.09973" lon="7.50532">
        <ele>1565</ele>
        <time>2017-09-17T11:48:45Z</time>
      </trkpt>
      <trkpt lat="44.09974" lon="7.5053">
        <ele>1565</ele>
        <time>2017-09-17T11:48:46Z</time>
      </trkpt>
      <trkpt lat="44.09974" lon="7.5053">
        <ele>1565</ele>
        <time>2017-09-17T11:48:47Z</time>
      </trkpt>
      <trkpt lat="44.09974" lon="7.5053">
        <ele>1566</ele>
        <time>2017-09-17T11:48:48Z</time>
      </trkpt>
      <trkpt lat="44.09974" lon="7.50531">
        <ele>1566</ele>
        <time>2017-09-17T11:48:49Z</time>
      </trkpt>
      <trkpt lat="44.09974" lon="7.50531">
        <ele>1566</ele>
        <time>2017-09-17T11:48:50Z</time>
      </trkpt>
      <trkpt lat="44.09974" lon="7.50532">
        <ele>1567</ele>
        <time>2017-09-17T11:48:51Z</time>
      </trkpt>
      <trkpt lat="44.09975" lon="7.50533">
        <ele>1567</ele>
        <time>2017-09-17T11:48:52Z</time>
      </trkpt>
      <trkpt lat="44.09975" lon="7.50535">
        <ele>1567</ele>
        <time>2017-09-17T11:48:53Z</time>
      </trkpt>
      <trkpt lat="44.09977" lon="7.50537">
        <ele>1568</ele>
        <time>2017-09-17T11:48:54Z</time>
      </trkpt>
      <trkpt lat="44.09978" lon="7.50538">
        <ele>1568</ele>
        <time>2017-09-17T11:48:55Z</time>
      </trkpt>
      <trkpt lat="44.09978" lon="7.5054">
        <ele>1568</ele>
        <time>2017-09-17T11:48:56Z</time>
      </trkpt>
      <trkpt lat="44.09978" lon="7.50541">
        <ele>1569</ele>
        <time>2017-09-17T11:48:57Z</time>
      </trkpt>
      <trkpt lat="44.09978" lon="7.50542">
        <ele>1569</ele>
        <time>2017-09-17T11:48:58Z</time>
      </trkpt>
      <trkpt lat="44.09977" lon="7.50544">
        <ele>1569</ele>
        <time>2017-09-17T11:48:59Z</time>
      </trkpt>
      <trkpt lat="44.09977" lon="7.50545">
        <ele>1569</ele>
        <time>2017-09-17T11:49:00Z</time>
      </trkpt>
      <trkpt lat="44.09976" lon="7.50547">
        <ele>1569</ele>
        <time>2017-09-17T11:49:01Z</time>
      </trkpt>
      <trkpt lat="44.09975" lon="7.50548">
        <ele>1569</ele>
        <time>2017-09-17T11:49:02Z</time>
      </trkpt>
      <trkpt lat="44.09975" lon="7.50548">
        <ele>1569</ele>
        <time>2017-09-17T11:49:03Z</time>
      </trkpt>
      <trkpt lat="44.09975" lon="7.50549">
        <ele>1569</ele>
        <time>2017-09-17T11:49:04Z</time>
      </trkpt>
      <trkpt lat="44.09974" lon="7.50549">
        <ele>1569</ele>
        <time>2017-09-17T11:49:05Z</time>
      </trkpt>
      <trkpt lat="44.09974" lon="7.50549">
        <ele>1569</ele>
        <time>2017-09-17T11:49:06Z</time>
      </trkpt>
      <trkpt lat="44.09974" lon="7.50548">
        <ele>1569</ele>
        <time>2017-09-17T11:49:07Z</time>
      </trkpt>
      <trkpt lat="44.09975" lon="7.50547">
        <ele>1569</ele>
        <time>2017-09-17T11:49:08Z</time>
      </trkpt>
      <trkpt lat="44.09975" lon="7.50545">
        <ele>1569</ele>
        <time>2017-09-17T11:49:09Z</time>
      </trkpt>
      <trkpt lat="44.09976" lon="7.50543">
        <ele>1569</ele>
        <time>2017-09-17T11:49:10Z</time>
      </trkpt>
      <trkpt lat="44.09976" lon="7.50539">
        <ele>1569</ele>
        <time>2017-09-17T11:49:11Z</time>
      </trkpt>
      <trkpt lat="44.09976" lon="7.50535">
        <ele>1569</ele>
        <time>2017-09-17T11:49:12Z</time>
      </trkpt>
      <trkpt lat="44.09977" lon="7.5053">
        <ele>1569</ele>
        <time>2017-09-17T11:49:13Z</time>
      </trkpt>
      <trkpt lat="44.09978" lon="7.50526">
        <ele>1569</ele>
        <time>2017-09-17T11:49:14Z</time>
      </trkpt>
      <trkpt lat="44.0998" lon="7.50522">
        <ele>1569</ele>
        <time>2017-09-17T11:49:15Z</time>
      </trkpt>
      <trkpt lat="44.09982" lon="7.50519">
        <ele>1569</ele>
        <time>2017-09-17T11:49:16Z</time>
      </trkpt>
      <trkpt lat="44.09986" lon="7.50516">
        <ele>1569</ele>
        <time>2017-09-17T11:49:17Z</time>
      </trkpt>
      <trkpt lat="44.09991" lon="7.50513">
        <ele>1569</ele>
        <time>2017-09-17T11:49:18Z</time>
      </trkpt>
      <trkpt lat="44.09995" lon="7.50508">
        <ele>1569</ele>
        <time>2017-09-17T11:49:19Z</time>
      </trkpt>
      <trkpt lat="44.09998" lon="7.50504">
        <ele>1569</ele>
        <time>2017-09-17T11:49:20Z</time>
      </trkpt>
      <trkpt lat="44.1" lon="7.50499">
        <ele>1569</ele>
        <time>2017-09-17T11:49:21Z</time>
      </trkpt>
      <trkpt lat="44.10002" lon="7.50496">
        <ele>1569</ele>
        <time>2017-09-17T11:49:22Z</time>
      </trkpt>
      <trkpt lat="44.10005" lon="7.50493">
        <ele>1569</ele>
        <time>2017-09-17T11:49:23Z</time>
      </trkpt>
      <trkpt lat="44.10006" lon="7.50491">
        <ele>1569</ele>
        <time>2017-09-17T11:49:24Z</time>
      </trkpt>
      <trkpt lat="44.10008" lon="7.5049">
        <ele>1570</ele>
        <time>2017-09-17T11:49:25Z</time>
      </trkpt>
      <trkpt lat="44.10009" lon="7.50489">
        <ele>1570</ele>
        <time>2017-09-17T11:49:26Z</time>
      </trkpt>
      <trkpt lat="44.1001" lon="7.50488">
        <ele>1570</ele>
        <time>2017-09-17T11:49:27Z</time>
      </trkpt>
      <trkpt lat="44.10011" lon="7.50486">
        <ele>1570</ele>
        <time>2017-09-17T11:49:28Z</time>
      </trkpt>
      <trkpt lat="44.10013" lon="7.50484">
        <ele>1570</ele>
        <time>2017-09-17T11:49:29Z</time>
      </trkpt>
      <trkpt lat="44.10014" lon="7.50482">
        <ele>1570</ele>
        <time>2017-09-17T11:49:30Z</time>
      </trkpt>
      <trkpt lat="44.10016" lon="7.5048">
        <ele>1570</ele>
        <time>2017-09-17T11:49:31Z</time>
      </trkpt>
      <trkpt lat="44.10019" lon="7.50478">
        <ele>1570</ele>
        <time>2017-09-17T11:49:32Z</time>
      </trkpt>
      <trkpt lat="44.10023" lon="7.50474">
        <ele>1570</ele>
        <time>2017-09-17T11:49:33Z</time>
      </trkpt>
      <trkpt lat="44.10027" lon="7.5047">
        <ele>1570</ele>
        <time>2017-09-17T11:49:34Z</time>
      </trkpt>
      <trkpt lat="44.10033" lon="7.50466">
        <ele>1570</ele>
        <time>2017-09-17T11:49:35Z</time>
      </trkpt>
      <trkpt lat="44.10039" lon="7.50463">
        <ele>1571</ele>
        <time>2017-09-17T11:49:36Z</time>
      </trkpt>
      <trkpt lat="44.10045" lon="7.5046">
        <ele>1571</ele>
        <time>2017-09-17T11:49:37Z</time>
      </trkpt>
      <trkpt lat="44.1005" lon="7.50458">
        <ele>1571</ele>
        <time>2017-09-17T11:49:38Z</time>
      </trkpt>
      <trkpt lat="44.10056" lon="7.50456">
        <ele>1571</ele>
        <time>2017-09-17T11:49:39Z</time>
      </trkpt>
      <trkpt lat="44.10062" lon="7.50456">
        <ele>1571</ele>
        <time>2017-09-17T11:49:40Z</time>
      </trkpt>
      <trkpt lat="44.10067" lon="7.50456">
        <ele>1571</ele>
        <time>2017-09-17T11:49:41Z</time>
      </trkpt>
      <trkpt lat="44.10073" lon="7.50457">
        <ele>1572</ele>
        <time>2017-09-17T11:49:42Z</time>
      </trkpt>
      <trkpt lat="44.10078" lon="7.50458">
        <ele>1572</ele>
        <time>2017-09-17T11:49:43Z</time>
      </trkpt>
      <trkpt lat="44.10084" lon="7.50457">
        <ele>1572</ele>
        <time>2017-09-17T11:49:44Z</time>
      </trkpt>
      <trkpt lat="44.1009" lon="7.50456">
        <ele>1571</ele>
        <time>2017-09-17T11:49:45Z</time>
      </trkpt>
      <trkpt lat="44.10096" lon="7.50453">
        <ele>1572</ele>
        <time>2017-09-17T11:49:46Z</time>
      </trkpt>
      <trkpt lat="44.10103" lon="7.5045">
        <ele>1572</ele>
        <time>2017-09-17T11:49:47Z</time>
      </trkpt>
      <trkpt lat="44.1011" lon="7.50447">
        <ele>1572</ele>
        <time>2017-09-17T11:49:48Z</time>
      </trkpt>
      <trkpt lat="44.10117" lon="7.50444">
        <ele>1572</ele>
        <time>2017-09-17T11:49:49Z</time>
      </trkpt>
      <trkpt lat="44.10124" lon="7.50442">
        <ele>1572</ele>
        <time>2017-09-17T11:49:50Z</time>
      </trkpt>
      <trkpt lat="44.10131" lon="7.5044">
        <ele>1572</ele>
        <time>2017-09-17T11:49:51Z</time>
      </trkpt>
      <trkpt lat="44.10138" lon="7.50438">
        <ele>1572</ele>
        <time>2017-09-17T11:49:52Z</time>
      </trkpt>
      <trkpt lat="44.10146" lon="7.50436">
        <ele>1572</ele>
        <time>2017-09-17T11:49:53Z</time>
      </trkpt>
      <trkpt lat="44.10153" lon="7.50432">
        <ele>1572</ele>
        <time>2017-09-17T11:49:54Z</time>
      </trkpt>
      <trkpt lat="44.10161" lon="7.50428">
        <ele>1572</ele>
        <time>2017-09-17T11:49:55Z</time>
      </trkpt>
      <trkpt lat="44.10169" lon="7.50425">
        <ele>1572</ele>
        <time>2017-09-17T11:49:56Z</time>
      </trkpt>
      <trkpt lat="44.10178" lon="7.50421">
        <ele>1572</ele>
        <time>2017-09-17T11:49:57Z</time>
      </trkpt>
      <trkpt lat="44.10186" lon="7.50416">
        <ele>1572</ele>
        <time>2017-09-17T11:49:58Z</time>
      </trkpt>
      <trkpt lat="44.10193" lon="7.50412">
        <ele>1572</ele>
        <time>2017-09-17T11:49:59Z</time>
      </trkpt>
      <trkpt lat="44.10201" lon="7.50408">
        <ele>1573</ele>
        <time>2017-09-17T11:50:00Z</time>
      </trkpt>
      <trkpt lat="44.10208" lon="7.50403">
        <ele>1573</ele>
        <time>2017-09-17T11:50:01Z</time>
      </trkpt>
      <trkpt lat="44.10215" lon="7.50396">
        <ele>1573</ele>
        <time>2017-09-17T11:50:02Z</time>
      </trkpt>
      <trkpt lat="44.10223" lon="7.5039">
        <ele>1573</ele>
        <time>2017-09-17T11:50:03Z</time>
      </trkpt>
      <trkpt lat="44.1023" lon="7.50383">
        <ele>1573</ele>
        <time>2017-09-17T11:50:04Z</time>
      </trkpt>
      <trkpt lat="44.10237" lon="7.50376">
        <ele>1574</ele>
        <time>2017-09-17T11:50:05Z</time>
      </trkpt>
      <trkpt lat="44.10245" lon="7.5037">
        <ele>1574</ele>
        <time>2017-09-17T11:50:06Z</time>
      </trkpt>
      <trkpt lat="44.10252" lon="7.50365">
        <ele>1574</ele>
        <time>2017-09-17T11:50:07Z</time>
      </trkpt>
      <trkpt lat="44.10259" lon="7.50359">
        <ele>1574</ele>
        <time>2017-09-17T11:50:08Z</time>
      </trkpt>
      <trkpt lat="44.10267" lon="7.50352">
        <ele>1574</ele>
        <time>2017-09-17T11:50:09Z</time>
      </trkpt>
      <trkpt lat="44.10274" lon="7.50345">
        <ele>1575</ele>
        <time>2017-09-17T11:50:10Z</time>
      </trkpt>
      <trkpt lat="44.10281" lon="7.50339">
        <ele>1575</ele>
        <time>2017-09-17T11:50:11Z</time>
      </trkpt>
      <trkpt lat="44.10288" lon="7.50333">
        <ele>1576</ele>
        <time>2017-09-17T11:50:12Z</time>
      </trkpt>
      <trkpt lat="44.10296" lon="7.50328">
        <ele>1576</ele>
        <time>2017-09-17T11:50:13Z</time>
      </trkpt>
      <trkpt lat="44.10303" lon="7.50323">
        <ele>1576</ele>
        <time>2017-09-17T11:50:14Z</time>
      </trkpt>
      <trkpt lat="44.10311" lon="7.5032">
        <ele>1576</ele>
        <time>2017-09-17T11:50:15Z</time>
      </trkpt>
      <trkpt lat="44.10319" lon="7.50317">
        <ele>1577</ele>
        <time>2017-09-17T11:50:16Z</time>
      </trkpt>
      <trkpt lat="44.10327" lon="7.50313">
        <ele>1577</ele>
        <time>2017-09-17T11:50:17Z</time>
      </trkpt>
      <trkpt lat="44.10335" lon="7.5031">
        <ele>1577</ele>
        <time>2017-09-17T11:50:18Z</time>
      </trkpt>
      <trkpt lat="44.10342" lon="7.50307">
        <ele>1577</ele>
        <time>2017-09-17T11:50:19Z</time>
      </trkpt>
      <trkpt lat="44.1035" lon="7.50304">
        <ele>1578</ele>
        <time>2017-09-17T11:50:20Z</time>
      </trkpt>
      <trkpt lat="44.10357" lon="7.50301">
        <ele>1578</ele>
        <time>2017-09-17T11:50:21Z</time>
      </trkpt>
      <trkpt lat="44.10364" lon="7.50298">
        <ele>1578</ele>
        <time>2017-09-17T11:50:22Z</time>
      </trkpt>
      <trkpt lat="44.10372" lon="7.50296">
        <ele>1579</ele>
        <time>2017-09-17T11:50:23Z</time>
      </trkpt>
      <trkpt lat="44.10379" lon="7.50294">
        <ele>1579</ele>
        <time>2017-09-17T11:50:24Z</time>
      </trkpt>
      <trkpt lat="44.10387" lon="7.50291">
        <ele>1579</ele>
        <time>2017-09-17T11:50:25Z</time>
      </trkpt>
      <trkpt lat="44.10395" lon="7.50288">
        <ele>1580</ele>
        <time>2017-09-17T11:50:26Z</time>
      </trkpt>
      <trkpt lat="44.10403" lon="7.50285">
        <ele>1580</ele>
        <time>2017-09-17T11:50:27Z</time>
      </trkpt>
      <trkpt lat="44.10411" lon="7.50282">
        <ele>1580</ele>
        <time>2017-09-17T11:50:28Z</time>
      </trkpt>
      <trkpt lat="44.10418" lon="7.50279">
        <ele>1580</ele>
        <time>2017-09-17T11:50:29Z</time>
      </trkpt>
      <trkpt lat="44.10425" lon="7.50276">
        <ele>1581</ele>
        <time>2017-09-17T11:50:30Z</time>
      </trkpt>
      <trkpt lat="44.10432" lon="7.50272">
        <ele>1581</ele>
        <time>2017-09-17T11:50:31Z</time>
      </trkpt>
      <trkpt lat="44.10439" lon="7.50269">
        <ele>1581</ele>
        <time>2017-09-17T11:50:32Z</time>
      </trkpt>
      <trkpt lat="44.10446" lon="7.50265">
        <ele>1582</ele>
        <time>2017-09-17T11:50:33Z</time>
      </trkpt>
      <trkpt lat="44.10453" lon="7.50262">
        <ele>1582</ele>
        <time>2017-09-17T11:50:34Z</time>
      </trkpt>
      <trkpt lat="44.1046" lon="7.50258">
        <ele>1583</ele>
        <time>2017-09-17T11:50:35Z</time>
      </trkpt>
      <trkpt lat="44.10467" lon="7.50254">
        <ele>1583</ele>
        <time>2017-09-17T11:50:36Z</time>
      </trkpt>
      <trkpt lat="44.10473" lon="7.50248">
        <ele>1583</ele>
        <time>2017-09-17T11:50:37Z</time>
      </trkpt>
      <trkpt lat="44.10478" lon="7.50243">
        <ele>1584</ele>
        <time>2017-09-17T11:50:38Z</time>
      </trkpt>
      <trkpt lat="44.10482" lon="7.50238">
        <ele>1584</ele>
        <time>2017-09-17T11:50:39Z</time>
      </trkpt>
      <trkpt lat="44.10486" lon="7.50234">
        <ele>1585</ele>
        <time>2017-09-17T11:50:40Z</time>
      </trkpt>
      <trkpt lat="44.10489" lon="7.50229">
        <ele>1585</ele>
        <time>2017-09-17T11:50:41Z</time>
      </trkpt>
      <trkpt lat="44.10492" lon="7.50225">
        <ele>1586</ele>
        <time>2017-09-17T11:50:42Z</time>
      </trkpt>
      <trkpt lat="44.10495" lon="7.50221">
        <ele>1586</ele>
        <time>2017-09-17T11:50:43Z</time>
      </trkpt>
      <trkpt lat="44.10497" lon="7.50217">
        <ele>1586</ele>
        <time>2017-09-17T11:50:44Z</time>
      </trkpt>
      <trkpt lat="44.105" lon="7.50213">
        <ele>1586</ele>
        <time>2017-09-17T11:50:45Z</time>
      </trkpt>
      <trkpt lat="44.10503" lon="7.50209">
        <ele>1587</ele>
        <time>2017-09-17T11:50:46Z</time>
      </trkpt>
      <trkpt lat="44.10506" lon="7.50206">
        <ele>1587</ele>
        <time>2017-09-17T11:50:47Z</time>
      </trkpt>
      <trkpt lat="44.10508" lon="7.50202">
        <ele>1587</ele>
        <time>2017-09-17T11:50:48Z</time>
      </trkpt>
      <trkpt lat="44.1051" lon="7.50199">
        <ele>1588</ele>
        <time>2017-09-17T11:50:49Z</time>
      </trkpt>
      <trkpt lat="44.10512" lon="7.50196">
        <ele>1588</ele>
        <time>2017-09-17T11:50:50Z</time>
      </trkpt>
      <trkpt lat="44.10514" lon="7.50193">
        <ele>1588</ele>
        <time>2017-09-17T11:50:51Z</time>
      </trkpt>
      <trkpt lat="44.10516" lon="7.5019">
        <ele>1589</ele>
        <time>2017-09-17T11:50:52Z</time>
      </trkpt>
      <trkpt lat="44.10517" lon="7.50187">
        <ele>1589</ele>
        <time>2017-09-17T11:50:53Z</time>
      </trkpt>
      <trkpt lat="44.10519" lon="7.50183">
        <ele>1589</ele>
        <time>2017-09-17T11:50:54Z</time>
      </trkpt>
      <trkpt lat="44.1052" lon="7.50179">
        <ele>1589</ele>
        <time>2017-09-17T11:50:55Z</time>
      </trkpt>
      <trkpt lat="44.10522" lon="7.50174">
        <ele>1590</ele>
        <time>2017-09-17T11:50:56Z</time>
      </trkpt>
      <trkpt lat="44.10523" lon="7.50169">
        <ele>1590</ele>
        <time>2017-09-17T11:50:57Z</time>
      </trkpt>
      <trkpt lat="44.10525" lon="7.50164">
        <ele>1590</ele>
        <time>2017-09-17T11:50:58Z</time>
      </trkpt>
      <trkpt lat="44.10527" lon="7.50158">
        <ele>1591</ele>
        <time>2017-09-17T11:50:59Z</time>
      </trkpt>
      <trkpt lat="44.10529" lon="7.50153">
        <ele>1591</ele>
        <time>2017-09-17T11:51:00Z</time>
      </trkpt>
      <trkpt lat="44.10531" lon="7.50148">
        <ele>1591</ele>
        <time>2017-09-17T11:51:01Z</time>
      </trkpt>
      <trkpt lat="44.10532" lon="7.50144">
        <ele>1592</ele>
        <time>2017-09-17T11:51:02Z</time>
      </trkpt>
      <trkpt lat="44.10533" lon="7.50141">
        <ele>1592</ele>
        <time>2017-09-17T11:51:03Z</time>
      </trkpt>
      <trkpt lat="44.10534" lon="7.50137">
        <ele>1592</ele>
        <time>2017-09-17T11:51:04Z</time>
      </trkpt>
      <trkpt lat="44.10537" lon="7.50134">
        <ele>1593</ele>
        <time>2017-09-17T11:51:05Z</time>
      </trkpt>
      <trkpt lat="44.10539" lon="7.50131">
        <ele>1593</ele>
        <time>2017-09-17T11:51:06Z</time>
      </trkpt>
      <trkpt lat="44.10543" lon="7.50129">
        <ele>1593</ele>
        <time>2017-09-17T11:51:07Z</time>
      </trkpt>
      <trkpt lat="44.10547" lon="7.50126">
        <ele>1594</ele>
        <time>2017-09-17T11:51:08Z</time>
      </trkpt>
      <trkpt lat="44.10552" lon="7.50124">
        <ele>1594</ele>
        <time>2017-09-17T11:51:09Z</time>
      </trkpt>
      <trkpt lat="44.10556" lon="7.50122">
        <ele>1594</ele>
        <time>2017-09-17T11:51:10Z</time>
      </trkpt>
      <trkpt lat="44.1056" lon="7.5012">
        <ele>1595</ele>
        <time>2017-09-17T11:51:11Z</time>
      </trkpt>
      <trkpt lat="44.10564" lon="7.50118">
        <ele>1595</ele>
        <time>2017-09-17T11:51:12Z</time>
      </trkpt>
      <trkpt lat="44.10569" lon="7.50115">
        <ele>1595</ele>
        <time>2017-09-17T11:51:13Z</time>
      </trkpt>
      <trkpt lat="44.10573" lon="7.50113">
        <ele>1596</ele>
        <time>2017-09-17T11:51:14Z</time>
      </trkpt>
      <trkpt lat="44.10577" lon="7.5011">
        <ele>1596</ele>
        <time>2017-09-17T11:51:15Z</time>
      </trkpt>
      <trkpt lat="44.10581" lon="7.50108">
        <ele>1596</ele>
        <time>2017-09-17T11:51:16Z</time>
      </trkpt>
      <trkpt lat="44.10586" lon="7.50105">
        <ele>1597</ele>
        <time>2017-09-17T11:51:17Z</time>
      </trkpt>
      <trkpt lat="44.1059" lon="7.50103">
        <ele>1597</ele>
        <time>2017-09-17T11:51:18Z</time>
      </trkpt>
      <trkpt lat="44.10594" lon="7.50101">
        <ele>1597</ele>
        <time>2017-09-17T11:51:19Z</time>
      </trkpt>
      <trkpt lat="44.10599" lon="7.50099">
        <ele>1598</ele>
        <time>2017-09-17T11:51:20Z</time>
      </trkpt>
      <trkpt lat="44.10603" lon="7.50097">
        <ele>1598</ele>
        <time>2017-09-17T11:51:21Z</time>
      </trkpt>
      <trkpt lat="44.10608" lon="7.50094">
        <ele>1598</ele>
        <time>2017-09-17T11:51:22Z</time>
      </trkpt>
      <trkpt lat="44.10613" lon="7.50092">
        <ele>1599</ele>
        <time>2017-09-17T11:51:23Z</time>
      </trkpt>
      <trkpt lat="44.10619" lon="7.50089">
        <ele>1599</ele>
        <time>2017-09-17T11:51:24Z</time>
      </trkpt>
      <trkpt lat="44.10624" lon="7.50087">
        <ele>1600</ele>
        <time>2017-09-17T11:51:25Z</time>
      </trkpt>
      <trkpt lat="44.10629" lon="7.50084">
        <ele>1601</ele>
        <time>2017-09-17T11:51:26Z</time>
      </trkpt>
      <trkpt lat="44.10635" lon="7.5008">
        <ele>1601</ele>
        <time>2017-09-17T11:51:27Z</time>
      </trkpt>
      <trkpt lat="44.10641" lon="7.50077">
        <ele>1602</ele>
        <time>2017-09-17T11:51:28Z</time>
      </trkpt>
      <trkpt lat="44.10646" lon="7.50073">
        <ele>1603</ele>
        <time>2017-09-17T11:51:29Z</time>
      </trkpt>
      <trkpt lat="44.10652" lon="7.50068">
        <ele>1603</ele>
        <time>2017-09-17T11:51:30Z</time>
      </trkpt>
      <trkpt lat="44.10658" lon="7.50064">
        <ele>1604</ele>
        <time>2017-09-17T11:51:31Z</time>
      </trkpt>
      <trkpt lat="44.10664" lon="7.50058">
        <ele>1605</ele>
        <time>2017-09-17T11:51:32Z</time>
      </trkpt>
      <trkpt lat="44.1067" lon="7.50053">
        <ele>1605</ele>
        <time>2017-09-17T11:51:33Z</time>
      </trkpt>
      <trkpt lat="44.10676" lon="7.50048">
        <ele>1606</ele>
        <time>2017-09-17T11:51:34Z</time>
      </trkpt>
      <trkpt lat="44.10682" lon="7.50043">
        <ele>1607</ele>
        <time>2017-09-17T11:51:35Z</time>
      </trkpt>
      <trkpt lat="44.10687" lon="7.50038">
        <ele>1607</ele>
        <time>2017-09-17T11:51:36Z</time>
      </trkpt>
      <trkpt lat="44.10693" lon="7.50032">
        <ele>1608</ele>
        <time>2017-09-17T11:51:37Z</time>
      </trkpt>
      <trkpt lat="44.10698" lon="7.50027">
        <ele>1609</ele>
        <time>2017-09-17T11:51:38Z</time>
      </trkpt>
      <trkpt lat="44.10703" lon="7.50022">
        <ele>1609</ele>
        <time>2017-09-17T11:51:39Z</time>
      </trkpt>
      <trkpt lat="44.10708" lon="7.50016">
        <ele>1610</ele>
        <time>2017-09-17T11:51:40Z</time>
      </trkpt>
      <trkpt lat="44.10712" lon="7.50011">
        <ele>1611</ele>
        <time>2017-09-17T11:51:41Z</time>
      </trkpt>
      <trkpt lat="44.10716" lon="7.50005">
        <ele>1611</ele>
        <time>2017-09-17T11:51:42Z</time>
      </trkpt>
      <trkpt lat="44.1072" lon="7.49999">
        <ele>1612</ele>
        <time>2017-09-17T11:51:43Z</time>
      </trkpt>
      <trkpt lat="44.10722" lon="7.49993">
        <ele>1612</ele>
        <time>2017-09-17T11:51:44Z</time>
      </trkpt>
      <trkpt lat="44.10725" lon="7.49989">
        <ele>1613</ele>
        <time>2017-09-17T11:51:45Z</time>
      </trkpt>
      <trkpt lat="44.10727" lon="7.49984">
        <ele>1613</ele>
        <time>2017-09-17T11:51:46Z</time>
      </trkpt>
      <trkpt lat="44.1073" lon="7.49979">
        <ele>1614</ele>
        <time>2017-09-17T11:51:47Z</time>
      </trkpt>
      <trkpt lat="44.10733" lon="7.49975">
        <ele>1614</ele>
        <time>2017-09-17T11:51:48Z</time>
      </trkpt>
      <trkpt lat="44.10737" lon="7.49972">
        <ele>1615</ele>
        <time>2017-09-17T11:51:49Z</time>
      </trkpt>
      <trkpt lat="44.10741" lon="7.49969">
        <ele>1615</ele>
        <time>2017-09-17T11:51:50Z</time>
      </trkpt>
      <trkpt lat="44.10746" lon="7.49967">
        <ele>1616</ele>
        <time>2017-09-17T11:51:51Z</time>
      </trkpt>
      <trkpt lat="44.1075" lon="7.49965">
        <ele>1616</ele>
        <time>2017-09-17T11:51:52Z</time>
      </trkpt>
      <trkpt lat="44.10755" lon="7.49963">
        <ele>1616</ele>
        <time>2017-09-17T11:51:53Z</time>
      </trkpt>
      <trkpt lat="44.1076" lon="7.49961">
        <ele>1617</ele>
        <time>2017-09-17T11:51:54Z</time>
      </trkpt>
      <trkpt lat="44.10765" lon="7.4996">
        <ele>1617</ele>
        <time>2017-09-17T11:51:55Z</time>
      </trkpt>
      <trkpt lat="44.1077" lon="7.49959">
        <ele>1617</ele>
        <time>2017-09-17T11:51:56Z</time>
      </trkpt>
      <trkpt lat="44.10775" lon="7.49958">
        <ele>1618</ele>
        <time>2017-09-17T11:51:57Z</time>
      </trkpt>
      <trkpt lat="44.1078" lon="7.49958">
        <ele>1618</ele>
        <time>2017-09-17T11:51:58Z</time>
      </trkpt>
      <trkpt lat="44.10785" lon="7.49958">
        <ele>1619</ele>
        <time>2017-09-17T11:51:59Z</time>
      </trkpt>
      <trkpt lat="44.1079" lon="7.49959">
        <ele>1619</ele>
        <time>2017-09-17T11:52:00Z</time>
      </trkpt>
      <trkpt lat="44.10795" lon="7.49958">
        <ele>1620</ele>
        <time>2017-09-17T11:52:01Z</time>
      </trkpt>
      <trkpt lat="44.108" lon="7.49958">
        <ele>1621</ele>
        <time>2017-09-17T11:52:02Z</time>
      </trkpt>
      <trkpt lat="44.10805" lon="7.49957">
        <ele>1621</ele>
        <time>2017-09-17T11:52:03Z</time>
      </trkpt>
      <trkpt lat="44.10811" lon="7.49956">
        <ele>1622</ele>
        <time>2017-09-17T11:52:04Z</time>
      </trkpt>
      <trkpt lat="44.10816" lon="7.49955">
        <ele>1622</ele>
        <time>2017-09-17T11:52:05Z</time>
      </trkpt>
      <trkpt lat="44.10821" lon="7.49954">
        <ele>1623</ele>
        <time>2017-09-17T11:52:06Z</time>
      </trkpt>
      <trkpt lat="44.10826" lon="7.49952">
        <ele>1623</ele>
        <time>2017-09-17T11:52:07Z</time>
      </trkpt>
      <trkpt lat="44.10831" lon="7.49951">
        <ele>1624</ele>
        <time>2017-09-17T11:52:08Z</time>
      </trkpt>
      <trkpt lat="44.10837" lon="7.49949">
        <ele>1624</ele>
        <time>2017-09-17T11:52:09Z</time>
      </trkpt>
      <trkpt lat="44.10842" lon="7.49948">
        <ele>1625</ele>
        <time>2017-09-17T11:52:10Z</time>
      </trkpt>
      <trkpt lat="44.10848" lon="7.49946">
        <ele>1625</ele>
        <time>2017-09-17T11:52:11Z</time>
      </trkpt>
      <trkpt lat="44.10854" lon="7.49945">
        <ele>1626</ele>
        <time>2017-09-17T11:52:12Z</time>
      </trkpt>
      <trkpt lat="44.1086" lon="7.49943">
        <ele>1626</ele>
        <time>2017-09-17T11:52:13Z</time>
      </trkpt>
      <trkpt lat="44.10866" lon="7.49942">
        <ele>1627</ele>
        <time>2017-09-17T11:52:14Z</time>
      </trkpt>
      <trkpt lat="44.10872" lon="7.49941">
        <ele>1627</ele>
        <time>2017-09-17T11:52:15Z</time>
      </trkpt>
      <trkpt lat="44.10878" lon="7.4994">
        <ele>1627</ele>
        <time>2017-09-17T11:52:16Z</time>
      </trkpt>
      <trkpt lat="44.10883" lon="7.49939">
        <ele>1628</ele>
        <time>2017-09-17T11:52:17Z</time>
      </trkpt>
      <trkpt lat="44.10889" lon="7.49938">
        <ele>1628</ele>
        <time>2017-09-17T11:52:18Z</time>
      </trkpt>
      <trkpt lat="44.10894" lon="7.49937">
        <ele>1628</ele>
        <time>2017-09-17T11:52:19Z</time>
      </trkpt>
      <trkpt lat="44.109" lon="7.49936">
        <ele>1628</ele>
        <time>2017-09-17T11:52:20Z</time>
      </trkpt>
      <trkpt lat="44.10906" lon="7.49935">
        <ele>1629</ele>
        <time>2017-09-17T11:52:21Z</time>
      </trkpt>
      <trkpt lat="44.10911" lon="7.49934">
        <ele>1629</ele>
        <time>2017-09-17T11:52:22Z</time>
      </trkpt>
      <trkpt lat="44.10917" lon="7.49934">
        <ele>1629</ele>
        <time>2017-09-17T11:52:23Z</time>
      </trkpt>
      <trkpt lat="44.10923" lon="7.49932">
        <ele>1629</ele>
        <time>2017-09-17T11:52:24Z</time>
      </trkpt>
      <trkpt lat="44.10929" lon="7.49931">
        <ele>1629</ele>
        <time>2017-09-17T11:52:25Z</time>
      </trkpt>
      <trkpt lat="44.10935" lon="7.49929">
        <ele>1629</ele>
        <time>2017-09-17T11:52:26Z</time>
      </trkpt>
      <trkpt lat="44.10941" lon="7.49928">
        <ele>1630</ele>
        <time>2017-09-17T11:52:27Z</time>
      </trkpt>
      <trkpt lat="44.10946" lon="7.49928">
        <ele>1630</ele>
        <time>2017-09-17T11:52:28Z</time>
      </trkpt>
      <trkpt lat="44.10952" lon="7.49928">
        <ele>1630</ele>
        <time>2017-09-17T11:52:29Z</time>
      </trkpt>
      <trkpt lat="44.10957" lon="7.49929">
        <ele>1630</ele>
        <time>2017-09-17T11:52:30Z</time>
      </trkpt>
      <trkpt lat="44.10961" lon="7.49929">
        <ele>1630</ele>
        <time>2017-09-17T11:52:31Z</time>
      </trkpt>
      <trkpt lat="44.10966" lon="7.4993">
        <ele>1631</ele>
        <time>2017-09-17T11:52:32Z</time>
      </trkpt>
      <trkpt lat="44.10971" lon="7.49929">
        <ele>1631</ele>
        <time>2017-09-17T11:52:33Z</time>
      </trkpt>
      <trkpt lat="44.10977" lon="7.49928">
        <ele>1632</ele>
        <time>2017-09-17T11:52:34Z</time>
      </trkpt>
      <trkpt lat="44.10983" lon="7.49926">
        <ele>1632</ele>
        <time>2017-09-17T11:52:35Z</time>
      </trkpt>
      <trkpt lat="44.10988" lon="7.49924">
        <ele>1633</ele>
        <time>2017-09-17T11:52:36Z</time>
      </trkpt>
      <trkpt lat="44.10994" lon="7.49921">
        <ele>1634</ele>
        <time>2017-09-17T11:52:37Z</time>
      </trkpt>
      <trkpt lat="44.10999" lon="7.49917">
        <ele>1634</ele>
        <time>2017-09-17T11:52:38Z</time>
      </trkpt>
      <trkpt lat="44.11004" lon="7.49914">
        <ele>1635</ele>
        <time>2017-09-17T11:52:39Z</time>
      </trkpt>
      <trkpt lat="44.11009" lon="7.4991">
        <ele>1636</ele>
        <time>2017-09-17T11:52:40Z</time>
      </trkpt>
      <trkpt lat="44.11014" lon="7.49906">
        <ele>1636</ele>
        <time>2017-09-17T11:52:41Z</time>
      </trkpt>
      <trkpt lat="44.11018" lon="7.49903">
        <ele>1637</ele>
        <time>2017-09-17T11:52:42Z</time>
      </trkpt>
      <trkpt lat="44.11023" lon="7.49899">
        <ele>1637</ele>
        <time>2017-09-17T11:52:43Z</time>
      </trkpt>
      <trkpt lat="44.11027" lon="7.49896">
        <ele>1638</ele>
        <time>2017-09-17T11:52:44Z</time>
      </trkpt>
      <trkpt lat="44.11032" lon="7.49893">
        <ele>1639</ele>
        <time>2017-09-17T11:52:45Z</time>
      </trkpt>
      <trkpt lat="44.11037" lon="7.49891">
        <ele>1639</ele>
        <time>2017-09-17T11:52:46Z</time>
      </trkpt>
      <trkpt lat="44.11042" lon="7.49889">
        <ele>1640</ele>
        <time>2017-09-17T11:52:47Z</time>
      </trkpt>
      <trkpt lat="44.11047" lon="7.49887">
        <ele>1640</ele>
        <time>2017-09-17T11:52:48Z</time>
      </trkpt>
      <trkpt lat="44.11051" lon="7.49885">
        <ele>1641</ele>
        <time>2017-09-17T11:52:49Z</time>
      </trkpt>
      <trkpt lat="44.11055" lon="7.49882">
        <ele>1642</ele>
        <time>2017-09-17T11:52:50Z</time>
      </trkpt>
      <trkpt lat="44.1106" lon="7.49878">
        <ele>1642</ele>
        <time>2017-09-17T11:52:51Z</time>
      </trkpt>
      <trkpt lat="44.11064" lon="7.49875">
        <ele>1643</ele>
        <time>2017-09-17T11:52:52Z</time>
      </trkpt>
      <trkpt lat="44.11068" lon="7.49872">
        <ele>1643</ele>
        <time>2017-09-17T11:52:53Z</time>
      </trkpt>
      <trkpt lat="44.11073" lon="7.49871">
        <ele>1644</ele>
        <time>2017-09-17T11:52:54Z</time>
      </trkpt>
      <trkpt lat="44.11077" lon="7.49872">
        <ele>1644</ele>
        <time>2017-09-17T11:52:55Z</time>
      </trkpt>
      <trkpt lat="44.11082" lon="7.49872">
        <ele>1645</ele>
        <time>2017-09-17T11:52:56Z</time>
      </trkpt>
      <trkpt lat="44.11086" lon="7.49873">
        <ele>1646</ele>
        <time>2017-09-17T11:52:57Z</time>
      </trkpt>
      <trkpt lat="44.1109" lon="7.49874">
        <ele>1646</ele>
        <time>2017-09-17T11:52:58Z</time>
      </trkpt>
      <trkpt lat="44.11093" lon="7.49875">
        <ele>1647</ele>
        <time>2017-09-17T11:52:59Z</time>
      </trkpt>
      <trkpt lat="44.11097" lon="7.49875">
        <ele>1647</ele>
        <time>2017-09-17T11:53:00Z</time>
      </trkpt>
      <trkpt lat="44.11101" lon="7.49875">
        <ele>1648</ele>
        <time>2017-09-17T11:53:01Z</time>
      </trkpt>
      <trkpt lat="44.11105" lon="7.49873">
        <ele>1648</ele>
        <time>2017-09-17T11:53:02Z</time>
      </trkpt>
      <trkpt lat="44.11109" lon="7.4987">
        <ele>1649</ele>
        <time>2017-09-17T11:53:03Z</time>
      </trkpt>
      <trkpt lat="44.11113" lon="7.49866">
        <ele>1649</ele>
        <time>2017-09-17T11:53:04Z</time>
      </trkpt>
      <trkpt lat="44.11117" lon="7.49862">
        <ele>1650</ele>
        <time>2017-09-17T11:53:05Z</time>
      </trkpt>
      <trkpt lat="44.1112" lon="7.49857">
        <ele>1650</ele>
        <time>2017-09-17T11:53:06Z</time>
      </trkpt>
      <trkpt lat="44.11124" lon="7.49853">
        <ele>1651</ele>
        <time>2017-09-17T11:53:07Z</time>
      </trkpt>
      <trkpt lat="44.11127" lon="7.49849">
        <ele>1651</ele>
        <time>2017-09-17T11:53:08Z</time>
      </trkpt>
      <trkpt lat="44.11131" lon="7.49846">
        <ele>1652</ele>
        <time>2017-09-17T11:53:09Z</time>
      </trkpt>
      <trkpt lat="44.11135" lon="7.49844">
        <ele>1653</ele>
        <time>2017-09-17T11:53:10Z</time>
      </trkpt>
      <trkpt lat="44.11139" lon="7.49844">
        <ele>1653</ele>
        <time>2017-09-17T11:53:11Z</time>
      </trkpt>
      <trkpt lat="44.11143" lon="7.49845">
        <ele>1654</ele>
        <time>2017-09-17T11:53:12Z</time>
      </trkpt>
      <trkpt lat="44.11147" lon="7.49848">
        <ele>1654</ele>
        <time>2017-09-17T11:53:13Z</time>
      </trkpt>
      <trkpt lat="44.1115" lon="7.49853">
        <ele>1654</ele>
        <time>2017-09-17T11:53:14Z</time>
      </trkpt>
      <trkpt lat="44.11152" lon="7.49859">
        <ele>1655</ele>
        <time>2017-09-17T11:53:15Z</time>
      </trkpt>
      <trkpt lat="44.11155" lon="7.49864">
        <ele>1656</ele>
        <time>2017-09-17T11:53:16Z</time>
      </trkpt>
      <trkpt lat="44.11157" lon="7.4987">
        <ele>1656</ele>
        <time>2017-09-17T11:53:17Z</time>
      </trkpt>
      <trkpt lat="44.1116" lon="7.49876">
        <ele>1657</ele>
        <time>2017-09-17T11:53:18Z</time>
      </trkpt>
      <trkpt lat="44.11162" lon="7.49881">
        <ele>1658</ele>
        <time>2017-09-17T11:53:19Z</time>
      </trkpt>
      <trkpt lat="44.11165" lon="7.49886">
        <ele>1659</ele>
        <time>2017-09-17T11:53:20Z</time>
      </trkpt>
      <trkpt lat="44.11167" lon="7.49892">
        <ele>1659</ele>
        <time>2017-09-17T11:53:21Z</time>
      </trkpt>
      <trkpt lat="44.1117" lon="7.49897">
        <ele>1660</ele>
        <time>2017-09-17T11:53:22Z</time>
      </trkpt>
      <trkpt lat="44.11173" lon="7.49902">
        <ele>1661</ele>
        <time>2017-09-17T11:53:23Z</time>
      </trkpt>
      <trkpt lat="44.11177" lon="7.49905">
        <ele>1662</ele>
        <time>2017-09-17T11:53:24Z</time>
      </trkpt>
      <trkpt lat="44.11181" lon="7.49907">
        <ele>1662</ele>
        <time>2017-09-17T11:53:25Z</time>
      </trkpt>
      <trkpt lat="44.11186" lon="7.49906">
        <ele>1663</ele>
        <time>2017-09-17T11:53:26Z</time>
      </trkpt>
      <trkpt lat="44.11189" lon="7.49903">
        <ele>1664</ele>
        <time>2017-09-17T11:53:27Z</time>
      </trkpt>
      <trkpt lat="44.11191" lon="7.49899">
        <ele>1664</ele>
        <time>2017-09-17T11:53:28Z</time>
      </trkpt>
      <trkpt lat="44.11192" lon="7.49894">
        <ele>1665</ele>
        <time>2017-09-17T11:53:29Z</time>
      </trkpt>
      <trkpt lat="44.11192" lon="7.49891">
        <ele>1666</ele>
        <time>2017-09-17T11:53:30Z</time>
      </trkpt>
      <trkpt lat="44.11191" lon="7.49888">
        <ele>1667</ele>
        <time>2017-09-17T11:53:31Z</time>
      </trkpt>
      <trkpt lat="44.11191" lon="7.49885">
        <ele>1667</ele>
        <time>2017-09-17T11:53:32Z</time>
      </trkpt>
      <trkpt lat="44.11191" lon="7.49883">
        <ele>1668</ele>
        <time>2017-09-17T11:53:33Z</time>
      </trkpt>
      <trkpt lat="44.1119" lon="7.4988">
        <ele>1668</ele>
        <time>2017-09-17T11:53:34Z</time>
      </trkpt>
      <trkpt lat="44.1119" lon="7.49877">
        <ele>1669</ele>
        <time>2017-09-17T11:53:35Z</time>
      </trkpt>
      <trkpt lat="44.11189" lon="7.49875">
        <ele>1670</ele>
        <time>2017-09-17T11:53:36Z</time>
      </trkpt>
      <trkpt lat="44.11189" lon="7.49872">
        <ele>1670</ele>
        <time>2017-09-17T11:53:37Z</time>
      </trkpt>
      <trkpt lat="44.11187" lon="7.49868">
        <ele>1671</ele>
        <time>2017-09-17T11:53:38Z</time>
      </trkpt>
      <trkpt lat="44.11186" lon="7.49865">
        <ele>1672</ele>
        <time>2017-09-17T11:53:39Z</time>
      </trkpt>
      <trkpt lat="44.11184" lon="7.4986">
        <ele>1672</ele>
        <time>2017-09-17T11:53:40Z</time>
      </trkpt>
      <trkpt lat="44.11183" lon="7.49856">
        <ele>1673</ele>
        <time>2017-09-17T11:53:41Z</time>
      </trkpt>
      <trkpt lat="44.11182" lon="7.49852">
        <ele>1673</ele>
        <time>2017-09-17T11:53:42Z</time>
      </trkpt>
      <trkpt lat="44.11182" lon="7.49847">
        <ele>1674</ele>
        <time>2017-09-17T11:53:43Z</time>
      </trkpt>
      <trkpt lat="44.11182" lon="7.49842">
        <ele>1674</ele>
        <time>2017-09-17T11:53:44Z</time>
      </trkpt>
      <trkpt lat="44.11183" lon="7.49837">
        <ele>1675</ele>
        <time>2017-09-17T11:53:45Z</time>
      </trkpt>
      <trkpt lat="44.11185" lon="7.49833">
        <ele>1675</ele>
        <time>2017-09-17T11:53:46Z</time>
      </trkpt>
      <trkpt lat="44.11187" lon="7.49828">
        <ele>1676</ele>
        <time>2017-09-17T11:53:47Z</time>
      </trkpt>
      <trkpt lat="44.11189" lon="7.49823">
        <ele>1676</ele>
        <time>2017-09-17T11:53:48Z</time>
      </trkpt>
      <trkpt lat="44.1119" lon="7.49819">
        <ele>1677</ele>
        <time>2017-09-17T11:53:49Z</time>
      </trkpt>
      <trkpt lat="44.11192" lon="7.49814">
        <ele>1677</ele>
        <time>2017-09-17T11:53:50Z</time>
      </trkpt>
      <trkpt lat="44.11193" lon="7.4981">
        <ele>1678</ele>
        <time>2017-09-17T11:53:51Z</time>
      </trkpt>
      <trkpt lat="44.11195" lon="7.49806">
        <ele>1678</ele>
        <time>2017-09-17T11:53:52Z</time>
      </trkpt>
      <trkpt lat="44.11197" lon="7.49801">
        <ele>1679</ele>
        <time>2017-09-17T11:53:53Z</time>
      </trkpt>
      <trkpt lat="44.112" lon="7.49797">
        <ele>1679</ele>
        <time>2017-09-17T11:53:54Z</time>
      </trkpt>
      <trkpt lat="44.11202" lon="7.49793">
        <ele>1680</ele>
        <time>2017-09-17T11:53:55Z</time>
      </trkpt>
      <trkpt lat="44.11205" lon="7.4979">
        <ele>1681</ele>
        <time>2017-09-17T11:53:56Z</time>
      </trkpt>
      <trkpt lat="44.11208" lon="7.49787">
        <ele>1681</ele>
        <time>2017-09-17T11:53:57Z</time>
      </trkpt>
      <trkpt lat="44.11211" lon="7.49784">
        <ele>1682</ele>
        <time>2017-09-17T11:53:58Z</time>
      </trkpt>
      <trkpt lat="44.11215" lon="7.49782">
        <ele>1682</ele>
        <time>2017-09-17T11:53:59Z</time>
      </trkpt>
      <trkpt lat="44.11218" lon="7.4978">
        <ele>1683</ele>
        <time>2017-09-17T11:54:00Z</time>
      </trkpt>
      <trkpt lat="44.11222" lon="7.49779">
        <ele>1683</ele>
        <time>2017-09-17T11:54:01Z</time>
      </trkpt>
      <trkpt lat="44.11226" lon="7.49779">
        <ele>1684</ele>
        <time>2017-09-17T11:54:02Z</time>
      </trkpt>
      <trkpt lat="44.1123" lon="7.49778">
        <ele>1684</ele>
        <time>2017-09-17T11:54:03Z</time>
      </trkpt>
      <trkpt lat="44.11234" lon="7.49777">
        <ele>1685</ele>
        <time>2017-09-17T11:54:04Z</time>
      </trkpt>
      <trkpt lat="44.11239" lon="7.49776">
        <ele>1685</ele>
        <time>2017-09-17T11:54:05Z</time>
      </trkpt>
      <trkpt lat="44.11243" lon="7.49775">
        <ele>1686</ele>
        <time>2017-09-17T11:54:06Z</time>
      </trkpt>
      <trkpt lat="44.11247" lon="7.49774">
        <ele>1687</ele>
        <time>2017-09-17T11:54:07Z</time>
      </trkpt>
      <trkpt lat="44.11251" lon="7.49773">
        <ele>1687</ele>
        <time>2017-09-17T11:54:08Z</time>
      </trkpt>
      <trkpt lat="44.11255" lon="7.4977">
        <ele>1688</ele>
        <time>2017-09-17T11:54:09Z</time>
      </trkpt>
      <trkpt lat="44.11259" lon="7.49768">
        <ele>1688</ele>
        <time>2017-09-17T11:54:10Z</time>
      </trkpt>
      <trkpt lat="44.11262" lon="7.49764">
        <ele>1689</ele>
        <time>2017-09-17T11:54:11Z</time>
      </trkpt>
      <trkpt lat="44.11265" lon="7.49761">
        <ele>1689</ele>
        <time>2017-09-17T11:54:12Z</time>
      </trkpt>
      <trkpt lat="44.11267" lon="7.49757">
        <ele>1690</ele>
        <time>2017-09-17T11:54:13Z</time>
      </trkpt>
      <trkpt lat="44.11269" lon="7.49753">
        <ele>1690</ele>
        <time>2017-09-17T11:54:14Z</time>
      </trkpt>
      <trkpt lat="44.1127" lon="7.49748">
        <ele>1691</ele>
        <time>2017-09-17T11:54:15Z</time>
      </trkpt>
      <trkpt lat="44.11272" lon="7.49744">
        <ele>1691</ele>
        <time>2017-09-17T11:54:16Z</time>
      </trkpt>
      <trkpt lat="44.11273" lon="7.4974">
        <ele>1692</ele>
        <time>2017-09-17T11:54:17Z</time>
      </trkpt>
      <trkpt lat="44.11274" lon="7.49736">
        <ele>1692</ele>
        <time>2017-09-17T11:54:18Z</time>
      </trkpt>
      <trkpt lat="44.11276" lon="7.49733">
        <ele>1693</ele>
        <time>2017-09-17T11:54:19Z</time>
      </trkpt>
      <trkpt lat="44.11276" lon="7.4973">
        <ele>1693</ele>
        <time>2017-09-17T11:54:20Z</time>
      </trkpt>
      <trkpt lat="44.11277" lon="7.49726">
        <ele>1694</ele>
        <time>2017-09-17T11:54:21Z</time>
      </trkpt>
      <trkpt lat="44.11278" lon="7.49723">
        <ele>1694</ele>
        <time>2017-09-17T11:54:22Z</time>
      </trkpt>
      <trkpt lat="44.11279" lon="7.49719">
        <ele>1694</ele>
        <time>2017-09-17T11:54:23Z</time>
      </trkpt>
      <trkpt lat="44.1128" lon="7.49715">
        <ele>1695</ele>
        <time>2017-09-17T11:54:24Z</time>
      </trkpt>
      <trkpt lat="44.11281" lon="7.49711">
        <ele>1695</ele>
        <time>2017-09-17T11:54:25Z</time>
      </trkpt>
      <trkpt lat="44.11282" lon="7.49708">
        <ele>1696</ele>
        <time>2017-09-17T11:54:26Z</time>
      </trkpt>
      <trkpt lat="44.11282" lon="7.49704">
        <ele>1696</ele>
        <time>2017-09-17T11:54:27Z</time>
      </trkpt>
      <trkpt lat="44.11283" lon="7.49701">
        <ele>1697</ele>
        <time>2017-09-17T11:54:28Z</time>
      </trkpt>
      <trkpt lat="44.11284" lon="7.49697">
        <ele>1697</ele>
        <time>2017-09-17T11:54:29Z</time>
      </trkpt>
      <trkpt lat="44.11285" lon="7.49693">
        <ele>1698</ele>
        <time>2017-09-17T11:54:30Z</time>
      </trkpt>
      <trkpt lat="44.11287" lon="7.49688">
        <ele>1698</ele>
        <time>2017-09-17T11:54:31Z</time>
      </trkpt>
      <trkpt lat="44.11288" lon="7.49683">
        <ele>1699</ele>
        <time>2017-09-17T11:54:32Z</time>
      </trkpt>
      <trkpt lat="44.11289" lon="7.49679">
        <ele>1700</ele>
        <time>2017-09-17T11:54:33Z</time>
      </trkpt>
      <trkpt lat="44.1129" lon="7.49674">
        <ele>1700</ele>
        <time>2017-09-17T11:54:34Z</time>
      </trkpt>
      <trkpt lat="44.11291" lon="7.49669">
        <ele>1701</ele>
        <time>2017-09-17T11:54:35Z</time>
      </trkpt>
      <trkpt lat="44.11292" lon="7.49665">
        <ele>1701</ele>
        <time>2017-09-17T11:54:36Z</time>
      </trkpt>
      <trkpt lat="44.11294" lon="7.4966">
        <ele>1702</ele>
        <time>2017-09-17T11:54:37Z</time>
      </trkpt>
      <trkpt lat="44.11295" lon="7.49655">
        <ele>1702</ele>
        <time>2017-09-17T11:54:38Z</time>
      </trkpt>
      <trkpt lat="44.11296" lon="7.4965">
        <ele>1703</ele>
        <time>2017-09-17T11:54:39Z</time>
      </trkpt>
      <trkpt lat="44.11297" lon="7.49646">
        <ele>1704</ele>
        <time>2017-09-17T11:54:40Z</time>
      </trkpt>
      <trkpt lat="44.11299" lon="7.49641">
        <ele>1704</ele>
        <time>2017-09-17T11:54:41Z</time>
      </trkpt>
      <trkpt lat="44.113" lon="7.49637">
        <ele>1705</ele>
        <time>2017-09-17T11:54:42Z</time>
      </trkpt>
      <trkpt lat="44.11301" lon="7.49633">
        <ele>1705</ele>
        <time>2017-09-17T11:54:43Z</time>
      </trkpt>
      <trkpt lat="44.11302" lon="7.49628">
        <ele>1705</ele>
        <time>2017-09-17T11:54:44Z</time>
      </trkpt>
      <trkpt lat="44.11303" lon="7.49624">
        <ele>1706</ele>
        <time>2017-09-17T11:54:45Z</time>
      </trkpt>
      <trkpt lat="44.11304" lon="7.49619">
        <ele>1706</ele>
        <time>2017-09-17T11:54:46Z</time>
      </trkpt>
      <trkpt lat="44.11305" lon="7.49614">
        <ele>1706</ele>
        <time>2017-09-17T11:54:47Z</time>
      </trkpt>
      <trkpt lat="44.11306" lon="7.49609">
        <ele>1707</ele>
        <time>2017-09-17T11:54:48Z</time>
      </trkpt>
      <trkpt lat="44.11307" lon="7.49604">
        <ele>1707</ele>
        <time>2017-09-17T11:54:49Z</time>
      </trkpt>
      <trkpt lat="44.11308" lon="7.49599">
        <ele>1707</ele>
        <time>2017-09-17T11:54:50Z</time>
      </trkpt>
      <trkpt lat="44.11309" lon="7.49594">
        <ele>1708</ele>
        <time>2017-09-17T11:54:51Z</time>
      </trkpt>
      <trkpt lat="44.1131" lon="7.49589">
        <ele>1708</ele>
        <time>2017-09-17T11:54:52Z</time>
      </trkpt>
      <trkpt lat="44.11311" lon="7.49584">
        <ele>1709</ele>
        <time>2017-09-17T11:54:53Z</time>
      </trkpt>
      <trkpt lat="44.11312" lon="7.49579">
        <ele>1709</ele>
        <time>2017-09-17T11:54:54Z</time>
      </trkpt>
      <trkpt lat="44.11313" lon="7.49575">
        <ele>1710</ele>
        <time>2017-09-17T11:54:55Z</time>
      </trkpt>
      <trkpt lat="44.11314" lon="7.49571">
        <ele>1710</ele>
        <time>2017-09-17T11:54:56Z</time>
      </trkpt>
      <trkpt lat="44.11316" lon="7.49568">
        <ele>1710</ele>
        <time>2017-09-17T11:54:57Z</time>
      </trkpt>
      <trkpt lat="44.11319" lon="7.49565">
        <ele>1711</ele>
        <time>2017-09-17T11:54:58Z</time>
      </trkpt>
      <trkpt lat="44.11322" lon="7.49562">
        <ele>1711</ele>
        <time>2017-09-17T11:54:59Z</time>
      </trkpt>
      <trkpt lat="44.11325" lon="7.4956">
        <ele>1712</ele>
        <time>2017-09-17T11:55:00Z</time>
      </trkpt>
      <trkpt lat="44.11329" lon="7.49558">
        <ele>1712</ele>
        <time>2017-09-17T11:55:01Z</time>
      </trkpt>
      <trkpt lat="44.11332" lon="7.49555">
        <ele>1712</ele>
        <time>2017-09-17T11:55:02Z</time>
      </trkpt>
      <trkpt lat="44.11335" lon="7.49552">
        <ele>1713</ele>
        <time>2017-09-17T11:55:03Z</time>
      </trkpt>
      <trkpt lat="44.11339" lon="7.49549">
        <ele>1713</ele>
        <time>2017-09-17T11:55:04Z</time>
      </trkpt>
      <trkpt lat="44.11342" lon="7.49546">
        <ele>1714</ele>
        <time>2017-09-17T11:55:05Z</time>
      </trkpt>
      <trkpt lat="44.11345" lon="7.49544">
        <ele>1714</ele>
        <time>2017-09-17T11:55:06Z</time>
      </trkpt>
      <trkpt lat="44.11348" lon="7.49542">
        <ele>1714</ele>
        <time>2017-09-17T11:55:07Z</time>
      </trkpt>
      <trkpt lat="44.11351" lon="7.4954">
        <ele>1715</ele>
        <time>2017-09-17T11:55:08Z</time>
      </trkpt>
      <trkpt lat="44.11354" lon="7.49538">
        <ele>1715</ele>
        <time>2017-09-17T11:55:09Z</time>
      </trkpt>
      <trkpt lat="44.11357" lon="7.49536">
        <ele>1715</ele>
        <time>2017-09-17T11:55:10Z</time>
      </trkpt>
      <trkpt lat="44.11361" lon="7.49534">
        <ele>1716</ele>
        <time>2017-09-17T11:55:11Z</time>
      </trkpt>
      <trkpt lat="44.11364" lon="7.49532">
        <ele>1716</ele>
        <time>2017-09-17T11:55:12Z</time>
      </trkpt>
      <trkpt lat="44.11367" lon="7.4953">
        <ele>1716</ele>
        <time>2017-09-17T11:55:13Z</time>
      </trkpt>
      <trkpt lat="44.1137" lon="7.49528">
        <ele>1717</ele>
        <time>2017-09-17T11:55:14Z</time>
      </trkpt>
      <trkpt lat="44.11373" lon="7.49526">
        <ele>1717</ele>
        <time>2017-09-17T11:55:15Z</time>
      </trkpt>
      <trkpt lat="44.11376" lon="7.49524">
        <ele>1717</ele>
        <time>2017-09-17T11:55:16Z</time>
      </trkpt>
      <trkpt lat="44.11378" lon="7.49522">
        <ele>1718</ele>
        <time>2017-09-17T11:55:17Z</time>
      </trkpt>
      <trkpt lat="44.1138" lon="7.49521">
        <ele>1718</ele>
        <time>2017-09-17T11:55:18Z</time>
      </trkpt>
      <trkpt lat="44.11382" lon="7.4952">
        <ele>1718</ele>
        <time>2017-09-17T11:55:19Z</time>
      </trkpt>
      <trkpt lat="44.11384" lon="7.4952">
        <ele>1718</ele>
        <time>2017-09-17T11:55:20Z</time>
      </trkpt>
      <trkpt lat="44.11387" lon="7.49519">
        <ele>1718</ele>
        <time>2017-09-17T11:55:21Z</time>
      </trkpt>
      <trkpt lat="44.1139" lon="7.49517">
        <ele>1719</ele>
        <time>2017-09-17T11:55:22Z</time>
      </trkpt>
      <trkpt lat="44.11394" lon="7.49515">
        <ele>1719</ele>
        <time>2017-09-17T11:55:23Z</time>
      </trkpt>
      <trkpt lat="44.11398" lon="7.49512">
        <ele>1719</ele>
        <time>2017-09-17T11:55:24Z</time>
      </trkpt>
      <trkpt lat="44.11402" lon="7.49509">
        <ele>1719</ele>
        <time>2017-09-17T11:55:25Z</time>
      </trkpt>
      <trkpt lat="44.11406" lon="7.49506">
        <ele>1719</ele>
        <time>2017-09-17T11:55:26Z</time>
      </trkpt>
      <trkpt lat="44.1141" lon="7.49505">
        <ele>1719</ele>
        <time>2017-09-17T11:55:27Z</time>
      </trkpt>
      <trkpt lat="44.11414" lon="7.49505">
        <ele>1719</ele>
        <time>2017-09-17T11:55:28Z</time>
      </trkpt>
      <trkpt lat="44.11418" lon="7.49506">
        <ele>1719</ele>
        <time>2017-09-17T11:55:29Z</time>
      </trkpt>
      <trkpt lat="44.11422" lon="7.49507">
        <ele>1720</ele>
        <time>2017-09-17T11:55:30Z</time>
      </trkpt>
      <trkpt lat="44.11425" lon="7.49511">
        <ele>1720</ele>
        <time>2017-09-17T11:55:31Z</time>
      </trkpt>
      <trkpt lat="44.11427" lon="7.49515">
        <ele>1720</ele>
        <time>2017-09-17T11:55:32Z</time>
      </trkpt>
      <trkpt lat="44.11428" lon="7.49521">
        <ele>1720</ele>
        <time>2017-09-17T11:55:33Z</time>
      </trkpt>
      <trkpt lat="44.11427" lon="7.49527">
        <ele>1720</ele>
        <time>2017-09-17T11:55:34Z</time>
      </trkpt>
      <trkpt lat="44.11426" lon="7.49533">
        <ele>1720</ele>
        <time>2017-09-17T11:55:35Z</time>
      </trkpt>
      <trkpt lat="44.11424" lon="7.4954">
        <ele>1720</ele>
        <time>2017-09-17T11:55:36Z</time>
      </trkpt>
      <trkpt lat="44.11423" lon="7.49547">
        <ele>1720</ele>
        <time>2017-09-17T11:55:37Z</time>
      </trkpt>
      <trkpt lat="44.11422" lon="7.49553">
        <ele>1720</ele>
        <time>2017-09-17T11:55:38Z</time>
      </trkpt>
      <trkpt lat="44.11423" lon="7.49559">
        <ele>1720</ele>
        <time>2017-09-17T11:55:39Z</time>
      </trkpt>
      <trkpt lat="44.11425" lon="7.49565">
        <ele>1720</ele>
        <time>2017-09-17T11:55:40Z</time>
      </trkpt>
      <trkpt lat="44.11428" lon="7.49569">
        <ele>1720</ele>
        <time>2017-09-17T11:55:41Z</time>
      </trkpt>
      <trkpt lat="44.11432" lon="7.49572">
        <ele>1720</ele>
        <time>2017-09-17T11:55:42Z</time>
      </trkpt>
      <trkpt lat="44.11436" lon="7.49573">
        <ele>1720</ele>
        <time>2017-09-17T11:55:43Z</time>
      </trkpt>
      <trkpt lat="44.1144" lon="7.4957">
        <ele>1720</ele>
        <time>2017-09-17T11:55:44Z</time>
      </trkpt>
      <trkpt lat="44.11443" lon="7.49566">
        <ele>1720</ele>
        <time>2017-09-17T11:55:45Z</time>
      </trkpt>
      <trkpt lat="44.11446" lon="7.49561">
        <ele>1720</ele>
        <time>2017-09-17T11:55:46Z</time>
      </trkpt>
      <trkpt lat="44.11449" lon="7.49555">
        <ele>1719</ele>
        <time>2017-09-17T11:55:47Z</time>
      </trkpt>
      <trkpt lat="44.11452" lon="7.49548">
        <ele>1719</ele>
        <time>2017-09-17T11:55:48Z</time>
      </trkpt>
      <trkpt lat="44.11454" lon="7.49542">
        <ele>1719</ele>
        <time>2017-09-17T11:55:49Z</time>
      </trkpt>
      <trkpt lat="44.11457" lon="7.49536">
        <ele>1718</ele>
        <time>2017-09-17T11:55:50Z</time>
      </trkpt>
      <trkpt lat="44.11461" lon="7.49529">
        <ele>1718</ele>
        <time>2017-09-17T11:55:51Z</time>
      </trkpt>
      <trkpt lat="44.11465" lon="7.49523">
        <ele>1717</ele>
        <time>2017-09-17T11:55:52Z</time>
      </trkpt>
      <trkpt lat="44.11469" lon="7.49517">
        <ele>1717</ele>
        <time>2017-09-17T11:55:53Z</time>
      </trkpt>
      <trkpt lat="44.11474" lon="7.49512">
        <ele>1716</ele>
        <time>2017-09-17T11:55:54Z</time>
      </trkpt>
      <trkpt lat="44.11479" lon="7.49506">
        <ele>1716</ele>
        <time>2017-09-17T11:55:55Z</time>
      </trkpt>
      <trkpt lat="44.11484" lon="7.495">
        <ele>1716</ele>
        <time>2017-09-17T11:55:56Z</time>
      </trkpt>
      <trkpt lat="44.11489" lon="7.49493">
        <ele>1715</ele>
        <time>2017-09-17T11:55:57Z</time>
      </trkpt>
      <trkpt lat="44.11494" lon="7.49487">
        <ele>1715</ele>
        <time>2017-09-17T11:55:58Z</time>
      </trkpt>
      <trkpt lat="44.11498" lon="7.49481">
        <ele>1714</ele>
        <time>2017-09-17T11:55:59Z</time>
      </trkpt>
      <trkpt lat="44.11502" lon="7.49473">
        <ele>1713</ele>
        <time>2017-09-17T11:56:00Z</time>
      </trkpt>
      <trkpt lat="44.11506" lon="7.49465">
        <ele>1713</ele>
        <time>2017-09-17T11:56:01Z</time>
      </trkpt>
      <trkpt lat="44.11509" lon="7.49457">
        <ele>1712</ele>
        <time>2017-09-17T11:56:02Z</time>
      </trkpt>
      <trkpt lat="44.11512" lon="7.49449">
        <ele>1711</ele>
        <time>2017-09-17T11:56:03Z</time>
      </trkpt>
      <trkpt lat="44.11516" lon="7.49442">
        <ele>1710</ele>
        <time>2017-09-17T11:56:04Z</time>
      </trkpt>
      <trkpt lat="44.11521" lon="7.49436">
        <ele>1710</ele>
        <time>2017-09-17T11:56:05Z</time>
      </trkpt>
      <trkpt lat="44.11526" lon="7.4943">
        <ele>1709</ele>
        <time>2017-09-17T11:56:06Z</time>
      </trkpt>
      <trkpt lat="44.11531" lon="7.49426">
        <ele>1708</ele>
        <time>2017-09-17T11:56:07Z</time>
      </trkpt>
      <trkpt lat="44.11536" lon="7.49423">
        <ele>1708</ele>
        <time>2017-09-17T11:56:08Z</time>
      </trkpt>
      <trkpt lat="44.1154" lon="7.4942">
        <ele>1708</ele>
        <time>2017-09-17T11:56:09Z</time>
      </trkpt>
      <trkpt lat="44.11545" lon="7.49418">
        <ele>1707</ele>
        <time>2017-09-17T11:56:10Z</time>
      </trkpt>
      <trkpt lat="44.1155" lon="7.49413">
        <ele>1707</ele>
        <time>2017-09-17T11:56:11Z</time>
      </trkpt>
      <trkpt lat="44.11554" lon="7.49408">
        <ele>1707</ele>
        <time>2017-09-17T11:56:12Z</time>
      </trkpt>
      <trkpt lat="44.11557" lon="7.49401">
        <ele>1706</ele>
        <time>2017-09-17T11:56:13Z</time>
      </trkpt>
      <trkpt lat="44.1156" lon="7.49393">
        <ele>1706</ele>
        <time>2017-09-17T11:56:14Z</time>
      </trkpt>
      <trkpt lat="44.11563" lon="7.49386">
        <ele>1705</ele>
        <time>2017-09-17T11:56:15Z</time>
      </trkpt>
      <trkpt lat="44.11567" lon="7.49378">
        <ele>1705</ele>
        <time>2017-09-17T11:56:16Z</time>
      </trkpt>
      <trkpt lat="44.11571" lon="7.4937">
        <ele>1705</ele>
        <time>2017-09-17T11:56:17Z</time>
      </trkpt>
      <trkpt lat="44.11575" lon="7.49361">
        <ele>1704</ele>
        <time>2017-09-17T11:56:18Z</time>
      </trkpt>
      <trkpt lat="44.11579" lon="7.49353">
        <ele>1704</ele>
        <time>2017-09-17T11:56:19Z</time>
      </trkpt>
      <trkpt lat="44.11583" lon="7.49344">
        <ele>1703</ele>
        <time>2017-09-17T11:56:20Z</time>
      </trkpt>
      <trkpt lat="44.11588" lon="7.49336">
        <ele>1703</ele>
        <time>2017-09-17T11:56:21Z</time>
      </trkpt>
      <trkpt lat="44.11592" lon="7.49329">
        <ele>1703</ele>
        <time>2017-09-17T11:56:22Z</time>
      </trkpt>
      <trkpt lat="44.11596" lon="7.49322">
        <ele>1702</ele>
        <time>2017-09-17T11:56:23Z</time>
      </trkpt>
      <trkpt lat="44.116" lon="7.49316">
        <ele>1702</ele>
        <time>2017-09-17T11:56:24Z</time>
      </trkpt>
      <trkpt lat="44.11603" lon="7.4931">
        <ele>1701</ele>
        <time>2017-09-17T11:56:25Z</time>
      </trkpt>
      <trkpt lat="44.11606" lon="7.49304">
        <ele>1701</ele>
        <time>2017-09-17T11:56:26Z</time>
      </trkpt>
      <trkpt lat="44.11608" lon="7.49298">
        <ele>1700</ele>
        <time>2017-09-17T11:56:27Z</time>
      </trkpt>
      <trkpt lat="44.1161" lon="7.49292">
        <ele>1700</ele>
        <time>2017-09-17T11:56:28Z</time>
      </trkpt>
      <trkpt lat="44.1161" lon="7.49287">
        <ele>1699</ele>
        <time>2017-09-17T11:56:29Z</time>
      </trkpt>
      <trkpt lat="44.1161" lon="7.49284">
        <ele>1699</ele>
        <time>2017-09-17T11:56:30Z</time>
      </trkpt>
      <trkpt lat="44.1161" lon="7.49281">
        <ele>1698</ele>
        <time>2017-09-17T11:56:31Z</time>
      </trkpt>
      <trkpt lat="44.11609" lon="7.49278">
        <ele>1698</ele>
        <time>2017-09-17T11:56:32Z</time>
      </trkpt>
      <trkpt lat="44.11609" lon="7.49275">
        <ele>1697</ele>
        <time>2017-09-17T11:56:33Z</time>
      </trkpt>
      <trkpt lat="44.11609" lon="7.49273">
        <ele>1697</ele>
        <time>2017-09-17T11:56:34Z</time>
      </trkpt>
      <trkpt lat="44.1161" lon="7.49271">
        <ele>1696</ele>
        <time>2017-09-17T11:56:35Z</time>
      </trkpt>
      <trkpt lat="44.1161" lon="7.4927">
        <ele>1696</ele>
        <time>2017-09-17T11:56:36Z</time>
      </trkpt>
      <trkpt lat="44.11611" lon="7.4927">
        <ele>1696</ele>
        <time>2017-09-17T11:56:37Z</time>
      </trkpt>
      <trkpt lat="44.11611" lon="7.4927">
        <ele>1695</ele>
        <time>2017-09-17T11:56:38Z</time>
      </trkpt>
      <trkpt lat="44.11611" lon="7.49269">
        <ele>1695</ele>
        <time>2017-09-17T11:56:39Z</time>
      </trkpt>
      <trkpt lat="44.11611" lon="7.49269">
        <ele>1695</ele>
        <time>2017-09-17T11:56:40Z</time>
      </trkpt>
      <trkpt lat="44.11611" lon="7.49269">
        <ele>1694</ele>
        <time>2017-09-17T11:56:41Z</time>
      </trkpt>
      <trkpt lat="44.11612" lon="7.49269">
        <ele>1694</ele>
        <time>2017-09-17T11:56:42Z</time>
      </trkpt>
      <trkpt lat="44.11612" lon="7.49269">
        <ele>1694</ele>
        <time>2017-09-17T11:56:43Z</time>
      </trkpt>
      <trkpt lat="44.11611" lon="7.49269">
        <ele>1694</ele>
        <time>2017-09-17T11:56:44Z</time>
      </trkpt>
      <trkpt lat="44.11612" lon="7.49269">
        <ele>1694</ele>
        <time>2017-09-17T11:56:45Z</time>
      </trkpt>
      <trkpt lat="44.11612" lon="7.49269">
        <ele>1694</ele>
        <time>2017-09-17T11:56:46Z</time>
      </trkpt>
      <trkpt lat="44.11612" lon="7.49269">
        <ele>1693</ele>
        <time>2017-09-17T11:56:47Z</time>
      </trkpt>
      <trkpt lat="44.11612" lon="7.49268">
        <ele>1693</ele>
        <time>2017-09-17T11:56:48Z</time>
      </trkpt>
      <trkpt lat="44.11612" lon="7.49268">
        <ele>1693</ele>
        <time>2017-09-17T11:56:49Z</time>
      </trkpt>
      <trkpt lat="44.11612" lon="7.49269">
        <ele>1693</ele>
        <time>2017-09-17T11:56:50Z</time>
      </trkpt>
      <trkpt lat="44.11612" lon="7.49269">
        <ele>1693</ele>
        <time>2017-09-17T11:56:51Z</time>
      </trkpt>
      <trkpt lat="44.11612" lon="7.49269">
        <ele>1693</ele>
        <time>2017-09-17T11:56:52Z</time>
      </trkpt>
      <trkpt lat="44.11612" lon="7.4927">
        <ele>1693</ele>
        <time>2017-09-17T11:56:53Z</time>
      </trkpt>
      <trkpt lat="44.11612" lon="7.4927">
        <ele>1693</ele>
        <time>2017-09-17T11:56:54Z</time>
      </trkpt>
      <trkpt lat="44.11611" lon="7.49271">
        <ele>1692</ele>
        <time>2017-09-17T11:56:55Z</time>
      </trkpt>
      <trkpt lat="44.11611" lon="7.49271">
        <ele>1692</ele>
        <time>2017-09-17T11:56:56Z</time>
      </trkpt>
      <trkpt lat="44.11611" lon="7.49271">
        <ele>1692</ele>
        <time>2017-09-17T11:56:57Z</time>
      </trkpt>
      <trkpt lat="44.11611" lon="7.49271">
        <ele>1692</ele>
        <time>2017-09-17T11:56:58Z</time>
      </trkpt>
      <trkpt lat="44.1161" lon="7.49271">
        <ele>1692</ele>
        <time>2017-09-17T11:56:59Z</time>
      </trkpt>
      <trkpt lat="44.11611" lon="7.49271">
        <ele>1693</ele>
        <time>2017-09-17T11:57:00Z</time>
      </trkpt>
      <trkpt lat="44.11611" lon="7.49271">
        <ele>1693</ele>
        <time>2017-09-17T11:57:01Z</time>
      </trkpt>
      <trkpt lat="44.11611" lon="7.49272">
        <ele>1693</ele>
        <time>2017-09-17T11:57:02Z</time>
      </trkpt>
      <trkpt lat="44.11611" lon="7.49272">
        <ele>1693</ele>
        <time>2017-09-17T11:57:03Z</time>
      </trkpt>
      <trkpt lat="44.11611" lon="7.49272">
        <ele>1693</ele>
        <time>2017-09-17T11:57:04Z</time>
      </trkpt>
      <trkpt lat="44.11611" lon="7.49272">
        <ele>1693</ele>
        <time>2017-09-17T11:57:05Z</time>
      </trkpt>
      <trkpt lat="44.11611" lon="7.49272">
        <ele>1693</ele>
        <time>2017-09-17T11:57:06Z</time>
      </trkpt>
      <trkpt lat="44.11611" lon="7.49272">
        <ele>1693</ele>
        <time>2017-09-17T11:57:07Z</time>
      </trkpt>
      <trkpt lat="44.1161" lon="7.49273">
        <ele>1694</ele>
        <time>2017-09-17T11:57:08Z</time>
      </trkpt>
      <trkpt lat="44.1161" lon="7.49273">
        <ele>1694</ele>
        <time>2017-09-17T11:57:09Z</time>
      </trkpt>
      <trkpt lat="44.1161" lon="7.49273">
        <ele>1694</ele>
        <time>2017-09-17T11:57:10Z</time>
      </trkpt>
      <trkpt lat="44.1161" lon="7.49273">
        <ele>1694</ele>
        <time>2017-09-17T11:57:11Z</time>
      </trkpt>
      <trkpt lat="44.1161" lon="7.49273">
        <ele>1694</ele>
        <time>2017-09-17T11:57:12Z</time>
      </trkpt>
      <trkpt lat="44.1161" lon="7.49274">
        <ele>1694</ele>
        <time>2017-09-17T11:57:13Z</time>
      </trkpt>
      <trkpt lat="44.1161" lon="7.49274">
        <ele>1695</ele>
        <time>2017-09-17T11:57:14Z</time>
      </trkpt>
      <trkpt lat="44.1161" lon="7.49274">
        <ele>1695</ele>
        <time>2017-09-17T11:57:15Z</time>
      </trkpt>
      <trkpt lat="44.11609" lon="7.49275">
        <ele>1695</ele>
        <time>2017-09-17T11:57:16Z</time>
      </trkpt>
      <trkpt lat="44.11609" lon="7.49275">
        <ele>1695</ele>
        <time>2017-09-17T11:57:17Z</time>
      </trkpt>
      <trkpt lat="44.11608" lon="7.49276">
        <ele>1695</ele>
        <time>2017-09-17T11:57:18Z</time>
      </trkpt>
      <trkpt lat="44.11608" lon="7.49275">
        <ele>1695</ele>
        <time>2017-09-17T11:57:19Z</time>
      </trkpt>
      <trkpt lat="44.11608" lon="7.49276">
        <ele>1695</ele>
        <time>2017-09-17T11:57:20Z</time>
      </trkpt>
      <trkpt lat="44.11607" lon="7.49276">
        <ele>1695</ele>
        <time>2017-09-17T11:57:21Z</time>
      </trkpt>
      <trkpt lat="44.11607" lon="7.49277">
        <ele>1695</ele>
        <time>2017-09-17T11:57:22Z</time>
      </trkpt>
      <trkpt lat="44.11607" lon="7.49277">
        <ele>1695</ele>
        <time>2017-09-17T11:57:23Z</time>
      </trkpt>
      <trkpt lat="44.11607" lon="7.49276">
        <ele>1695</ele>
        <time>2017-09-17T11:57:24Z</time>
      </trkpt>
      <trkpt lat="44.11607" lon="7.49276">
        <ele>1694</ele>
        <time>2017-09-17T11:57:25Z</time>
      </trkpt>
      <trkpt lat="44.11607" lon="7.49276">
        <ele>1694</ele>
        <time>2017-09-17T11:57:26Z</time>
      </trkpt>
      <trkpt lat="44.11607" lon="7.49275">
        <ele>1694</ele>
        <time>2017-09-17T11:57:27Z</time>
      </trkpt>
      <trkpt lat="44.11607" lon="7.49275">
        <ele>1694</ele>
        <time>2017-09-17T11:57:28Z</time>
      </trkpt>
      <trkpt lat="44.11607" lon="7.49274">
        <ele>1694</ele>
        <time>2017-09-17T11:57:29Z</time>
      </trkpt>
      <trkpt lat="44.11606" lon="7.49274">
        <ele>1694</ele>
        <time>2017-09-17T11:57:30Z</time>
      </trkpt>
      <trkpt lat="44.11606" lon="7.49274">
        <ele>1694</ele>
        <time>2017-09-17T11:57:31Z</time>
      </trkpt>
      <trkpt lat="44.11606" lon="7.49274">
        <ele>1694</ele>
        <time>2017-09-17T11:57:32Z</time>
      </trkpt>
      <trkpt lat="44.11606" lon="7.49274">
        <ele>1694</ele>
        <time>2017-09-17T11:57:33Z</time>
      </trkpt>
      <trkpt lat="44.11606" lon="7.49274">
        <ele>1694</ele>
        <time>2017-09-17T11:57:34Z</time>
      </trkpt>
      <trkpt lat="44.11606" lon="7.49275">
        <ele>1694</ele>
        <time>2017-09-17T11:57:35Z</time>
      </trkpt>
      <trkpt lat="44.11606" lon="7.49275">
        <ele>1694</ele>
        <time>2017-09-17T11:57:36Z</time>
      </trkpt>
      <trkpt lat="44.11606" lon="7.49275">
        <ele>1694</ele>
        <time>2017-09-17T11:57:37Z</time>
      </trkpt>
      <trkpt lat="44.11606" lon="7.49275">
        <ele>1694</ele>
        <time>2017-09-17T11:57:38Z</time>
      </trkpt>
      <trkpt lat="44.11606" lon="7.49275">
        <ele>1694</ele>
        <time>2017-09-17T11:57:39Z</time>
      </trkpt>
      <trkpt lat="44.11606" lon="7.49276">
        <ele>1694</ele>
        <time>2017-09-17T11:57:40Z</time>
      </trkpt>
      <trkpt lat="44.11607" lon="7.49276">
        <ele>1694</ele>
        <time>2017-09-17T11:57:41Z</time>
      </trkpt>
      <trkpt lat="44.11607" lon="7.49276">
        <ele>1694</ele>
        <time>2017-09-17T11:57:42Z</time>
      </trkpt>
      <trkpt lat="44.11607" lon="7.49276">
        <ele>1694</ele>
        <time>2017-09-17T11:57:43Z</time>
      </trkpt>
      <trkpt lat="44.11608" lon="7.49276">
        <ele>1694</ele>
        <time>2017-09-17T11:57:44Z</time>
      </trkpt>
      <trkpt lat="44.11608" lon="7.49276">
        <ele>1694</ele>
        <time>2017-09-17T11:57:45Z</time>
      </trkpt>
      <trkpt lat="44.11607" lon="7.49276">
        <ele>1695</ele>
        <time>2017-09-17T11:57:46Z</time>
      </trkpt>
      <trkpt lat="44.11608" lon="7.49276">
        <ele>1695</ele>
        <time>2017-09-17T11:57:47Z</time>
      </trkpt>
      <trkpt lat="44.11608" lon="7.49276">
        <ele>1695</ele>
        <time>2017-09-17T11:57:48Z</time>
      </trkpt>
      <trkpt lat="44.11608" lon="7.49276">
        <ele>1695</ele>
        <time>2017-09-17T11:57:49Z</time>
      </trkpt>
      <trkpt lat="44.11608" lon="7.49276">
        <ele>1695</ele>
        <time>2017-09-17T11:57:50Z</time>
      </trkpt>
      <trkpt lat="44.11608" lon="7.49276">
        <ele>1695</ele>
        <time>2017-09-17T11:57:51Z</time>
      </trkpt>
      <trkpt lat="44.11608" lon="7.49277">
        <ele>1695</ele>
        <time>2017-09-17T11:57:52Z</time>
      </trkpt>
      <trkpt lat="44.11608" lon="7.49277">
        <ele>1695</ele>
        <time>2017-09-17T11:57:53Z</time>
      </trkpt>
      <trkpt lat="44.11608" lon="7.49278">
        <ele>1695</ele>
        <time>2017-09-17T11:57:54Z</time>
      </trkpt>
      <trkpt lat="44.11608" lon="7.49278">
        <ele>1696</ele>
        <time>2017-09-17T11:57:55Z</time>
      </trkpt>
      <trkpt lat="44.11608" lon="7.49278">
        <ele>1696</ele>
        <time>2017-09-17T11:57:56Z</time>
      </trkpt>
      <trkpt lat="44.11608" lon="7.49278">
        <ele>1696</ele>
        <time>2017-09-17T11:57:57Z</time>
      </trkpt>
      <trkpt lat="44.11608" lon="7.49278">
        <ele>1696</ele>
        <time>2017-09-17T11:57:58Z</time>
      </trkpt>
      <trkpt lat="44.11608" lon="7.49278">
        <ele>1696</ele>
        <time>2017-09-17T11:57:59Z</time>
      </trkpt>
      <trkpt lat="44.11608" lon="7.49278">
        <ele>1696</ele>
        <time>2017-09-17T11:58:00Z</time>
      </trkpt>
      <trkpt lat="44.11608" lon="7.49278">
        <ele>1696</ele>
        <time>2017-09-17T11:58:01Z</time>
      </trkpt>
      <trkpt lat="44.11608" lon="7.49278">
        <ele>1696</ele>
        <time>2017-09-17T11:58:02Z</time>
      </trkpt>
      <trkpt lat="44.11608" lon="7.49278">
        <ele>1696</ele>
        <time>2017-09-17T11:58:03Z</time>
      </trkpt>
      <trkpt lat="44.11608" lon="7.49278">
        <ele>1696</ele>
        <time>2017-09-17T11:58:04Z</time>
      </trkpt>
      <trkpt lat="44.11608" lon="7.49278">
        <ele>1697</ele>
        <time>2017-09-17T11:58:05Z</time>
      </trkpt>
      <trkpt lat="44.11608" lon="7.49278">
        <ele>1697</ele>
        <time>2017-09-17T11:58:06Z</time>
      </trkpt>
      <trkpt lat="44.11608" lon="7.49278">
        <ele>1697</ele>
        <time>2017-09-17T11:58:07Z</time>
      </trkpt>
      <trkpt lat="44.11608" lon="7.49279">
        <ele>1697</ele>
        <time>2017-09-17T11:58:08Z</time>
      </trkpt>
      <trkpt lat="44.11609" lon="7.49279">
        <ele>1697</ele>
        <time>2017-09-17T11:58:09Z</time>
      </trkpt>
      <trkpt lat="44.11609" lon="7.49279">
        <ele>1697</ele>
        <time>2017-09-17T11:58:10Z</time>
      </trkpt>
      <trkpt lat="44.11609" lon="7.49279">
        <ele>1697</ele>
        <time>2017-09-17T11:58:11Z</time>
      </trkpt>
      <trkpt lat="44.11609" lon="7.49279">
        <ele>1697</ele>
        <time>2017-09-17T11:58:12Z</time>
      </trkpt>
      <trkpt lat="44.11609" lon="7.4928">
        <ele>1697</ele>
        <time>2017-09-17T11:58:13Z</time>
      </trkpt>
      <trkpt lat="44.11609" lon="7.4928">
        <ele>1697</ele>
        <time>2017-09-17T11:58:14Z</time>
      </trkpt>
      <trkpt lat="44.1161" lon="7.4928">
        <ele>1697</ele>
        <time>2017-09-17T11:58:15Z</time>
      </trkpt>
      <trkpt lat="44.1161" lon="7.4928">
        <ele>1698</ele>
        <time>2017-09-17T11:58:16Z</time>
      </trkpt>
      <trkpt lat="44.1161" lon="7.4928">
        <ele>1698</ele>
        <time>2017-09-17T11:58:17Z</time>
      </trkpt>
      <trkpt lat="44.1161" lon="7.4928">
        <ele>1698</ele>
        <time>2017-09-17T11:58:18Z</time>
      </trkpt>
      <trkpt lat="44.1161" lon="7.4928">
        <ele>1698</ele>
        <time>2017-09-17T11:58:19Z</time>
      </trkpt>
      <trkpt lat="44.1161" lon="7.4928">
        <ele>1698</ele>
        <time>2017-09-17T11:58:20Z</time>
      </trkpt>
      <trkpt lat="44.1161" lon="7.4928">
        <ele>1698</ele>
        <time>2017-09-17T11:58:21Z</time>
      </trkpt>
      <trkpt lat="44.1161" lon="7.4928">
        <ele>1698</ele>
        <time>2017-09-17T11:58:22Z</time>
      </trkpt>
      <trkpt lat="44.1161" lon="7.4928">
        <ele>1698</ele>
        <time>2017-09-17T11:58:23Z</time>
      </trkpt>
      <trkpt lat="44.1161" lon="7.4928">
        <ele>1698</ele>
        <time>2017-09-17T11:58:24Z</time>
      </trkpt>
      <trkpt lat="44.1161" lon="7.4928">
        <ele>1698</ele>
        <time>2017-09-17T11:58:25Z</time>
      </trkpt>
      <trkpt lat="44.1161" lon="7.4928">
        <ele>1698</ele>
        <time>2017-09-17T11:58:26Z</time>
      </trkpt>
      <trkpt lat="44.1161" lon="7.4928">
        <ele>1698</ele>
        <time>2017-09-17T11:58:27Z</time>
      </trkpt>
      <trkpt lat="44.1161" lon="7.4928">
        <ele>1698</ele>
        <time>2017-09-17T11:58:28Z</time>
      </trkpt>
      <trkpt lat="44.1161" lon="7.4928">
        <ele>1698</ele>
        <time>2017-09-17T11:58:29Z</time>
      </trkpt>
      <trkpt lat="44.1161" lon="7.4928">
        <ele>1698</ele>
        <time>2017-09-17T11:58:30Z</time>
      </trkpt>
      <trkpt lat="44.1161" lon="7.4928">
        <ele>1699</ele>
        <time>2017-09-17T11:58:31Z</time>
      </trkpt>
      <trkpt lat="44.1161" lon="7.4928">
        <ele>1699</ele>
        <time>2017-09-17T11:58:32Z</time>
      </trkpt>
      <trkpt lat="44.1161" lon="7.4928">
        <ele>1699</ele>
        <time>2017-09-17T11:58:33Z</time>
      </trkpt>
      <trkpt lat="44.1161" lon="7.4928">
        <ele>1699</ele>
        <time>2017-09-17T11:58:34Z</time>
      </trkpt>
      <trkpt lat="44.11611" lon="7.4928">
        <ele>1698</ele>
        <time>2017-09-17T11:58:35Z</time>
      </trkpt>
      <trkpt lat="44.1161" lon="7.4928">
        <ele>1698</ele>
        <time>2017-09-17T11:58:36Z</time>
      </trkpt>
      <trkpt lat="44.1161" lon="7.4928">
        <ele>1698</ele>
        <time>2017-09-17T11:58:37Z</time>
      </trkpt>
      <trkpt lat="44.11611" lon="7.4928">
        <ele>1699</ele>
        <time>2017-09-17T11:58:38Z</time>
      </trkpt>
      <trkpt lat="44.1161" lon="7.4928">
        <ele>1699</ele>
        <time>2017-09-17T11:58:39Z</time>
      </trkpt>
      <trkpt lat="44.1161" lon="7.4928">
        <ele>1699</ele>
        <time>2017-09-17T11:58:40Z</time>
      </trkpt>
      <trkpt lat="44.1161" lon="7.4928">
        <ele>1699</ele>
        <time>2017-09-17T11:58:41Z</time>
      </trkpt>
      <trkpt lat="44.11611" lon="7.4928">
        <ele>1699</ele>
        <time>2017-09-17T11:58:42Z</time>
      </trkpt>
      <trkpt lat="44.11611" lon="7.4928">
        <ele>1699</ele>
        <time>2017-09-17T11:58:43Z</time>
      </trkpt>
      <trkpt lat="44.11611" lon="7.4928">
        <ele>1699</ele>
        <time>2017-09-17T11:58:44Z</time>
      </trkpt>
      <trkpt lat="44.11611" lon="7.4928">
        <ele>1699</ele>
        <time>2017-09-17T11:58:45Z</time>
      </trkpt>
      <trkpt lat="44.11611" lon="7.4928">
        <ele>1699</ele>
        <time>2017-09-17T11:58:46Z</time>
      </trkpt>
      <trkpt lat="44.11611" lon="7.4928">
        <ele>1699</ele>
        <time>2017-09-17T11:58:47Z</time>
      </trkpt>
      <trkpt lat="44.11611" lon="7.4928">
        <ele>1699</ele>
        <time>2017-09-17T11:58:48Z</time>
      </trkpt>
      <trkpt lat="44.11611" lon="7.4928">
        <ele>1699</ele>
        <time>2017-09-17T11:58:49Z</time>
      </trkpt>
      <trkpt lat="44.11611" lon="7.4928">
        <ele>1699</ele>
        <time>2017-09-17T11:58:50Z</time>
      </trkpt>
      <trkpt lat="44.11611" lon="7.4928">
        <ele>1699</ele>
        <time>2017-09-17T11:58:51Z</time>
      </trkpt>
      <trkpt lat="44.11611" lon="7.4928">
        <ele>1699</ele>
        <time>2017-09-17T11:58:52Z</time>
      </trkpt>
      <trkpt lat="44.11611" lon="7.4928">
        <ele>1699</ele>
        <time>2017-09-17T11:58:53Z</time>
      </trkpt>
      <trkpt lat="44.11611" lon="7.4928">
        <ele>1699</ele>
        <time>2017-09-17T11:58:54Z</time>
      </trkpt>
      <trkpt lat="44.11611" lon="7.4928">
        <ele>1699</ele>
        <time>2017-09-17T11:58:55Z</time>
      </trkpt>
      <trkpt lat="44.11611" lon="7.4928">
        <ele>1699</ele>
        <time>2017-09-17T11:58:56Z</time>
      </trkpt>
      <trkpt lat="44.11611" lon="7.4928">
        <ele>1699</ele>
        <time>2017-09-17T11:58:57Z</time>
      </trkpt>
      <trkpt lat="44.11611" lon="7.4928">
        <ele>1699</ele>
        <time>2017-09-17T11:58:58Z</time>
      </trkpt>
      <trkpt lat="44.11611" lon="7.4928">
        <ele>1699</ele>
        <time>2017-09-17T11:58:59Z</time>
      </trkpt>
      <trkpt lat="44.11611" lon="7.49279">
        <ele>1699</ele>
        <time>2017-09-17T11:59:00Z</time>
      </trkpt>
      <trkpt lat="44.11611" lon="7.49279">
        <ele>1699</ele>
        <time>2017-09-17T11:59:01Z</time>
      </trkpt>
      <trkpt lat="44.11611" lon="7.49279">
        <ele>1699</ele>
        <time>2017-09-17T11:59:02Z</time>
      </trkpt>
      <trkpt lat="44.11611" lon="7.49279">
        <ele>1699</ele>
        <time>2017-09-17T11:59:03Z</time>
      </trkpt>
      <trkpt lat="44.11611" lon="7.49279">
        <ele>1699</ele>
        <time>2017-09-17T11:59:04Z</time>
      </trkpt>
      <trkpt lat="44.11611" lon="7.49279">
        <ele>1699</ele>
        <time>2017-09-17T11:59:05Z</time>
      </trkpt>
      <trkpt lat="44.11611" lon="7.49279">
        <ele>1699</ele>
        <time>2017-09-17T11:59:06Z</time>
      </trkpt>
      <trkpt lat="44.11611" lon="7.49279">
        <ele>1699</ele>
        <time>2017-09-17T11:59:07Z</time>
      </trkpt>
      <trkpt lat="44.11611" lon="7.49279">
        <ele>1699</ele>
        <time>2017-09-17T11:59:08Z</time>
      </trkpt>
      <trkpt lat="44.11611" lon="7.49279">
        <ele>1699</ele>
        <time>2017-09-17T11:59:09Z</time>
      </trkpt>
      <trkpt lat="44.11611" lon="7.49279">
        <ele>1699</ele>
        <time>2017-09-17T11:59:10Z</time>
      </trkpt>
      <trkpt lat="44.11611" lon="7.49279">
        <ele>1699</ele>
        <time>2017-09-17T11:59:11Z</time>
      </trkpt>
      <trkpt lat="44.11611" lon="7.49279">
        <ele>1699</ele>
        <time>2017-09-17T11:59:12Z</time>
      </trkpt>
      <trkpt lat="44.11611" lon="7.49279">
        <ele>1699</ele>
        <time>2017-09-17T11:59:13Z</time>
      </trkpt>
      <trkpt lat="44.11611" lon="7.49279">
        <ele>1699</ele>
        <time>2017-09-17T11:59:14Z</time>
      </trkpt>
      <trkpt lat="44.11611" lon="7.49279">
        <ele>1699</ele>
        <time>2017-09-17T11:59:15Z</time>
      </trkpt>
      <trkpt lat="44.11611" lon="7.49279">
        <ele>1699</ele>
        <time>2017-09-17T11:59:16Z</time>
      </trkpt>
      <trkpt lat="44.11611" lon="7.49279">
        <ele>1699</ele>
        <time>2017-09-17T11:59:17Z</time>
      </trkpt>
      <trkpt lat="44.11611" lon="7.49279">
        <ele>1699</ele>
        <time>2017-09-17T11:59:18Z</time>
      </trkpt>
      <trkpt lat="44.11611" lon="7.49279">
        <ele>1699</ele>
        <time>2017-09-17T11:59:19Z</time>
      </trkpt>
      <trkpt lat="44.1161" lon="7.49279">
        <ele>1699</ele>
        <time>2017-09-17T11:59:20Z</time>
      </trkpt>
      <trkpt lat="44.1161" lon="7.49279">
        <ele>1699</ele>
        <time>2017-09-17T11:59:21Z</time>
      </trkpt>
      <trkpt lat="44.1161" lon="7.49279">
        <ele>1699</ele>
        <time>2017-09-17T11:59:22Z</time>
      </trkpt>
      <trkpt lat="44.1161" lon="7.49278">
        <ele>1699</ele>
        <time>2017-09-17T11:59:23Z</time>
      </trkpt>
      <trkpt lat="44.1161" lon="7.49278">
        <ele>1699</ele>
        <time>2017-09-17T11:59:24Z</time>
      </trkpt>
      <trkpt lat="44.1161" lon="7.49278">
        <ele>1699</ele>
        <time>2017-09-17T11:59:25Z</time>
      </trkpt>
      <trkpt lat="44.1161" lon="7.49278">
        <ele>1699</ele>
        <time>2017-09-17T11:59:26Z</time>
      </trkpt>
      <trkpt lat="44.1161" lon="7.49278">
        <ele>1699</ele>
        <time>2017-09-17T11:59:27Z</time>
      </trkpt>
      <trkpt lat="44.1161" lon="7.49279">
        <ele>1699</ele>
        <time>2017-09-17T11:59:28Z</time>
      </trkpt>
      <trkpt lat="44.11611" lon="7.49279">
        <ele>1699</ele>
        <time>2017-09-17T11:59:29Z</time>
      </trkpt>
      <trkpt lat="44.1161" lon="7.49279">
        <ele>1699</ele>
        <time>2017-09-17T11:59:30Z</time>
      </trkpt>
      <trkpt lat="44.1161" lon="7.49279">
        <ele>1699</ele>
        <time>2017-09-17T11:59:31Z</time>
      </trkpt>
      <trkpt lat="44.11611" lon="7.49279">
        <ele>1699</ele>
        <time>2017-09-17T11:59:32Z</time>
      </trkpt>
      <trkpt lat="44.11611" lon="7.49279">
        <ele>1699</ele>
        <time>2017-09-17T11:59:33Z</time>
      </trkpt>
      <trkpt lat="44.11611" lon="7.49279">
        <ele>1699</ele>
        <time>2017-09-17T11:59:34Z</time>
      </trkpt>
      <trkpt lat="44.11611" lon="7.49279">
        <ele>1699</ele>
        <time>2017-09-17T11:59:35Z</time>
      </trkpt>
      <trkpt lat="44.11611" lon="7.49279">
        <ele>1699</ele>
        <time>2017-09-17T11:59:36Z</time>
      </trkpt>
      <trkpt lat="44.11611" lon="7.49279">
        <ele>1699</ele>
        <time>2017-09-17T11:59:37Z</time>
      </trkpt>
      <trkpt lat="44.11611" lon="7.49279">
        <ele>1699</ele>
        <time>2017-09-17T11:59:38Z</time>
      </trkpt>
      <trkpt lat="44.11611" lon="7.49279">
        <ele>1700</ele>
        <time>2017-09-17T11:59:39Z</time>
      </trkpt>
      <trkpt lat="44.11611" lon="7.49278">
        <ele>1700</ele>
        <time>2017-09-17T11:59:40Z</time>
      </trkpt>
      <trkpt lat="44.11611" lon="7.49278">
        <ele>1700</ele>
        <time>2017-09-17T11:59:41Z</time>
      </trkpt>
      <trkpt lat="44.11611" lon="7.49278">
        <ele>1700</ele>
        <time>2017-09-17T11:59:42Z</time>
      </trkpt>
      <trkpt lat="44.11612" lon="7.49278">
        <ele>1700</ele>
        <time>2017-09-17T11:59:43Z</time>
      </trkpt>
      <trkpt lat="44.11612" lon="7.49278">
        <ele>1700</ele>
        <time>2017-09-17T11:59:44Z</time>
      </trkpt>
      <trkpt lat="44.11612" lon="7.49278">
        <ele>1700</ele>
        <time>2017-09-17T11:59:45Z</time>
      </trkpt>
      <trkpt lat="44.11612" lon="7.49278">
        <ele>1700</ele>
        <time>2017-09-17T11:59:46Z</time>
      </trkpt>
      <trkpt lat="44.11612" lon="7.49278">
        <ele>1700</ele>
        <time>2017-09-17T11:59:47Z</time>
      </trkpt>
      <trkpt lat="44.11612" lon="7.49278">
        <ele>1700</ele>
        <time>2017-09-17T11:59:48Z</time>
      </trkpt>
      <trkpt lat="44.11612" lon="7.49278">
        <ele>1700</ele>
        <time>2017-09-17T11:59:49Z</time>
      </trkpt>
      <trkpt lat="44.11612" lon="7.49278">
        <ele>1700</ele>
        <time>2017-09-17T11:59:50Z</time>
      </trkpt>
      <trkpt lat="44.11612" lon="7.49278">
        <ele>1700</ele>
        <time>2017-09-17T11:59:51Z</time>
      </trkpt>
      <trkpt lat="44.11612" lon="7.49278">
        <ele>1700</ele>
        <time>2017-09-17T11:59:52Z</time>
      </trkpt>
      <trkpt lat="44.11612" lon="7.49278">
        <ele>1700</ele>
        <time>2017-09-17T11:59:53Z</time>
      </trkpt>
      <trkpt lat="44.11612" lon="7.49278">
        <ele>1700</ele>
        <time>2017-09-17T11:59:54Z</time>
      </trkpt>
      <trkpt lat="44.11612" lon="7.49278">
        <ele>1700</ele>
        <time>2017-09-17T11:59:55Z</time>
      </trkpt>
      <trkpt lat="44.11612" lon="7.49278">
        <ele>1700</ele>
        <time>2017-09-17T11:59:56Z</time>
      </trkpt>
      <trkpt lat="44.11612" lon="7.49278">
        <ele>1700</ele>
        <time>2017-09-17T11:59:57Z</time>
      </trkpt>
      <trkpt lat="44.11612" lon="7.49278">
        <ele>1700</ele>
        <time>2017-09-17T11:59:58Z</time>
      </trkpt>
      <trkpt lat="44.11612" lon="7.49278">
        <ele>1700</ele>
        <time>2017-09-17T11:59:59Z</time>
      </trkpt>
      <trkpt lat="44.11612" lon="7.49278">
        <ele>1700</ele>
        <time>2017-09-17T12:00:00Z</time>
      </trkpt>
      <trkpt lat="44.11612" lon="7.49278">
        <ele>1700</ele>
        <time>2017-09-17T12:00:01Z</time>
      </trkpt>
      <trkpt lat="44.11612" lon="7.49278">
        <ele>1700</ele>
        <time>2017-09-17T12:00:02Z</time>
      </trkpt>
      <trkpt lat="44.11612" lon="7.49278">
        <ele>1700</ele>
        <time>2017-09-17T12:00:03Z</time>
      </trkpt>
      <trkpt lat="44.11611" lon="7.49278">
        <ele>1700</ele>
        <time>2017-09-17T12:00:04Z</time>
      </trkpt>
      <trkpt lat="44.11612" lon="7.49278">
        <ele>1700</ele>
        <time>2017-09-17T12:00:05Z</time>
      </trkpt>
      <trkpt lat="44.11611" lon="7.49278">
        <ele>1700</ele>
        <time>2017-09-17T12:00:06Z</time>
      </trkpt>
      <trkpt lat="44.11611" lon="7.49278">
        <ele>1700</ele>
        <time>2017-09-17T12:00:07Z</time>
      </trkpt>
      <trkpt lat="44.11611" lon="7.49278">
        <ele>1700</ele>
        <time>2017-09-17T12:00:08Z</time>
      </trkpt>
      <trkpt lat="44.11612" lon="7.49279">
        <ele>1700</ele>
        <time>2017-09-17T12:00:09Z</time>
      </trkpt>
      <trkpt lat="44.11611" lon="7.49279">
        <ele>1700</ele>
        <time>2017-09-17T12:00:10Z</time>
      </trkpt>
      <trkpt lat="44.11611" lon="7.49279">
        <ele>1700</ele>
        <time>2017-09-17T12:00:11Z</time>
      </trkpt>
      <trkpt lat="44.11611" lon="7.49279">
        <ele>1700</ele>
        <time>2017-09-17T12:00:12Z</time>
      </trkpt>
      <trkpt lat="44.11611" lon="7.49279">
        <ele>1700</ele>
        <time>2017-09-17T12:00:13Z</time>
      </trkpt>
      <trkpt lat="44.11611" lon="7.49279">
        <ele>1700</ele>
        <time>2017-09-17T12:00:14Z</time>
      </trkpt>
      <trkpt lat="44.11612" lon="7.49279">
        <ele>1700</ele>
        <time>2017-09-17T12:00:15Z</time>
      </trkpt>
      <trkpt lat="44.11612" lon="7.4928">
        <ele>1700</ele>
        <time>2017-09-17T12:00:16Z</time>
      </trkpt>
      <trkpt lat="44.11612" lon="7.4928">
        <ele>1700</ele>
        <time>2017-09-17T12:00:17Z</time>
      </trkpt>
      <trkpt lat="44.11612" lon="7.4928">
        <ele>1700</ele>
        <time>2017-09-17T12:00:18Z</time>
      </trkpt>
      <trkpt lat="44.11612" lon="7.4928">
        <ele>1700</ele>
        <time>2017-09-17T12:00:19Z</time>
      </trkpt>
      <trkpt lat="44.11612" lon="7.4928">
        <ele>1700</ele>
        <time>2017-09-17T12:00:20Z</time>
      </trkpt>
      <trkpt lat="44.11612" lon="7.4928">
        <ele>1700</ele>
        <time>2017-09-17T12:00:21Z</time>
      </trkpt>
      <trkpt lat="44.11612" lon="7.4928">
        <ele>1700</ele>
        <time>2017-09-17T12:00:22Z</time>
      </trkpt>
      <trkpt lat="44.11612" lon="7.4928">
        <ele>1700</ele>
        <time>2017-09-17T12:00:23Z</time>
      </trkpt>
      <trkpt lat="44.11612" lon="7.4928">
        <ele>1700</ele>
        <time>2017-09-17T12:00:24Z</time>
      </trkpt>
      <trkpt lat="44.11612" lon="7.4928">
        <ele>1700</ele>
        <time>2017-09-17T12:00:25Z</time>
      </trkpt>
      <trkpt lat="44.11612" lon="7.4928">
        <ele>1700</ele>
        <time>2017-09-17T12:00:26Z</time>
      </trkpt>
      <trkpt lat="44.11612" lon="7.4928">
        <ele>1700</ele>
        <time>2017-09-17T12:00:27Z</time>
      </trkpt>
      <trkpt lat="44.11612" lon="7.4928">
        <ele>1700</ele>
        <time>2017-09-17T12:00:28Z</time>
      </trkpt>
      <trkpt lat="44.11612" lon="7.4928">
        <ele>1700</ele>
        <time>2017-09-17T12:00:29Z</time>
      </trkpt>
      <trkpt lat="44.11612" lon="7.4928">
        <ele>1700</ele>
        <time>2017-09-17T12:00:30Z</time>
      </trkpt>
      <trkpt lat="44.11612" lon="7.4928">
        <ele>1700</ele>
        <time>2017-09-17T12:00:31Z</time>
      </trkpt>
      <trkpt lat="44.11612" lon="7.4928">
        <ele>1700</ele>
        <time>2017-09-17T12:00:32Z</time>
      </trkpt>
      <trkpt lat="44.11612" lon="7.4928">
        <ele>1700</ele>
        <time>2017-09-17T12:00:33Z</time>
      </trkpt>
      <trkpt lat="44.11612" lon="7.4928">
        <ele>1700</ele>
        <time>2017-09-17T12:00:34Z</time>
      </trkpt>
      <trkpt lat="44.11612" lon="7.4928">
        <ele>1700</ele>
        <time>2017-09-17T12:00:35Z</time>
      </trkpt>
      <trkpt lat="44.11612" lon="7.4928">
        <ele>1700</ele>
        <time>2017-09-17T12:00:36Z</time>
      </trkpt>
      <trkpt lat="44.11612" lon="7.4928">
        <ele>1700</ele>
        <time>2017-09-17T12:00:37Z</time>
      </trkpt>
      <trkpt lat="44.11612" lon="7.4928">
        <ele>1700</ele>
        <time>2017-09-17T12:00:38Z</time>
      </trkpt>
      <trkpt lat="44.11612" lon="7.4928">
        <ele>1700</ele>
        <time>2017-09-17T12:00:39Z</time>
      </trkpt>
      <trkpt lat="44.11612" lon="7.4928">
        <ele>1700</ele>
        <time>2017-09-17T12:00:40Z</time>
      </trkpt>
      <trkpt lat="44.11612" lon="7.4928">
        <ele>1700</ele>
        <time>2017-09-17T12:00:41Z</time>
      </trkpt>
      <trkpt lat="44.11611" lon="7.4928">
        <ele>1700</ele>
        <time>2017-09-17T12:00:42Z</time>
      </trkpt>
      <trkpt lat="44.11612" lon="7.4928">
        <ele>1700</ele>
        <time>2017-09-17T12:00:43Z</time>
      </trkpt>
      <trkpt lat="44.11611" lon="7.4928">
        <ele>1700</ele>
        <time>2017-09-17T12:00:44Z</time>
      </trkpt>
      <trkpt lat="44.11611" lon="7.4928">
        <ele>1700</ele>
        <time>2017-09-17T12:00:45Z</time>
      </trkpt>
      <trkpt lat="44.11611" lon="7.4928">
        <ele>1700</ele>
        <time>2017-09-17T12:00:46Z</time>
      </trkpt>
      <trkpt lat="44.11611" lon="7.4928">
        <ele>1700</ele>
        <time>2017-09-17T12:00:47Z</time>
      </trkpt>
      <trkpt lat="44.11611" lon="7.4928">
        <ele>1700</ele>
        <time>2017-09-17T12:00:48Z</time>
      </trkpt>
      <trkpt lat="44.11611" lon="7.4928">
        <ele>1700</ele>
        <time>2017-09-17T12:00:49Z</time>
      </trkpt>
      <trkpt lat="44.11611" lon="7.4928">
        <ele>1700</ele>
        <time>2017-09-17T12:00:50Z</time>
      </trkpt>
      <trkpt lat="44.11611" lon="7.4928">
        <ele>1700</ele>
        <time>2017-09-17T12:00:51Z</time>
      </trkpt>
      <trkpt lat="44.11611" lon="7.49279">
        <ele>1700</ele>
        <time>2017-09-17T12:00:52Z</time>
      </trkpt>
      <trkpt lat="44.11611" lon="7.49279">
        <ele>1700</ele>
        <time>2017-09-17T12:00:53Z</time>
      </trkpt>
      <trkpt lat="44.11611" lon="7.49279">
        <ele>1700</ele>
        <time>2017-09-17T12:00:54Z</time>
      </trkpt>
      <trkpt lat="44.11611" lon="7.4928">
        <ele>1700</ele>
        <time>2017-09-17T12:00:55Z</time>
      </trkpt>
      <trkpt lat="44.11611" lon="7.4928">
        <ele>1700</ele>
        <time>2017-09-17T12:00:56Z</time>
      </trkpt>
      <trkpt lat="44.1161" lon="7.4928">
        <ele>1700</ele>
        <time>2017-09-17T12:00:57Z</time>
      </trkpt>
      <trkpt lat="44.1161" lon="7.49279">
        <ele>1700</ele>
        <time>2017-09-17T12:00:58Z</time>
      </trkpt>
      <trkpt lat="44.1161" lon="7.49279">
        <ele>1700</ele>
        <time>2017-09-17T12:00:59Z</time>
      </trkpt>
      <trkpt lat="44.1161" lon="7.49279">
        <ele>1700</ele>
        <time>2017-09-17T12:01:00Z</time>
      </trkpt>
      <trkpt lat="44.1161" lon="7.49279">
        <ele>1700</ele>
        <time>2017-09-17T12:01:01Z</time>
      </trkpt>
      <trkpt lat="44.1161" lon="7.49279">
        <ele>1700</ele>
        <time>2017-09-17T12:01:02Z</time>
      </trkpt>
      <trkpt lat="44.1161" lon="7.49279">
        <ele>1700</ele>
        <time>2017-09-17T12:01:03Z</time>
      </trkpt>
      <trkpt lat="44.1161" lon="7.49279">
        <ele>1700</ele>
        <time>2017-09-17T12:01:04Z</time>
      </trkpt>
      <trkpt lat="44.1161" lon="7.49279">
        <ele>1700</ele>
        <time>2017-09-17T12:01:05Z</time>
      </trkpt>
      <trkpt lat="44.1161" lon="7.49279">
        <ele>1700</ele>
        <time>2017-09-17T12:01:06Z</time>
      </trkpt>
      <trkpt lat="44.1161" lon="7.49279">
        <ele>1700</ele>
        <time>2017-09-17T12:01:07Z</time>
      </trkpt>
      <trkpt lat="44.1161" lon="7.49279">
        <ele>1700</ele>
        <time>2017-09-17T12:01:08Z</time>
      </trkpt>
      <trkpt lat="44.1161" lon="7.49279">
        <ele>1700</ele>
        <time>2017-09-17T12:01:09Z</time>
      </trkpt>
      <trkpt lat="44.1161" lon="7.49279">
        <ele>1700</ele>
        <time>2017-09-17T12:01:10Z</time>
      </trkpt>
      <trkpt lat="44.1161" lon="7.49279">
        <ele>1700</ele>
        <time>2017-09-17T12:01:11Z</time>
      </trkpt>
      <trkpt lat="44.1161" lon="7.49279">
        <ele>1700</ele>
        <time>2017-09-17T12:01:12Z</time>
      </trkpt>
      <trkpt lat="44.11609" lon="7.49279">
        <ele>1700</ele>
        <time>2017-09-17T12:01:13Z</time>
      </trkpt>
      <trkpt lat="44.11609" lon="7.49278">
        <ele>1700</ele>
        <time>2017-09-17T12:01:14Z</time>
      </trkpt>
      <trkpt lat="44.11609" lon="7.49279">
        <ele>1700</ele>
        <time>2017-09-17T12:01:15Z</time>
      </trkpt>
      <trkpt lat="44.11609" lon="7.49279">
        <ele>1700</ele>
        <time>2017-09-17T12:01:16Z</time>
      </trkpt>
      <trkpt lat="44.11609" lon="7.49279">
        <ele>1700</ele>
        <time>2017-09-17T12:01:17Z</time>
      </trkpt>
      <trkpt lat="44.11609" lon="7.49279">
        <ele>1700</ele>
        <time>2017-09-17T12:01:18Z</time>
      </trkpt>
      <trkpt lat="44.11609" lon="7.49279">
        <ele>1700</ele>
        <time>2017-09-17T12:01:19Z</time>
      </trkpt>
      <trkpt lat="44.11609" lon="7.49279">
        <ele>1700</ele>
        <time>2017-09-17T12:01:20Z</time>
      </trkpt>
      <trkpt lat="44.11609" lon="7.49279">
        <ele>1700</ele>
        <time>2017-09-17T12:01:21Z</time>
      </trkpt>
      <trkpt lat="44.11609" lon="7.49279">
        <ele>1700</ele>
        <time>2017-09-17T12:01:22Z</time>
      </trkpt>
      <trkpt lat="44.11609" lon="7.49279">
        <ele>1700</ele>
        <time>2017-09-17T12:01:23Z</time>
      </trkpt>
      <trkpt lat="44.11609" lon="7.49279">
        <ele>1700</ele>
        <time>2017-09-17T12:01:24Z</time>
      </trkpt>
      <trkpt lat="44.11609" lon="7.49279">
        <ele>1700</ele>
        <time>2017-09-17T12:01:25Z</time>
      </trkpt>
      <trkpt lat="44.11609" lon="7.49279">
        <ele>1700</ele>
        <time>2017-09-17T12:01:26Z</time>
      </trkpt>
      <trkpt lat="44.11609" lon="7.49279">
        <ele>1700</ele>
        <time>2017-09-17T12:01:27Z</time>
      </trkpt>
      <trkpt lat="44.11609" lon="7.49279">
        <ele>1700</ele>
        <time>2017-09-17T12:01:28Z</time>
      </trkpt>
      <trkpt lat="44.11609" lon="7.49279">
        <ele>1700</ele>
        <time>2017-09-17T12:01:29Z</time>
      </trkpt>
      <trkpt lat="44.11609" lon="7.49279">
        <ele>1700</ele>
        <time>2017-09-17T12:01:30Z</time>
      </trkpt>
      <trkpt lat="44.11609" lon="7.49279">
        <ele>1700</ele>
        <time>2017-09-17T12:01:31Z</time>
      </trkpt>
      <trkpt lat="44.11609" lon="7.49279">
        <ele>1700</ele>
        <time>2017-09-17T12:01:32Z</time>
      </trkpt>
      <trkpt lat="44.11609" lon="7.49279">
        <ele>1700</ele>
        <time>2017-09-17T12:01:33Z</time>
      </trkpt>
      <trkpt lat="44.11609" lon="7.49279">
        <ele>1700</ele>
        <time>2017-09-17T12:01:34Z</time>
      </trkpt>
      <trkpt lat="44.11609" lon="7.49278">
        <ele>1700</ele>
        <time>2017-09-17T12:01:35Z</time>
      </trkpt>
      <trkpt lat="44.11609" lon="7.49278">
        <ele>1700</ele>
        <time>2017-09-17T12:01:36Z</time>
      </trkpt>
      <trkpt lat="44.11609" lon="7.49278">
        <ele>1700</ele>
        <time>2017-09-17T12:01:37Z</time>
      </trkpt>
      <trkpt lat="44.11608" lon="7.49278">
        <ele>1700</ele>
        <time>2017-09-17T12:01:38Z</time>
      </trkpt>
      <trkpt lat="44.11608" lon="7.49278">
        <ele>1700</ele>
        <time>2017-09-17T12:01:39Z</time>
      </trkpt>
      <trkpt lat="44.11608" lon="7.49278">
        <ele>1700</ele>
        <time>2017-09-17T12:01:40Z</time>
      </trkpt>
      <trkpt lat="44.11609" lon="7.49278">
        <ele>1700</ele>
        <time>2017-09-17T12:01:41Z</time>
      </trkpt>
      <trkpt lat="44.11608" lon="7.49277">
        <ele>1701</ele>
        <time>2017-09-17T12:01:42Z</time>
      </trkpt>
      <trkpt lat="44.11608" lon="7.49277">
        <ele>1701</ele>
        <time>2017-09-17T12:01:43Z</time>
      </trkpt>
      <trkpt lat="44.11608" lon="7.49277">
        <ele>1701</ele>
        <time>2017-09-17T12:01:44Z</time>
      </trkpt>
      <trkpt lat="44.11608" lon="7.49277">
        <ele>1701</ele>
        <time>2017-09-17T12:01:45Z</time>
      </trkpt>
      <trkpt lat="44.11608" lon="7.49277">
        <ele>1701</ele>
        <time>2017-09-17T12:01:46Z</time>
      </trkpt>
      <trkpt lat="44.11608" lon="7.49277">
        <ele>1701</ele>
        <time>2017-09-17T12:01:47Z</time>
      </trkpt>
      <trkpt lat="44.11608" lon="7.49277">
        <ele>1701</ele>
        <time>2017-09-17T12:01:48Z</time>
      </trkpt>
      <trkpt lat="44.11608" lon="7.49277">
        <ele>1701</ele>
        <time>2017-09-17T12:01:49Z</time>
      </trkpt>
      <trkpt lat="44.11607" lon="7.49277">
        <ele>1701</ele>
        <time>2017-09-17T12:01:50Z</time>
      </trkpt>
      <trkpt lat="44.11607" lon="7.49277">
        <ele>1701</ele>
        <time>2017-09-17T12:01:51Z</time>
      </trkpt>
      <trkpt lat="44.11607" lon="7.49277">
        <ele>1701</ele>
        <time>2017-09-17T12:01:52Z</time>
      </trkpt>
      <trkpt lat="44.11607" lon="7.49277">
        <ele>1701</ele>
        <time>2017-09-17T12:01:53Z</time>
      </trkpt>
      <trkpt lat="44.11607" lon="7.49277">
        <ele>1701</ele>
        <time>2017-09-17T12:01:54Z</time>
      </trkpt>
      <trkpt lat="44.11607" lon="7.49277">
        <ele>1701</ele>
        <time>2017-09-17T12:01:55Z</time>
      </trkpt>
      <trkpt lat="44.11607" lon="7.49277">
        <ele>1701</ele>
        <time>2017-09-17T12:01:56Z</time>
      </trkpt>
      <trkpt lat="44.11607" lon="7.49278">
        <ele>1701</ele>
        <time>2017-09-17T12:01:57Z</time>
      </trkpt>
      <trkpt lat="44.11607" lon="7.49278">
        <ele>1700</ele>
        <time>2017-09-17T12:01:58Z</time>
      </trkpt>
      <trkpt lat="44.11607" lon="7.49278">
        <ele>1700</ele>
        <time>2017-09-17T12:01:59Z</time>
      </trkpt>
      <trkpt lat="44.11607" lon="7.49277">
        <ele>1700</ele>
        <time>2017-09-17T12:02:00Z</time>
      </trkpt>
      <trkpt lat="44.11607" lon="7.49277">
        <ele>1700</ele>
        <time>2017-09-17T12:02:01Z</time>
      </trkpt>
      <trkpt lat="44.11607" lon="7.49277">
        <ele>1700</ele>
        <time>2017-09-17T12:02:02Z</time>
      </trkpt>
      <trkpt lat="44.11607" lon="7.49277">
        <ele>1700</ele>
        <time>2017-09-17T12:02:03Z</time>
      </trkpt>
      <trkpt lat="44.11607" lon="7.49277">
        <ele>1700</ele>
        <time>2017-09-17T12:02:04Z</time>
      </trkpt>
      <trkpt lat="44.11607" lon="7.49277">
        <ele>1700</ele>
        <time>2017-09-17T12:02:05Z</time>
      </trkpt>
      <trkpt lat="44.11607" lon="7.49278">
        <ele>1700</ele>
        <time>2017-09-17T12:02:06Z</time>
      </trkpt>
      <trkpt lat="44.11606" lon="7.49278">
        <ele>1700</ele>
        <time>2017-09-17T12:02:07Z</time>
      </trkpt>
      <trkpt lat="44.11606" lon="7.49278">
        <ele>1700</ele>
        <time>2017-09-17T12:02:08Z</time>
      </trkpt>
      <trkpt lat="44.11606" lon="7.49277">
        <ele>1700</ele>
        <time>2017-09-17T12:02:09Z</time>
      </trkpt>
      <trkpt lat="44.11606" lon="7.49278">
        <ele>1700</ele>
        <time>2017-09-17T12:02:10Z</time>
      </trkpt>
      <trkpt lat="44.11607" lon="7.49278">
        <ele>1700</ele>
        <time>2017-09-17T12:02:11Z</time>
      </trkpt>
      <trkpt lat="44.11607" lon="7.49278">
        <ele>1700</ele>
        <time>2017-09-17T12:02:12Z</time>
      </trkpt>
      <trkpt lat="44.11607" lon="7.49278">
        <ele>1700</ele>
        <time>2017-09-17T12:02:13Z</time>
      </trkpt>
      <trkpt lat="44.11607" lon="7.49278">
        <ele>1700</ele>
        <time>2017-09-17T12:02:14Z</time>
      </trkpt>
      <trkpt lat="44.11607" lon="7.49278">
        <ele>1700</ele>
        <time>2017-09-17T12:02:15Z</time>
      </trkpt>
      <trkpt lat="44.11606" lon="7.49278">
        <ele>1700</ele>
        <time>2017-09-17T12:02:16Z</time>
      </trkpt>
      <trkpt lat="44.11606" lon="7.49278">
        <ele>1700</ele>
        <time>2017-09-17T12:02:17Z</time>
      </trkpt>
      <trkpt lat="44.11606" lon="7.49278">
        <ele>1700</ele>
        <time>2017-09-17T12:02:18Z</time>
      </trkpt>
      <trkpt lat="44.11606" lon="7.49278">
        <ele>1700</ele>
        <time>2017-09-17T12:02:19Z</time>
      </trkpt>
      <trkpt lat="44.11606" lon="7.49278">
        <ele>1700</ele>
        <time>2017-09-17T12:02:20Z</time>
      </trkpt>
      <trkpt lat="44.11606" lon="7.49278">
        <ele>1700</ele>
        <time>2017-09-17T12:02:21Z</time>
      </trkpt>
      <trkpt lat="44.11606" lon="7.49277">
        <ele>1700</ele>
        <time>2017-09-17T12:02:22Z</time>
      </trkpt>
      <trkpt lat="44.11606" lon="7.49277">
        <ele>1700</ele>
        <time>2017-09-17T12:02:23Z</time>
      </trkpt>
      <trkpt lat="44.11606" lon="7.49277">
        <ele>1700</ele>
        <time>2017-09-17T12:02:24Z</time>
      </trkpt>
      <trkpt lat="44.11606" lon="7.49277">
        <ele>1700</ele>
        <time>2017-09-17T12:02:25Z</time>
      </trkpt>
      <trkpt lat="44.11606" lon="7.49277">
        <ele>1700</ele>
        <time>2017-09-17T12:02:26Z</time>
      </trkpt>
      <trkpt lat="44.11606" lon="7.49277">
        <ele>1700</ele>
        <time>2017-09-17T12:02:27Z</time>
      </trkpt>
      <trkpt lat="44.11607" lon="7.49277">
        <ele>1700</ele>
        <time>2017-09-17T12:02:28Z</time>
      </trkpt>
      <trkpt lat="44.11608" lon="7.49276">
        <ele>1700</ele>
        <time>2017-09-17T12:02:29Z</time>
      </trkpt>
      <trkpt lat="44.11608" lon="7.49275">
        <ele>1700</ele>
        <time>2017-09-17T12:02:30Z</time>
      </trkpt>
      <trkpt lat="44.11608" lon="7.49275">
        <ele>1700</ele>
        <time>2017-09-17T12:02:31Z</time>
      </trkpt>
      <trkpt lat="44.11608" lon="7.49275">
        <ele>1700</ele>
        <time>2017-09-17T12:02:32Z</time>
      </trkpt>
      <trkpt lat="44.11608" lon="7.49275">
        <ele>1700</ele>
        <time>2017-09-17T12:02:33Z</time>
      </trkpt>
      <trkpt lat="44.11607" lon="7.49275">
        <ele>1700</ele>
        <time>2017-09-17T12:02:34Z</time>
      </trkpt>
      <trkpt lat="44.11607" lon="7.49275">
        <ele>1699</ele>
        <time>2017-09-17T12:02:35Z</time>
      </trkpt>
      <trkpt lat="44.11607" lon="7.49275">
        <ele>1699</ele>
        <time>2017-09-17T12:02:36Z</time>
      </trkpt>
      <trkpt lat="44.11607" lon="7.49275">
        <ele>1699</ele>
        <time>2017-09-17T12:02:37Z</time>
      </trkpt>
      <trkpt lat="44.11607" lon="7.49275">
        <ele>1699</ele>
        <time>2017-09-17T12:02:38Z</time>
      </trkpt>
      <trkpt lat="44.11607" lon="7.49275">
        <ele>1699</ele>
        <time>2017-09-17T12:02:39Z</time>
      </trkpt>
      <trkpt lat="44.11607" lon="7.49275">
        <ele>1699</ele>
        <time>2017-09-17T12:02:40Z</time>
      </trkpt>
      <trkpt lat="44.11607" lon="7.49275">
        <ele>1699</ele>
        <time>2017-09-17T12:02:41Z</time>
      </trkpt>
      <trkpt lat="44.11607" lon="7.49275">
        <ele>1699</ele>
        <time>2017-09-17T12:02:42Z</time>
      </trkpt>
      <trkpt lat="44.11607" lon="7.49276">
        <ele>1700</ele>
        <time>2017-09-17T12:02:43Z</time>
      </trkpt>
      <trkpt lat="44.11607" lon="7.49276">
        <ele>1700</ele>
        <time>2017-09-17T12:02:44Z</time>
      </trkpt>
      <trkpt lat="44.11607" lon="7.49276">
        <ele>1700</ele>
        <time>2017-09-17T12:02:45Z</time>
      </trkpt>
      <trkpt lat="44.11607" lon="7.49276">
        <ele>1700</ele>
        <time>2017-09-17T12:02:46Z</time>
      </trkpt>
      <trkpt lat="44.11607" lon="7.49276">
        <ele>1700</ele>
        <time>2017-09-17T12:02:47Z</time>
      </trkpt>
      <trkpt lat="44.11607" lon="7.49276">
        <ele>1700</ele>
        <time>2017-09-17T12:02:48Z</time>
      </trkpt>
      <trkpt lat="44.11607" lon="7.49276">
        <ele>1700</ele>
        <time>2017-09-17T12:02:49Z</time>
      </trkpt>
      <trkpt lat="44.11607" lon="7.49276">
        <ele>1700</ele>
        <time>2017-09-17T12:02:50Z</time>
      </trkpt>
      <trkpt lat="44.11607" lon="7.49277">
        <ele>1700</ele>
        <time>2017-09-17T12:02:51Z</time>
      </trkpt>
      <trkpt lat="44.11607" lon="7.49277">
        <ele>1700</ele>
        <time>2017-09-17T12:02:52Z</time>
      </trkpt>
      <trkpt lat="44.11607" lon="7.49277">
        <ele>1700</ele>
        <time>2017-09-17T12:02:53Z</time>
      </trkpt>
      <trkpt lat="44.11607" lon="7.49277">
        <ele>1700</ele>
        <time>2017-09-17T12:02:54Z</time>
      </trkpt>
      <trkpt lat="44.11607" lon="7.49277">
        <ele>1700</ele>
        <time>2017-09-17T12:02:55Z</time>
      </trkpt>
      <trkpt lat="44.11607" lon="7.49277">
        <ele>1700</ele>
        <time>2017-09-17T12:02:56Z</time>
      </trkpt>
      <trkpt lat="44.11607" lon="7.49277">
        <ele>1700</ele>
        <time>2017-09-17T12:02:57Z</time>
      </trkpt>
      <trkpt lat="44.11607" lon="7.49278">
        <ele>1700</ele>
        <time>2017-09-17T12:02:58Z</time>
      </trkpt>
      <trkpt lat="44.11607" lon="7.49278">
        <ele>1700</ele>
        <time>2017-09-17T12:02:59Z</time>
      </trkpt>
      <trkpt lat="44.11607" lon="7.49278">
        <ele>1700</ele>
        <time>2017-09-17T12:03:00Z</time>
      </trkpt>
      <trkpt lat="44.11607" lon="7.49278">
        <ele>1700</ele>
        <time>2017-09-17T12:03:01Z</time>
      </trkpt>
      <trkpt lat="44.11607" lon="7.49278">
        <ele>1700</ele>
        <time>2017-09-17T12:03:02Z</time>
      </trkpt>
      <trkpt lat="44.11607" lon="7.49278">
        <ele>1700</ele>
        <time>2017-09-17T12:03:03Z</time>
      </trkpt>
      <trkpt lat="44.11607" lon="7.49278">
        <ele>1700</ele>
        <time>2017-09-17T12:03:04Z</time>
      </trkpt>
      <trkpt lat="44.11607" lon="7.49278">
        <ele>1699</ele>
        <time>2017-09-17T12:03:05Z</time>
      </trkpt>
      <trkpt lat="44.11607" lon="7.49278">
        <ele>1699</ele>
        <time>2017-09-17T12:03:06Z</time>
      </trkpt>
      <trkpt lat="44.11607" lon="7.49278">
        <ele>1699</ele>
        <time>2017-09-17T12:03:07Z</time>
      </trkpt>
      <trkpt lat="44.11607" lon="7.49279">
        <ele>1699</ele>
        <time>2017-09-17T12:03:08Z</time>
      </trkpt>
      <trkpt lat="44.11607" lon="7.49279">
        <ele>1699</ele>
        <time>2017-09-17T12:03:09Z</time>
      </trkpt>
      <trkpt lat="44.11608" lon="7.49279">
        <ele>1699</ele>
        <time>2017-09-17T12:03:10Z</time>
      </trkpt>
      <trkpt lat="44.11608" lon="7.49279">
        <ele>1699</ele>
        <time>2017-09-17T12:03:11Z</time>
      </trkpt>
      <trkpt lat="44.11608" lon="7.49279">
        <ele>1699</ele>
        <time>2017-09-17T12:03:12Z</time>
      </trkpt>
      <trkpt lat="44.11608" lon="7.49279">
        <ele>1699</ele>
        <time>2017-09-17T12:03:13Z</time>
      </trkpt>
      <trkpt lat="44.11608" lon="7.49279">
        <ele>1699</ele>
        <time>2017-09-17T12:03:14Z</time>
      </trkpt>
      <trkpt lat="44.11608" lon="7.49279">
        <ele>1699</ele>
        <time>2017-09-17T12:03:15Z</time>
      </trkpt>
      <trkpt lat="44.11608" lon="7.49279">
        <ele>1699</ele>
        <time>2017-09-17T12:03:16Z</time>
      </trkpt>
      <trkpt lat="44.11608" lon="7.49279">
        <ele>1699</ele>
        <time>2017-09-17T12:03:17Z</time>
      </trkpt>
      <trkpt lat="44.11608" lon="7.49279">
        <ele>1699</ele>
        <time>2017-09-17T12:03:18Z</time>
      </trkpt>
      <trkpt lat="44.11608" lon="7.49279">
        <ele>1699</ele>
        <time>2017-09-17T12:03:19Z</time>
      </trkpt>
      <trkpt lat="44.11608" lon="7.49279">
        <ele>1699</ele>
        <time>2017-09-17T12:03:20Z</time>
      </trkpt>
      <trkpt lat="44.11608" lon="7.4928">
        <ele>1699</ele>
        <time>2017-09-17T12:03:21Z</time>
      </trkpt>
      <trkpt lat="44.11608" lon="7.4928">
        <ele>1699</ele>
        <time>2017-09-17T12:03:22Z</time>
      </trkpt>
      <trkpt lat="44.11608" lon="7.4928">
        <ele>1699</ele>
        <time>2017-09-17T12:03:23Z</time>
      </trkpt>
      <trkpt lat="44.11608" lon="7.4928">
        <ele>1699</ele>
        <time>2017-09-17T12:03:24Z</time>
      </trkpt>
      <trkpt lat="44.11608" lon="7.4928">
        <ele>1699</ele>
        <time>2017-09-17T12:03:25Z</time>
      </trkpt>
      <trkpt lat="44.11608" lon="7.4928">
        <ele>1699</ele>
        <time>2017-09-17T12:03:26Z</time>
      </trkpt>
      <trkpt lat="44.11608" lon="7.4928">
        <ele>1699</ele>
        <time>2017-09-17T12:03:27Z</time>
      </trkpt>
      <trkpt lat="44.11608" lon="7.4928">
        <ele>1699</ele>
        <time>2017-09-17T12:03:28Z</time>
      </trkpt>
      <trkpt lat="44.11608" lon="7.4928">
        <ele>1699</ele>
        <time>2017-09-17T12:03:29Z</time>
      </trkpt>
      <trkpt lat="44.11608" lon="7.4928">
        <ele>1699</ele>
        <time>2017-09-17T12:03:30Z</time>
      </trkpt>
      <trkpt lat="44.11608" lon="7.4928">
        <ele>1699</ele>
        <time>2017-09-17T12:03:31Z</time>
      </trkpt>
      <trkpt lat="44.11608" lon="7.4928">
        <ele>1699</ele>
        <time>2017-09-17T12:03:32Z</time>
      </trkpt>
      <trkpt lat="44.11608" lon="7.4928">
        <ele>1699</ele>
        <time>2017-09-17T12:03:33Z</time>
      </trkpt>
      <trkpt lat="44.11608" lon="7.4928">
        <ele>1699</ele>
        <time>2017-09-17T12:03:34Z</time>
      </trkpt>
      <trkpt lat="44.11608" lon="7.4928">
        <ele>1699</ele>
        <time>2017-09-17T12:03:35Z</time>
      </trkpt>
      <trkpt lat="44.11608" lon="7.4928">
        <ele>1699</ele>
        <time>2017-09-17T12:03:36Z</time>
      </trkpt>
      <trkpt lat="44.11608" lon="7.4928">
        <ele>1699</ele>
        <time>2017-09-17T12:03:37Z</time>
      </trkpt>
      <trkpt lat="44.11608" lon="7.49281">
        <ele>1699</ele>
        <time>2017-09-17T12:03:38Z</time>
      </trkpt>
      <trkpt lat="44.11608" lon="7.49281">
        <ele>1699</ele>
        <time>2017-09-17T12:03:39Z</time>
      </trkpt>
      <trkpt lat="44.11608" lon="7.4928">
        <ele>1699</ele>
        <time>2017-09-17T12:03:40Z</time>
      </trkpt>
      <trkpt lat="44.11608" lon="7.4928">
        <ele>1699</ele>
        <time>2017-09-17T12:03:41Z</time>
      </trkpt>
      <trkpt lat="44.11608" lon="7.4928">
        <ele>1699</ele>
        <time>2017-09-17T12:03:42Z</time>
      </trkpt>
      <trkpt lat="44.11608" lon="7.49281">
        <ele>1699</ele>
        <time>2017-09-17T12:03:43Z</time>
      </trkpt>
      <trkpt lat="44.11609" lon="7.49281">
        <ele>1699</ele>
        <time>2017-09-17T12:03:44Z</time>
      </trkpt>
      <trkpt lat="44.11609" lon="7.49282">
        <ele>1699</ele>
        <time>2017-09-17T12:03:45Z</time>
      </trkpt>
      <trkpt lat="44.11609" lon="7.49282">
        <ele>1699</ele>
        <time>2017-09-17T12:03:46Z</time>
      </trkpt>
      <trkpt lat="44.11608" lon="7.49283">
        <ele>1700</ele>
        <time>2017-09-17T12:03:47Z</time>
      </trkpt>
      <trkpt lat="44.11608" lon="7.49283">
        <ele>1700</ele>
        <time>2017-09-17T12:03:48Z</time>
      </trkpt>
      <trkpt lat="44.11608" lon="7.49283">
        <ele>1700</ele>
        <time>2017-09-17T12:03:49Z</time>
      </trkpt>
      <trkpt lat="44.11608" lon="7.49283">
        <ele>1699</ele>
        <time>2017-09-17T12:03:50Z</time>
      </trkpt>
      <trkpt lat="44.11607" lon="7.49283">
        <ele>1699</ele>
        <time>2017-09-17T12:03:51Z</time>
      </trkpt>
      <trkpt lat="44.11608" lon="7.49283">
        <ele>1699</ele>
        <time>2017-09-17T12:03:52Z</time>
      </trkpt>
      <trkpt lat="44.11608" lon="7.49283">
        <ele>1699</ele>
        <time>2017-09-17T12:03:53Z</time>
      </trkpt>
      <trkpt lat="44.11608" lon="7.49283">
        <ele>1699</ele>
        <time>2017-09-17T12:03:54Z</time>
      </trkpt>
      <trkpt lat="44.11608" lon="7.49283">
        <ele>1699</ele>
        <time>2017-09-17T12:03:55Z</time>
      </trkpt>
      <trkpt lat="44.11608" lon="7.49283">
        <ele>1699</ele>
        <time>2017-09-17T12:03:56Z</time>
      </trkpt>
      <trkpt lat="44.11608" lon="7.49283">
        <ele>1699</ele>
        <time>2017-09-17T12:03:57Z</time>
      </trkpt>
      <trkpt lat="44.11608" lon="7.49283">
        <ele>1699</ele>
        <time>2017-09-17T12:03:58Z</time>
      </trkpt>
      <trkpt lat="44.11608" lon="7.49283">
        <ele>1699</ele>
        <time>2017-09-17T12:03:59Z</time>
      </trkpt>
      <trkpt lat="44.11608" lon="7.49282">
        <ele>1699</ele>
        <time>2017-09-17T12:04:00Z</time>
      </trkpt>
      <trkpt lat="44.11607" lon="7.49282">
        <ele>1699</ele>
        <time>2017-09-17T12:04:01Z</time>
      </trkpt>
      <trkpt lat="44.11607" lon="7.49283">
        <ele>1699</ele>
        <time>2017-09-17T12:04:02Z</time>
      </trkpt>
      <trkpt lat="44.11607" lon="7.49282">
        <ele>1699</ele>
        <time>2017-09-17T12:04:03Z</time>
      </trkpt>
      <trkpt lat="44.11607" lon="7.49282">
        <ele>1699</ele>
        <time>2017-09-17T12:04:04Z</time>
      </trkpt>
      <trkpt lat="44.11607" lon="7.49282">
        <ele>1699</ele>
        <time>2017-09-17T12:04:05Z</time>
      </trkpt>
      <trkpt lat="44.11607" lon="7.49282">
        <ele>1698</ele>
        <time>2017-09-17T12:04:06Z</time>
      </trkpt>
      <trkpt lat="44.11607" lon="7.49282">
        <ele>1698</ele>
        <time>2017-09-17T12:04:07Z</time>
      </trkpt>
      <trkpt lat="44.11607" lon="7.49282">
        <ele>1698</ele>
        <time>2017-09-17T12:04:08Z</time>
      </trkpt>
      <trkpt lat="44.11607" lon="7.49282">
        <ele>1698</ele>
        <time>2017-09-17T12:04:09Z</time>
      </trkpt>
      <trkpt lat="44.11607" lon="7.49282">
        <ele>1698</ele>
        <time>2017-09-17T12:04:10Z</time>
      </trkpt>
      <trkpt lat="44.11607" lon="7.49282">
        <ele>1698</ele>
        <time>2017-09-17T12:04:11Z</time>
      </trkpt>
      <trkpt lat="44.11607" lon="7.49282">
        <ele>1698</ele>
        <time>2017-09-17T12:04:12Z</time>
      </trkpt>
      <trkpt lat="44.11607" lon="7.49282">
        <ele>1698</ele>
        <time>2017-09-17T12:04:13Z</time>
      </trkpt>
      <trkpt lat="44.11607" lon="7.49281">
        <ele>1698</ele>
        <time>2017-09-17T12:04:14Z</time>
      </trkpt>
      <trkpt lat="44.11607" lon="7.49282">
        <ele>1698</ele>
        <time>2017-09-17T12:04:15Z</time>
      </trkpt>
      <trkpt lat="44.11607" lon="7.49281">
        <ele>1698</ele>
        <time>2017-09-17T12:04:16Z</time>
      </trkpt>
      <trkpt lat="44.11607" lon="7.49281">
        <ele>1698</ele>
        <time>2017-09-17T12:04:17Z</time>
      </trkpt>
      <trkpt lat="44.11606" lon="7.49281">
        <ele>1698</ele>
        <time>2017-09-17T12:04:18Z</time>
      </trkpt>
      <trkpt lat="44.11606" lon="7.49281">
        <ele>1698</ele>
        <time>2017-09-17T12:04:19Z</time>
      </trkpt>
      <trkpt lat="44.11606" lon="7.49281">
        <ele>1697</ele>
        <time>2017-09-17T12:04:20Z</time>
      </trkpt>
      <trkpt lat="44.11606" lon="7.49281">
        <ele>1697</ele>
        <time>2017-09-17T12:04:21Z</time>
      </trkpt>
      <trkpt lat="44.11606" lon="7.49281">
        <ele>1697</ele>
        <time>2017-09-17T12:04:22Z</time>
      </trkpt>
      <trkpt lat="44.11606" lon="7.4928">
        <ele>1697</ele>
        <time>2017-09-17T12:04:23Z</time>
      </trkpt>
      <trkpt lat="44.11606" lon="7.4928">
        <ele>1697</ele>
        <time>2017-09-17T12:04:24Z</time>
      </trkpt>
      <trkpt lat="44.11607" lon="7.4928">
        <ele>1697</ele>
        <time>2017-09-17T12:04:25Z</time>
      </trkpt>
      <trkpt lat="44.11607" lon="7.4928">
        <ele>1697</ele>
        <time>2017-09-17T12:04:26Z</time>
      </trkpt>
      <trkpt lat="44.11607" lon="7.49279">
        <ele>1696</ele>
        <time>2017-09-17T12:04:27Z</time>
      </trkpt>
      <trkpt lat="44.11607" lon="7.49279">
        <ele>1696</ele>
        <time>2017-09-17T12:04:28Z</time>
      </trkpt>
      <trkpt lat="44.11607" lon="7.49279">
        <ele>1696</ele>
        <time>2017-09-17T12:04:29Z</time>
      </trkpt>
      <trkpt lat="44.11607" lon="7.49279">
        <ele>1696</ele>
        <time>2017-09-17T12:04:30Z</time>
      </trkpt>
      <trkpt lat="44.11607" lon="7.49278">
        <ele>1696</ele>
        <time>2017-09-17T12:04:31Z</time>
      </trkpt>
      <trkpt lat="44.11607" lon="7.49278">
        <ele>1696</ele>
        <time>2017-09-17T12:04:32Z</time>
      </trkpt>
      <trkpt lat="44.11607" lon="7.49278">
        <ele>1696</ele>
        <time>2017-09-17T12:04:33Z</time>
      </trkpt>
      <trkpt lat="44.11607" lon="7.49278">
        <ele>1696</ele>
        <time>2017-09-17T12:04:34Z</time>
      </trkpt>
      <trkpt lat="44.11606" lon="7.49278">
        <ele>1696</ele>
        <time>2017-09-17T12:04:35Z</time>
      </trkpt>
      <trkpt lat="44.11606" lon="7.49278">
        <ele>1696</ele>
        <time>2017-09-17T12:04:36Z</time>
      </trkpt>
      <trkpt lat="44.11606" lon="7.49278">
        <ele>1696</ele>
        <time>2017-09-17T12:04:37Z</time>
      </trkpt>
      <trkpt lat="44.11606" lon="7.49278">
        <ele>1696</ele>
        <time>2017-09-17T12:04:38Z</time>
      </trkpt>
      <trkpt lat="44.11606" lon="7.49277">
        <ele>1696</ele>
        <time>2017-09-17T12:04:39Z</time>
      </trkpt>
      <trkpt lat="44.11606" lon="7.49278">
        <ele>1696</ele>
        <time>2017-09-17T12:04:40Z</time>
      </trkpt>
      <trkpt lat="44.11607" lon="7.49278">
        <ele>1696</ele>
        <time>2017-09-17T12:04:41Z</time>
      </trkpt>
      <trkpt lat="44.11608" lon="7.49278">
        <ele>1695</ele>
        <time>2017-09-17T12:04:42Z</time>
      </trkpt>
      <trkpt lat="44.11609" lon="7.49277">
        <ele>1695</ele>
        <time>2017-09-17T12:04:43Z</time>
      </trkpt>
      <trkpt lat="44.11608" lon="7.49276">
        <ele>1695</ele>
        <time>2017-09-17T12:04:44Z</time>
      </trkpt>
      <trkpt lat="44.11608" lon="7.49275">
        <ele>1695</ele>
        <time>2017-09-17T12:04:45Z</time>
      </trkpt>
      <trkpt lat="44.11608" lon="7.49275">
        <ele>1695</ele>
        <time>2017-09-17T12:04:46Z</time>
      </trkpt>
      <trkpt lat="44.11608" lon="7.49275">
        <ele>1695</ele>
        <time>2017-09-17T12:04:47Z</time>
      </trkpt>
      <trkpt lat="44.11608" lon="7.49275">
        <ele>1695</ele>
        <time>2017-09-17T12:04:48Z</time>
      </trkpt>
      <trkpt lat="44.11608" lon="7.49275">
        <ele>1694</ele>
        <time>2017-09-17T12:04:49Z</time>
      </trkpt>
      <trkpt lat="44.11608" lon="7.49275">
        <ele>1694</ele>
        <time>2017-09-17T12:04:50Z</time>
      </trkpt>
      <trkpt lat="44.11608" lon="7.49275">
        <ele>1694</ele>
        <time>2017-09-17T12:04:51Z</time>
      </trkpt>
      <trkpt lat="44.11608" lon="7.49275">
        <ele>1694</ele>
        <time>2017-09-17T12:04:52Z</time>
      </trkpt>
      <trkpt lat="44.11608" lon="7.49274">
        <ele>1694</ele>
        <time>2017-09-17T12:04:53Z</time>
      </trkpt>
      <trkpt lat="44.11608" lon="7.49274">
        <ele>1694</ele>
        <time>2017-09-17T12:04:54Z</time>
      </trkpt>
      <trkpt lat="44.11608" lon="7.49274">
        <ele>1694</ele>
        <time>2017-09-17T12:04:55Z</time>
      </trkpt>
      <trkpt lat="44.11608" lon="7.49274">
        <ele>1694</ele>
        <time>2017-09-17T12:04:56Z</time>
      </trkpt>
      <trkpt lat="44.11608" lon="7.49274">
        <ele>1694</ele>
        <time>2017-09-17T12:04:57Z</time>
      </trkpt>
      <trkpt lat="44.11608" lon="7.49274">
        <ele>1694</ele>
        <time>2017-09-17T12:04:58Z</time>
      </trkpt>
      <trkpt lat="44.11608" lon="7.49274">
        <ele>1694</ele>
        <time>2017-09-17T12:04:59Z</time>
      </trkpt>
      <trkpt lat="44.11608" lon="7.49274">
        <ele>1694</ele>
        <time>2017-09-17T12:05:00Z</time>
      </trkpt>
      <trkpt lat="44.11608" lon="7.49274">
        <ele>1694</ele>
        <time>2017-09-17T12:05:01Z</time>
      </trkpt>
      <trkpt lat="44.11608" lon="7.49274">
        <ele>1694</ele>
        <time>2017-09-17T12:05:02Z</time>
      </trkpt>
      <trkpt lat="44.11608" lon="7.49274">
        <ele>1694</ele>
        <time>2017-09-17T12:05:03Z</time>
      </trkpt>
      <trkpt lat="44.11608" lon="7.49274">
        <ele>1694</ele>
        <time>2017-09-17T12:05:04Z</time>
      </trkpt>
      <trkpt lat="44.11608" lon="7.49274">
        <ele>1694</ele>
        <time>2017-09-17T12:05:05Z</time>
      </trkpt>
      <trkpt lat="44.11608" lon="7.49274">
        <ele>1694</ele>
        <time>2017-09-17T12:05:06Z</time>
      </trkpt>
      <trkpt lat="44.11608" lon="7.49274">
        <ele>1694</ele>
        <time>2017-09-17T12:05:07Z</time>
      </trkpt>
      <trkpt lat="44.11608" lon="7.49274">
        <ele>1694</ele>
        <time>2017-09-17T12:05:08Z</time>
      </trkpt>
      <trkpt lat="44.11608" lon="7.49274">
        <ele>1694</ele>
        <time>2017-09-17T12:05:09Z</time>
      </trkpt>
      <trkpt lat="44.11608" lon="7.49274">
        <ele>1694</ele>
        <time>2017-09-17T12:05:10Z</time>
      </trkpt>
      <trkpt lat="44.11608" lon="7.49274">
        <ele>1694</ele>
        <time>2017-09-17T12:05:11Z</time>
      </trkpt>
      <trkpt lat="44.11608" lon="7.49274">
        <ele>1694</ele>
        <time>2017-09-17T12:05:12Z</time>
      </trkpt>
      <trkpt lat="44.11608" lon="7.49274">
        <ele>1694</ele>
        <time>2017-09-17T12:05:13Z</time>
      </trkpt>
      <trkpt lat="44.11608" lon="7.49274">
        <ele>1694</ele>
        <time>2017-09-17T12:05:14Z</time>
      </trkpt>
      <trkpt lat="44.11608" lon="7.49275">
        <ele>1694</ele>
        <time>2017-09-17T12:05:15Z</time>
      </trkpt>
      <trkpt lat="44.11608" lon="7.49275">
        <ele>1694</ele>
        <time>2017-09-17T12:05:16Z</time>
      </trkpt>
      <trkpt lat="44.11608" lon="7.49275">
        <ele>1694</ele>
        <time>2017-09-17T12:05:17Z</time>
      </trkpt>
      <trkpt lat="44.11608" lon="7.49275">
        <ele>1694</ele>
        <time>2017-09-17T12:05:18Z</time>
      </trkpt>
      <trkpt lat="44.11608" lon="7.49275">
        <ele>1694</ele>
        <time>2017-09-17T12:05:19Z</time>
      </trkpt>
      <trkpt lat="44.11608" lon="7.49275">
        <ele>1694</ele>
        <time>2017-09-17T12:05:20Z</time>
      </trkpt>
      <trkpt lat="44.11608" lon="7.49275">
        <ele>1694</ele>
        <time>2017-09-17T12:05:21Z</time>
      </trkpt>
      <trkpt lat="44.11608" lon="7.49275">
        <ele>1694</ele>
        <time>2017-09-17T12:05:22Z</time>
      </trkpt>
      <trkpt lat="44.11608" lon="7.49275">
        <ele>1694</ele>
        <time>2017-09-17T12:05:23Z</time>
      </trkpt>
      <trkpt lat="44.11607" lon="7.49275">
        <ele>1694</ele>
        <time>2017-09-17T12:05:24Z</time>
      </trkpt>
      <trkpt lat="44.11607" lon="7.49275">
        <ele>1693</ele>
        <time>2017-09-17T12:05:25Z</time>
      </trkpt>
      <trkpt lat="44.11607" lon="7.49275">
        <ele>1693</ele>
        <time>2017-09-17T12:05:26Z</time>
      </trkpt>
      <trkpt lat="44.11607" lon="7.49275">
        <ele>1693</ele>
        <time>2017-09-17T12:05:27Z</time>
      </trkpt>
      <trkpt lat="44.11607" lon="7.49275">
        <ele>1693</ele>
        <time>2017-09-17T12:05:28Z</time>
      </trkpt>
      <trkpt lat="44.11607" lon="7.49276">
        <ele>1693</ele>
        <time>2017-09-17T12:05:29Z</time>
      </trkpt>
      <trkpt lat="44.11607" lon="7.49276">
        <ele>1693</ele>
        <time>2017-09-17T12:05:30Z</time>
      </trkpt>
      <trkpt lat="44.11607" lon="7.49275">
        <ele>1693</ele>
        <time>2017-09-17T12:05:31Z</time>
      </trkpt>
      <trkpt lat="44.11608" lon="7.49276">
        <ele>1693</ele>
        <time>2017-09-17T12:05:32Z</time>
      </trkpt>
      <trkpt lat="44.11608" lon="7.49276">
        <ele>1693</ele>
        <time>2017-09-17T12:05:33Z</time>
      </trkpt>
      <trkpt lat="44.11608" lon="7.49276">
        <ele>1694</ele>
        <time>2017-09-17T12:05:34Z</time>
      </trkpt>
      <trkpt lat="44.11608" lon="7.49276">
        <ele>1694</ele>
        <time>2017-09-17T12:05:35Z</time>
      </trkpt>
      <trkpt lat="44.11609" lon="7.49276">
        <ele>1694</ele>
        <time>2017-09-17T12:05:36Z</time>
      </trkpt>
      <trkpt lat="44.11609" lon="7.49275">
        <ele>1694</ele>
        <time>2017-09-17T12:05:37Z</time>
      </trkpt>
      <trkpt lat="44.11608" lon="7.49275">
        <ele>1694</ele>
        <time>2017-09-17T12:05:38Z</time>
      </trkpt>
      <trkpt lat="44.11608" lon="7.49276">
        <ele>1694</ele>
        <time>2017-09-17T12:05:39Z</time>
      </trkpt>
      <trkpt lat="44.11608" lon="7.49276">
        <ele>1694</ele>
        <time>2017-09-17T12:05:40Z</time>
      </trkpt>
      <trkpt lat="44.11607" lon="7.49276">
        <ele>1694</ele>
        <time>2017-09-17T12:05:41Z</time>
      </trkpt>
      <trkpt lat="44.11607" lon="7.49276">
        <ele>1694</ele>
        <time>2017-09-17T12:05:42Z</time>
      </trkpt>
      <trkpt lat="44.11606" lon="7.49277">
        <ele>1694</ele>
        <time>2017-09-17T12:05:43Z</time>
      </trkpt>
      <trkpt lat="44.11606" lon="7.49276">
        <ele>1694</ele>
        <time>2017-09-17T12:05:44Z</time>
      </trkpt>
      <trkpt lat="44.11607" lon="7.49276">
        <ele>1694</ele>
        <time>2017-09-17T12:05:45Z</time>
      </trkpt>
      <trkpt lat="44.11607" lon="7.49275">
        <ele>1694</ele>
        <time>2017-09-17T12:05:46Z</time>
      </trkpt>
      <trkpt lat="44.11607" lon="7.49275">
        <ele>1694</ele>
        <time>2017-09-17T12:05:47Z</time>
      </trkpt>
      <trkpt lat="44.11607" lon="7.49274">
        <ele>1694</ele>
        <time>2017-09-17T12:05:48Z</time>
      </trkpt>
      <trkpt lat="44.11607" lon="7.49274">
        <ele>1694</ele>
        <time>2017-09-17T12:05:49Z</time>
      </trkpt>
      <trkpt lat="44.11607" lon="7.49274">
        <ele>1694</ele>
        <time>2017-09-17T12:05:50Z</time>
      </trkpt>
      <trkpt lat="44.11607" lon="7.49274">
        <ele>1694</ele>
        <time>2017-09-17T12:05:51Z</time>
      </trkpt>
      <trkpt lat="44.11607" lon="7.49274">
        <ele>1694</ele>
        <time>2017-09-17T12:05:52Z</time>
      </trkpt>
      <trkpt lat="44.11608" lon="7.49274">
        <ele>1694</ele>
        <time>2017-09-17T12:05:53Z</time>
      </trkpt>
      <trkpt lat="44.11608" lon="7.49274">
        <ele>1694</ele>
        <time>2017-09-17T12:05:54Z</time>
      </trkpt>
      <trkpt lat="44.11608" lon="7.49274">
        <ele>1694</ele>
        <time>2017-09-17T12:05:55Z</time>
      </trkpt>
      <trkpt lat="44.11608" lon="7.49274">
        <ele>1694</ele>
        <time>2017-09-17T12:05:56Z</time>
      </trkpt>
      <trkpt lat="44.11608" lon="7.49274">
        <ele>1694</ele>
        <time>2017-09-17T12:05:57Z</time>
      </trkpt>
      <trkpt lat="44.11608" lon="7.49273">
        <ele>1694</ele>
        <time>2017-09-17T12:05:58Z</time>
      </trkpt>
      <trkpt lat="44.11608" lon="7.49274">
        <ele>1694</ele>
        <time>2017-09-17T12:05:59Z</time>
      </trkpt>
      <trkpt lat="44.11608" lon="7.49274">
        <ele>1694</ele>
        <time>2017-09-17T12:06:00Z</time>
      </trkpt>
      <trkpt lat="44.11608" lon="7.49274">
        <ele>1694</ele>
        <time>2017-09-17T12:06:01Z</time>
      </trkpt>
      <trkpt lat="44.11608" lon="7.49274">
        <ele>1694</ele>
        <time>2017-09-17T12:06:02Z</time>
      </trkpt>
      <trkpt lat="44.11608" lon="7.49274">
        <ele>1694</ele>
        <time>2017-09-17T12:06:03Z</time>
      </trkpt>
      <trkpt lat="44.11608" lon="7.49274">
        <ele>1694</ele>
        <time>2017-09-17T12:06:04Z</time>
      </trkpt>
      <trkpt lat="44.11608" lon="7.49274">
        <ele>1694</ele>
        <time>2017-09-17T12:06:05Z</time>
      </trkpt>
      <trkpt lat="44.11608" lon="7.49274">
        <ele>1694</ele>
        <time>2017-09-17T12:06:06Z</time>
      </trkpt>
      <trkpt lat="44.11608" lon="7.49274">
        <ele>1694</ele>
        <time>2017-09-17T12:06:07Z</time>
      </trkpt>
      <trkpt lat="44.11609" lon="7.49274">
        <ele>1694</ele>
        <time>2017-09-17T12:06:08Z</time>
      </trkpt>
      <trkpt lat="44.11609" lon="7.49274">
        <ele>1694</ele>
        <time>2017-09-17T12:06:09Z</time>
      </trkpt>
      <trkpt lat="44.11609" lon="7.49274">
        <ele>1694</ele>
        <time>2017-09-17T12:06:10Z</time>
      </trkpt>
      <trkpt lat="44.11609" lon="7.49274">
        <ele>1694</ele>
        <time>2017-09-17T12:06:11Z</time>
      </trkpt>
      <trkpt lat="44.11609" lon="7.49274">
        <ele>1694</ele>
        <time>2017-09-17T12:06:12Z</time>
      </trkpt>
      <trkpt lat="44.11609" lon="7.49274">
        <ele>1694</ele>
        <time>2017-09-17T12:06:13Z</time>
      </trkpt>
      <trkpt lat="44.11609" lon="7.49274">
        <ele>1694</ele>
        <time>2017-09-17T12:06:14Z</time>
      </trkpt>
      <trkpt lat="44.11609" lon="7.49274">
        <ele>1694</ele>
        <time>2017-09-17T12:06:15Z</time>
      </trkpt>
      <trkpt lat="44.11609" lon="7.49274">
        <ele>1694</ele>
        <time>2017-09-17T12:06:16Z</time>
      </trkpt>
      <trkpt lat="44.11609" lon="7.49274">
        <ele>1694</ele>
        <time>2017-09-17T12:06:17Z</time>
      </trkpt>
      <trkpt lat="44.11608" lon="7.49274">
        <ele>1694</ele>
        <time>2017-09-17T12:06:18Z</time>
      </trkpt>
      <trkpt lat="44.11608" lon="7.49274">
        <ele>1694</ele>
        <time>2017-09-17T12:06:19Z</time>
      </trkpt>
      <trkpt lat="44.11608" lon="7.49274">
        <ele>1694</ele>
        <time>2017-09-17T12:06:20Z</time>
      </trkpt>
      <trkpt lat="44.11608" lon="7.49274">
        <ele>1694</ele>
        <time>2017-09-17T12:06:21Z</time>
      </trkpt>
      <trkpt lat="44.11608" lon="7.49274">
        <ele>1694</ele>
        <time>2017-09-17T12:06:22Z</time>
      </trkpt>
      <trkpt lat="44.11608" lon="7.49274">
        <ele>1694</ele>
        <time>2017-09-17T12:06:23Z</time>
      </trkpt>
      <trkpt lat="44.11608" lon="7.49274">
        <ele>1694</ele>
        <time>2017-09-17T12:06:24Z</time>
      </trkpt>
      <trkpt lat="44.11608" lon="7.49274">
        <ele>1694</ele>
        <time>2017-09-17T12:06:25Z</time>
      </trkpt>
      <trkpt lat="44.11608" lon="7.49274">
        <ele>1694</ele>
        <time>2017-09-17T12:06:26Z</time>
      </trkpt>
      <trkpt lat="44.11608" lon="7.49274">
        <ele>1694</ele>
        <time>2017-09-17T12:06:27Z</time>
      </trkpt>
      <trkpt lat="44.11608" lon="7.49274">
        <ele>1694</ele>
        <time>2017-09-17T12:06:28Z</time>
      </trkpt>
      <trkpt lat="44.11608" lon="7.49274">
        <ele>1694</ele>
        <time>2017-09-17T12:06:29Z</time>
      </trkpt>
      <trkpt lat="44.11608" lon="7.49274">
        <ele>1694</ele>
        <time>2017-09-17T12:06:30Z</time>
      </trkpt>
      <trkpt lat="44.11608" lon="7.49274">
        <ele>1694</ele>
        <time>2017-09-17T12:06:31Z</time>
      </trkpt>
      <trkpt lat="44.11608" lon="7.49274">
        <ele>1694</ele>
        <time>2017-09-17T12:06:32Z</time>
      </trkpt>
      <trkpt lat="44.11608" lon="7.49274">
        <ele>1694</ele>
        <time>2017-09-17T12:06:33Z</time>
      </trkpt>
      <trkpt lat="44.11608" lon="7.49274">
        <ele>1694</ele>
        <time>2017-09-17T12:06:34Z</time>
      </trkpt>
      <trkpt lat="44.11608" lon="7.49274">
        <ele>1694</ele>
        <time>2017-09-17T12:06:35Z</time>
      </trkpt>
      <trkpt lat="44.11608" lon="7.49274">
        <ele>1694</ele>
        <time>2017-09-17T12:06:36Z</time>
      </trkpt>
      <trkpt lat="44.11608" lon="7.49274">
        <ele>1694</ele>
        <time>2017-09-17T12:06:37Z</time>
      </trkpt>
      <trkpt lat="44.11608" lon="7.49274">
        <ele>1694</ele>
        <time>2017-09-17T12:06:38Z</time>
      </trkpt>
      <trkpt lat="44.11608" lon="7.49274">
        <ele>1694</ele>
        <time>2017-09-17T12:06:39Z</time>
      </trkpt>
      <trkpt lat="44.11608" lon="7.49274">
        <ele>1694</ele>
        <time>2017-09-17T12:06:40Z</time>
      </trkpt>
      <trkpt lat="44.11608" lon="7.49274">
        <ele>1694</ele>
        <time>2017-09-17T12:06:41Z</time>
      </trkpt>
      <trkpt lat="44.11608" lon="7.49274">
        <ele>1694</ele>
        <time>2017-09-17T12:06:42Z</time>
      </trkpt>
      <trkpt lat="44.11608" lon="7.49274">
        <ele>1694</ele>
        <time>2017-09-17T12:06:43Z</time>
      </trkpt>
      <trkpt lat="44.11608" lon="7.49274">
        <ele>1694</ele>
        <time>2017-09-17T12:06:44Z</time>
      </trkpt>
      <trkpt lat="44.11608" lon="7.49274">
        <ele>1694</ele>
        <time>2017-09-17T12:06:45Z</time>
      </trkpt>
      <trkpt lat="44.11608" lon="7.49274">
        <ele>1694</ele>
        <time>2017-09-17T12:06:46Z</time>
      </trkpt>
      <trkpt lat="44.11608" lon="7.49274">
        <ele>1694</ele>
        <time>2017-09-17T12:06:47Z</time>
      </trkpt>
      <trkpt lat="44.11608" lon="7.49274">
        <ele>1694</ele>
        <time>2017-09-17T12:06:48Z</time>
      </trkpt>
      <trkpt lat="44.11608" lon="7.49274">
        <ele>1694</ele>
        <time>2017-09-17T12:06:49Z</time>
      </trkpt>
      <trkpt lat="44.11608" lon="7.49274">
        <ele>1694</ele>
        <time>2017-09-17T12:06:50Z</time>
      </trkpt>
      <trkpt lat="44.11608" lon="7.49274">
        <ele>1694</ele>
        <time>2017-09-17T12:06:51Z</time>
      </trkpt>
      <trkpt lat="44.11608" lon="7.49274">
        <ele>1694</ele>
        <time>2017-09-17T12:06:52Z</time>
      </trkpt>
      <trkpt lat="44.11608" lon="7.49274">
        <ele>1694</ele>
        <time>2017-09-17T12:06:53Z</time>
      </trkpt>
      <trkpt lat="44.11608" lon="7.49274">
        <ele>1694</ele>
        <time>2017-09-17T12:06:54Z</time>
      </trkpt>
      <trkpt lat="44.11608" lon="7.49274">
        <ele>1694</ele>
        <time>2017-09-17T12:06:55Z</time>
      </trkpt>
      <trkpt lat="44.11608" lon="7.49274">
        <ele>1694</ele>
        <time>2017-09-17T12:06:56Z</time>
      </trkpt>
      <trkpt lat="44.11608" lon="7.49274">
        <ele>1694</ele>
        <time>2017-09-17T12:06:57Z</time>
      </trkpt>
      <trkpt lat="44.11608" lon="7.49274">
        <ele>1694</ele>
        <time>2017-09-17T12:06:58Z</time>
      </trkpt>
      <trkpt lat="44.11608" lon="7.49274">
        <ele>1694</ele>
        <time>2017-09-17T12:06:59Z</time>
      </trkpt>
      <trkpt lat="44.11608" lon="7.49274">
        <ele>1694</ele>
        <time>2017-09-17T12:07:00Z</time>
      </trkpt>
      <trkpt lat="44.11608" lon="7.49274">
        <ele>1694</ele>
        <time>2017-09-17T12:07:01Z</time>
      </trkpt>
      <trkpt lat="44.11608" lon="7.49274">
        <ele>1694</ele>
        <time>2017-09-17T12:07:02Z</time>
      </trkpt>
      <trkpt lat="44.11608" lon="7.49274">
        <ele>1694</ele>
        <time>2017-09-17T12:07:03Z</time>
      </trkpt>
      <trkpt lat="44.11608" lon="7.49274">
        <ele>1694</ele>
        <time>2017-09-17T12:07:04Z</time>
      </trkpt>
      <trkpt lat="44.11608" lon="7.49274">
        <ele>1694</ele>
        <time>2017-09-17T12:07:05Z</time>
      </trkpt>
      <trkpt lat="44.11608" lon="7.49274">
        <ele>1695</ele>
        <time>2017-09-17T12:07:06Z</time>
      </trkpt>
      <trkpt lat="44.11608" lon="7.49274">
        <ele>1695</ele>
        <time>2017-09-17T12:07:07Z</time>
      </trkpt>
      <trkpt lat="44.11608" lon="7.49274">
        <ele>1695</ele>
        <time>2017-09-17T12:07:08Z</time>
      </trkpt>
      <trkpt lat="44.11608" lon="7.49274">
        <ele>1695</ele>
        <time>2017-09-17T12:07:09Z</time>
      </trkpt>
      <trkpt lat="44.11608" lon="7.49274">
        <ele>1695</ele>
        <time>2017-09-17T12:07:10Z</time>
      </trkpt>
      <trkpt lat="44.11608" lon="7.49274">
        <ele>1695</ele>
        <time>2017-09-17T12:07:11Z</time>
      </trkpt>
      <trkpt lat="44.11608" lon="7.49274">
        <ele>1695</ele>
        <time>2017-09-17T12:07:12Z</time>
      </trkpt>
      <trkpt lat="44.11608" lon="7.49274">
        <ele>1695</ele>
        <time>2017-09-17T12:07:13Z</time>
      </trkpt>
      <trkpt lat="44.11608" lon="7.49274">
        <ele>1695</ele>
        <time>2017-09-17T12:07:14Z</time>
      </trkpt>
      <trkpt lat="44.11607" lon="7.49274">
        <ele>1695</ele>
        <time>2017-09-17T12:07:15Z</time>
      </trkpt>
      <trkpt lat="44.11607" lon="7.49274">
        <ele>1695</ele>
        <time>2017-09-17T12:07:16Z</time>
      </trkpt>
      <trkpt lat="44.11607" lon="7.49274">
        <ele>1695</ele>
        <time>2017-09-17T12:07:17Z</time>
      </trkpt>
      <trkpt lat="44.11607" lon="7.49274">
        <ele>1695</ele>
        <time>2017-09-17T12:07:18Z</time>
      </trkpt>
      <trkpt lat="44.11607" lon="7.49274">
        <ele>1695</ele>
        <time>2017-09-17T12:07:19Z</time>
      </trkpt>
      <trkpt lat="44.11607" lon="7.49274">
        <ele>1695</ele>
        <time>2017-09-17T12:07:20Z</time>
      </trkpt>
      <trkpt lat="44.11607" lon="7.49274">
        <ele>1695</ele>
        <time>2017-09-17T12:07:21Z</time>
      </trkpt>
      <trkpt lat="44.11607" lon="7.49274">
        <ele>1695</ele>
        <time>2017-09-17T12:07:22Z</time>
      </trkpt>
      <trkpt lat="44.11607" lon="7.49274">
        <ele>1695</ele>
        <time>2017-09-17T12:07:23Z</time>
      </trkpt>
      <trkpt lat="44.11607" lon="7.49274">
        <ele>1695</ele>
        <time>2017-09-17T12:07:24Z</time>
      </trkpt>
      <trkpt lat="44.11607" lon="7.49274">
        <ele>1695</ele>
        <time>2017-09-17T12:07:25Z</time>
      </trkpt>
      <trkpt lat="44.11607" lon="7.49274">
        <ele>1695</ele>
        <time>2017-09-17T12:07:26Z</time>
      </trkpt>
      <trkpt lat="44.11607" lon="7.49274">
        <ele>1695</ele>
        <time>2017-09-17T12:07:27Z</time>
      </trkpt>
      <trkpt lat="44.11607" lon="7.49274">
        <ele>1695</ele>
        <time>2017-09-17T12:07:28Z</time>
      </trkpt>
      <trkpt lat="44.11607" lon="7.49274">
        <ele>1695</ele>
        <time>2017-09-17T12:07:29Z</time>
      </trkpt>
      <trkpt lat="44.11607" lon="7.49274">
        <ele>1695</ele>
        <time>2017-09-17T12:07:30Z</time>
      </trkpt>
      <trkpt lat="44.11607" lon="7.49274">
        <ele>1695</ele>
        <time>2017-09-17T12:07:31Z</time>
      </trkpt>
      <trkpt lat="44.11607" lon="7.49274">
        <ele>1695</ele>
        <time>2017-09-17T12:07:32Z</time>
      </trkpt>
      <trkpt lat="44.11607" lon="7.49274">
        <ele>1695</ele>
        <time>2017-09-17T12:07:33Z</time>
      </trkpt>
      <trkpt lat="44.11607" lon="7.49274">
        <ele>1695</ele>
        <time>2017-09-17T12:07:34Z</time>
      </trkpt>
      <trkpt lat="44.11607" lon="7.49273">
        <ele>1695</ele>
        <time>2017-09-17T12:07:35Z</time>
      </trkpt>
      <trkpt lat="44.11607" lon="7.49273">
        <ele>1695</ele>
        <time>2017-09-17T12:07:36Z</time>
      </trkpt>
      <trkpt lat="44.11607" lon="7.49273">
        <ele>1695</ele>
        <time>2017-09-17T12:07:37Z</time>
      </trkpt>
      <trkpt lat="44.11607" lon="7.49273">
        <ele>1695</ele>
        <time>2017-09-17T12:07:38Z</time>
      </trkpt>
      <trkpt lat="44.11607" lon="7.49273">
        <ele>1695</ele>
        <time>2017-09-17T12:07:39Z</time>
      </trkpt>
      <trkpt lat="44.11607" lon="7.49273">
        <ele>1695</ele>
        <time>2017-09-17T12:07:40Z</time>
      </trkpt>
      <trkpt lat="44.11607" lon="7.49273">
        <ele>1695</ele>
        <time>2017-09-17T12:07:41Z</time>
      </trkpt>
      <trkpt lat="44.11607" lon="7.49273">
        <ele>1695</ele>
        <time>2017-09-17T12:07:42Z</time>
      </trkpt>
      <trkpt lat="44.11607" lon="7.49273">
        <ele>1695</ele>
        <time>2017-09-17T12:07:43Z</time>
      </trkpt>
      <trkpt lat="44.11607" lon="7.49273">
        <ele>1695</ele>
        <time>2017-09-17T12:07:44Z</time>
      </trkpt>
      <trkpt lat="44.11607" lon="7.49273">
        <ele>1695</ele>
        <time>2017-09-17T12:07:45Z</time>
      </trkpt>
      <trkpt lat="44.11607" lon="7.49273">
        <ele>1695</ele>
        <time>2017-09-17T12:07:46Z</time>
      </trkpt>
      <trkpt lat="44.11607" lon="7.49273">
        <ele>1695</ele>
        <time>2017-09-17T12:07:47Z</time>
      </trkpt>
      <trkpt lat="44.11607" lon="7.49273">
        <ele>1695</ele>
        <time>2017-09-17T12:07:48Z</time>
      </trkpt>
      <trkpt lat="44.11607" lon="7.49273">
        <ele>1695</ele>
        <time>2017-09-17T12:07:49Z</time>
      </trkpt>
      <trkpt lat="44.11607" lon="7.49273">
        <ele>1695</ele>
        <time>2017-09-17T12:07:50Z</time>
      </trkpt>
      <trkpt lat="44.11607" lon="7.49273">
        <ele>1695</ele>
        <time>2017-09-17T12:07:51Z</time>
      </trkpt>
      <trkpt lat="44.11607" lon="7.49273">
        <ele>1695</ele>
        <time>2017-09-17T12:07:52Z</time>
      </trkpt>
      <trkpt lat="44.11607" lon="7.49273">
        <ele>1695</ele>
        <time>2017-09-17T12:07:53Z</time>
      </trkpt>
      <trkpt lat="44.11607" lon="7.49273">
        <ele>1695</ele>
        <time>2017-09-17T12:07:54Z</time>
      </trkpt>
      <trkpt lat="44.11607" lon="7.49273">
        <ele>1695</ele>
        <time>2017-09-17T12:07:55Z</time>
      </trkpt>
      <trkpt lat="44.11607" lon="7.49273">
        <ele>1695</ele>
        <time>2017-09-17T12:07:56Z</time>
      </trkpt>
      <trkpt lat="44.11607" lon="7.49273">
        <ele>1695</ele>
        <time>2017-09-17T12:07:57Z</time>
      </trkpt>
      <trkpt lat="44.11607" lon="7.49273">
        <ele>1695</ele>
        <time>2017-09-17T12:07:58Z</time>
      </trkpt>
      <trkpt lat="44.11607" lon="7.49273">
        <ele>1695</ele>
        <time>2017-09-17T12:07:59Z</time>
      </trkpt>
      <trkpt lat="44.11607" lon="7.49273">
        <ele>1695</ele>
        <time>2017-09-17T12:08:00Z</time>
      </trkpt>
      <trkpt lat="44.11607" lon="7.49273">
        <ele>1695</ele>
        <time>2017-09-17T12:08:01Z</time>
      </trkpt>
      <trkpt lat="44.11607" lon="7.49273">
        <ele>1695</ele>
        <time>2017-09-17T12:08:02Z</time>
      </trkpt>
      <trkpt lat="44.11607" lon="7.49273">
        <ele>1695</ele>
        <time>2017-09-17T12:08:03Z</time>
      </trkpt>
      <trkpt lat="44.11607" lon="7.49273">
        <ele>1695</ele>
        <time>2017-09-17T12:08:04Z</time>
      </trkpt>
      <trkpt lat="44.11607" lon="7.49273">
        <ele>1695</ele>
        <time>2017-09-17T12:08:05Z</time>
      </trkpt>
      <trkpt lat="44.11607" lon="7.49273">
        <ele>1695</ele>
        <time>2017-09-17T12:08:06Z</time>
      </trkpt>
      <trkpt lat="44.11607" lon="7.49273">
        <ele>1695</ele>
        <time>2017-09-17T12:08:07Z</time>
      </trkpt>
      <trkpt lat="44.11607" lon="7.49273">
        <ele>1695</ele>
        <time>2017-09-17T12:08:08Z</time>
      </trkpt>
      <trkpt lat="44.11607" lon="7.49273">
        <ele>1695</ele>
        <time>2017-09-17T12:08:09Z</time>
      </trkpt>
      <trkpt lat="44.11607" lon="7.49273">
        <ele>1695</ele>
        <time>2017-09-17T12:08:10Z</time>
      </trkpt>
      <trkpt lat="44.11607" lon="7.49273">
        <ele>1695</ele>
        <time>2017-09-17T12:08:11Z</time>
      </trkpt>
      <trkpt lat="44.11607" lon="7.49273">
        <ele>1695</ele>
        <time>2017-09-17T12:08:12Z</time>
      </trkpt>
      <trkpt lat="44.11607" lon="7.49273">
        <ele>1695</ele>
        <time>2017-09-17T12:08:13Z</time>
      </trkpt>
      <trkpt lat="44.11607" lon="7.49273">
        <ele>1695</ele>
        <time>2017-09-17T12:08:14Z</time>
      </trkpt>
      <trkpt lat="44.11607" lon="7.49273">
        <ele>1695</ele>
        <time>2017-09-17T12:08:15Z</time>
      </trkpt>
      <trkpt lat="44.11607" lon="7.49273">
        <ele>1695</ele>
        <time>2017-09-17T12:08:16Z</time>
      </trkpt>
      <trkpt lat="44.11607" lon="7.49273">
        <ele>1695</ele>
        <time>2017-09-17T12:08:17Z</time>
      </trkpt>
      <trkpt lat="44.11607" lon="7.49273">
        <ele>1695</ele>
        <time>2017-09-17T12:08:18Z</time>
      </trkpt>
      <trkpt lat="44.11607" lon="7.49273">
        <ele>1695</ele>
        <time>2017-09-17T12:08:19Z</time>
      </trkpt>
      <trkpt lat="44.11607" lon="7.49273">
        <ele>1695</ele>
        <time>2017-09-17T12:08:20Z</time>
      </trkpt>
      <trkpt lat="44.11607" lon="7.49273">
        <ele>1695</ele>
        <time>2017-09-17T12:08:21Z</time>
      </trkpt>
      <trkpt lat="44.11607" lon="7.49273">
        <ele>1695</ele>
        <time>2017-09-17T12:08:22Z</time>
      </trkpt>
      <trkpt lat="44.11607" lon="7.49273">
        <ele>1695</ele>
        <time>2017-09-17T12:08:23Z</time>
      </trkpt>
      <trkpt lat="44.11607" lon="7.49273">
        <ele>1695</ele>
        <time>2017-09-17T12:08:24Z</time>
      </trkpt>
      <trkpt lat="44.11607" lon="7.49273">
        <ele>1695</ele>
        <time>2017-09-17T12:08:25Z</time>
      </trkpt>
      <trkpt lat="44.11607" lon="7.49273">
        <ele>1695</ele>
        <time>2017-09-17T12:08:26Z</time>
      </trkpt>
      <trkpt lat="44.11607" lon="7.49273">
        <ele>1695</ele>
        <time>2017-09-17T12:08:27Z</time>
      </trkpt>
      <trkpt lat="44.11607" lon="7.49273">
        <ele>1695</ele>
        <time>2017-09-17T12:08:28Z</time>
      </trkpt>
      <trkpt lat="44.11607" lon="7.49273">
        <ele>1695</ele>
        <time>2017-09-17T12:08:29Z</time>
      </trkpt>
      <trkpt lat="44.11607" lon="7.49273">
        <ele>1695</ele>
        <time>2017-09-17T12:08:30Z</time>
      </trkpt>
      <trkpt lat="44.11607" lon="7.49273">
        <ele>1695</ele>
        <time>2017-09-17T12:08:31Z</time>
      </trkpt>
      <trkpt lat="44.11607" lon="7.49273">
        <ele>1695</ele>
        <time>2017-09-17T12:08:32Z</time>
      </trkpt>
      <trkpt lat="44.11607" lon="7.49273">
        <ele>1695</ele>
        <time>2017-09-17T12:08:33Z</time>
      </trkpt>
      <trkpt lat="44.11607" lon="7.49273">
        <ele>1695</ele>
        <time>2017-09-17T12:08:34Z</time>
      </trkpt>
      <trkpt lat="44.11607" lon="7.49273">
        <ele>1695</ele>
        <time>2017-09-17T12:08:35Z</time>
      </trkpt>
      <trkpt lat="44.11607" lon="7.49273">
        <ele>1695</ele>
        <time>2017-09-17T12:08:36Z</time>
      </trkpt>
      <trkpt lat="44.11607" lon="7.49273">
        <ele>1695</ele>
        <time>2017-09-17T12:08:37Z</time>
      </trkpt>
      <trkpt lat="44.11607" lon="7.49273">
        <ele>1695</ele>
        <time>2017-09-17T12:08:38Z</time>
      </trkpt>
      <trkpt lat="44.11607" lon="7.49273">
        <ele>1695</ele>
        <time>2017-09-17T12:08:39Z</time>
      </trkpt>
      <trkpt lat="44.11607" lon="7.49273">
        <ele>1695</ele>
        <time>2017-09-17T12:08:40Z</time>
      </trkpt>
      <trkpt lat="44.11607" lon="7.49273">
        <ele>1695</ele>
        <time>2017-09-17T12:08:41Z</time>
      </trkpt>
      <trkpt lat="44.11607" lon="7.49273">
        <ele>1695</ele>
        <time>2017-09-17T12:08:42Z</time>
      </trkpt>
      <trkpt lat="44.11607" lon="7.49273">
        <ele>1695</ele>
        <time>2017-09-17T12:08:43Z</time>
      </trkpt>
      <trkpt lat="44.11607" lon="7.49273">
        <ele>1695</ele>
        <time>2017-09-17T12:08:44Z</time>
      </trkpt>
      <trkpt lat="44.11607" lon="7.49273">
        <ele>1695</ele>
        <time>2017-09-17T12:08:45Z</time>
      </trkpt>
      <trkpt lat="44.11607" lon="7.49273">
        <ele>1695</ele>
        <time>2017-09-17T12:08:46Z</time>
      </trkpt>
      <trkpt lat="44.11607" lon="7.49273">
        <ele>1695</ele>
        <time>2017-09-17T12:08:47Z</time>
      </trkpt>
      <trkpt lat="44.11607" lon="7.49273">
        <ele>1695</ele>
        <time>2017-09-17T12:08:48Z</time>
      </trkpt>
      <trkpt lat="44.11607" lon="7.49273">
        <ele>1695</ele>
        <time>2017-09-17T12:08:49Z</time>
      </trkpt>
      <trkpt lat="44.11607" lon="7.49273">
        <ele>1695</ele>
        <time>2017-09-17T12:08:50Z</time>
      </trkpt>
      <trkpt lat="44.11607" lon="7.49273">
        <ele>1695</ele>
        <time>2017-09-17T12:08:51Z</time>
      </trkpt>
      <trkpt lat="44.11607" lon="7.49273">
        <ele>1695</ele>
        <time>2017-09-17T12:08:52Z</time>
      </trkpt>
      <trkpt lat="44.11607" lon="7.49273">
        <ele>1695</ele>
        <time>2017-09-17T12:08:53Z</time>
      </trkpt>
      <trkpt lat="44.11607" lon="7.49273">
        <ele>1695</ele>
        <time>2017-09-17T12:08:54Z</time>
      </trkpt>
      <trkpt lat="44.11607" lon="7.49273">
        <ele>1695</ele>
        <time>2017-09-17T12:08:55Z</time>
      </trkpt>
      <trkpt lat="44.11607" lon="7.49273">
        <ele>1695</ele>
        <time>2017-09-17T12:08:56Z</time>
      </trkpt>
      <trkpt lat="44.11607" lon="7.49273">
        <ele>1695</ele>
        <time>2017-09-17T12:08:57Z</time>
      </trkpt>
      <trkpt lat="44.11607" lon="7.49273">
        <ele>1695</ele>
        <time>2017-09-17T12:08:58Z</time>
      </trkpt>
      <trkpt lat="44.11607" lon="7.49273">
        <ele>1695</ele>
        <time>2017-09-17T12:08:59Z</time>
      </trkpt>
      <trkpt lat="44.11607" lon="7.49273">
        <ele>1695</ele>
        <time>2017-09-17T12:09:00Z</time>
      </trkpt>
      <trkpt lat="44.11607" lon="7.49273">
        <ele>1695</ele>
        <time>2017-09-17T12:09:01Z</time>
      </trkpt>
      <trkpt lat="44.11607" lon="7.49273">
        <ele>1695</ele>
        <time>2017-09-17T12:09:02Z</time>
      </trkpt>
      <trkpt lat="44.11607" lon="7.49273">
        <ele>1695</ele>
        <time>2017-09-17T12:09:03Z</time>
      </trkpt>
      <trkpt lat="44.11607" lon="7.49273">
        <ele>1695</ele>
        <time>2017-09-17T12:09:04Z</time>
      </trkpt>
      <trkpt lat="44.11607" lon="7.49273">
        <ele>1695</ele>
        <time>2017-09-17T12:09:05Z</time>
      </trkpt>
      <trkpt lat="44.11607" lon="7.49273">
        <ele>1695</ele>
        <time>2017-09-17T12:09:06Z</time>
      </trkpt>
      <trkpt lat="44.11607" lon="7.49273">
        <ele>1695</ele>
        <time>2017-09-17T12:09:07Z</time>
      </trkpt>
      <trkpt lat="44.11607" lon="7.49273">
        <ele>1695</ele>
        <time>2017-09-17T12:09:08Z</time>
      </trkpt>
      <trkpt lat="44.11607" lon="7.49273">
        <ele>1695</ele>
        <time>2017-09-17T12:09:09Z</time>
      </trkpt>
      <trkpt lat="44.11607" lon="7.49273">
        <ele>1695</ele>
        <time>2017-09-17T12:09:10Z</time>
      </trkpt>
      <trkpt lat="44.11607" lon="7.49273">
        <ele>1695</ele>
        <time>2017-09-17T12:09:11Z</time>
      </trkpt>
      <trkpt lat="44.11607" lon="7.49273">
        <ele>1695</ele>
        <time>2017-09-17T12:09:12Z</time>
      </trkpt>
      <trkpt lat="44.11607" lon="7.49273">
        <ele>1695</ele>
        <time>2017-09-17T12:09:13Z</time>
      </trkpt>
      <trkpt lat="44.11607" lon="7.49273">
        <ele>1695</ele>
        <time>2017-09-17T12:09:14Z</time>
      </trkpt>
      <trkpt lat="44.11607" lon="7.49273">
        <ele>1695</ele>
        <time>2017-09-17T12:09:15Z</time>
      </trkpt>
      <trkpt lat="44.11607" lon="7.49273">
        <ele>1695</ele>
        <time>2017-09-17T12:09:16Z</time>
      </trkpt>
      <trkpt lat="44.11607" lon="7.49273">
        <ele>1695</ele>
        <time>2017-09-17T12:09:17Z</time>
      </trkpt>
      <trkpt lat="44.11607" lon="7.49273">
        <ele>1695</ele>
        <time>2017-09-17T12:09:18Z</time>
      </trkpt>
      <trkpt lat="44.11607" lon="7.49273">
        <ele>1695</ele>
        <time>2017-09-17T12:09:19Z</time>
      </trkpt>
      <trkpt lat="44.11607" lon="7.49273">
        <ele>1695</ele>
        <time>2017-09-17T12:09:20Z</time>
      </trkpt>
      <trkpt lat="44.11607" lon="7.49273">
        <ele>1695</ele>
        <time>2017-09-17T12:09:21Z</time>
      </trkpt>
      <trkpt lat="44.11607" lon="7.49273">
        <ele>1695</ele>
        <time>2017-09-17T12:09:22Z</time>
      </trkpt>
      <trkpt lat="44.11607" lon="7.49273">
        <ele>1695</ele>
        <time>2017-09-17T12:09:23Z</time>
      </trkpt>
      <trkpt lat="44.11607" lon="7.49273">
        <ele>1695</ele>
        <time>2017-09-17T12:09:24Z</time>
      </trkpt>
      <trkpt lat="44.11607" lon="7.49273">
        <ele>1695</ele>
        <time>2017-09-17T12:09:25Z</time>
      </trkpt>
      <trkpt lat="44.11607" lon="7.49273">
        <ele>1695</ele>
        <time>2017-09-17T12:09:26Z</time>
      </trkpt>
      <trkpt lat="44.11607" lon="7.49274">
        <ele>1695</ele>
        <time>2017-09-17T12:09:27Z</time>
      </trkpt>
      <trkpt lat="44.11607" lon="7.49274">
        <ele>1695</ele>
        <time>2017-09-17T12:09:28Z</time>
      </trkpt>
      <trkpt lat="44.11607" lon="7.49275">
        <ele>1695</ele>
        <time>2017-09-17T12:09:29Z</time>
      </trkpt>
      <trkpt lat="44.11607" lon="7.49276">
        <ele>1695</ele>
        <time>2017-09-17T12:09:30Z</time>
      </trkpt>
      <trkpt lat="44.11607" lon="7.49276">
        <ele>1694</ele>
        <time>2017-09-17T12:09:31Z</time>
      </trkpt>
      <trkpt lat="44.11607" lon="7.49276">
        <ele>1694</ele>
        <time>2017-09-17T12:09:32Z</time>
      </trkpt>
      <trkpt lat="44.11607" lon="7.49276">
        <ele>1694</ele>
        <time>2017-09-17T12:09:33Z</time>
      </trkpt>
      <trkpt lat="44.11607" lon="7.49276">
        <ele>1694</ele>
        <time>2017-09-17T12:09:34Z</time>
      </trkpt>
      <trkpt lat="44.11607" lon="7.49276">
        <ele>1694</ele>
        <time>2017-09-17T12:09:35Z</time>
      </trkpt>
      <trkpt lat="44.11606" lon="7.49276">
        <ele>1694</ele>
        <time>2017-09-17T12:09:36Z</time>
      </trkpt>
      <trkpt lat="44.11606" lon="7.49276">
        <ele>1694</ele>
        <time>2017-09-17T12:09:37Z</time>
      </trkpt>
      <trkpt lat="44.11606" lon="7.49276">
        <ele>1694</ele>
        <time>2017-09-17T12:09:38Z</time>
      </trkpt>
      <trkpt lat="44.11606" lon="7.49275">
        <ele>1694</ele>
        <time>2017-09-17T12:09:39Z</time>
      </trkpt>
      <trkpt lat="44.11606" lon="7.49275">
        <ele>1694</ele>
        <time>2017-09-17T12:09:40Z</time>
      </trkpt>
      <trkpt lat="44.11606" lon="7.49275">
        <ele>1694</ele>
        <time>2017-09-17T12:09:41Z</time>
      </trkpt>
      <trkpt lat="44.11606" lon="7.49275">
        <ele>1694</ele>
        <time>2017-09-17T12:09:42Z</time>
      </trkpt>
      <trkpt lat="44.11606" lon="7.49275">
        <ele>1694</ele>
        <time>2017-09-17T12:09:43Z</time>
      </trkpt>
      <trkpt lat="44.11606" lon="7.49275">
        <ele>1694</ele>
        <time>2017-09-17T12:09:44Z</time>
      </trkpt>
      <trkpt lat="44.11606" lon="7.49275">
        <ele>1694</ele>
        <time>2017-09-17T12:09:45Z</time>
      </trkpt>
      <trkpt lat="44.11606" lon="7.49275">
        <ele>1694</ele>
        <time>2017-09-17T12:09:46Z</time>
      </trkpt>
      <trkpt lat="44.11606" lon="7.49275">
        <ele>1694</ele>
        <time>2017-09-17T12:09:47Z</time>
      </trkpt>
      <trkpt lat="44.11606" lon="7.49275">
        <ele>1694</ele>
        <time>2017-09-17T12:09:48Z</time>
      </trkpt>
      <trkpt lat="44.11606" lon="7.49275">
        <ele>1694</ele>
        <time>2017-09-17T12:09:49Z</time>
      </trkpt>
      <trkpt lat="44.11606" lon="7.49275">
        <ele>1693</ele>
        <time>2017-09-17T12:09:50Z</time>
      </trkpt>
      <trkpt lat="44.11606" lon="7.49275">
        <ele>1693</ele>
        <time>2017-09-17T12:09:51Z</time>
      </trkpt>
      <trkpt lat="44.11606" lon="7.49275">
        <ele>1693</ele>
        <time>2017-09-17T12:09:52Z</time>
      </trkpt>
      <trkpt lat="44.11606" lon="7.49275">
        <ele>1693</ele>
        <time>2017-09-17T12:09:53Z</time>
      </trkpt>
      <trkpt lat="44.11606" lon="7.49275">
        <ele>1693</ele>
        <time>2017-09-17T12:09:54Z</time>
      </trkpt>
      <trkpt lat="44.11606" lon="7.49275">
        <ele>1693</ele>
        <time>2017-09-17T12:09:55Z</time>
      </trkpt>
      <trkpt lat="44.11606" lon="7.49275">
        <ele>1693</ele>
        <time>2017-09-17T12:09:56Z</time>
      </trkpt>
      <trkpt lat="44.11606" lon="7.49275">
        <ele>1693</ele>
        <time>2017-09-17T12:09:57Z</time>
      </trkpt>
      <trkpt lat="44.11606" lon="7.49275">
        <ele>1693</ele>
        <time>2017-09-17T12:09:58Z</time>
      </trkpt>
      <trkpt lat="44.11606" lon="7.49275">
        <ele>1693</ele>
        <time>2017-09-17T12:09:59Z</time>
      </trkpt>
      <trkpt lat="44.11606" lon="7.49275">
        <ele>1693</ele>
        <time>2017-09-17T12:10:00Z</time>
      </trkpt>
      <trkpt lat="44.11606" lon="7.49275">
        <ele>1693</ele>
        <time>2017-09-17T12:10:01Z</time>
      </trkpt>
      <trkpt lat="44.11606" lon="7.49275">
        <ele>1693</ele>
        <time>2017-09-17T12:10:02Z</time>
      </trkpt>
      <trkpt lat="44.11606" lon="7.49275">
        <ele>1693</ele>
        <time>2017-09-17T12:10:03Z</time>
      </trkpt>
      <trkpt lat="44.11606" lon="7.49275">
        <ele>1693</ele>
        <time>2017-09-17T12:10:04Z</time>
      </trkpt>
      <trkpt lat="44.11606" lon="7.49275">
        <ele>1693</ele>
        <time>2017-09-17T12:10:05Z</time>
      </trkpt>
      <trkpt lat="44.11606" lon="7.49275">
        <ele>1693</ele>
        <time>2017-09-17T12:10:06Z</time>
      </trkpt>
      <trkpt lat="44.11606" lon="7.49274">
        <ele>1693</ele>
        <time>2017-09-17T12:10:07Z</time>
      </trkpt>
      <trkpt lat="44.11606" lon="7.49274">
        <ele>1693</ele>
        <time>2017-09-17T12:10:08Z</time>
      </trkpt>
      <trkpt lat="44.11606" lon="7.49274">
        <ele>1693</ele>
        <time>2017-09-17T12:10:09Z</time>
      </trkpt>
      <trkpt lat="44.11606" lon="7.49274">
        <ele>1693</ele>
        <time>2017-09-17T12:10:10Z</time>
      </trkpt>
      <trkpt lat="44.11606" lon="7.49274">
        <ele>1693</ele>
        <time>2017-09-17T12:10:11Z</time>
      </trkpt>
      <trkpt lat="44.11606" lon="7.49274">
        <ele>1693</ele>
        <time>2017-09-17T12:10:12Z</time>
      </trkpt>
      <trkpt lat="44.11606" lon="7.49274">
        <ele>1693</ele>
        <time>2017-09-17T12:10:13Z</time>
      </trkpt>
      <trkpt lat="44.11606" lon="7.49274">
        <ele>1693</ele>
        <time>2017-09-17T12:10:14Z</time>
      </trkpt>
      <trkpt lat="44.11606" lon="7.49274">
        <ele>1693</ele>
        <time>2017-09-17T12:10:15Z</time>
      </trkpt>
      <trkpt lat="44.11606" lon="7.49274">
        <ele>1693</ele>
        <time>2017-09-17T12:10:16Z</time>
      </trkpt>
      <trkpt lat="44.11606" lon="7.49274">
        <ele>1693</ele>
        <time>2017-09-17T12:10:17Z</time>
      </trkpt>
      <trkpt lat="44.11606" lon="7.49274">
        <ele>1693</ele>
        <time>2017-09-17T12:10:18Z</time>
      </trkpt>
      <trkpt lat="44.11606" lon="7.49274">
        <ele>1693</ele>
        <time>2017-09-17T12:10:19Z</time>
      </trkpt>
      <trkpt lat="44.11606" lon="7.49274">
        <ele>1693</ele>
        <time>2017-09-17T12:10:20Z</time>
      </trkpt>
      <trkpt lat="44.11606" lon="7.49274">
        <ele>1693</ele>
        <time>2017-09-17T12:10:21Z</time>
      </trkpt>
      <trkpt lat="44.11606" lon="7.49274">
        <ele>1693</ele>
        <time>2017-09-17T12:10:22Z</time>
      </trkpt>
      <trkpt lat="44.11606" lon="7.49274">
        <ele>1693</ele>
        <time>2017-09-17T12:10:23Z</time>
      </trkpt>
      <trkpt lat="44.11606" lon="7.49274">
        <ele>1693</ele>
        <time>2017-09-17T12:10:24Z</time>
      </trkpt>
      <trkpt lat="44.11606" lon="7.49274">
        <ele>1693</ele>
        <time>2017-09-17T12:10:25Z</time>
      </trkpt>
      <trkpt lat="44.11606" lon="7.49274">
        <ele>1693</ele>
        <time>2017-09-17T12:10:26Z</time>
      </trkpt>
      <trkpt lat="44.11606" lon="7.49274">
        <ele>1693</ele>
        <time>2017-09-17T12:10:27Z</time>
      </trkpt>
      <trkpt lat="44.11606" lon="7.49274">
        <ele>1693</ele>
        <time>2017-09-17T12:10:28Z</time>
      </trkpt>
      <trkpt lat="44.11606" lon="7.49274">
        <ele>1693</ele>
        <time>2017-09-17T12:10:29Z</time>
      </trkpt>
      <trkpt lat="44.11606" lon="7.49274">
        <ele>1693</ele>
        <time>2017-09-17T12:10:30Z</time>
      </trkpt>
      <trkpt lat="44.11607" lon="7.49274">
        <ele>1693</ele>
        <time>2017-09-17T12:10:31Z</time>
      </trkpt>
      <trkpt lat="44.11607" lon="7.49274">
        <ele>1693</ele>
        <time>2017-09-17T12:10:32Z</time>
      </trkpt>
      <trkpt lat="44.11608" lon="7.49273">
        <ele>1693</ele>
        <time>2017-09-17T12:10:33Z</time>
      </trkpt>
      <trkpt lat="44.11608" lon="7.49272">
        <ele>1693</ele>
        <time>2017-09-17T12:10:34Z</time>
      </trkpt>
      <trkpt lat="44.11608" lon="7.49272">
        <ele>1693</ele>
        <time>2017-09-17T12:10:35Z</time>
      </trkpt>
      <trkpt lat="44.11608" lon="7.49272">
        <ele>1693</ele>
        <time>2017-09-17T12:10:36Z</time>
      </trkpt>
      <trkpt lat="44.11608" lon="7.49272">
        <ele>1693</ele>
        <time>2017-09-17T12:10:37Z</time>
      </trkpt>
      <trkpt lat="44.11608" lon="7.49272">
        <ele>1693</ele>
        <time>2017-09-17T12:10:38Z</time>
      </trkpt>
      <trkpt lat="44.11608" lon="7.49272">
        <ele>1693</ele>
        <time>2017-09-17T12:10:39Z</time>
      </trkpt>
      <trkpt lat="44.11608" lon="7.49272">
        <ele>1693</ele>
        <time>2017-09-17T12:10:40Z</time>
      </trkpt>
      <trkpt lat="44.11608" lon="7.49272">
        <ele>1693</ele>
        <time>2017-09-17T12:10:41Z</time>
      </trkpt>
      <trkpt lat="44.11608" lon="7.49272">
        <ele>1693</ele>
        <time>2017-09-17T12:10:42Z</time>
      </trkpt>
      <trkpt lat="44.11608" lon="7.49272">
        <ele>1693</ele>
        <time>2017-09-17T12:10:43Z</time>
      </trkpt>
      <trkpt lat="44.11608" lon="7.49272">
        <ele>1693</ele>
        <time>2017-09-17T12:10:44Z</time>
      </trkpt>
      <trkpt lat="44.11608" lon="7.49272">
        <ele>1693</ele>
        <time>2017-09-17T12:10:45Z</time>
      </trkpt>
      <trkpt lat="44.11608" lon="7.49272">
        <ele>1693</ele>
        <time>2017-09-17T12:10:46Z</time>
      </trkpt>
      <trkpt lat="44.11608" lon="7.49272">
        <ele>1693</ele>
        <time>2017-09-17T12:10:47Z</time>
      </trkpt>
      <trkpt lat="44.11608" lon="7.49272">
        <ele>1693</ele>
        <time>2017-09-17T12:10:48Z</time>
      </trkpt>
      <trkpt lat="44.11609" lon="7.49272">
        <ele>1693</ele>
        <time>2017-09-17T12:10:49Z</time>
      </trkpt>
      <trkpt lat="44.11608" lon="7.49272">
        <ele>1693</ele>
        <time>2017-09-17T12:10:50Z</time>
      </trkpt>
      <trkpt lat="44.11608" lon="7.49272">
        <ele>1693</ele>
        <time>2017-09-17T12:10:51Z</time>
      </trkpt>
      <trkpt lat="44.11608" lon="7.49272">
        <ele>1693</ele>
        <time>2017-09-17T12:10:52Z</time>
      </trkpt>
      <trkpt lat="44.11608" lon="7.49272">
        <ele>1693</ele>
        <time>2017-09-17T12:10:53Z</time>
      </trkpt>
      <trkpt lat="44.11609" lon="7.49272">
        <ele>1693</ele>
        <time>2017-09-17T12:10:54Z</time>
      </trkpt>
      <trkpt lat="44.11609" lon="7.49272">
        <ele>1693</ele>
        <time>2017-09-17T12:10:55Z</time>
      </trkpt>
      <trkpt lat="44.11609" lon="7.49272">
        <ele>1693</ele>
        <time>2017-09-17T12:10:56Z</time>
      </trkpt>
      <trkpt lat="44.11609" lon="7.49272">
        <ele>1693</ele>
        <time>2017-09-17T12:10:57Z</time>
      </trkpt>
      <trkpt lat="44.11609" lon="7.49272">
        <ele>1693</ele>
        <time>2017-09-17T12:10:58Z</time>
      </trkpt>
      <trkpt lat="44.11609" lon="7.49272">
        <ele>1693</ele>
        <time>2017-09-17T12:10:59Z</time>
      </trkpt>
      <trkpt lat="44.11609" lon="7.49273">
        <ele>1693</ele>
        <time>2017-09-17T12:11:00Z</time>
      </trkpt>
      <trkpt lat="44.11609" lon="7.49273">
        <ele>1694</ele>
        <time>2017-09-17T12:11:01Z</time>
      </trkpt>
      <trkpt lat="44.1161" lon="7.49273">
        <ele>1694</ele>
        <time>2017-09-17T12:11:02Z</time>
      </trkpt>
      <trkpt lat="44.1161" lon="7.49273">
        <ele>1694</ele>
        <time>2017-09-17T12:11:03Z</time>
      </trkpt>
      <trkpt lat="44.1161" lon="7.49273">
        <ele>1694</ele>
        <time>2017-09-17T12:11:04Z</time>
      </trkpt>
      <trkpt lat="44.1161" lon="7.49273">
        <ele>1694</ele>
        <time>2017-09-17T12:11:05Z</time>
      </trkpt>
      <trkpt lat="44.1161" lon="7.49273">
        <ele>1694</ele>
        <time>2017-09-17T12:11:06Z</time>
      </trkpt>
      <trkpt lat="44.1161" lon="7.49273">
        <ele>1694</ele>
        <time>2017-09-17T12:11:07Z</time>
      </trkpt>
      <trkpt lat="44.1161" lon="7.49273">
        <ele>1694</ele>
        <time>2017-09-17T12:11:08Z</time>
      </trkpt>
      <trkpt lat="44.11611" lon="7.49273">
        <ele>1694</ele>
        <time>2017-09-17T12:11:09Z</time>
      </trkpt>
      <trkpt lat="44.11611" lon="7.49273">
        <ele>1694</ele>
        <time>2017-09-17T12:11:10Z</time>
      </trkpt>
      <trkpt lat="44.11611" lon="7.49273">
        <ele>1694</ele>
        <time>2017-09-17T12:11:11Z</time>
      </trkpt>
      <trkpt lat="44.11611" lon="7.49273">
        <ele>1694</ele>
        <time>2017-09-17T12:11:12Z</time>
      </trkpt>
      <trkpt lat="44.1161" lon="7.49273">
        <ele>1694</ele>
        <time>2017-09-17T12:11:13Z</time>
      </trkpt>
      <trkpt lat="44.1161" lon="7.49273">
        <ele>1694</ele>
        <time>2017-09-17T12:11:14Z</time>
      </trkpt>
      <trkpt lat="44.1161" lon="7.49273">
        <ele>1694</ele>
        <time>2017-09-17T12:11:15Z</time>
      </trkpt>
      <trkpt lat="44.1161" lon="7.49273">
        <ele>1694</ele>
        <time>2017-09-17T12:11:16Z</time>
      </trkpt>
      <trkpt lat="44.1161" lon="7.49273">
        <ele>1694</ele>
        <time>2017-09-17T12:11:17Z</time>
      </trkpt>
      <trkpt lat="44.1161" lon="7.49273">
        <ele>1694</ele>
        <time>2017-09-17T12:11:18Z</time>
      </trkpt>
      <trkpt lat="44.1161" lon="7.49273">
        <ele>1694</ele>
        <time>2017-09-17T12:11:19Z</time>
      </trkpt>
      <trkpt lat="44.1161" lon="7.49273">
        <ele>1694</ele>
        <time>2017-09-17T12:11:20Z</time>
      </trkpt>
      <trkpt lat="44.1161" lon="7.49273">
        <ele>1694</ele>
        <time>2017-09-17T12:11:21Z</time>
      </trkpt>
      <trkpt lat="44.11611" lon="7.49273">
        <ele>1694</ele>
        <time>2017-09-17T12:11:22Z</time>
      </trkpt>
      <trkpt lat="44.11611" lon="7.49273">
        <ele>1694</ele>
        <time>2017-09-17T12:11:23Z</time>
      </trkpt>
      <trkpt lat="44.11612" lon="7.49274">
        <ele>1694</ele>
        <time>2017-09-17T12:11:24Z</time>
      </trkpt>
      <trkpt lat="44.11612" lon="7.49274">
        <ele>1694</ele>
        <time>2017-09-17T12:11:25Z</time>
      </trkpt>
      <trkpt lat="44.11612" lon="7.49274">
        <ele>1693</ele>
        <time>2017-09-17T12:11:26Z</time>
      </trkpt>
      <trkpt lat="44.11612" lon="7.49274">
        <ele>1693</ele>
        <time>2017-09-17T12:11:27Z</time>
      </trkpt>
      <trkpt lat="44.11612" lon="7.49274">
        <ele>1693</ele>
        <time>2017-09-17T12:11:28Z</time>
      </trkpt>
      <trkpt lat="44.11612" lon="7.49274">
        <ele>1693</ele>
        <time>2017-09-17T12:11:29Z</time>
      </trkpt>
      <trkpt lat="44.11612" lon="7.49274">
        <ele>1693</ele>
        <time>2017-09-17T12:11:30Z</time>
      </trkpt>
      <trkpt lat="44.11612" lon="7.49274">
        <ele>1693</ele>
        <time>2017-09-17T12:11:31Z</time>
      </trkpt>
      <trkpt lat="44.11613" lon="7.49274">
        <ele>1693</ele>
        <time>2017-09-17T12:11:32Z</time>
      </trkpt>
      <trkpt lat="44.11613" lon="7.49274">
        <ele>1693</ele>
        <time>2017-09-17T12:11:33Z</time>
      </trkpt>
      <trkpt lat="44.11613" lon="7.49274">
        <ele>1693</ele>
        <time>2017-09-17T12:11:34Z</time>
      </trkpt>
      <trkpt lat="44.11613" lon="7.49274">
        <ele>1693</ele>
        <time>2017-09-17T12:11:35Z</time>
      </trkpt>
      <trkpt lat="44.11613" lon="7.49274">
        <ele>1693</ele>
        <time>2017-09-17T12:11:36Z</time>
      </trkpt>
      <trkpt lat="44.11613" lon="7.49274">
        <ele>1693</ele>
        <time>2017-09-17T12:11:37Z</time>
      </trkpt>
      <trkpt lat="44.11613" lon="7.49274">
        <ele>1693</ele>
        <time>2017-09-17T12:11:38Z</time>
      </trkpt>
      <trkpt lat="44.11613" lon="7.49274">
        <ele>1693</ele>
        <time>2017-09-17T12:11:39Z</time>
      </trkpt>
      <trkpt lat="44.11613" lon="7.49274">
        <ele>1693</ele>
        <time>2017-09-17T12:11:40Z</time>
      </trkpt>
      <trkpt lat="44.11613" lon="7.49274">
        <ele>1693</ele>
        <time>2017-09-17T12:11:41Z</time>
      </trkpt>
      <trkpt lat="44.11613" lon="7.49274">
        <ele>1693</ele>
        <time>2017-09-17T12:11:42Z</time>
      </trkpt>
      <trkpt lat="44.11613" lon="7.49274">
        <ele>1693</ele>
        <time>2017-09-17T12:11:43Z</time>
      </trkpt>
      <trkpt lat="44.11613" lon="7.49274">
        <ele>1693</ele>
        <time>2017-09-17T12:11:44Z</time>
      </trkpt>
      <trkpt lat="44.11613" lon="7.49274">
        <ele>1693</ele>
        <time>2017-09-17T12:11:45Z</time>
      </trkpt>
      <trkpt lat="44.11613" lon="7.49274">
        <ele>1693</ele>
        <time>2017-09-17T12:11:46Z</time>
      </trkpt>
      <trkpt lat="44.11613" lon="7.49274">
        <ele>1693</ele>
        <time>2017-09-17T12:11:47Z</time>
      </trkpt>
      <trkpt lat="44.11613" lon="7.49274">
        <ele>1693</ele>
        <time>2017-09-17T12:11:48Z</time>
      </trkpt>
      <trkpt lat="44.11613" lon="7.49274">
        <ele>1693</ele>
        <time>2017-09-17T12:11:49Z</time>
      </trkpt>
      <trkpt lat="44.11613" lon="7.49274">
        <ele>1693</ele>
        <time>2017-09-17T12:11:50Z</time>
      </trkpt>
      <trkpt lat="44.11613" lon="7.49274">
        <ele>1693</ele>
        <time>2017-09-17T12:11:51Z</time>
      </trkpt>
      <trkpt lat="44.11613" lon="7.49274">
        <ele>1693</ele>
        <time>2017-09-17T12:11:52Z</time>
      </trkpt>
      <trkpt lat="44.11613" lon="7.49274">
        <ele>1693</ele>
        <time>2017-09-17T12:11:53Z</time>
      </trkpt>
      <trkpt lat="44.11613" lon="7.49274">
        <ele>1693</ele>
        <time>2017-09-17T12:11:54Z</time>
      </trkpt>
      <trkpt lat="44.11613" lon="7.49274">
        <ele>1693</ele>
        <time>2017-09-17T12:11:55Z</time>
      </trkpt>
      <trkpt lat="44.11613" lon="7.49274">
        <ele>1693</ele>
        <time>2017-09-17T12:11:56Z</time>
      </trkpt>
      <trkpt lat="44.11613" lon="7.49274">
        <ele>1693</ele>
        <time>2017-09-17T12:11:57Z</time>
      </trkpt>
      <trkpt lat="44.11613" lon="7.49273">
        <ele>1693</ele>
        <time>2017-09-17T12:11:58Z</time>
      </trkpt>
      <trkpt lat="44.11614" lon="7.49273">
        <ele>1693</ele>
        <time>2017-09-17T12:11:59Z</time>
      </trkpt>
      <trkpt lat="44.11614" lon="7.49272">
        <ele>1693</ele>
        <time>2017-09-17T12:12:00Z</time>
      </trkpt>
      <trkpt lat="44.11615" lon="7.49271">
        <ele>1693</ele>
        <time>2017-09-17T12:12:01Z</time>
      </trkpt>
      <trkpt lat="44.11615" lon="7.4927">
        <ele>1692</ele>
        <time>2017-09-17T12:12:02Z</time>
      </trkpt>
      <trkpt lat="44.11615" lon="7.4927">
        <ele>1692</ele>
        <time>2017-09-17T12:12:03Z</time>
      </trkpt>
      <trkpt lat="44.11615" lon="7.4927">
        <ele>1692</ele>
        <time>2017-09-17T12:12:04Z</time>
      </trkpt>
      <trkpt lat="44.11615" lon="7.4927">
        <ele>1692</ele>
        <time>2017-09-17T12:12:05Z</time>
      </trkpt>
      <trkpt lat="44.11615" lon="7.4927">
        <ele>1692</ele>
        <time>2017-09-17T12:12:06Z</time>
      </trkpt>
      <trkpt lat="44.11615" lon="7.4927">
        <ele>1692</ele>
        <time>2017-09-17T12:12:07Z</time>
      </trkpt>
      <trkpt lat="44.11615" lon="7.49271">
        <ele>1692</ele>
        <time>2017-09-17T12:12:08Z</time>
      </trkpt>
      <trkpt lat="44.11615" lon="7.49271">
        <ele>1692</ele>
        <time>2017-09-17T12:12:09Z</time>
      </trkpt>
      <trkpt lat="44.11615" lon="7.49271">
        <ele>1692</ele>
        <time>2017-09-17T12:12:10Z</time>
      </trkpt>
      <trkpt lat="44.11615" lon="7.49271">
        <ele>1692</ele>
        <time>2017-09-17T12:12:11Z</time>
      </trkpt>
      <trkpt lat="44.11615" lon="7.49271">
        <ele>1692</ele>
        <time>2017-09-17T12:12:12Z</time>
      </trkpt>
      <trkpt lat="44.11615" lon="7.49271">
        <ele>1692</ele>
        <time>2017-09-17T12:12:13Z</time>
      </trkpt>
      <trkpt lat="44.11615" lon="7.49271">
        <ele>1692</ele>
        <time>2017-09-17T12:12:14Z</time>
      </trkpt>
      <trkpt lat="44.11615" lon="7.49271">
        <ele>1692</ele>
        <time>2017-09-17T12:12:15Z</time>
      </trkpt>
      <trkpt lat="44.11615" lon="7.49271">
        <ele>1692</ele>
        <time>2017-09-17T12:12:16Z</time>
      </trkpt>
      <trkpt lat="44.11615" lon="7.49271">
        <ele>1692</ele>
        <time>2017-09-17T12:12:17Z</time>
      </trkpt>
      <trkpt lat="44.11615" lon="7.49271">
        <ele>1692</ele>
        <time>2017-09-17T12:12:18Z</time>
      </trkpt>
      <trkpt lat="44.11615" lon="7.49271">
        <ele>1692</ele>
        <time>2017-09-17T12:12:19Z</time>
      </trkpt>
      <trkpt lat="44.11615" lon="7.49271">
        <ele>1692</ele>
        <time>2017-09-17T12:12:20Z</time>
      </trkpt>
      <trkpt lat="44.11615" lon="7.49271">
        <ele>1692</ele>
        <time>2017-09-17T12:12:21Z</time>
      </trkpt>
      <trkpt lat="44.11615" lon="7.49271">
        <ele>1692</ele>
        <time>2017-09-17T12:12:22Z</time>
      </trkpt>
      <trkpt lat="44.11615" lon="7.49271">
        <ele>1692</ele>
        <time>2017-09-17T12:12:23Z</time>
      </trkpt>
      <trkpt lat="44.11616" lon="7.4927">
        <ele>1692</ele>
        <time>2017-09-17T12:12:24Z</time>
      </trkpt>
      <trkpt lat="44.11616" lon="7.49269">
        <ele>1692</ele>
        <time>2017-09-17T12:12:25Z</time>
      </trkpt>
      <trkpt lat="44.11617" lon="7.49268">
        <ele>1692</ele>
        <time>2017-09-17T12:12:26Z</time>
      </trkpt>
      <trkpt lat="44.11619" lon="7.49266">
        <ele>1692</ele>
        <time>2017-09-17T12:12:27Z</time>
      </trkpt>
      <trkpt lat="44.1162" lon="7.49264">
        <ele>1692</ele>
        <time>2017-09-17T12:12:28Z</time>
      </trkpt>
      <trkpt lat="44.11622" lon="7.4926">
        <ele>1692</ele>
        <time>2017-09-17T12:12:29Z</time>
      </trkpt>
      <trkpt lat="44.11624" lon="7.49256">
        <ele>1692</ele>
        <time>2017-09-17T12:12:30Z</time>
      </trkpt>
      <trkpt lat="44.11627" lon="7.49251">
        <ele>1692</ele>
        <time>2017-09-17T12:12:31Z</time>
      </trkpt>
      <trkpt lat="44.1163" lon="7.49245">
        <ele>1692</ele>
        <time>2017-09-17T12:12:32Z</time>
      </trkpt>
      <trkpt lat="44.11634" lon="7.49239">
        <ele>1692</ele>
        <time>2017-09-17T12:12:33Z</time>
      </trkpt>
      <trkpt lat="44.11637" lon="7.49231">
        <ele>1691</ele>
        <time>2017-09-17T12:12:34Z</time>
      </trkpt>
      <trkpt lat="44.11641" lon="7.49223">
        <ele>1691</ele>
        <time>2017-09-17T12:12:35Z</time>
      </trkpt>
      <trkpt lat="44.11645" lon="7.49214">
        <ele>1690</ele>
        <time>2017-09-17T12:12:36Z</time>
      </trkpt>
      <trkpt lat="44.11648" lon="7.49204">
        <ele>1690</ele>
        <time>2017-09-17T12:12:37Z</time>
      </trkpt>
      <trkpt lat="44.11651" lon="7.49194">
        <ele>1690</ele>
        <time>2017-09-17T12:12:38Z</time>
      </trkpt>
      <trkpt lat="44.11654" lon="7.49185">
        <ele>1689</ele>
        <time>2017-09-17T12:12:39Z</time>
      </trkpt>
      <trkpt lat="44.11658" lon="7.49175">
        <ele>1689</ele>
        <time>2017-09-17T12:12:40Z</time>
      </trkpt>
      <trkpt lat="44.11661" lon="7.49167">
        <ele>1689</ele>
        <time>2017-09-17T12:12:41Z</time>
      </trkpt>
      <trkpt lat="44.11665" lon="7.49158">
        <ele>1689</ele>
        <time>2017-09-17T12:12:42Z</time>
      </trkpt>
      <trkpt lat="44.11669" lon="7.4915">
        <ele>1689</ele>
        <time>2017-09-17T12:12:43Z</time>
      </trkpt>
      <trkpt lat="44.11672" lon="7.49143">
        <ele>1689</ele>
        <time>2017-09-17T12:12:44Z</time>
      </trkpt>
      <trkpt lat="44.11677" lon="7.49136">
        <ele>1688</ele>
        <time>2017-09-17T12:12:45Z</time>
      </trkpt>
      <trkpt lat="44.11681" lon="7.49129">
        <ele>1688</ele>
        <time>2017-09-17T12:12:46Z</time>
      </trkpt>
      <trkpt lat="44.11686" lon="7.49124">
        <ele>1688</ele>
        <time>2017-09-17T12:12:47Z</time>
      </trkpt>
      <trkpt lat="44.11691" lon="7.49118">
        <ele>1688</ele>
        <time>2017-09-17T12:12:48Z</time>
      </trkpt>
      <trkpt lat="44.11695" lon="7.49112">
        <ele>1688</ele>
        <time>2017-09-17T12:12:49Z</time>
      </trkpt>
      <trkpt lat="44.117" lon="7.49106">
        <ele>1688</ele>
        <time>2017-09-17T12:12:50Z</time>
      </trkpt>
      <trkpt lat="44.11703" lon="7.491">
        <ele>1688</ele>
        <time>2017-09-17T12:12:51Z</time>
      </trkpt>
      <trkpt lat="44.11707" lon="7.49093">
        <ele>1688</ele>
        <time>2017-09-17T12:12:52Z</time>
      </trkpt>
      <trkpt lat="44.1171" lon="7.49087">
        <ele>1688</ele>
        <time>2017-09-17T12:12:53Z</time>
      </trkpt>
      <trkpt lat="44.11712" lon="7.49079">
        <ele>1688</ele>
        <time>2017-09-17T12:12:54Z</time>
      </trkpt>
      <trkpt lat="44.11714" lon="7.49071">
        <ele>1687</ele>
        <time>2017-09-17T12:12:55Z</time>
      </trkpt>
      <trkpt lat="44.11714" lon="7.49063">
        <ele>1687</ele>
        <time>2017-09-17T12:12:56Z</time>
      </trkpt>
      <trkpt lat="44.11715" lon="7.49056">
        <ele>1687</ele>
        <time>2017-09-17T12:12:57Z</time>
      </trkpt>
      <trkpt lat="44.11716" lon="7.4905">
        <ele>1687</ele>
        <time>2017-09-17T12:12:58Z</time>
      </trkpt>
      <trkpt lat="44.11719" lon="7.49044">
        <ele>1687</ele>
        <time>2017-09-17T12:12:59Z</time>
      </trkpt>
      <trkpt lat="44.11723" lon="7.49041">
        <ele>1686</ele>
        <time>2017-09-17T12:13:00Z</time>
      </trkpt>
      <trkpt lat="44.11727" lon="7.49038">
        <ele>1686</ele>
        <time>2017-09-17T12:13:01Z</time>
      </trkpt>
      <trkpt lat="44.11732" lon="7.49036">
        <ele>1686</ele>
        <time>2017-09-17T12:13:02Z</time>
      </trkpt>
      <trkpt lat="44.11737" lon="7.49034">
        <ele>1686</ele>
        <time>2017-09-17T12:13:03Z</time>
      </trkpt>
      <trkpt lat="44.11743" lon="7.49033">
        <ele>1686</ele>
        <time>2017-09-17T12:13:04Z</time>
      </trkpt>
      <trkpt lat="44.11748" lon="7.49033">
        <ele>1686</ele>
        <time>2017-09-17T12:13:05Z</time>
      </trkpt>
      <trkpt lat="44.11754" lon="7.49036">
        <ele>1686</ele>
        <time>2017-09-17T12:13:06Z</time>
      </trkpt>
      <trkpt lat="44.11758" lon="7.4904">
        <ele>1686</ele>
        <time>2017-09-17T12:13:07Z</time>
      </trkpt>
      <trkpt lat="44.11762" lon="7.49044">
        <ele>1686</ele>
        <time>2017-09-17T12:13:08Z</time>
      </trkpt>
      <trkpt lat="44.11766" lon="7.49046">
        <ele>1685</ele>
        <time>2017-09-17T12:13:09Z</time>
      </trkpt>
      <trkpt lat="44.11772" lon="7.49045">
        <ele>1685</ele>
        <time>2017-09-17T12:13:10Z</time>
      </trkpt>
      <trkpt lat="44.11777" lon="7.49044">
        <ele>1685</ele>
        <time>2017-09-17T12:13:11Z</time>
      </trkpt>
      <trkpt lat="44.11782" lon="7.49042">
        <ele>1685</ele>
        <time>2017-09-17T12:13:12Z</time>
      </trkpt>
      <trkpt lat="44.11787" lon="7.4904">
        <ele>1685</ele>
        <time>2017-09-17T12:13:13Z</time>
      </trkpt>
      <trkpt lat="44.11792" lon="7.49037">
        <ele>1685</ele>
        <time>2017-09-17T12:13:14Z</time>
      </trkpt>
      <trkpt lat="44.11798" lon="7.49034">
        <ele>1685</ele>
        <time>2017-09-17T12:13:15Z</time>
      </trkpt>
      <trkpt lat="44.11803" lon="7.49032">
        <ele>1684</ele>
        <time>2017-09-17T12:13:16Z</time>
      </trkpt>
      <trkpt lat="44.11809" lon="7.49031">
        <ele>1684</ele>
        <time>2017-09-17T12:13:17Z</time>
      </trkpt>
      <trkpt lat="44.11814" lon="7.49031">
        <ele>1684</ele>
        <time>2017-09-17T12:13:18Z</time>
      </trkpt>
      <trkpt lat="44.1182" lon="7.49031">
        <ele>1684</ele>
        <time>2017-09-17T12:13:19Z</time>
      </trkpt>
      <trkpt lat="44.11825" lon="7.49031">
        <ele>1684</ele>
        <time>2017-09-17T12:13:20Z</time>
      </trkpt>
      <trkpt lat="44.1183" lon="7.4903">
        <ele>1684</ele>
        <time>2017-09-17T12:13:21Z</time>
      </trkpt>
      <trkpt lat="44.11836" lon="7.49029">
        <ele>1684</ele>
        <time>2017-09-17T12:13:22Z</time>
      </trkpt>
      <trkpt lat="44.11841" lon="7.49028">
        <ele>1684</ele>
        <time>2017-09-17T12:13:23Z</time>
      </trkpt>
      <trkpt lat="44.11846" lon="7.49027">
        <ele>1684</ele>
        <time>2017-09-17T12:13:24Z</time>
      </trkpt>
      <trkpt lat="44.1185" lon="7.49026">
        <ele>1684</ele>
        <time>2017-09-17T12:13:25Z</time>
      </trkpt>
      <trkpt lat="44.11855" lon="7.49025">
        <ele>1684</ele>
        <time>2017-09-17T12:13:26Z</time>
      </trkpt>
      <trkpt lat="44.1186" lon="7.49024">
        <ele>1685</ele>
        <time>2017-09-17T12:13:27Z</time>
      </trkpt>
      <trkpt lat="44.11864" lon="7.49023">
        <ele>1685</ele>
        <time>2017-09-17T12:13:28Z</time>
      </trkpt>
      <trkpt lat="44.11869" lon="7.49023">
        <ele>1685</ele>
        <time>2017-09-17T12:13:29Z</time>
      </trkpt>
      <trkpt lat="44.11873" lon="7.49021">
        <ele>1685</ele>
        <time>2017-09-17T12:13:30Z</time>
      </trkpt>
      <trkpt lat="44.11876" lon="7.4902">
        <ele>1685</ele>
        <time>2017-09-17T12:13:31Z</time>
      </trkpt>
      <trkpt lat="44.1188" lon="7.49021">
        <ele>1685</ele>
        <time>2017-09-17T12:13:32Z</time>
      </trkpt>
      <trkpt lat="44.11884" lon="7.49022">
        <ele>1685</ele>
        <time>2017-09-17T12:13:33Z</time>
      </trkpt>
      <trkpt lat="44.11887" lon="7.49025">
        <ele>1685</ele>
        <time>2017-09-17T12:13:34Z</time>
      </trkpt>
      <trkpt lat="44.1189" lon="7.49029">
        <ele>1685</ele>
        <time>2017-09-17T12:13:35Z</time>
      </trkpt>
      <trkpt lat="44.11891" lon="7.49035">
        <ele>1685</ele>
        <time>2017-09-17T12:13:36Z</time>
      </trkpt>
      <trkpt lat="44.11892" lon="7.49041">
        <ele>1685</ele>
        <time>2017-09-17T12:13:37Z</time>
      </trkpt>
      <trkpt lat="44.11893" lon="7.49047">
        <ele>1686</ele>
        <time>2017-09-17T12:13:38Z</time>
      </trkpt>
      <trkpt lat="44.11895" lon="7.49053">
        <ele>1686</ele>
        <time>2017-09-17T12:13:39Z</time>
      </trkpt>
      <trkpt lat="44.11896" lon="7.49058">
        <ele>1686</ele>
        <time>2017-09-17T12:13:40Z</time>
      </trkpt>
      <trkpt lat="44.11898" lon="7.49064">
        <ele>1686</ele>
        <time>2017-09-17T12:13:41Z</time>
      </trkpt>
      <trkpt lat="44.119" lon="7.4907">
        <ele>1687</ele>
        <time>2017-09-17T12:13:42Z</time>
      </trkpt>
      <trkpt lat="44.11901" lon="7.49075">
        <ele>1687</ele>
        <time>2017-09-17T12:13:43Z</time>
      </trkpt>
      <trkpt lat="44.11901" lon="7.49081">
        <ele>1687</ele>
        <time>2017-09-17T12:13:44Z</time>
      </trkpt>
      <trkpt lat="44.11901" lon="7.49086">
        <ele>1688</ele>
        <time>2017-09-17T12:13:45Z</time>
      </trkpt>
      <trkpt lat="44.11901" lon="7.49092">
        <ele>1688</ele>
        <time>2017-09-17T12:13:46Z</time>
      </trkpt>
      <trkpt lat="44.119" lon="7.49096">
        <ele>1688</ele>
        <time>2017-09-17T12:13:47Z</time>
      </trkpt>
      <trkpt lat="44.11898" lon="7.49099">
        <ele>1689</ele>
        <time>2017-09-17T12:13:48Z</time>
      </trkpt>
      <trkpt lat="44.11895" lon="7.49102">
        <ele>1689</ele>
        <time>2017-09-17T12:13:49Z</time>
      </trkpt>
      <trkpt lat="44.11892" lon="7.49103">
        <ele>1689</ele>
        <time>2017-09-17T12:13:50Z</time>
      </trkpt>
      <trkpt lat="44.11888" lon="7.49102">
        <ele>1689</ele>
        <time>2017-09-17T12:13:51Z</time>
      </trkpt>
      <trkpt lat="44.11885" lon="7.491">
        <ele>1690</ele>
        <time>2017-09-17T12:13:52Z</time>
      </trkpt>
      <trkpt lat="44.11881" lon="7.49099">
        <ele>1690</ele>
        <time>2017-09-17T12:13:53Z</time>
      </trkpt>
      <trkpt lat="44.11877" lon="7.491">
        <ele>1690</ele>
        <time>2017-09-17T12:13:54Z</time>
      </trkpt>
      <trkpt lat="44.11874" lon="7.49103">
        <ele>1690</ele>
        <time>2017-09-17T12:13:55Z</time>
      </trkpt>
      <trkpt lat="44.1187" lon="7.49107">
        <ele>1691</ele>
        <time>2017-09-17T12:13:56Z</time>
      </trkpt>
      <trkpt lat="44.11867" lon="7.49111">
        <ele>1691</ele>
        <time>2017-09-17T12:13:57Z</time>
      </trkpt>
      <trkpt lat="44.11865" lon="7.49116">
        <ele>1691</ele>
        <time>2017-09-17T12:13:58Z</time>
      </trkpt>
      <trkpt lat="44.11862" lon="7.49121">
        <ele>1691</ele>
        <time>2017-09-17T12:13:59Z</time>
      </trkpt>
      <trkpt lat="44.1186" lon="7.49126">
        <ele>1692</ele>
        <time>2017-09-17T12:14:00Z</time>
      </trkpt>
      <trkpt lat="44.11857" lon="7.49131">
        <ele>1692</ele>
        <time>2017-09-17T12:14:01Z</time>
      </trkpt>
      <trkpt lat="44.11855" lon="7.49135">
        <ele>1692</ele>
        <time>2017-09-17T12:14:02Z</time>
      </trkpt>
      <trkpt lat="44.11853" lon="7.4914">
        <ele>1693</ele>
        <time>2017-09-17T12:14:03Z</time>
      </trkpt>
      <trkpt lat="44.11851" lon="7.49146">
        <ele>1693</ele>
        <time>2017-09-17T12:14:04Z</time>
      </trkpt>
      <trkpt lat="44.11851" lon="7.49151">
        <ele>1693</ele>
        <time>2017-09-17T12:14:05Z</time>
      </trkpt>
      <trkpt lat="44.11851" lon="7.49157">
        <ele>1693</ele>
        <time>2017-09-17T12:14:06Z</time>
      </trkpt>
      <trkpt lat="44.11852" lon="7.49162">
        <ele>1694</ele>
        <time>2017-09-17T12:14:07Z</time>
      </trkpt>
      <trkpt lat="44.11854" lon="7.49167">
        <ele>1694</ele>
        <time>2017-09-17T12:14:08Z</time>
      </trkpt>
      <trkpt lat="44.11857" lon="7.49172">
        <ele>1694</ele>
        <time>2017-09-17T12:14:09Z</time>
      </trkpt>
      <trkpt lat="44.1186" lon="7.49175">
        <ele>1694</ele>
        <time>2017-09-17T12:14:10Z</time>
      </trkpt>
      <trkpt lat="44.11863" lon="7.49179">
        <ele>1695</ele>
        <time>2017-09-17T12:14:11Z</time>
      </trkpt>
      <trkpt lat="44.11866" lon="7.49182">
        <ele>1695</ele>
        <time>2017-09-17T12:14:12Z</time>
      </trkpt>
      <trkpt lat="44.11869" lon="7.49185">
        <ele>1695</ele>
        <time>2017-09-17T12:14:13Z</time>
      </trkpt>
      <trkpt lat="44.11872" lon="7.49188">
        <ele>1695</ele>
        <time>2017-09-17T12:14:14Z</time>
      </trkpt>
      <trkpt lat="44.11874" lon="7.49191">
        <ele>1696</ele>
        <time>2017-09-17T12:14:15Z</time>
      </trkpt>
      <trkpt lat="44.11877" lon="7.49194">
        <ele>1696</ele>
        <time>2017-09-17T12:14:16Z</time>
      </trkpt>
      <trkpt lat="44.1188" lon="7.49198">
        <ele>1696</ele>
        <time>2017-09-17T12:14:17Z</time>
      </trkpt>
      <trkpt lat="44.11883" lon="7.49202">
        <ele>1697</ele>
        <time>2017-09-17T12:14:18Z</time>
      </trkpt>
      <trkpt lat="44.11885" lon="7.49206">
        <ele>1697</ele>
        <time>2017-09-17T12:14:19Z</time>
      </trkpt>
      <trkpt lat="44.11888" lon="7.4921">
        <ele>1697</ele>
        <time>2017-09-17T12:14:20Z</time>
      </trkpt>
      <trkpt lat="44.11891" lon="7.49214">
        <ele>1698</ele>
        <time>2017-09-17T12:14:21Z</time>
      </trkpt>
      <trkpt lat="44.11893" lon="7.49218">
        <ele>1698</ele>
        <time>2017-09-17T12:14:22Z</time>
      </trkpt>
      <trkpt lat="44.11895" lon="7.49222">
        <ele>1698</ele>
        <time>2017-09-17T12:14:23Z</time>
      </trkpt>
      <trkpt lat="44.11897" lon="7.49226">
        <ele>1699</ele>
        <time>2017-09-17T12:14:24Z</time>
      </trkpt>
      <trkpt lat="44.119" lon="7.4923">
        <ele>1699</ele>
        <time>2017-09-17T12:14:25Z</time>
      </trkpt>
      <trkpt lat="44.11902" lon="7.49234">
        <ele>1699</ele>
        <time>2017-09-17T12:14:26Z</time>
      </trkpt>
      <trkpt lat="44.11905" lon="7.49238">
        <ele>1700</ele>
        <time>2017-09-17T12:14:27Z</time>
      </trkpt>
      <trkpt lat="44.11907" lon="7.49242">
        <ele>1700</ele>
        <time>2017-09-17T12:14:28Z</time>
      </trkpt>
      <trkpt lat="44.11909" lon="7.49247">
        <ele>1700</ele>
        <time>2017-09-17T12:14:29Z</time>
      </trkpt>
      <trkpt lat="44.11911" lon="7.49251">
        <ele>1701</ele>
        <time>2017-09-17T12:14:30Z</time>
      </trkpt>
      <trkpt lat="44.11913" lon="7.49255">
        <ele>1701</ele>
        <time>2017-09-17T12:14:31Z</time>
      </trkpt>
      <trkpt lat="44.11915" lon="7.4926">
        <ele>1701</ele>
        <time>2017-09-17T12:14:32Z</time>
      </trkpt>
      <trkpt lat="44.11916" lon="7.49264">
        <ele>1702</ele>
        <time>2017-09-17T12:14:33Z</time>
      </trkpt>
      <trkpt lat="44.11918" lon="7.49268">
        <ele>1702</ele>
        <time>2017-09-17T12:14:34Z</time>
      </trkpt>
      <trkpt lat="44.11919" lon="7.49273">
        <ele>1702</ele>
        <time>2017-09-17T12:14:35Z</time>
      </trkpt>
      <trkpt lat="44.1192" lon="7.49277">
        <ele>1703</ele>
        <time>2017-09-17T12:14:36Z</time>
      </trkpt>
      <trkpt lat="44.11921" lon="7.49282">
        <ele>1703</ele>
        <time>2017-09-17T12:14:37Z</time>
      </trkpt>
      <trkpt lat="44.11921" lon="7.49286">
        <ele>1703</ele>
        <time>2017-09-17T12:14:38Z</time>
      </trkpt>
      <trkpt lat="44.1192" lon="7.4929">
        <ele>1704</ele>
        <time>2017-09-17T12:14:39Z</time>
      </trkpt>
      <trkpt lat="44.11917" lon="7.49294">
        <ele>1704</ele>
        <time>2017-09-17T12:14:40Z</time>
      </trkpt>
      <trkpt lat="44.11915" lon="7.49297">
        <ele>1704</ele>
        <time>2017-09-17T12:14:41Z</time>
      </trkpt>
      <trkpt lat="44.11912" lon="7.49299">
        <ele>1704</ele>
        <time>2017-09-17T12:14:42Z</time>
      </trkpt>
      <trkpt lat="44.11909" lon="7.493">
        <ele>1705</ele>
        <time>2017-09-17T12:14:43Z</time>
      </trkpt>
      <trkpt lat="44.11905" lon="7.49302">
        <ele>1705</ele>
        <time>2017-09-17T12:14:44Z</time>
      </trkpt>
      <trkpt lat="44.11902" lon="7.49303">
        <ele>1705</ele>
        <time>2017-09-17T12:14:45Z</time>
      </trkpt>
      <trkpt lat="44.11899" lon="7.49305">
        <ele>1705</ele>
        <time>2017-09-17T12:14:46Z</time>
      </trkpt>
      <trkpt lat="44.11895" lon="7.49306">
        <ele>1706</ele>
        <time>2017-09-17T12:14:47Z</time>
      </trkpt>
      <trkpt lat="44.11892" lon="7.49308">
        <ele>1706</ele>
        <time>2017-09-17T12:14:48Z</time>
      </trkpt>
      <trkpt lat="44.11889" lon="7.49311">
        <ele>1706</ele>
        <time>2017-09-17T12:14:49Z</time>
      </trkpt>
      <trkpt lat="44.11886" lon="7.49314">
        <ele>1706</ele>
        <time>2017-09-17T12:14:50Z</time>
      </trkpt>
      <trkpt lat="44.11884" lon="7.49318">
        <ele>1707</ele>
        <time>2017-09-17T12:14:51Z</time>
      </trkpt>
      <trkpt lat="44.11882" lon="7.49322">
        <ele>1707</ele>
        <time>2017-09-17T12:14:52Z</time>
      </trkpt>
      <trkpt lat="44.11882" lon="7.49328">
        <ele>1707</ele>
        <time>2017-09-17T12:14:53Z</time>
      </trkpt>
      <trkpt lat="44.11882" lon="7.49333">
        <ele>1707</ele>
        <time>2017-09-17T12:14:54Z</time>
      </trkpt>
      <trkpt lat="44.11882" lon="7.49339">
        <ele>1708</ele>
        <time>2017-09-17T12:14:55Z</time>
      </trkpt>
      <trkpt lat="44.11881" lon="7.49345">
        <ele>1708</ele>
        <time>2017-09-17T12:14:56Z</time>
      </trkpt>
      <trkpt lat="44.11881" lon="7.49351">
        <ele>1708</ele>
        <time>2017-09-17T12:14:57Z</time>
      </trkpt>
      <trkpt lat="44.11881" lon="7.49356">
        <ele>1709</ele>
        <time>2017-09-17T12:14:58Z</time>
      </trkpt>
      <trkpt lat="44.1188" lon="7.49361">
        <ele>1709</ele>
        <time>2017-09-17T12:14:59Z</time>
      </trkpt>
      <trkpt lat="44.1188" lon="7.49366">
        <ele>1710</ele>
        <time>2017-09-17T12:15:00Z</time>
      </trkpt>
      <trkpt lat="44.11879" lon="7.49372">
        <ele>1710</ele>
        <time>2017-09-17T12:15:01Z</time>
      </trkpt>
      <trkpt lat="44.11877" lon="7.49377">
        <ele>1710</ele>
        <time>2017-09-17T12:15:02Z</time>
      </trkpt>
      <trkpt lat="44.11876" lon="7.49382">
        <ele>1711</ele>
        <time>2017-09-17T12:15:03Z</time>
      </trkpt>
      <trkpt lat="44.11875" lon="7.49387">
        <ele>1711</ele>
        <time>2017-09-17T12:15:04Z</time>
      </trkpt>
      <trkpt lat="44.11874" lon="7.49392">
        <ele>1712</ele>
        <time>2017-09-17T12:15:05Z</time>
      </trkpt>
      <trkpt lat="44.11873" lon="7.49397">
        <ele>1712</ele>
        <time>2017-09-17T12:15:06Z</time>
      </trkpt>
      <trkpt lat="44.11872" lon="7.49402">
        <ele>1713</ele>
        <time>2017-09-17T12:15:07Z</time>
      </trkpt>
      <trkpt lat="44.1187" lon="7.49407">
        <ele>1713</ele>
        <time>2017-09-17T12:15:08Z</time>
      </trkpt>
      <trkpt lat="44.11869" lon="7.49412">
        <ele>1714</ele>
        <time>2017-09-17T12:15:09Z</time>
      </trkpt>
      <trkpt lat="44.11868" lon="7.49417">
        <ele>1714</ele>
        <time>2017-09-17T12:15:10Z</time>
      </trkpt>
      <trkpt lat="44.11867" lon="7.49422">
        <ele>1714</ele>
        <time>2017-09-17T12:15:11Z</time>
      </trkpt>
      <trkpt lat="44.11866" lon="7.49428">
        <ele>1715</ele>
        <time>2017-09-17T12:15:12Z</time>
      </trkpt>
      <trkpt lat="44.11865" lon="7.49433">
        <ele>1715</ele>
        <time>2017-09-17T12:15:13Z</time>
      </trkpt>
      <trkpt lat="44.11864" lon="7.49438">
        <ele>1716</ele>
        <time>2017-09-17T12:15:14Z</time>
      </trkpt>
      <trkpt lat="44.11863" lon="7.49443">
        <ele>1716</ele>
        <time>2017-09-17T12:15:15Z</time>
      </trkpt>
      <trkpt lat="44.11863" lon="7.49449">
        <ele>1717</ele>
        <time>2017-09-17T12:15:16Z</time>
      </trkpt>
      <trkpt lat="44.11863" lon="7.49454">
        <ele>1717</ele>
        <time>2017-09-17T12:15:17Z</time>
      </trkpt>
      <trkpt lat="44.11862" lon="7.4946">
        <ele>1717</ele>
        <time>2017-09-17T12:15:18Z</time>
      </trkpt>
      <trkpt lat="44.11862" lon="7.49466">
        <ele>1718</ele>
        <time>2017-09-17T12:15:19Z</time>
      </trkpt>
      <trkpt lat="44.1186" lon="7.49471">
        <ele>1718</ele>
        <time>2017-09-17T12:15:20Z</time>
      </trkpt>
      <trkpt lat="44.11859" lon="7.49477">
        <ele>1718</ele>
        <time>2017-09-17T12:15:21Z</time>
      </trkpt>
      <trkpt lat="44.11858" lon="7.49482">
        <ele>1719</ele>
        <time>2017-09-17T12:15:22Z</time>
      </trkpt>
      <trkpt lat="44.11857" lon="7.49488">
        <ele>1719</ele>
        <time>2017-09-17T12:15:23Z</time>
      </trkpt>
      <trkpt lat="44.11856" lon="7.49493">
        <ele>1720</ele>
        <time>2017-09-17T12:15:24Z</time>
      </trkpt>
      <trkpt lat="44.11855" lon="7.49499">
        <ele>1720</ele>
        <time>2017-09-17T12:15:25Z</time>
      </trkpt>
      <trkpt lat="44.11854" lon="7.49504">
        <ele>1720</ele>
        <time>2017-09-17T12:15:26Z</time>
      </trkpt>
      <trkpt lat="44.11853" lon="7.4951">
        <ele>1721</ele>
        <time>2017-09-17T12:15:27Z</time>
      </trkpt>
      <trkpt lat="44.11852" lon="7.49515">
        <ele>1721</ele>
        <time>2017-09-17T12:15:28Z</time>
      </trkpt>
      <trkpt lat="44.11852" lon="7.49521">
        <ele>1721</ele>
        <time>2017-09-17T12:15:29Z</time>
      </trkpt>
      <trkpt lat="44.11851" lon="7.49526">
        <ele>1722</ele>
        <time>2017-09-17T12:15:30Z</time>
      </trkpt>
      <trkpt lat="44.1185" lon="7.49532">
        <ele>1722</ele>
        <time>2017-09-17T12:15:31Z</time>
      </trkpt>
      <trkpt lat="44.11848" lon="7.49537">
        <ele>1723</ele>
        <time>2017-09-17T12:15:32Z</time>
      </trkpt>
      <trkpt lat="44.11847" lon="7.49542">
        <ele>1723</ele>
        <time>2017-09-17T12:15:33Z</time>
      </trkpt>
      <trkpt lat="44.11844" lon="7.49546">
        <ele>1723</ele>
        <time>2017-09-17T12:15:34Z</time>
      </trkpt>
      <trkpt lat="44.11842" lon="7.49551">
        <ele>1724</ele>
        <time>2017-09-17T12:15:35Z</time>
      </trkpt>
      <trkpt lat="44.11839" lon="7.49555">
        <ele>1724</ele>
        <time>2017-09-17T12:15:36Z</time>
      </trkpt>
      <trkpt lat="44.11835" lon="7.49558">
        <ele>1724</ele>
        <time>2017-09-17T12:15:37Z</time>
      </trkpt>
      <trkpt lat="44.11832" lon="7.49561">
        <ele>1725</ele>
        <time>2017-09-17T12:15:38Z</time>
      </trkpt>
      <trkpt lat="44.11828" lon="7.49564">
        <ele>1725</ele>
        <time>2017-09-17T12:15:39Z</time>
      </trkpt>
      <trkpt lat="44.11824" lon="7.49568">
        <ele>1725</ele>
        <time>2017-09-17T12:15:40Z</time>
      </trkpt>
      <trkpt lat="44.11821" lon="7.49573">
        <ele>1725</ele>
        <time>2017-09-17T12:15:41Z</time>
      </trkpt>
      <trkpt lat="44.11819" lon="7.49579">
        <ele>1725</ele>
        <time>2017-09-17T12:15:42Z</time>
      </trkpt>
      <trkpt lat="44.11818" lon="7.49586">
        <ele>1725</ele>
        <time>2017-09-17T12:15:43Z</time>
      </trkpt>
      <trkpt lat="44.11818" lon="7.49593">
        <ele>1725</ele>
        <time>2017-09-17T12:15:44Z</time>
      </trkpt>
      <trkpt lat="44.11818" lon="7.496">
        <ele>1725</ele>
        <time>2017-09-17T12:15:45Z</time>
      </trkpt>
      <trkpt lat="44.11817" lon="7.49607">
        <ele>1725</ele>
        <time>2017-09-17T12:15:46Z</time>
      </trkpt>
      <trkpt lat="44.11816" lon="7.49614">
        <ele>1725</ele>
        <time>2017-09-17T12:15:47Z</time>
      </trkpt>
      <trkpt lat="44.11815" lon="7.49621">
        <ele>1725</ele>
        <time>2017-09-17T12:15:48Z</time>
      </trkpt>
      <trkpt lat="44.11813" lon="7.49627">
        <ele>1726</ele>
        <time>2017-09-17T12:15:49Z</time>
      </trkpt>
      <trkpt lat="44.11811" lon="7.49634">
        <ele>1726</ele>
        <time>2017-09-17T12:15:50Z</time>
      </trkpt>
      <trkpt lat="44.11809" lon="7.4964">
        <ele>1726</ele>
        <time>2017-09-17T12:15:51Z</time>
      </trkpt>
      <trkpt lat="44.11806" lon="7.49647">
        <ele>1726</ele>
        <time>2017-09-17T12:15:52Z</time>
      </trkpt>
      <trkpt lat="44.11802" lon="7.49652">
        <ele>1726</ele>
        <time>2017-09-17T12:15:53Z</time>
      </trkpt>
      <trkpt lat="44.11799" lon="7.49658">
        <ele>1726</ele>
        <time>2017-09-17T12:15:54Z</time>
      </trkpt>
      <trkpt lat="44.11796" lon="7.49664">
        <ele>1726</ele>
        <time>2017-09-17T12:15:55Z</time>
      </trkpt>
      <trkpt lat="44.11794" lon="7.4967">
        <ele>1726</ele>
        <time>2017-09-17T12:15:56Z</time>
      </trkpt>
      <trkpt lat="44.11791" lon="7.49677">
        <ele>1725</ele>
        <time>2017-09-17T12:15:57Z</time>
      </trkpt>
      <trkpt lat="44.11787" lon="7.49683">
        <ele>1725</ele>
        <time>2017-09-17T12:15:58Z</time>
      </trkpt>
      <trkpt lat="44.11784" lon="7.4969">
        <ele>1725</ele>
        <time>2017-09-17T12:15:59Z</time>
      </trkpt>
      <trkpt lat="44.11781" lon="7.49697">
        <ele>1725</ele>
        <time>2017-09-17T12:16:00Z</time>
      </trkpt>
      <trkpt lat="44.11779" lon="7.49704">
        <ele>1725</ele>
        <time>2017-09-17T12:16:01Z</time>
      </trkpt>
      <trkpt lat="44.11778" lon="7.49711">
        <ele>1725</ele>
        <time>2017-09-17T12:16:02Z</time>
      </trkpt>
      <trkpt lat="44.11777" lon="7.49719">
        <ele>1725</ele>
        <time>2017-09-17T12:16:03Z</time>
      </trkpt>
      <trkpt lat="44.11777" lon="7.49727">
        <ele>1725</ele>
        <time>2017-09-17T12:16:04Z</time>
      </trkpt>
      <trkpt lat="44.11776" lon="7.49735">
        <ele>1726</ele>
        <time>2017-09-17T12:16:05Z</time>
      </trkpt>
      <trkpt lat="44.11774" lon="7.49742">
        <ele>1726</ele>
        <time>2017-09-17T12:16:06Z</time>
      </trkpt>
      <trkpt lat="44.11771" lon="7.49748">
        <ele>1726</ele>
        <time>2017-09-17T12:16:07Z</time>
      </trkpt>
      <trkpt lat="44.11767" lon="7.49754">
        <ele>1726</ele>
        <time>2017-09-17T12:16:08Z</time>
      </trkpt>
      <trkpt lat="44.11764" lon="7.4976">
        <ele>1726</ele>
        <time>2017-09-17T12:16:09Z</time>
      </trkpt>
      <trkpt lat="44.11761" lon="7.49767">
        <ele>1727</ele>
        <time>2017-09-17T12:16:10Z</time>
      </trkpt>
      <trkpt lat="44.11758" lon="7.49773">
        <ele>1727</ele>
        <time>2017-09-17T12:16:11Z</time>
      </trkpt>
      <trkpt lat="44.11755" lon="7.49779">
        <ele>1727</ele>
        <time>2017-09-17T12:16:12Z</time>
      </trkpt>
      <trkpt lat="44.11753" lon="7.49784">
        <ele>1727</ele>
        <time>2017-09-17T12:16:13Z</time>
      </trkpt>
      <trkpt lat="44.11751" lon="7.49788">
        <ele>1728</ele>
        <time>2017-09-17T12:16:14Z</time>
      </trkpt>
      <trkpt lat="44.11749" lon="7.49793">
        <ele>1728</ele>
        <time>2017-09-17T12:16:15Z</time>
      </trkpt>
      <trkpt lat="44.11747" lon="7.49796">
        <ele>1728</ele>
        <time>2017-09-17T12:16:16Z</time>
      </trkpt>
      <trkpt lat="44.11744" lon="7.49799">
        <ele>1728</ele>
        <time>2017-09-17T12:16:17Z</time>
      </trkpt>
      <trkpt lat="44.11742" lon="7.49802">
        <ele>1728</ele>
        <time>2017-09-17T12:16:18Z</time>
      </trkpt>
      <trkpt lat="44.11739" lon="7.49805">
        <ele>1729</ele>
        <time>2017-09-17T12:16:19Z</time>
      </trkpt>
      <trkpt lat="44.11736" lon="7.49808">
        <ele>1729</ele>
        <time>2017-09-17T12:16:20Z</time>
      </trkpt>
      <trkpt lat="44.11735" lon="7.49812">
        <ele>1729</ele>
        <time>2017-09-17T12:16:21Z</time>
      </trkpt>
      <trkpt lat="44.11732" lon="7.49815">
        <ele>1730</ele>
        <time>2017-09-17T12:16:22Z</time>
      </trkpt>
      <trkpt lat="44.11729" lon="7.49819">
        <ele>1730</ele>
        <time>2017-09-17T12:16:23Z</time>
      </trkpt>
      <trkpt lat="44.11727" lon="7.49823">
        <ele>1730</ele>
        <time>2017-09-17T12:16:24Z</time>
      </trkpt>
      <trkpt lat="44.11724" lon="7.49826">
        <ele>1730</ele>
        <time>2017-09-17T12:16:25Z</time>
      </trkpt>
      <trkpt lat="44.11721" lon="7.49831">
        <ele>1730</ele>
        <time>2017-09-17T12:16:26Z</time>
      </trkpt>
      <trkpt lat="44.11719" lon="7.49836">
        <ele>1731</ele>
        <time>2017-09-17T12:16:27Z</time>
      </trkpt>
      <trkpt lat="44.11716" lon="7.4984">
        <ele>1731</ele>
        <time>2017-09-17T12:16:28Z</time>
      </trkpt>
      <trkpt lat="44.11713" lon="7.49845">
        <ele>1731</ele>
        <time>2017-09-17T12:16:29Z</time>
      </trkpt>
      <trkpt lat="44.1171" lon="7.4985">
        <ele>1731</ele>
        <time>2017-09-17T12:16:30Z</time>
      </trkpt>
      <trkpt lat="44.11708" lon="7.49856">
        <ele>1732</ele>
        <time>2017-09-17T12:16:31Z</time>
      </trkpt>
      <trkpt lat="44.11707" lon="7.49862">
        <ele>1732</ele>
        <time>2017-09-17T12:16:32Z</time>
      </trkpt>
      <trkpt lat="44.11705" lon="7.49868">
        <ele>1732</ele>
        <time>2017-09-17T12:16:33Z</time>
      </trkpt>
      <trkpt lat="44.11704" lon="7.49872">
        <ele>1733</ele>
        <time>2017-09-17T12:16:34Z</time>
      </trkpt>
      <trkpt lat="44.11704" lon="7.49877">
        <ele>1733</ele>
        <time>2017-09-17T12:16:35Z</time>
      </trkpt>
      <trkpt lat="44.11704" lon="7.49882">
        <ele>1734</ele>
        <time>2017-09-17T12:16:36Z</time>
      </trkpt>
      <trkpt lat="44.11705" lon="7.49888">
        <ele>1734</ele>
        <time>2017-09-17T12:16:37Z</time>
      </trkpt>
      <trkpt lat="44.11705" lon="7.49894">
        <ele>1734</ele>
        <time>2017-09-17T12:16:38Z</time>
      </trkpt>
      <trkpt lat="44.11705" lon="7.49899">
        <ele>1735</ele>
        <time>2017-09-17T12:16:39Z</time>
      </trkpt>
      <trkpt lat="44.11704" lon="7.49904">
        <ele>1735</ele>
        <time>2017-09-17T12:16:40Z</time>
      </trkpt>
      <trkpt lat="44.11704" lon="7.49908">
        <ele>1736</ele>
        <time>2017-09-17T12:16:41Z</time>
      </trkpt>
      <trkpt lat="44.11704" lon="7.49913">
        <ele>1736</ele>
        <time>2017-09-17T12:16:42Z</time>
      </trkpt>
      <trkpt lat="44.11703" lon="7.49918">
        <ele>1737</ele>
        <time>2017-09-17T12:16:43Z</time>
      </trkpt>
      <trkpt lat="44.11702" lon="7.49922">
        <ele>1737</ele>
        <time>2017-09-17T12:16:44Z</time>
      </trkpt>
      <trkpt lat="44.11701" lon="7.49927">
        <ele>1737</ele>
        <time>2017-09-17T12:16:45Z</time>
      </trkpt>
      <trkpt lat="44.11699" lon="7.49931">
        <ele>1738</ele>
        <time>2017-09-17T12:16:46Z</time>
      </trkpt>
      <trkpt lat="44.11696" lon="7.49935">
        <ele>1738</ele>
        <time>2017-09-17T12:16:47Z</time>
      </trkpt>
      <trkpt lat="44.11694" lon="7.49939">
        <ele>1739</ele>
        <time>2017-09-17T12:16:48Z</time>
      </trkpt>
      <trkpt lat="44.11693" lon="7.49943">
        <ele>1739</ele>
        <time>2017-09-17T12:16:49Z</time>
      </trkpt>
      <trkpt lat="44.11692" lon="7.49948">
        <ele>1740</ele>
        <time>2017-09-17T12:16:50Z</time>
      </trkpt>
      <trkpt lat="44.1169" lon="7.49952">
        <ele>1740</ele>
        <time>2017-09-17T12:16:51Z</time>
      </trkpt>
      <trkpt lat="44.11689" lon="7.49956">
        <ele>1740</ele>
        <time>2017-09-17T12:16:52Z</time>
      </trkpt>
      <trkpt lat="44.11687" lon="7.49961">
        <ele>1741</ele>
        <time>2017-09-17T12:16:53Z</time>
      </trkpt>
      <trkpt lat="44.11686" lon="7.49966">
        <ele>1741</ele>
        <time>2017-09-17T12:16:54Z</time>
      </trkpt>
      <trkpt lat="44.11685" lon="7.4997">
        <ele>1742</ele>
        <time>2017-09-17T12:16:55Z</time>
      </trkpt>
      <trkpt lat="44.11684" lon="7.49975">
        <ele>1742</ele>
        <time>2017-09-17T12:16:56Z</time>
      </trkpt>
      <trkpt lat="44.11683" lon="7.49979">
        <ele>1743</ele>
        <time>2017-09-17T12:16:57Z</time>
      </trkpt>
      <trkpt lat="44.11682" lon="7.49983">
        <ele>1743</ele>
        <time>2017-09-17T12:16:58Z</time>
      </trkpt>
      <trkpt lat="44.11682" lon="7.49988">
        <ele>1744</ele>
        <time>2017-09-17T12:16:59Z</time>
      </trkpt>
      <trkpt lat="44.11682" lon="7.49993">
        <ele>1744</ele>
        <time>2017-09-17T12:17:00Z</time>
      </trkpt>
      <trkpt lat="44.11682" lon="7.49997">
        <ele>1745</ele>
        <time>2017-09-17T12:17:01Z</time>
      </trkpt>
      <trkpt lat="44.11683" lon="7.50001">
        <ele>1745</ele>
        <time>2017-09-17T12:17:02Z</time>
      </trkpt>
      <trkpt lat="44.11683" lon="7.50005">
        <ele>1746</ele>
        <time>2017-09-17T12:17:03Z</time>
      </trkpt>
      <trkpt lat="44.11685" lon="7.50009">
        <ele>1746</ele>
        <time>2017-09-17T12:17:04Z</time>
      </trkpt>
      <trkpt lat="44.11687" lon="7.50014">
        <ele>1747</ele>
        <time>2017-09-17T12:17:05Z</time>
      </trkpt>
      <trkpt lat="44.11689" lon="7.50018">
        <ele>1747</ele>
        <time>2017-09-17T12:17:06Z</time>
      </trkpt>
      <trkpt lat="44.1169" lon="7.50022">
        <ele>1748</ele>
        <time>2017-09-17T12:17:07Z</time>
      </trkpt>
      <trkpt lat="44.11692" lon="7.50027">
        <ele>1748</ele>
        <time>2017-09-17T12:17:08Z</time>
      </trkpt>
      <trkpt lat="44.11694" lon="7.50033">
        <ele>1749</ele>
        <time>2017-09-17T12:17:09Z</time>
      </trkpt>
      <trkpt lat="44.11696" lon="7.50039">
        <ele>1749</ele>
        <time>2017-09-17T12:17:10Z</time>
      </trkpt>
      <trkpt lat="44.11698" lon="7.50044">
        <ele>1749</ele>
        <time>2017-09-17T12:17:11Z</time>
      </trkpt>
      <trkpt lat="44.11699" lon="7.50049">
        <ele>1750</ele>
        <time>2017-09-17T12:17:12Z</time>
      </trkpt>
      <trkpt lat="44.117" lon="7.50054">
        <ele>1750</ele>
        <time>2017-09-17T12:17:13Z</time>
      </trkpt>
      <trkpt lat="44.11702" lon="7.50059">
        <ele>1750</ele>
        <time>2017-09-17T12:17:14Z</time>
      </trkpt>
      <trkpt lat="44.11704" lon="7.50064">
        <ele>1751</ele>
        <time>2017-09-17T12:17:15Z</time>
      </trkpt>
      <trkpt lat="44.11706" lon="7.5007">
        <ele>1751</ele>
        <time>2017-09-17T12:17:16Z</time>
      </trkpt>
      <trkpt lat="44.11708" lon="7.50077">
        <ele>1752</ele>
        <time>2017-09-17T12:17:17Z</time>
      </trkpt>
      <trkpt lat="44.11709" lon="7.50084">
        <ele>1752</ele>
        <time>2017-09-17T12:17:18Z</time>
      </trkpt>
      <trkpt lat="44.1171" lon="7.5009">
        <ele>1753</ele>
        <time>2017-09-17T12:17:19Z</time>
      </trkpt>
      <trkpt lat="44.11711" lon="7.50096">
        <ele>1753</ele>
        <time>2017-09-17T12:17:20Z</time>
      </trkpt>
      <trkpt lat="44.11712" lon="7.50101">
        <ele>1753</ele>
        <time>2017-09-17T12:17:21Z</time>
      </trkpt>
      <trkpt lat="44.11712" lon="7.50106">
        <ele>1754</ele>
        <time>2017-09-17T12:17:22Z</time>
      </trkpt>
      <trkpt lat="44.11712" lon="7.50109">
        <ele>1755</ele>
        <time>2017-09-17T12:17:23Z</time>
      </trkpt>
      <trkpt lat="44.11712" lon="7.50112">
        <ele>1755</ele>
        <time>2017-09-17T12:17:24Z</time>
      </trkpt>
      <trkpt lat="44.11712" lon="7.50116">
        <ele>1756</ele>
        <time>2017-09-17T12:17:25Z</time>
      </trkpt>
      <trkpt lat="44.11712" lon="7.5012">
        <ele>1756</ele>
        <time>2017-09-17T12:17:26Z</time>
      </trkpt>
      <trkpt lat="44.11712" lon="7.50124">
        <ele>1757</ele>
        <time>2017-09-17T12:17:27Z</time>
      </trkpt>
      <trkpt lat="44.11713" lon="7.50128">
        <ele>1757</ele>
        <time>2017-09-17T12:17:28Z</time>
      </trkpt>
      <trkpt lat="44.11714" lon="7.50132">
        <ele>1758</ele>
        <time>2017-09-17T12:17:29Z</time>
      </trkpt>
      <trkpt lat="44.11715" lon="7.50136">
        <ele>1758</ele>
        <time>2017-09-17T12:17:30Z</time>
      </trkpt>
      <trkpt lat="44.11718" lon="7.50142">
        <ele>1758</ele>
        <time>2017-09-17T12:17:31Z</time>
      </trkpt>
      <trkpt lat="44.11721" lon="7.50148">
        <ele>1759</ele>
        <time>2017-09-17T12:17:32Z</time>
      </trkpt>
      <trkpt lat="44.11724" lon="7.50154">
        <ele>1759</ele>
        <time>2017-09-17T12:17:33Z</time>
      </trkpt>
      <trkpt lat="44.11727" lon="7.50159">
        <ele>1760</ele>
        <time>2017-09-17T12:17:34Z</time>
      </trkpt>
      <trkpt lat="44.1173" lon="7.50165">
        <ele>1760</ele>
        <time>2017-09-17T12:17:35Z</time>
      </trkpt>
      <trkpt lat="44.11734" lon="7.50169">
        <ele>1761</ele>
        <time>2017-09-17T12:17:36Z</time>
      </trkpt>
      <trkpt lat="44.11737" lon="7.50174">
        <ele>1761</ele>
        <time>2017-09-17T12:17:37Z</time>
      </trkpt>
      <trkpt lat="44.1174" lon="7.50179">
        <ele>1761</ele>
        <time>2017-09-17T12:17:38Z</time>
      </trkpt>
      <trkpt lat="44.11743" lon="7.50184">
        <ele>1762</ele>
        <time>2017-09-17T12:17:39Z</time>
      </trkpt>
      <trkpt lat="44.11745" lon="7.50189">
        <ele>1762</ele>
        <time>2017-09-17T12:17:40Z</time>
      </trkpt>
      <trkpt lat="44.11748" lon="7.50195">
        <ele>1762</ele>
        <time>2017-09-17T12:17:41Z</time>
      </trkpt>
      <trkpt lat="44.11749" lon="7.502">
        <ele>1763</ele>
        <time>2017-09-17T12:17:42Z</time>
      </trkpt>
      <trkpt lat="44.11751" lon="7.50206">
        <ele>1763</ele>
        <time>2017-09-17T12:17:43Z</time>
      </trkpt>
      <trkpt lat="44.11752" lon="7.50211">
        <ele>1763</ele>
        <time>2017-09-17T12:17:44Z</time>
      </trkpt>
      <trkpt lat="44.11753" lon="7.50216">
        <ele>1764</ele>
        <time>2017-09-17T12:17:45Z</time>
      </trkpt>
      <trkpt lat="44.11753" lon="7.50221">
        <ele>1764</ele>
        <time>2017-09-17T12:17:46Z</time>
      </trkpt>
      <trkpt lat="44.11753" lon="7.50225">
        <ele>1765</ele>
        <time>2017-09-17T12:17:47Z</time>
      </trkpt>
      <trkpt lat="44.11753" lon="7.5023">
        <ele>1765</ele>
        <time>2017-09-17T12:17:48Z</time>
      </trkpt>
      <trkpt lat="44.11754" lon="7.50235">
        <ele>1766</ele>
        <time>2017-09-17T12:17:49Z</time>
      </trkpt>
      <trkpt lat="44.11754" lon="7.5024">
        <ele>1766</ele>
        <time>2017-09-17T12:17:50Z</time>
      </trkpt>
      <trkpt lat="44.11754" lon="7.50246">
        <ele>1767</ele>
        <time>2017-09-17T12:17:51Z</time>
      </trkpt>
      <trkpt lat="44.11753" lon="7.50251">
        <ele>1767</ele>
        <time>2017-09-17T12:17:52Z</time>
      </trkpt>
      <trkpt lat="44.11752" lon="7.50255">
        <ele>1768</ele>
        <time>2017-09-17T12:17:53Z</time>
      </trkpt>
      <trkpt lat="44.1175" lon="7.50259">
        <ele>1768</ele>
        <time>2017-09-17T12:17:54Z</time>
      </trkpt>
      <trkpt lat="44.11748" lon="7.50264">
        <ele>1769</ele>
        <time>2017-09-17T12:17:55Z</time>
      </trkpt>
      <trkpt lat="44.11746" lon="7.50268">
        <ele>1769</ele>
        <time>2017-09-17T12:17:56Z</time>
      </trkpt>
      <trkpt lat="44.11743" lon="7.50272">
        <ele>1770</ele>
        <time>2017-09-17T12:17:57Z</time>
      </trkpt>
      <trkpt lat="44.11741" lon="7.50276">
        <ele>1770</ele>
        <time>2017-09-17T12:17:58Z</time>
      </trkpt>
      <trkpt lat="44.11738" lon="7.5028">
        <ele>1770</ele>
        <time>2017-09-17T12:17:59Z</time>
      </trkpt>
      <trkpt lat="44.11735" lon="7.50285">
        <ele>1771</ele>
        <time>2017-09-17T12:18:00Z</time>
      </trkpt>
      <trkpt lat="44.11734" lon="7.5029">
        <ele>1771</ele>
        <time>2017-09-17T12:18:01Z</time>
      </trkpt>
      <trkpt lat="44.11732" lon="7.50295">
        <ele>1771</ele>
        <time>2017-09-17T12:18:02Z</time>
      </trkpt>
      <trkpt lat="44.11732" lon="7.50301">
        <ele>1771</ele>
        <time>2017-09-17T12:18:03Z</time>
      </trkpt>
      <trkpt lat="44.11733" lon="7.50307">
        <ele>1771</ele>
        <time>2017-09-17T12:18:04Z</time>
      </trkpt>
      <trkpt lat="44.11735" lon="7.50313">
        <ele>1772</ele>
        <time>2017-09-17T12:18:05Z</time>
      </trkpt>
      <trkpt lat="44.11739" lon="7.50317">
        <ele>1772</ele>
        <time>2017-09-17T12:18:06Z</time>
      </trkpt>
      <trkpt lat="44.11743" lon="7.5032">
        <ele>1772</ele>
        <time>2017-09-17T12:18:07Z</time>
      </trkpt>
      <trkpt lat="44.11747" lon="7.50324">
        <ele>1773</ele>
        <time>2017-09-17T12:18:08Z</time>
      </trkpt>
      <trkpt lat="44.11751" lon="7.50328">
        <ele>1773</ele>
        <time>2017-09-17T12:18:09Z</time>
      </trkpt>
      <trkpt lat="44.11755" lon="7.50331">
        <ele>1773</ele>
        <time>2017-09-17T12:18:10Z</time>
      </trkpt>
      <trkpt lat="44.11758" lon="7.50334">
        <ele>1774</ele>
        <time>2017-09-17T12:18:11Z</time>
      </trkpt>
      <trkpt lat="44.11762" lon="7.50337">
        <ele>1774</ele>
        <time>2017-09-17T12:18:12Z</time>
      </trkpt>
      <trkpt lat="44.11766" lon="7.50339">
        <ele>1775</ele>
        <time>2017-09-17T12:18:13Z</time>
      </trkpt>
      <trkpt lat="44.1177" lon="7.50341">
        <ele>1775</ele>
        <time>2017-09-17T12:18:14Z</time>
      </trkpt>
      <trkpt lat="44.11774" lon="7.50342">
        <ele>1776</ele>
        <time>2017-09-17T12:18:15Z</time>
      </trkpt>
      <trkpt lat="44.11778" lon="7.50344">
        <ele>1776</ele>
        <time>2017-09-17T12:18:16Z</time>
      </trkpt>
      <trkpt lat="44.11781" lon="7.50346">
        <ele>1777</ele>
        <time>2017-09-17T12:18:17Z</time>
      </trkpt>
      <trkpt lat="44.11784" lon="7.50349">
        <ele>1777</ele>
        <time>2017-09-17T12:18:18Z</time>
      </trkpt>
      <trkpt lat="44.11787" lon="7.50352">
        <ele>1778</ele>
        <time>2017-09-17T12:18:19Z</time>
      </trkpt>
      <trkpt lat="44.11789" lon="7.50356">
        <ele>1778</ele>
        <time>2017-09-17T12:18:20Z</time>
      </trkpt>
      <trkpt lat="44.11791" lon="7.5036">
        <ele>1778</ele>
        <time>2017-09-17T12:18:21Z</time>
      </trkpt>
      <trkpt lat="44.1179" lon="7.50364">
        <ele>1779</ele>
        <time>2017-09-17T12:18:22Z</time>
      </trkpt>
      <trkpt lat="44.11789" lon="7.50369">
        <ele>1779</ele>
        <time>2017-09-17T12:18:23Z</time>
      </trkpt>
      <trkpt lat="44.11787" lon="7.50373">
        <ele>1779</ele>
        <time>2017-09-17T12:18:24Z</time>
      </trkpt>
      <trkpt lat="44.11785" lon="7.50378">
        <ele>1780</ele>
        <time>2017-09-17T12:18:25Z</time>
      </trkpt>
      <trkpt lat="44.11783" lon="7.50382">
        <ele>1780</ele>
        <time>2017-09-17T12:18:26Z</time>
      </trkpt>
      <trkpt lat="44.11781" lon="7.50386">
        <ele>1780</ele>
        <time>2017-09-17T12:18:27Z</time>
      </trkpt>
      <trkpt lat="44.11778" lon="7.5039">
        <ele>1781</ele>
        <time>2017-09-17T12:18:28Z</time>
      </trkpt>
      <trkpt lat="44.11776" lon="7.50394">
        <ele>1781</ele>
        <time>2017-09-17T12:18:29Z</time>
      </trkpt>
      <trkpt lat="44.11774" lon="7.50399">
        <ele>1782</ele>
        <time>2017-09-17T12:18:30Z</time>
      </trkpt>
      <trkpt lat="44.11771" lon="7.50403">
        <ele>1782</ele>
        <time>2017-09-17T12:18:31Z</time>
      </trkpt>
      <trkpt lat="44.11768" lon="7.50406">
        <ele>1783</ele>
        <time>2017-09-17T12:18:32Z</time>
      </trkpt>
      <trkpt lat="44.11765" lon="7.5041">
        <ele>1783</ele>
        <time>2017-09-17T12:18:33Z</time>
      </trkpt>
      <trkpt lat="44.11761" lon="7.50414">
        <ele>1784</ele>
        <time>2017-09-17T12:18:34Z</time>
      </trkpt>
      <trkpt lat="44.11758" lon="7.50418">
        <ele>1784</ele>
        <time>2017-09-17T12:18:35Z</time>
      </trkpt>
      <trkpt lat="44.11755" lon="7.50422">
        <ele>1784</ele>
        <time>2017-09-17T12:18:36Z</time>
      </trkpt>
      <trkpt lat="44.11753" lon="7.50427">
        <ele>1785</ele>
        <time>2017-09-17T12:18:37Z</time>
      </trkpt>
      <trkpt lat="44.11751" lon="7.50431">
        <ele>1785</ele>
        <time>2017-09-17T12:18:38Z</time>
      </trkpt>
      <trkpt lat="44.11748" lon="7.50435">
        <ele>1786</ele>
        <time>2017-09-17T12:18:39Z</time>
      </trkpt>
      <trkpt lat="44.11746" lon="7.50438">
        <ele>1786</ele>
        <time>2017-09-17T12:18:40Z</time>
      </trkpt>
      <trkpt lat="44.11743" lon="7.50442">
        <ele>1786</ele>
        <time>2017-09-17T12:18:41Z</time>
      </trkpt>
      <trkpt lat="44.11741" lon="7.50446">
        <ele>1787</ele>
        <time>2017-09-17T12:18:42Z</time>
      </trkpt>
      <trkpt lat="44.11738" lon="7.5045">
        <ele>1787</ele>
        <time>2017-09-17T12:18:43Z</time>
      </trkpt>
      <trkpt lat="44.11736" lon="7.50454">
        <ele>1788</ele>
        <time>2017-09-17T12:18:44Z</time>
      </trkpt>
      <trkpt lat="44.11734" lon="7.50458">
        <ele>1788</ele>
        <time>2017-09-17T12:18:45Z</time>
      </trkpt>
      <trkpt lat="44.11732" lon="7.50463">
        <ele>1789</ele>
        <time>2017-09-17T12:18:46Z</time>
      </trkpt>
      <trkpt lat="44.1173" lon="7.50467">
        <ele>1789</ele>
        <time>2017-09-17T12:18:47Z</time>
      </trkpt>
      <trkpt lat="44.11728" lon="7.50472">
        <ele>1790</ele>
        <time>2017-09-17T12:18:48Z</time>
      </trkpt>
      <trkpt lat="44.11726" lon="7.50477">
        <ele>1790</ele>
        <time>2017-09-17T12:18:49Z</time>
      </trkpt>
      <trkpt lat="44.11724" lon="7.5048">
        <ele>1790</ele>
        <time>2017-09-17T12:18:50Z</time>
      </trkpt>
      <trkpt lat="44.11721" lon="7.50484">
        <ele>1791</ele>
        <time>2017-09-17T12:18:51Z</time>
      </trkpt>
      <trkpt lat="44.11719" lon="7.50487">
        <ele>1791</ele>
        <time>2017-09-17T12:18:52Z</time>
      </trkpt>
      <trkpt lat="44.11717" lon="7.5049">
        <ele>1792</ele>
        <time>2017-09-17T12:18:53Z</time>
      </trkpt>
      <trkpt lat="44.11715" lon="7.50493">
        <ele>1793</ele>
        <time>2017-09-17T12:18:54Z</time>
      </trkpt>
      <trkpt lat="44.11713" lon="7.50496">
        <ele>1793</ele>
        <time>2017-09-17T12:18:55Z</time>
      </trkpt>
      <trkpt lat="44.1171" lon="7.50499">
        <ele>1793</ele>
        <time>2017-09-17T12:18:56Z</time>
      </trkpt>
      <trkpt lat="44.11708" lon="7.50503">
        <ele>1794</ele>
        <time>2017-09-17T12:18:57Z</time>
      </trkpt>
      <trkpt lat="44.11705" lon="7.50506">
        <ele>1794</ele>
        <time>2017-09-17T12:18:58Z</time>
      </trkpt>
      <trkpt lat="44.11703" lon="7.5051">
        <ele>1794</ele>
        <time>2017-09-17T12:18:59Z</time>
      </trkpt>
      <trkpt lat="44.11701" lon="7.50514">
        <ele>1795</ele>
        <time>2017-09-17T12:19:00Z</time>
      </trkpt>
      <trkpt lat="44.11698" lon="7.50518">
        <ele>1795</ele>
        <time>2017-09-17T12:19:01Z</time>
      </trkpt>
      <trkpt lat="44.11696" lon="7.50522">
        <ele>1795</ele>
        <time>2017-09-17T12:19:02Z</time>
      </trkpt>
      <trkpt lat="44.11693" lon="7.50525">
        <ele>1796</ele>
        <time>2017-09-17T12:19:03Z</time>
      </trkpt>
      <trkpt lat="44.1169" lon="7.50528">
        <ele>1796</ele>
        <time>2017-09-17T12:19:04Z</time>
      </trkpt>
      <trkpt lat="44.11687" lon="7.50531">
        <ele>1796</ele>
        <time>2017-09-17T12:19:05Z</time>
      </trkpt>
      <trkpt lat="44.11684" lon="7.50533">
        <ele>1797</ele>
        <time>2017-09-17T12:19:06Z</time>
      </trkpt>
      <trkpt lat="44.1168" lon="7.50534">
        <ele>1797</ele>
        <time>2017-09-17T12:19:07Z</time>
      </trkpt>
      <trkpt lat="44.11676" lon="7.50536">
        <ele>1797</ele>
        <time>2017-09-17T12:19:08Z</time>
      </trkpt>
      <trkpt lat="44.11673" lon="7.50537">
        <ele>1798</ele>
        <time>2017-09-17T12:19:09Z</time>
      </trkpt>
      <trkpt lat="44.11669" lon="7.50539">
        <ele>1798</ele>
        <time>2017-09-17T12:19:10Z</time>
      </trkpt>
      <trkpt lat="44.11666" lon="7.50539">
        <ele>1798</ele>
        <time>2017-09-17T12:19:11Z</time>
      </trkpt>
      <trkpt lat="44.11663" lon="7.5054">
        <ele>1799</ele>
        <time>2017-09-17T12:19:12Z</time>
      </trkpt>
      <trkpt lat="44.1166" lon="7.50543">
        <ele>1799</ele>
        <time>2017-09-17T12:19:13Z</time>
      </trkpt>
      <trkpt lat="44.11659" lon="7.50546">
        <ele>1799</ele>
        <time>2017-09-17T12:19:14Z</time>
      </trkpt>
      <trkpt lat="44.11657" lon="7.5055">
        <ele>1800</ele>
        <time>2017-09-17T12:19:15Z</time>
      </trkpt>
      <trkpt lat="44.11656" lon="7.50554">
        <ele>1800</ele>
        <time>2017-09-17T12:19:16Z</time>
      </trkpt>
      <trkpt lat="44.11654" lon="7.50558">
        <ele>1800</ele>
        <time>2017-09-17T12:19:17Z</time>
      </trkpt>
      <trkpt lat="44.11652" lon="7.50561">
        <ele>1800</ele>
        <time>2017-09-17T12:19:18Z</time>
      </trkpt>
      <trkpt lat="44.11651" lon="7.50564">
        <ele>1801</ele>
        <time>2017-09-17T12:19:19Z</time>
      </trkpt>
      <trkpt lat="44.1165" lon="7.50567">
        <ele>1801</ele>
        <time>2017-09-17T12:19:20Z</time>
      </trkpt>
      <trkpt lat="44.11651" lon="7.50571">
        <ele>1802</ele>
        <time>2017-09-17T12:19:21Z</time>
      </trkpt>
      <trkpt lat="44.11651" lon="7.50575">
        <ele>1802</ele>
        <time>2017-09-17T12:19:22Z</time>
      </trkpt>
      <trkpt lat="44.11651" lon="7.50579">
        <ele>1803</ele>
        <time>2017-09-17T12:19:23Z</time>
      </trkpt>
      <trkpt lat="44.11651" lon="7.50584">
        <ele>1803</ele>
        <time>2017-09-17T12:19:24Z</time>
      </trkpt>
      <trkpt lat="44.11649" lon="7.50589">
        <ele>1803</ele>
        <time>2017-09-17T12:19:25Z</time>
      </trkpt>
      <trkpt lat="44.11647" lon="7.50594">
        <ele>1804</ele>
        <time>2017-09-17T12:19:26Z</time>
      </trkpt>
      <trkpt lat="44.11645" lon="7.50599">
        <ele>1804</ele>
        <time>2017-09-17T12:19:27Z</time>
      </trkpt>
      <trkpt lat="44.11643" lon="7.50603">
        <ele>1805</ele>
        <time>2017-09-17T12:19:28Z</time>
      </trkpt>
      <trkpt lat="44.11643" lon="7.50608">
        <ele>1805</ele>
        <time>2017-09-17T12:19:29Z</time>
      </trkpt>
      <trkpt lat="44.11644" lon="7.50613">
        <ele>1805</ele>
        <time>2017-09-17T12:19:30Z</time>
      </trkpt>
      <trkpt lat="44.11644" lon="7.50617">
        <ele>1806</ele>
        <time>2017-09-17T12:19:31Z</time>
      </trkpt>
      <trkpt lat="44.11645" lon="7.50622">
        <ele>1806</ele>
        <time>2017-09-17T12:19:32Z</time>
      </trkpt>
      <trkpt lat="44.11646" lon="7.50627">
        <ele>1807</ele>
        <time>2017-09-17T12:19:33Z</time>
      </trkpt>
      <trkpt lat="44.11647" lon="7.50631">
        <ele>1807</ele>
        <time>2017-09-17T12:19:34Z</time>
      </trkpt>
      <trkpt lat="44.11648" lon="7.50636">
        <ele>1808</ele>
        <time>2017-09-17T12:19:35Z</time>
      </trkpt>
      <trkpt lat="44.11649" lon="7.50641">
        <ele>1808</ele>
        <time>2017-09-17T12:19:36Z</time>
      </trkpt>
      <trkpt lat="44.11649" lon="7.50646">
        <ele>1808</ele>
        <time>2017-09-17T12:19:37Z</time>
      </trkpt>
      <trkpt lat="44.11649" lon="7.50651">
        <ele>1809</ele>
        <time>2017-09-17T12:19:38Z</time>
      </trkpt>
      <trkpt lat="44.11648" lon="7.50656">
        <ele>1809</ele>
        <time>2017-09-17T12:19:39Z</time>
      </trkpt>
      <trkpt lat="44.11647" lon="7.50661">
        <ele>1810</ele>
        <time>2017-09-17T12:19:40Z</time>
      </trkpt>
      <trkpt lat="44.11645" lon="7.50665">
        <ele>1810</ele>
        <time>2017-09-17T12:19:41Z</time>
      </trkpt>
      <trkpt lat="44.11644" lon="7.5067">
        <ele>1811</ele>
        <time>2017-09-17T12:19:42Z</time>
      </trkpt>
      <trkpt lat="44.11642" lon="7.50674">
        <ele>1811</ele>
        <time>2017-09-17T12:19:43Z</time>
      </trkpt>
      <trkpt lat="44.11641" lon="7.50679">
        <ele>1812</ele>
        <time>2017-09-17T12:19:44Z</time>
      </trkpt>
      <trkpt lat="44.1164" lon="7.50684">
        <ele>1812</ele>
        <time>2017-09-17T12:19:45Z</time>
      </trkpt>
      <trkpt lat="44.1164" lon="7.50689">
        <ele>1813</ele>
        <time>2017-09-17T12:19:46Z</time>
      </trkpt>
      <trkpt lat="44.1164" lon="7.50693">
        <ele>1813</ele>
        <time>2017-09-17T12:19:47Z</time>
      </trkpt>
      <trkpt lat="44.11641" lon="7.50697">
        <ele>1813</ele>
        <time>2017-09-17T12:19:48Z</time>
      </trkpt>
      <trkpt lat="44.11642" lon="7.50702">
        <ele>1814</ele>
        <time>2017-09-17T12:19:49Z</time>
      </trkpt>
      <trkpt lat="44.11642" lon="7.50706">
        <ele>1814</ele>
        <time>2017-09-17T12:19:50Z</time>
      </trkpt>
      <trkpt lat="44.11641" lon="7.50711">
        <ele>1814</ele>
        <time>2017-09-17T12:19:51Z</time>
      </trkpt>
      <trkpt lat="44.1164" lon="7.50715">
        <ele>1814</ele>
        <time>2017-09-17T12:19:52Z</time>
      </trkpt>
      <trkpt lat="44.11639" lon="7.50719">
        <ele>1814</ele>
        <time>2017-09-17T12:19:53Z</time>
      </trkpt>
      <trkpt lat="44.11639" lon="7.50723">
        <ele>1815</ele>
        <time>2017-09-17T12:19:54Z</time>
      </trkpt>
      <trkpt lat="44.11638" lon="7.50727">
        <ele>1815</ele>
        <time>2017-09-17T12:19:55Z</time>
      </trkpt>
      <trkpt lat="44.11638" lon="7.50727">
        <ele>1816</ele>
        <time>2017-09-17T12:20:05Z</time>
      </trkpt>
      <trkpt lat="44.11638" lon="7.50727">
        <ele>1816</ele>
        <time>2017-09-17T12:20:06Z</time>
      </trkpt>
      <trkpt lat="44.11627" lon="7.50778">
        <ele>1817</ele>
        <time>2017-09-17T12:20:07Z</time>
      </trkpt>
      <trkpt lat="44.11625" lon="7.50784">
        <ele>1819</ele>
        <time>2017-09-17T12:20:08Z</time>
      </trkpt>
      <trkpt lat="44.11622" lon="7.50791">
        <ele>1821</ele>
        <time>2017-09-17T12:20:09Z</time>
      </trkpt>
      <trkpt lat="44.11619" lon="7.50796">
        <ele>1823</ele>
        <time>2017-09-17T12:20:10Z</time>
      </trkpt>
      <trkpt lat="44.11615" lon="7.50801">
        <ele>1826</ele>
        <time>2017-09-17T12:20:11Z</time>
      </trkpt>
      <trkpt lat="44.11612" lon="7.50805">
        <ele>1828</ele>
        <time>2017-09-17T12:20:12Z</time>
      </trkpt>
      <trkpt lat="44.11609" lon="7.50808">
        <ele>1829</ele>
        <time>2017-09-17T12:20:13Z</time>
      </trkpt>
      <trkpt lat="44.11606" lon="7.5081">
        <ele>1831</ele>
        <time>2017-09-17T12:20:14Z</time>
      </trkpt>
      <trkpt lat="44.11603" lon="7.50813">
        <ele>1832</ele>
        <time>2017-09-17T12:20:15Z</time>
      </trkpt>
      <trkpt lat="44.116" lon="7.50815">
        <ele>1834</ele>
        <time>2017-09-17T12:20:16Z</time>
      </trkpt>
      <trkpt lat="44.11598" lon="7.50817">
        <ele>1835</ele>
        <time>2017-09-17T12:20:17Z</time>
      </trkpt>
      <trkpt lat="44.11595" lon="7.5082">
        <ele>1835</ele>
        <time>2017-09-17T12:20:18Z</time>
      </trkpt>
      <trkpt lat="44.11592" lon="7.50822">
        <ele>1836</ele>
        <time>2017-09-17T12:20:19Z</time>
      </trkpt>
      <trkpt lat="44.1159" lon="7.50825">
        <ele>1837</ele>
        <time>2017-09-17T12:20:20Z</time>
      </trkpt>
      <trkpt lat="44.11587" lon="7.50827">
        <ele>1838</ele>
        <time>2017-09-17T12:20:21Z</time>
      </trkpt>
      <trkpt lat="44.11585" lon="7.5083">
        <ele>1838</ele>
        <time>2017-09-17T12:20:22Z</time>
      </trkpt>
      <trkpt lat="44.11582" lon="7.50832">
        <ele>1839</ele>
        <time>2017-09-17T12:20:23Z</time>
      </trkpt>
      <trkpt lat="44.11579" lon="7.50834">
        <ele>1840</ele>
        <time>2017-09-17T12:20:24Z</time>
      </trkpt>
      <trkpt lat="44.11576" lon="7.50836">
        <ele>1840</ele>
        <time>2017-09-17T12:20:25Z</time>
      </trkpt>
      <trkpt lat="44.11573" lon="7.50837">
        <ele>1841</ele>
        <time>2017-09-17T12:20:26Z</time>
      </trkpt>
      <trkpt lat="44.11571" lon="7.50837">
        <ele>1842</ele>
        <time>2017-09-17T12:20:27Z</time>
      </trkpt>
      <trkpt lat="44.11568" lon="7.50837">
        <ele>1843</ele>
        <time>2017-09-17T12:20:28Z</time>
      </trkpt>
      <trkpt lat="44.11565" lon="7.50836">
        <ele>1844</ele>
        <time>2017-09-17T12:20:29Z</time>
      </trkpt>
      <trkpt lat="44.11562" lon="7.50837">
        <ele>1845</ele>
        <time>2017-09-17T12:20:30Z</time>
      </trkpt>
      <trkpt lat="44.11559" lon="7.50837">
        <ele>1847</ele>
        <time>2017-09-17T12:20:31Z</time>
      </trkpt>
      <trkpt lat="44.11556" lon="7.50838">
        <ele>1848</ele>
        <time>2017-09-17T12:20:32Z</time>
      </trkpt>
      <trkpt lat="44.11553" lon="7.50838">
        <ele>1849</ele>
        <time>2017-09-17T12:20:33Z</time>
      </trkpt>
      <trkpt lat="44.1155" lon="7.50839">
        <ele>1850</ele>
        <time>2017-09-17T12:20:34Z</time>
      </trkpt>
      <trkpt lat="44.11546" lon="7.5084">
        <ele>1850</ele>
        <time>2017-09-17T12:20:35Z</time>
      </trkpt>
      <trkpt lat="44.11543" lon="7.50841">
        <ele>1849</ele>
        <time>2017-09-17T12:20:36Z</time>
      </trkpt>
      <trkpt lat="44.11539" lon="7.50843">
        <ele>1849</ele>
        <time>2017-09-17T12:20:37Z</time>
      </trkpt>
      <trkpt lat="44.11536" lon="7.50846">
        <ele>1848</ele>
        <time>2017-09-17T12:20:38Z</time>
      </trkpt>
      <trkpt lat="44.11533" lon="7.50848">
        <ele>1848</ele>
        <time>2017-09-17T12:20:39Z</time>
      </trkpt>
      <trkpt lat="44.11529" lon="7.5085">
        <ele>1847</ele>
        <time>2017-09-17T12:20:40Z</time>
      </trkpt>
      <trkpt lat="44.11526" lon="7.50851">
        <ele>1847</ele>
        <time>2017-09-17T12:20:41Z</time>
      </trkpt>
      <trkpt lat="44.11523" lon="7.50852">
        <ele>1847</ele>
        <time>2017-09-17T12:20:42Z</time>
      </trkpt>
      <trkpt lat="44.1152" lon="7.50853">
        <ele>1846</ele>
        <time>2017-09-17T12:20:43Z</time>
      </trkpt>
      <trkpt lat="44.11517" lon="7.50855">
        <ele>1846</ele>
        <time>2017-09-17T12:20:44Z</time>
      </trkpt>
      <trkpt lat="44.11514" lon="7.50856">
        <ele>1846</ele>
        <time>2017-09-17T12:20:45Z</time>
      </trkpt>
      <trkpt lat="44.1151" lon="7.50857">
        <ele>1846</ele>
        <time>2017-09-17T12:20:46Z</time>
      </trkpt>
      <trkpt lat="44.11506" lon="7.50859">
        <ele>1846</ele>
        <time>2017-09-17T12:20:47Z</time>
      </trkpt>
      <trkpt lat="44.11502" lon="7.50862">
        <ele>1846</ele>
        <time>2017-09-17T12:20:48Z</time>
      </trkpt>
      <trkpt lat="44.11498" lon="7.50865">
        <ele>1846</ele>
        <time>2017-09-17T12:20:49Z</time>
      </trkpt>
      <trkpt lat="44.11493" lon="7.50867">
        <ele>1846</ele>
        <time>2017-09-17T12:20:50Z</time>
      </trkpt>
      <trkpt lat="44.11489" lon="7.5087">
        <ele>1845</ele>
        <time>2017-09-17T12:20:51Z</time>
      </trkpt>
      <trkpt lat="44.11485" lon="7.50872">
        <ele>1845</ele>
        <time>2017-09-17T12:20:52Z</time>
      </trkpt>
      <trkpt lat="44.1148" lon="7.50875">
        <ele>1846</ele>
        <time>2017-09-17T12:20:53Z</time>
      </trkpt>
      <trkpt lat="44.11476" lon="7.50878">
        <ele>1846</ele>
        <time>2017-09-17T12:20:54Z</time>
      </trkpt>
      <trkpt lat="44.11472" lon="7.50881">
        <ele>1846</ele>
        <time>2017-09-17T12:20:55Z</time>
      </trkpt>
      <trkpt lat="44.11467" lon="7.50884">
        <ele>1846</ele>
        <time>2017-09-17T12:20:56Z</time>
      </trkpt>
      <trkpt lat="44.11462" lon="7.50886">
        <ele>1846</ele>
        <time>2017-09-17T12:20:57Z</time>
      </trkpt>
      <trkpt lat="44.11457" lon="7.50887">
        <ele>1846</ele>
        <time>2017-09-17T12:20:58Z</time>
      </trkpt>
      <trkpt lat="44.11451" lon="7.50888">
        <ele>1847</ele>
        <time>2017-09-17T12:20:59Z</time>
      </trkpt>
      <trkpt lat="44.11446" lon="7.50888">
        <ele>1847</ele>
        <time>2017-09-17T12:21:00Z</time>
      </trkpt>
      <trkpt lat="44.11441" lon="7.50889">
        <ele>1847</ele>
        <time>2017-09-17T12:21:01Z</time>
      </trkpt>
      <trkpt lat="44.11436" lon="7.50888">
        <ele>1848</ele>
        <time>2017-09-17T12:21:02Z</time>
      </trkpt>
      <trkpt lat="44.11432" lon="7.50888">
        <ele>1848</ele>
        <time>2017-09-17T12:21:03Z</time>
      </trkpt>
      <trkpt lat="44.11427" lon="7.50888">
        <ele>1849</ele>
        <time>2017-09-17T12:21:04Z</time>
      </trkpt>
      <trkpt lat="44.11422" lon="7.50888">
        <ele>1849</ele>
        <time>2017-09-17T12:21:05Z</time>
      </trkpt>
      <trkpt lat="44.11417" lon="7.50888">
        <ele>1849</ele>
        <time>2017-09-17T12:21:06Z</time>
      </trkpt>
      <trkpt lat="44.11413" lon="7.50888">
        <ele>1849</ele>
        <time>2017-09-17T12:21:07Z</time>
      </trkpt>
      <trkpt lat="44.11407" lon="7.50889">
        <ele>1850</ele>
        <time>2017-09-17T12:21:08Z</time>
      </trkpt>
      <trkpt lat="44.11402" lon="7.50892">
        <ele>1850</ele>
        <time>2017-09-17T12:21:09Z</time>
      </trkpt>
      <trkpt lat="44.11397" lon="7.50895">
        <ele>1851</ele>
        <time>2017-09-17T12:21:10Z</time>
      </trkpt>
      <trkpt lat="44.11394" lon="7.509">
        <ele>1851</ele>
        <time>2017-09-17T12:21:11Z</time>
      </trkpt>
      <trkpt lat="44.11392" lon="7.50905">
        <ele>1851</ele>
        <time>2017-09-17T12:21:12Z</time>
      </trkpt>
      <trkpt lat="44.11391" lon="7.50912">
        <ele>1852</ele>
        <time>2017-09-17T12:21:13Z</time>
      </trkpt>
      <trkpt lat="44.1139" lon="7.50918">
        <ele>1852</ele>
        <time>2017-09-17T12:21:14Z</time>
      </trkpt>
      <trkpt lat="44.1139" lon="7.50925">
        <ele>1853</ele>
        <time>2017-09-17T12:21:15Z</time>
      </trkpt>
      <trkpt lat="44.11389" lon="7.50932">
        <ele>1853</ele>
        <time>2017-09-17T12:21:16Z</time>
      </trkpt>
      <trkpt lat="44.11387" lon="7.50939">
        <ele>1853</ele>
        <time>2017-09-17T12:21:17Z</time>
      </trkpt>
      <trkpt lat="44.11386" lon="7.50945">
        <ele>1854</ele>
        <time>2017-09-17T12:21:18Z</time>
      </trkpt>
      <trkpt lat="44.11385" lon="7.50951">
        <ele>1854</ele>
        <time>2017-09-17T12:21:19Z</time>
      </trkpt>
      <trkpt lat="44.11383" lon="7.50957">
        <ele>1855</ele>
        <time>2017-09-17T12:21:20Z</time>
      </trkpt>
      <trkpt lat="44.11381" lon="7.50964">
        <ele>1855</ele>
        <time>2017-09-17T12:21:21Z</time>
      </trkpt>
      <trkpt lat="44.1138" lon="7.5097">
        <ele>1856</ele>
        <time>2017-09-17T12:21:22Z</time>
      </trkpt>
      <trkpt lat="44.11378" lon="7.50977">
        <ele>1856</ele>
        <time>2017-09-17T12:21:23Z</time>
      </trkpt>
      <trkpt lat="44.11378" lon="7.50983">
        <ele>1856</ele>
        <time>2017-09-17T12:21:24Z</time>
      </trkpt>
      <trkpt lat="44.11378" lon="7.5099">
        <ele>1857</ele>
        <time>2017-09-17T12:21:25Z</time>
      </trkpt>
      <trkpt lat="44.11379" lon="7.50998">
        <ele>1857</ele>
        <time>2017-09-17T12:21:26Z</time>
      </trkpt>
      <trkpt lat="44.11379" lon="7.51005">
        <ele>1858</ele>
        <time>2017-09-17T12:21:27Z</time>
      </trkpt>
      <trkpt lat="44.11379" lon="7.51012">
        <ele>1858</ele>
        <time>2017-09-17T12:21:28Z</time>
      </trkpt>
      <trkpt lat="44.11377" lon="7.51019">
        <ele>1859</ele>
        <time>2017-09-17T12:21:29Z</time>
      </trkpt>
      <trkpt lat="44.11375" lon="7.51025">
        <ele>1859</ele>
        <time>2017-09-17T12:21:30Z</time>
      </trkpt>
      <trkpt lat="44.11372" lon="7.51031">
        <ele>1860</ele>
        <time>2017-09-17T12:21:31Z</time>
      </trkpt>
      <trkpt lat="44.1137" lon="7.51037">
        <ele>1861</ele>
        <time>2017-09-17T12:21:32Z</time>
      </trkpt>
      <trkpt lat="44.11368" lon="7.51044">
        <ele>1861</ele>
        <time>2017-09-17T12:21:33Z</time>
      </trkpt>
      <trkpt lat="44.11366" lon="7.51051">
        <ele>1861</ele>
        <time>2017-09-17T12:21:34Z</time>
      </trkpt>
      <trkpt lat="44.11365" lon="7.51057">
        <ele>1862</ele>
        <time>2017-09-17T12:21:35Z</time>
      </trkpt>
      <trkpt lat="44.11365" lon="7.51064">
        <ele>1862</ele>
        <time>2017-09-17T12:21:36Z</time>
      </trkpt>
      <trkpt lat="44.11366" lon="7.5107">
        <ele>1863</ele>
        <time>2017-09-17T12:21:37Z</time>
      </trkpt>
      <trkpt lat="44.11368" lon="7.51076">
        <ele>1863</ele>
        <time>2017-09-17T12:21:38Z</time>
      </trkpt>
      <trkpt lat="44.11371" lon="7.51081">
        <ele>1864</ele>
        <time>2017-09-17T12:21:39Z</time>
      </trkpt>
      <trkpt lat="44.11374" lon="7.51087">
        <ele>1864</ele>
        <time>2017-09-17T12:21:40Z</time>
      </trkpt>
      <trkpt lat="44.11377" lon="7.51092">
        <ele>1865</ele>
        <time>2017-09-17T12:21:41Z</time>
      </trkpt>
      <trkpt lat="44.1138" lon="7.51096">
        <ele>1865</ele>
        <time>2017-09-17T12:21:42Z</time>
      </trkpt>
      <trkpt lat="44.11384" lon="7.511">
        <ele>1866</ele>
        <time>2017-09-17T12:21:43Z</time>
      </trkpt>
      <trkpt lat="44.11387" lon="7.51104">
        <ele>1866</ele>
        <time>2017-09-17T12:21:44Z</time>
      </trkpt>
      <trkpt lat="44.1139" lon="7.51109">
        <ele>1867</ele>
        <time>2017-09-17T12:21:45Z</time>
      </trkpt>
      <trkpt lat="44.11393" lon="7.51114">
        <ele>1867</ele>
        <time>2017-09-17T12:21:46Z</time>
      </trkpt>
      <trkpt lat="44.11396" lon="7.5112">
        <ele>1868</ele>
        <time>2017-09-17T12:21:47Z</time>
      </trkpt>
      <trkpt lat="44.11397" lon="7.51126">
        <ele>1868</ele>
        <time>2017-09-17T12:21:48Z</time>
      </trkpt>
      <trkpt lat="44.11398" lon="7.51133">
        <ele>1869</ele>
        <time>2017-09-17T12:21:49Z</time>
      </trkpt>
      <trkpt lat="44.11399" lon="7.5114">
        <ele>1870</ele>
        <time>2017-09-17T12:21:50Z</time>
      </trkpt>
      <trkpt lat="44.11398" lon="7.51147">
        <ele>1870</ele>
        <time>2017-09-17T12:21:51Z</time>
      </trkpt>
      <trkpt lat="44.11397" lon="7.51154">
        <ele>1871</ele>
        <time>2017-09-17T12:21:52Z</time>
      </trkpt>
      <trkpt lat="44.11395" lon="7.51161">
        <ele>1872</ele>
        <time>2017-09-17T12:21:53Z</time>
      </trkpt>
      <trkpt lat="44.11394" lon="7.51168">
        <ele>1872</ele>
        <time>2017-09-17T12:21:54Z</time>
      </trkpt>
      <trkpt lat="44.11393" lon="7.51175">
        <ele>1873</ele>
        <time>2017-09-17T12:21:55Z</time>
      </trkpt>
      <trkpt lat="44.11393" lon="7.51182">
        <ele>1874</ele>
        <time>2017-09-17T12:21:56Z</time>
      </trkpt>
      <trkpt lat="44.11394" lon="7.51188">
        <ele>1874</ele>
        <time>2017-09-17T12:21:57Z</time>
      </trkpt>
      <trkpt lat="44.11395" lon="7.51195">
        <ele>1875</ele>
        <time>2017-09-17T12:21:58Z</time>
      </trkpt>
      <trkpt lat="44.11396" lon="7.51202">
        <ele>1876</ele>
        <time>2017-09-17T12:21:59Z</time>
      </trkpt>
      <trkpt lat="44.11398" lon="7.51208">
        <ele>1877</ele>
        <time>2017-09-17T12:22:00Z</time>
      </trkpt>
      <trkpt lat="44.11397" lon="7.51215">
        <ele>1877</ele>
        <time>2017-09-17T12:22:01Z</time>
      </trkpt>
      <trkpt lat="44.11396" lon="7.51222">
        <ele>1878</ele>
        <time>2017-09-17T12:22:02Z</time>
      </trkpt>
      <trkpt lat="44.11393" lon="7.51228">
        <ele>1879</ele>
        <time>2017-09-17T12:22:03Z</time>
      </trkpt>
      <trkpt lat="44.11389" lon="7.51233">
        <ele>1879</ele>
        <time>2017-09-17T12:22:04Z</time>
      </trkpt>
      <trkpt lat="44.11385" lon="7.51237">
        <ele>1880</ele>
        <time>2017-09-17T12:22:05Z</time>
      </trkpt>
      <trkpt lat="44.11382" lon="7.51242">
        <ele>1880</ele>
        <time>2017-09-17T12:22:06Z</time>
      </trkpt>
      <trkpt lat="44.11378" lon="7.51248">
        <ele>1881</ele>
        <time>2017-09-17T12:22:07Z</time>
      </trkpt>
      <trkpt lat="44.11375" lon="7.51253">
        <ele>1881</ele>
        <time>2017-09-17T12:22:08Z</time>
      </trkpt>
      <trkpt lat="44.11372" lon="7.51258">
        <ele>1882</ele>
        <time>2017-09-17T12:22:09Z</time>
      </trkpt>
      <trkpt lat="44.11369" lon="7.51263">
        <ele>1882</ele>
        <time>2017-09-17T12:22:10Z</time>
      </trkpt>
      <trkpt lat="44.11366" lon="7.51269">
        <ele>1883</ele>
        <time>2017-09-17T12:22:11Z</time>
      </trkpt>
      <trkpt lat="44.11363" lon="7.51273">
        <ele>1883</ele>
        <time>2017-09-17T12:22:12Z</time>
      </trkpt>
      <trkpt lat="44.1136" lon="7.51279">
        <ele>1883</ele>
        <time>2017-09-17T12:22:13Z</time>
      </trkpt>
      <trkpt lat="44.11356" lon="7.51284">
        <ele>1884</ele>
        <time>2017-09-17T12:22:14Z</time>
      </trkpt>
      <trkpt lat="44.11352" lon="7.51288">
        <ele>1884</ele>
        <time>2017-09-17T12:22:15Z</time>
      </trkpt>
      <trkpt lat="44.11349" lon="7.51293">
        <ele>1885</ele>
        <time>2017-09-17T12:22:16Z</time>
      </trkpt>
      <trkpt lat="44.11345" lon="7.51299">
        <ele>1885</ele>
        <time>2017-09-17T12:22:17Z</time>
      </trkpt>
      <trkpt lat="44.11343" lon="7.51305">
        <ele>1886</ele>
        <time>2017-09-17T12:22:18Z</time>
      </trkpt>
      <trkpt lat="44.1134" lon="7.51311">
        <ele>1886</ele>
        <time>2017-09-17T12:22:19Z</time>
      </trkpt>
      <trkpt lat="44.11337" lon="7.51316">
        <ele>1887</ele>
        <time>2017-09-17T12:22:20Z</time>
      </trkpt>
      <trkpt lat="44.11334" lon="7.51322">
        <ele>1887</ele>
        <time>2017-09-17T12:22:21Z</time>
      </trkpt>
      <trkpt lat="44.11332" lon="7.51328">
        <ele>1887</ele>
        <time>2017-09-17T12:22:22Z</time>
      </trkpt>
      <trkpt lat="44.11331" lon="7.51335">
        <ele>1888</ele>
        <time>2017-09-17T12:22:23Z</time>
      </trkpt>
      <trkpt lat="44.1133" lon="7.51341">
        <ele>1888</ele>
        <time>2017-09-17T12:22:24Z</time>
      </trkpt>
      <trkpt lat="44.11331" lon="7.51347">
        <ele>1889</ele>
        <time>2017-09-17T12:22:25Z</time>
      </trkpt>
      <trkpt lat="44.11332" lon="7.51354">
        <ele>1890</ele>
        <time>2017-09-17T12:22:26Z</time>
      </trkpt>
      <trkpt lat="44.11333" lon="7.51361">
        <ele>1890</ele>
        <time>2017-09-17T12:22:27Z</time>
      </trkpt>
      <trkpt lat="44.11333" lon="7.51368">
        <ele>1891</ele>
        <time>2017-09-17T12:22:28Z</time>
      </trkpt>
      <trkpt lat="44.11334" lon="7.51376">
        <ele>1891</ele>
        <time>2017-09-17T12:22:29Z</time>
      </trkpt>
      <trkpt lat="44.11333" lon="7.51382">
        <ele>1892</ele>
        <time>2017-09-17T12:22:30Z</time>
      </trkpt>
      <trkpt lat="44.11332" lon="7.51389">
        <ele>1893</ele>
        <time>2017-09-17T12:22:31Z</time>
      </trkpt>
      <trkpt lat="44.11329" lon="7.51393">
        <ele>1893</ele>
        <time>2017-09-17T12:22:32Z</time>
      </trkpt>
      <trkpt lat="44.11325" lon="7.51395">
        <ele>1894</ele>
        <time>2017-09-17T12:22:33Z</time>
      </trkpt>
      <trkpt lat="44.1132" lon="7.51396">
        <ele>1895</ele>
        <time>2017-09-17T12:22:34Z</time>
      </trkpt>
      <trkpt lat="44.11315" lon="7.51398">
        <ele>1895</ele>
        <time>2017-09-17T12:22:35Z</time>
      </trkpt>
      <trkpt lat="44.1131" lon="7.514">
        <ele>1896</ele>
        <time>2017-09-17T12:22:36Z</time>
      </trkpt>
      <trkpt lat="44.11306" lon="7.51405">
        <ele>1897</ele>
        <time>2017-09-17T12:22:37Z</time>
      </trkpt>
      <trkpt lat="44.11302" lon="7.5141">
        <ele>1898</ele>
        <time>2017-09-17T12:22:38Z</time>
      </trkpt>
      <trkpt lat="44.11299" lon="7.51416">
        <ele>1898</ele>
        <time>2017-09-17T12:22:39Z</time>
      </trkpt>
      <trkpt lat="44.11296" lon="7.51422">
        <ele>1899</ele>
        <time>2017-09-17T12:22:40Z</time>
      </trkpt>
      <trkpt lat="44.11293" lon="7.51427">
        <ele>1900</ele>
        <time>2017-09-17T12:22:41Z</time>
      </trkpt>
      <trkpt lat="44.1129" lon="7.51433">
        <ele>1900</ele>
        <time>2017-09-17T12:22:42Z</time>
      </trkpt>
      <trkpt lat="44.11286" lon="7.51438">
        <ele>1901</ele>
        <time>2017-09-17T12:22:43Z</time>
      </trkpt>
      <trkpt lat="44.11283" lon="7.51443">
        <ele>1901</ele>
        <time>2017-09-17T12:22:44Z</time>
      </trkpt>
      <trkpt lat="44.1128" lon="7.51449">
        <ele>1902</ele>
        <time>2017-09-17T12:22:45Z</time>
      </trkpt>
      <trkpt lat="44.11276" lon="7.51454">
        <ele>1903</ele>
        <time>2017-09-17T12:22:46Z</time>
      </trkpt>
      <trkpt lat="44.11272" lon="7.51458">
        <ele>1903</ele>
        <time>2017-09-17T12:22:47Z</time>
      </trkpt>
      <trkpt lat="44.11269" lon="7.51464">
        <ele>1904</ele>
        <time>2017-09-17T12:22:48Z</time>
      </trkpt>
      <trkpt lat="44.11265" lon="7.51468">
        <ele>1904</ele>
        <time>2017-09-17T12:22:49Z</time>
      </trkpt>
      <trkpt lat="44.11261" lon="7.51473">
        <ele>1905</ele>
        <time>2017-09-17T12:22:50Z</time>
      </trkpt>
      <trkpt lat="44.11257" lon="7.51478">
        <ele>1905</ele>
        <time>2017-09-17T12:22:51Z</time>
      </trkpt>
      <trkpt lat="44.11253" lon="7.51482">
        <ele>1906</ele>
        <time>2017-09-17T12:22:52Z</time>
      </trkpt>
      <trkpt lat="44.11249" lon="7.51486">
        <ele>1906</ele>
        <time>2017-09-17T12:22:53Z</time>
      </trkpt>
      <trkpt lat="44.11244" lon="7.51491">
        <ele>1907</ele>
        <time>2017-09-17T12:22:54Z</time>
      </trkpt>
      <trkpt lat="44.11239" lon="7.51495">
        <ele>1907</ele>
        <time>2017-09-17T12:22:55Z</time>
      </trkpt>
      <trkpt lat="44.11235" lon="7.515">
        <ele>1908</ele>
        <time>2017-09-17T12:22:56Z</time>
      </trkpt>
      <trkpt lat="44.11231" lon="7.51506">
        <ele>1908</ele>
        <time>2017-09-17T12:22:57Z</time>
      </trkpt>
      <trkpt lat="44.11228" lon="7.51512">
        <ele>1909</ele>
        <time>2017-09-17T12:22:58Z</time>
      </trkpt>
      <trkpt lat="44.11225" lon="7.51518">
        <ele>1910</ele>
        <time>2017-09-17T12:22:59Z</time>
      </trkpt>
      <trkpt lat="44.11222" lon="7.51523">
        <ele>1910</ele>
        <time>2017-09-17T12:23:00Z</time>
      </trkpt>
      <trkpt lat="44.11218" lon="7.51527">
        <ele>1911</ele>
        <time>2017-09-17T12:23:01Z</time>
      </trkpt>
      <trkpt lat="44.11213" lon="7.51529">
        <ele>1911</ele>
        <time>2017-09-17T12:23:02Z</time>
      </trkpt>
      <trkpt lat="44.11208" lon="7.51528">
        <ele>1912</ele>
        <time>2017-09-17T12:23:03Z</time>
      </trkpt>
      <trkpt lat="44.11204" lon="7.51525">
        <ele>1913</ele>
        <time>2017-09-17T12:23:04Z</time>
      </trkpt>
      <trkpt lat="44.11199" lon="7.51522">
        <ele>1913</ele>
        <time>2017-09-17T12:23:05Z</time>
      </trkpt>
      <trkpt lat="44.11194" lon="7.51519">
        <ele>1914</ele>
        <time>2017-09-17T12:23:06Z</time>
      </trkpt>
      <trkpt lat="44.11188" lon="7.51517">
        <ele>1915</ele>
        <time>2017-09-17T12:23:07Z</time>
      </trkpt>
      <trkpt lat="44.11183" lon="7.51515">
        <ele>1915</ele>
        <time>2017-09-17T12:23:08Z</time>
      </trkpt>
      <trkpt lat="44.11177" lon="7.51513">
        <ele>1916</ele>
        <time>2017-09-17T12:23:09Z</time>
      </trkpt>
      <trkpt lat="44.11172" lon="7.51513">
        <ele>1916</ele>
        <time>2017-09-17T12:23:10Z</time>
      </trkpt>
      <trkpt lat="44.11166" lon="7.51512">
        <ele>1917</ele>
        <time>2017-09-17T12:23:11Z</time>
      </trkpt>
      <trkpt lat="44.1116" lon="7.51511">
        <ele>1918</ele>
        <time>2017-09-17T12:23:12Z</time>
      </trkpt>
      <trkpt lat="44.11154" lon="7.5151">
        <ele>1918</ele>
        <time>2017-09-17T12:23:13Z</time>
      </trkpt>
      <trkpt lat="44.1115" lon="7.51509">
        <ele>1919</ele>
        <time>2017-09-17T12:23:14Z</time>
      </trkpt>
      <trkpt lat="44.11145" lon="7.51509">
        <ele>1920</ele>
        <time>2017-09-17T12:23:15Z</time>
      </trkpt>
      <trkpt lat="44.1114" lon="7.5151">
        <ele>1920</ele>
        <time>2017-09-17T12:23:16Z</time>
      </trkpt>
      <trkpt lat="44.11135" lon="7.51511">
        <ele>1921</ele>
        <time>2017-09-17T12:23:17Z</time>
      </trkpt>
      <trkpt lat="44.11129" lon="7.51512">
        <ele>1922</ele>
        <time>2017-09-17T12:23:18Z</time>
      </trkpt>
      <trkpt lat="44.11124" lon="7.51514">
        <ele>1922</ele>
        <time>2017-09-17T12:23:19Z</time>
      </trkpt>
      <trkpt lat="44.11119" lon="7.51516">
        <ele>1923</ele>
        <time>2017-09-17T12:23:20Z</time>
      </trkpt>
      <trkpt lat="44.11115" lon="7.51518">
        <ele>1923</ele>
        <time>2017-09-17T12:23:21Z</time>
      </trkpt>
      <trkpt lat="44.1111" lon="7.5152">
        <ele>1924</ele>
        <time>2017-09-17T12:23:22Z</time>
      </trkpt>
      <trkpt lat="44.11105" lon="7.51523">
        <ele>1924</ele>
        <time>2017-09-17T12:23:23Z</time>
      </trkpt>
      <trkpt lat="44.111" lon="7.51527">
        <ele>1924</ele>
        <time>2017-09-17T12:23:24Z</time>
      </trkpt>
      <trkpt lat="44.11096" lon="7.5153">
        <ele>1925</ele>
        <time>2017-09-17T12:23:25Z</time>
      </trkpt>
      <trkpt lat="44.11091" lon="7.51535">
        <ele>1925</ele>
        <time>2017-09-17T12:23:26Z</time>
      </trkpt>
      <trkpt lat="44.11087" lon="7.51538">
        <ele>1926</ele>
        <time>2017-09-17T12:23:27Z</time>
      </trkpt>
      <trkpt lat="44.11082" lon="7.51541">
        <ele>1926</ele>
        <time>2017-09-17T12:23:28Z</time>
      </trkpt>
      <trkpt lat="44.11077" lon="7.51544">
        <ele>1927</ele>
        <time>2017-09-17T12:23:29Z</time>
      </trkpt>
      <trkpt lat="44.11073" lon="7.51547">
        <ele>1927</ele>
        <time>2017-09-17T12:23:30Z</time>
      </trkpt>
      <trkpt lat="44.11068" lon="7.51551">
        <ele>1927</ele>
        <time>2017-09-17T12:23:31Z</time>
      </trkpt>
      <trkpt lat="44.11063" lon="7.51555">
        <ele>1927</ele>
        <time>2017-09-17T12:23:32Z</time>
      </trkpt>
      <trkpt lat="44.11059" lon="7.51559">
        <ele>1928</ele>
        <time>2017-09-17T12:23:33Z</time>
      </trkpt>
      <trkpt lat="44.11054" lon="7.51563">
        <ele>1928</ele>
        <time>2017-09-17T12:23:34Z</time>
      </trkpt>
      <trkpt lat="44.11049" lon="7.51566">
        <ele>1928</ele>
        <time>2017-09-17T12:23:35Z</time>
      </trkpt>
      <trkpt lat="44.11044" lon="7.51567">
        <ele>1929</ele>
        <time>2017-09-17T12:23:36Z</time>
      </trkpt>
      <trkpt lat="44.11038" lon="7.51569">
        <ele>1929</ele>
        <time>2017-09-17T12:23:37Z</time>
      </trkpt>
      <trkpt lat="44.11033" lon="7.51571">
        <ele>1930</ele>
        <time>2017-09-17T12:23:38Z</time>
      </trkpt>
      <trkpt lat="44.11027" lon="7.51573">
        <ele>1930</ele>
        <time>2017-09-17T12:23:39Z</time>
      </trkpt>
      <trkpt lat="44.11022" lon="7.51574">
        <ele>1931</ele>
        <time>2017-09-17T12:23:40Z</time>
      </trkpt>
      <trkpt lat="44.11016" lon="7.51576">
        <ele>1931</ele>
        <time>2017-09-17T12:23:41Z</time>
      </trkpt>
      <trkpt lat="44.11011" lon="7.51578">
        <ele>1932</ele>
        <time>2017-09-17T12:23:42Z</time>
      </trkpt>
      <trkpt lat="44.11006" lon="7.5158">
        <ele>1932</ele>
        <time>2017-09-17T12:23:43Z</time>
      </trkpt>
      <trkpt lat="44.11" lon="7.51581">
        <ele>1933</ele>
        <time>2017-09-17T12:23:44Z</time>
      </trkpt>
      <trkpt lat="44.10995" lon="7.51582">
        <ele>1933</ele>
        <time>2017-09-17T12:23:45Z</time>
      </trkpt>
      <trkpt lat="44.1099" lon="7.51583">
        <ele>1934</ele>
        <time>2017-09-17T12:23:46Z</time>
      </trkpt>
      <trkpt lat="44.10984" lon="7.51585">
        <ele>1934</ele>
        <time>2017-09-17T12:23:47Z</time>
      </trkpt>
      <trkpt lat="44.10979" lon="7.51586">
        <ele>1935</ele>
        <time>2017-09-17T12:23:48Z</time>
      </trkpt>
      <trkpt lat="44.10974" lon="7.51589">
        <ele>1935</ele>
        <time>2017-09-17T12:23:49Z</time>
      </trkpt>
      <trkpt lat="44.1097" lon="7.51592">
        <ele>1936</ele>
        <time>2017-09-17T12:23:50Z</time>
      </trkpt>
      <trkpt lat="44.10965" lon="7.51595">
        <ele>1936</ele>
        <time>2017-09-17T12:23:51Z</time>
      </trkpt>
      <trkpt lat="44.10961" lon="7.51601">
        <ele>1937</ele>
        <time>2017-09-17T12:23:52Z</time>
      </trkpt>
      <trkpt lat="44.10957" lon="7.51606">
        <ele>1937</ele>
        <time>2017-09-17T12:23:53Z</time>
      </trkpt>
      <trkpt lat="44.10953" lon="7.51611">
        <ele>1937</ele>
        <time>2017-09-17T12:23:54Z</time>
      </trkpt>
      <trkpt lat="44.1095" lon="7.51616">
        <ele>1937</ele>
        <time>2017-09-17T12:23:55Z</time>
      </trkpt>
      <trkpt lat="44.10947" lon="7.51622">
        <ele>1938</ele>
        <time>2017-09-17T12:23:56Z</time>
      </trkpt>
      <trkpt lat="44.10944" lon="7.51628">
        <ele>1938</ele>
        <time>2017-09-17T12:23:57Z</time>
      </trkpt>
      <trkpt lat="44.10941" lon="7.51635">
        <ele>1938</ele>
        <time>2017-09-17T12:23:58Z</time>
      </trkpt>
      <trkpt lat="44.1094" lon="7.51642">
        <ele>1938</ele>
        <time>2017-09-17T12:23:59Z</time>
      </trkpt>
      <trkpt lat="44.1094" lon="7.5165">
        <ele>1939</ele>
        <time>2017-09-17T12:24:00Z</time>
      </trkpt>
      <trkpt lat="44.1094" lon="7.51658">
        <ele>1940</ele>
        <time>2017-09-17T12:24:01Z</time>
      </trkpt>
      <trkpt lat="44.10941" lon="7.51666">
        <ele>1940</ele>
        <time>2017-09-17T12:24:02Z</time>
      </trkpt>
      <trkpt lat="44.10943" lon="7.51673">
        <ele>1941</ele>
        <time>2017-09-17T12:24:03Z</time>
      </trkpt>
      <trkpt lat="44.10945" lon="7.5168">
        <ele>1942</ele>
        <time>2017-09-17T12:24:04Z</time>
      </trkpt>
      <trkpt lat="44.10947" lon="7.51688">
        <ele>1942</ele>
        <time>2017-09-17T12:24:05Z</time>
      </trkpt>
      <trkpt lat="44.10949" lon="7.51695">
        <ele>1943</ele>
        <time>2017-09-17T12:24:06Z</time>
      </trkpt>
      <trkpt lat="44.10952" lon="7.51701">
        <ele>1944</ele>
        <time>2017-09-17T12:24:07Z</time>
      </trkpt>
      <trkpt lat="44.10955" lon="7.51708">
        <ele>1945</ele>
        <time>2017-09-17T12:24:08Z</time>
      </trkpt>
      <trkpt lat="44.10958" lon="7.51714">
        <ele>1946</ele>
        <time>2017-09-17T12:24:09Z</time>
      </trkpt>
      <trkpt lat="44.10962" lon="7.51721">
        <ele>1947</ele>
        <time>2017-09-17T12:24:10Z</time>
      </trkpt>
      <trkpt lat="44.10965" lon="7.51727">
        <ele>1947</ele>
        <time>2017-09-17T12:24:11Z</time>
      </trkpt>
      <trkpt lat="44.10968" lon="7.51733">
        <ele>1948</ele>
        <time>2017-09-17T12:24:12Z</time>
      </trkpt>
      <trkpt lat="44.10972" lon="7.51739">
        <ele>1949</ele>
        <time>2017-09-17T12:24:13Z</time>
      </trkpt>
      <trkpt lat="44.10976" lon="7.51744">
        <ele>1950</ele>
        <time>2017-09-17T12:24:14Z</time>
      </trkpt>
      <trkpt lat="44.10981" lon="7.51748">
        <ele>1950</ele>
        <time>2017-09-17T12:24:15Z</time>
      </trkpt>
      <trkpt lat="44.10986" lon="7.51751">
        <ele>1951</ele>
        <time>2017-09-17T12:24:16Z</time>
      </trkpt>
      <trkpt lat="44.10991" lon="7.51753">
        <ele>1952</ele>
        <time>2017-09-17T12:24:17Z</time>
      </trkpt>
      <trkpt lat="44.10997" lon="7.51754">
        <ele>1952</ele>
        <time>2017-09-17T12:24:18Z</time>
      </trkpt>
      <trkpt lat="44.11002" lon="7.51755">
        <ele>1953</ele>
        <time>2017-09-17T12:24:19Z</time>
      </trkpt>
      <trkpt lat="44.11008" lon="7.51755">
        <ele>1954</ele>
        <time>2017-09-17T12:24:20Z</time>
      </trkpt>
      <trkpt lat="44.11013" lon="7.51755">
        <ele>1954</ele>
        <time>2017-09-17T12:24:21Z</time>
      </trkpt>
      <trkpt lat="44.11019" lon="7.51755">
        <ele>1955</ele>
        <time>2017-09-17T12:24:22Z</time>
      </trkpt>
      <trkpt lat="44.11025" lon="7.51755">
        <ele>1956</ele>
        <time>2017-09-17T12:24:23Z</time>
      </trkpt>
      <trkpt lat="44.1103" lon="7.51755">
        <ele>1956</ele>
        <time>2017-09-17T12:24:24Z</time>
      </trkpt>
      <trkpt lat="44.11036" lon="7.51756">
        <ele>1957</ele>
        <time>2017-09-17T12:24:25Z</time>
      </trkpt>
      <trkpt lat="44.11041" lon="7.51756">
        <ele>1957</ele>
        <time>2017-09-17T12:24:26Z</time>
      </trkpt>
      <trkpt lat="44.11047" lon="7.51757">
        <ele>1958</ele>
        <time>2017-09-17T12:24:27Z</time>
      </trkpt>
      <trkpt lat="44.11053" lon="7.51757">
        <ele>1959</ele>
        <time>2017-09-17T12:24:28Z</time>
      </trkpt>
      <trkpt lat="44.11058" lon="7.51758">
        <ele>1959</ele>
        <time>2017-09-17T12:24:29Z</time>
      </trkpt>
      <trkpt lat="44.11064" lon="7.51759">
        <ele>1960</ele>
        <time>2017-09-17T12:24:30Z</time>
      </trkpt>
      <trkpt lat="44.1107" lon="7.5176">
        <ele>1960</ele>
        <time>2017-09-17T12:24:31Z</time>
      </trkpt>
      <trkpt lat="44.11075" lon="7.5176">
        <ele>1961</ele>
        <time>2017-09-17T12:24:32Z</time>
      </trkpt>
      <trkpt lat="44.11081" lon="7.51761">
        <ele>1961</ele>
        <time>2017-09-17T12:24:33Z</time>
      </trkpt>
      <trkpt lat="44.11087" lon="7.51761">
        <ele>1962</ele>
        <time>2017-09-17T12:24:34Z</time>
      </trkpt>
      <trkpt lat="44.11092" lon="7.51762">
        <ele>1963</ele>
        <time>2017-09-17T12:24:35Z</time>
      </trkpt>
      <trkpt lat="44.11098" lon="7.51762">
        <ele>1963</ele>
        <time>2017-09-17T12:24:36Z</time>
      </trkpt>
      <trkpt lat="44.11104" lon="7.51763">
        <ele>1964</ele>
        <time>2017-09-17T12:24:37Z</time>
      </trkpt>
      <trkpt lat="44.11109" lon="7.51763">
        <ele>1964</ele>
        <time>2017-09-17T12:24:38Z</time>
      </trkpt>
      <trkpt lat="44.11115" lon="7.51763">
        <ele>1965</ele>
        <time>2017-09-17T12:24:39Z</time>
      </trkpt>
      <trkpt lat="44.11121" lon="7.51764">
        <ele>1966</ele>
        <time>2017-09-17T12:24:40Z</time>
      </trkpt>
      <trkpt lat="44.11126" lon="7.51764">
        <ele>1966</ele>
        <time>2017-09-17T12:24:41Z</time>
      </trkpt>
      <trkpt lat="44.11132" lon="7.51765">
        <ele>1967</ele>
        <time>2017-09-17T12:24:42Z</time>
      </trkpt>
      <trkpt lat="44.11138" lon="7.51765">
        <ele>1967</ele>
        <time>2017-09-17T12:24:43Z</time>
      </trkpt>
      <trkpt lat="44.11144" lon="7.51766">
        <ele>1968</ele>
        <time>2017-09-17T12:24:44Z</time>
      </trkpt>
      <trkpt lat="44.11149" lon="7.51766">
        <ele>1968</ele>
        <time>2017-09-17T12:24:45Z</time>
      </trkpt>
      <trkpt lat="44.11155" lon="7.51766">
        <ele>1969</ele>
        <time>2017-09-17T12:24:46Z</time>
      </trkpt>
      <trkpt lat="44.11161" lon="7.51767">
        <ele>1969</ele>
        <time>2017-09-17T12:24:47Z</time>
      </trkpt>
      <trkpt lat="44.11166" lon="7.51767">
        <ele>1970</ele>
        <time>2017-09-17T12:24:48Z</time>
      </trkpt>
      <trkpt lat="44.11172" lon="7.51768">
        <ele>1970</ele>
        <time>2017-09-17T12:24:49Z</time>
      </trkpt>
      <trkpt lat="44.11178" lon="7.51768">
        <ele>1971</ele>
        <time>2017-09-17T12:24:50Z</time>
      </trkpt>
      <trkpt lat="44.11184" lon="7.51768">
        <ele>1971</ele>
        <time>2017-09-17T12:24:51Z</time>
      </trkpt>
      <trkpt lat="44.11189" lon="7.51769">
        <ele>1972</ele>
        <time>2017-09-17T12:24:52Z</time>
      </trkpt>
      <trkpt lat="44.11195" lon="7.51769">
        <ele>1972</ele>
        <time>2017-09-17T12:24:53Z</time>
      </trkpt>
      <trkpt lat="44.11201" lon="7.5177">
        <ele>1973</ele>
        <time>2017-09-17T12:24:54Z</time>
      </trkpt>
      <trkpt lat="44.11207" lon="7.5177">
        <ele>1973</ele>
        <time>2017-09-17T12:24:55Z</time>
      </trkpt>
      <trkpt lat="44.11213" lon="7.51771">
        <ele>1974</ele>
        <time>2017-09-17T12:24:56Z</time>
      </trkpt>
      <trkpt lat="44.11218" lon="7.51771">
        <ele>1975</ele>
        <time>2017-09-17T12:24:57Z</time>
      </trkpt>
      <trkpt lat="44.11224" lon="7.51771">
        <ele>1975</ele>
        <time>2017-09-17T12:24:58Z</time>
      </trkpt>
      <trkpt lat="44.1123" lon="7.51772">
        <ele>1976</ele>
        <time>2017-09-17T12:24:59Z</time>
      </trkpt>
      <trkpt lat="44.11235" lon="7.51772">
        <ele>1976</ele>
        <time>2017-09-17T12:25:00Z</time>
      </trkpt>
      <trkpt lat="44.11241" lon="7.51772">
        <ele>1977</ele>
        <time>2017-09-17T12:25:01Z</time>
      </trkpt>
      <trkpt lat="44.11247" lon="7.51772">
        <ele>1977</ele>
        <time>2017-09-17T12:25:02Z</time>
      </trkpt>
      <trkpt lat="44.11252" lon="7.51773">
        <ele>1978</ele>
        <time>2017-09-17T12:25:03Z</time>
      </trkpt>
      <trkpt lat="44.11258" lon="7.51773">
        <ele>1979</ele>
        <time>2017-09-17T12:25:04Z</time>
      </trkpt>
      <trkpt lat="44.11264" lon="7.51773">
        <ele>1979</ele>
        <time>2017-09-17T12:25:05Z</time>
      </trkpt>
      <trkpt lat="44.11269" lon="7.51773">
        <ele>1980</ele>
        <time>2017-09-17T12:25:06Z</time>
      </trkpt>
      <trkpt lat="44.11275" lon="7.51773">
        <ele>1980</ele>
        <time>2017-09-17T12:25:07Z</time>
      </trkpt>
      <trkpt lat="44.11281" lon="7.51774">
        <ele>1981</ele>
        <time>2017-09-17T12:25:08Z</time>
      </trkpt>
      <trkpt lat="44.11286" lon="7.51776">
        <ele>1982</ele>
        <time>2017-09-17T12:25:09Z</time>
      </trkpt>
      <trkpt lat="44.11291" lon="7.5178">
        <ele>1982</ele>
        <time>2017-09-17T12:25:10Z</time>
      </trkpt>
      <trkpt lat="44.11295" lon="7.51786">
        <ele>1983</ele>
        <time>2017-09-17T12:25:11Z</time>
      </trkpt>
      <trkpt lat="44.11296" lon="7.51793">
        <ele>1983</ele>
        <time>2017-09-17T12:25:12Z</time>
      </trkpt>
      <trkpt lat="44.11295" lon="7.518">
        <ele>1984</ele>
        <time>2017-09-17T12:25:13Z</time>
      </trkpt>
      <trkpt lat="44.11293" lon="7.51806">
        <ele>1985</ele>
        <time>2017-09-17T12:25:14Z</time>
      </trkpt>
      <trkpt lat="44.11289" lon="7.51811">
        <ele>1985</ele>
        <time>2017-09-17T12:25:15Z</time>
      </trkpt>
      <trkpt lat="44.11284" lon="7.51815">
        <ele>1986</ele>
        <time>2017-09-17T12:25:16Z</time>
      </trkpt>
      <trkpt lat="44.1128" lon="7.5182">
        <ele>1986</ele>
        <time>2017-09-17T12:25:17Z</time>
      </trkpt>
      <trkpt lat="44.11275" lon="7.51825">
        <ele>1987</ele>
        <time>2017-09-17T12:25:18Z</time>
      </trkpt>
      <trkpt lat="44.11271" lon="7.5183">
        <ele>1987</ele>
        <time>2017-09-17T12:25:19Z</time>
      </trkpt>
      <trkpt lat="44.11268" lon="7.51836">
        <ele>1988</ele>
        <time>2017-09-17T12:25:20Z</time>
      </trkpt>
      <trkpt lat="44.11264" lon="7.51843">
        <ele>1988</ele>
        <time>2017-09-17T12:25:21Z</time>
      </trkpt>
      <trkpt lat="44.11261" lon="7.51849">
        <ele>1989</ele>
        <time>2017-09-17T12:25:22Z</time>
      </trkpt>
      <trkpt lat="44.11258" lon="7.51856">
        <ele>1989</ele>
        <time>2017-09-17T12:25:23Z</time>
      </trkpt>
      <trkpt lat="44.11255" lon="7.51862">
        <ele>1989</ele>
        <time>2017-09-17T12:25:24Z</time>
      </trkpt>
      <trkpt lat="44.11252" lon="7.51869">
        <ele>1990</ele>
        <time>2017-09-17T12:25:25Z</time>
      </trkpt>
      <trkpt lat="44.11249" lon="7.51876">
        <ele>1990</ele>
        <time>2017-09-17T12:25:26Z</time>
      </trkpt>
      <trkpt lat="44.11247" lon="7.51883">
        <ele>1991</ele>
        <time>2017-09-17T12:25:27Z</time>
      </trkpt>
      <trkpt lat="44.11245" lon="7.51891">
        <ele>1991</ele>
        <time>2017-09-17T12:25:28Z</time>
      </trkpt>
      <trkpt lat="44.11245" lon="7.51899">
        <ele>1991</ele>
        <time>2017-09-17T12:25:29Z</time>
      </trkpt>
      <trkpt lat="44.11245" lon="7.51906">
        <ele>1992</ele>
        <time>2017-09-17T12:25:30Z</time>
      </trkpt>
      <trkpt lat="44.11247" lon="7.51914">
        <ele>1992</ele>
        <time>2017-09-17T12:25:31Z</time>
      </trkpt>
      <trkpt lat="44.1125" lon="7.51921">
        <ele>1993</ele>
        <time>2017-09-17T12:25:32Z</time>
      </trkpt>
      <trkpt lat="44.11253" lon="7.51927">
        <ele>1993</ele>
        <time>2017-09-17T12:25:33Z</time>
      </trkpt>
      <trkpt lat="44.11257" lon="7.51932">
        <ele>1994</ele>
        <time>2017-09-17T12:25:34Z</time>
      </trkpt>
      <trkpt lat="44.11262" lon="7.51937">
        <ele>1995</ele>
        <time>2017-09-17T12:25:35Z</time>
      </trkpt>
      <trkpt lat="44.11266" lon="7.51941">
        <ele>1995</ele>
        <time>2017-09-17T12:25:36Z</time>
      </trkpt>
      <trkpt lat="44.11271" lon="7.51946">
        <ele>1996</ele>
        <time>2017-09-17T12:25:37Z</time>
      </trkpt>
      <trkpt lat="44.11275" lon="7.51951">
        <ele>1997</ele>
        <time>2017-09-17T12:25:38Z</time>
      </trkpt>
      <trkpt lat="44.1128" lon="7.51955">
        <ele>1997</ele>
        <time>2017-09-17T12:25:39Z</time>
      </trkpt>
      <trkpt lat="44.11285" lon="7.5196">
        <ele>1998</ele>
        <time>2017-09-17T12:25:40Z</time>
      </trkpt>
      <trkpt lat="44.11289" lon="7.51964">
        <ele>1999</ele>
        <time>2017-09-17T12:25:41Z</time>
      </trkpt>
      <trkpt lat="44.11294" lon="7.51968">
        <ele>1999</ele>
        <time>2017-09-17T12:25:42Z</time>
      </trkpt>
      <trkpt lat="44.11298" lon="7.51972">
        <ele>2000</ele>
        <time>2017-09-17T12:25:43Z</time>
      </trkpt>
      <trkpt lat="44.11303" lon="7.51976">
        <ele>2000</ele>
        <time>2017-09-17T12:25:44Z</time>
      </trkpt>
      <trkpt lat="44.11308" lon="7.51979">
        <ele>2001</ele>
        <time>2017-09-17T12:25:45Z</time>
      </trkpt>
      <trkpt lat="44.11313" lon="7.51982">
        <ele>2001</ele>
        <time>2017-09-17T12:25:46Z</time>
      </trkpt>
      <trkpt lat="44.11319" lon="7.51984">
        <ele>2002</ele>
        <time>2017-09-17T12:25:47Z</time>
      </trkpt>
      <trkpt lat="44.11324" lon="7.51985">
        <ele>2003</ele>
        <time>2017-09-17T12:25:48Z</time>
      </trkpt>
      <trkpt lat="44.1133" lon="7.51985">
        <ele>2003</ele>
        <time>2017-09-17T12:25:49Z</time>
      </trkpt>
      <trkpt lat="44.11336" lon="7.51985">
        <ele>2004</ele>
        <time>2017-09-17T12:25:50Z</time>
      </trkpt>
      <trkpt lat="44.11342" lon="7.51984">
        <ele>2004</ele>
        <time>2017-09-17T12:25:51Z</time>
      </trkpt>
      <trkpt lat="44.11347" lon="7.51985">
        <ele>2005</ele>
        <time>2017-09-17T12:25:52Z</time>
      </trkpt>
      <trkpt lat="44.11353" lon="7.51986">
        <ele>2006</ele>
        <time>2017-09-17T12:25:53Z</time>
      </trkpt>
      <trkpt lat="44.11359" lon="7.51987">
        <ele>2006</ele>
        <time>2017-09-17T12:25:54Z</time>
      </trkpt>
      <trkpt lat="44.11364" lon="7.51989">
        <ele>2007</ele>
        <time>2017-09-17T12:25:55Z</time>
      </trkpt>
      <trkpt lat="44.1137" lon="7.51992">
        <ele>2008</ele>
        <time>2017-09-17T12:25:56Z</time>
      </trkpt>
      <trkpt lat="44.11375" lon="7.51996">
        <ele>2008</ele>
        <time>2017-09-17T12:25:57Z</time>
      </trkpt>
      <trkpt lat="44.11379" lon="7.52001">
        <ele>2009</ele>
        <time>2017-09-17T12:25:58Z</time>
      </trkpt>
      <trkpt lat="44.11383" lon="7.52006">
        <ele>2010</ele>
        <time>2017-09-17T12:25:59Z</time>
      </trkpt>
      <trkpt lat="44.11386" lon="7.52012">
        <ele>2010</ele>
        <time>2017-09-17T12:26:00Z</time>
      </trkpt>
      <trkpt lat="44.1139" lon="7.52019">
        <ele>2011</ele>
        <time>2017-09-17T12:26:01Z</time>
      </trkpt>
      <trkpt lat="44.11393" lon="7.52025">
        <ele>2011</ele>
        <time>2017-09-17T12:26:02Z</time>
      </trkpt>
      <trkpt lat="44.11396" lon="7.52032">
        <ele>2012</ele>
        <time>2017-09-17T12:26:03Z</time>
      </trkpt>
      <trkpt lat="44.11398" lon="7.52039">
        <ele>2012</ele>
        <time>2017-09-17T12:26:04Z</time>
      </trkpt>
      <trkpt lat="44.11401" lon="7.52046">
        <ele>2013</ele>
        <time>2017-09-17T12:26:05Z</time>
      </trkpt>
      <trkpt lat="44.11403" lon="7.52053">
        <ele>2014</ele>
        <time>2017-09-17T12:26:06Z</time>
      </trkpt>
      <trkpt lat="44.11405" lon="7.5206">
        <ele>2014</ele>
        <time>2017-09-17T12:26:07Z</time>
      </trkpt>
      <trkpt lat="44.11406" lon="7.52068">
        <ele>2015</ele>
        <time>2017-09-17T12:26:08Z</time>
      </trkpt>
      <trkpt lat="44.11407" lon="7.52076">
        <ele>2015</ele>
        <time>2017-09-17T12:26:09Z</time>
      </trkpt>
      <trkpt lat="44.11408" lon="7.52084">
        <ele>2016</ele>
        <time>2017-09-17T12:26:10Z</time>
      </trkpt>
      <trkpt lat="44.11408" lon="7.52092">
        <ele>2017</ele>
        <time>2017-09-17T12:26:11Z</time>
      </trkpt>
      <trkpt lat="44.11409" lon="7.52099">
        <ele>2017</ele>
        <time>2017-09-17T12:26:12Z</time>
      </trkpt>
      <trkpt lat="44.11409" lon="7.52107">
        <ele>2018</ele>
        <time>2017-09-17T12:26:13Z</time>
      </trkpt>
      <trkpt lat="44.11408" lon="7.52115">
        <ele>2018</ele>
        <time>2017-09-17T12:26:14Z</time>
      </trkpt>
      <trkpt lat="44.11408" lon="7.52123">
        <ele>2019</ele>
        <time>2017-09-17T12:26:15Z</time>
      </trkpt>
      <trkpt lat="44.11407" lon="7.52131">
        <ele>2019</ele>
        <time>2017-09-17T12:26:16Z</time>
      </trkpt>
      <trkpt lat="44.11405" lon="7.52139">
        <ele>2020</ele>
        <time>2017-09-17T12:26:17Z</time>
      </trkpt>
      <trkpt lat="44.11404" lon="7.52146">
        <ele>2020</ele>
        <time>2017-09-17T12:26:18Z</time>
      </trkpt>
      <trkpt lat="44.11403" lon="7.52154">
        <ele>2020</ele>
        <time>2017-09-17T12:26:19Z</time>
      </trkpt>
      <trkpt lat="44.11401" lon="7.52162">
        <ele>2021</ele>
        <time>2017-09-17T12:26:20Z</time>
      </trkpt>
      <trkpt lat="44.114" lon="7.52169">
        <ele>2021</ele>
        <time>2017-09-17T12:26:21Z</time>
      </trkpt>
      <trkpt lat="44.11399" lon="7.52177">
        <ele>2022</ele>
        <time>2017-09-17T12:26:22Z</time>
      </trkpt>
      <trkpt lat="44.11398" lon="7.52185">
        <ele>2022</ele>
        <time>2017-09-17T12:26:23Z</time>
      </trkpt>
      <trkpt lat="44.11397" lon="7.52193">
        <ele>2023</ele>
        <time>2017-09-17T12:26:24Z</time>
      </trkpt>
      <trkpt lat="44.11395" lon="7.522">
        <ele>2023</ele>
        <time>2017-09-17T12:26:25Z</time>
      </trkpt>
      <trkpt lat="44.11393" lon="7.52208">
        <ele>2024</ele>
        <time>2017-09-17T12:26:26Z</time>
      </trkpt>
      <trkpt lat="44.1139" lon="7.52214">
        <ele>2024</ele>
        <time>2017-09-17T12:26:27Z</time>
      </trkpt>
      <trkpt lat="44.11387" lon="7.52221">
        <ele>2025</ele>
        <time>2017-09-17T12:26:28Z</time>
      </trkpt>
      <trkpt lat="44.11384" lon="7.52227">
        <ele>2025</ele>
        <time>2017-09-17T12:26:29Z</time>
      </trkpt>
      <trkpt lat="44.1138" lon="7.52233">
        <ele>2026</ele>
        <time>2017-09-17T12:26:30Z</time>
      </trkpt>
      <trkpt lat="44.11375" lon="7.52238">
        <ele>2026</ele>
        <time>2017-09-17T12:26:31Z</time>
      </trkpt>
      <trkpt lat="44.11371" lon="7.52242">
        <ele>2027</ele>
        <time>2017-09-17T12:26:32Z</time>
      </trkpt>
      <trkpt lat="44.11366" lon="7.52246">
        <ele>2027</ele>
        <time>2017-09-17T12:26:33Z</time>
      </trkpt>
      <trkpt lat="44.1136" lon="7.52248">
        <ele>2028</ele>
        <time>2017-09-17T12:26:34Z</time>
      </trkpt>
      <trkpt lat="44.11355" lon="7.52249">
        <ele>2028</ele>
        <time>2017-09-17T12:26:35Z</time>
      </trkpt>
      <trkpt lat="44.11349" lon="7.5225">
        <ele>2029</ele>
        <time>2017-09-17T12:26:36Z</time>
      </trkpt>
      <trkpt lat="44.11344" lon="7.52251">
        <ele>2029</ele>
        <time>2017-09-17T12:26:37Z</time>
      </trkpt>
      <trkpt lat="44.11338" lon="7.52253">
        <ele>2030</ele>
        <time>2017-09-17T12:26:38Z</time>
      </trkpt>
      <trkpt lat="44.11334" lon="7.52254">
        <ele>2030</ele>
        <time>2017-09-17T12:26:39Z</time>
      </trkpt>
      <trkpt lat="44.1133" lon="7.52255">
        <ele>2031</ele>
        <time>2017-09-17T12:26:40Z</time>
      </trkpt>
      <trkpt lat="44.11326" lon="7.52257">
        <ele>2031</ele>
        <time>2017-09-17T12:26:41Z</time>
      </trkpt>
      <trkpt lat="44.11325" lon="7.52261">
        <ele>2031</ele>
        <time>2017-09-17T12:26:42Z</time>
      </trkpt>
      <trkpt lat="44.11327" lon="7.52264">
        <ele>2032</ele>
        <time>2017-09-17T12:26:43Z</time>
      </trkpt>
      <trkpt lat="44.11329" lon="7.52266">
        <ele>2032</ele>
        <time>2017-09-17T12:26:44Z</time>
      </trkpt>
      <trkpt lat="44.11334" lon="7.52266">
        <ele>2032</ele>
        <time>2017-09-17T12:26:45Z</time>
      </trkpt>
      <trkpt lat="44.11338" lon="7.52266">
        <ele>2033</ele>
        <time>2017-09-17T12:26:46Z</time>
      </trkpt>
      <trkpt lat="44.11343" lon="7.52267">
        <ele>2033</ele>
        <time>2017-09-17T12:26:47Z</time>
      </trkpt>
      <trkpt lat="44.11349" lon="7.52269">
        <ele>2033</ele>
        <time>2017-09-17T12:26:48Z</time>
      </trkpt>
      <trkpt lat="44.11354" lon="7.52271">
        <ele>2034</ele>
        <time>2017-09-17T12:26:49Z</time>
      </trkpt>
      <trkpt lat="44.11359" lon="7.52274">
        <ele>2034</ele>
        <time>2017-09-17T12:26:50Z</time>
      </trkpt>
      <trkpt lat="44.11364" lon="7.52277">
        <ele>2035</ele>
        <time>2017-09-17T12:26:51Z</time>
      </trkpt>
      <trkpt lat="44.1137" lon="7.52279">
        <ele>2035</ele>
        <time>2017-09-17T12:26:52Z</time>
      </trkpt>
      <trkpt lat="44.11375" lon="7.52282">
        <ele>2036</ele>
        <time>2017-09-17T12:26:53Z</time>
      </trkpt>
      <trkpt lat="44.11381" lon="7.52284">
        <ele>2036</ele>
        <time>2017-09-17T12:26:54Z</time>
      </trkpt>
      <trkpt lat="44.11386" lon="7.52286">
        <ele>2036</ele>
        <time>2017-09-17T12:26:55Z</time>
      </trkpt>
      <trkpt lat="44.11392" lon="7.52286">
        <ele>2037</ele>
        <time>2017-09-17T12:26:56Z</time>
      </trkpt>
      <trkpt lat="44.11397" lon="7.52284">
        <ele>2037</ele>
        <time>2017-09-17T12:26:57Z</time>
      </trkpt>
      <trkpt lat="44.11403" lon="7.52282">
        <ele>2038</ele>
        <time>2017-09-17T12:26:58Z</time>
      </trkpt>
      <trkpt lat="44.11408" lon="7.5228">
        <ele>2038</ele>
        <time>2017-09-17T12:26:59Z</time>
      </trkpt>
      <trkpt lat="44.11414" lon="7.52276">
        <ele>2039</ele>
        <time>2017-09-17T12:27:00Z</time>
      </trkpt>
      <trkpt lat="44.11419" lon="7.52274">
        <ele>2039</ele>
        <time>2017-09-17T12:27:01Z</time>
      </trkpt>
      <trkpt lat="44.11425" lon="7.52272">
        <ele>2040</ele>
        <time>2017-09-17T12:27:02Z</time>
      </trkpt>
      <trkpt lat="44.1143" lon="7.52269">
        <ele>2040</ele>
        <time>2017-09-17T12:27:03Z</time>
      </trkpt>
      <trkpt lat="44.11435" lon="7.52267">
        <ele>2041</ele>
        <time>2017-09-17T12:27:04Z</time>
      </trkpt>
      <trkpt lat="44.11441" lon="7.52265">
        <ele>2041</ele>
        <time>2017-09-17T12:27:05Z</time>
      </trkpt>
      <trkpt lat="44.11446" lon="7.52262">
        <ele>2041</ele>
        <time>2017-09-17T12:27:06Z</time>
      </trkpt>
      <trkpt lat="44.11451" lon="7.5226">
        <ele>2042</ele>
        <time>2017-09-17T12:27:07Z</time>
      </trkpt>
      <trkpt lat="44.11455" lon="7.52257">
        <ele>2042</ele>
        <time>2017-09-17T12:27:08Z</time>
      </trkpt>
      <trkpt lat="44.1146" lon="7.52255">
        <ele>2042</ele>
        <time>2017-09-17T12:27:09Z</time>
      </trkpt>
      <trkpt lat="44.11464" lon="7.52252">
        <ele>2042</ele>
        <time>2017-09-17T12:27:10Z</time>
      </trkpt>
      <trkpt lat="44.11468" lon="7.5225">
        <ele>2043</ele>
        <time>2017-09-17T12:27:11Z</time>
      </trkpt>
      <trkpt lat="44.11471" lon="7.52246">
        <ele>2043</ele>
        <time>2017-09-17T12:27:12Z</time>
      </trkpt>
      <trkpt lat="44.11475" lon="7.52243">
        <ele>2043</ele>
        <time>2017-09-17T12:27:13Z</time>
      </trkpt>
      <trkpt lat="44.11479" lon="7.5224">
        <ele>2043</ele>
        <time>2017-09-17T12:27:14Z</time>
      </trkpt>
      <trkpt lat="44.11483" lon="7.52236">
        <ele>2043</ele>
        <time>2017-09-17T12:27:15Z</time>
      </trkpt>
      <trkpt lat="44.11486" lon="7.52232">
        <ele>2043</ele>
        <time>2017-09-17T12:27:16Z</time>
      </trkpt>
      <trkpt lat="44.1149" lon="7.52228">
        <ele>2043</ele>
        <time>2017-09-17T12:27:17Z</time>
      </trkpt>
      <trkpt lat="44.11493" lon="7.52224">
        <ele>2043</ele>
        <time>2017-09-17T12:27:18Z</time>
      </trkpt>
      <trkpt lat="44.11496" lon="7.52221">
        <ele>2043</ele>
        <time>2017-09-17T12:27:19Z</time>
      </trkpt>
      <trkpt lat="44.11498" lon="7.52217">
        <ele>2044</ele>
        <time>2017-09-17T12:27:20Z</time>
      </trkpt>
      <trkpt lat="44.11501" lon="7.52213">
        <ele>2044</ele>
        <time>2017-09-17T12:27:21Z</time>
      </trkpt>
      <trkpt lat="44.11504" lon="7.52208">
        <ele>2044</ele>
        <time>2017-09-17T12:27:22Z</time>
      </trkpt>
      <trkpt lat="44.11507" lon="7.52203">
        <ele>2044</ele>
        <time>2017-09-17T12:27:23Z</time>
      </trkpt>
      <trkpt lat="44.1151" lon="7.52197">
        <ele>2044</ele>
        <time>2017-09-17T12:27:24Z</time>
      </trkpt>
      <trkpt lat="44.11513" lon="7.52192">
        <ele>2044</ele>
        <time>2017-09-17T12:27:25Z</time>
      </trkpt>
      <trkpt lat="44.11516" lon="7.52186">
        <ele>2044</ele>
        <time>2017-09-17T12:27:26Z</time>
      </trkpt>
      <trkpt lat="44.11519" lon="7.52181">
        <ele>2044</ele>
        <time>2017-09-17T12:27:27Z</time>
      </trkpt>
      <trkpt lat="44.11522" lon="7.52175">
        <ele>2044</ele>
        <time>2017-09-17T12:27:28Z</time>
      </trkpt>
      <trkpt lat="44.11525" lon="7.52169">
        <ele>2044</ele>
        <time>2017-09-17T12:27:29Z</time>
      </trkpt>
      <trkpt lat="44.11528" lon="7.52164">
        <ele>2044</ele>
        <time>2017-09-17T12:27:30Z</time>
      </trkpt>
      <trkpt lat="44.11532" lon="7.52158">
        <ele>2045</ele>
        <time>2017-09-17T12:27:31Z</time>
      </trkpt>
      <trkpt lat="44.11535" lon="7.52152">
        <ele>2045</ele>
        <time>2017-09-17T12:27:32Z</time>
      </trkpt>
      <trkpt lat="44.11539" lon="7.52147">
        <ele>2045</ele>
        <time>2017-09-17T12:27:33Z</time>
      </trkpt>
      <trkpt lat="44.11542" lon="7.52141">
        <ele>2045</ele>
        <time>2017-09-17T12:27:34Z</time>
      </trkpt>
      <trkpt lat="44.11546" lon="7.52135">
        <ele>2045</ele>
        <time>2017-09-17T12:27:35Z</time>
      </trkpt>
      <trkpt lat="44.11549" lon="7.52129">
        <ele>2045</ele>
        <time>2017-09-17T12:27:36Z</time>
      </trkpt>
      <trkpt lat="44.11552" lon="7.52123">
        <ele>2045</ele>
        <time>2017-09-17T12:27:37Z</time>
      </trkpt>
      <trkpt lat="44.11555" lon="7.52117">
        <ele>2045</ele>
        <time>2017-09-17T12:27:38Z</time>
      </trkpt>
      <trkpt lat="44.11559" lon="7.52111">
        <ele>2045</ele>
        <time>2017-09-17T12:27:39Z</time>
      </trkpt>
      <trkpt lat="44.11562" lon="7.52106">
        <ele>2045</ele>
        <time>2017-09-17T12:27:40Z</time>
      </trkpt>
      <trkpt lat="44.11565" lon="7.521">
        <ele>2045</ele>
        <time>2017-09-17T12:27:41Z</time>
      </trkpt>
      <trkpt lat="44.11568" lon="7.52095">
        <ele>2045</ele>
        <time>2017-09-17T12:27:42Z</time>
      </trkpt>
      <trkpt lat="44.11571" lon="7.52089">
        <ele>2045</ele>
        <time>2017-09-17T12:27:43Z</time>
      </trkpt>
      <trkpt lat="44.11574" lon="7.52084">
        <ele>2045</ele>
        <time>2017-09-17T12:27:44Z</time>
      </trkpt>
      <trkpt lat="44.11576" lon="7.52078">
        <ele>2045</ele>
        <time>2017-09-17T12:27:45Z</time>
      </trkpt>
      <trkpt lat="44.11579" lon="7.52072">
        <ele>2045</ele>
        <time>2017-09-17T12:27:46Z</time>
      </trkpt>
      <trkpt lat="44.11581" lon="7.52066">
        <ele>2046</ele>
        <time>2017-09-17T12:27:47Z</time>
      </trkpt>
      <trkpt lat="44.11583" lon="7.5206">
        <ele>2046</ele>
        <time>2017-09-17T12:27:48Z</time>
      </trkpt>
      <trkpt lat="44.11586" lon="7.52054">
        <ele>2046</ele>
        <time>2017-09-17T12:27:49Z</time>
      </trkpt>
      <trkpt lat="44.11588" lon="7.52048">
        <ele>2045</ele>
        <time>2017-09-17T12:27:50Z</time>
      </trkpt>
      <trkpt lat="44.1159" lon="7.52042">
        <ele>2045</ele>
        <time>2017-09-17T12:27:51Z</time>
      </trkpt>
      <trkpt lat="44.11593" lon="7.52036">
        <ele>2045</ele>
        <time>2017-09-17T12:27:52Z</time>
      </trkpt>
      <trkpt lat="44.11596" lon="7.5203">
        <ele>2045</ele>
        <time>2017-09-17T12:27:53Z</time>
      </trkpt>
      <trkpt lat="44.11598" lon="7.52023">
        <ele>2045</ele>
        <time>2017-09-17T12:27:54Z</time>
      </trkpt>
      <trkpt lat="44.11601" lon="7.52017">
        <ele>2045</ele>
        <time>2017-09-17T12:27:55Z</time>
      </trkpt>
      <trkpt lat="44.11604" lon="7.52011">
        <ele>2045</ele>
        <time>2017-09-17T12:27:56Z</time>
      </trkpt>
      <trkpt lat="44.11606" lon="7.52004">
        <ele>2045</ele>
        <time>2017-09-17T12:27:57Z</time>
      </trkpt>
      <trkpt lat="44.11609" lon="7.51997">
        <ele>2044</ele>
        <time>2017-09-17T12:27:58Z</time>
      </trkpt>
      <trkpt lat="44.11612" lon="7.5199">
        <ele>2044</ele>
        <time>2017-09-17T12:27:59Z</time>
      </trkpt>
      <trkpt lat="44.11614" lon="7.51983">
        <ele>2044</ele>
        <time>2017-09-17T12:28:00Z</time>
      </trkpt>
      <trkpt lat="44.11617" lon="7.51976">
        <ele>2044</ele>
        <time>2017-09-17T12:28:01Z</time>
      </trkpt>
      <trkpt lat="44.11619" lon="7.51969">
        <ele>2044</ele>
        <time>2017-09-17T12:28:02Z</time>
      </trkpt>
      <trkpt lat="44.11622" lon="7.51963">
        <ele>2044</ele>
        <time>2017-09-17T12:28:03Z</time>
      </trkpt>
      <trkpt lat="44.11625" lon="7.51956">
        <ele>2044</ele>
        <time>2017-09-17T12:28:04Z</time>
      </trkpt>
      <trkpt lat="44.11627" lon="7.51949">
        <ele>2044</ele>
        <time>2017-09-17T12:28:05Z</time>
      </trkpt>
      <trkpt lat="44.1163" lon="7.51942">
        <ele>2044</ele>
        <time>2017-09-17T12:28:06Z</time>
      </trkpt>
      <trkpt lat="44.11633" lon="7.51935">
        <ele>2043</ele>
        <time>2017-09-17T12:28:07Z</time>
      </trkpt>
      <trkpt lat="44.11635" lon="7.51928">
        <ele>2043</ele>
        <time>2017-09-17T12:28:08Z</time>
      </trkpt>
      <trkpt lat="44.11638" lon="7.51921">
        <ele>2043</ele>
        <time>2017-09-17T12:28:09Z</time>
      </trkpt>
      <trkpt lat="44.11641" lon="7.51914">
        <ele>2043</ele>
        <time>2017-09-17T12:28:10Z</time>
      </trkpt>
      <trkpt lat="44.11643" lon="7.51907">
        <ele>2043</ele>
        <time>2017-09-17T12:28:11Z</time>
      </trkpt>
      <trkpt lat="44.11646" lon="7.519">
        <ele>2043</ele>
        <time>2017-09-17T12:28:12Z</time>
      </trkpt>
      <trkpt lat="44.11649" lon="7.51893">
        <ele>2043</ele>
        <time>2017-09-17T12:28:13Z</time>
      </trkpt>
      <trkpt lat="44.11651" lon="7.51886">
        <ele>2043</ele>
        <time>2017-09-17T12:28:14Z</time>
      </trkpt>
      <trkpt lat="44.11653" lon="7.5188">
        <ele>2043</ele>
        <time>2017-09-17T12:28:15Z</time>
      </trkpt>
      <trkpt lat="44.11656" lon="7.51873">
        <ele>2043</ele>
        <time>2017-09-17T12:28:16Z</time>
      </trkpt>
      <trkpt lat="44.11658" lon="7.51867">
        <ele>2043</ele>
        <time>2017-09-17T12:28:17Z</time>
      </trkpt>
      <trkpt lat="44.1166" lon="7.51861">
        <ele>2043</ele>
        <time>2017-09-17T12:28:18Z</time>
      </trkpt>
      <trkpt lat="44.11662" lon="7.51857">
        <ele>2043</ele>
        <time>2017-09-17T12:28:19Z</time>
      </trkpt>
      <trkpt lat="44.11663" lon="7.51855">
        <ele>2043</ele>
        <time>2017-09-17T12:28:20Z</time>
      </trkpt>
      <trkpt lat="44.11663" lon="7.51855">
        <ele>2043</ele>
        <time>2017-09-17T12:28:21Z</time>
      </trkpt>
      <trkpt lat="44.11663" lon="7.51854">
        <ele>2042</ele>
        <time>2017-09-17T12:28:22Z</time>
      </trkpt>
      <trkpt lat="44.11664" lon="7.51854">
        <ele>2042</ele>
        <time>2017-09-17T12:28:23Z</time>
      </trkpt>
      <trkpt lat="44.11664" lon="7.51854">
        <ele>2042</ele>
        <time>2017-09-17T12:28:24Z</time>
      </trkpt>
      <trkpt lat="44.11664" lon="7.51854">
        <ele>2042</ele>
        <time>2017-09-17T12:28:25Z</time>
      </trkpt>
      <trkpt lat="44.11664" lon="7.51854">
        <ele>2042</ele>
        <time>2017-09-17T12:28:26Z</time>
      </trkpt>
      <trkpt lat="44.11664" lon="7.51854">
        <ele>2042</ele>
        <time>2017-09-17T12:28:27Z</time>
      </trkpt>
      <trkpt lat="44.11664" lon="7.51854">
        <ele>2042</ele>
        <time>2017-09-17T12:28:28Z</time>
      </trkpt>
      <trkpt lat="44.11664" lon="7.51854">
        <ele>2042</ele>
        <time>2017-09-17T12:28:29Z</time>
      </trkpt>
      <trkpt lat="44.11664" lon="7.51854">
        <ele>2042</ele>
        <time>2017-09-17T12:28:30Z</time>
      </trkpt>
      <trkpt lat="44.11664" lon="7.51854">
        <ele>2042</ele>
        <time>2017-09-17T12:28:31Z</time>
      </trkpt>
      <trkpt lat="44.11664" lon="7.51853">
        <ele>2042</ele>
        <time>2017-09-17T12:28:32Z</time>
      </trkpt>
      <trkpt lat="44.11664" lon="7.51853">
        <ele>2042</ele>
        <time>2017-09-17T12:28:33Z</time>
      </trkpt>
      <trkpt lat="44.11664" lon="7.51853">
        <ele>2042</ele>
        <time>2017-09-17T12:28:34Z</time>
      </trkpt>
      <trkpt lat="44.11664" lon="7.51853">
        <ele>2042</ele>
        <time>2017-09-17T12:28:35Z</time>
      </trkpt>
      <trkpt lat="44.11664" lon="7.51853">
        <ele>2042</ele>
        <time>2017-09-17T12:28:36Z</time>
      </trkpt>
      <trkpt lat="44.11664" lon="7.51853">
        <ele>2042</ele>
        <time>2017-09-17T12:28:37Z</time>
      </trkpt>
      <trkpt lat="44.11664" lon="7.51853">
        <ele>2042</ele>
        <time>2017-09-17T12:28:38Z</time>
      </trkpt>
      <trkpt lat="44.11664" lon="7.51853">
        <ele>2042</ele>
        <time>2017-09-17T12:28:39Z</time>
      </trkpt>
      <trkpt lat="44.11664" lon="7.51853">
        <ele>2042</ele>
        <time>2017-09-17T12:28:40Z</time>
      </trkpt>
      <trkpt lat="44.11664" lon="7.51853">
        <ele>2042</ele>
        <time>2017-09-17T12:28:41Z</time>
      </trkpt>
      <trkpt lat="44.11664" lon="7.51853">
        <ele>2042</ele>
        <time>2017-09-17T12:28:42Z</time>
      </trkpt>
      <trkpt lat="44.11664" lon="7.51853">
        <ele>2042</ele>
        <time>2017-09-17T12:28:43Z</time>
      </trkpt>
      <trkpt lat="44.11664" lon="7.51853">
        <ele>2042</ele>
        <time>2017-09-17T12:28:44Z</time>
      </trkpt>
      <trkpt lat="44.11664" lon="7.51853">
        <ele>2042</ele>
        <time>2017-09-17T12:28:45Z</time>
      </trkpt>
      <trkpt lat="44.11664" lon="7.51853">
        <ele>2041</ele>
        <time>2017-09-17T12:28:46Z</time>
      </trkpt>
      <trkpt lat="44.11664" lon="7.51853">
        <ele>2041</ele>
        <time>2017-09-17T12:28:47Z</time>
      </trkpt>
      <trkpt lat="44.11664" lon="7.51853">
        <ele>2041</ele>
        <time>2017-09-17T12:28:48Z</time>
      </trkpt>
      <trkpt lat="44.11664" lon="7.51853">
        <ele>2041</ele>
        <time>2017-09-17T12:28:49Z</time>
      </trkpt>
      <trkpt lat="44.11664" lon="7.51853">
        <ele>2041</ele>
        <time>2017-09-17T12:28:50Z</time>
      </trkpt>
      <trkpt lat="44.11664" lon="7.51853">
        <ele>2041</ele>
        <time>2017-09-17T12:28:51Z</time>
      </trkpt>
      <trkpt lat="44.11664" lon="7.51853">
        <ele>2041</ele>
        <time>2017-09-17T12:28:52Z</time>
      </trkpt>
      <trkpt lat="44.11664" lon="7.51853">
        <ele>2041</ele>
        <time>2017-09-17T12:28:53Z</time>
      </trkpt>
      <trkpt lat="44.11664" lon="7.51853">
        <ele>2041</ele>
        <time>2017-09-17T12:28:54Z</time>
      </trkpt>
      <trkpt lat="44.11664" lon="7.51853">
        <ele>2041</ele>
        <time>2017-09-17T12:28:55Z</time>
      </trkpt>
      <trkpt lat="44.11664" lon="7.51853">
        <ele>2041</ele>
        <time>2017-09-17T12:28:56Z</time>
      </trkpt>
      <trkpt lat="44.11664" lon="7.51853">
        <ele>2041</ele>
        <time>2017-09-17T12:28:57Z</time>
      </trkpt>
      <trkpt lat="44.11664" lon="7.51853">
        <ele>2041</ele>
        <time>2017-09-17T12:28:58Z</time>
      </trkpt>
      <trkpt lat="44.11664" lon="7.51853">
        <ele>2041</ele>
        <time>2017-09-17T12:28:59Z</time>
      </trkpt>
      <trkpt lat="44.11664" lon="7.51853">
        <ele>2041</ele>
        <time>2017-09-17T12:29:00Z</time>
      </trkpt>
      <trkpt lat="44.11664" lon="7.51853">
        <ele>2041</ele>
        <time>2017-09-17T12:29:01Z</time>
      </trkpt>
      <trkpt lat="44.11664" lon="7.51853">
        <ele>2041</ele>
        <time>2017-09-17T12:29:02Z</time>
      </trkpt>
      <trkpt lat="44.11664" lon="7.51853">
        <ele>2041</ele>
        <time>2017-09-17T12:29:03Z</time>
      </trkpt>
      <trkpt lat="44.11664" lon="7.51853">
        <ele>2041</ele>
        <time>2017-09-17T12:29:04Z</time>
      </trkpt>
      <trkpt lat="44.11664" lon="7.51853">
        <ele>2041</ele>
        <time>2017-09-17T12:29:05Z</time>
      </trkpt>
      <trkpt lat="44.11664" lon="7.51853">
        <ele>2041</ele>
        <time>2017-09-17T12:29:06Z</time>
      </trkpt>
      <trkpt lat="44.11664" lon="7.51852">
        <ele>2041</ele>
        <time>2017-09-17T12:29:07Z</time>
      </trkpt>
      <trkpt lat="44.11664" lon="7.51851">
        <ele>2041</ele>
        <time>2017-09-17T12:29:08Z</time>
      </trkpt>
      <trkpt lat="44.11665" lon="7.5185">
        <ele>2041</ele>
        <time>2017-09-17T12:29:09Z</time>
      </trkpt>
      <trkpt lat="44.11665" lon="7.51849">
        <ele>2041</ele>
        <time>2017-09-17T12:29:10Z</time>
      </trkpt>
      <trkpt lat="44.11666" lon="7.51848">
        <ele>2042</ele>
        <time>2017-09-17T12:29:11Z</time>
      </trkpt>
      <trkpt lat="44.11667" lon="7.51846">
        <ele>2042</ele>
        <time>2017-09-17T12:29:12Z</time>
      </trkpt>
      <trkpt lat="44.11668" lon="7.51844">
        <ele>2042</ele>
        <time>2017-09-17T12:29:13Z</time>
      </trkpt>
      <trkpt lat="44.11669" lon="7.51841">
        <ele>2042</ele>
        <time>2017-09-17T12:29:14Z</time>
      </trkpt>
      <trkpt lat="44.11671" lon="7.51837">
        <ele>2042</ele>
        <time>2017-09-17T12:29:15Z</time>
      </trkpt>
      <trkpt lat="44.11673" lon="7.51833">
        <ele>2042</ele>
        <time>2017-09-17T12:29:16Z</time>
      </trkpt>
      <trkpt lat="44.11675" lon="7.51829">
        <ele>2042</ele>
        <time>2017-09-17T12:29:17Z</time>
      </trkpt>
      <trkpt lat="44.11677" lon="7.51825">
        <ele>2042</ele>
        <time>2017-09-17T12:29:18Z</time>
      </trkpt>
      <trkpt lat="44.11679" lon="7.51821">
        <ele>2042</ele>
        <time>2017-09-17T12:29:19Z</time>
      </trkpt>
      <trkpt lat="44.11682" lon="7.51816">
        <ele>2042</ele>
        <time>2017-09-17T12:29:20Z</time>
      </trkpt>
      <trkpt lat="44.11685" lon="7.51812">
        <ele>2042</ele>
        <time>2017-09-17T12:29:21Z</time>
      </trkpt>
      <trkpt lat="44.11689" lon="7.51808">
        <ele>2042</ele>
        <time>2017-09-17T12:29:22Z</time>
      </trkpt>
      <trkpt lat="44.11692" lon="7.51804">
        <ele>2042</ele>
        <time>2017-09-17T12:29:23Z</time>
      </trkpt>
      <trkpt lat="44.11696" lon="7.51801">
        <ele>2042</ele>
        <time>2017-09-17T12:29:24Z</time>
      </trkpt>
      <trkpt lat="44.11701" lon="7.51798">
        <ele>2042</ele>
        <time>2017-09-17T12:29:25Z</time>
      </trkpt>
      <trkpt lat="44.11705" lon="7.51796">
        <ele>2042</ele>
        <time>2017-09-17T12:29:26Z</time>
      </trkpt>
      <trkpt lat="44.1171" lon="7.51793">
        <ele>2042</ele>
        <time>2017-09-17T12:29:27Z</time>
      </trkpt>
      <trkpt lat="44.11716" lon="7.51791">
        <ele>2041</ele>
        <time>2017-09-17T12:29:28Z</time>
      </trkpt>
      <trkpt lat="44.11723" lon="7.51789">
        <ele>2041</ele>
        <time>2017-09-17T12:29:29Z</time>
      </trkpt>
      <trkpt lat="44.1173" lon="7.51787">
        <ele>2040</ele>
        <time>2017-09-17T12:29:30Z</time>
      </trkpt>
      <trkpt lat="44.11737" lon="7.51785">
        <ele>2040</ele>
        <time>2017-09-17T12:29:31Z</time>
      </trkpt>
      <trkpt lat="44.11745" lon="7.51783">
        <ele>2039</ele>
        <time>2017-09-17T12:29:32Z</time>
      </trkpt>
      <trkpt lat="44.11753" lon="7.5178">
        <ele>2038</ele>
        <time>2017-09-17T12:29:33Z</time>
      </trkpt>
      <trkpt lat="44.11762" lon="7.51778">
        <ele>2038</ele>
        <time>2017-09-17T12:29:34Z</time>
      </trkpt>
      <trkpt lat="44.1177" lon="7.51776">
        <ele>2037</ele>
        <time>2017-09-17T12:29:35Z</time>
      </trkpt>
      <trkpt lat="44.11779" lon="7.51773">
        <ele>2036</ele>
        <time>2017-09-17T12:29:36Z</time>
      </trkpt>
      <trkpt lat="44.11787" lon="7.51772">
        <ele>2035</ele>
        <time>2017-09-17T12:29:37Z</time>
      </trkpt>
      <trkpt lat="44.11795" lon="7.5177">
        <ele>2034</ele>
        <time>2017-09-17T12:29:38Z</time>
      </trkpt>
      <trkpt lat="44.11804" lon="7.51768">
        <ele>2033</ele>
        <time>2017-09-17T12:29:39Z</time>
      </trkpt>
      <trkpt lat="44.11813" lon="7.51767">
        <ele>2032</ele>
        <time>2017-09-17T12:29:40Z</time>
      </trkpt>
      <trkpt lat="44.11822" lon="7.51765">
        <ele>2032</ele>
        <time>2017-09-17T12:29:41Z</time>
      </trkpt>
      <trkpt lat="44.11832" lon="7.51763">
        <ele>2031</ele>
        <time>2017-09-17T12:29:42Z</time>
      </trkpt>
      <trkpt lat="44.11842" lon="7.5176">
        <ele>2030</ele>
        <time>2017-09-17T12:29:43Z</time>
      </trkpt>
      <trkpt lat="44.11852" lon="7.51757">
        <ele>2029</ele>
        <time>2017-09-17T12:29:44Z</time>
      </trkpt>
      <trkpt lat="44.11862" lon="7.51753">
        <ele>2028</ele>
        <time>2017-09-17T12:29:45Z</time>
      </trkpt>
      <trkpt lat="44.11872" lon="7.51749">
        <ele>2027</ele>
        <time>2017-09-17T12:29:46Z</time>
      </trkpt>
      <trkpt lat="44.11882" lon="7.51746">
        <ele>2026</ele>
        <time>2017-09-17T12:29:47Z</time>
      </trkpt>
      <trkpt lat="44.11892" lon="7.51744">
        <ele>2025</ele>
        <time>2017-09-17T12:29:48Z</time>
      </trkpt>
      <trkpt lat="44.11902" lon="7.5174">
        <ele>2024</ele>
        <time>2017-09-17T12:29:49Z</time>
      </trkpt>
      <trkpt lat="44.11912" lon="7.51735">
        <ele>2023</ele>
        <time>2017-09-17T12:29:50Z</time>
      </trkpt>
      <trkpt lat="44.11922" lon="7.5173">
        <ele>2022</ele>
        <time>2017-09-17T12:29:51Z</time>
      </trkpt>
      <trkpt lat="44.11932" lon="7.51723">
        <ele>2021</ele>
        <time>2017-09-17T12:29:52Z</time>
      </trkpt>
      <trkpt lat="44.11942" lon="7.51716">
        <ele>2020</ele>
        <time>2017-09-17T12:29:53Z</time>
      </trkpt>
      <trkpt lat="44.11953" lon="7.51709">
        <ele>2019</ele>
        <time>2017-09-17T12:29:54Z</time>
      </trkpt>
      <trkpt lat="44.11964" lon="7.51703">
        <ele>2018</ele>
        <time>2017-09-17T12:29:55Z</time>
      </trkpt>
      <trkpt lat="44.11975" lon="7.51696">
        <ele>2017</ele>
        <time>2017-09-17T12:29:56Z</time>
      </trkpt>
      <trkpt lat="44.11986" lon="7.51688">
        <ele>2016</ele>
        <time>2017-09-17T12:29:57Z</time>
      </trkpt>
      <trkpt lat="44.11998" lon="7.5168">
        <ele>2015</ele>
        <time>2017-09-17T12:29:58Z</time>
      </trkpt>
      <trkpt lat="44.12009" lon="7.51673">
        <ele>2013</ele>
        <time>2017-09-17T12:29:59Z</time>
      </trkpt>
      <trkpt lat="44.1202" lon="7.51667">
        <ele>2012</ele>
        <time>2017-09-17T12:30:00Z</time>
      </trkpt>
      <trkpt lat="44.12031" lon="7.5166">
        <ele>2011</ele>
        <time>2017-09-17T12:30:01Z</time>
      </trkpt>
      <trkpt lat="44.12041" lon="7.5165">
        <ele>2009</ele>
        <time>2017-09-17T12:30:02Z</time>
      </trkpt>
      <trkpt lat="44.12049" lon="7.51639">
        <ele>2008</ele>
        <time>2017-09-17T12:30:03Z</time>
      </trkpt>
      <trkpt lat="44.12057" lon="7.51626">
        <ele>2007</ele>
        <time>2017-09-17T12:30:04Z</time>
      </trkpt>
      <trkpt lat="44.12063" lon="7.51612">
        <ele>2006</ele>
        <time>2017-09-17T12:30:05Z</time>
      </trkpt>
      <trkpt lat="44.12067" lon="7.51596">
        <ele>2004</ele>
        <time>2017-09-17T12:30:06Z</time>
      </trkpt>
      <trkpt lat="44.1207" lon="7.51579">
        <ele>2003</ele>
        <time>2017-09-17T12:30:07Z</time>
      </trkpt>
      <trkpt lat="44.12072" lon="7.51564">
        <ele>2002</ele>
        <time>2017-09-17T12:30:08Z</time>
      </trkpt>
      <trkpt lat="44.12075" lon="7.5155">
        <ele>2002</ele>
        <time>2017-09-17T12:30:09Z</time>
      </trkpt>
      <trkpt lat="44.12079" lon="7.51539">
        <ele>2001</ele>
        <time>2017-09-17T12:30:10Z</time>
      </trkpt>
      <trkpt lat="44.12085" lon="7.51531">
        <ele>2000</ele>
        <time>2017-09-17T12:30:11Z</time>
      </trkpt>
      <trkpt lat="44.12093" lon="7.51528">
        <ele>1999</ele>
        <time>2017-09-17T12:30:12Z</time>
      </trkpt>
      <trkpt lat="44.12101" lon="7.51531">
        <ele>1999</ele>
        <time>2017-09-17T12:30:13Z</time>
      </trkpt>
      <trkpt lat="44.12108" lon="7.51537">
        <ele>1998</ele>
        <time>2017-09-17T12:30:14Z</time>
      </trkpt>
      <trkpt lat="44.12116" lon="7.51542">
        <ele>1997</ele>
        <time>2017-09-17T12:30:15Z</time>
      </trkpt>
      <trkpt lat="44.12125" lon="7.51545">
        <ele>1997</ele>
        <time>2017-09-17T12:30:16Z</time>
      </trkpt>
      <trkpt lat="44.12134" lon="7.51547">
        <ele>1996</ele>
        <time>2017-09-17T12:30:17Z</time>
      </trkpt>
      <trkpt lat="44.12144" lon="7.51546">
        <ele>1995</ele>
        <time>2017-09-17T12:30:18Z</time>
      </trkpt>
      <trkpt lat="44.12154" lon="7.51542">
        <ele>1994</ele>
        <time>2017-09-17T12:30:19Z</time>
      </trkpt>
      <trkpt lat="44.12164" lon="7.51537">
        <ele>1993</ele>
        <time>2017-09-17T12:30:20Z</time>
      </trkpt>
      <trkpt lat="44.12173" lon="7.51533">
        <ele>1992</ele>
        <time>2017-09-17T12:30:21Z</time>
      </trkpt>
      <trkpt lat="44.12182" lon="7.51533">
        <ele>1991</ele>
        <time>2017-09-17T12:30:22Z</time>
      </trkpt>
      <trkpt lat="44.12189" lon="7.51537">
        <ele>1991</ele>
        <time>2017-09-17T12:30:23Z</time>
      </trkpt>
      <trkpt lat="44.12196" lon="7.51544">
        <ele>1990</ele>
        <time>2017-09-17T12:30:24Z</time>
      </trkpt>
      <trkpt lat="44.12202" lon="7.51553">
        <ele>1989</ele>
        <time>2017-09-17T12:30:25Z</time>
      </trkpt>
      <trkpt lat="44.12209" lon="7.5156">
        <ele>1989</ele>
        <time>2017-09-17T12:30:26Z</time>
      </trkpt>
      <trkpt lat="44.12217" lon="7.51564">
        <ele>1988</ele>
        <time>2017-09-17T12:30:27Z</time>
      </trkpt>
      <trkpt lat="44.12226" lon="7.51566">
        <ele>1988</ele>
        <time>2017-09-17T12:30:28Z</time>
      </trkpt>
      <trkpt lat="44.12235" lon="7.51564">
        <ele>1987</ele>
        <time>2017-09-17T12:30:29Z</time>
      </trkpt>
      <trkpt lat="44.12243" lon="7.51559">
        <ele>1987</ele>
        <time>2017-09-17T12:30:30Z</time>
      </trkpt>
      <trkpt lat="44.12252" lon="7.51554">
        <ele>1986</ele>
        <time>2017-09-17T12:30:31Z</time>
      </trkpt>
      <trkpt lat="44.12261" lon="7.51547">
        <ele>1985</ele>
        <time>2017-09-17T12:30:32Z</time>
      </trkpt>
      <trkpt lat="44.12268" lon="7.51538">
        <ele>1985</ele>
        <time>2017-09-17T12:30:33Z</time>
      </trkpt>
      <trkpt lat="44.12275" lon="7.51527">
        <ele>1984</ele>
        <time>2017-09-17T12:30:34Z</time>
      </trkpt>
      <trkpt lat="44.12283" lon="7.51517">
        <ele>1983</ele>
        <time>2017-09-17T12:30:35Z</time>
      </trkpt>
      <trkpt lat="44.12291" lon="7.51507">
        <ele>1982</ele>
        <time>2017-09-17T12:30:36Z</time>
      </trkpt>
      <trkpt lat="44.12299" lon="7.51497">
        <ele>1982</ele>
        <time>2017-09-17T12:30:37Z</time>
      </trkpt>
      <trkpt lat="44.12307" lon="7.51486">
        <ele>1981</ele>
        <time>2017-09-17T12:30:38Z</time>
      </trkpt>
      <trkpt lat="44.12316" lon="7.51475">
        <ele>1980</ele>
        <time>2017-09-17T12:30:39Z</time>
      </trkpt>
      <trkpt lat="44.12323" lon="7.51465">
        <ele>1980</ele>
        <time>2017-09-17T12:30:40Z</time>
      </trkpt>
      <trkpt lat="44.12331" lon="7.51454">
        <ele>1979</ele>
        <time>2017-09-17T12:30:41Z</time>
      </trkpt>
      <trkpt lat="44.1234" lon="7.51444">
        <ele>1978</ele>
        <time>2017-09-17T12:30:42Z</time>
      </trkpt>
      <trkpt lat="44.1235" lon="7.51436">
        <ele>1978</ele>
        <time>2017-09-17T12:30:43Z</time>
      </trkpt>
      <trkpt lat="44.1236" lon="7.51431">
        <ele>1977</ele>
        <time>2017-09-17T12:30:44Z</time>
      </trkpt>
      <trkpt lat="44.12371" lon="7.51428">
        <ele>1975</ele>
        <time>2017-09-17T12:30:45Z</time>
      </trkpt>
      <trkpt lat="44.12382" lon="7.51424">
        <ele>1974</ele>
        <time>2017-09-17T12:30:46Z</time>
      </trkpt>
      <trkpt lat="44.12393" lon="7.51419">
        <ele>1973</ele>
        <time>2017-09-17T12:30:47Z</time>
      </trkpt>
      <trkpt lat="44.12405" lon="7.51416">
        <ele>1972</ele>
        <time>2017-09-17T12:30:48Z</time>
      </trkpt>
      <trkpt lat="44.12417" lon="7.51414">
        <ele>1971</ele>
        <time>2017-09-17T12:30:49Z</time>
      </trkpt>
      <trkpt lat="44.12429" lon="7.51411">
        <ele>1970</ele>
        <time>2017-09-17T12:30:50Z</time>
      </trkpt>
      <trkpt lat="44.12441" lon="7.51408">
        <ele>1969</ele>
        <time>2017-09-17T12:30:51Z</time>
      </trkpt>
      <trkpt lat="44.12453" lon="7.51407">
        <ele>1968</ele>
        <time>2017-09-17T12:30:52Z</time>
      </trkpt>
      <trkpt lat="44.12465" lon="7.51405">
        <ele>1967</ele>
        <time>2017-09-17T12:30:53Z</time>
      </trkpt>
      <trkpt lat="44.12477" lon="7.51404">
        <ele>1965</ele>
        <time>2017-09-17T12:30:54Z</time>
      </trkpt>
      <trkpt lat="44.1249" lon="7.51405">
        <ele>1964</ele>
        <time>2017-09-17T12:30:55Z</time>
      </trkpt>
      <trkpt lat="44.12501" lon="7.51408">
        <ele>1963</ele>
        <time>2017-09-17T12:30:56Z</time>
      </trkpt>
      <trkpt lat="44.12512" lon="7.51412">
        <ele>1961</ele>
        <time>2017-09-17T12:30:57Z</time>
      </trkpt>
      <trkpt lat="44.12522" lon="7.51418">
        <ele>1960</ele>
        <time>2017-09-17T12:30:58Z</time>
      </trkpt>
      <trkpt lat="44.12529" lon="7.51428">
        <ele>1958</ele>
        <time>2017-09-17T12:30:59Z</time>
      </trkpt>
      <trkpt lat="44.12534" lon="7.5144">
        <ele>1957</ele>
        <time>2017-09-17T12:31:00Z</time>
      </trkpt>
      <trkpt lat="44.12538" lon="7.51453">
        <ele>1956</ele>
        <time>2017-09-17T12:31:01Z</time>
      </trkpt>
      <trkpt lat="44.12542" lon="7.51467">
        <ele>1955</ele>
        <time>2017-09-17T12:31:02Z</time>
      </trkpt>
      <trkpt lat="44.12547" lon="7.51479">
        <ele>1954</ele>
        <time>2017-09-17T12:31:03Z</time>
      </trkpt>
      <trkpt lat="44.12552" lon="7.5149">
        <ele>1953</ele>
        <time>2017-09-17T12:31:04Z</time>
      </trkpt>
      <trkpt lat="44.12556" lon="7.515">
        <ele>1952</ele>
        <time>2017-09-17T12:31:05Z</time>
      </trkpt>
      <trkpt lat="44.1256" lon="7.51509">
        <ele>1951</ele>
        <time>2017-09-17T12:31:06Z</time>
      </trkpt>
      <trkpt lat="44.12564" lon="7.51517">
        <ele>1950</ele>
        <time>2017-09-17T12:31:07Z</time>
      </trkpt>
      <trkpt lat="44.1257" lon="7.51522">
        <ele>1950</ele>
        <time>2017-09-17T12:31:08Z</time>
      </trkpt>
      <trkpt lat="44.12577" lon="7.51526">
        <ele>1949</ele>
        <time>2017-09-17T12:31:09Z</time>
      </trkpt>
      <trkpt lat="44.12584" lon="7.51528">
        <ele>1948</ele>
        <time>2017-09-17T12:31:10Z</time>
      </trkpt>
      <trkpt lat="44.12591" lon="7.51531">
        <ele>1948</ele>
        <time>2017-09-17T12:31:11Z</time>
      </trkpt>
      <trkpt lat="44.12598" lon="7.51536">
        <ele>1947</ele>
        <time>2017-09-17T12:31:12Z</time>
      </trkpt>
      <trkpt lat="44.12604" lon="7.51542">
        <ele>1946</ele>
        <time>2017-09-17T12:31:13Z</time>
      </trkpt>
      <trkpt lat="44.12609" lon="7.51549">
        <ele>1946</ele>
        <time>2017-09-17T12:31:14Z</time>
      </trkpt>
      <trkpt lat="44.12612" lon="7.51558">
        <ele>1946</ele>
        <time>2017-09-17T12:31:15Z</time>
      </trkpt>
      <trkpt lat="44.12616" lon="7.51566">
        <ele>1945</ele>
        <time>2017-09-17T12:31:16Z</time>
      </trkpt>
      <trkpt lat="44.12619" lon="7.51574">
        <ele>1945</ele>
        <time>2017-09-17T12:31:17Z</time>
      </trkpt>
      <trkpt lat="44.12623" lon="7.51581">
        <ele>1945</ele>
        <time>2017-09-17T12:31:18Z</time>
      </trkpt>
      <trkpt lat="44.12627" lon="7.51588">
        <ele>1944</ele>
        <time>2017-09-17T12:31:19Z</time>
      </trkpt>
      <trkpt lat="44.12632" lon="7.51595">
        <ele>1944</ele>
        <time>2017-09-17T12:31:20Z</time>
      </trkpt>
      <trkpt lat="44.12637" lon="7.51602">
        <ele>1943</ele>
        <time>2017-09-17T12:31:21Z</time>
      </trkpt>
      <trkpt lat="44.12642" lon="7.51608">
        <ele>1942</ele>
        <time>2017-09-17T12:31:22Z</time>
      </trkpt>
      <trkpt lat="44.12648" lon="7.51612">
        <ele>1942</ele>
        <time>2017-09-17T12:31:23Z</time>
      </trkpt>
      <trkpt lat="44.12655" lon="7.51616">
        <ele>1941</ele>
        <time>2017-09-17T12:31:24Z</time>
      </trkpt>
      <trkpt lat="44.12662" lon="7.51619">
        <ele>1941</ele>
        <time>2017-09-17T12:31:25Z</time>
      </trkpt>
      <trkpt lat="44.1267" lon="7.51621">
        <ele>1940</ele>
        <time>2017-09-17T12:31:26Z</time>
      </trkpt>
      <trkpt lat="44.12677" lon="7.51624">
        <ele>1939</ele>
        <time>2017-09-17T12:31:27Z</time>
      </trkpt>
      <trkpt lat="44.12684" lon="7.51627">
        <ele>1938</ele>
        <time>2017-09-17T12:31:28Z</time>
      </trkpt>
      <trkpt lat="44.1269" lon="7.51631">
        <ele>1938</ele>
        <time>2017-09-17T12:31:29Z</time>
      </trkpt>
      <trkpt lat="44.12695" lon="7.51636">
        <ele>1937</ele>
        <time>2017-09-17T12:31:30Z</time>
      </trkpt>
      <trkpt lat="44.12699" lon="7.51644">
        <ele>1936</ele>
        <time>2017-09-17T12:31:31Z</time>
      </trkpt>
      <trkpt lat="44.12701" lon="7.51652">
        <ele>1935</ele>
        <time>2017-09-17T12:31:32Z</time>
      </trkpt>
      <trkpt lat="44.12705" lon="7.51661">
        <ele>1935</ele>
        <time>2017-09-17T12:31:33Z</time>
      </trkpt>
      <trkpt lat="44.1271" lon="7.51669">
        <ele>1934</ele>
        <time>2017-09-17T12:31:34Z</time>
      </trkpt>
      <trkpt lat="44.12715" lon="7.51677">
        <ele>1933</ele>
        <time>2017-09-17T12:31:35Z</time>
      </trkpt>
      <trkpt lat="44.12721" lon="7.51685">
        <ele>1932</ele>
        <time>2017-09-17T12:31:36Z</time>
      </trkpt>
      <trkpt lat="44.12726" lon="7.51694">
        <ele>1931</ele>
        <time>2017-09-17T12:31:37Z</time>
      </trkpt>
      <trkpt lat="44.12731" lon="7.51702">
        <ele>1930</ele>
        <time>2017-09-17T12:31:38Z</time>
      </trkpt>
      <trkpt lat="44.12735" lon="7.51709">
        <ele>1930</ele>
        <time>2017-09-17T12:31:39Z</time>
      </trkpt>
      <trkpt lat="44.1274" lon="7.51716">
        <ele>1929</ele>
        <time>2017-09-17T12:31:40Z</time>
      </trkpt>
      <trkpt lat="44.12746" lon="7.5172">
        <ele>1928</ele>
        <time>2017-09-17T12:31:41Z</time>
      </trkpt>
      <trkpt lat="44.12753" lon="7.51723">
        <ele>1927</ele>
        <time>2017-09-17T12:31:42Z</time>
      </trkpt>
      <trkpt lat="44.12761" lon="7.51725">
        <ele>1926</ele>
        <time>2017-09-17T12:31:43Z</time>
      </trkpt>
      <trkpt lat="44.12768" lon="7.51727">
        <ele>1925</ele>
        <time>2017-09-17T12:31:44Z</time>
      </trkpt>
      <trkpt lat="44.12776" lon="7.51729">
        <ele>1925</ele>
        <time>2017-09-17T12:31:45Z</time>
      </trkpt>
      <trkpt lat="44.12783" lon="7.51733">
        <ele>1924</ele>
        <time>2017-09-17T12:31:46Z</time>
      </trkpt>
      <trkpt lat="44.12788" lon="7.51739">
        <ele>1924</ele>
        <time>2017-09-17T12:31:47Z</time>
      </trkpt>
      <trkpt lat="44.12792" lon="7.51747">
        <ele>1923</ele>
        <time>2017-09-17T12:31:48Z</time>
      </trkpt>
      <trkpt lat="44.12795" lon="7.51757">
        <ele>1923</ele>
        <time>2017-09-17T12:31:49Z</time>
      </trkpt>
      <trkpt lat="44.12797" lon="7.51767">
        <ele>1922</ele>
        <time>2017-09-17T12:31:50Z</time>
      </trkpt>
      <trkpt lat="44.12797" lon="7.51778">
        <ele>1921</ele>
        <time>2017-09-17T12:31:51Z</time>
      </trkpt>
      <trkpt lat="44.12797" lon="7.5179">
        <ele>1920</ele>
        <time>2017-09-17T12:31:52Z</time>
      </trkpt>
      <trkpt lat="44.12795" lon="7.51801">
        <ele>1920</ele>
        <time>2017-09-17T12:31:53Z</time>
      </trkpt>
      <trkpt lat="44.12793" lon="7.51813">
        <ele>1919</ele>
        <time>2017-09-17T12:31:54Z</time>
      </trkpt>
      <trkpt lat="44.1279" lon="7.51824">
        <ele>1918</ele>
        <time>2017-09-17T12:31:55Z</time>
      </trkpt>
      <trkpt lat="44.12786" lon="7.51836">
        <ele>1917</ele>
        <time>2017-09-17T12:31:56Z</time>
      </trkpt>
      <trkpt lat="44.12782" lon="7.51848">
        <ele>1916</ele>
        <time>2017-09-17T12:31:57Z</time>
      </trkpt>
      <trkpt lat="44.12778" lon="7.5186">
        <ele>1915</ele>
        <time>2017-09-17T12:31:58Z</time>
      </trkpt>
      <trkpt lat="44.12775" lon="7.51872">
        <ele>1914</ele>
        <time>2017-09-17T12:31:59Z</time>
      </trkpt>
      <trkpt lat="44.12773" lon="7.51885">
        <ele>1913</ele>
        <time>2017-09-17T12:32:00Z</time>
      </trkpt>
      <trkpt lat="44.12771" lon="7.51898">
        <ele>1912</ele>
        <time>2017-09-17T12:32:01Z</time>
      </trkpt>
      <trkpt lat="44.12768" lon="7.51911">
        <ele>1912</ele>
        <time>2017-09-17T12:32:02Z</time>
      </trkpt>
      <trkpt lat="44.12765" lon="7.51922">
        <ele>1911</ele>
        <time>2017-09-17T12:32:03Z</time>
      </trkpt>
      <trkpt lat="44.12762" lon="7.51932">
        <ele>1910</ele>
        <time>2017-09-17T12:32:04Z</time>
      </trkpt>
      <trkpt lat="44.1276" lon="7.51942">
        <ele>1909</ele>
        <time>2017-09-17T12:32:05Z</time>
      </trkpt>
      <trkpt lat="44.12761" lon="7.51951">
        <ele>1909</ele>
        <time>2017-09-17T12:32:06Z</time>
      </trkpt>
      <trkpt lat="44.12766" lon="7.51957">
        <ele>1908</ele>
        <time>2017-09-17T12:32:07Z</time>
      </trkpt>
      <trkpt lat="44.12772" lon="7.5196">
        <ele>1908</ele>
        <time>2017-09-17T12:32:08Z</time>
      </trkpt>
      <trkpt lat="44.12779" lon="7.5196">
        <ele>1907</ele>
        <time>2017-09-17T12:32:09Z</time>
      </trkpt>
      <trkpt lat="44.12787" lon="7.51959">
        <ele>1907</ele>
        <time>2017-09-17T12:32:10Z</time>
      </trkpt>
      <trkpt lat="44.12794" lon="7.51958">
        <ele>1906</ele>
        <time>2017-09-17T12:32:11Z</time>
      </trkpt>
      <trkpt lat="44.12801" lon="7.51961">
        <ele>1906</ele>
        <time>2017-09-17T12:32:12Z</time>
      </trkpt>
      <trkpt lat="44.12807" lon="7.51968">
        <ele>1905</ele>
        <time>2017-09-17T12:32:13Z</time>
      </trkpt>
      <trkpt lat="44.12811" lon="7.51976">
        <ele>1905</ele>
        <time>2017-09-17T12:32:14Z</time>
      </trkpt>
      <trkpt lat="44.12814" lon="7.51986">
        <ele>1904</ele>
        <time>2017-09-17T12:32:15Z</time>
      </trkpt>
      <trkpt lat="44.12815" lon="7.51996">
        <ele>1904</ele>
        <time>2017-09-17T12:32:16Z</time>
      </trkpt>
      <trkpt lat="44.12814" lon="7.52007">
        <ele>1903</ele>
        <time>2017-09-17T12:32:17Z</time>
      </trkpt>
      <trkpt lat="44.12812" lon="7.52017">
        <ele>1903</ele>
        <time>2017-09-17T12:32:18Z</time>
      </trkpt>
      <trkpt lat="44.12809" lon="7.52026">
        <ele>1903</ele>
        <time>2017-09-17T12:32:19Z</time>
      </trkpt>
      <trkpt lat="44.12806" lon="7.52036">
        <ele>1902</ele>
        <time>2017-09-17T12:32:20Z</time>
      </trkpt>
      <trkpt lat="44.12804" lon="7.52046">
        <ele>1902</ele>
        <time>2017-09-17T12:32:21Z</time>
      </trkpt>
      <trkpt lat="44.12802" lon="7.52056">
        <ele>1901</ele>
        <time>2017-09-17T12:32:22Z</time>
      </trkpt>
      <trkpt lat="44.12799" lon="7.52066">
        <ele>1901</ele>
        <time>2017-09-17T12:32:23Z</time>
      </trkpt>
      <trkpt lat="44.12798" lon="7.52076">
        <ele>1901</ele>
        <time>2017-09-17T12:32:24Z</time>
      </trkpt>
      <trkpt lat="44.12797" lon="7.52086">
        <ele>1900</ele>
        <time>2017-09-17T12:32:25Z</time>
      </trkpt>
      <trkpt lat="44.12797" lon="7.52097">
        <ele>1900</ele>
        <time>2017-09-17T12:32:26Z</time>
      </trkpt>
      <trkpt lat="44.12798" lon="7.52107">
        <ele>1899</ele>
        <time>2017-09-17T12:32:27Z</time>
      </trkpt>
      <trkpt lat="44.12798" lon="7.52117">
        <ele>1899</ele>
        <time>2017-09-17T12:32:28Z</time>
      </trkpt>
      <trkpt lat="44.12798" lon="7.52127">
        <ele>1898</ele>
        <time>2017-09-17T12:32:29Z</time>
      </trkpt>
      <trkpt lat="44.12797" lon="7.52138">
        <ele>1898</ele>
        <time>2017-09-17T12:32:30Z</time>
      </trkpt>
      <trkpt lat="44.12795" lon="7.52148">
        <ele>1897</ele>
        <time>2017-09-17T12:32:31Z</time>
      </trkpt>
      <trkpt lat="44.12791" lon="7.52157">
        <ele>1897</ele>
        <time>2017-09-17T12:32:32Z</time>
      </trkpt>
      <trkpt lat="44.12788" lon="7.52166">
        <ele>1896</ele>
        <time>2017-09-17T12:32:33Z</time>
      </trkpt>
      <trkpt lat="44.12783" lon="7.52176">
        <ele>1896</ele>
        <time>2017-09-17T12:32:34Z</time>
      </trkpt>
      <trkpt lat="44.1278" lon="7.52185">
        <ele>1895</ele>
        <time>2017-09-17T12:32:35Z</time>
      </trkpt>
      <trkpt lat="44.12777" lon="7.52195">
        <ele>1895</ele>
        <time>2017-09-17T12:32:36Z</time>
      </trkpt>
      <trkpt lat="44.12773" lon="7.52205">
        <ele>1895</ele>
        <time>2017-09-17T12:32:37Z</time>
      </trkpt>
      <trkpt lat="44.12768" lon="7.52213">
        <ele>1894</ele>
        <time>2017-09-17T12:32:38Z</time>
      </trkpt>
      <trkpt lat="44.12762" lon="7.5222">
        <ele>1894</ele>
        <time>2017-09-17T12:32:39Z</time>
      </trkpt>
      <trkpt lat="44.12755" lon="7.52226">
        <ele>1893</ele>
        <time>2017-09-17T12:32:40Z</time>
      </trkpt>
      <trkpt lat="44.12749" lon="7.52232">
        <ele>1893</ele>
        <time>2017-09-17T12:32:41Z</time>
      </trkpt>
      <trkpt lat="44.12743" lon="7.52239">
        <ele>1893</ele>
        <time>2017-09-17T12:32:42Z</time>
      </trkpt>
      <trkpt lat="44.12736" lon="7.52245">
        <ele>1893</ele>
        <time>2017-09-17T12:32:43Z</time>
      </trkpt>
      <trkpt lat="44.1273" lon="7.52251">
        <ele>1892</ele>
        <time>2017-09-17T12:32:44Z</time>
      </trkpt>
      <trkpt lat="44.12724" lon="7.52259">
        <ele>1892</ele>
        <time>2017-09-17T12:32:45Z</time>
      </trkpt>
      <trkpt lat="44.12719" lon="7.52267">
        <ele>1892</ele>
        <time>2017-09-17T12:32:46Z</time>
      </trkpt>
      <trkpt lat="44.12714" lon="7.52276">
        <ele>1891</ele>
        <time>2017-09-17T12:32:47Z</time>
      </trkpt>
      <trkpt lat="44.12713" lon="7.52286">
        <ele>1891</ele>
        <time>2017-09-17T12:32:48Z</time>
      </trkpt>
      <trkpt lat="44.12714" lon="7.52296">
        <ele>1890</ele>
        <time>2017-09-17T12:32:49Z</time>
      </trkpt>
      <trkpt lat="44.12717" lon="7.52307">
        <ele>1890</ele>
        <time>2017-09-17T12:32:50Z</time>
      </trkpt>
      <trkpt lat="44.12719" lon="7.52317">
        <ele>1889</ele>
        <time>2017-09-17T12:32:51Z</time>
      </trkpt>
      <trkpt lat="44.12718" lon="7.52328">
        <ele>1889</ele>
        <time>2017-09-17T12:32:52Z</time>
      </trkpt>
      <trkpt lat="44.12716" lon="7.52339">
        <ele>1889</ele>
        <time>2017-09-17T12:32:53Z</time>
      </trkpt>
      <trkpt lat="44.12713" lon="7.5235">
        <ele>1888</ele>
        <time>2017-09-17T12:32:54Z</time>
      </trkpt>
      <trkpt lat="44.1271" lon="7.5236">
        <ele>1888</ele>
        <time>2017-09-17T12:32:55Z</time>
      </trkpt>
      <trkpt lat="44.12706" lon="7.5237">
        <ele>1887</ele>
        <time>2017-09-17T12:32:56Z</time>
      </trkpt>
      <trkpt lat="44.12701" lon="7.5238">
        <ele>1887</ele>
        <time>2017-09-17T12:32:57Z</time>
      </trkpt>
      <trkpt lat="44.12697" lon="7.52389">
        <ele>1887</ele>
        <time>2017-09-17T12:32:58Z</time>
      </trkpt>
      <trkpt lat="44.12692" lon="7.52399">
        <ele>1886</ele>
        <time>2017-09-17T12:32:59Z</time>
      </trkpt>
      <trkpt lat="44.12687" lon="7.52409">
        <ele>1886</ele>
        <time>2017-09-17T12:33:00Z</time>
      </trkpt>
      <trkpt lat="44.12683" lon="7.52418">
        <ele>1886</ele>
        <time>2017-09-17T12:33:01Z</time>
      </trkpt>
      <trkpt lat="44.12679" lon="7.52428">
        <ele>1885</ele>
        <time>2017-09-17T12:33:02Z</time>
      </trkpt>
      <trkpt lat="44.12674" lon="7.52438">
        <ele>1885</ele>
        <time>2017-09-17T12:33:03Z</time>
      </trkpt>
      <trkpt lat="44.1267" lon="7.52447">
        <ele>1885</ele>
        <time>2017-09-17T12:33:04Z</time>
      </trkpt>
      <trkpt lat="44.12665" lon="7.52456">
        <ele>1885</ele>
        <time>2017-09-17T12:33:05Z</time>
      </trkpt>
      <trkpt lat="44.1266" lon="7.52464">
        <ele>1885</ele>
        <time>2017-09-17T12:33:06Z</time>
      </trkpt>
      <trkpt lat="44.12655" lon="7.52473">
        <ele>1885</ele>
        <time>2017-09-17T12:33:07Z</time>
      </trkpt>
      <trkpt lat="44.1265" lon="7.52482">
        <ele>1885</ele>
        <time>2017-09-17T12:33:08Z</time>
      </trkpt>
      <trkpt lat="44.12645" lon="7.5249">
        <ele>1885</ele>
        <time>2017-09-17T12:33:09Z</time>
      </trkpt>
      <trkpt lat="44.12639" lon="7.52497">
        <ele>1885</ele>
        <time>2017-09-17T12:33:10Z</time>
      </trkpt>
      <trkpt lat="44.12634" lon="7.52505">
        <ele>1884</ele>
        <time>2017-09-17T12:33:11Z</time>
      </trkpt>
      <trkpt lat="44.1263" lon="7.52513">
        <ele>1884</ele>
        <time>2017-09-17T12:33:12Z</time>
      </trkpt>
      <trkpt lat="44.12626" lon="7.52523">
        <ele>1884</ele>
        <time>2017-09-17T12:33:13Z</time>
      </trkpt>
      <trkpt lat="44.12622" lon="7.52533">
        <ele>1884</ele>
        <time>2017-09-17T12:33:14Z</time>
      </trkpt>
      <trkpt lat="44.12619" lon="7.52544">
        <ele>1883</ele>
        <time>2017-09-17T12:33:15Z</time>
      </trkpt>
      <trkpt lat="44.12616" lon="7.52556">
        <ele>1882</ele>
        <time>2017-09-17T12:33:16Z</time>
      </trkpt>
      <trkpt lat="44.12615" lon="7.52567">
        <ele>1882</ele>
        <time>2017-09-17T12:33:17Z</time>
      </trkpt>
      <trkpt lat="44.12614" lon="7.52577">
        <ele>1881</ele>
        <time>2017-09-17T12:33:18Z</time>
      </trkpt>
      <trkpt lat="44.12615" lon="7.52587">
        <ele>1880</ele>
        <time>2017-09-17T12:33:19Z</time>
      </trkpt>
      <trkpt lat="44.12617" lon="7.52595">
        <ele>1880</ele>
        <time>2017-09-17T12:33:20Z</time>
      </trkpt>
      <trkpt lat="44.12623" lon="7.52601">
        <ele>1879</ele>
        <time>2017-09-17T12:33:21Z</time>
      </trkpt>
      <trkpt lat="44.1263" lon="7.52604">
        <ele>1878</ele>
        <time>2017-09-17T12:33:22Z</time>
      </trkpt>
      <trkpt lat="44.12639" lon="7.52606">
        <ele>1878</ele>
        <time>2017-09-17T12:33:23Z</time>
      </trkpt>
      <trkpt lat="44.12648" lon="7.52608">
        <ele>1877</ele>
        <time>2017-09-17T12:33:24Z</time>
      </trkpt>
      <trkpt lat="44.12657" lon="7.52611">
        <ele>1876</ele>
        <time>2017-09-17T12:33:25Z</time>
      </trkpt>
      <trkpt lat="44.12666" lon="7.52613">
        <ele>1876</ele>
        <time>2017-09-17T12:33:26Z</time>
      </trkpt>
      <trkpt lat="44.12675" lon="7.52615">
        <ele>1875</ele>
        <time>2017-09-17T12:33:27Z</time>
      </trkpt>
      <trkpt lat="44.12684" lon="7.52618">
        <ele>1875</ele>
        <time>2017-09-17T12:33:28Z</time>
      </trkpt>
      <trkpt lat="44.12694" lon="7.52619">
        <ele>1874</ele>
        <time>2017-09-17T12:33:29Z</time>
      </trkpt>
      <trkpt lat="44.12703" lon="7.52621">
        <ele>1873</ele>
        <time>2017-09-17T12:33:30Z</time>
      </trkpt>
      <trkpt lat="44.12712" lon="7.52624">
        <ele>1873</ele>
        <time>2017-09-17T12:33:31Z</time>
      </trkpt>
      <trkpt lat="44.12721" lon="7.52626">
        <ele>1872</ele>
        <time>2017-09-17T12:33:32Z</time>
      </trkpt>
      <trkpt lat="44.12729" lon="7.52631">
        <ele>1871</ele>
        <time>2017-09-17T12:33:33Z</time>
      </trkpt>
      <trkpt lat="44.12737" lon="7.52636">
        <ele>1870</ele>
        <time>2017-09-17T12:33:34Z</time>
      </trkpt>
      <trkpt lat="44.12743" lon="7.52645">
        <ele>1870</ele>
        <time>2017-09-17T12:33:35Z</time>
      </trkpt>
      <trkpt lat="44.12747" lon="7.52655">
        <ele>1869</ele>
        <time>2017-09-17T12:33:36Z</time>
      </trkpt>
      <trkpt lat="44.12748" lon="7.52667">
        <ele>1868</ele>
        <time>2017-09-17T12:33:37Z</time>
      </trkpt>
      <trkpt lat="44.12749" lon="7.52679">
        <ele>1867</ele>
        <time>2017-09-17T12:33:38Z</time>
      </trkpt>
      <trkpt lat="44.12751" lon="7.52691">
        <ele>1866</ele>
        <time>2017-09-17T12:33:39Z</time>
      </trkpt>
      <trkpt lat="44.12754" lon="7.52703">
        <ele>1865</ele>
        <time>2017-09-17T12:33:40Z</time>
      </trkpt>
      <trkpt lat="44.12758" lon="7.52715">
        <ele>1865</ele>
        <time>2017-09-17T12:33:41Z</time>
      </trkpt>
      <trkpt lat="44.12763" lon="7.52726">
        <ele>1864</ele>
        <time>2017-09-17T12:33:42Z</time>
      </trkpt>
      <trkpt lat="44.12768" lon="7.52736">
        <ele>1863</ele>
        <time>2017-09-17T12:33:43Z</time>
      </trkpt>
      <trkpt lat="44.12773" lon="7.52746">
        <ele>1862</ele>
        <time>2017-09-17T12:33:44Z</time>
      </trkpt>
      <trkpt lat="44.12779" lon="7.52756">
        <ele>1862</ele>
        <time>2017-09-17T12:33:45Z</time>
      </trkpt>
      <trkpt lat="44.12784" lon="7.52766">
        <ele>1861</ele>
        <time>2017-09-17T12:33:46Z</time>
      </trkpt>
      <trkpt lat="44.1279" lon="7.52776">
        <ele>1861</ele>
        <time>2017-09-17T12:33:47Z</time>
      </trkpt>
      <trkpt lat="44.12796" lon="7.52785">
        <ele>1860</ele>
        <time>2017-09-17T12:33:48Z</time>
      </trkpt>
      <trkpt lat="44.12802" lon="7.52794">
        <ele>1859</ele>
        <time>2017-09-17T12:33:49Z</time>
      </trkpt>
      <trkpt lat="44.12808" lon="7.52803">
        <ele>1859</ele>
        <time>2017-09-17T12:33:50Z</time>
      </trkpt>
      <trkpt lat="44.12815" lon="7.52811">
        <ele>1858</ele>
        <time>2017-09-17T12:33:51Z</time>
      </trkpt>
      <trkpt lat="44.12821" lon="7.5282">
        <ele>1858</ele>
        <time>2017-09-17T12:33:52Z</time>
      </trkpt>
      <trkpt lat="44.12827" lon="7.52829">
        <ele>1857</ele>
        <time>2017-09-17T12:33:53Z</time>
      </trkpt>
      <trkpt lat="44.12833" lon="7.52838">
        <ele>1857</ele>
        <time>2017-09-17T12:33:54Z</time>
      </trkpt>
      <trkpt lat="44.12839" lon="7.52847">
        <ele>1856</ele>
        <time>2017-09-17T12:33:55Z</time>
      </trkpt>
      <trkpt lat="44.12844" lon="7.52857">
        <ele>1856</ele>
        <time>2017-09-17T12:33:56Z</time>
      </trkpt>
      <trkpt lat="44.12849" lon="7.52866">
        <ele>1856</ele>
        <time>2017-09-17T12:33:57Z</time>
      </trkpt>
      <trkpt lat="44.12853" lon="7.52877">
        <ele>1855</ele>
        <time>2017-09-17T12:33:58Z</time>
      </trkpt>
      <trkpt lat="44.12856" lon="7.52888">
        <ele>1855</ele>
        <time>2017-09-17T12:33:59Z</time>
      </trkpt>
      <trkpt lat="44.12858" lon="7.52899">
        <ele>1855</ele>
        <time>2017-09-17T12:34:00Z</time>
      </trkpt>
      <trkpt lat="44.12859" lon="7.52909">
        <ele>1855</ele>
        <time>2017-09-17T12:34:01Z</time>
      </trkpt>
      <trkpt lat="44.1286" lon="7.5292">
        <ele>1854</ele>
        <time>2017-09-17T12:34:02Z</time>
      </trkpt>
      <trkpt lat="44.12861" lon="7.52931">
        <ele>1854</ele>
        <time>2017-09-17T12:34:03Z</time>
      </trkpt>
      <trkpt lat="44.12862" lon="7.52942">
        <ele>1854</ele>
        <time>2017-09-17T12:34:04Z</time>
      </trkpt>
      <trkpt lat="44.12865" lon="7.52952">
        <ele>1854</ele>
        <time>2017-09-17T12:34:05Z</time>
      </trkpt>
      <trkpt lat="44.12868" lon="7.52962">
        <ele>1853</ele>
        <time>2017-09-17T12:34:06Z</time>
      </trkpt>
      <trkpt lat="44.12871" lon="7.52973">
        <ele>1853</ele>
        <time>2017-09-17T12:34:07Z</time>
      </trkpt>
      <trkpt lat="44.12874" lon="7.52984">
        <ele>1853</ele>
        <time>2017-09-17T12:34:08Z</time>
      </trkpt>
      <trkpt lat="44.12878" lon="7.52995">
        <ele>1852</ele>
        <time>2017-09-17T12:34:09Z</time>
      </trkpt>
      <trkpt lat="44.12882" lon="7.53005">
        <ele>1852</ele>
        <time>2017-09-17T12:34:10Z</time>
      </trkpt>
      <trkpt lat="44.12886" lon="7.53015">
        <ele>1852</ele>
        <time>2017-09-17T12:34:11Z</time>
      </trkpt>
      <trkpt lat="44.1289" lon="7.53025">
        <ele>1851</ele>
        <time>2017-09-17T12:34:12Z</time>
      </trkpt>
      <trkpt lat="44.12894" lon="7.53035">
        <ele>1851</ele>
        <time>2017-09-17T12:34:13Z</time>
      </trkpt>
      <trkpt lat="44.12898" lon="7.53045">
        <ele>1851</ele>
        <time>2017-09-17T12:34:14Z</time>
      </trkpt>
      <trkpt lat="44.12903" lon="7.53054">
        <ele>1850</ele>
        <time>2017-09-17T12:34:15Z</time>
      </trkpt>
      <trkpt lat="44.12907" lon="7.53064">
        <ele>1850</ele>
        <time>2017-09-17T12:34:16Z</time>
      </trkpt>
      <trkpt lat="44.12911" lon="7.53074">
        <ele>1850</ele>
        <time>2017-09-17T12:34:17Z</time>
      </trkpt>
      <trkpt lat="44.12915" lon="7.53083">
        <ele>1850</ele>
        <time>2017-09-17T12:34:18Z</time>
      </trkpt>
      <trkpt lat="44.1292" lon="7.53093">
        <ele>1849</ele>
        <time>2017-09-17T12:34:19Z</time>
      </trkpt>
      <trkpt lat="44.12924" lon="7.53102">
        <ele>1849</ele>
        <time>2017-09-17T12:34:20Z</time>
      </trkpt>
      <trkpt lat="44.12929" lon="7.53112">
        <ele>1849</ele>
        <time>2017-09-17T12:34:21Z</time>
      </trkpt>
      <trkpt lat="44.12933" lon="7.53121">
        <ele>1848</ele>
        <time>2017-09-17T12:34:22Z</time>
      </trkpt>
      <trkpt lat="44.12938" lon="7.5313">
        <ele>1848</ele>
        <time>2017-09-17T12:34:23Z</time>
      </trkpt>
      <trkpt lat="44.12943" lon="7.53139">
        <ele>1848</ele>
        <time>2017-09-17T12:34:24Z</time>
      </trkpt>
      <trkpt lat="44.12949" lon="7.53148">
        <ele>1847</ele>
        <time>2017-09-17T12:34:25Z</time>
      </trkpt>
      <trkpt lat="44.12954" lon="7.53155">
        <ele>1847</ele>
        <time>2017-09-17T12:34:26Z</time>
      </trkpt>
      <trkpt lat="44.1296" lon="7.53163">
        <ele>1847</ele>
        <time>2017-09-17T12:34:27Z</time>
      </trkpt>
      <trkpt lat="44.12966" lon="7.53169">
        <ele>1847</ele>
        <time>2017-09-17T12:34:28Z</time>
      </trkpt>
      <trkpt lat="44.12972" lon="7.53177">
        <ele>1846</ele>
        <time>2017-09-17T12:34:29Z</time>
      </trkpt>
      <trkpt lat="44.12975" lon="7.53186">
        <ele>1846</ele>
        <time>2017-09-17T12:34:30Z</time>
      </trkpt>
      <trkpt lat="44.12977" lon="7.53195">
        <ele>1846</ele>
        <time>2017-09-17T12:34:31Z</time>
      </trkpt>
      <trkpt lat="44.12978" lon="7.53205">
        <ele>1846</ele>
        <time>2017-09-17T12:34:32Z</time>
      </trkpt>
      <trkpt lat="44.12979" lon="7.53215">
        <ele>1845</ele>
        <time>2017-09-17T12:34:33Z</time>
      </trkpt>
      <trkpt lat="44.1298" lon="7.53225">
        <ele>1845</ele>
        <time>2017-09-17T12:34:34Z</time>
      </trkpt>
      <trkpt lat="44.12981" lon="7.53235">
        <ele>1845</ele>
        <time>2017-09-17T12:34:35Z</time>
      </trkpt>
      <trkpt lat="44.12982" lon="7.53245">
        <ele>1844</ele>
        <time>2017-09-17T12:34:36Z</time>
      </trkpt>
      <trkpt lat="44.12983" lon="7.53255">
        <ele>1844</ele>
        <time>2017-09-17T12:34:37Z</time>
      </trkpt>
      <trkpt lat="44.12985" lon="7.53265">
        <ele>1843</ele>
        <time>2017-09-17T12:34:38Z</time>
      </trkpt>
      <trkpt lat="44.12987" lon="7.53275">
        <ele>1843</ele>
        <time>2017-09-17T12:34:39Z</time>
      </trkpt>
      <trkpt lat="44.1299" lon="7.53285">
        <ele>1843</ele>
        <time>2017-09-17T12:34:40Z</time>
      </trkpt>
      <trkpt lat="44.12992" lon="7.53294">
        <ele>1842</ele>
        <time>2017-09-17T12:34:41Z</time>
      </trkpt>
      <trkpt lat="44.12996" lon="7.53304">
        <ele>1842</ele>
        <time>2017-09-17T12:34:42Z</time>
      </trkpt>
      <trkpt lat="44.12999" lon="7.53314">
        <ele>1841</ele>
        <time>2017-09-17T12:34:43Z</time>
      </trkpt>
      <trkpt lat="44.13002" lon="7.53323">
        <ele>1841</ele>
        <time>2017-09-17T12:34:44Z</time>
      </trkpt>
      <trkpt lat="44.13005" lon="7.53333">
        <ele>1841</ele>
        <time>2017-09-17T12:34:45Z</time>
      </trkpt>
      <trkpt lat="44.13008" lon="7.53343">
        <ele>1840</ele>
        <time>2017-09-17T12:34:46Z</time>
      </trkpt>
      <trkpt lat="44.13011" lon="7.53353">
        <ele>1840</ele>
        <time>2017-09-17T12:34:47Z</time>
      </trkpt>
      <trkpt lat="44.13014" lon="7.53362">
        <ele>1840</ele>
        <time>2017-09-17T12:34:48Z</time>
      </trkpt>
      <trkpt lat="44.13017" lon="7.53372">
        <ele>1840</ele>
        <time>2017-09-17T12:34:49Z</time>
      </trkpt>
      <trkpt lat="44.13021" lon="7.53381">
        <ele>1839</ele>
        <time>2017-09-17T12:34:50Z</time>
      </trkpt>
      <trkpt lat="44.13024" lon="7.5339">
        <ele>1839</ele>
        <time>2017-09-17T12:34:51Z</time>
      </trkpt>
      <trkpt lat="44.13028" lon="7.53399">
        <ele>1839</ele>
        <time>2017-09-17T12:34:52Z</time>
      </trkpt>
      <trkpt lat="44.13032" lon="7.53407">
        <ele>1839</ele>
        <time>2017-09-17T12:34:53Z</time>
      </trkpt>
      <trkpt lat="44.13035" lon="7.53416">
        <ele>1839</ele>
        <time>2017-09-17T12:34:54Z</time>
      </trkpt>
      <trkpt lat="44.13038" lon="7.53425">
        <ele>1839</ele>
        <time>2017-09-17T12:34:55Z</time>
      </trkpt>
      <trkpt lat="44.1304" lon="7.53434">
        <ele>1839</ele>
        <time>2017-09-17T12:34:56Z</time>
      </trkpt>
      <trkpt lat="44.13043" lon="7.53442">
        <ele>1839</ele>
        <time>2017-09-17T12:34:57Z</time>
      </trkpt>
      <trkpt lat="44.13045" lon="7.53451">
        <ele>1839</ele>
        <time>2017-09-17T12:34:58Z</time>
      </trkpt>
      <trkpt lat="44.13048" lon="7.53459">
        <ele>1839</ele>
        <time>2017-09-17T12:34:59Z</time>
      </trkpt>
      <trkpt lat="44.13051" lon="7.53467">
        <ele>1839</ele>
        <time>2017-09-17T12:35:00Z</time>
      </trkpt>
      <trkpt lat="44.13055" lon="7.53475">
        <ele>1839</ele>
        <time>2017-09-17T12:35:01Z</time>
      </trkpt>
      <trkpt lat="44.13059" lon="7.53481">
        <ele>1839</ele>
        <time>2017-09-17T12:35:02Z</time>
      </trkpt>
      <trkpt lat="44.13064" lon="7.53485">
        <ele>1839</ele>
        <time>2017-09-17T12:35:03Z</time>
      </trkpt>
      <trkpt lat="44.1307" lon="7.53487">
        <ele>1839</ele>
        <time>2017-09-17T12:35:04Z</time>
      </trkpt>
      <trkpt lat="44.13075" lon="7.53489">
        <ele>1839</ele>
        <time>2017-09-17T12:35:05Z</time>
      </trkpt>
      <trkpt lat="44.13081" lon="7.5349">
        <ele>1839</ele>
        <time>2017-09-17T12:35:06Z</time>
      </trkpt>
      <trkpt lat="44.13087" lon="7.53491">
        <ele>1840</ele>
        <time>2017-09-17T12:35:07Z</time>
      </trkpt>
      <trkpt lat="44.13092" lon="7.53493">
        <ele>1840</ele>
        <time>2017-09-17T12:35:08Z</time>
      </trkpt>
      <trkpt lat="44.13097" lon="7.53494">
        <ele>1840</ele>
        <time>2017-09-17T12:35:09Z</time>
      </trkpt>
      <trkpt lat="44.13103" lon="7.53496">
        <ele>1840</ele>
        <time>2017-09-17T12:35:10Z</time>
      </trkpt>
      <trkpt lat="44.13108" lon="7.53498">
        <ele>1841</ele>
        <time>2017-09-17T12:35:11Z</time>
      </trkpt>
      <trkpt lat="44.13112" lon="7.53501">
        <ele>1841</ele>
        <time>2017-09-17T12:35:12Z</time>
      </trkpt>
      <trkpt lat="44.13117" lon="7.53504">
        <ele>1841</ele>
        <time>2017-09-17T12:35:13Z</time>
      </trkpt>
      <trkpt lat="44.1312" lon="7.53508">
        <ele>1841</ele>
        <time>2017-09-17T12:35:14Z</time>
      </trkpt>
      <trkpt lat="44.13123" lon="7.53513">
        <ele>1841</ele>
        <time>2017-09-17T12:35:15Z</time>
      </trkpt>
      <trkpt lat="44.13125" lon="7.53519">
        <ele>1841</ele>
        <time>2017-09-17T12:35:16Z</time>
      </trkpt>
      <trkpt lat="44.13127" lon="7.53524">
        <ele>1841</ele>
        <time>2017-09-17T12:35:17Z</time>
      </trkpt>
      <trkpt lat="44.13129" lon="7.5353">
        <ele>1842</ele>
        <time>2017-09-17T12:35:18Z</time>
      </trkpt>
      <trkpt lat="44.1313" lon="7.53535">
        <ele>1842</ele>
        <time>2017-09-17T12:35:19Z</time>
      </trkpt>
      <trkpt lat="44.13132" lon="7.53541">
        <ele>1842</ele>
        <time>2017-09-17T12:35:20Z</time>
      </trkpt>
      <trkpt lat="44.13133" lon="7.53546">
        <ele>1842</ele>
        <time>2017-09-17T12:35:21Z</time>
      </trkpt>
      <trkpt lat="44.13135" lon="7.53551">
        <ele>1842</ele>
        <time>2017-09-17T12:35:22Z</time>
      </trkpt>
      <trkpt lat="44.13137" lon="7.53556">
        <ele>1843</ele>
        <time>2017-09-17T12:35:23Z</time>
      </trkpt>
      <trkpt lat="44.13139" lon="7.53561">
        <ele>1843</ele>
        <time>2017-09-17T12:35:24Z</time>
      </trkpt>
      <trkpt lat="44.13141" lon="7.53566">
        <ele>1843</ele>
        <time>2017-09-17T12:35:25Z</time>
      </trkpt>
      <trkpt lat="44.13144" lon="7.5357">
        <ele>1843</ele>
        <time>2017-09-17T12:35:26Z</time>
      </trkpt>
      <trkpt lat="44.13147" lon="7.53573">
        <ele>1843</ele>
        <time>2017-09-17T12:35:27Z</time>
      </trkpt>
      <trkpt lat="44.1315" lon="7.53577">
        <ele>1844</ele>
        <time>2017-09-17T12:35:28Z</time>
      </trkpt>
      <trkpt lat="44.13153" lon="7.53579">
        <ele>1844</ele>
        <time>2017-09-17T12:35:29Z</time>
      </trkpt>
      <trkpt lat="44.13157" lon="7.53582">
        <ele>1844</ele>
        <time>2017-09-17T12:35:30Z</time>
      </trkpt>
      <trkpt lat="44.13161" lon="7.53584">
        <ele>1844</ele>
        <time>2017-09-17T12:35:31Z</time>
      </trkpt>
      <trkpt lat="44.13165" lon="7.53586">
        <ele>1844</ele>
        <time>2017-09-17T12:35:32Z</time>
      </trkpt>
      <trkpt lat="44.13168" lon="7.53588">
        <ele>1845</ele>
        <time>2017-09-17T12:35:33Z</time>
      </trkpt>
      <trkpt lat="44.13172" lon="7.5359">
        <ele>1845</ele>
        <time>2017-09-17T12:35:34Z</time>
      </trkpt>
      <trkpt lat="44.13176" lon="7.53591">
        <ele>1845</ele>
        <time>2017-09-17T12:35:35Z</time>
      </trkpt>
      <trkpt lat="44.1318" lon="7.53593">
        <ele>1845</ele>
        <time>2017-09-17T12:35:36Z</time>
      </trkpt>
      <trkpt lat="44.13184" lon="7.53595">
        <ele>1845</ele>
        <time>2017-09-17T12:35:37Z</time>
      </trkpt>
      <trkpt lat="44.13189" lon="7.53598">
        <ele>1845</ele>
        <time>2017-09-17T12:35:38Z</time>
      </trkpt>
      <trkpt lat="44.13193" lon="7.536">
        <ele>1846</ele>
        <time>2017-09-17T12:35:39Z</time>
      </trkpt>
      <trkpt lat="44.13198" lon="7.53603">
        <ele>1846</ele>
        <time>2017-09-17T12:35:40Z</time>
      </trkpt>
      <trkpt lat="44.13203" lon="7.53605">
        <ele>1846</ele>
        <time>2017-09-17T12:35:41Z</time>
      </trkpt>
      <trkpt lat="44.13208" lon="7.53607">
        <ele>1846</ele>
        <time>2017-09-17T12:35:42Z</time>
      </trkpt>
      <trkpt lat="44.13213" lon="7.53607">
        <ele>1846</ele>
        <time>2017-09-17T12:35:43Z</time>
      </trkpt>
      <trkpt lat="44.13218" lon="7.53607">
        <ele>1846</ele>
        <time>2017-09-17T12:35:44Z</time>
      </trkpt>
      <trkpt lat="44.13223" lon="7.53606">
        <ele>1846</ele>
        <time>2017-09-17T12:35:45Z</time>
      </trkpt>
      <trkpt lat="44.13229" lon="7.53605">
        <ele>1846</ele>
        <time>2017-09-17T12:35:46Z</time>
      </trkpt>
      <trkpt lat="44.13234" lon="7.53602">
        <ele>1847</ele>
        <time>2017-09-17T12:35:47Z</time>
      </trkpt>
      <trkpt lat="44.13239" lon="7.536">
        <ele>1847</ele>
        <time>2017-09-17T12:35:48Z</time>
      </trkpt>
      <trkpt lat="44.13245" lon="7.53597">
        <ele>1847</ele>
        <time>2017-09-17T12:35:49Z</time>
      </trkpt>
      <trkpt lat="44.1325" lon="7.53593">
        <ele>1847</ele>
        <time>2017-09-17T12:35:50Z</time>
      </trkpt>
      <trkpt lat="44.13255" lon="7.5359">
        <ele>1847</ele>
        <time>2017-09-17T12:35:51Z</time>
      </trkpt>
      <trkpt lat="44.1326" lon="7.53586">
        <ele>1847</ele>
        <time>2017-09-17T12:35:52Z</time>
      </trkpt>
      <trkpt lat="44.13266" lon="7.53582">
        <ele>1848</ele>
        <time>2017-09-17T12:35:53Z</time>
      </trkpt>
      <trkpt lat="44.13271" lon="7.53579">
        <ele>1848</ele>
        <time>2017-09-17T12:35:54Z</time>
      </trkpt>
      <trkpt lat="44.13276" lon="7.53575">
        <ele>1848</ele>
        <time>2017-09-17T12:35:55Z</time>
      </trkpt>
      <trkpt lat="44.13281" lon="7.53571">
        <ele>1848</ele>
        <time>2017-09-17T12:35:56Z</time>
      </trkpt>
      <trkpt lat="44.13287" lon="7.53568">
        <ele>1848</ele>
        <time>2017-09-17T12:35:57Z</time>
      </trkpt>
      <trkpt lat="44.13292" lon="7.53564">
        <ele>1848</ele>
        <time>2017-09-17T12:35:58Z</time>
      </trkpt>
      <trkpt lat="44.13298" lon="7.53561">
        <ele>1848</ele>
        <time>2017-09-17T12:35:59Z</time>
      </trkpt>
      <trkpt lat="44.13303" lon="7.53557">
        <ele>1848</ele>
        <time>2017-09-17T12:36:00Z</time>
      </trkpt>
      <trkpt lat="44.13309" lon="7.53554">
        <ele>1848</ele>
        <time>2017-09-17T12:36:01Z</time>
      </trkpt>
      <trkpt lat="44.13314" lon="7.53551">
        <ele>1848</ele>
        <time>2017-09-17T12:36:02Z</time>
      </trkpt>
      <trkpt lat="44.1332" lon="7.53548">
        <ele>1849</ele>
        <time>2017-09-17T12:36:03Z</time>
      </trkpt>
      <trkpt lat="44.13326" lon="7.53544">
        <ele>1849</ele>
        <time>2017-09-17T12:36:04Z</time>
      </trkpt>
      <trkpt lat="44.13331" lon="7.53541">
        <ele>1849</ele>
        <time>2017-09-17T12:36:05Z</time>
      </trkpt>
      <trkpt lat="44.13337" lon="7.53537">
        <ele>1849</ele>
        <time>2017-09-17T12:36:06Z</time>
      </trkpt>
      <trkpt lat="44.13342" lon="7.53534">
        <ele>1849</ele>
        <time>2017-09-17T12:36:07Z</time>
      </trkpt>
      <trkpt lat="44.13348" lon="7.53531">
        <ele>1849</ele>
        <time>2017-09-17T12:36:08Z</time>
      </trkpt>
      <trkpt lat="44.13354" lon="7.53528">
        <ele>1849</ele>
        <time>2017-09-17T12:36:09Z</time>
      </trkpt>
      <trkpt lat="44.13359" lon="7.53524">
        <ele>1849</ele>
        <time>2017-09-17T12:36:10Z</time>
      </trkpt>
      <trkpt lat="44.13365" lon="7.53521">
        <ele>1850</ele>
        <time>2017-09-17T12:36:11Z</time>
      </trkpt>
      <trkpt lat="44.1337" lon="7.53518">
        <ele>1850</ele>
        <time>2017-09-17T12:36:12Z</time>
      </trkpt>
      <trkpt lat="44.13376" lon="7.53514">
        <ele>1850</ele>
        <time>2017-09-17T12:36:13Z</time>
      </trkpt>
      <trkpt lat="44.13381" lon="7.53511">
        <ele>1850</ele>
        <time>2017-09-17T12:36:14Z</time>
      </trkpt>
      <trkpt lat="44.13387" lon="7.53507">
        <ele>1850</ele>
        <time>2017-09-17T12:36:15Z</time>
      </trkpt>
      <trkpt lat="44.13393" lon="7.53504">
        <ele>1850</ele>
        <time>2017-09-17T12:36:16Z</time>
      </trkpt>
      <trkpt lat="44.13399" lon="7.53502">
        <ele>1850</ele>
        <time>2017-09-17T12:36:17Z</time>
      </trkpt>
      <trkpt lat="44.13404" lon="7.53499">
        <ele>1850</ele>
        <time>2017-09-17T12:36:18Z</time>
      </trkpt>
      <trkpt lat="44.1341" lon="7.53498">
        <ele>1850</ele>
        <time>2017-09-17T12:36:19Z</time>
      </trkpt>
      <trkpt lat="44.13416" lon="7.53497">
        <ele>1851</ele>
        <time>2017-09-17T12:36:20Z</time>
      </trkpt>
      <trkpt lat="44.13422" lon="7.53496">
        <ele>1851</ele>
        <time>2017-09-17T12:36:21Z</time>
      </trkpt>
      <trkpt lat="44.13428" lon="7.53495">
        <ele>1851</ele>
        <time>2017-09-17T12:36:22Z</time>
      </trkpt>
      <trkpt lat="44.13434" lon="7.53494">
        <ele>1851</ele>
        <time>2017-09-17T12:36:23Z</time>
      </trkpt>
      <trkpt lat="44.1344" lon="7.53493">
        <ele>1851</ele>
        <time>2017-09-17T12:36:24Z</time>
      </trkpt>
      <trkpt lat="44.13446" lon="7.53492">
        <ele>1851</ele>
        <time>2017-09-17T12:36:25Z</time>
      </trkpt>
      <trkpt lat="44.13452" lon="7.53491">
        <ele>1851</ele>
        <time>2017-09-17T12:36:26Z</time>
      </trkpt>
      <trkpt lat="44.13458" lon="7.5349">
        <ele>1851</ele>
        <time>2017-09-17T12:36:27Z</time>
      </trkpt>
      <trkpt lat="44.13464" lon="7.53489">
        <ele>1851</ele>
        <time>2017-09-17T12:36:28Z</time>
      </trkpt>
      <trkpt lat="44.13469" lon="7.53488">
        <ele>1851</ele>
        <time>2017-09-17T12:36:29Z</time>
      </trkpt>
      <trkpt lat="44.13475" lon="7.53488">
        <ele>1851</ele>
        <time>2017-09-17T12:36:30Z</time>
      </trkpt>
      <trkpt lat="44.13481" lon="7.53487">
        <ele>1851</ele>
        <time>2017-09-17T12:36:31Z</time>
      </trkpt>
      <trkpt lat="44.13487" lon="7.53488">
        <ele>1851</ele>
        <time>2017-09-17T12:36:32Z</time>
      </trkpt>
      <trkpt lat="44.13493" lon="7.53488">
        <ele>1851</ele>
        <time>2017-09-17T12:36:33Z</time>
      </trkpt>
      <trkpt lat="44.13499" lon="7.53487">
        <ele>1851</ele>
        <time>2017-09-17T12:36:34Z</time>
      </trkpt>
      <trkpt lat="44.13505" lon="7.53487">
        <ele>1851</ele>
        <time>2017-09-17T12:36:35Z</time>
      </trkpt>
      <trkpt lat="44.13511" lon="7.53486">
        <ele>1851</ele>
        <time>2017-09-17T12:36:36Z</time>
      </trkpt>
      <trkpt lat="44.13518" lon="7.53485">
        <ele>1851</ele>
        <time>2017-09-17T12:36:37Z</time>
      </trkpt>
      <trkpt lat="44.13524" lon="7.53484">
        <ele>1851</ele>
        <time>2017-09-17T12:36:38Z</time>
      </trkpt>
      <trkpt lat="44.1353" lon="7.53482">
        <ele>1851</ele>
        <time>2017-09-17T12:36:39Z</time>
      </trkpt>
      <trkpt lat="44.13535" lon="7.53481">
        <ele>1851</ele>
        <time>2017-09-17T12:36:40Z</time>
      </trkpt>
      <trkpt lat="44.13541" lon="7.53479">
        <ele>1851</ele>
        <time>2017-09-17T12:36:41Z</time>
      </trkpt>
      <trkpt lat="44.13547" lon="7.53477">
        <ele>1851</ele>
        <time>2017-09-17T12:36:42Z</time>
      </trkpt>
      <trkpt lat="44.13553" lon="7.53475">
        <ele>1852</ele>
        <time>2017-09-17T12:36:43Z</time>
      </trkpt>
      <trkpt lat="44.13559" lon="7.53473">
        <ele>1852</ele>
        <time>2017-09-17T12:36:44Z</time>
      </trkpt>
      <trkpt lat="44.13565" lon="7.5347">
        <ele>1852</ele>
        <time>2017-09-17T12:36:45Z</time>
      </trkpt>
      <trkpt lat="44.13571" lon="7.53468">
        <ele>1852</ele>
        <time>2017-09-17T12:36:46Z</time>
      </trkpt>
      <trkpt lat="44.13576" lon="7.53465">
        <ele>1852</ele>
        <time>2017-09-17T12:36:47Z</time>
      </trkpt>
      <trkpt lat="44.13582" lon="7.53462">
        <ele>1852</ele>
        <time>2017-09-17T12:36:48Z</time>
      </trkpt>
      <trkpt lat="44.13587" lon="7.53458">
        <ele>1852</ele>
        <time>2017-09-17T12:36:49Z</time>
      </trkpt>
      <trkpt lat="44.13593" lon="7.53455">
        <ele>1852</ele>
        <time>2017-09-17T12:36:50Z</time>
      </trkpt>
      <trkpt lat="44.13598" lon="7.53451">
        <ele>1852</ele>
        <time>2017-09-17T12:36:51Z</time>
      </trkpt>
      <trkpt lat="44.13604" lon="7.53447">
        <ele>1852</ele>
        <time>2017-09-17T12:36:52Z</time>
      </trkpt>
      <trkpt lat="44.13609" lon="7.53443">
        <ele>1852</ele>
        <time>2017-09-17T12:36:53Z</time>
      </trkpt>
      <trkpt lat="44.13614" lon="7.53438">
        <ele>1852</ele>
        <time>2017-09-17T12:36:54Z</time>
      </trkpt>
      <trkpt lat="44.13618" lon="7.53433">
        <ele>1852</ele>
        <time>2017-09-17T12:36:55Z</time>
      </trkpt>
      <trkpt lat="44.13623" lon="7.53427">
        <ele>1852</ele>
        <time>2017-09-17T12:36:56Z</time>
      </trkpt>
      <trkpt lat="44.13628" lon="7.53422">
        <ele>1852</ele>
        <time>2017-09-17T12:36:57Z</time>
      </trkpt>
      <trkpt lat="44.13632" lon="7.53417">
        <ele>1852</ele>
        <time>2017-09-17T12:36:58Z</time>
      </trkpt>
      <trkpt lat="44.13637" lon="7.53411">
        <ele>1852</ele>
        <time>2017-09-17T12:36:59Z</time>
      </trkpt>
      <trkpt lat="44.13641" lon="7.53405">
        <ele>1852</ele>
        <time>2017-09-17T12:37:00Z</time>
      </trkpt>
      <trkpt lat="44.13646" lon="7.534">
        <ele>1852</ele>
        <time>2017-09-17T12:37:01Z</time>
      </trkpt>
      <trkpt lat="44.1365" lon="7.53394">
        <ele>1852</ele>
        <time>2017-09-17T12:37:02Z</time>
      </trkpt>
      <trkpt lat="44.13655" lon="7.53389">
        <ele>1852</ele>
        <time>2017-09-17T12:37:03Z</time>
      </trkpt>
      <trkpt lat="44.13659" lon="7.53383">
        <ele>1852</ele>
        <time>2017-09-17T12:37:04Z</time>
      </trkpt>
      <trkpt lat="44.13663" lon="7.53377">
        <ele>1852</ele>
        <time>2017-09-17T12:37:05Z</time>
      </trkpt>
      <trkpt lat="44.13667" lon="7.53371">
        <ele>1852</ele>
        <time>2017-09-17T12:37:06Z</time>
      </trkpt>
      <trkpt lat="44.13671" lon="7.53364">
        <ele>1852</ele>
        <time>2017-09-17T12:37:07Z</time>
      </trkpt>
      <trkpt lat="44.13674" lon="7.53358">
        <ele>1852</ele>
        <time>2017-09-17T12:37:08Z</time>
      </trkpt>
      <trkpt lat="44.13677" lon="7.53351">
        <ele>1852</ele>
        <time>2017-09-17T12:37:09Z</time>
      </trkpt>
      <trkpt lat="44.1368" lon="7.53344">
        <ele>1852</ele>
        <time>2017-09-17T12:37:10Z</time>
      </trkpt>
      <trkpt lat="44.13683" lon="7.53337">
        <ele>1852</ele>
        <time>2017-09-17T12:37:11Z</time>
      </trkpt>
      <trkpt lat="44.13686" lon="7.53331">
        <ele>1852</ele>
        <time>2017-09-17T12:37:12Z</time>
      </trkpt>
      <trkpt lat="44.13689" lon="7.53324">
        <ele>1852</ele>
        <time>2017-09-17T12:37:13Z</time>
      </trkpt>
      <trkpt lat="44.13692" lon="7.53317">
        <ele>1852</ele>
        <time>2017-09-17T12:37:14Z</time>
      </trkpt>
      <trkpt lat="44.13695" lon="7.5331">
        <ele>1852</ele>
        <time>2017-09-17T12:37:15Z</time>
      </trkpt>
      <trkpt lat="44.13699" lon="7.53304">
        <ele>1852</ele>
        <time>2017-09-17T12:37:16Z</time>
      </trkpt>
      <trkpt lat="44.13703" lon="7.53299">
        <ele>1852</ele>
        <time>2017-09-17T12:37:17Z</time>
      </trkpt>
      <trkpt lat="44.13708" lon="7.53294">
        <ele>1852</ele>
        <time>2017-09-17T12:37:18Z</time>
      </trkpt>
      <trkpt lat="44.13712" lon="7.53289">
        <ele>1852</ele>
        <time>2017-09-17T12:37:19Z</time>
      </trkpt>
      <trkpt lat="44.13717" lon="7.53285">
        <ele>1851</ele>
        <time>2017-09-17T12:37:20Z</time>
      </trkpt>
      <trkpt lat="44.13722" lon="7.53281">
        <ele>1851</ele>
        <time>2017-09-17T12:37:21Z</time>
      </trkpt>
      <trkpt lat="44.13727" lon="7.53278">
        <ele>1851</ele>
        <time>2017-09-17T12:37:22Z</time>
      </trkpt>
      <trkpt lat="44.13733" lon="7.53275">
        <ele>1851</ele>
        <time>2017-09-17T12:37:23Z</time>
      </trkpt>
      <trkpt lat="44.13738" lon="7.53274">
        <ele>1851</ele>
        <time>2017-09-17T12:37:24Z</time>
      </trkpt>
      <trkpt lat="44.13744" lon="7.53275">
        <ele>1851</ele>
        <time>2017-09-17T12:37:25Z</time>
      </trkpt>
      <trkpt lat="44.13749" lon="7.53277">
        <ele>1852</ele>
        <time>2017-09-17T12:37:26Z</time>
      </trkpt>
      <trkpt lat="44.13755" lon="7.53279">
        <ele>1852</ele>
        <time>2017-09-17T12:37:27Z</time>
      </trkpt>
      <trkpt lat="44.13761" lon="7.5328">
        <ele>1852</ele>
        <time>2017-09-17T12:37:28Z</time>
      </trkpt>
      <trkpt lat="44.13766" lon="7.53281">
        <ele>1852</ele>
        <time>2017-09-17T12:37:29Z</time>
      </trkpt>
      <trkpt lat="44.13772" lon="7.5328">
        <ele>1852</ele>
        <time>2017-09-17T12:37:30Z</time>
      </trkpt>
      <trkpt lat="44.13778" lon="7.53279">
        <ele>1852</ele>
        <time>2017-09-17T12:37:31Z</time>
      </trkpt>
      <trkpt lat="44.13784" lon="7.53278">
        <ele>1852</ele>
        <time>2017-09-17T12:37:32Z</time>
      </trkpt>
      <trkpt lat="44.13789" lon="7.53277">
        <ele>1852</ele>
        <time>2017-09-17T12:37:33Z</time>
      </trkpt>
      <trkpt lat="44.13795" lon="7.53277">
        <ele>1852</ele>
        <time>2017-09-17T12:37:34Z</time>
      </trkpt>
      <trkpt lat="44.13801" lon="7.53278">
        <ele>1853</ele>
        <time>2017-09-17T12:37:35Z</time>
      </trkpt>
      <trkpt lat="44.13808" lon="7.53279">
        <ele>1853</ele>
        <time>2017-09-17T12:37:36Z</time>
      </trkpt>
      <trkpt lat="44.13814" lon="7.53279">
        <ele>1853</ele>
        <time>2017-09-17T12:37:37Z</time>
      </trkpt>
      <trkpt lat="44.1382" lon="7.5328">
        <ele>1853</ele>
        <time>2017-09-17T12:37:38Z</time>
      </trkpt>
      <trkpt lat="44.13826" lon="7.53281">
        <ele>1853</ele>
        <time>2017-09-17T12:37:39Z</time>
      </trkpt>
      <trkpt lat="44.13832" lon="7.53282">
        <ele>1853</ele>
        <time>2017-09-17T12:37:40Z</time>
      </trkpt>
      <trkpt lat="44.13838" lon="7.53283">
        <ele>1853</ele>
        <time>2017-09-17T12:37:41Z</time>
      </trkpt>
      <trkpt lat="44.13844" lon="7.53284">
        <ele>1853</ele>
        <time>2017-09-17T12:37:42Z</time>
      </trkpt>
      <trkpt lat="44.1385" lon="7.53286">
        <ele>1853</ele>
        <time>2017-09-17T12:37:43Z</time>
      </trkpt>
      <trkpt lat="44.13856" lon="7.53288">
        <ele>1853</ele>
        <time>2017-09-17T12:37:44Z</time>
      </trkpt>
      <trkpt lat="44.13862" lon="7.5329">
        <ele>1853</ele>
        <time>2017-09-17T12:37:45Z</time>
      </trkpt>
      <trkpt lat="44.13867" lon="7.53292">
        <ele>1853</ele>
        <time>2017-09-17T12:37:46Z</time>
      </trkpt>
      <trkpt lat="44.13873" lon="7.53293">
        <ele>1853</ele>
        <time>2017-09-17T12:37:47Z</time>
      </trkpt>
      <trkpt lat="44.13879" lon="7.53294">
        <ele>1854</ele>
        <time>2017-09-17T12:37:48Z</time>
      </trkpt>
      <trkpt lat="44.13885" lon="7.53295">
        <ele>1854</ele>
        <time>2017-09-17T12:37:49Z</time>
      </trkpt>
      <trkpt lat="44.13891" lon="7.53296">
        <ele>1854</ele>
        <time>2017-09-17T12:37:50Z</time>
      </trkpt>
      <trkpt lat="44.13897" lon="7.53298">
        <ele>1854</ele>
        <time>2017-09-17T12:37:51Z</time>
      </trkpt>
      <trkpt lat="44.13903" lon="7.533">
        <ele>1854</ele>
        <time>2017-09-17T12:37:52Z</time>
      </trkpt>
      <trkpt lat="44.13909" lon="7.53302">
        <ele>1854</ele>
        <time>2017-09-17T12:37:53Z</time>
      </trkpt>
      <trkpt lat="44.13914" lon="7.53305">
        <ele>1854</ele>
        <time>2017-09-17T12:37:54Z</time>
      </trkpt>
      <trkpt lat="44.13919" lon="7.5331">
        <ele>1854</ele>
        <time>2017-09-17T12:37:55Z</time>
      </trkpt>
      <trkpt lat="44.13924" lon="7.53314">
        <ele>1854</ele>
        <time>2017-09-17T12:37:56Z</time>
      </trkpt>
      <trkpt lat="44.13928" lon="7.5332">
        <ele>1854</ele>
        <time>2017-09-17T12:37:57Z</time>
      </trkpt>
      <trkpt lat="44.13932" lon="7.53325">
        <ele>1854</ele>
        <time>2017-09-17T12:37:58Z</time>
      </trkpt>
      <trkpt lat="44.13936" lon="7.53331">
        <ele>1854</ele>
        <time>2017-09-17T12:37:59Z</time>
      </trkpt>
      <trkpt lat="44.1394" lon="7.53336">
        <ele>1854</ele>
        <time>2017-09-17T12:38:00Z</time>
      </trkpt>
      <trkpt lat="44.13944" lon="7.53342">
        <ele>1854</ele>
        <time>2017-09-17T12:38:01Z</time>
      </trkpt>
      <trkpt lat="44.13947" lon="7.53348">
        <ele>1854</ele>
        <time>2017-09-17T12:38:02Z</time>
      </trkpt>
      <trkpt lat="44.13951" lon="7.53355">
        <ele>1855</ele>
        <time>2017-09-17T12:38:03Z</time>
      </trkpt>
      <trkpt lat="44.13955" lon="7.53361">
        <ele>1855</ele>
        <time>2017-09-17T12:38:04Z</time>
      </trkpt>
      <trkpt lat="44.13958" lon="7.53368">
        <ele>1855</ele>
        <time>2017-09-17T12:38:05Z</time>
      </trkpt>
      <trkpt lat="44.13961" lon="7.53374">
        <ele>1855</ele>
        <time>2017-09-17T12:38:06Z</time>
      </trkpt>
      <trkpt lat="44.13965" lon="7.53381">
        <ele>1855</ele>
        <time>2017-09-17T12:38:07Z</time>
      </trkpt>
      <trkpt lat="44.13968" lon="7.53388">
        <ele>1855</ele>
        <time>2017-09-17T12:38:08Z</time>
      </trkpt>
      <trkpt lat="44.13971" lon="7.53395">
        <ele>1855</ele>
        <time>2017-09-17T12:38:09Z</time>
      </trkpt>
      <trkpt lat="44.13973" lon="7.53403">
        <ele>1855</ele>
        <time>2017-09-17T12:38:10Z</time>
      </trkpt>
      <trkpt lat="44.13975" lon="7.53411">
        <ele>1856</ele>
        <time>2017-09-17T12:38:11Z</time>
      </trkpt>
      <trkpt lat="44.13977" lon="7.53419">
        <ele>1856</ele>
        <time>2017-09-17T12:38:12Z</time>
      </trkpt>
      <trkpt lat="44.13977" lon="7.53427">
        <ele>1856</ele>
        <time>2017-09-17T12:38:13Z</time>
      </trkpt>
      <trkpt lat="44.13978" lon="7.53435">
        <ele>1856</ele>
        <time>2017-09-17T12:38:14Z</time>
      </trkpt>
      <trkpt lat="44.13979" lon="7.53442">
        <ele>1856</ele>
        <time>2017-09-17T12:38:15Z</time>
      </trkpt>
      <trkpt lat="44.1398" lon="7.5345">
        <ele>1856</ele>
        <time>2017-09-17T12:38:16Z</time>
      </trkpt>
      <trkpt lat="44.13981" lon="7.53458">
        <ele>1856</ele>
        <time>2017-09-17T12:38:17Z</time>
      </trkpt>
      <trkpt lat="44.13983" lon="7.53465">
        <ele>1856</ele>
        <time>2017-09-17T12:38:18Z</time>
      </trkpt>
      <trkpt lat="44.13984" lon="7.53473">
        <ele>1856</ele>
        <time>2017-09-17T12:38:19Z</time>
      </trkpt>
      <trkpt lat="44.13986" lon="7.53481">
        <ele>1856</ele>
        <time>2017-09-17T12:38:20Z</time>
      </trkpt>
      <trkpt lat="44.13987" lon="7.53488">
        <ele>1856</ele>
        <time>2017-09-17T12:38:21Z</time>
      </trkpt>
      <trkpt lat="44.13989" lon="7.53496">
        <ele>1856</ele>
        <time>2017-09-17T12:38:22Z</time>
      </trkpt>
      <trkpt lat="44.1399" lon="7.53504">
        <ele>1856</ele>
        <time>2017-09-17T12:38:23Z</time>
      </trkpt>
      <trkpt lat="44.13992" lon="7.53512">
        <ele>1856</ele>
        <time>2017-09-17T12:38:24Z</time>
      </trkpt>
      <trkpt lat="44.13994" lon="7.53519">
        <ele>1856</ele>
        <time>2017-09-17T12:38:25Z</time>
      </trkpt>
      <trkpt lat="44.13995" lon="7.53527">
        <ele>1856</ele>
        <time>2017-09-17T12:38:26Z</time>
      </trkpt>
      <trkpt lat="44.13998" lon="7.53534">
        <ele>1856</ele>
        <time>2017-09-17T12:38:27Z</time>
      </trkpt>
      <trkpt lat="44.14" lon="7.53542">
        <ele>1856</ele>
        <time>2017-09-17T12:38:28Z</time>
      </trkpt>
      <trkpt lat="44.14002" lon="7.53549">
        <ele>1856</ele>
        <time>2017-09-17T12:38:29Z</time>
      </trkpt>
      <trkpt lat="44.14004" lon="7.53556">
        <ele>1856</ele>
        <time>2017-09-17T12:38:30Z</time>
      </trkpt>
      <trkpt lat="44.14006" lon="7.53564">
        <ele>1856</ele>
        <time>2017-09-17T12:38:31Z</time>
      </trkpt>
      <trkpt lat="44.14007" lon="7.53571">
        <ele>1856</ele>
        <time>2017-09-17T12:38:32Z</time>
      </trkpt>
      <trkpt lat="44.14009" lon="7.53579">
        <ele>1856</ele>
        <time>2017-09-17T12:38:33Z</time>
      </trkpt>
      <trkpt lat="44.14009" lon="7.53587">
        <ele>1856</ele>
        <time>2017-09-17T12:38:34Z</time>
      </trkpt>
      <trkpt lat="44.14009" lon="7.53595">
        <ele>1856</ele>
        <time>2017-09-17T12:38:35Z</time>
      </trkpt>
      <trkpt lat="44.14009" lon="7.53603">
        <ele>1856</ele>
        <time>2017-09-17T12:38:36Z</time>
      </trkpt>
      <trkpt lat="44.14009" lon="7.5361">
        <ele>1856</ele>
        <time>2017-09-17T12:38:37Z</time>
      </trkpt>
      <trkpt lat="44.14008" lon="7.53618">
        <ele>1856</ele>
        <time>2017-09-17T12:38:38Z</time>
      </trkpt>
      <trkpt lat="44.14008" lon="7.53626">
        <ele>1856</ele>
        <time>2017-09-17T12:38:39Z</time>
      </trkpt>
      <trkpt lat="44.14007" lon="7.53633">
        <ele>1856</ele>
        <time>2017-09-17T12:38:40Z</time>
      </trkpt>
      <trkpt lat="44.14007" lon="7.53641">
        <ele>1856</ele>
        <time>2017-09-17T12:38:41Z</time>
      </trkpt>
      <trkpt lat="44.14006" lon="7.53649">
        <ele>1856</ele>
        <time>2017-09-17T12:38:42Z</time>
      </trkpt>
      <trkpt lat="44.14006" lon="7.53657">
        <ele>1856</ele>
        <time>2017-09-17T12:38:43Z</time>
      </trkpt>
      <trkpt lat="44.14006" lon="7.53665">
        <ele>1856</ele>
        <time>2017-09-17T12:38:44Z</time>
      </trkpt>
      <trkpt lat="44.14006" lon="7.53673">
        <ele>1855</ele>
        <time>2017-09-17T12:38:45Z</time>
      </trkpt>
      <trkpt lat="44.14006" lon="7.5368">
        <ele>1855</ele>
        <time>2017-09-17T12:38:46Z</time>
      </trkpt>
      <trkpt lat="44.14006" lon="7.53688">
        <ele>1855</ele>
        <time>2017-09-17T12:38:47Z</time>
      </trkpt>
      <trkpt lat="44.14006" lon="7.53696">
        <ele>1855</ele>
        <time>2017-09-17T12:38:48Z</time>
      </trkpt>
      <trkpt lat="44.14006" lon="7.53704">
        <ele>1854</ele>
        <time>2017-09-17T12:38:49Z</time>
      </trkpt>
      <trkpt lat="44.14006" lon="7.53712">
        <ele>1854</ele>
        <time>2017-09-17T12:38:50Z</time>
      </trkpt>
      <trkpt lat="44.14006" lon="7.5372">
        <ele>1854</ele>
        <time>2017-09-17T12:38:51Z</time>
      </trkpt>
      <trkpt lat="44.14007" lon="7.53728">
        <ele>1853</ele>
        <time>2017-09-17T12:38:52Z</time>
      </trkpt>
      <trkpt lat="44.14007" lon="7.53736">
        <ele>1853</ele>
        <time>2017-09-17T12:38:53Z</time>
      </trkpt>
      <trkpt lat="44.14008" lon="7.53743">
        <ele>1853</ele>
        <time>2017-09-17T12:38:54Z</time>
      </trkpt>
      <trkpt lat="44.1401" lon="7.53751">
        <ele>1853</ele>
        <time>2017-09-17T12:38:55Z</time>
      </trkpt>
      <trkpt lat="44.14011" lon="7.53759">
        <ele>1852</ele>
        <time>2017-09-17T12:38:56Z</time>
      </trkpt>
      <trkpt lat="44.14013" lon="7.53766">
        <ele>1852</ele>
        <time>2017-09-17T12:38:57Z</time>
      </trkpt>
      <trkpt lat="44.14014" lon="7.53774">
        <ele>1852</ele>
        <time>2017-09-17T12:38:58Z</time>
      </trkpt>
      <trkpt lat="44.14016" lon="7.53781">
        <ele>1852</ele>
        <time>2017-09-17T12:38:59Z</time>
      </trkpt>
      <trkpt lat="44.14018" lon="7.53789">
        <ele>1852</ele>
        <time>2017-09-17T12:39:00Z</time>
      </trkpt>
      <trkpt lat="44.1402" lon="7.53796">
        <ele>1852</ele>
        <time>2017-09-17T12:39:01Z</time>
      </trkpt>
      <trkpt lat="44.14022" lon="7.53804">
        <ele>1852</ele>
        <time>2017-09-17T12:39:02Z</time>
      </trkpt>
      <trkpt lat="44.14024" lon="7.53811">
        <ele>1851</ele>
        <time>2017-09-17T12:39:03Z</time>
      </trkpt>
      <trkpt lat="44.14026" lon="7.53819">
        <ele>1851</ele>
        <time>2017-09-17T12:39:04Z</time>
      </trkpt>
      <trkpt lat="44.14028" lon="7.53826">
        <ele>1851</ele>
        <time>2017-09-17T12:39:05Z</time>
      </trkpt>
      <trkpt lat="44.1403" lon="7.53834">
        <ele>1851</ele>
        <time>2017-09-17T12:39:06Z</time>
      </trkpt>
      <trkpt lat="44.14032" lon="7.53841">
        <ele>1851</ele>
        <time>2017-09-17T12:39:07Z</time>
      </trkpt>
      <trkpt lat="44.14034" lon="7.53848">
        <ele>1851</ele>
        <time>2017-09-17T12:39:08Z</time>
      </trkpt>
      <trkpt lat="44.14037" lon="7.53855">
        <ele>1851</ele>
        <time>2017-09-17T12:39:09Z</time>
      </trkpt>
      <trkpt lat="44.1404" lon="7.53862">
        <ele>1851</ele>
        <time>2017-09-17T12:39:10Z</time>
      </trkpt>
      <trkpt lat="44.14043" lon="7.53868">
        <ele>1851</ele>
        <time>2017-09-17T12:39:11Z</time>
      </trkpt>
      <trkpt lat="44.14046" lon="7.53875">
        <ele>1851</ele>
        <time>2017-09-17T12:39:12Z</time>
      </trkpt>
      <trkpt lat="44.1405" lon="7.53881">
        <ele>1851</ele>
        <time>2017-09-17T12:39:13Z</time>
      </trkpt>
      <trkpt lat="44.14053" lon="7.53888">
        <ele>1851</ele>
        <time>2017-09-17T12:39:14Z</time>
      </trkpt>
      <trkpt lat="44.14056" lon="7.53895">
        <ele>1851</ele>
        <time>2017-09-17T12:39:15Z</time>
      </trkpt>
      <trkpt lat="44.1406" lon="7.53902">
        <ele>1851</ele>
        <time>2017-09-17T12:39:16Z</time>
      </trkpt>
      <trkpt lat="44.14063" lon="7.53909">
        <ele>1851</ele>
        <time>2017-09-17T12:39:17Z</time>
      </trkpt>
      <trkpt lat="44.14065" lon="7.53917">
        <ele>1851</ele>
        <time>2017-09-17T12:39:18Z</time>
      </trkpt>
      <trkpt lat="44.14067" lon="7.53925">
        <ele>1851</ele>
        <time>2017-09-17T12:39:19Z</time>
      </trkpt>
      <trkpt lat="44.14068" lon="7.53933">
        <ele>1851</ele>
        <time>2017-09-17T12:39:20Z</time>
      </trkpt>
      <trkpt lat="44.14069" lon="7.53941">
        <ele>1851</ele>
        <time>2017-09-17T12:39:21Z</time>
      </trkpt>
      <trkpt lat="44.14069" lon="7.53949">
        <ele>1851</ele>
        <time>2017-09-17T12:39:22Z</time>
      </trkpt>
      <trkpt lat="44.14069" lon="7.53957">
        <ele>1851</ele>
        <time>2017-09-17T12:39:23Z</time>
      </trkpt>
      <trkpt lat="44.14069" lon="7.53965">
        <ele>1852</ele>
        <time>2017-09-17T12:39:24Z</time>
      </trkpt>
      <trkpt lat="44.14069" lon="7.53973">
        <ele>1852</ele>
        <time>2017-09-17T12:39:25Z</time>
      </trkpt>
      <trkpt lat="44.14069" lon="7.53981">
        <ele>1852</ele>
        <time>2017-09-17T12:39:26Z</time>
      </trkpt>
      <trkpt lat="44.14069" lon="7.53989">
        <ele>1852</ele>
        <time>2017-09-17T12:39:27Z</time>
      </trkpt>
      <trkpt lat="44.14069" lon="7.53998">
        <ele>1852</ele>
        <time>2017-09-17T12:39:28Z</time>
      </trkpt>
      <trkpt lat="44.14069" lon="7.54006">
        <ele>1852</ele>
        <time>2017-09-17T12:39:29Z</time>
      </trkpt>
      <trkpt lat="44.14069" lon="7.54014">
        <ele>1852</ele>
        <time>2017-09-17T12:39:30Z</time>
      </trkpt>
      <trkpt lat="44.14069" lon="7.54022">
        <ele>1852</ele>
        <time>2017-09-17T12:39:31Z</time>
      </trkpt>
      <trkpt lat="44.14069" lon="7.5403">
        <ele>1852</ele>
        <time>2017-09-17T12:39:32Z</time>
      </trkpt>
      <trkpt lat="44.14069" lon="7.54039">
        <ele>1852</ele>
        <time>2017-09-17T12:39:33Z</time>
      </trkpt>
      <trkpt lat="44.1407" lon="7.54047">
        <ele>1852</ele>
        <time>2017-09-17T12:39:34Z</time>
      </trkpt>
      <trkpt lat="44.14071" lon="7.54055">
        <ele>1852</ele>
        <time>2017-09-17T12:39:35Z</time>
      </trkpt>
      <trkpt lat="44.14072" lon="7.54063">
        <ele>1852</ele>
        <time>2017-09-17T12:39:36Z</time>
      </trkpt>
      <trkpt lat="44.14073" lon="7.54072">
        <ele>1852</ele>
        <time>2017-09-17T12:39:37Z</time>
      </trkpt>
      <trkpt lat="44.14073" lon="7.5408">
        <ele>1852</ele>
        <time>2017-09-17T12:39:38Z</time>
      </trkpt>
      <trkpt lat="44.14072" lon="7.54089">
        <ele>1851</ele>
        <time>2017-09-17T12:39:39Z</time>
      </trkpt>
      <trkpt lat="44.14071" lon="7.54098">
        <ele>1851</ele>
        <time>2017-09-17T12:39:40Z</time>
      </trkpt>
      <trkpt lat="44.14068" lon="7.54106">
        <ele>1851</ele>
        <time>2017-09-17T12:39:41Z</time>
      </trkpt>
      <trkpt lat="44.14064" lon="7.54111">
        <ele>1851</ele>
        <time>2017-09-17T12:39:42Z</time>
      </trkpt>
      <trkpt lat="44.14058" lon="7.54114">
        <ele>1851</ele>
        <time>2017-09-17T12:39:43Z</time>
      </trkpt>
      <trkpt lat="44.14052" lon="7.54115">
        <ele>1851</ele>
        <time>2017-09-17T12:39:44Z</time>
      </trkpt>
      <trkpt lat="44.14046" lon="7.54116">
        <ele>1851</ele>
        <time>2017-09-17T12:39:45Z</time>
      </trkpt>
      <trkpt lat="44.1404" lon="7.54117">
        <ele>1852</ele>
        <time>2017-09-17T12:39:46Z</time>
      </trkpt>
      <trkpt lat="44.14035" lon="7.54118">
        <ele>1852</ele>
        <time>2017-09-17T12:39:47Z</time>
      </trkpt>
      <trkpt lat="44.1403" lon="7.54121">
        <ele>1852</ele>
        <time>2017-09-17T12:39:48Z</time>
      </trkpt>
      <trkpt lat="44.14025" lon="7.54124">
        <ele>1852</ele>
        <time>2017-09-17T12:39:49Z</time>
      </trkpt>
      <trkpt lat="44.1402" lon="7.54128">
        <ele>1852</ele>
        <time>2017-09-17T12:39:50Z</time>
      </trkpt>
      <trkpt lat="44.14016" lon="7.54132">
        <ele>1852</ele>
        <time>2017-09-17T12:39:51Z</time>
      </trkpt>
      <trkpt lat="44.14011" lon="7.54136">
        <ele>1852</ele>
        <time>2017-09-17T12:39:52Z</time>
      </trkpt>
      <trkpt lat="44.14006" lon="7.54139">
        <ele>1852</ele>
        <time>2017-09-17T12:39:53Z</time>
      </trkpt>
      <trkpt lat="44.14" lon="7.54143">
        <ele>1853</ele>
        <time>2017-09-17T12:39:54Z</time>
      </trkpt>
      <trkpt lat="44.13995" lon="7.54146">
        <ele>1853</ele>
        <time>2017-09-17T12:39:55Z</time>
      </trkpt>
      <trkpt lat="44.1399" lon="7.54149">
        <ele>1853</ele>
        <time>2017-09-17T12:39:56Z</time>
      </trkpt>
      <trkpt lat="44.13984" lon="7.54151">
        <ele>1853</ele>
        <time>2017-09-17T12:39:57Z</time>
      </trkpt>
      <trkpt lat="44.13978" lon="7.54153">
        <ele>1853</ele>
        <time>2017-09-17T12:39:58Z</time>
      </trkpt>
      <trkpt lat="44.13973" lon="7.54155">
        <ele>1853</ele>
        <time>2017-09-17T12:39:59Z</time>
      </trkpt>
      <trkpt lat="44.13968" lon="7.54159">
        <ele>1853</ele>
        <time>2017-09-17T12:40:00Z</time>
      </trkpt>
      <trkpt lat="44.13964" lon="7.54165">
        <ele>1853</ele>
        <time>2017-09-17T12:40:01Z</time>
      </trkpt>
      <trkpt lat="44.1396" lon="7.54172">
        <ele>1853</ele>
        <time>2017-09-17T12:40:02Z</time>
      </trkpt>
      <trkpt lat="44.13958" lon="7.5418">
        <ele>1853</ele>
        <time>2017-09-17T12:40:03Z</time>
      </trkpt>
      <trkpt lat="44.13957" lon="7.54188">
        <ele>1853</ele>
        <time>2017-09-17T12:40:04Z</time>
      </trkpt>
      <trkpt lat="44.13958" lon="7.54197">
        <ele>1852</ele>
        <time>2017-09-17T12:40:05Z</time>
      </trkpt>
      <trkpt lat="44.13959" lon="7.54205">
        <ele>1852</ele>
        <time>2017-09-17T12:40:06Z</time>
      </trkpt>
      <trkpt lat="44.1396" lon="7.54213">
        <ele>1852</ele>
        <time>2017-09-17T12:40:07Z</time>
      </trkpt>
      <trkpt lat="44.13962" lon="7.54221">
        <ele>1852</ele>
        <time>2017-09-17T12:40:08Z</time>
      </trkpt>
      <trkpt lat="44.13963" lon="7.54229">
        <ele>1852</ele>
        <time>2017-09-17T12:40:09Z</time>
      </trkpt>
      <trkpt lat="44.13965" lon="7.54237">
        <ele>1852</ele>
        <time>2017-09-17T12:40:10Z</time>
      </trkpt>
      <trkpt lat="44.13967" lon="7.54245">
        <ele>1852</ele>
        <time>2017-09-17T12:40:11Z</time>
      </trkpt>
      <trkpt lat="44.13971" lon="7.54252">
        <ele>1852</ele>
        <time>2017-09-17T12:40:12Z</time>
      </trkpt>
      <trkpt lat="44.13974" lon="7.54259">
        <ele>1851</ele>
        <time>2017-09-17T12:40:13Z</time>
      </trkpt>
      <trkpt lat="44.13978" lon="7.54265">
        <ele>1851</ele>
        <time>2017-09-17T12:40:14Z</time>
      </trkpt>
      <trkpt lat="44.13982" lon="7.54271">
        <ele>1851</ele>
        <time>2017-09-17T12:40:15Z</time>
      </trkpt>
      <trkpt lat="44.13986" lon="7.54278">
        <ele>1851</ele>
        <time>2017-09-17T12:40:16Z</time>
      </trkpt>
      <trkpt lat="44.13989" lon="7.54285">
        <ele>1851</ele>
        <time>2017-09-17T12:40:17Z</time>
      </trkpt>
      <trkpt lat="44.13993" lon="7.54292">
        <ele>1851</ele>
        <time>2017-09-17T12:40:18Z</time>
      </trkpt>
      <trkpt lat="44.13996" lon="7.54299">
        <ele>1851</ele>
        <time>2017-09-17T12:40:19Z</time>
      </trkpt>
      <trkpt lat="44.13999" lon="7.54307">
        <ele>1851</ele>
        <time>2017-09-17T12:40:20Z</time>
      </trkpt>
      <trkpt lat="44.14003" lon="7.54314">
        <ele>1851</ele>
        <time>2017-09-17T12:40:21Z</time>
      </trkpt>
      <trkpt lat="44.14006" lon="7.54321">
        <ele>1851</ele>
        <time>2017-09-17T12:40:22Z</time>
      </trkpt>
      <trkpt lat="44.14008" lon="7.54329">
        <ele>1851</ele>
        <time>2017-09-17T12:40:23Z</time>
      </trkpt>
      <trkpt lat="44.1401" lon="7.54337">
        <ele>1851</ele>
        <time>2017-09-17T12:40:24Z</time>
      </trkpt>
      <trkpt lat="44.1401" lon="7.54345">
        <ele>1850</ele>
        <time>2017-09-17T12:40:25Z</time>
      </trkpt>
      <trkpt lat="44.14008" lon="7.54353">
        <ele>1850</ele>
        <time>2017-09-17T12:40:26Z</time>
      </trkpt>
      <trkpt lat="44.14005" lon="7.5436">
        <ele>1850</ele>
        <time>2017-09-17T12:40:27Z</time>
      </trkpt>
      <trkpt lat="44.14002" lon="7.54367">
        <ele>1850</ele>
        <time>2017-09-17T12:40:28Z</time>
      </trkpt>
      <trkpt lat="44.13998" lon="7.54373">
        <ele>1850</ele>
        <time>2017-09-17T12:40:29Z</time>
      </trkpt>
      <trkpt lat="44.13994" lon="7.5438">
        <ele>1850</ele>
        <time>2017-09-17T12:40:30Z</time>
      </trkpt>
      <trkpt lat="44.1399" lon="7.54387">
        <ele>1850</ele>
        <time>2017-09-17T12:40:31Z</time>
      </trkpt>
      <trkpt lat="44.13987" lon="7.54393">
        <ele>1850</ele>
        <time>2017-09-17T12:40:32Z</time>
      </trkpt>
      <trkpt lat="44.13983" lon="7.544">
        <ele>1850</ele>
        <time>2017-09-17T12:40:33Z</time>
      </trkpt>
      <trkpt lat="44.13979" lon="7.54407">
        <ele>1850</ele>
        <time>2017-09-17T12:40:34Z</time>
      </trkpt>
      <trkpt lat="44.13976" lon="7.54413">
        <ele>1850</ele>
        <time>2017-09-17T12:40:35Z</time>
      </trkpt>
      <trkpt lat="44.13973" lon="7.5442">
        <ele>1850</ele>
        <time>2017-09-17T12:40:36Z</time>
      </trkpt>
      <trkpt lat="44.1397" lon="7.54427">
        <ele>1850</ele>
        <time>2017-09-17T12:40:37Z</time>
      </trkpt>
      <trkpt lat="44.13966" lon="7.54434">
        <ele>1850</ele>
        <time>2017-09-17T12:40:38Z</time>
      </trkpt>
      <trkpt lat="44.13963" lon="7.54442">
        <ele>1850</ele>
        <time>2017-09-17T12:40:39Z</time>
      </trkpt>
      <trkpt lat="44.1396" lon="7.54449">
        <ele>1850</ele>
        <time>2017-09-17T12:40:40Z</time>
      </trkpt>
      <trkpt lat="44.13957" lon="7.54457">
        <ele>1850</ele>
        <time>2017-09-17T12:40:41Z</time>
      </trkpt>
      <trkpt lat="44.13954" lon="7.54464">
        <ele>1850</ele>
        <time>2017-09-17T12:40:42Z</time>
      </trkpt>
      <trkpt lat="44.1395" lon="7.54471">
        <ele>1850</ele>
        <time>2017-09-17T12:40:43Z</time>
      </trkpt>
      <trkpt lat="44.13947" lon="7.54478">
        <ele>1850</ele>
        <time>2017-09-17T12:40:44Z</time>
      </trkpt>
      <trkpt lat="44.13943" lon="7.54484">
        <ele>1850</ele>
        <time>2017-09-17T12:40:45Z</time>
      </trkpt>
      <trkpt lat="44.13939" lon="7.5449">
        <ele>1850</ele>
        <time>2017-09-17T12:40:46Z</time>
      </trkpt>
      <trkpt lat="44.13934" lon="7.54497">
        <ele>1850</ele>
        <time>2017-09-17T12:40:47Z</time>
      </trkpt>
      <trkpt lat="44.1393" lon="7.54503">
        <ele>1850</ele>
        <time>2017-09-17T12:40:48Z</time>
      </trkpt>
      <trkpt lat="44.13925" lon="7.54508">
        <ele>1850</ele>
        <time>2017-09-17T12:40:49Z</time>
      </trkpt>
      <trkpt lat="44.13921" lon="7.54514">
        <ele>1850</ele>
        <time>2017-09-17T12:40:50Z</time>
      </trkpt>
      <trkpt lat="44.13916" lon="7.54519">
        <ele>1850</ele>
        <time>2017-09-17T12:40:51Z</time>
      </trkpt>
      <trkpt lat="44.13911" lon="7.54524">
        <ele>1850</ele>
        <time>2017-09-17T12:40:52Z</time>
      </trkpt>
      <trkpt lat="44.13907" lon="7.5453">
        <ele>1850</ele>
        <time>2017-09-17T12:40:53Z</time>
      </trkpt>
      <trkpt lat="44.13902" lon="7.54535">
        <ele>1850</ele>
        <time>2017-09-17T12:40:54Z</time>
      </trkpt>
      <trkpt lat="44.13898" lon="7.54541">
        <ele>1850</ele>
        <time>2017-09-17T12:40:55Z</time>
      </trkpt>
      <trkpt lat="44.13893" lon="7.54546">
        <ele>1850</ele>
        <time>2017-09-17T12:40:56Z</time>
      </trkpt>
      <trkpt lat="44.13889" lon="7.54552">
        <ele>1850</ele>
        <time>2017-09-17T12:40:57Z</time>
      </trkpt>
      <trkpt lat="44.13885" lon="7.54558">
        <ele>1850</ele>
        <time>2017-09-17T12:40:58Z</time>
      </trkpt>
      <trkpt lat="44.13882" lon="7.54565">
        <ele>1850</ele>
        <time>2017-09-17T12:40:59Z</time>
      </trkpt>
      <trkpt lat="44.13879" lon="7.54572">
        <ele>1850</ele>
        <time>2017-09-17T12:41:00Z</time>
      </trkpt>
      <trkpt lat="44.13878" lon="7.54581">
        <ele>1850</ele>
        <time>2017-09-17T12:41:01Z</time>
      </trkpt>
      <trkpt lat="44.13878" lon="7.54589">
        <ele>1850</ele>
        <time>2017-09-17T12:41:02Z</time>
      </trkpt>
      <trkpt lat="44.13878" lon="7.54597">
        <ele>1850</ele>
        <time>2017-09-17T12:41:03Z</time>
      </trkpt>
      <trkpt lat="44.13879" lon="7.54606">
        <ele>1849</ele>
        <time>2017-09-17T12:41:04Z</time>
      </trkpt>
      <trkpt lat="44.13879" lon="7.54614">
        <ele>1849</ele>
        <time>2017-09-17T12:41:05Z</time>
      </trkpt>
      <trkpt lat="44.1388" lon="7.54623">
        <ele>1849</ele>
        <time>2017-09-17T12:41:06Z</time>
      </trkpt>
      <trkpt lat="44.13882" lon="7.54631">
        <ele>1849</ele>
        <time>2017-09-17T12:41:07Z</time>
      </trkpt>
      <trkpt lat="44.13883" lon="7.5464">
        <ele>1849</ele>
        <time>2017-09-17T12:41:08Z</time>
      </trkpt>
      <trkpt lat="44.13884" lon="7.54648">
        <ele>1849</ele>
        <time>2017-09-17T12:41:09Z</time>
      </trkpt>
      <trkpt lat="44.13885" lon="7.54657">
        <ele>1849</ele>
        <time>2017-09-17T12:41:10Z</time>
      </trkpt>
      <trkpt lat="44.13886" lon="7.54665">
        <ele>1848</ele>
        <time>2017-09-17T12:41:11Z</time>
      </trkpt>
      <trkpt lat="44.13888" lon="7.54673">
        <ele>1848</ele>
        <time>2017-09-17T12:41:12Z</time>
      </trkpt>
      <trkpt lat="44.13889" lon="7.54682">
        <ele>1848</ele>
        <time>2017-09-17T12:41:13Z</time>
      </trkpt>
      <trkpt lat="44.13891" lon="7.5469">
        <ele>1848</ele>
        <time>2017-09-17T12:41:14Z</time>
      </trkpt>
      <trkpt lat="44.13892" lon="7.54699">
        <ele>1848</ele>
        <time>2017-09-17T12:41:15Z</time>
      </trkpt>
      <trkpt lat="44.13893" lon="7.54708">
        <ele>1848</ele>
        <time>2017-09-17T12:41:16Z</time>
      </trkpt>
      <trkpt lat="44.13893" lon="7.54716">
        <ele>1848</ele>
        <time>2017-09-17T12:41:17Z</time>
      </trkpt>
      <trkpt lat="44.13894" lon="7.54725">
        <ele>1848</ele>
        <time>2017-09-17T12:41:18Z</time>
      </trkpt>
      <trkpt lat="44.13894" lon="7.54734">
        <ele>1848</ele>
        <time>2017-09-17T12:41:19Z</time>
      </trkpt>
      <trkpt lat="44.13894" lon="7.54743">
        <ele>1847</ele>
        <time>2017-09-17T12:41:20Z</time>
      </trkpt>
      <trkpt lat="44.13895" lon="7.54752">
        <ele>1847</ele>
        <time>2017-09-17T12:41:21Z</time>
      </trkpt>
      <trkpt lat="44.13895" lon="7.54761">
        <ele>1847</ele>
        <time>2017-09-17T12:41:22Z</time>
      </trkpt>
      <trkpt lat="44.13894" lon="7.5477">
        <ele>1847</ele>
        <time>2017-09-17T12:41:23Z</time>
      </trkpt>
      <trkpt lat="44.13893" lon="7.54778">
        <ele>1847</ele>
        <time>2017-09-17T12:41:24Z</time>
      </trkpt>
      <trkpt lat="44.1389" lon="7.54786">
        <ele>1847</ele>
        <time>2017-09-17T12:41:25Z</time>
      </trkpt>
      <trkpt lat="44.13887" lon="7.54793">
        <ele>1847</ele>
        <time>2017-09-17T12:41:26Z</time>
      </trkpt>
      <trkpt lat="44.13883" lon="7.54801">
        <ele>1847</ele>
        <time>2017-09-17T12:41:27Z</time>
      </trkpt>
      <trkpt lat="44.1388" lon="7.54808">
        <ele>1847</ele>
        <time>2017-09-17T12:41:28Z</time>
      </trkpt>
      <trkpt lat="44.13877" lon="7.54816">
        <ele>1847</ele>
        <time>2017-09-17T12:41:29Z</time>
      </trkpt>
      <trkpt lat="44.13874" lon="7.54824">
        <ele>1847</ele>
        <time>2017-09-17T12:41:30Z</time>
      </trkpt>
      <trkpt lat="44.13872" lon="7.54832">
        <ele>1846</ele>
        <time>2017-09-17T12:41:31Z</time>
      </trkpt>
      <trkpt lat="44.13869" lon="7.5484">
        <ele>1846</ele>
        <time>2017-09-17T12:41:32Z</time>
      </trkpt>
      <trkpt lat="44.13867" lon="7.54849">
        <ele>1846</ele>
        <time>2017-09-17T12:41:33Z</time>
      </trkpt>
      <trkpt lat="44.13864" lon="7.54857">
        <ele>1846</ele>
        <time>2017-09-17T12:41:34Z</time>
      </trkpt>
      <trkpt lat="44.13862" lon="7.54865">
        <ele>1846</ele>
        <time>2017-09-17T12:41:35Z</time>
      </trkpt>
      <trkpt lat="44.1386" lon="7.54873">
        <ele>1846</ele>
        <time>2017-09-17T12:41:36Z</time>
      </trkpt>
      <trkpt lat="44.13858" lon="7.54881">
        <ele>1846</ele>
        <time>2017-09-17T12:41:37Z</time>
      </trkpt>
      <trkpt lat="44.13856" lon="7.54889">
        <ele>1846</ele>
        <time>2017-09-17T12:41:38Z</time>
      </trkpt>
      <trkpt lat="44.13857" lon="7.54897">
        <ele>1846</ele>
        <time>2017-09-17T12:41:39Z</time>
      </trkpt>
      <trkpt lat="44.1386" lon="7.54904">
        <ele>1846</ele>
        <time>2017-09-17T12:41:40Z</time>
      </trkpt>
      <trkpt lat="44.13864" lon="7.54909">
        <ele>1846</ele>
        <time>2017-09-17T12:41:41Z</time>
      </trkpt>
      <trkpt lat="44.13869" lon="7.54914">
        <ele>1846</ele>
        <time>2017-09-17T12:41:42Z</time>
      </trkpt>
      <trkpt lat="44.13872" lon="7.5492">
        <ele>1846</ele>
        <time>2017-09-17T12:41:43Z</time>
      </trkpt>
      <trkpt lat="44.13875" lon="7.54928">
        <ele>1846</ele>
        <time>2017-09-17T12:41:44Z</time>
      </trkpt>
      <trkpt lat="44.13876" lon="7.54936">
        <ele>1846</ele>
        <time>2017-09-17T12:41:45Z</time>
      </trkpt>
      <trkpt lat="44.13877" lon="7.54945">
        <ele>1846</ele>
        <time>2017-09-17T12:41:46Z</time>
      </trkpt>
      <trkpt lat="44.13879" lon="7.54954">
        <ele>1845</ele>
        <time>2017-09-17T12:41:47Z</time>
      </trkpt>
      <trkpt lat="44.13883" lon="7.54963">
        <ele>1845</ele>
        <time>2017-09-17T12:41:48Z</time>
      </trkpt>
      <trkpt lat="44.13886" lon="7.5497">
        <ele>1845</ele>
        <time>2017-09-17T12:41:49Z</time>
      </trkpt>
      <trkpt lat="44.13891" lon="7.54977">
        <ele>1845</ele>
        <time>2017-09-17T12:41:50Z</time>
      </trkpt>
      <trkpt lat="44.13895" lon="7.54983">
        <ele>1846</ele>
        <time>2017-09-17T12:41:51Z</time>
      </trkpt>
      <trkpt lat="44.139" lon="7.54987">
        <ele>1846</ele>
        <time>2017-09-17T12:41:52Z</time>
      </trkpt>
      <trkpt lat="44.13905" lon="7.54989">
        <ele>1846</ele>
        <time>2017-09-17T12:41:53Z</time>
      </trkpt>
      <trkpt lat="44.13909" lon="7.54991">
        <ele>1847</ele>
        <time>2017-09-17T12:41:54Z</time>
      </trkpt>
      <trkpt lat="44.13913" lon="7.54992">
        <ele>1847</ele>
        <time>2017-09-17T12:41:55Z</time>
      </trkpt>
      <trkpt lat="44.13917" lon="7.54993">
        <ele>1847</ele>
        <time>2017-09-17T12:41:56Z</time>
      </trkpt>
      <trkpt lat="44.13921" lon="7.54994">
        <ele>1848</ele>
        <time>2017-09-17T12:41:57Z</time>
      </trkpt>
      <trkpt lat="44.13925" lon="7.54994">
        <ele>1848</ele>
        <time>2017-09-17T12:41:58Z</time>
      </trkpt>
      <trkpt lat="44.13928" lon="7.54994">
        <ele>1848</ele>
        <time>2017-09-17T12:41:59Z</time>
      </trkpt>
      <trkpt lat="44.13932" lon="7.54995">
        <ele>1849</ele>
        <time>2017-09-17T12:42:00Z</time>
      </trkpt>
      <trkpt lat="44.13935" lon="7.54995">
        <ele>1849</ele>
        <time>2017-09-17T12:42:01Z</time>
      </trkpt>
      <trkpt lat="44.13938" lon="7.54995">
        <ele>1849</ele>
        <time>2017-09-17T12:42:02Z</time>
      </trkpt>
      <trkpt lat="44.13941" lon="7.54995">
        <ele>1850</ele>
        <time>2017-09-17T12:42:03Z</time>
      </trkpt>
      <trkpt lat="44.13945" lon="7.54995">
        <ele>1850</ele>
        <time>2017-09-17T12:42:04Z</time>
      </trkpt>
      <trkpt lat="44.13949" lon="7.54996">
        <ele>1850</ele>
        <time>2017-09-17T12:42:05Z</time>
      </trkpt>
      <trkpt lat="44.13953" lon="7.54996">
        <ele>1851</ele>
        <time>2017-09-17T12:42:06Z</time>
      </trkpt>
      <trkpt lat="44.13956" lon="7.54996">
        <ele>1851</ele>
        <time>2017-09-17T12:42:07Z</time>
      </trkpt>
      <trkpt lat="44.13959" lon="7.54997">
        <ele>1851</ele>
        <time>2017-09-17T12:42:08Z</time>
      </trkpt>
      <trkpt lat="44.13963" lon="7.54997">
        <ele>1852</ele>
        <time>2017-09-17T12:42:09Z</time>
      </trkpt>
      <trkpt lat="44.13966" lon="7.54997">
        <ele>1852</ele>
        <time>2017-09-17T12:42:10Z</time>
      </trkpt>
      <trkpt lat="44.1397" lon="7.54998">
        <ele>1852</ele>
        <time>2017-09-17T12:42:11Z</time>
      </trkpt>
      <trkpt lat="44.13973" lon="7.54998">
        <ele>1853</ele>
        <time>2017-09-17T12:42:12Z</time>
      </trkpt>
      <trkpt lat="44.13977" lon="7.54998">
        <ele>1853</ele>
        <time>2017-09-17T12:42:13Z</time>
      </trkpt>
      <trkpt lat="44.1398" lon="7.54998">
        <ele>1854</ele>
        <time>2017-09-17T12:42:14Z</time>
      </trkpt>
      <trkpt lat="44.13983" lon="7.54998">
        <ele>1854</ele>
        <time>2017-09-17T12:42:15Z</time>
      </trkpt>
      <trkpt lat="44.13987" lon="7.54998">
        <ele>1854</ele>
        <time>2017-09-17T12:42:16Z</time>
      </trkpt>
      <trkpt lat="44.1399" lon="7.54999">
        <ele>1855</ele>
        <time>2017-09-17T12:42:17Z</time>
      </trkpt>
      <trkpt lat="44.13994" lon="7.55">
        <ele>1855</ele>
        <time>2017-09-17T12:42:18Z</time>
      </trkpt>
      <trkpt lat="44.13997" lon="7.55">
        <ele>1856</ele>
        <time>2017-09-17T12:42:19Z</time>
      </trkpt>
      <trkpt lat="44.14001" lon="7.55001">
        <ele>1856</ele>
        <time>2017-09-17T12:42:20Z</time>
      </trkpt>
      <trkpt lat="44.14004" lon="7.55002">
        <ele>1856</ele>
        <time>2017-09-17T12:42:21Z</time>
      </trkpt>
      <trkpt lat="44.14007" lon="7.55003">
        <ele>1857</ele>
        <time>2017-09-17T12:42:22Z</time>
      </trkpt>
      <trkpt lat="44.1401" lon="7.55004">
        <ele>1857</ele>
        <time>2017-09-17T12:42:23Z</time>
      </trkpt>
      <trkpt lat="44.14014" lon="7.55006">
        <ele>1858</ele>
        <time>2017-09-17T12:42:24Z</time>
      </trkpt>
      <trkpt lat="44.14017" lon="7.55007">
        <ele>1858</ele>
        <time>2017-09-17T12:42:25Z</time>
      </trkpt>
      <trkpt lat="44.1402" lon="7.55008">
        <ele>1859</ele>
        <time>2017-09-17T12:42:26Z</time>
      </trkpt>
      <trkpt lat="44.14023" lon="7.55009">
        <ele>1859</ele>
        <time>2017-09-17T12:42:27Z</time>
      </trkpt>
      <trkpt lat="44.14026" lon="7.55011">
        <ele>1859</ele>
        <time>2017-09-17T12:42:28Z</time>
      </trkpt>
      <trkpt lat="44.14029" lon="7.55013">
        <ele>1860</ele>
        <time>2017-09-17T12:42:29Z</time>
      </trkpt>
      <trkpt lat="44.14032" lon="7.55015">
        <ele>1860</ele>
        <time>2017-09-17T12:42:30Z</time>
      </trkpt>
      <trkpt lat="44.14035" lon="7.55017">
        <ele>1860</ele>
        <time>2017-09-17T12:42:31Z</time>
      </trkpt>
      <trkpt lat="44.14038" lon="7.55019">
        <ele>1861</ele>
        <time>2017-09-17T12:42:32Z</time>
      </trkpt>
      <trkpt lat="44.14041" lon="7.55021">
        <ele>1861</ele>
        <time>2017-09-17T12:42:33Z</time>
      </trkpt>
      <trkpt lat="44.14044" lon="7.55023">
        <ele>1861</ele>
        <time>2017-09-17T12:42:34Z</time>
      </trkpt>
      <trkpt lat="44.14048" lon="7.55025">
        <ele>1862</ele>
        <time>2017-09-17T12:42:35Z</time>
      </trkpt>
      <trkpt lat="44.14051" lon="7.55027">
        <ele>1862</ele>
        <time>2017-09-17T12:42:36Z</time>
      </trkpt>
      <trkpt lat="44.14054" lon="7.55029">
        <ele>1862</ele>
        <time>2017-09-17T12:42:37Z</time>
      </trkpt>
      <trkpt lat="44.14057" lon="7.55031">
        <ele>1862</ele>
        <time>2017-09-17T12:42:38Z</time>
      </trkpt>
      <trkpt lat="44.1406" lon="7.55033">
        <ele>1863</ele>
        <time>2017-09-17T12:42:39Z</time>
      </trkpt>
      <trkpt lat="44.14063" lon="7.55035">
        <ele>1863</ele>
        <time>2017-09-17T12:42:40Z</time>
      </trkpt>
      <trkpt lat="44.14066" lon="7.55037">
        <ele>1863</ele>
        <time>2017-09-17T12:42:41Z</time>
      </trkpt>
      <trkpt lat="44.14069" lon="7.55039">
        <ele>1864</ele>
        <time>2017-09-17T12:42:42Z</time>
      </trkpt>
      <trkpt lat="44.14072" lon="7.55041">
        <ele>1864</ele>
        <time>2017-09-17T12:42:43Z</time>
      </trkpt>
      <trkpt lat="44.14075" lon="7.55042">
        <ele>1865</ele>
        <time>2017-09-17T12:42:44Z</time>
      </trkpt>
      <trkpt lat="44.14079" lon="7.55044">
        <ele>1865</ele>
        <time>2017-09-17T12:42:45Z</time>
      </trkpt>
      <trkpt lat="44.14082" lon="7.55046">
        <ele>1865</ele>
        <time>2017-09-17T12:42:46Z</time>
      </trkpt>
      <trkpt lat="44.14085" lon="7.55049">
        <ele>1865</ele>
        <time>2017-09-17T12:42:47Z</time>
      </trkpt>
      <trkpt lat="44.14088" lon="7.55051">
        <ele>1866</ele>
        <time>2017-09-17T12:42:48Z</time>
      </trkpt>
      <trkpt lat="44.14091" lon="7.55054">
        <ele>1866</ele>
        <time>2017-09-17T12:42:49Z</time>
      </trkpt>
      <trkpt lat="44.14094" lon="7.55056">
        <ele>1866</ele>
        <time>2017-09-17T12:42:50Z</time>
      </trkpt>
      <trkpt lat="44.14097" lon="7.55058">
        <ele>1867</ele>
        <time>2017-09-17T12:42:51Z</time>
      </trkpt>
      <trkpt lat="44.141" lon="7.5506">
        <ele>1867</ele>
        <time>2017-09-17T12:42:52Z</time>
      </trkpt>
      <trkpt lat="44.14104" lon="7.55061">
        <ele>1867</ele>
        <time>2017-09-17T12:42:53Z</time>
      </trkpt>
      <trkpt lat="44.14107" lon="7.55063">
        <ele>1867</ele>
        <time>2017-09-17T12:42:54Z</time>
      </trkpt>
      <trkpt lat="44.14111" lon="7.55063">
        <ele>1868</ele>
        <time>2017-09-17T12:42:55Z</time>
      </trkpt>
      <trkpt lat="44.14114" lon="7.55064">
        <ele>1868</ele>
        <time>2017-09-17T12:42:56Z</time>
      </trkpt>
      <trkpt lat="44.14118" lon="7.55063">
        <ele>1868</ele>
        <time>2017-09-17T12:42:57Z</time>
      </trkpt>
      <trkpt lat="44.14121" lon="7.55063">
        <ele>1869</ele>
        <time>2017-09-17T12:42:58Z</time>
      </trkpt>
      <trkpt lat="44.14125" lon="7.55062">
        <ele>1869</ele>
        <time>2017-09-17T12:42:59Z</time>
      </trkpt>
      <trkpt lat="44.14128" lon="7.55061">
        <ele>1870</ele>
        <time>2017-09-17T12:43:00Z</time>
      </trkpt>
      <trkpt lat="44.14131" lon="7.5506">
        <ele>1870</ele>
        <time>2017-09-17T12:43:01Z</time>
      </trkpt>
      <trkpt lat="44.14134" lon="7.55058">
        <ele>1870</ele>
        <time>2017-09-17T12:43:02Z</time>
      </trkpt>
      <trkpt lat="44.14138" lon="7.55056">
        <ele>1871</ele>
        <time>2017-09-17T12:43:03Z</time>
      </trkpt>
      <trkpt lat="44.14141" lon="7.55053">
        <ele>1871</ele>
        <time>2017-09-17T12:43:04Z</time>
      </trkpt>
      <trkpt lat="44.14144" lon="7.55052">
        <ele>1871</ele>
        <time>2017-09-17T12:43:05Z</time>
      </trkpt>
      <trkpt lat="44.14147" lon="7.5505">
        <ele>1872</ele>
        <time>2017-09-17T12:43:06Z</time>
      </trkpt>
      <trkpt lat="44.1415" lon="7.55049">
        <ele>1872</ele>
        <time>2017-09-17T12:43:07Z</time>
      </trkpt>
      <trkpt lat="44.14154" lon="7.55049">
        <ele>1872</ele>
        <time>2017-09-17T12:43:08Z</time>
      </trkpt>
      <trkpt lat="44.14157" lon="7.55048">
        <ele>1872</ele>
        <time>2017-09-17T12:43:09Z</time>
      </trkpt>
      <trkpt lat="44.14161" lon="7.55047">
        <ele>1873</ele>
        <time>2017-09-17T12:43:10Z</time>
      </trkpt>
      <trkpt lat="44.14165" lon="7.55047">
        <ele>1873</ele>
        <time>2017-09-17T12:43:11Z</time>
      </trkpt>
      <trkpt lat="44.14169" lon="7.55047">
        <ele>1873</ele>
        <time>2017-09-17T12:43:12Z</time>
      </trkpt>
      <trkpt lat="44.14173" lon="7.55046">
        <ele>1874</ele>
        <time>2017-09-17T12:43:13Z</time>
      </trkpt>
      <trkpt lat="44.14177" lon="7.55046">
        <ele>1874</ele>
        <time>2017-09-17T12:43:14Z</time>
      </trkpt>
      <trkpt lat="44.14182" lon="7.55047">
        <ele>1874</ele>
        <time>2017-09-17T12:43:15Z</time>
      </trkpt>
      <trkpt lat="44.14186" lon="7.55048">
        <ele>1875</ele>
        <time>2017-09-17T12:43:16Z</time>
      </trkpt>
      <trkpt lat="44.1419" lon="7.5505">
        <ele>1875</ele>
        <time>2017-09-17T12:43:17Z</time>
      </trkpt>
      <trkpt lat="44.14193" lon="7.55052">
        <ele>1875</ele>
        <time>2017-09-17T12:43:18Z</time>
      </trkpt>
      <trkpt lat="44.14197" lon="7.55054">
        <ele>1875</ele>
        <time>2017-09-17T12:43:19Z</time>
      </trkpt>
      <trkpt lat="44.14201" lon="7.55057">
        <ele>1876</ele>
        <time>2017-09-17T12:43:20Z</time>
      </trkpt>
      <trkpt lat="44.14205" lon="7.55059">
        <ele>1876</ele>
        <time>2017-09-17T12:43:21Z</time>
      </trkpt>
      <trkpt lat="44.14209" lon="7.5506">
        <ele>1876</ele>
        <time>2017-09-17T12:43:22Z</time>
      </trkpt>
      <trkpt lat="44.14213" lon="7.55062">
        <ele>1876</ele>
        <time>2017-09-17T12:43:23Z</time>
      </trkpt>
      <trkpt lat="44.14217" lon="7.55063">
        <ele>1877</ele>
        <time>2017-09-17T12:43:24Z</time>
      </trkpt>
      <trkpt lat="44.14221" lon="7.55064">
        <ele>1877</ele>
        <time>2017-09-17T12:43:25Z</time>
      </trkpt>
      <trkpt lat="44.14225" lon="7.55066">
        <ele>1877</ele>
        <time>2017-09-17T12:43:26Z</time>
      </trkpt>
      <trkpt lat="44.14229" lon="7.55067">
        <ele>1877</ele>
        <time>2017-09-17T12:43:27Z</time>
      </trkpt>
      <trkpt lat="44.14233" lon="7.55068">
        <ele>1878</ele>
        <time>2017-09-17T12:43:28Z</time>
      </trkpt>
      <trkpt lat="44.14238" lon="7.55069">
        <ele>1878</ele>
        <time>2017-09-17T12:43:29Z</time>
      </trkpt>
      <trkpt lat="44.14242" lon="7.55069">
        <ele>1878</ele>
        <time>2017-09-17T12:43:30Z</time>
      </trkpt>
      <trkpt lat="44.14247" lon="7.55069">
        <ele>1879</ele>
        <time>2017-09-17T12:43:31Z</time>
      </trkpt>
      <trkpt lat="44.14251" lon="7.55069">
        <ele>1879</ele>
        <time>2017-09-17T12:43:32Z</time>
      </trkpt>
      <trkpt lat="44.14255" lon="7.55069">
        <ele>1879</ele>
        <time>2017-09-17T12:43:33Z</time>
      </trkpt>
      <trkpt lat="44.1426" lon="7.55068">
        <ele>1879</ele>
        <time>2017-09-17T12:43:34Z</time>
      </trkpt>
      <trkpt lat="44.14264" lon="7.55067">
        <ele>1880</ele>
        <time>2017-09-17T12:43:35Z</time>
      </trkpt>
      <trkpt lat="44.14268" lon="7.55067">
        <ele>1880</ele>
        <time>2017-09-17T12:43:36Z</time>
      </trkpt>
      <trkpt lat="44.14273" lon="7.55067">
        <ele>1880</ele>
        <time>2017-09-17T12:43:37Z</time>
      </trkpt>
      <trkpt lat="44.14277" lon="7.55066">
        <ele>1881</ele>
        <time>2017-09-17T12:43:38Z</time>
      </trkpt>
      <trkpt lat="44.14281" lon="7.55066">
        <ele>1881</ele>
        <time>2017-09-17T12:43:39Z</time>
      </trkpt>
      <trkpt lat="44.14286" lon="7.55065">
        <ele>1881</ele>
        <time>2017-09-17T12:43:40Z</time>
      </trkpt>
      <trkpt lat="44.1429" lon="7.55065">
        <ele>1882</ele>
        <time>2017-09-17T12:43:41Z</time>
      </trkpt>
      <trkpt lat="44.14294" lon="7.55064">
        <ele>1882</ele>
        <time>2017-09-17T12:43:42Z</time>
      </trkpt>
      <trkpt lat="44.14298" lon="7.55065">
        <ele>1883</ele>
        <time>2017-09-17T12:43:43Z</time>
      </trkpt>
      <trkpt lat="44.14302" lon="7.55066">
        <ele>1883</ele>
        <time>2017-09-17T12:43:44Z</time>
      </trkpt>
      <trkpt lat="44.14305" lon="7.55068">
        <ele>1883</ele>
        <time>2017-09-17T12:43:45Z</time>
      </trkpt>
      <trkpt lat="44.14309" lon="7.55072">
        <ele>1884</ele>
        <time>2017-09-17T12:43:46Z</time>
      </trkpt>
      <trkpt lat="44.14312" lon="7.55077">
        <ele>1884</ele>
        <time>2017-09-17T12:43:47Z</time>
      </trkpt>
      <trkpt lat="44.14314" lon="7.55084">
        <ele>1884</ele>
        <time>2017-09-17T12:43:48Z</time>
      </trkpt>
      <trkpt lat="44.14317" lon="7.5509">
        <ele>1884</ele>
        <time>2017-09-17T12:43:49Z</time>
      </trkpt>
      <trkpt lat="44.1432" lon="7.55096">
        <ele>1885</ele>
        <time>2017-09-17T12:43:50Z</time>
      </trkpt>
      <trkpt lat="44.14322" lon="7.55102">
        <ele>1885</ele>
        <time>2017-09-17T12:43:51Z</time>
      </trkpt>
      <trkpt lat="44.14325" lon="7.55107">
        <ele>1885</ele>
        <time>2017-09-17T12:43:52Z</time>
      </trkpt>
      <trkpt lat="44.14329" lon="7.55112">
        <ele>1886</ele>
        <time>2017-09-17T12:43:53Z</time>
      </trkpt>
      <trkpt lat="44.14333" lon="7.55115">
        <ele>1886</ele>
        <time>2017-09-17T12:43:54Z</time>
      </trkpt>
      <trkpt lat="44.14337" lon="7.55118">
        <ele>1886</ele>
        <time>2017-09-17T12:43:55Z</time>
      </trkpt>
      <trkpt lat="44.14341" lon="7.55121">
        <ele>1886</ele>
        <time>2017-09-17T12:43:56Z</time>
      </trkpt>
      <trkpt lat="44.14346" lon="7.55123">
        <ele>1887</ele>
        <time>2017-09-17T12:43:57Z</time>
      </trkpt>
      <trkpt lat="44.14351" lon="7.55126">
        <ele>1887</ele>
        <time>2017-09-17T12:43:58Z</time>
      </trkpt>
      <trkpt lat="44.14356" lon="7.55128">
        <ele>1887</ele>
        <time>2017-09-17T12:43:59Z</time>
      </trkpt>
      <trkpt lat="44.1436" lon="7.55131">
        <ele>1888</ele>
        <time>2017-09-17T12:44:00Z</time>
      </trkpt>
      <trkpt lat="44.14365" lon="7.55135">
        <ele>1888</ele>
        <time>2017-09-17T12:44:01Z</time>
      </trkpt>
      <trkpt lat="44.14369" lon="7.5514">
        <ele>1888</ele>
        <time>2017-09-17T12:44:02Z</time>
      </trkpt>
      <trkpt lat="44.14373" lon="7.55145">
        <ele>1888</ele>
        <time>2017-09-17T12:44:03Z</time>
      </trkpt>
      <trkpt lat="44.14376" lon="7.5515">
        <ele>1889</ele>
        <time>2017-09-17T12:44:04Z</time>
      </trkpt>
      <trkpt lat="44.14379" lon="7.55156">
        <ele>1889</ele>
        <time>2017-09-17T12:44:05Z</time>
      </trkpt>
      <trkpt lat="44.14381" lon="7.55163">
        <ele>1889</ele>
        <time>2017-09-17T12:44:06Z</time>
      </trkpt>
      <trkpt lat="44.14383" lon="7.5517">
        <ele>1889</ele>
        <time>2017-09-17T12:44:07Z</time>
      </trkpt>
      <trkpt lat="44.14385" lon="7.55176">
        <ele>1890</ele>
        <time>2017-09-17T12:44:08Z</time>
      </trkpt>
      <trkpt lat="44.14388" lon="7.55183">
        <ele>1890</ele>
        <time>2017-09-17T12:44:09Z</time>
      </trkpt>
      <trkpt lat="44.1439" lon="7.55189">
        <ele>1890</ele>
        <time>2017-09-17T12:44:10Z</time>
      </trkpt>
      <trkpt lat="44.14393" lon="7.55196">
        <ele>1890</ele>
        <time>2017-09-17T12:44:11Z</time>
      </trkpt>
      <trkpt lat="44.14395" lon="7.55203">
        <ele>1890</ele>
        <time>2017-09-17T12:44:12Z</time>
      </trkpt>
      <trkpt lat="44.14398" lon="7.5521">
        <ele>1890</ele>
        <time>2017-09-17T12:44:13Z</time>
      </trkpt>
      <trkpt lat="44.14401" lon="7.55217">
        <ele>1890</ele>
        <time>2017-09-17T12:44:14Z</time>
      </trkpt>
      <trkpt lat="44.14403" lon="7.55224">
        <ele>1891</ele>
        <time>2017-09-17T12:44:15Z</time>
      </trkpt>
      <trkpt lat="44.14406" lon="7.5523">
        <ele>1891</ele>
        <time>2017-09-17T12:44:16Z</time>
      </trkpt>
      <trkpt lat="44.1441" lon="7.55236">
        <ele>1891</ele>
        <time>2017-09-17T12:44:17Z</time>
      </trkpt>
      <trkpt lat="44.14414" lon="7.55242">
        <ele>1891</ele>
        <time>2017-09-17T12:44:18Z</time>
      </trkpt>
      <trkpt lat="44.14419" lon="7.55246">
        <ele>1891</ele>
        <time>2017-09-17T12:44:19Z</time>
      </trkpt>
      <trkpt lat="44.14424" lon="7.5525">
        <ele>1892</ele>
        <time>2017-09-17T12:44:20Z</time>
      </trkpt>
      <trkpt lat="44.14428" lon="7.55255">
        <ele>1892</ele>
        <time>2017-09-17T12:44:21Z</time>
      </trkpt>
      <trkpt lat="44.14432" lon="7.55261">
        <ele>1892</ele>
        <time>2017-09-17T12:44:22Z</time>
      </trkpt>
      <trkpt lat="44.14434" lon="7.55268">
        <ele>1892</ele>
        <time>2017-09-17T12:44:23Z</time>
      </trkpt>
      <trkpt lat="44.14435" lon="7.55275">
        <ele>1893</ele>
        <time>2017-09-17T12:44:24Z</time>
      </trkpt>
      <trkpt lat="44.14435" lon="7.55283">
        <ele>1893</ele>
        <time>2017-09-17T12:44:25Z</time>
      </trkpt>
      <trkpt lat="44.14435" lon="7.55291">
        <ele>1893</ele>
        <time>2017-09-17T12:44:26Z</time>
      </trkpt>
      <trkpt lat="44.14435" lon="7.55298">
        <ele>1893</ele>
        <time>2017-09-17T12:44:27Z</time>
      </trkpt>
      <trkpt lat="44.14437" lon="7.55306">
        <ele>1893</ele>
        <time>2017-09-17T12:44:28Z</time>
      </trkpt>
      <trkpt lat="44.14439" lon="7.55313">
        <ele>1894</ele>
        <time>2017-09-17T12:44:29Z</time>
      </trkpt>
      <trkpt lat="44.14443" lon="7.55318">
        <ele>1894</ele>
        <time>2017-09-17T12:44:30Z</time>
      </trkpt>
      <trkpt lat="44.14448" lon="7.55322">
        <ele>1894</ele>
        <time>2017-09-17T12:44:31Z</time>
      </trkpt>
      <trkpt lat="44.14453" lon="7.55326">
        <ele>1894</ele>
        <time>2017-09-17T12:44:32Z</time>
      </trkpt>
      <trkpt lat="44.14458" lon="7.55329">
        <ele>1895</ele>
        <time>2017-09-17T12:44:33Z</time>
      </trkpt>
      <trkpt lat="44.14463" lon="7.55332">
        <ele>1895</ele>
        <time>2017-09-17T12:44:34Z</time>
      </trkpt>
      <trkpt lat="44.14468" lon="7.55336">
        <ele>1895</ele>
        <time>2017-09-17T12:44:35Z</time>
      </trkpt>
      <trkpt lat="44.14472" lon="7.55341">
        <ele>1895</ele>
        <time>2017-09-17T12:44:36Z</time>
      </trkpt>
      <trkpt lat="44.14476" lon="7.55347">
        <ele>1895</ele>
        <time>2017-09-17T12:44:37Z</time>
      </trkpt>
      <trkpt lat="44.14479" lon="7.55354">
        <ele>1896</ele>
        <time>2017-09-17T12:44:38Z</time>
      </trkpt>
      <trkpt lat="44.14481" lon="7.55362">
        <ele>1896</ele>
        <time>2017-09-17T12:44:39Z</time>
      </trkpt>
      <trkpt lat="44.14482" lon="7.5537">
        <ele>1896</ele>
        <time>2017-09-17T12:44:40Z</time>
      </trkpt>
      <trkpt lat="44.14482" lon="7.55377">
        <ele>1896</ele>
        <time>2017-09-17T12:44:41Z</time>
      </trkpt>
      <trkpt lat="44.14483" lon="7.55385">
        <ele>1896</ele>
        <time>2017-09-17T12:44:42Z</time>
      </trkpt>
      <trkpt lat="44.14482" lon="7.55392">
        <ele>1896</ele>
        <time>2017-09-17T12:44:43Z</time>
      </trkpt>
      <trkpt lat="44.1448" lon="7.55399">
        <ele>1897</ele>
        <time>2017-09-17T12:44:44Z</time>
      </trkpt>
      <trkpt lat="44.14479" lon="7.55405">
        <ele>1897</ele>
        <time>2017-09-17T12:44:45Z</time>
      </trkpt>
      <trkpt lat="44.14479" lon="7.55411">
        <ele>1897</ele>
        <time>2017-09-17T12:44:46Z</time>
      </trkpt>
      <trkpt lat="44.1448" lon="7.55417">
        <ele>1897</ele>
        <time>2017-09-17T12:44:47Z</time>
      </trkpt>
      <trkpt lat="44.14482" lon="7.55423">
        <ele>1897</ele>
        <time>2017-09-17T12:44:48Z</time>
      </trkpt>
      <trkpt lat="44.14484" lon="7.5543">
        <ele>1897</ele>
        <time>2017-09-17T12:44:49Z</time>
      </trkpt>
      <trkpt lat="44.14486" lon="7.55437">
        <ele>1897</ele>
        <time>2017-09-17T12:44:50Z</time>
      </trkpt>
      <trkpt lat="44.14486" lon="7.55445">
        <ele>1897</ele>
        <time>2017-09-17T12:44:51Z</time>
      </trkpt>
      <trkpt lat="44.14486" lon="7.55452">
        <ele>1897</ele>
        <time>2017-09-17T12:44:52Z</time>
      </trkpt>
      <trkpt lat="44.14484" lon="7.55459">
        <ele>1898</ele>
        <time>2017-09-17T12:44:53Z</time>
      </trkpt>
      <trkpt lat="44.14484" lon="7.55467">
        <ele>1898</ele>
        <time>2017-09-17T12:44:54Z</time>
      </trkpt>
      <trkpt lat="44.14483" lon="7.55475">
        <ele>1898</ele>
        <time>2017-09-17T12:44:55Z</time>
      </trkpt>
      <trkpt lat="44.14483" lon="7.55484">
        <ele>1898</ele>
        <time>2017-09-17T12:44:56Z</time>
      </trkpt>
      <trkpt lat="44.14483" lon="7.55493">
        <ele>1898</ele>
        <time>2017-09-17T12:44:57Z</time>
      </trkpt>
      <trkpt lat="44.14483" lon="7.55502">
        <ele>1897</ele>
        <time>2017-09-17T12:44:58Z</time>
      </trkpt>
      <trkpt lat="44.14482" lon="7.5551">
        <ele>1897</ele>
        <time>2017-09-17T12:44:59Z</time>
      </trkpt>
      <trkpt lat="44.14482" lon="7.55519">
        <ele>1897</ele>
        <time>2017-09-17T12:45:00Z</time>
      </trkpt>
      <trkpt lat="44.14482" lon="7.55527">
        <ele>1897</ele>
        <time>2017-09-17T12:45:01Z</time>
      </trkpt>
      <trkpt lat="44.14482" lon="7.55536">
        <ele>1897</ele>
        <time>2017-09-17T12:45:02Z</time>
      </trkpt>
      <trkpt lat="44.14484" lon="7.55544">
        <ele>1897</ele>
        <time>2017-09-17T12:45:03Z</time>
      </trkpt>
      <trkpt lat="44.14488" lon="7.55551">
        <ele>1897</ele>
        <time>2017-09-17T12:45:04Z</time>
      </trkpt>
      <trkpt lat="44.14493" lon="7.55555">
        <ele>1897</ele>
        <time>2017-09-17T12:45:05Z</time>
      </trkpt>
      <trkpt lat="44.14499" lon="7.55558">
        <ele>1897</ele>
        <time>2017-09-17T12:45:06Z</time>
      </trkpt>
      <trkpt lat="44.14505" lon="7.55561">
        <ele>1897</ele>
        <time>2017-09-17T12:45:07Z</time>
      </trkpt>
      <trkpt lat="44.14511" lon="7.55563">
        <ele>1897</ele>
        <time>2017-09-17T12:45:08Z</time>
      </trkpt>
      <trkpt lat="44.14517" lon="7.55566">
        <ele>1897</ele>
        <time>2017-09-17T12:45:09Z</time>
      </trkpt>
      <trkpt lat="44.14522" lon="7.55569">
        <ele>1897</ele>
        <time>2017-09-17T12:45:10Z</time>
      </trkpt>
      <trkpt lat="44.14528" lon="7.55573">
        <ele>1897</ele>
        <time>2017-09-17T12:45:11Z</time>
      </trkpt>
      <trkpt lat="44.14533" lon="7.55577">
        <ele>1897</ele>
        <time>2017-09-17T12:45:12Z</time>
      </trkpt>
      <trkpt lat="44.14538" lon="7.55582">
        <ele>1897</ele>
        <time>2017-09-17T12:45:13Z</time>
      </trkpt>
      <trkpt lat="44.14543" lon="7.55587">
        <ele>1897</ele>
        <time>2017-09-17T12:45:14Z</time>
      </trkpt>
      <trkpt lat="44.14548" lon="7.55593">
        <ele>1897</ele>
        <time>2017-09-17T12:45:15Z</time>
      </trkpt>
      <trkpt lat="44.14552" lon="7.556">
        <ele>1896</ele>
        <time>2017-09-17T12:45:16Z</time>
      </trkpt>
      <trkpt lat="44.14556" lon="7.55606">
        <ele>1896</ele>
        <time>2017-09-17T12:45:17Z</time>
      </trkpt>
      <trkpt lat="44.1456" lon="7.55613">
        <ele>1896</ele>
        <time>2017-09-17T12:45:18Z</time>
      </trkpt>
      <trkpt lat="44.14564" lon="7.55619">
        <ele>1896</ele>
        <time>2017-09-17T12:45:19Z</time>
      </trkpt>
      <trkpt lat="44.1457" lon="7.55622">
        <ele>1896</ele>
        <time>2017-09-17T12:45:20Z</time>
      </trkpt>
      <trkpt lat="44.14576" lon="7.55623">
        <ele>1897</ele>
        <time>2017-09-17T12:45:21Z</time>
      </trkpt>
      <trkpt lat="44.14582" lon="7.55623">
        <ele>1897</ele>
        <time>2017-09-17T12:45:22Z</time>
      </trkpt>
      <trkpt lat="44.14587" lon="7.55623">
        <ele>1897</ele>
        <time>2017-09-17T12:45:23Z</time>
      </trkpt>
      <trkpt lat="44.14593" lon="7.55624">
        <ele>1897</ele>
        <time>2017-09-17T12:45:24Z</time>
      </trkpt>
      <trkpt lat="44.14599" lon="7.55625">
        <ele>1897</ele>
        <time>2017-09-17T12:45:25Z</time>
      </trkpt>
      <trkpt lat="44.14604" lon="7.55628">
        <ele>1897</ele>
        <time>2017-09-17T12:45:26Z</time>
      </trkpt>
      <trkpt lat="44.14609" lon="7.55631">
        <ele>1897</ele>
        <time>2017-09-17T12:45:27Z</time>
      </trkpt>
      <trkpt lat="44.14614" lon="7.55634">
        <ele>1897</ele>
        <time>2017-09-17T12:45:28Z</time>
      </trkpt>
      <trkpt lat="44.14619" lon="7.55639">
        <ele>1897</ele>
        <time>2017-09-17T12:45:29Z</time>
      </trkpt>
      <trkpt lat="44.14622" lon="7.55645">
        <ele>1898</ele>
        <time>2017-09-17T12:45:30Z</time>
      </trkpt>
      <trkpt lat="44.14624" lon="7.55652">
        <ele>1898</ele>
        <time>2017-09-17T12:45:31Z</time>
      </trkpt>
      <trkpt lat="44.14625" lon="7.55659">
        <ele>1898</ele>
        <time>2017-09-17T12:45:32Z</time>
      </trkpt>
      <trkpt lat="44.14627" lon="7.55665">
        <ele>1898</ele>
        <time>2017-09-17T12:45:33Z</time>
      </trkpt>
      <trkpt lat="44.1463" lon="7.55671">
        <ele>1899</ele>
        <time>2017-09-17T12:45:34Z</time>
      </trkpt>
      <trkpt lat="44.14634" lon="7.55675">
        <ele>1899</ele>
        <time>2017-09-17T12:45:35Z</time>
      </trkpt>
      <trkpt lat="44.14639" lon="7.55677">
        <ele>1899</ele>
        <time>2017-09-17T12:45:36Z</time>
      </trkpt>
      <trkpt lat="44.14644" lon="7.55678">
        <ele>1899</ele>
        <time>2017-09-17T12:45:37Z</time>
      </trkpt>
      <trkpt lat="44.14649" lon="7.5568">
        <ele>1900</ele>
        <time>2017-09-17T12:45:38Z</time>
      </trkpt>
      <trkpt lat="44.14654" lon="7.55681">
        <ele>1900</ele>
        <time>2017-09-17T12:45:39Z</time>
      </trkpt>
      <trkpt lat="44.14658" lon="7.55682">
        <ele>1900</ele>
        <time>2017-09-17T12:45:40Z</time>
      </trkpt>
      <trkpt lat="44.14663" lon="7.55683">
        <ele>1901</ele>
        <time>2017-09-17T12:45:41Z</time>
      </trkpt>
      <trkpt lat="44.14667" lon="7.55683">
        <ele>1901</ele>
        <time>2017-09-17T12:45:42Z</time>
      </trkpt>
      <trkpt lat="44.14672" lon="7.55682">
        <ele>1902</ele>
        <time>2017-09-17T12:45:43Z</time>
      </trkpt>
      <trkpt lat="44.14677" lon="7.55682">
        <ele>1902</ele>
        <time>2017-09-17T12:45:44Z</time>
      </trkpt>
      <trkpt lat="44.14681" lon="7.55683">
        <ele>1903</ele>
        <time>2017-09-17T12:45:45Z</time>
      </trkpt>
      <trkpt lat="44.14685" lon="7.55685">
        <ele>1903</ele>
        <time>2017-09-17T12:45:46Z</time>
      </trkpt>
      <trkpt lat="44.14689" lon="7.55688">
        <ele>1903</ele>
        <time>2017-09-17T12:45:47Z</time>
      </trkpt>
      <trkpt lat="44.14693" lon="7.55691">
        <ele>1904</ele>
        <time>2017-09-17T12:45:48Z</time>
      </trkpt>
      <trkpt lat="44.14697" lon="7.55694">
        <ele>1904</ele>
        <time>2017-09-17T12:45:49Z</time>
      </trkpt>
      <trkpt lat="44.147" lon="7.55697">
        <ele>1904</ele>
        <time>2017-09-17T12:45:50Z</time>
      </trkpt>
      <trkpt lat="44.14703" lon="7.557">
        <ele>1905</ele>
        <time>2017-09-17T12:45:51Z</time>
      </trkpt>
      <trkpt lat="44.14707" lon="7.55704">
        <ele>1905</ele>
        <time>2017-09-17T12:45:52Z</time>
      </trkpt>
      <trkpt lat="44.1471" lon="7.55708">
        <ele>1905</ele>
        <time>2017-09-17T12:45:53Z</time>
      </trkpt>
      <trkpt lat="44.14713" lon="7.55712">
        <ele>1905</ele>
        <time>2017-09-17T12:45:54Z</time>
      </trkpt>
      <trkpt lat="44.14716" lon="7.55716">
        <ele>1906</ele>
        <time>2017-09-17T12:45:55Z</time>
      </trkpt>
      <trkpt lat="44.14719" lon="7.55719">
        <ele>1906</ele>
        <time>2017-09-17T12:45:56Z</time>
      </trkpt>
      <trkpt lat="44.14722" lon="7.55723">
        <ele>1906</ele>
        <time>2017-09-17T12:45:57Z</time>
      </trkpt>
      <trkpt lat="44.14725" lon="7.55726">
        <ele>1906</ele>
        <time>2017-09-17T12:45:58Z</time>
      </trkpt>
      <trkpt lat="44.14728" lon="7.5573">
        <ele>1907</ele>
        <time>2017-09-17T12:45:59Z</time>
      </trkpt>
      <trkpt lat="44.14731" lon="7.55734">
        <ele>1907</ele>
        <time>2017-09-17T12:46:00Z</time>
      </trkpt>
      <trkpt lat="44.14734" lon="7.55739">
        <ele>1907</ele>
        <time>2017-09-17T12:46:01Z</time>
      </trkpt>
      <trkpt lat="44.14737" lon="7.55745">
        <ele>1907</ele>
        <time>2017-09-17T12:46:02Z</time>
      </trkpt>
      <trkpt lat="44.14739" lon="7.55751">
        <ele>1907</ele>
        <time>2017-09-17T12:46:03Z</time>
      </trkpt>
      <trkpt lat="44.14742" lon="7.55758">
        <ele>1906</ele>
        <time>2017-09-17T12:46:04Z</time>
      </trkpt>
      <trkpt lat="44.14744" lon="7.55765">
        <ele>1906</ele>
        <time>2017-09-17T12:46:05Z</time>
      </trkpt>
      <trkpt lat="44.14747" lon="7.55772">
        <ele>1906</ele>
        <time>2017-09-17T12:46:06Z</time>
      </trkpt>
      <trkpt lat="44.1475" lon="7.55779">
        <ele>1906</ele>
        <time>2017-09-17T12:46:07Z</time>
      </trkpt>
      <trkpt lat="44.14753" lon="7.55787">
        <ele>1906</ele>
        <time>2017-09-17T12:46:08Z</time>
      </trkpt>
      <trkpt lat="44.14756" lon="7.55794">
        <ele>1906</ele>
        <time>2017-09-17T12:46:09Z</time>
      </trkpt>
      <trkpt lat="44.14759" lon="7.55802">
        <ele>1906</ele>
        <time>2017-09-17T12:46:10Z</time>
      </trkpt>
      <trkpt lat="44.14762" lon="7.55809">
        <ele>1906</ele>
        <time>2017-09-17T12:46:11Z</time>
      </trkpt>
      <trkpt lat="44.14766" lon="7.55816">
        <ele>1906</ele>
        <time>2017-09-17T12:46:12Z</time>
      </trkpt>
      <trkpt lat="44.1477" lon="7.55822">
        <ele>1906</ele>
        <time>2017-09-17T12:46:13Z</time>
      </trkpt>
      <trkpt lat="44.14774" lon="7.55829">
        <ele>1906</ele>
        <time>2017-09-17T12:46:14Z</time>
      </trkpt>
      <trkpt lat="44.14779" lon="7.55834">
        <ele>1906</ele>
        <time>2017-09-17T12:46:15Z</time>
      </trkpt>
      <trkpt lat="44.14783" lon="7.5584">
        <ele>1906</ele>
        <time>2017-09-17T12:46:16Z</time>
      </trkpt>
      <trkpt lat="44.14788" lon="7.55845">
        <ele>1907</ele>
        <time>2017-09-17T12:46:17Z</time>
      </trkpt>
      <trkpt lat="44.14792" lon="7.5585">
        <ele>1907</ele>
        <time>2017-09-17T12:46:18Z</time>
      </trkpt>
      <trkpt lat="44.14796" lon="7.55855">
        <ele>1907</ele>
        <time>2017-09-17T12:46:19Z</time>
      </trkpt>
      <trkpt lat="44.14801" lon="7.55859">
        <ele>1907</ele>
        <time>2017-09-17T12:46:20Z</time>
      </trkpt>
      <trkpt lat="44.14807" lon="7.55863">
        <ele>1907</ele>
        <time>2017-09-17T12:46:21Z</time>
      </trkpt>
      <trkpt lat="44.14813" lon="7.55865">
        <ele>1907</ele>
        <time>2017-09-17T12:46:22Z</time>
      </trkpt>
      <trkpt lat="44.14819" lon="7.55866">
        <ele>1907</ele>
        <time>2017-09-17T12:46:23Z</time>
      </trkpt>
      <trkpt lat="44.14825" lon="7.55866">
        <ele>1907</ele>
        <time>2017-09-17T12:46:24Z</time>
      </trkpt>
      <trkpt lat="44.14831" lon="7.55866">
        <ele>1907</ele>
        <time>2017-09-17T12:46:25Z</time>
      </trkpt>
      <trkpt lat="44.14837" lon="7.55866">
        <ele>1907</ele>
        <time>2017-09-17T12:46:26Z</time>
      </trkpt>
      <trkpt lat="44.14844" lon="7.55867">
        <ele>1906</ele>
        <time>2017-09-17T12:46:27Z</time>
      </trkpt>
      <trkpt lat="44.1485" lon="7.55869">
        <ele>1906</ele>
        <time>2017-09-17T12:46:28Z</time>
      </trkpt>
      <trkpt lat="44.14857" lon="7.55871">
        <ele>1906</ele>
        <time>2017-09-17T12:46:29Z</time>
      </trkpt>
      <trkpt lat="44.14863" lon="7.55874">
        <ele>1906</ele>
        <time>2017-09-17T12:46:30Z</time>
      </trkpt>
      <trkpt lat="44.1487" lon="7.55878">
        <ele>1905</ele>
        <time>2017-09-17T12:46:31Z</time>
      </trkpt>
      <trkpt lat="44.14877" lon="7.55881">
        <ele>1905</ele>
        <time>2017-09-17T12:46:32Z</time>
      </trkpt>
      <trkpt lat="44.14884" lon="7.55885">
        <ele>1905</ele>
        <time>2017-09-17T12:46:33Z</time>
      </trkpt>
      <trkpt lat="44.14891" lon="7.5589">
        <ele>1904</ele>
        <time>2017-09-17T12:46:34Z</time>
      </trkpt>
      <trkpt lat="44.14898" lon="7.55894">
        <ele>1904</ele>
        <time>2017-09-17T12:46:35Z</time>
      </trkpt>
      <trkpt lat="44.14906" lon="7.55899">
        <ele>1904</ele>
        <time>2017-09-17T12:46:36Z</time>
      </trkpt>
      <trkpt lat="44.14913" lon="7.55904">
        <ele>1903</ele>
        <time>2017-09-17T12:46:37Z</time>
      </trkpt>
      <trkpt lat="44.14921" lon="7.5591">
        <ele>1903</ele>
        <time>2017-09-17T12:46:38Z</time>
      </trkpt>
      <trkpt lat="44.14927" lon="7.55917">
        <ele>1902</ele>
        <time>2017-09-17T12:46:39Z</time>
      </trkpt>
      <trkpt lat="44.14933" lon="7.55925">
        <ele>1902</ele>
        <time>2017-09-17T12:46:40Z</time>
      </trkpt>
      <trkpt lat="44.14937" lon="7.55935">
        <ele>1901</ele>
        <time>2017-09-17T12:46:41Z</time>
      </trkpt>
      <trkpt lat="44.1494" lon="7.55946">
        <ele>1900</ele>
        <time>2017-09-17T12:46:42Z</time>
      </trkpt>
      <trkpt lat="44.1494" lon="7.55958">
        <ele>1900</ele>
        <time>2017-09-17T12:46:43Z</time>
      </trkpt>
      <trkpt lat="44.1494" lon="7.5597">
        <ele>1899</ele>
        <time>2017-09-17T12:46:44Z</time>
      </trkpt>
      <trkpt lat="44.1494" lon="7.55982">
        <ele>1898</ele>
        <time>2017-09-17T12:46:45Z</time>
      </trkpt>
      <trkpt lat="44.14938" lon="7.55994">
        <ele>1898</ele>
        <time>2017-09-17T12:46:46Z</time>
      </trkpt>
      <trkpt lat="44.14937" lon="7.56007">
        <ele>1897</ele>
        <time>2017-09-17T12:46:47Z</time>
      </trkpt>
      <trkpt lat="44.14935" lon="7.5602">
        <ele>1896</ele>
        <time>2017-09-17T12:46:48Z</time>
      </trkpt>
      <trkpt lat="44.14934" lon="7.56033">
        <ele>1895</ele>
        <time>2017-09-17T12:46:49Z</time>
      </trkpt>
      <trkpt lat="44.14932" lon="7.56045">
        <ele>1894</ele>
        <time>2017-09-17T12:46:50Z</time>
      </trkpt>
      <trkpt lat="44.14929" lon="7.56056">
        <ele>1893</ele>
        <time>2017-09-17T12:46:51Z</time>
      </trkpt>
      <trkpt lat="44.14926" lon="7.56067">
        <ele>1893</ele>
        <time>2017-09-17T12:46:52Z</time>
      </trkpt>
      <trkpt lat="44.14922" lon="7.56075">
        <ele>1892</ele>
        <time>2017-09-17T12:46:53Z</time>
      </trkpt>
      <trkpt lat="44.14917" lon="7.56083">
        <ele>1891</ele>
        <time>2017-09-17T12:46:54Z</time>
      </trkpt>
      <trkpt lat="44.14911" lon="7.56089">
        <ele>1891</ele>
        <time>2017-09-17T12:46:55Z</time>
      </trkpt>
      <trkpt lat="44.14905" lon="7.56095">
        <ele>1890</ele>
        <time>2017-09-17T12:46:56Z</time>
      </trkpt>
      <trkpt lat="44.14899" lon="7.561">
        <ele>1889</ele>
        <time>2017-09-17T12:46:57Z</time>
      </trkpt>
      <trkpt lat="44.14893" lon="7.56103">
        <ele>1889</ele>
        <time>2017-09-17T12:46:58Z</time>
      </trkpt>
      <trkpt lat="44.14889" lon="7.56107">
        <ele>1888</ele>
        <time>2017-09-17T12:46:59Z</time>
      </trkpt>
      <trkpt lat="44.14887" lon="7.56111">
        <ele>1888</ele>
        <time>2017-09-17T12:47:00Z</time>
      </trkpt>
      <trkpt lat="44.14886" lon="7.56117">
        <ele>1888</ele>
        <time>2017-09-17T12:47:01Z</time>
      </trkpt>
      <trkpt lat="44.14889" lon="7.56122">
        <ele>1887</ele>
        <time>2017-09-17T12:47:02Z</time>
      </trkpt>
      <trkpt lat="44.14893" lon="7.56127">
        <ele>1887</ele>
        <time>2017-09-17T12:47:03Z</time>
      </trkpt>
      <trkpt lat="44.14898" lon="7.5613">
        <ele>1886</ele>
        <time>2017-09-17T12:47:04Z</time>
      </trkpt>
      <trkpt lat="44.14904" lon="7.56134">
        <ele>1886</ele>
        <time>2017-09-17T12:47:05Z</time>
      </trkpt>
      <trkpt lat="44.1491" lon="7.56138">
        <ele>1885</ele>
        <time>2017-09-17T12:47:06Z</time>
      </trkpt>
      <trkpt lat="44.14917" lon="7.56142">
        <ele>1884</ele>
        <time>2017-09-17T12:47:07Z</time>
      </trkpt>
      <trkpt lat="44.14924" lon="7.56147">
        <ele>1884</ele>
        <time>2017-09-17T12:47:08Z</time>
      </trkpt>
      <trkpt lat="44.14931" lon="7.56151">
        <ele>1883</ele>
        <time>2017-09-17T12:47:09Z</time>
      </trkpt>
      <trkpt lat="44.14938" lon="7.56157">
        <ele>1882</ele>
        <time>2017-09-17T12:47:10Z</time>
      </trkpt>
      <trkpt lat="44.14945" lon="7.56162">
        <ele>1881</ele>
        <time>2017-09-17T12:47:11Z</time>
      </trkpt>
      <trkpt lat="44.14951" lon="7.56169">
        <ele>1880</ele>
        <time>2017-09-17T12:47:12Z</time>
      </trkpt>
      <trkpt lat="44.14958" lon="7.56177">
        <ele>1879</ele>
        <time>2017-09-17T12:47:13Z</time>
      </trkpt>
      <trkpt lat="44.14965" lon="7.56184">
        <ele>1878</ele>
        <time>2017-09-17T12:47:14Z</time>
      </trkpt>
      <trkpt lat="44.14971" lon="7.5619">
        <ele>1878</ele>
        <time>2017-09-17T12:47:15Z</time>
      </trkpt>
      <trkpt lat="44.14977" lon="7.56196">
        <ele>1877</ele>
        <time>2017-09-17T12:47:16Z</time>
      </trkpt>
      <trkpt lat="44.14981" lon="7.56203">
        <ele>1877</ele>
        <time>2017-09-17T12:47:17Z</time>
      </trkpt>
      <trkpt lat="44.14985" lon="7.56209">
        <ele>1876</ele>
        <time>2017-09-17T12:47:18Z</time>
      </trkpt>
      <trkpt lat="44.14988" lon="7.56215">
        <ele>1876</ele>
        <time>2017-09-17T12:47:19Z</time>
      </trkpt>
      <trkpt lat="44.14991" lon="7.56222">
        <ele>1876</ele>
        <time>2017-09-17T12:47:20Z</time>
      </trkpt>
      <trkpt lat="44.14993" lon="7.56229">
        <ele>1875</ele>
        <time>2017-09-17T12:47:21Z</time>
      </trkpt>
      <trkpt lat="44.14995" lon="7.56236">
        <ele>1875</ele>
        <time>2017-09-17T12:47:22Z</time>
      </trkpt>
      <trkpt lat="44.14997" lon="7.56244">
        <ele>1875</ele>
        <time>2017-09-17T12:47:23Z</time>
      </trkpt>
      <trkpt lat="44.14998" lon="7.56252">
        <ele>1875</ele>
        <time>2017-09-17T12:47:24Z</time>
      </trkpt>
      <trkpt lat="44.14998" lon="7.5626">
        <ele>1876</ele>
        <time>2017-09-17T12:47:25Z</time>
      </trkpt>
      <trkpt lat="44.14998" lon="7.56268">
        <ele>1876</ele>
        <time>2017-09-17T12:47:26Z</time>
      </trkpt>
      <trkpt lat="44.14998" lon="7.56276">
        <ele>1876</ele>
        <time>2017-09-17T12:47:27Z</time>
      </trkpt>
      <trkpt lat="44.15" lon="7.56283">
        <ele>1876</ele>
        <time>2017-09-17T12:47:28Z</time>
      </trkpt>
      <trkpt lat="44.15004" lon="7.56289">
        <ele>1876</ele>
        <time>2017-09-17T12:47:29Z</time>
      </trkpt>
      <trkpt lat="44.15008" lon="7.56295">
        <ele>1876</ele>
        <time>2017-09-17T12:47:30Z</time>
      </trkpt>
      <trkpt lat="44.15011" lon="7.563">
        <ele>1876</ele>
        <time>2017-09-17T12:47:31Z</time>
      </trkpt>
      <trkpt lat="44.15014" lon="7.56306">
        <ele>1877</ele>
        <time>2017-09-17T12:47:32Z</time>
      </trkpt>
      <trkpt lat="44.15016" lon="7.56312">
        <ele>1877</ele>
        <time>2017-09-17T12:47:33Z</time>
      </trkpt>
      <trkpt lat="44.15018" lon="7.56318">
        <ele>1877</ele>
        <time>2017-09-17T12:47:34Z</time>
      </trkpt>
      <trkpt lat="44.1502" lon="7.56324">
        <ele>1877</ele>
        <time>2017-09-17T12:47:35Z</time>
      </trkpt>
      <trkpt lat="44.15022" lon="7.5633">
        <ele>1878</ele>
        <time>2017-09-17T12:47:36Z</time>
      </trkpt>
      <trkpt lat="44.15024" lon="7.56335">
        <ele>1878</ele>
        <time>2017-09-17T12:47:37Z</time>
      </trkpt>
      <trkpt lat="44.15025" lon="7.56341">
        <ele>1878</ele>
        <time>2017-09-17T12:47:38Z</time>
      </trkpt>
      <trkpt lat="44.15026" lon="7.56347">
        <ele>1879</ele>
        <time>2017-09-17T12:47:39Z</time>
      </trkpt>
      <trkpt lat="44.15028" lon="7.56352">
        <ele>1879</ele>
        <time>2017-09-17T12:47:40Z</time>
      </trkpt>
      <trkpt lat="44.15029" lon="7.56359">
        <ele>1879</ele>
        <time>2017-09-17T12:47:41Z</time>
      </trkpt>
      <trkpt lat="44.1503" lon="7.56365">
        <ele>1880</ele>
        <time>2017-09-17T12:47:42Z</time>
      </trkpt>
      <trkpt lat="44.15031" lon="7.56371">
        <ele>1880</ele>
        <time>2017-09-17T12:47:43Z</time>
      </trkpt>
      <trkpt lat="44.15033" lon="7.56377">
        <ele>1880</ele>
        <time>2017-09-17T12:47:44Z</time>
      </trkpt>
      <trkpt lat="44.15035" lon="7.56383">
        <ele>1881</ele>
        <time>2017-09-17T12:47:45Z</time>
      </trkpt>
      <trkpt lat="44.15037" lon="7.56388">
        <ele>1881</ele>
        <time>2017-09-17T12:47:46Z</time>
      </trkpt>
      <trkpt lat="44.15039" lon="7.56394">
        <ele>1882</ele>
        <time>2017-09-17T12:47:47Z</time>
      </trkpt>
      <trkpt lat="44.15042" lon="7.56399">
        <ele>1882</ele>
        <time>2017-09-17T12:47:48Z</time>
      </trkpt>
      <trkpt lat="44.15044" lon="7.56404">
        <ele>1883</ele>
        <time>2017-09-17T12:47:49Z</time>
      </trkpt>
      <trkpt lat="44.15047" lon="7.5641">
        <ele>1883</ele>
        <time>2017-09-17T12:47:50Z</time>
      </trkpt>
      <trkpt lat="44.15049" lon="7.56415">
        <ele>1883</ele>
        <time>2017-09-17T12:47:51Z</time>
      </trkpt>
      <trkpt lat="44.15052" lon="7.56419">
        <ele>1884</ele>
        <time>2017-09-17T12:47:52Z</time>
      </trkpt>
      <trkpt lat="44.15055" lon="7.56424">
        <ele>1884</ele>
        <time>2017-09-17T12:47:53Z</time>
      </trkpt>
      <trkpt lat="44.15057" lon="7.56429">
        <ele>1884</ele>
        <time>2017-09-17T12:47:54Z</time>
      </trkpt>
      <trkpt lat="44.1506" lon="7.56434">
        <ele>1885</ele>
        <time>2017-09-17T12:47:55Z</time>
      </trkpt>
      <trkpt lat="44.15062" lon="7.56439">
        <ele>1885</ele>
        <time>2017-09-17T12:47:56Z</time>
      </trkpt>
      <trkpt lat="44.15064" lon="7.56444">
        <ele>1885</ele>
        <time>2017-09-17T12:47:57Z</time>
      </trkpt>
      <trkpt lat="44.15066" lon="7.56449">
        <ele>1886</ele>
        <time>2017-09-17T12:47:58Z</time>
      </trkpt>
      <trkpt lat="44.15068" lon="7.56454">
        <ele>1886</ele>
        <time>2017-09-17T12:47:59Z</time>
      </trkpt>
      <trkpt lat="44.1507" lon="7.56459">
        <ele>1886</ele>
        <time>2017-09-17T12:48:00Z</time>
      </trkpt>
      <trkpt lat="44.15071" lon="7.56464">
        <ele>1887</ele>
        <time>2017-09-17T12:48:01Z</time>
      </trkpt>
      <trkpt lat="44.15073" lon="7.56469">
        <ele>1887</ele>
        <time>2017-09-17T12:48:02Z</time>
      </trkpt>
      <trkpt lat="44.15074" lon="7.56474">
        <ele>1887</ele>
        <time>2017-09-17T12:48:03Z</time>
      </trkpt>
      <trkpt lat="44.15075" lon="7.5648">
        <ele>1888</ele>
        <time>2017-09-17T12:48:04Z</time>
      </trkpt>
      <trkpt lat="44.15077" lon="7.56485">
        <ele>1888</ele>
        <time>2017-09-17T12:48:05Z</time>
      </trkpt>
      <trkpt lat="44.15078" lon="7.56491">
        <ele>1889</ele>
        <time>2017-09-17T12:48:06Z</time>
      </trkpt>
      <trkpt lat="44.15079" lon="7.56497">
        <ele>1889</ele>
        <time>2017-09-17T12:48:07Z</time>
      </trkpt>
      <trkpt lat="44.1508" lon="7.56502">
        <ele>1889</ele>
        <time>2017-09-17T12:48:08Z</time>
      </trkpt>
      <trkpt lat="44.15081" lon="7.56508">
        <ele>1889</ele>
        <time>2017-09-17T12:48:09Z</time>
      </trkpt>
      <trkpt lat="44.15082" lon="7.56514">
        <ele>1890</ele>
        <time>2017-09-17T12:48:10Z</time>
      </trkpt>
      <trkpt lat="44.15083" lon="7.5652">
        <ele>1890</ele>
        <time>2017-09-17T12:48:11Z</time>
      </trkpt>
      <trkpt lat="44.15084" lon="7.56526">
        <ele>1891</ele>
        <time>2017-09-17T12:48:12Z</time>
      </trkpt>
      <trkpt lat="44.15084" lon="7.56532">
        <ele>1891</ele>
        <time>2017-09-17T12:48:13Z</time>
      </trkpt>
      <trkpt lat="44.15084" lon="7.56537">
        <ele>1891</ele>
        <time>2017-09-17T12:48:14Z</time>
      </trkpt>
      <trkpt lat="44.15084" lon="7.56543">
        <ele>1892</ele>
        <time>2017-09-17T12:48:15Z</time>
      </trkpt>
      <trkpt lat="44.15084" lon="7.56549">
        <ele>1892</ele>
        <time>2017-09-17T12:48:16Z</time>
      </trkpt>
      <trkpt lat="44.15084" lon="7.56554">
        <ele>1892</ele>
        <time>2017-09-17T12:48:17Z</time>
      </trkpt>
      <trkpt lat="44.15085" lon="7.5656">
        <ele>1893</ele>
        <time>2017-09-17T12:48:18Z</time>
      </trkpt>
      <trkpt lat="44.15085" lon="7.56565">
        <ele>1893</ele>
        <time>2017-09-17T12:48:19Z</time>
      </trkpt>
      <trkpt lat="44.15085" lon="7.56571">
        <ele>1894</ele>
        <time>2017-09-17T12:48:20Z</time>
      </trkpt>
      <trkpt lat="44.15086" lon="7.56576">
        <ele>1894</ele>
        <time>2017-09-17T12:48:21Z</time>
      </trkpt>
      <trkpt lat="44.15086" lon="7.56582">
        <ele>1894</ele>
        <time>2017-09-17T12:48:22Z</time>
      </trkpt>
      <trkpt lat="44.15087" lon="7.56587">
        <ele>1895</ele>
        <time>2017-09-17T12:48:23Z</time>
      </trkpt>
      <trkpt lat="44.15087" lon="7.56593">
        <ele>1895</ele>
        <time>2017-09-17T12:48:24Z</time>
      </trkpt>
      <trkpt lat="44.15088" lon="7.56598">
        <ele>1895</ele>
        <time>2017-09-17T12:48:25Z</time>
      </trkpt>
      <trkpt lat="44.15089" lon="7.56604">
        <ele>1895</ele>
        <time>2017-09-17T12:48:26Z</time>
      </trkpt>
      <trkpt lat="44.1509" lon="7.5661">
        <ele>1896</ele>
        <time>2017-09-17T12:48:27Z</time>
      </trkpt>
      <trkpt lat="44.15091" lon="7.56615">
        <ele>1896</ele>
        <time>2017-09-17T12:48:28Z</time>
      </trkpt>
      <trkpt lat="44.15092" lon="7.56621">
        <ele>1896</ele>
        <time>2017-09-17T12:48:29Z</time>
      </trkpt>
      <trkpt lat="44.15093" lon="7.56626">
        <ele>1897</ele>
        <time>2017-09-17T12:48:30Z</time>
      </trkpt>
      <trkpt lat="44.15094" lon="7.56631">
        <ele>1897</ele>
        <time>2017-09-17T12:48:31Z</time>
      </trkpt>
      <trkpt lat="44.15095" lon="7.56637">
        <ele>1897</ele>
        <time>2017-09-17T12:48:32Z</time>
      </trkpt>
      <trkpt lat="44.15097" lon="7.56642">
        <ele>1898</ele>
        <time>2017-09-17T12:48:33Z</time>
      </trkpt>
      <trkpt lat="44.15099" lon="7.56646">
        <ele>1898</ele>
        <time>2017-09-17T12:48:34Z</time>
      </trkpt>
      <trkpt lat="44.151" lon="7.56652">
        <ele>1898</ele>
        <time>2017-09-17T12:48:35Z</time>
      </trkpt>
      <trkpt lat="44.15101" lon="7.56657">
        <ele>1898</ele>
        <time>2017-09-17T12:48:36Z</time>
      </trkpt>
      <trkpt lat="44.15103" lon="7.56662">
        <ele>1899</ele>
        <time>2017-09-17T12:48:37Z</time>
      </trkpt>
      <trkpt lat="44.15105" lon="7.56667">
        <ele>1899</ele>
        <time>2017-09-17T12:48:38Z</time>
      </trkpt>
      <trkpt lat="44.15106" lon="7.56672">
        <ele>1899</ele>
        <time>2017-09-17T12:48:39Z</time>
      </trkpt>
      <trkpt lat="44.15107" lon="7.56676">
        <ele>1900</ele>
        <time>2017-09-17T12:48:40Z</time>
      </trkpt>
      <trkpt lat="44.15107" lon="7.56681">
        <ele>1900</ele>
        <time>2017-09-17T12:48:41Z</time>
      </trkpt>
      <trkpt lat="44.15104" lon="7.56684">
        <ele>1900</ele>
        <time>2017-09-17T12:48:42Z</time>
      </trkpt>
      <trkpt lat="44.15101" lon="7.56686">
        <ele>1900</ele>
        <time>2017-09-17T12:48:43Z</time>
      </trkpt>
      <trkpt lat="44.15099" lon="7.56685">
        <ele>1901</ele>
        <time>2017-09-17T12:48:44Z</time>
      </trkpt>
      <trkpt lat="44.15096" lon="7.56681">
        <ele>1901</ele>
        <time>2017-09-17T12:48:45Z</time>
      </trkpt>
      <trkpt lat="44.15095" lon="7.56677">
        <ele>1901</ele>
        <time>2017-09-17T12:48:46Z</time>
      </trkpt>
      <trkpt lat="44.15094" lon="7.56671">
        <ele>1901</ele>
        <time>2017-09-17T12:48:47Z</time>
      </trkpt>
      <trkpt lat="44.15092" lon="7.56667">
        <ele>1902</ele>
        <time>2017-09-17T12:48:48Z</time>
      </trkpt>
      <trkpt lat="44.15089" lon="7.56664">
        <ele>1902</ele>
        <time>2017-09-17T12:48:49Z</time>
      </trkpt>
      <trkpt lat="44.15086" lon="7.56665">
        <ele>1902</ele>
        <time>2017-09-17T12:48:50Z</time>
      </trkpt>
      <trkpt lat="44.15084" lon="7.56668">
        <ele>1903</ele>
        <time>2017-09-17T12:48:51Z</time>
      </trkpt>
      <trkpt lat="44.15084" lon="7.56672">
        <ele>1903</ele>
        <time>2017-09-17T12:48:52Z</time>
      </trkpt>
      <trkpt lat="44.15085" lon="7.56677">
        <ele>1904</ele>
        <time>2017-09-17T12:48:53Z</time>
      </trkpt>
      <trkpt lat="44.15085" lon="7.56682">
        <ele>1904</ele>
        <time>2017-09-17T12:48:54Z</time>
      </trkpt>
      <trkpt lat="44.15085" lon="7.56688">
        <ele>1904</ele>
        <time>2017-09-17T12:48:55Z</time>
      </trkpt>
      <trkpt lat="44.15085" lon="7.56694">
        <ele>1905</ele>
        <time>2017-09-17T12:48:56Z</time>
      </trkpt>
      <trkpt lat="44.15085" lon="7.56701">
        <ele>1905</ele>
        <time>2017-09-17T12:48:57Z</time>
      </trkpt>
      <trkpt lat="44.15084" lon="7.56707">
        <ele>1905</ele>
        <time>2017-09-17T12:48:58Z</time>
      </trkpt>
      <trkpt lat="44.15083" lon="7.56713">
        <ele>1906</ele>
        <time>2017-09-17T12:48:59Z</time>
      </trkpt>
      <trkpt lat="44.15082" lon="7.56718">
        <ele>1906</ele>
        <time>2017-09-17T12:49:00Z</time>
      </trkpt>
      <trkpt lat="44.15082" lon="7.56725">
        <ele>1906</ele>
        <time>2017-09-17T12:49:01Z</time>
      </trkpt>
      <trkpt lat="44.15082" lon="7.56731">
        <ele>1906</ele>
        <time>2017-09-17T12:49:02Z</time>
      </trkpt>
      <trkpt lat="44.15083" lon="7.56738">
        <ele>1907</ele>
        <time>2017-09-17T12:49:03Z</time>
      </trkpt>
    </trkseg>
  </trk>
</gpx>